<?xml version="1.0" encoding="UTF-8" standalone="no" ?>
<gpx xmlns="http://www.topografix.com/GPX/1/1" xmlns:xsi="http://www.w3.org/2001/XMLSchema-instance" xsi:schemaLocation="http://www.topografix.com/GPX/1/1 http://www.topografix.com/GPX/1/1/gpx.xsd" version="1.1" creator="VisuGPX - https://www.visugpx.com">
  <metadata>
    <name>2018-08-28 Bike ride-Ambérieux-Rancé O via Massieux v39k</name>
    <desc><![CDATA[2018-08-28 Bike ride-Ambérieux-Rancé O via Massieux v39k]]></desc>
  </metadata>
  <wpt lat="45.9246" lon="4.73709">
    <ele>174</ele>
    <name><![CDATA[2018-08-28 10:19 (Start)]]></name>
  </wpt>
  <wpt lat="45.92461" lon="4.73711">
    <ele>174</ele>
    <name><![CDATA[2018-08-28 10:19 (End)]]></name>
  </wpt>
  <trk>
    <name><![CDATA[2018-08-28 10:19]]></name>
    <trkseg>
      <trkpt lat="45.9246" lon="4.73709">
        <ele>174</ele>
        <time>2018-08-28T08:19:09.626Z</time>
      </trkpt>
      <trkpt lat="45.92465" lon="4.73699">
        <ele>174</ele>
        <time>2018-08-28T08:19:35Z</time>
      </trkpt>
      <trkpt lat="45.92465" lon="4.73696">
        <ele>174</ele>
        <time>2018-08-28T08:19:36Z</time>
      </trkpt>
      <trkpt lat="45.92466" lon="4.73685">
        <ele>174</ele>
        <time>2018-08-28T08:19:39Z</time>
      </trkpt>
      <trkpt lat="45.92467" lon="4.73681">
        <ele>174</ele>
        <time>2018-08-28T08:19:40Z</time>
      </trkpt>
      <trkpt lat="45.92468" lon="4.7367">
        <ele>174</ele>
        <time>2018-08-28T08:19:43Z</time>
      </trkpt>
      <trkpt lat="45.92468" lon="4.73665">
        <ele>174</ele>
        <time>2018-08-28T08:19:44Z</time>
      </trkpt>
      <trkpt lat="45.9247" lon="4.73656">
        <ele>174</ele>
        <time>2018-08-28T08:19:46Z</time>
      </trkpt>
      <trkpt lat="45.92471" lon="4.73652">
        <ele>174</ele>
        <time>2018-08-28T08:19:47Z</time>
      </trkpt>
      <trkpt lat="45.92476" lon="4.73641">
        <ele>174</ele>
        <time>2018-08-28T08:19:48Z</time>
      </trkpt>
      <trkpt lat="45.92483" lon="4.73639">
        <ele>174</ele>
        <time>2018-08-28T08:19:50Z</time>
      </trkpt>
      <trkpt lat="45.92487" lon="4.73639">
        <ele>174</ele>
        <time>2018-08-28T08:19:51Z</time>
      </trkpt>
      <trkpt lat="45.92495" lon="4.7364">
        <ele>174</ele>
        <time>2018-08-28T08:19:53Z</time>
      </trkpt>
      <trkpt lat="45.92499" lon="4.7364">
        <ele>174</ele>
        <time>2018-08-28T08:19:54Z</time>
      </trkpt>
      <trkpt lat="45.92508" lon="4.73639">
        <ele>174</ele>
        <time>2018-08-28T08:19:56Z</time>
      </trkpt>
      <trkpt lat="45.92515" lon="4.73634">
        <ele>173</ele>
        <time>2018-08-28T08:19:57Z</time>
      </trkpt>
      <trkpt lat="45.92521" lon="4.73636">
        <ele>173</ele>
        <time>2018-08-28T08:19:59Z</time>
      </trkpt>
      <trkpt lat="45.92527" lon="4.73638">
        <ele>173</ele>
        <time>2018-08-28T08:20:00Z</time>
      </trkpt>
      <trkpt lat="45.92535" lon="4.73637">
        <ele>173</ele>
        <time>2018-08-28T08:20:02Z</time>
      </trkpt>
      <trkpt lat="45.9254" lon="4.73637">
        <ele>173</ele>
        <time>2018-08-28T08:20:03Z</time>
      </trkpt>
      <trkpt lat="45.92548" lon="4.73638">
        <ele>173</ele>
        <time>2018-08-28T08:20:05Z</time>
      </trkpt>
      <trkpt lat="45.92552" lon="4.73639">
        <ele>173</ele>
        <time>2018-08-28T08:20:06Z</time>
      </trkpt>
      <trkpt lat="45.9256" lon="4.73636">
        <ele>173</ele>
        <time>2018-08-28T08:20:08Z</time>
      </trkpt>
      <trkpt lat="45.92565" lon="4.73634">
        <ele>173</ele>
        <time>2018-08-28T08:20:09Z</time>
      </trkpt>
      <trkpt lat="45.92574" lon="4.73634">
        <ele>173</ele>
        <time>2018-08-28T08:20:11Z</time>
      </trkpt>
      <trkpt lat="45.92581" lon="4.73633">
        <ele>172</ele>
        <time>2018-08-28T08:20:12Z</time>
      </trkpt>
      <trkpt lat="45.92585" lon="4.7363">
        <ele>172</ele>
        <time>2018-08-28T08:20:13Z</time>
      </trkpt>
      <trkpt lat="45.9259" lon="4.73629">
        <ele>172</ele>
        <time>2018-08-28T08:20:14Z</time>
      </trkpt>
      <trkpt lat="45.92598" lon="4.73632">
        <ele>172</ele>
        <time>2018-08-28T08:20:16Z</time>
      </trkpt>
      <trkpt lat="45.92604" lon="4.73633">
        <ele>172</ele>
        <time>2018-08-28T08:20:17Z</time>
      </trkpt>
      <trkpt lat="45.92611" lon="4.73635">
        <ele>173</ele>
        <time>2018-08-28T08:20:18Z</time>
      </trkpt>
      <trkpt lat="45.92616" lon="4.73635">
        <ele>173</ele>
        <time>2018-08-28T08:20:19Z</time>
      </trkpt>
      <trkpt lat="45.92618" lon="4.73637">
        <ele>173</ele>
        <time>2018-08-28T08:20:20Z</time>
      </trkpt>
      <trkpt lat="45.92625" lon="4.73644">
        <ele>173</ele>
        <time>2018-08-28T08:20:21Z</time>
      </trkpt>
      <trkpt lat="45.92628" lon="4.73653">
        <ele>173</ele>
        <time>2018-08-28T08:20:23Z</time>
      </trkpt>
      <trkpt lat="45.92631" lon="4.73659">
        <ele>173</ele>
        <time>2018-08-28T08:20:24Z</time>
      </trkpt>
      <trkpt lat="45.92634" lon="4.73665">
        <ele>173</ele>
        <time>2018-08-28T08:20:25Z</time>
      </trkpt>
      <trkpt lat="45.92635" lon="4.7367">
        <ele>173</ele>
        <time>2018-08-28T08:20:26Z</time>
      </trkpt>
      <trkpt lat="45.92638" lon="4.73675">
        <ele>173</ele>
        <time>2018-08-28T08:20:27Z</time>
      </trkpt>
      <trkpt lat="45.92641" lon="4.7368">
        <ele>173</ele>
        <time>2018-08-28T08:20:28Z</time>
      </trkpt>
      <trkpt lat="45.92644" lon="4.73685">
        <ele>173</ele>
        <time>2018-08-28T08:20:29Z</time>
      </trkpt>
      <trkpt lat="45.92649" lon="4.7369">
        <ele>173</ele>
        <time>2018-08-28T08:20:30Z</time>
      </trkpt>
      <trkpt lat="45.92651" lon="4.73696">
        <ele>173</ele>
        <time>2018-08-28T08:20:31Z</time>
      </trkpt>
      <trkpt lat="45.92657" lon="4.73699">
        <ele>173</ele>
        <time>2018-08-28T08:20:32Z</time>
      </trkpt>
      <trkpt lat="45.92661" lon="4.73704">
        <ele>173</ele>
        <time>2018-08-28T08:20:33Z</time>
      </trkpt>
      <trkpt lat="45.92667" lon="4.73706">
        <ele>174</ele>
        <time>2018-08-28T08:20:34Z</time>
      </trkpt>
      <trkpt lat="45.92672" lon="4.73708">
        <ele>174</ele>
        <time>2018-08-28T08:20:35Z</time>
      </trkpt>
      <trkpt lat="45.92677" lon="4.73711">
        <ele>173</ele>
        <time>2018-08-28T08:20:36Z</time>
      </trkpt>
      <trkpt lat="45.92683" lon="4.73713">
        <ele>173</ele>
        <time>2018-08-28T08:20:37Z</time>
      </trkpt>
      <trkpt lat="45.92687" lon="4.73715">
        <ele>173</ele>
        <time>2018-08-28T08:20:38Z</time>
      </trkpt>
      <trkpt lat="45.9269" lon="4.73719">
        <ele>173</ele>
        <time>2018-08-28T08:20:39Z</time>
      </trkpt>
      <trkpt lat="45.92696" lon="4.73717">
        <ele>173</ele>
        <time>2018-08-28T08:20:40Z</time>
      </trkpt>
      <trkpt lat="45.92704" lon="4.73718">
        <ele>173</ele>
        <time>2018-08-28T08:20:42Z</time>
      </trkpt>
      <trkpt lat="45.9271" lon="4.73717">
        <ele>173</ele>
        <time>2018-08-28T08:20:43Z</time>
      </trkpt>
      <trkpt lat="45.92717" lon="4.73715">
        <ele>173</ele>
        <time>2018-08-28T08:20:44Z</time>
      </trkpt>
      <trkpt lat="45.92722" lon="4.73713">
        <ele>173</ele>
        <time>2018-08-28T08:20:45Z</time>
      </trkpt>
      <trkpt lat="45.92727" lon="4.73714">
        <ele>173</ele>
        <time>2018-08-28T08:20:46Z</time>
      </trkpt>
      <trkpt lat="45.92732" lon="4.73715">
        <ele>173</ele>
        <time>2018-08-28T08:20:47Z</time>
      </trkpt>
      <trkpt lat="45.92736" lon="4.73718">
        <ele>173</ele>
        <time>2018-08-28T08:20:48Z</time>
      </trkpt>
      <trkpt lat="45.92742" lon="4.73716">
        <ele>173</ele>
        <time>2018-08-28T08:20:49Z</time>
      </trkpt>
      <trkpt lat="45.92747" lon="4.7372">
        <ele>173</ele>
        <time>2018-08-28T08:20:50Z</time>
      </trkpt>
      <trkpt lat="45.92752" lon="4.73723">
        <ele>172</ele>
        <time>2018-08-28T08:20:51Z</time>
      </trkpt>
      <trkpt lat="45.92755" lon="4.73723">
        <ele>172</ele>
        <time>2018-08-28T08:20:52Z</time>
      </trkpt>
      <trkpt lat="45.92761" lon="4.73725">
        <ele>172</ele>
        <time>2018-08-28T08:20:53Z</time>
      </trkpt>
      <trkpt lat="45.92766" lon="4.73726">
        <ele>172</ele>
        <time>2018-08-28T08:20:54Z</time>
      </trkpt>
      <trkpt lat="45.9277" lon="4.73728">
        <ele>172</ele>
        <time>2018-08-28T08:20:55Z</time>
      </trkpt>
      <trkpt lat="45.92774" lon="4.7373">
        <ele>172</ele>
        <time>2018-08-28T08:20:56Z</time>
      </trkpt>
      <trkpt lat="45.92778" lon="4.73737">
        <ele>172</ele>
        <time>2018-08-28T08:20:57Z</time>
      </trkpt>
      <trkpt lat="45.92782" lon="4.73742">
        <ele>172</ele>
        <time>2018-08-28T08:20:59Z</time>
      </trkpt>
      <trkpt lat="45.92783" lon="4.7375">
        <ele>173</ele>
        <time>2018-08-28T08:21:00Z</time>
      </trkpt>
      <trkpt lat="45.92785" lon="4.73754">
        <ele>173</ele>
        <time>2018-08-28T08:21:03Z</time>
      </trkpt>
      <trkpt lat="45.92793" lon="4.7376">
        <ele>173</ele>
        <time>2018-08-28T08:21:04Z</time>
      </trkpt>
      <trkpt lat="45.92801" lon="4.73764">
        <ele>173</ele>
        <time>2018-08-28T08:21:06Z</time>
      </trkpt>
      <trkpt lat="45.92805" lon="4.73766">
        <ele>173</ele>
        <time>2018-08-28T08:21:07Z</time>
      </trkpt>
      <trkpt lat="45.9281" lon="4.73768">
        <ele>173</ele>
        <time>2018-08-28T08:21:08Z</time>
      </trkpt>
      <trkpt lat="45.92815" lon="4.73771">
        <ele>173</ele>
        <time>2018-08-28T08:21:09Z</time>
      </trkpt>
      <trkpt lat="45.9282" lon="4.73775">
        <ele>173</ele>
        <time>2018-08-28T08:21:10Z</time>
      </trkpt>
      <trkpt lat="45.92824" lon="4.73779">
        <ele>173</ele>
        <time>2018-08-28T08:21:11Z</time>
      </trkpt>
      <trkpt lat="45.9283" lon="4.7378">
        <ele>173</ele>
        <time>2018-08-28T08:21:12Z</time>
      </trkpt>
      <trkpt lat="45.92833" lon="4.73785">
        <ele>173</ele>
        <time>2018-08-28T08:21:13Z</time>
      </trkpt>
      <trkpt lat="45.92837" lon="4.73789">
        <ele>173</ele>
        <time>2018-08-28T08:21:14Z</time>
      </trkpt>
      <trkpt lat="45.92841" lon="4.73792">
        <ele>173</ele>
        <time>2018-08-28T08:21:15Z</time>
      </trkpt>
      <trkpt lat="45.92847" lon="4.73799">
        <ele>173</ele>
        <time>2018-08-28T08:21:18Z</time>
      </trkpt>
      <trkpt lat="45.92848" lon="4.73801">
        <ele>173</ele>
        <time>2018-08-28T08:21:19Z</time>
      </trkpt>
      <trkpt lat="45.92851" lon="4.73806">
        <ele>173</ele>
        <time>2018-08-28T08:21:21Z</time>
      </trkpt>
      <trkpt lat="45.92856" lon="4.73819">
        <ele>173</ele>
        <time>2018-08-28T08:21:22Z</time>
      </trkpt>
      <trkpt lat="45.92858" lon="4.73825">
        <ele>173</ele>
        <time>2018-08-28T08:21:23Z</time>
      </trkpt>
      <trkpt lat="45.92859" lon="4.73831">
        <ele>173</ele>
        <time>2018-08-28T08:21:24Z</time>
      </trkpt>
      <trkpt lat="45.92861" lon="4.73837">
        <ele>173</ele>
        <time>2018-08-28T08:21:25Z</time>
      </trkpt>
      <trkpt lat="45.92864" lon="4.73844">
        <ele>173</ele>
        <time>2018-08-28T08:21:26Z</time>
      </trkpt>
      <trkpt lat="45.92866" lon="4.7385">
        <ele>173</ele>
        <time>2018-08-28T08:21:27Z</time>
      </trkpt>
      <trkpt lat="45.92877" lon="4.73877">
        <ele>173</ele>
        <time>2018-08-28T08:21:31Z</time>
      </trkpt>
      <trkpt lat="45.92875" lon="4.73887">
        <ele>173</ele>
        <time>2018-08-28T08:21:32Z</time>
      </trkpt>
      <trkpt lat="45.92874" lon="4.73894">
        <ele>173</ele>
        <time>2018-08-28T08:21:33Z</time>
      </trkpt>
      <trkpt lat="45.92876" lon="4.73902">
        <ele>173</ele>
        <time>2018-08-28T08:21:34Z</time>
      </trkpt>
      <trkpt lat="45.92879" lon="4.73908">
        <ele>173</ele>
        <time>2018-08-28T08:21:35Z</time>
      </trkpt>
      <trkpt lat="45.9288" lon="4.73916">
        <ele>173</ele>
        <time>2018-08-28T08:21:36Z</time>
      </trkpt>
      <trkpt lat="45.9288" lon="4.73924">
        <ele>172</ele>
        <time>2018-08-28T08:21:37Z</time>
      </trkpt>
      <trkpt lat="45.92881" lon="4.73931">
        <ele>172</ele>
        <time>2018-08-28T08:21:38Z</time>
      </trkpt>
      <trkpt lat="45.92882" lon="4.73938">
        <ele>172</ele>
        <time>2018-08-28T08:21:39Z</time>
      </trkpt>
      <trkpt lat="45.92881" lon="4.73945">
        <ele>172</ele>
        <time>2018-08-28T08:21:40Z</time>
      </trkpt>
      <trkpt lat="45.92881" lon="4.73951">
        <ele>172</ele>
        <time>2018-08-28T08:21:41Z</time>
      </trkpt>
      <trkpt lat="45.92881" lon="4.73959">
        <ele>172</ele>
        <time>2018-08-28T08:21:42Z</time>
      </trkpt>
      <trkpt lat="45.92881" lon="4.73966">
        <ele>172</ele>
        <time>2018-08-28T08:21:43Z</time>
      </trkpt>
      <trkpt lat="45.92886" lon="4.73976">
        <ele>172</ele>
        <time>2018-08-28T08:21:44Z</time>
      </trkpt>
      <trkpt lat="45.92886" lon="4.73981">
        <ele>172</ele>
        <time>2018-08-28T08:21:45Z</time>
      </trkpt>
      <trkpt lat="45.92885" lon="4.73988">
        <ele>172</ele>
        <time>2018-08-28T08:21:46Z</time>
      </trkpt>
      <trkpt lat="45.92884" lon="4.73995">
        <ele>172</ele>
        <time>2018-08-28T08:21:47Z</time>
      </trkpt>
      <trkpt lat="45.92882" lon="4.74002">
        <ele>172</ele>
        <time>2018-08-28T08:21:48Z</time>
      </trkpt>
      <trkpt lat="45.9288" lon="4.74008">
        <ele>172</ele>
        <time>2018-08-28T08:21:49Z</time>
      </trkpt>
      <trkpt lat="45.92878" lon="4.74014">
        <ele>172</ele>
        <time>2018-08-28T08:21:50Z</time>
      </trkpt>
      <trkpt lat="45.92876" lon="4.7402">
        <ele>172</ele>
        <time>2018-08-28T08:21:51Z</time>
      </trkpt>
      <trkpt lat="45.92873" lon="4.74032">
        <ele>172</ele>
        <time>2018-08-28T08:21:53Z</time>
      </trkpt>
      <trkpt lat="45.92868" lon="4.74037">
        <ele>172</ele>
        <time>2018-08-28T08:21:54Z</time>
      </trkpt>
      <trkpt lat="45.92866" lon="4.74046">
        <ele>172</ele>
        <time>2018-08-28T08:21:55Z</time>
      </trkpt>
      <trkpt lat="45.92862" lon="4.74047">
        <ele>172</ele>
        <time>2018-08-28T08:21:56Z</time>
      </trkpt>
      <trkpt lat="45.92857" lon="4.74052">
        <ele>172</ele>
        <time>2018-08-28T08:21:57Z</time>
      </trkpt>
      <trkpt lat="45.92853" lon="4.74057">
        <ele>172</ele>
        <time>2018-08-28T08:21:58Z</time>
      </trkpt>
      <trkpt lat="45.92848" lon="4.74061">
        <ele>172</ele>
        <time>2018-08-28T08:21:59Z</time>
      </trkpt>
      <trkpt lat="45.92845" lon="4.74067">
        <ele>172</ele>
        <time>2018-08-28T08:22:00Z</time>
      </trkpt>
      <trkpt lat="45.9284" lon="4.74071">
        <ele>172</ele>
        <time>2018-08-28T08:22:01Z</time>
      </trkpt>
      <trkpt lat="45.92836" lon="4.74076">
        <ele>171</ele>
        <time>2018-08-28T08:22:02Z</time>
      </trkpt>
      <trkpt lat="45.92832" lon="4.7408">
        <ele>171</ele>
        <time>2018-08-28T08:22:03Z</time>
      </trkpt>
      <trkpt lat="45.92828" lon="4.74086">
        <ele>171</ele>
        <time>2018-08-28T08:22:04Z</time>
      </trkpt>
      <trkpt lat="45.92824" lon="4.7409">
        <ele>171</ele>
        <time>2018-08-28T08:22:05Z</time>
      </trkpt>
      <trkpt lat="45.9282" lon="4.74094">
        <ele>171</ele>
        <time>2018-08-28T08:22:06Z</time>
      </trkpt>
      <trkpt lat="45.92817" lon="4.74101">
        <ele>171</ele>
        <time>2018-08-28T08:22:07Z</time>
      </trkpt>
      <trkpt lat="45.92812" lon="4.74103">
        <ele>172</ele>
        <time>2018-08-28T08:22:08Z</time>
      </trkpt>
      <trkpt lat="45.92809" lon="4.7411">
        <ele>172</ele>
        <time>2018-08-28T08:22:09Z</time>
      </trkpt>
      <trkpt lat="45.92805" lon="4.74114">
        <ele>172</ele>
        <time>2018-08-28T08:22:10Z</time>
      </trkpt>
      <trkpt lat="45.92801" lon="4.7412">
        <ele>172</ele>
        <time>2018-08-28T08:22:11Z</time>
      </trkpt>
      <trkpt lat="45.92796" lon="4.74124">
        <ele>172</ele>
        <time>2018-08-28T08:22:12Z</time>
      </trkpt>
      <trkpt lat="45.92791" lon="4.7413">
        <ele>172</ele>
        <time>2018-08-28T08:22:13Z</time>
      </trkpt>
      <trkpt lat="45.92787" lon="4.74135">
        <ele>172</ele>
        <time>2018-08-28T08:22:14Z</time>
      </trkpt>
      <trkpt lat="45.92781" lon="4.74136">
        <ele>172</ele>
        <time>2018-08-28T08:22:15Z</time>
      </trkpt>
      <trkpt lat="45.92776" lon="4.7414">
        <ele>172</ele>
        <time>2018-08-28T08:22:16Z</time>
      </trkpt>
      <trkpt lat="45.92773" lon="4.74145">
        <ele>172</ele>
        <time>2018-08-28T08:22:17Z</time>
      </trkpt>
      <trkpt lat="45.92768" lon="4.74149">
        <ele>172</ele>
        <time>2018-08-28T08:22:18Z</time>
      </trkpt>
      <trkpt lat="45.92764" lon="4.74154">
        <ele>172</ele>
        <time>2018-08-28T08:22:19Z</time>
      </trkpt>
      <trkpt lat="45.92761" lon="4.74164">
        <ele>172</ele>
        <time>2018-08-28T08:22:20Z</time>
      </trkpt>
      <trkpt lat="45.92758" lon="4.7417">
        <ele>172</ele>
        <time>2018-08-28T08:22:21Z</time>
      </trkpt>
      <trkpt lat="45.92754" lon="4.74176">
        <ele>172</ele>
        <time>2018-08-28T08:22:22Z</time>
      </trkpt>
      <trkpt lat="45.92753" lon="4.74186">
        <ele>172</ele>
        <time>2018-08-28T08:22:23Z</time>
      </trkpt>
      <trkpt lat="45.9275" lon="4.7419">
        <ele>172</ele>
        <time>2018-08-28T08:22:24Z</time>
      </trkpt>
      <trkpt lat="45.92746" lon="4.74196">
        <ele>171</ele>
        <time>2018-08-28T08:22:25Z</time>
      </trkpt>
      <trkpt lat="45.92742" lon="4.74201">
        <ele>171</ele>
        <time>2018-08-28T08:22:26Z</time>
      </trkpt>
      <trkpt lat="45.92738" lon="4.74206">
        <ele>171</ele>
        <time>2018-08-28T08:22:27Z</time>
      </trkpt>
      <trkpt lat="45.92734" lon="4.74209">
        <ele>171</ele>
        <time>2018-08-28T08:22:28Z</time>
      </trkpt>
      <trkpt lat="45.9273" lon="4.74214">
        <ele>171</ele>
        <time>2018-08-28T08:22:29Z</time>
      </trkpt>
      <trkpt lat="45.92727" lon="4.7422">
        <ele>171</ele>
        <time>2018-08-28T08:22:30Z</time>
      </trkpt>
      <trkpt lat="45.92723" lon="4.74226">
        <ele>171</ele>
        <time>2018-08-28T08:22:31Z</time>
      </trkpt>
      <trkpt lat="45.92719" lon="4.74231">
        <ele>171</ele>
        <time>2018-08-28T08:22:32Z</time>
      </trkpt>
      <trkpt lat="45.92715" lon="4.74234">
        <ele>171</ele>
        <time>2018-08-28T08:22:33Z</time>
      </trkpt>
      <trkpt lat="45.92714" lon="4.74246">
        <ele>171</ele>
        <time>2018-08-28T08:22:34Z</time>
      </trkpt>
      <trkpt lat="45.92711" lon="4.74252">
        <ele>171</ele>
        <time>2018-08-28T08:22:35Z</time>
      </trkpt>
      <trkpt lat="45.92707" lon="4.74257">
        <ele>171</ele>
        <time>2018-08-28T08:22:36Z</time>
      </trkpt>
      <trkpt lat="45.92703" lon="4.74261">
        <ele>171</ele>
        <time>2018-08-28T08:22:37Z</time>
      </trkpt>
      <trkpt lat="45.927" lon="4.74266">
        <ele>171</ele>
        <time>2018-08-28T08:22:38Z</time>
      </trkpt>
      <trkpt lat="45.92696" lon="4.74273">
        <ele>171</ele>
        <time>2018-08-28T08:22:39Z</time>
      </trkpt>
      <trkpt lat="45.92692" lon="4.74276">
        <ele>171</ele>
        <time>2018-08-28T08:22:40Z</time>
      </trkpt>
      <trkpt lat="45.92687" lon="4.74281">
        <ele>171</ele>
        <time>2018-08-28T08:22:41Z</time>
      </trkpt>
      <trkpt lat="45.92682" lon="4.74286">
        <ele>171</ele>
        <time>2018-08-28T08:22:42Z</time>
      </trkpt>
      <trkpt lat="45.92678" lon="4.74296">
        <ele>171</ele>
        <time>2018-08-28T08:22:44Z</time>
      </trkpt>
      <trkpt lat="45.92675" lon="4.743">
        <ele>171</ele>
        <time>2018-08-28T08:22:45Z</time>
      </trkpt>
      <trkpt lat="45.92671" lon="4.74307">
        <ele>171</ele>
        <time>2018-08-28T08:22:46Z</time>
      </trkpt>
      <trkpt lat="45.92667" lon="4.74315">
        <ele>171</ele>
        <time>2018-08-28T08:22:47Z</time>
      </trkpt>
      <trkpt lat="45.92663" lon="4.74321">
        <ele>171</ele>
        <time>2018-08-28T08:22:48Z</time>
      </trkpt>
      <trkpt lat="45.92659" lon="4.74328">
        <ele>171</ele>
        <time>2018-08-28T08:22:49Z</time>
      </trkpt>
      <trkpt lat="45.92655" lon="4.74335">
        <ele>171</ele>
        <time>2018-08-28T08:22:50Z</time>
      </trkpt>
      <trkpt lat="45.92651" lon="4.74341">
        <ele>171</ele>
        <time>2018-08-28T08:22:51Z</time>
      </trkpt>
      <trkpt lat="45.92648" lon="4.74345">
        <ele>171</ele>
        <time>2018-08-28T08:22:52Z</time>
      </trkpt>
      <trkpt lat="45.92644" lon="4.74352">
        <ele>171</ele>
        <time>2018-08-28T08:22:53Z</time>
      </trkpt>
      <trkpt lat="45.92641" lon="4.74358">
        <ele>171</ele>
        <time>2018-08-28T08:22:54Z</time>
      </trkpt>
      <trkpt lat="45.92637" lon="4.74365">
        <ele>171</ele>
        <time>2018-08-28T08:22:55Z</time>
      </trkpt>
      <trkpt lat="45.92634" lon="4.74371">
        <ele>171</ele>
        <time>2018-08-28T08:22:56Z</time>
      </trkpt>
      <trkpt lat="45.9263" lon="4.74377">
        <ele>170</ele>
        <time>2018-08-28T08:22:57Z</time>
      </trkpt>
      <trkpt lat="45.92626" lon="4.74383">
        <ele>170</ele>
        <time>2018-08-28T08:22:58Z</time>
      </trkpt>
      <trkpt lat="45.92622" lon="4.74389">
        <ele>170</ele>
        <time>2018-08-28T08:22:59Z</time>
      </trkpt>
      <trkpt lat="45.92619" lon="4.74393">
        <ele>170</ele>
        <time>2018-08-28T08:23:00Z</time>
      </trkpt>
      <trkpt lat="45.92615" lon="4.744">
        <ele>170</ele>
        <time>2018-08-28T08:23:01Z</time>
      </trkpt>
      <trkpt lat="45.92611" lon="4.74407">
        <ele>170</ele>
        <time>2018-08-28T08:23:02Z</time>
      </trkpt>
      <trkpt lat="45.92607" lon="4.74413">
        <ele>170</ele>
        <time>2018-08-28T08:23:03Z</time>
      </trkpt>
      <trkpt lat="45.92603" lon="4.7442">
        <ele>170</ele>
        <time>2018-08-28T08:23:04Z</time>
      </trkpt>
      <trkpt lat="45.926" lon="4.74426">
        <ele>170</ele>
        <time>2018-08-28T08:23:05Z</time>
      </trkpt>
      <trkpt lat="45.92598" lon="4.74431">
        <ele>170</ele>
        <time>2018-08-28T08:23:06Z</time>
      </trkpt>
      <trkpt lat="45.92594" lon="4.74438">
        <ele>170</ele>
        <time>2018-08-28T08:23:07Z</time>
      </trkpt>
      <trkpt lat="45.9259" lon="4.74444">
        <ele>170</ele>
        <time>2018-08-28T08:23:08Z</time>
      </trkpt>
      <trkpt lat="45.92586" lon="4.74449">
        <ele>170</ele>
        <time>2018-08-28T08:23:09Z</time>
      </trkpt>
      <trkpt lat="45.92583" lon="4.74453">
        <ele>170</ele>
        <time>2018-08-28T08:23:10Z</time>
      </trkpt>
      <trkpt lat="45.92579" lon="4.74461">
        <ele>170</ele>
        <time>2018-08-28T08:23:11Z</time>
      </trkpt>
      <trkpt lat="45.92577" lon="4.74466">
        <ele>170</ele>
        <time>2018-08-28T08:23:12Z</time>
      </trkpt>
      <trkpt lat="45.92572" lon="4.74473">
        <ele>170</ele>
        <time>2018-08-28T08:23:13Z</time>
      </trkpt>
      <trkpt lat="45.92569" lon="4.74479">
        <ele>170</ele>
        <time>2018-08-28T08:23:14Z</time>
      </trkpt>
      <trkpt lat="45.92565" lon="4.74487">
        <ele>170</ele>
        <time>2018-08-28T08:23:15Z</time>
      </trkpt>
      <trkpt lat="45.9256" lon="4.74497">
        <ele>170</ele>
        <time>2018-08-28T08:23:17Z</time>
      </trkpt>
      <trkpt lat="45.92558" lon="4.74499">
        <ele>170</ele>
        <time>2018-08-28T08:23:18Z</time>
      </trkpt>
      <trkpt lat="45.92554" lon="4.74508">
        <ele>170</ele>
        <time>2018-08-28T08:23:19Z</time>
      </trkpt>
      <trkpt lat="45.92551" lon="4.74513">
        <ele>170</ele>
        <time>2018-08-28T08:23:20Z</time>
      </trkpt>
      <trkpt lat="45.92547" lon="4.74521">
        <ele>170</ele>
        <time>2018-08-28T08:23:21Z</time>
      </trkpt>
      <trkpt lat="45.92543" lon="4.74527">
        <ele>170</ele>
        <time>2018-08-28T08:23:22Z</time>
      </trkpt>
      <trkpt lat="45.92538" lon="4.74536">
        <ele>171</ele>
        <time>2018-08-28T08:23:23Z</time>
      </trkpt>
      <trkpt lat="45.92534" lon="4.74542">
        <ele>171</ele>
        <time>2018-08-28T08:23:24Z</time>
      </trkpt>
      <trkpt lat="45.92532" lon="4.74549">
        <ele>171</ele>
        <time>2018-08-28T08:23:25Z</time>
      </trkpt>
      <trkpt lat="45.92527" lon="4.74556">
        <ele>171</ele>
        <time>2018-08-28T08:23:26Z</time>
      </trkpt>
      <trkpt lat="45.92523" lon="4.74562">
        <ele>171</ele>
        <time>2018-08-28T08:23:27Z</time>
      </trkpt>
      <trkpt lat="45.92519" lon="4.74567">
        <ele>171</ele>
        <time>2018-08-28T08:23:28Z</time>
      </trkpt>
      <trkpt lat="45.92514" lon="4.74572">
        <ele>171</ele>
        <time>2018-08-28T08:23:29Z</time>
      </trkpt>
      <trkpt lat="45.9251" lon="4.74577">
        <ele>171</ele>
        <time>2018-08-28T08:23:30Z</time>
      </trkpt>
      <trkpt lat="45.92505" lon="4.74581">
        <ele>171</ele>
        <time>2018-08-28T08:23:31Z</time>
      </trkpt>
      <trkpt lat="45.92501" lon="4.74586">
        <ele>171</ele>
        <time>2018-08-28T08:23:32Z</time>
      </trkpt>
      <trkpt lat="45.92496" lon="4.74593">
        <ele>171</ele>
        <time>2018-08-28T08:23:33Z</time>
      </trkpt>
      <trkpt lat="45.92491" lon="4.74597">
        <ele>171</ele>
        <time>2018-08-28T08:23:34Z</time>
      </trkpt>
      <trkpt lat="45.92487" lon="4.74602">
        <ele>171</ele>
        <time>2018-08-28T08:23:35Z</time>
      </trkpt>
      <trkpt lat="45.92484" lon="4.74606">
        <ele>171</ele>
        <time>2018-08-28T08:23:36Z</time>
      </trkpt>
      <trkpt lat="45.92481" lon="4.7461">
        <ele>171</ele>
        <time>2018-08-28T08:23:37Z</time>
      </trkpt>
      <trkpt lat="45.92477" lon="4.74616">
        <ele>171</ele>
        <time>2018-08-28T08:23:38Z</time>
      </trkpt>
      <trkpt lat="45.92473" lon="4.74623">
        <ele>171</ele>
        <time>2018-08-28T08:23:39Z</time>
      </trkpt>
      <trkpt lat="45.9247" lon="4.7463">
        <ele>171</ele>
        <time>2018-08-28T08:23:40Z</time>
      </trkpt>
      <trkpt lat="45.92465" lon="4.74635">
        <ele>171</ele>
        <time>2018-08-28T08:23:41Z</time>
      </trkpt>
      <trkpt lat="45.92461" lon="4.74641">
        <ele>171</ele>
        <time>2018-08-28T08:23:42Z</time>
      </trkpt>
      <trkpt lat="45.92457" lon="4.74649">
        <ele>171</ele>
        <time>2018-08-28T08:23:43Z</time>
      </trkpt>
      <trkpt lat="45.92454" lon="4.74657">
        <ele>171</ele>
        <time>2018-08-28T08:23:44Z</time>
      </trkpt>
      <trkpt lat="45.92451" lon="4.74663">
        <ele>171</ele>
        <time>2018-08-28T08:23:45Z</time>
      </trkpt>
      <trkpt lat="45.92446" lon="4.74669">
        <ele>171</ele>
        <time>2018-08-28T08:23:46Z</time>
      </trkpt>
      <trkpt lat="45.92442" lon="4.74674">
        <ele>171</ele>
        <time>2018-08-28T08:23:47Z</time>
      </trkpt>
      <trkpt lat="45.9244" lon="4.74683">
        <ele>171</ele>
        <time>2018-08-28T08:23:48Z</time>
      </trkpt>
      <trkpt lat="45.92437" lon="4.7469">
        <ele>171</ele>
        <time>2018-08-28T08:23:49Z</time>
      </trkpt>
      <trkpt lat="45.92434" lon="4.74698">
        <ele>171</ele>
        <time>2018-08-28T08:23:50Z</time>
      </trkpt>
      <trkpt lat="45.9243" lon="4.74705">
        <ele>171</ele>
        <time>2018-08-28T08:23:51Z</time>
      </trkpt>
      <trkpt lat="45.92427" lon="4.74711">
        <ele>171</ele>
        <time>2018-08-28T08:23:52Z</time>
      </trkpt>
      <trkpt lat="45.92424" lon="4.74719">
        <ele>171</ele>
        <time>2018-08-28T08:23:53Z</time>
      </trkpt>
      <trkpt lat="45.92422" lon="4.74725">
        <ele>171</ele>
        <time>2018-08-28T08:23:54Z</time>
      </trkpt>
      <trkpt lat="45.92419" lon="4.74733">
        <ele>171</ele>
        <time>2018-08-28T08:23:55Z</time>
      </trkpt>
      <trkpt lat="45.92416" lon="4.7474">
        <ele>172</ele>
        <time>2018-08-28T08:23:56Z</time>
      </trkpt>
      <trkpt lat="45.92413" lon="4.74749">
        <ele>172</ele>
        <time>2018-08-28T08:23:57Z</time>
      </trkpt>
      <trkpt lat="45.92411" lon="4.74757">
        <ele>172</ele>
        <time>2018-08-28T08:23:58Z</time>
      </trkpt>
      <trkpt lat="45.92408" lon="4.74767">
        <ele>172</ele>
        <time>2018-08-28T08:23:59Z</time>
      </trkpt>
      <trkpt lat="45.92406" lon="4.74776">
        <ele>171</ele>
        <time>2018-08-28T08:24:00Z</time>
      </trkpt>
      <trkpt lat="45.92404" lon="4.74786">
        <ele>171</ele>
        <time>2018-08-28T08:24:01Z</time>
      </trkpt>
      <trkpt lat="45.92402" lon="4.74795">
        <ele>171</ele>
        <time>2018-08-28T08:24:02Z</time>
      </trkpt>
      <trkpt lat="45.92401" lon="4.74802">
        <ele>171</ele>
        <time>2018-08-28T08:24:03Z</time>
      </trkpt>
      <trkpt lat="45.92399" lon="4.74812">
        <ele>171</ele>
        <time>2018-08-28T08:24:04Z</time>
      </trkpt>
      <trkpt lat="45.92397" lon="4.7482">
        <ele>171</ele>
        <time>2018-08-28T08:24:05Z</time>
      </trkpt>
      <trkpt lat="45.92394" lon="4.74829">
        <ele>171</ele>
        <time>2018-08-28T08:24:06Z</time>
      </trkpt>
      <trkpt lat="45.92392" lon="4.74838">
        <ele>171</ele>
        <time>2018-08-28T08:24:07Z</time>
      </trkpt>
      <trkpt lat="45.9239" lon="4.74846">
        <ele>171</ele>
        <time>2018-08-28T08:24:08Z</time>
      </trkpt>
      <trkpt lat="45.92387" lon="4.74854">
        <ele>171</ele>
        <time>2018-08-28T08:24:09Z</time>
      </trkpt>
      <trkpt lat="45.92385" lon="4.74861">
        <ele>171</ele>
        <time>2018-08-28T08:24:10Z</time>
      </trkpt>
      <trkpt lat="45.92383" lon="4.74869">
        <ele>171</ele>
        <time>2018-08-28T08:24:11Z</time>
      </trkpt>
      <trkpt lat="45.9238" lon="4.74876">
        <ele>171</ele>
        <time>2018-08-28T08:24:12Z</time>
      </trkpt>
      <trkpt lat="45.92379" lon="4.74885">
        <ele>171</ele>
        <time>2018-08-28T08:24:13Z</time>
      </trkpt>
      <trkpt lat="45.92375" lon="4.74892">
        <ele>171</ele>
        <time>2018-08-28T08:24:14Z</time>
      </trkpt>
      <trkpt lat="45.92373" lon="4.749">
        <ele>171</ele>
        <time>2018-08-28T08:24:15Z</time>
      </trkpt>
      <trkpt lat="45.92371" lon="4.74907">
        <ele>171</ele>
        <time>2018-08-28T08:24:16Z</time>
      </trkpt>
      <trkpt lat="45.92368" lon="4.74915">
        <ele>171</ele>
        <time>2018-08-28T08:24:17Z</time>
      </trkpt>
      <trkpt lat="45.92365" lon="4.7492">
        <ele>170</ele>
        <time>2018-08-28T08:24:18Z</time>
      </trkpt>
      <trkpt lat="45.92362" lon="4.7493">
        <ele>170</ele>
        <time>2018-08-28T08:24:19Z</time>
      </trkpt>
      <trkpt lat="45.92359" lon="4.74938">
        <ele>170</ele>
        <time>2018-08-28T08:24:20Z</time>
      </trkpt>
      <trkpt lat="45.92356" lon="4.74947">
        <ele>170</ele>
        <time>2018-08-28T08:24:21Z</time>
      </trkpt>
      <trkpt lat="45.92354" lon="4.74955">
        <ele>170</ele>
        <time>2018-08-28T08:24:22Z</time>
      </trkpt>
      <trkpt lat="45.92351" lon="4.74962">
        <ele>170</ele>
        <time>2018-08-28T08:24:23Z</time>
      </trkpt>
      <trkpt lat="45.92349" lon="4.7497">
        <ele>170</ele>
        <time>2018-08-28T08:24:24Z</time>
      </trkpt>
      <trkpt lat="45.92346" lon="4.74978">
        <ele>170</ele>
        <time>2018-08-28T08:24:25Z</time>
      </trkpt>
      <trkpt lat="45.92343" lon="4.74985">
        <ele>170</ele>
        <time>2018-08-28T08:24:26Z</time>
      </trkpt>
      <trkpt lat="45.92341" lon="4.74992">
        <ele>170</ele>
        <time>2018-08-28T08:24:27Z</time>
      </trkpt>
      <trkpt lat="45.92338" lon="4.75">
        <ele>170</ele>
        <time>2018-08-28T08:24:28Z</time>
      </trkpt>
      <trkpt lat="45.92336" lon="4.75007">
        <ele>170</ele>
        <time>2018-08-28T08:24:29Z</time>
      </trkpt>
      <trkpt lat="45.92333" lon="4.75014">
        <ele>171</ele>
        <time>2018-08-28T08:24:30Z</time>
      </trkpt>
      <trkpt lat="45.9233" lon="4.75023">
        <ele>171</ele>
        <time>2018-08-28T08:24:31Z</time>
      </trkpt>
      <trkpt lat="45.92326" lon="4.75029">
        <ele>171</ele>
        <time>2018-08-28T08:24:32Z</time>
      </trkpt>
      <trkpt lat="45.92322" lon="4.75036">
        <ele>171</ele>
        <time>2018-08-28T08:24:33Z</time>
      </trkpt>
      <trkpt lat="45.92318" lon="4.75043">
        <ele>172</ele>
        <time>2018-08-28T08:24:34Z</time>
      </trkpt>
      <trkpt lat="45.92315" lon="4.75048">
        <ele>172</ele>
        <time>2018-08-28T08:24:35Z</time>
      </trkpt>
      <trkpt lat="45.9231" lon="4.75052">
        <ele>172</ele>
        <time>2018-08-28T08:24:36Z</time>
      </trkpt>
      <trkpt lat="45.92305" lon="4.75057">
        <ele>172</ele>
        <time>2018-08-28T08:24:37Z</time>
      </trkpt>
      <trkpt lat="45.92301" lon="4.75063">
        <ele>172</ele>
        <time>2018-08-28T08:24:38Z</time>
      </trkpt>
      <trkpt lat="45.92297" lon="4.75068">
        <ele>172</ele>
        <time>2018-08-28T08:24:39Z</time>
      </trkpt>
      <trkpt lat="45.92292" lon="4.75071">
        <ele>172</ele>
        <time>2018-08-28T08:24:40Z</time>
      </trkpt>
      <trkpt lat="45.92288" lon="4.75077">
        <ele>172</ele>
        <time>2018-08-28T08:24:41Z</time>
      </trkpt>
      <trkpt lat="45.92285" lon="4.75083">
        <ele>172</ele>
        <time>2018-08-28T08:24:42Z</time>
      </trkpt>
      <trkpt lat="45.9228" lon="4.75087">
        <ele>173</ele>
        <time>2018-08-28T08:24:43Z</time>
      </trkpt>
      <trkpt lat="45.92275" lon="4.75092">
        <ele>173</ele>
        <time>2018-08-28T08:24:44Z</time>
      </trkpt>
      <trkpt lat="45.92271" lon="4.75097">
        <ele>173</ele>
        <time>2018-08-28T08:24:45Z</time>
      </trkpt>
      <trkpt lat="45.92266" lon="4.751">
        <ele>173</ele>
        <time>2018-08-28T08:24:46Z</time>
      </trkpt>
      <trkpt lat="45.92261" lon="4.75105">
        <ele>173</ele>
        <time>2018-08-28T08:24:47Z</time>
      </trkpt>
      <trkpt lat="45.92258" lon="4.75109">
        <ele>174</ele>
        <time>2018-08-28T08:24:48Z</time>
      </trkpt>
      <trkpt lat="45.92254" lon="4.75113">
        <ele>174</ele>
        <time>2018-08-28T08:24:49Z</time>
      </trkpt>
      <trkpt lat="45.9225" lon="4.75118">
        <ele>174</ele>
        <time>2018-08-28T08:24:50Z</time>
      </trkpt>
      <trkpt lat="45.92246" lon="4.75124">
        <ele>174</ele>
        <time>2018-08-28T08:24:52Z</time>
      </trkpt>
      <trkpt lat="45.92239" lon="4.75135">
        <ele>174</ele>
        <time>2018-08-28T08:24:53Z</time>
      </trkpt>
      <trkpt lat="45.92235" lon="4.7514">
        <ele>174</ele>
        <time>2018-08-28T08:24:54Z</time>
      </trkpt>
      <trkpt lat="45.92232" lon="4.75146">
        <ele>174</ele>
        <time>2018-08-28T08:24:55Z</time>
      </trkpt>
      <trkpt lat="45.92229" lon="4.75152">
        <ele>174</ele>
        <time>2018-08-28T08:24:56Z</time>
      </trkpt>
      <trkpt lat="45.92224" lon="4.75157">
        <ele>174</ele>
        <time>2018-08-28T08:24:57Z</time>
      </trkpt>
      <trkpt lat="45.92221" lon="4.75164">
        <ele>174</ele>
        <time>2018-08-28T08:24:58Z</time>
      </trkpt>
      <trkpt lat="45.92218" lon="4.7517">
        <ele>175</ele>
        <time>2018-08-28T08:24:59Z</time>
      </trkpt>
      <trkpt lat="45.92216" lon="4.75178">
        <ele>175</ele>
        <time>2018-08-28T08:25:00Z</time>
      </trkpt>
      <trkpt lat="45.92214" lon="4.75185">
        <ele>175</ele>
        <time>2018-08-28T08:25:01Z</time>
      </trkpt>
      <trkpt lat="45.92213" lon="4.75192">
        <ele>175</ele>
        <time>2018-08-28T08:25:02Z</time>
      </trkpt>
      <trkpt lat="45.92212" lon="4.75199">
        <ele>175</ele>
        <time>2018-08-28T08:25:03Z</time>
      </trkpt>
      <trkpt lat="45.92211" lon="4.7521">
        <ele>175</ele>
        <time>2018-08-28T08:25:04Z</time>
      </trkpt>
      <trkpt lat="45.92211" lon="4.75217">
        <ele>175</ele>
        <time>2018-08-28T08:25:05Z</time>
      </trkpt>
      <trkpt lat="45.92211" lon="4.75224">
        <ele>175</ele>
        <time>2018-08-28T08:25:06Z</time>
      </trkpt>
      <trkpt lat="45.9221" lon="4.75233">
        <ele>175</ele>
        <time>2018-08-28T08:25:07Z</time>
      </trkpt>
      <trkpt lat="45.9221" lon="4.75239">
        <ele>175</ele>
        <time>2018-08-28T08:25:08Z</time>
      </trkpt>
      <trkpt lat="45.92211" lon="4.75246">
        <ele>175</ele>
        <time>2018-08-28T08:25:09Z</time>
      </trkpt>
      <trkpt lat="45.9221" lon="4.75253">
        <ele>175</ele>
        <time>2018-08-28T08:25:10Z</time>
      </trkpt>
      <trkpt lat="45.92209" lon="4.75259">
        <ele>176</ele>
        <time>2018-08-28T08:25:11Z</time>
      </trkpt>
      <trkpt lat="45.9221" lon="4.75267">
        <ele>176</ele>
        <time>2018-08-28T08:25:12Z</time>
      </trkpt>
      <trkpt lat="45.92208" lon="4.75275">
        <ele>176</ele>
        <time>2018-08-28T08:25:13Z</time>
      </trkpt>
      <trkpt lat="45.92208" lon="4.75282">
        <ele>176</ele>
        <time>2018-08-28T08:25:14Z</time>
      </trkpt>
      <trkpt lat="45.92207" lon="4.75289">
        <ele>176</ele>
        <time>2018-08-28T08:25:15Z</time>
      </trkpt>
      <trkpt lat="45.92207" lon="4.75301">
        <ele>176</ele>
        <time>2018-08-28T08:25:17Z</time>
      </trkpt>
      <trkpt lat="45.92206" lon="4.75308">
        <ele>176</ele>
        <time>2018-08-28T08:25:18Z</time>
      </trkpt>
      <trkpt lat="45.92207" lon="4.75315">
        <ele>176</ele>
        <time>2018-08-28T08:25:19Z</time>
      </trkpt>
      <trkpt lat="45.92206" lon="4.75321">
        <ele>176</ele>
        <time>2018-08-28T08:25:20Z</time>
      </trkpt>
      <trkpt lat="45.92205" lon="4.75328">
        <ele>176</ele>
        <time>2018-08-28T08:25:21Z</time>
      </trkpt>
      <trkpt lat="45.92204" lon="4.75336">
        <ele>177</ele>
        <time>2018-08-28T08:25:22Z</time>
      </trkpt>
      <trkpt lat="45.92203" lon="4.75343">
        <ele>177</ele>
        <time>2018-08-28T08:25:23Z</time>
      </trkpt>
      <trkpt lat="45.92202" lon="4.75349">
        <ele>177</ele>
        <time>2018-08-28T08:25:24Z</time>
      </trkpt>
      <trkpt lat="45.922" lon="4.75361">
        <ele>177</ele>
        <time>2018-08-28T08:25:26Z</time>
      </trkpt>
      <trkpt lat="45.92198" lon="4.75367">
        <ele>177</ele>
        <time>2018-08-28T08:25:27Z</time>
      </trkpt>
      <trkpt lat="45.92198" lon="4.75376">
        <ele>177</ele>
        <time>2018-08-28T08:25:28Z</time>
      </trkpt>
      <trkpt lat="45.92195" lon="4.75382">
        <ele>177</ele>
        <time>2018-08-28T08:25:29Z</time>
      </trkpt>
      <trkpt lat="45.92193" lon="4.7539">
        <ele>177</ele>
        <time>2018-08-28T08:25:30Z</time>
      </trkpt>
      <trkpt lat="45.9219" lon="4.75397">
        <ele>177</ele>
        <time>2018-08-28T08:25:31Z</time>
      </trkpt>
      <trkpt lat="45.92187" lon="4.75404">
        <ele>177</ele>
        <time>2018-08-28T08:25:32Z</time>
      </trkpt>
      <trkpt lat="45.92184" lon="4.7541">
        <ele>177</ele>
        <time>2018-08-28T08:25:33Z</time>
      </trkpt>
      <trkpt lat="45.9218" lon="4.75416">
        <ele>177</ele>
        <time>2018-08-28T08:25:34Z</time>
      </trkpt>
      <trkpt lat="45.92179" lon="4.75425">
        <ele>177</ele>
        <time>2018-08-28T08:25:35Z</time>
      </trkpt>
      <trkpt lat="45.92175" lon="4.75432">
        <ele>177</ele>
        <time>2018-08-28T08:25:36Z</time>
      </trkpt>
      <trkpt lat="45.92173" lon="4.75441">
        <ele>177</ele>
        <time>2018-08-28T08:25:37Z</time>
      </trkpt>
      <trkpt lat="45.9217" lon="4.75449">
        <ele>176</ele>
        <time>2018-08-28T08:25:38Z</time>
      </trkpt>
      <trkpt lat="45.92167" lon="4.75456">
        <ele>176</ele>
        <time>2018-08-28T08:25:39Z</time>
      </trkpt>
      <trkpt lat="45.92162" lon="4.75464">
        <ele>176</ele>
        <time>2018-08-28T08:25:40Z</time>
      </trkpt>
      <trkpt lat="45.92158" lon="4.75474">
        <ele>176</ele>
        <time>2018-08-28T08:25:41Z</time>
      </trkpt>
      <trkpt lat="45.92154" lon="4.75482">
        <ele>176</ele>
        <time>2018-08-28T08:25:42Z</time>
      </trkpt>
      <trkpt lat="45.92149" lon="4.75491">
        <ele>176</ele>
        <time>2018-08-28T08:25:43Z</time>
      </trkpt>
      <trkpt lat="45.92145" lon="4.755">
        <ele>175</ele>
        <time>2018-08-28T08:25:44Z</time>
      </trkpt>
      <trkpt lat="45.92141" lon="4.75505">
        <ele>174</ele>
        <time>2018-08-28T08:25:45Z</time>
      </trkpt>
      <trkpt lat="45.92136" lon="4.75511">
        <ele>174</ele>
        <time>2018-08-28T08:25:46Z</time>
      </trkpt>
      <trkpt lat="45.92133" lon="4.75517">
        <ele>174</ele>
        <time>2018-08-28T08:25:47Z</time>
      </trkpt>
      <trkpt lat="45.9213" lon="4.75524">
        <ele>174</ele>
        <time>2018-08-28T08:25:48Z</time>
      </trkpt>
      <trkpt lat="45.92125" lon="4.75528">
        <ele>174</ele>
        <time>2018-08-28T08:25:49Z</time>
      </trkpt>
      <trkpt lat="45.92121" lon="4.75533">
        <ele>174</ele>
        <time>2018-08-28T08:25:50Z</time>
      </trkpt>
      <trkpt lat="45.92119" lon="4.7554">
        <ele>174</ele>
        <time>2018-08-28T08:25:51Z</time>
      </trkpt>
      <trkpt lat="45.92117" lon="4.75547">
        <ele>174</ele>
        <time>2018-08-28T08:25:52Z</time>
      </trkpt>
      <trkpt lat="45.92113" lon="4.75554">
        <ele>174</ele>
        <time>2018-08-28T08:25:53Z</time>
      </trkpt>
      <trkpt lat="45.92109" lon="4.75561">
        <ele>174</ele>
        <time>2018-08-28T08:25:54Z</time>
      </trkpt>
      <trkpt lat="45.92106" lon="4.75568">
        <ele>174</ele>
        <time>2018-08-28T08:25:55Z</time>
      </trkpt>
      <trkpt lat="45.92108" lon="4.75576">
        <ele>174</ele>
        <time>2018-08-28T08:25:56Z</time>
      </trkpt>
      <trkpt lat="45.9211" lon="4.75582">
        <ele>174</ele>
        <time>2018-08-28T08:25:57Z</time>
      </trkpt>
      <trkpt lat="45.92114" lon="4.75588">
        <ele>174</ele>
        <time>2018-08-28T08:25:58Z</time>
      </trkpt>
      <trkpt lat="45.9212" lon="4.75594">
        <ele>174</ele>
        <time>2018-08-28T08:25:59Z</time>
      </trkpt>
      <trkpt lat="45.92125" lon="4.75599">
        <ele>174</ele>
        <time>2018-08-28T08:26:00Z</time>
      </trkpt>
      <trkpt lat="45.9213" lon="4.75604">
        <ele>174</ele>
        <time>2018-08-28T08:26:01Z</time>
      </trkpt>
      <trkpt lat="45.92134" lon="4.75608">
        <ele>174</ele>
        <time>2018-08-28T08:26:02Z</time>
      </trkpt>
      <trkpt lat="45.9214" lon="4.75613">
        <ele>174</ele>
        <time>2018-08-28T08:26:03Z</time>
      </trkpt>
      <trkpt lat="45.92145" lon="4.75618">
        <ele>174</ele>
        <time>2018-08-28T08:26:04Z</time>
      </trkpt>
      <trkpt lat="45.9215" lon="4.75624">
        <ele>174</ele>
        <time>2018-08-28T08:26:05Z</time>
      </trkpt>
      <trkpt lat="45.92154" lon="4.75629">
        <ele>174</ele>
        <time>2018-08-28T08:26:06Z</time>
      </trkpt>
      <trkpt lat="45.92159" lon="4.75633">
        <ele>174</ele>
        <time>2018-08-28T08:26:07Z</time>
      </trkpt>
      <trkpt lat="45.92163" lon="4.75637">
        <ele>174</ele>
        <time>2018-08-28T08:26:08Z</time>
      </trkpt>
      <trkpt lat="45.92167" lon="4.75641">
        <ele>174</ele>
        <time>2018-08-28T08:26:09Z</time>
      </trkpt>
      <trkpt lat="45.92171" lon="4.75645">
        <ele>174</ele>
        <time>2018-08-28T08:26:10Z</time>
      </trkpt>
      <trkpt lat="45.92175" lon="4.75649">
        <ele>174</ele>
        <time>2018-08-28T08:26:11Z</time>
      </trkpt>
      <trkpt lat="45.9218" lon="4.75653">
        <ele>174</ele>
        <time>2018-08-28T08:26:12Z</time>
      </trkpt>
      <trkpt lat="45.92184" lon="4.75657">
        <ele>174</ele>
        <time>2018-08-28T08:26:13Z</time>
      </trkpt>
      <trkpt lat="45.9219" lon="4.75664">
        <ele>174</ele>
        <time>2018-08-28T08:26:15Z</time>
      </trkpt>
      <trkpt lat="45.92195" lon="4.75669">
        <ele>174</ele>
        <time>2018-08-28T08:26:16Z</time>
      </trkpt>
      <trkpt lat="45.92198" lon="4.75672">
        <ele>174</ele>
        <time>2018-08-28T08:26:17Z</time>
      </trkpt>
      <trkpt lat="45.92204" lon="4.75677">
        <ele>174</ele>
        <time>2018-08-28T08:26:18Z</time>
      </trkpt>
      <trkpt lat="45.92211" lon="4.75685">
        <ele>174</ele>
        <time>2018-08-28T08:26:20Z</time>
      </trkpt>
      <trkpt lat="45.92215" lon="4.75689">
        <ele>174</ele>
        <time>2018-08-28T08:26:21Z</time>
      </trkpt>
      <trkpt lat="45.9222" lon="4.75697">
        <ele>174</ele>
        <time>2018-08-28T08:26:23Z</time>
      </trkpt>
      <trkpt lat="45.92225" lon="4.75701">
        <ele>174</ele>
        <time>2018-08-28T08:26:24Z</time>
      </trkpt>
      <trkpt lat="45.92229" lon="4.75708">
        <ele>174</ele>
        <time>2018-08-28T08:26:25Z</time>
      </trkpt>
      <trkpt lat="45.92233" lon="4.75712">
        <ele>174</ele>
        <time>2018-08-28T08:26:26Z</time>
      </trkpt>
      <trkpt lat="45.92236" lon="4.75718">
        <ele>174</ele>
        <time>2018-08-28T08:26:27Z</time>
      </trkpt>
      <trkpt lat="45.92238" lon="4.75725">
        <ele>174</ele>
        <time>2018-08-28T08:26:28Z</time>
      </trkpt>
      <trkpt lat="45.92241" lon="4.75732">
        <ele>174</ele>
        <time>2018-08-28T08:26:29Z</time>
      </trkpt>
      <trkpt lat="45.92242" lon="4.75739">
        <ele>174</ele>
        <time>2018-08-28T08:26:30Z</time>
      </trkpt>
      <trkpt lat="45.92245" lon="4.75746">
        <ele>174</ele>
        <time>2018-08-28T08:26:31Z</time>
      </trkpt>
      <trkpt lat="45.92246" lon="4.75752">
        <ele>174</ele>
        <time>2018-08-28T08:26:32Z</time>
      </trkpt>
      <trkpt lat="45.92247" lon="4.75759">
        <ele>174</ele>
        <time>2018-08-28T08:26:33Z</time>
      </trkpt>
      <trkpt lat="45.92249" lon="4.75766">
        <ele>174</ele>
        <time>2018-08-28T08:26:34Z</time>
      </trkpt>
      <trkpt lat="45.92251" lon="4.75773">
        <ele>174</ele>
        <time>2018-08-28T08:26:35Z</time>
      </trkpt>
      <trkpt lat="45.92252" lon="4.75779">
        <ele>174</ele>
        <time>2018-08-28T08:26:36Z</time>
      </trkpt>
      <trkpt lat="45.92253" lon="4.75786">
        <ele>174</ele>
        <time>2018-08-28T08:26:37Z</time>
      </trkpt>
      <trkpt lat="45.92255" lon="4.75793">
        <ele>174</ele>
        <time>2018-08-28T08:26:38Z</time>
      </trkpt>
      <trkpt lat="45.92257" lon="4.75801">
        <ele>174</ele>
        <time>2018-08-28T08:26:39Z</time>
      </trkpt>
      <trkpt lat="45.92259" lon="4.75807">
        <ele>174</ele>
        <time>2018-08-28T08:26:40Z</time>
      </trkpt>
      <trkpt lat="45.92261" lon="4.75813">
        <ele>174</ele>
        <time>2018-08-28T08:26:41Z</time>
      </trkpt>
      <trkpt lat="45.92264" lon="4.75819">
        <ele>174</ele>
        <time>2018-08-28T08:26:42Z</time>
      </trkpt>
      <trkpt lat="45.92267" lon="4.75824">
        <ele>174</ele>
        <time>2018-08-28T08:26:43Z</time>
      </trkpt>
      <trkpt lat="45.92272" lon="4.75829">
        <ele>174</ele>
        <time>2018-08-28T08:26:44Z</time>
      </trkpt>
      <trkpt lat="45.92277" lon="4.75832">
        <ele>174</ele>
        <time>2018-08-28T08:26:45Z</time>
      </trkpt>
      <trkpt lat="45.92281" lon="4.75836">
        <ele>173</ele>
        <time>2018-08-28T08:26:46Z</time>
      </trkpt>
      <trkpt lat="45.92286" lon="4.7584">
        <ele>173</ele>
        <time>2018-08-28T08:26:47Z</time>
      </trkpt>
      <trkpt lat="45.92293" lon="4.75839">
        <ele>173</ele>
        <time>2018-08-28T08:26:48Z</time>
      </trkpt>
      <trkpt lat="45.92297" lon="4.75842">
        <ele>173</ele>
        <time>2018-08-28T08:26:49Z</time>
      </trkpt>
      <trkpt lat="45.92302" lon="4.75845">
        <ele>173</ele>
        <time>2018-08-28T08:26:50Z</time>
      </trkpt>
      <trkpt lat="45.92307" lon="4.75849">
        <ele>173</ele>
        <time>2018-08-28T08:26:51Z</time>
      </trkpt>
      <trkpt lat="45.92312" lon="4.75854">
        <ele>173</ele>
        <time>2018-08-28T08:26:52Z</time>
      </trkpt>
      <trkpt lat="45.92317" lon="4.75858">
        <ele>173</ele>
        <time>2018-08-28T08:26:53Z</time>
      </trkpt>
      <trkpt lat="45.92321" lon="4.75862">
        <ele>173</ele>
        <time>2018-08-28T08:26:54Z</time>
      </trkpt>
      <trkpt lat="45.92327" lon="4.75865">
        <ele>173</ele>
        <time>2018-08-28T08:26:55Z</time>
      </trkpt>
      <trkpt lat="45.92331" lon="4.75868">
        <ele>173</ele>
        <time>2018-08-28T08:26:56Z</time>
      </trkpt>
      <trkpt lat="45.92336" lon="4.75871">
        <ele>173</ele>
        <time>2018-08-28T08:26:57Z</time>
      </trkpt>
      <trkpt lat="45.92343" lon="4.75874">
        <ele>173</ele>
        <time>2018-08-28T08:26:58Z</time>
      </trkpt>
      <trkpt lat="45.92348" lon="4.75877">
        <ele>173</ele>
        <time>2018-08-28T08:26:59Z</time>
      </trkpt>
      <trkpt lat="45.92354" lon="4.7588">
        <ele>173</ele>
        <time>2018-08-28T08:27:00Z</time>
      </trkpt>
      <trkpt lat="45.92359" lon="4.75884">
        <ele>173</ele>
        <time>2018-08-28T08:27:01Z</time>
      </trkpt>
      <trkpt lat="45.92364" lon="4.75888">
        <ele>173</ele>
        <time>2018-08-28T08:27:02Z</time>
      </trkpt>
      <trkpt lat="45.9237" lon="4.7589">
        <ele>173</ele>
        <time>2018-08-28T08:27:03Z</time>
      </trkpt>
      <trkpt lat="45.92375" lon="4.75894">
        <ele>173</ele>
        <time>2018-08-28T08:27:04Z</time>
      </trkpt>
      <trkpt lat="45.92381" lon="4.75898">
        <ele>173</ele>
        <time>2018-08-28T08:27:05Z</time>
      </trkpt>
      <trkpt lat="45.92386" lon="4.75902">
        <ele>173</ele>
        <time>2018-08-28T08:27:06Z</time>
      </trkpt>
      <trkpt lat="45.92392" lon="4.75906">
        <ele>173</ele>
        <time>2018-08-28T08:27:07Z</time>
      </trkpt>
      <trkpt lat="45.92397" lon="4.7591">
        <ele>173</ele>
        <time>2018-08-28T08:27:08Z</time>
      </trkpt>
      <trkpt lat="45.92402" lon="4.75913">
        <ele>172</ele>
        <time>2018-08-28T08:27:09Z</time>
      </trkpt>
      <trkpt lat="45.92407" lon="4.75917">
        <ele>172</ele>
        <time>2018-08-28T08:27:10Z</time>
      </trkpt>
      <trkpt lat="45.92411" lon="4.75921">
        <ele>172</ele>
        <time>2018-08-28T08:27:11Z</time>
      </trkpt>
      <trkpt lat="45.92416" lon="4.75925">
        <ele>172</ele>
        <time>2018-08-28T08:27:12Z</time>
      </trkpt>
      <trkpt lat="45.92421" lon="4.75927">
        <ele>172</ele>
        <time>2018-08-28T08:27:13Z</time>
      </trkpt>
      <trkpt lat="45.92426" lon="4.75931">
        <ele>172</ele>
        <time>2018-08-28T08:27:14Z</time>
      </trkpt>
      <trkpt lat="45.92431" lon="4.75934">
        <ele>172</ele>
        <time>2018-08-28T08:27:15Z</time>
      </trkpt>
      <trkpt lat="45.92436" lon="4.75938">
        <ele>172</ele>
        <time>2018-08-28T08:27:16Z</time>
      </trkpt>
      <trkpt lat="45.9244" lon="4.75941">
        <ele>172</ele>
        <time>2018-08-28T08:27:17Z</time>
      </trkpt>
      <trkpt lat="45.92445" lon="4.75945">
        <ele>172</ele>
        <time>2018-08-28T08:27:18Z</time>
      </trkpt>
      <trkpt lat="45.92453" lon="4.75952">
        <ele>172</ele>
        <time>2018-08-28T08:27:20Z</time>
      </trkpt>
      <trkpt lat="45.92457" lon="4.75955">
        <ele>172</ele>
        <time>2018-08-28T08:27:21Z</time>
      </trkpt>
      <trkpt lat="45.92464" lon="4.75962">
        <ele>172</ele>
        <time>2018-08-28T08:27:23Z</time>
      </trkpt>
      <trkpt lat="45.92469" lon="4.75966">
        <ele>172</ele>
        <time>2018-08-28T08:27:24Z</time>
      </trkpt>
      <trkpt lat="45.92474" lon="4.7597">
        <ele>172</ele>
        <time>2018-08-28T08:27:25Z</time>
      </trkpt>
      <trkpt lat="45.92479" lon="4.75972">
        <ele>172</ele>
        <time>2018-08-28T08:27:26Z</time>
      </trkpt>
      <trkpt lat="45.92483" lon="4.75975">
        <ele>172</ele>
        <time>2018-08-28T08:27:27Z</time>
      </trkpt>
      <trkpt lat="45.92487" lon="4.75979">
        <ele>172</ele>
        <time>2018-08-28T08:27:28Z</time>
      </trkpt>
      <trkpt lat="45.92492" lon="4.75982">
        <ele>172</ele>
        <time>2018-08-28T08:27:29Z</time>
      </trkpt>
      <trkpt lat="45.92496" lon="4.75986">
        <ele>172</ele>
        <time>2018-08-28T08:27:30Z</time>
      </trkpt>
      <trkpt lat="45.92501" lon="4.7599">
        <ele>172</ele>
        <time>2018-08-28T08:27:31Z</time>
      </trkpt>
      <trkpt lat="45.92505" lon="4.75994">
        <ele>172</ele>
        <time>2018-08-28T08:27:32Z</time>
      </trkpt>
      <trkpt lat="45.9251" lon="4.75997">
        <ele>172</ele>
        <time>2018-08-28T08:27:33Z</time>
      </trkpt>
      <trkpt lat="45.92514" lon="4.76001">
        <ele>172</ele>
        <time>2018-08-28T08:27:34Z</time>
      </trkpt>
      <trkpt lat="45.92519" lon="4.76004">
        <ele>172</ele>
        <time>2018-08-28T08:27:35Z</time>
      </trkpt>
      <trkpt lat="45.92523" lon="4.76008">
        <ele>172</ele>
        <time>2018-08-28T08:27:36Z</time>
      </trkpt>
      <trkpt lat="45.92528" lon="4.76012">
        <ele>172</ele>
        <time>2018-08-28T08:27:37Z</time>
      </trkpt>
      <trkpt lat="45.92533" lon="4.76015">
        <ele>172</ele>
        <time>2018-08-28T08:27:38Z</time>
      </trkpt>
      <trkpt lat="45.92539" lon="4.76019">
        <ele>172</ele>
        <time>2018-08-28T08:27:39Z</time>
      </trkpt>
      <trkpt lat="45.92544" lon="4.76022">
        <ele>172</ele>
        <time>2018-08-28T08:27:40Z</time>
      </trkpt>
      <trkpt lat="45.92549" lon="4.76026">
        <ele>172</ele>
        <time>2018-08-28T08:27:41Z</time>
      </trkpt>
      <trkpt lat="45.92554" lon="4.76029">
        <ele>172</ele>
        <time>2018-08-28T08:27:42Z</time>
      </trkpt>
      <trkpt lat="45.92559" lon="4.76033">
        <ele>172</ele>
        <time>2018-08-28T08:27:43Z</time>
      </trkpt>
      <trkpt lat="45.92564" lon="4.76036">
        <ele>172</ele>
        <time>2018-08-28T08:27:44Z</time>
      </trkpt>
      <trkpt lat="45.92568" lon="4.7604">
        <ele>172</ele>
        <time>2018-08-28T08:27:45Z</time>
      </trkpt>
      <trkpt lat="45.92573" lon="4.76042">
        <ele>171</ele>
        <time>2018-08-28T08:27:46Z</time>
      </trkpt>
      <trkpt lat="45.92577" lon="4.76045">
        <ele>171</ele>
        <time>2018-08-28T08:27:47Z</time>
      </trkpt>
      <trkpt lat="45.92583" lon="4.76047">
        <ele>171</ele>
        <time>2018-08-28T08:27:48Z</time>
      </trkpt>
      <trkpt lat="45.92588" lon="4.76051">
        <ele>171</ele>
        <time>2018-08-28T08:27:49Z</time>
      </trkpt>
      <trkpt lat="45.92593" lon="4.76054">
        <ele>171</ele>
        <time>2018-08-28T08:27:50Z</time>
      </trkpt>
      <trkpt lat="45.92598" lon="4.76058">
        <ele>171</ele>
        <time>2018-08-28T08:27:51Z</time>
      </trkpt>
      <trkpt lat="45.92605" lon="4.7606">
        <ele>171</ele>
        <time>2018-08-28T08:27:52Z</time>
      </trkpt>
      <trkpt lat="45.92609" lon="4.76063">
        <ele>171</ele>
        <time>2018-08-28T08:27:53Z</time>
      </trkpt>
      <trkpt lat="45.92615" lon="4.76067">
        <ele>171</ele>
        <time>2018-08-28T08:27:54Z</time>
      </trkpt>
      <trkpt lat="45.92618" lon="4.76072">
        <ele>171</ele>
        <time>2018-08-28T08:27:55Z</time>
      </trkpt>
      <trkpt lat="45.92625" lon="4.76076">
        <ele>171</ele>
        <time>2018-08-28T08:27:56Z</time>
      </trkpt>
      <trkpt lat="45.92631" lon="4.7608">
        <ele>170</ele>
        <time>2018-08-28T08:27:57Z</time>
      </trkpt>
      <trkpt lat="45.92636" lon="4.76084">
        <ele>170</ele>
        <time>2018-08-28T08:27:58Z</time>
      </trkpt>
      <trkpt lat="45.92641" lon="4.76088">
        <ele>170</ele>
        <time>2018-08-28T08:27:59Z</time>
      </trkpt>
      <trkpt lat="45.92648" lon="4.76092">
        <ele>170</ele>
        <time>2018-08-28T08:28:00Z</time>
      </trkpt>
      <trkpt lat="45.92654" lon="4.76096">
        <ele>170</ele>
        <time>2018-08-28T08:28:01Z</time>
      </trkpt>
      <trkpt lat="45.9266" lon="4.76101">
        <ele>170</ele>
        <time>2018-08-28T08:28:02Z</time>
      </trkpt>
      <trkpt lat="45.92666" lon="4.76105">
        <ele>170</ele>
        <time>2018-08-28T08:28:03Z</time>
      </trkpt>
      <trkpt lat="45.92672" lon="4.76109">
        <ele>169</ele>
        <time>2018-08-28T08:28:04Z</time>
      </trkpt>
      <trkpt lat="45.92679" lon="4.76113">
        <ele>169</ele>
        <time>2018-08-28T08:28:05Z</time>
      </trkpt>
      <trkpt lat="45.92685" lon="4.76121">
        <ele>169</ele>
        <time>2018-08-28T08:28:06Z</time>
      </trkpt>
      <trkpt lat="45.92693" lon="4.76124">
        <ele>169</ele>
        <time>2018-08-28T08:28:07Z</time>
      </trkpt>
      <trkpt lat="45.927" lon="4.76128">
        <ele>169</ele>
        <time>2018-08-28T08:28:08Z</time>
      </trkpt>
      <trkpt lat="45.92706" lon="4.76133">
        <ele>169</ele>
        <time>2018-08-28T08:28:09Z</time>
      </trkpt>
      <trkpt lat="45.92714" lon="4.76137">
        <ele>168</ele>
        <time>2018-08-28T08:28:10Z</time>
      </trkpt>
      <trkpt lat="45.92719" lon="4.76142">
        <ele>168</ele>
        <time>2018-08-28T08:28:11Z</time>
      </trkpt>
      <trkpt lat="45.92726" lon="4.76147">
        <ele>168</ele>
        <time>2018-08-28T08:28:12Z</time>
      </trkpt>
      <trkpt lat="45.92733" lon="4.76151">
        <ele>168</ele>
        <time>2018-08-28T08:28:13Z</time>
      </trkpt>
      <trkpt lat="45.92739" lon="4.76155">
        <ele>168</ele>
        <time>2018-08-28T08:28:14Z</time>
      </trkpt>
      <trkpt lat="45.92745" lon="4.76161">
        <ele>167</ele>
        <time>2018-08-28T08:28:15Z</time>
      </trkpt>
      <trkpt lat="45.92751" lon="4.76163">
        <ele>167</ele>
        <time>2018-08-28T08:28:16Z</time>
      </trkpt>
      <trkpt lat="45.92759" lon="4.76166">
        <ele>167</ele>
        <time>2018-08-28T08:28:17Z</time>
      </trkpt>
      <trkpt lat="45.92765" lon="4.7617">
        <ele>167</ele>
        <time>2018-08-28T08:28:18Z</time>
      </trkpt>
      <trkpt lat="45.92771" lon="4.76172">
        <ele>167</ele>
        <time>2018-08-28T08:28:19Z</time>
      </trkpt>
      <trkpt lat="45.92777" lon="4.76176">
        <ele>167</ele>
        <time>2018-08-28T08:28:20Z</time>
      </trkpt>
      <trkpt lat="45.92778" lon="4.76185">
        <ele>168</ele>
        <time>2018-08-28T08:28:21Z</time>
      </trkpt>
      <trkpt lat="45.92782" lon="4.7619">
        <ele>168</ele>
        <time>2018-08-28T08:28:22Z</time>
      </trkpt>
      <trkpt lat="45.92786" lon="4.76194">
        <ele>168</ele>
        <time>2018-08-28T08:28:23Z</time>
      </trkpt>
      <trkpt lat="45.92791" lon="4.76199">
        <ele>168</ele>
        <time>2018-08-28T08:28:24Z</time>
      </trkpt>
      <trkpt lat="45.92797" lon="4.76205">
        <ele>168</ele>
        <time>2018-08-28T08:28:25Z</time>
      </trkpt>
      <trkpt lat="45.92801" lon="4.7621">
        <ele>168</ele>
        <time>2018-08-28T08:28:26Z</time>
      </trkpt>
      <trkpt lat="45.92807" lon="4.76216">
        <ele>168</ele>
        <time>2018-08-28T08:28:27Z</time>
      </trkpt>
      <trkpt lat="45.92811" lon="4.76222">
        <ele>168</ele>
        <time>2018-08-28T08:28:28Z</time>
      </trkpt>
      <trkpt lat="45.92815" lon="4.76227">
        <ele>168</ele>
        <time>2018-08-28T08:28:29Z</time>
      </trkpt>
      <trkpt lat="45.9282" lon="4.76232">
        <ele>168</ele>
        <time>2018-08-28T08:28:30Z</time>
      </trkpt>
      <trkpt lat="45.92824" lon="4.76237">
        <ele>168</ele>
        <time>2018-08-28T08:28:31Z</time>
      </trkpt>
      <trkpt lat="45.9283" lon="4.7624">
        <ele>169</ele>
        <time>2018-08-28T08:28:32Z</time>
      </trkpt>
      <trkpt lat="45.92832" lon="4.76244">
        <ele>169</ele>
        <time>2018-08-28T08:28:33Z</time>
      </trkpt>
      <trkpt lat="45.92836" lon="4.76251">
        <ele>169</ele>
        <time>2018-08-28T08:28:34Z</time>
      </trkpt>
      <trkpt lat="45.92843" lon="4.76257">
        <ele>169</ele>
        <time>2018-08-28T08:28:35Z</time>
      </trkpt>
      <trkpt lat="45.92849" lon="4.76267">
        <ele>169</ele>
        <time>2018-08-28T08:28:36Z</time>
      </trkpt>
      <trkpt lat="45.92855" lon="4.76272">
        <ele>169</ele>
        <time>2018-08-28T08:28:37Z</time>
      </trkpt>
      <trkpt lat="45.92861" lon="4.76277">
        <ele>169</ele>
        <time>2018-08-28T08:28:38Z</time>
      </trkpt>
      <trkpt lat="45.92865" lon="4.7628">
        <ele>169</ele>
        <time>2018-08-28T08:28:39Z</time>
      </trkpt>
      <trkpt lat="45.92869" lon="4.76284">
        <ele>169</ele>
        <time>2018-08-28T08:28:40Z</time>
      </trkpt>
      <trkpt lat="45.92872" lon="4.7629">
        <ele>169</ele>
        <time>2018-08-28T08:28:41Z</time>
      </trkpt>
      <trkpt lat="45.92879" lon="4.76292">
        <ele>169</ele>
        <time>2018-08-28T08:28:42Z</time>
      </trkpt>
      <trkpt lat="45.92884" lon="4.76295">
        <ele>169</ele>
        <time>2018-08-28T08:28:43Z</time>
      </trkpt>
      <trkpt lat="45.92888" lon="4.76299">
        <ele>169</ele>
        <time>2018-08-28T08:28:44Z</time>
      </trkpt>
      <trkpt lat="45.92893" lon="4.76304">
        <ele>169</ele>
        <time>2018-08-28T08:28:45Z</time>
      </trkpt>
      <trkpt lat="45.92897" lon="4.76308">
        <ele>169</ele>
        <time>2018-08-28T08:28:46Z</time>
      </trkpt>
      <trkpt lat="45.92902" lon="4.76314">
        <ele>169</ele>
        <time>2018-08-28T08:28:47Z</time>
      </trkpt>
      <trkpt lat="45.92909" lon="4.76317">
        <ele>169</ele>
        <time>2018-08-28T08:28:48Z</time>
      </trkpt>
      <trkpt lat="45.92913" lon="4.76322">
        <ele>169</ele>
        <time>2018-08-28T08:28:49Z</time>
      </trkpt>
      <trkpt lat="45.92918" lon="4.76326">
        <ele>169</ele>
        <time>2018-08-28T08:28:50Z</time>
      </trkpt>
      <trkpt lat="45.92924" lon="4.76328">
        <ele>169</ele>
        <time>2018-08-28T08:28:51Z</time>
      </trkpt>
      <trkpt lat="45.92928" lon="4.76332">
        <ele>169</ele>
        <time>2018-08-28T08:28:52Z</time>
      </trkpt>
      <trkpt lat="45.92934" lon="4.7634">
        <ele>169</ele>
        <time>2018-08-28T08:28:53Z</time>
      </trkpt>
      <trkpt lat="45.92938" lon="4.76345">
        <ele>169</ele>
        <time>2018-08-28T08:28:54Z</time>
      </trkpt>
      <trkpt lat="45.92943" lon="4.7635">
        <ele>169</ele>
        <time>2018-08-28T08:28:55Z</time>
      </trkpt>
      <trkpt lat="45.92946" lon="4.76355">
        <ele>169</ele>
        <time>2018-08-28T08:28:56Z</time>
      </trkpt>
      <trkpt lat="45.92952" lon="4.76359">
        <ele>169</ele>
        <time>2018-08-28T08:28:57Z</time>
      </trkpt>
      <trkpt lat="45.92956" lon="4.76364">
        <ele>169</ele>
        <time>2018-08-28T08:28:58Z</time>
      </trkpt>
      <trkpt lat="45.9296" lon="4.76369">
        <ele>169</ele>
        <time>2018-08-28T08:28:59Z</time>
      </trkpt>
      <trkpt lat="45.92963" lon="4.76373">
        <ele>169</ele>
        <time>2018-08-28T08:29:00Z</time>
      </trkpt>
      <trkpt lat="45.9297" lon="4.7638">
        <ele>169</ele>
        <time>2018-08-28T08:29:02Z</time>
      </trkpt>
      <trkpt lat="45.92975" lon="4.76385">
        <ele>169</ele>
        <time>2018-08-28T08:29:03Z</time>
      </trkpt>
      <trkpt lat="45.92979" lon="4.76388">
        <ele>169</ele>
        <time>2018-08-28T08:29:04Z</time>
      </trkpt>
      <trkpt lat="45.92983" lon="4.76392">
        <ele>169</ele>
        <time>2018-08-28T08:29:05Z</time>
      </trkpt>
      <trkpt lat="45.92987" lon="4.76396">
        <ele>169</ele>
        <time>2018-08-28T08:29:06Z</time>
      </trkpt>
      <trkpt lat="45.92991" lon="4.764">
        <ele>169</ele>
        <time>2018-08-28T08:29:07Z</time>
      </trkpt>
      <trkpt lat="45.92995" lon="4.76403">
        <ele>169</ele>
        <time>2018-08-28T08:29:08Z</time>
      </trkpt>
      <trkpt lat="45.93" lon="4.76409">
        <ele>169</ele>
        <time>2018-08-28T08:29:09Z</time>
      </trkpt>
      <trkpt lat="45.93004" lon="4.76414">
        <ele>169</ele>
        <time>2018-08-28T08:29:10Z</time>
      </trkpt>
      <trkpt lat="45.93008" lon="4.76418">
        <ele>169</ele>
        <time>2018-08-28T08:29:11Z</time>
      </trkpt>
      <trkpt lat="45.93014" lon="4.76421">
        <ele>169</ele>
        <time>2018-08-28T08:29:12Z</time>
      </trkpt>
      <trkpt lat="45.9302" lon="4.76425">
        <ele>169</ele>
        <time>2018-08-28T08:29:13Z</time>
      </trkpt>
      <trkpt lat="45.93024" lon="4.7643">
        <ele>169</ele>
        <time>2018-08-28T08:29:14Z</time>
      </trkpt>
      <trkpt lat="45.93027" lon="4.76436">
        <ele>169</ele>
        <time>2018-08-28T08:29:15Z</time>
      </trkpt>
      <trkpt lat="45.93032" lon="4.76441">
        <ele>169</ele>
        <time>2018-08-28T08:29:16Z</time>
      </trkpt>
      <trkpt lat="45.93035" lon="4.76445">
        <ele>169</ele>
        <time>2018-08-28T08:29:17Z</time>
      </trkpt>
      <trkpt lat="45.93041" lon="4.7645">
        <ele>169</ele>
        <time>2018-08-28T08:29:18Z</time>
      </trkpt>
      <trkpt lat="45.93046" lon="4.76456">
        <ele>169</ele>
        <time>2018-08-28T08:29:19Z</time>
      </trkpt>
      <trkpt lat="45.9305" lon="4.7646">
        <ele>169</ele>
        <time>2018-08-28T08:29:20Z</time>
      </trkpt>
      <trkpt lat="45.93055" lon="4.76463">
        <ele>169</ele>
        <time>2018-08-28T08:29:21Z</time>
      </trkpt>
      <trkpt lat="45.9306" lon="4.76468">
        <ele>169</ele>
        <time>2018-08-28T08:29:22Z</time>
      </trkpt>
      <trkpt lat="45.93063" lon="4.76472">
        <ele>169</ele>
        <time>2018-08-28T08:29:23Z</time>
      </trkpt>
      <trkpt lat="45.93068" lon="4.76478">
        <ele>169</ele>
        <time>2018-08-28T08:29:24Z</time>
      </trkpt>
      <trkpt lat="45.93074" lon="4.76483">
        <ele>169</ele>
        <time>2018-08-28T08:29:25Z</time>
      </trkpt>
      <trkpt lat="45.93079" lon="4.76487">
        <ele>170</ele>
        <time>2018-08-28T08:29:26Z</time>
      </trkpt>
      <trkpt lat="45.93086" lon="4.76496">
        <ele>170</ele>
        <time>2018-08-28T08:29:27Z</time>
      </trkpt>
      <trkpt lat="45.93091" lon="4.765">
        <ele>170</ele>
        <time>2018-08-28T08:29:28Z</time>
      </trkpt>
      <trkpt lat="45.93097" lon="4.76504">
        <ele>170</ele>
        <time>2018-08-28T08:29:29Z</time>
      </trkpt>
      <trkpt lat="45.93099" lon="4.76507">
        <ele>170</ele>
        <time>2018-08-28T08:29:30Z</time>
      </trkpt>
      <trkpt lat="45.93103" lon="4.76512">
        <ele>170</ele>
        <time>2018-08-28T08:29:31Z</time>
      </trkpt>
      <trkpt lat="45.93108" lon="4.76515">
        <ele>170</ele>
        <time>2018-08-28T08:29:32Z</time>
      </trkpt>
      <trkpt lat="45.93114" lon="4.7652">
        <ele>170</ele>
        <time>2018-08-28T08:29:33Z</time>
      </trkpt>
      <trkpt lat="45.93118" lon="4.76523">
        <ele>170</ele>
        <time>2018-08-28T08:29:34Z</time>
      </trkpt>
      <trkpt lat="45.93122" lon="4.76527">
        <ele>170</ele>
        <time>2018-08-28T08:29:35Z</time>
      </trkpt>
      <trkpt lat="45.93127" lon="4.76532">
        <ele>170</ele>
        <time>2018-08-28T08:29:36Z</time>
      </trkpt>
      <trkpt lat="45.93131" lon="4.76534">
        <ele>170</ele>
        <time>2018-08-28T08:29:37Z</time>
      </trkpt>
      <trkpt lat="45.93135" lon="4.7654">
        <ele>170</ele>
        <time>2018-08-28T08:29:38Z</time>
      </trkpt>
      <trkpt lat="45.93139" lon="4.76543">
        <ele>170</ele>
        <time>2018-08-28T08:29:39Z</time>
      </trkpt>
      <trkpt lat="45.93142" lon="4.76549">
        <ele>170</ele>
        <time>2018-08-28T08:29:40Z</time>
      </trkpt>
      <trkpt lat="45.93147" lon="4.76552">
        <ele>170</ele>
        <time>2018-08-28T08:29:41Z</time>
      </trkpt>
      <trkpt lat="45.93153" lon="4.76561">
        <ele>170</ele>
        <time>2018-08-28T08:29:43Z</time>
      </trkpt>
      <trkpt lat="45.93159" lon="4.76564">
        <ele>170</ele>
        <time>2018-08-28T08:29:44Z</time>
      </trkpt>
      <trkpt lat="45.93164" lon="4.76569">
        <ele>170</ele>
        <time>2018-08-28T08:29:45Z</time>
      </trkpt>
      <trkpt lat="45.93171" lon="4.76577">
        <ele>170</ele>
        <time>2018-08-28T08:29:46Z</time>
      </trkpt>
      <trkpt lat="45.93174" lon="4.76582">
        <ele>170</ele>
        <time>2018-08-28T08:29:48Z</time>
      </trkpt>
      <trkpt lat="45.9318" lon="4.76585">
        <ele>171</ele>
        <time>2018-08-28T08:29:49Z</time>
      </trkpt>
      <trkpt lat="45.93184" lon="4.7659">
        <ele>171</ele>
        <time>2018-08-28T08:29:50Z</time>
      </trkpt>
      <trkpt lat="45.93187" lon="4.76594">
        <ele>171</ele>
        <time>2018-08-28T08:29:51Z</time>
      </trkpt>
      <trkpt lat="45.93192" lon="4.76597">
        <ele>170</ele>
        <time>2018-08-28T08:29:52Z</time>
      </trkpt>
      <trkpt lat="45.93198" lon="4.76602">
        <ele>170</ele>
        <time>2018-08-28T08:29:53Z</time>
      </trkpt>
      <trkpt lat="45.93202" lon="4.76607">
        <ele>170</ele>
        <time>2018-08-28T08:29:54Z</time>
      </trkpt>
      <trkpt lat="45.93207" lon="4.76611">
        <ele>170</ele>
        <time>2018-08-28T08:29:55Z</time>
      </trkpt>
      <trkpt lat="45.93215" lon="4.76616">
        <ele>170</ele>
        <time>2018-08-28T08:29:56Z</time>
      </trkpt>
      <trkpt lat="45.9322" lon="4.76621">
        <ele>170</ele>
        <time>2018-08-28T08:29:57Z</time>
      </trkpt>
      <trkpt lat="45.93223" lon="4.76626">
        <ele>170</ele>
        <time>2018-08-28T08:29:58Z</time>
      </trkpt>
      <trkpt lat="45.93227" lon="4.76629">
        <ele>170</ele>
        <time>2018-08-28T08:29:59Z</time>
      </trkpt>
      <trkpt lat="45.93231" lon="4.76633">
        <ele>171</ele>
        <time>2018-08-28T08:30:00Z</time>
      </trkpt>
      <trkpt lat="45.93234" lon="4.76638">
        <ele>171</ele>
        <time>2018-08-28T08:30:01Z</time>
      </trkpt>
      <trkpt lat="45.93239" lon="4.76642">
        <ele>171</ele>
        <time>2018-08-28T08:30:02Z</time>
      </trkpt>
      <trkpt lat="45.93243" lon="4.76646">
        <ele>171</ele>
        <time>2018-08-28T08:30:03Z</time>
      </trkpt>
      <trkpt lat="45.93247" lon="4.76652">
        <ele>171</ele>
        <time>2018-08-28T08:30:04Z</time>
      </trkpt>
      <trkpt lat="45.9325" lon="4.76658">
        <ele>171</ele>
        <time>2018-08-28T08:30:05Z</time>
      </trkpt>
      <trkpt lat="45.93256" lon="4.76662">
        <ele>171</ele>
        <time>2018-08-28T08:30:06Z</time>
      </trkpt>
      <trkpt lat="45.93261" lon="4.76666">
        <ele>171</ele>
        <time>2018-08-28T08:30:07Z</time>
      </trkpt>
      <trkpt lat="45.93265" lon="4.76673">
        <ele>172</ele>
        <time>2018-08-28T08:30:08Z</time>
      </trkpt>
      <trkpt lat="45.9327" lon="4.76678">
        <ele>172</ele>
        <time>2018-08-28T08:30:09Z</time>
      </trkpt>
      <trkpt lat="45.93275" lon="4.7668">
        <ele>172</ele>
        <time>2018-08-28T08:30:10Z</time>
      </trkpt>
      <trkpt lat="45.93279" lon="4.76684">
        <ele>172</ele>
        <time>2018-08-28T08:30:11Z</time>
      </trkpt>
      <trkpt lat="45.93286" lon="4.76688">
        <ele>172</ele>
        <time>2018-08-28T08:30:12Z</time>
      </trkpt>
      <trkpt lat="45.93291" lon="4.76692">
        <ele>172</ele>
        <time>2018-08-28T08:30:13Z</time>
      </trkpt>
      <trkpt lat="45.93297" lon="4.76695">
        <ele>172</ele>
        <time>2018-08-28T08:30:14Z</time>
      </trkpt>
      <trkpt lat="45.93302" lon="4.767">
        <ele>172</ele>
        <time>2018-08-28T08:30:15Z</time>
      </trkpt>
      <trkpt lat="45.93306" lon="4.76706">
        <ele>172</ele>
        <time>2018-08-28T08:30:16Z</time>
      </trkpt>
      <trkpt lat="45.9331" lon="4.7671">
        <ele>172</ele>
        <time>2018-08-28T08:30:17Z</time>
      </trkpt>
      <trkpt lat="45.93315" lon="4.76716">
        <ele>172</ele>
        <time>2018-08-28T08:30:18Z</time>
      </trkpt>
      <trkpt lat="45.93319" lon="4.76719">
        <ele>172</ele>
        <time>2018-08-28T08:30:19Z</time>
      </trkpt>
      <trkpt lat="45.93323" lon="4.76723">
        <ele>172</ele>
        <time>2018-08-28T08:30:20Z</time>
      </trkpt>
      <trkpt lat="45.93325" lon="4.76729">
        <ele>172</ele>
        <time>2018-08-28T08:30:21Z</time>
      </trkpt>
      <trkpt lat="45.93329" lon="4.76734">
        <ele>172</ele>
        <time>2018-08-28T08:30:22Z</time>
      </trkpt>
      <trkpt lat="45.93335" lon="4.76741">
        <ele>173</ele>
        <time>2018-08-28T08:30:23Z</time>
      </trkpt>
      <trkpt lat="45.93339" lon="4.76746">
        <ele>173</ele>
        <time>2018-08-28T08:30:24Z</time>
      </trkpt>
      <trkpt lat="45.93344" lon="4.7675">
        <ele>173</ele>
        <time>2018-08-28T08:30:25Z</time>
      </trkpt>
      <trkpt lat="45.93349" lon="4.76754">
        <ele>172</ele>
        <time>2018-08-28T08:30:26Z</time>
      </trkpt>
      <trkpt lat="45.93353" lon="4.76759">
        <ele>172</ele>
        <time>2018-08-28T08:30:27Z</time>
      </trkpt>
      <trkpt lat="45.93356" lon="4.76763">
        <ele>172</ele>
        <time>2018-08-28T08:30:28Z</time>
      </trkpt>
      <trkpt lat="45.9336" lon="4.76768">
        <ele>172</ele>
        <time>2018-08-28T08:30:29Z</time>
      </trkpt>
      <trkpt lat="45.93364" lon="4.76773">
        <ele>172</ele>
        <time>2018-08-28T08:30:30Z</time>
      </trkpt>
      <trkpt lat="45.93369" lon="4.76778">
        <ele>172</ele>
        <time>2018-08-28T08:30:31Z</time>
      </trkpt>
      <trkpt lat="45.93374" lon="4.76782">
        <ele>172</ele>
        <time>2018-08-28T08:30:32Z</time>
      </trkpt>
      <trkpt lat="45.93379" lon="4.76783">
        <ele>172</ele>
        <time>2018-08-28T08:30:33Z</time>
      </trkpt>
      <trkpt lat="45.93382" lon="4.76791">
        <ele>172</ele>
        <time>2018-08-28T08:30:34Z</time>
      </trkpt>
      <trkpt lat="45.93387" lon="4.76796">
        <ele>172</ele>
        <time>2018-08-28T08:30:35Z</time>
      </trkpt>
      <trkpt lat="45.9339" lon="4.76802">
        <ele>172</ele>
        <time>2018-08-28T08:30:36Z</time>
      </trkpt>
      <trkpt lat="45.93395" lon="4.76808">
        <ele>172</ele>
        <time>2018-08-28T08:30:37Z</time>
      </trkpt>
      <trkpt lat="45.93399" lon="4.76814">
        <ele>172</ele>
        <time>2018-08-28T08:30:38Z</time>
      </trkpt>
      <trkpt lat="45.93402" lon="4.7682">
        <ele>172</ele>
        <time>2018-08-28T08:30:39Z</time>
      </trkpt>
      <trkpt lat="45.93406" lon="4.76827">
        <ele>172</ele>
        <time>2018-08-28T08:30:40Z</time>
      </trkpt>
      <trkpt lat="45.9341" lon="4.76834">
        <ele>172</ele>
        <time>2018-08-28T08:30:41Z</time>
      </trkpt>
      <trkpt lat="45.93413" lon="4.7684">
        <ele>172</ele>
        <time>2018-08-28T08:30:42Z</time>
      </trkpt>
      <trkpt lat="45.93416" lon="4.76846">
        <ele>172</ele>
        <time>2018-08-28T08:30:43Z</time>
      </trkpt>
      <trkpt lat="45.93419" lon="4.76852">
        <ele>171</ele>
        <time>2018-08-28T08:30:44Z</time>
      </trkpt>
      <trkpt lat="45.93421" lon="4.7686">
        <ele>171</ele>
        <time>2018-08-28T08:30:45Z</time>
      </trkpt>
      <trkpt lat="45.93426" lon="4.76866">
        <ele>171</ele>
        <time>2018-08-28T08:30:46Z</time>
      </trkpt>
      <trkpt lat="45.93431" lon="4.76876">
        <ele>171</ele>
        <time>2018-08-28T08:30:47Z</time>
      </trkpt>
      <trkpt lat="45.93434" lon="4.76883">
        <ele>171</ele>
        <time>2018-08-28T08:30:48Z</time>
      </trkpt>
      <trkpt lat="45.93435" lon="4.76889">
        <ele>171</ele>
        <time>2018-08-28T08:30:49Z</time>
      </trkpt>
      <trkpt lat="45.93437" lon="4.76895">
        <ele>171</ele>
        <time>2018-08-28T08:30:50Z</time>
      </trkpt>
      <trkpt lat="45.93439" lon="4.76902">
        <ele>170</ele>
        <time>2018-08-28T08:30:51Z</time>
      </trkpt>
      <trkpt lat="45.93442" lon="4.76909">
        <ele>170</ele>
        <time>2018-08-28T08:30:52Z</time>
      </trkpt>
      <trkpt lat="45.93443" lon="4.76917">
        <ele>170</ele>
        <time>2018-08-28T08:30:53Z</time>
      </trkpt>
      <trkpt lat="45.93444" lon="4.76925">
        <ele>170</ele>
        <time>2018-08-28T08:30:54Z</time>
      </trkpt>
      <trkpt lat="45.93445" lon="4.76932">
        <ele>170</ele>
        <time>2018-08-28T08:30:55Z</time>
      </trkpt>
      <trkpt lat="45.93446" lon="4.7694">
        <ele>170</ele>
        <time>2018-08-28T08:30:56Z</time>
      </trkpt>
      <trkpt lat="45.93447" lon="4.76947">
        <ele>170</ele>
        <time>2018-08-28T08:30:57Z</time>
      </trkpt>
      <trkpt lat="45.93448" lon="4.76954">
        <ele>170</ele>
        <time>2018-08-28T08:30:58Z</time>
      </trkpt>
      <trkpt lat="45.93449" lon="4.76962">
        <ele>170</ele>
        <time>2018-08-28T08:30:59Z</time>
      </trkpt>
      <trkpt lat="45.93451" lon="4.7697">
        <ele>170</ele>
        <time>2018-08-28T08:31:00Z</time>
      </trkpt>
      <trkpt lat="45.93453" lon="4.76978">
        <ele>170</ele>
        <time>2018-08-28T08:31:01Z</time>
      </trkpt>
      <trkpt lat="45.93454" lon="4.76985">
        <ele>170</ele>
        <time>2018-08-28T08:31:02Z</time>
      </trkpt>
      <trkpt lat="45.93454" lon="4.76993">
        <ele>170</ele>
        <time>2018-08-28T08:31:03Z</time>
      </trkpt>
      <trkpt lat="45.93455" lon="4.77001">
        <ele>170</ele>
        <time>2018-08-28T08:31:04Z</time>
      </trkpt>
      <trkpt lat="45.93456" lon="4.77008">
        <ele>170</ele>
        <time>2018-08-28T08:31:05Z</time>
      </trkpt>
      <trkpt lat="45.93457" lon="4.77015">
        <ele>170</ele>
        <time>2018-08-28T08:31:06Z</time>
      </trkpt>
      <trkpt lat="45.93459" lon="4.77021">
        <ele>170</ele>
        <time>2018-08-28T08:31:07Z</time>
      </trkpt>
      <trkpt lat="45.9346" lon="4.77028">
        <ele>170</ele>
        <time>2018-08-28T08:31:08Z</time>
      </trkpt>
      <trkpt lat="45.93461" lon="4.77035">
        <ele>170</ele>
        <time>2018-08-28T08:31:09Z</time>
      </trkpt>
      <trkpt lat="45.93462" lon="4.77043">
        <ele>170</ele>
        <time>2018-08-28T08:31:10Z</time>
      </trkpt>
      <trkpt lat="45.93463" lon="4.7705">
        <ele>170</ele>
        <time>2018-08-28T08:31:11Z</time>
      </trkpt>
      <trkpt lat="45.93464" lon="4.77058">
        <ele>170</ele>
        <time>2018-08-28T08:31:12Z</time>
      </trkpt>
      <trkpt lat="45.93466" lon="4.77065">
        <ele>170</ele>
        <time>2018-08-28T08:31:13Z</time>
      </trkpt>
      <trkpt lat="45.93468" lon="4.77073">
        <ele>170</ele>
        <time>2018-08-28T08:31:14Z</time>
      </trkpt>
      <trkpt lat="45.93469" lon="4.77082">
        <ele>170</ele>
        <time>2018-08-28T08:31:15Z</time>
      </trkpt>
      <trkpt lat="45.93471" lon="4.7709">
        <ele>169</ele>
        <time>2018-08-28T08:31:16Z</time>
      </trkpt>
      <trkpt lat="45.93472" lon="4.77098">
        <ele>169</ele>
        <time>2018-08-28T08:31:17Z</time>
      </trkpt>
      <trkpt lat="45.93473" lon="4.77105">
        <ele>169</ele>
        <time>2018-08-28T08:31:18Z</time>
      </trkpt>
      <trkpt lat="45.93475" lon="4.77113">
        <ele>169</ele>
        <time>2018-08-28T08:31:19Z</time>
      </trkpt>
      <trkpt lat="45.93476" lon="4.77119">
        <ele>169</ele>
        <time>2018-08-28T08:31:20Z</time>
      </trkpt>
      <trkpt lat="45.9348" lon="4.77129">
        <ele>169</ele>
        <time>2018-08-28T08:31:21Z</time>
      </trkpt>
      <trkpt lat="45.93482" lon="4.77136">
        <ele>169</ele>
        <time>2018-08-28T08:31:22Z</time>
      </trkpt>
      <trkpt lat="45.93483" lon="4.77144">
        <ele>169</ele>
        <time>2018-08-28T08:31:23Z</time>
      </trkpt>
      <trkpt lat="45.93484" lon="4.77152">
        <ele>169</ele>
        <time>2018-08-28T08:31:24Z</time>
      </trkpt>
      <trkpt lat="45.93485" lon="4.77159">
        <ele>169</ele>
        <time>2018-08-28T08:31:25Z</time>
      </trkpt>
      <trkpt lat="45.93487" lon="4.77167">
        <ele>169</ele>
        <time>2018-08-28T08:31:26Z</time>
      </trkpt>
      <trkpt lat="45.93489" lon="4.77176">
        <ele>169</ele>
        <time>2018-08-28T08:31:27Z</time>
      </trkpt>
      <trkpt lat="45.93491" lon="4.77184">
        <ele>169</ele>
        <time>2018-08-28T08:31:28Z</time>
      </trkpt>
      <trkpt lat="45.93493" lon="4.77194">
        <ele>169</ele>
        <time>2018-08-28T08:31:29Z</time>
      </trkpt>
      <trkpt lat="45.93495" lon="4.77199">
        <ele>169</ele>
        <time>2018-08-28T08:31:30Z</time>
      </trkpt>
      <trkpt lat="45.93496" lon="4.77207">
        <ele>169</ele>
        <time>2018-08-28T08:31:31Z</time>
      </trkpt>
      <trkpt lat="45.93498" lon="4.77214">
        <ele>169</ele>
        <time>2018-08-28T08:31:32Z</time>
      </trkpt>
      <trkpt lat="45.935" lon="4.77221">
        <ele>169</ele>
        <time>2018-08-28T08:31:33Z</time>
      </trkpt>
      <trkpt lat="45.93502" lon="4.77229">
        <ele>169</ele>
        <time>2018-08-28T08:31:34Z</time>
      </trkpt>
      <trkpt lat="45.93503" lon="4.77238">
        <ele>169</ele>
        <time>2018-08-28T08:31:35Z</time>
      </trkpt>
      <trkpt lat="45.93505" lon="4.77246">
        <ele>170</ele>
        <time>2018-08-28T08:31:36Z</time>
      </trkpt>
      <trkpt lat="45.93506" lon="4.77254">
        <ele>170</ele>
        <time>2018-08-28T08:31:37Z</time>
      </trkpt>
      <trkpt lat="45.93509" lon="4.77263">
        <ele>170</ele>
        <time>2018-08-28T08:31:38Z</time>
      </trkpt>
      <trkpt lat="45.93511" lon="4.77272">
        <ele>170</ele>
        <time>2018-08-28T08:31:39Z</time>
      </trkpt>
      <trkpt lat="45.93513" lon="4.77279">
        <ele>170</ele>
        <time>2018-08-28T08:31:40Z</time>
      </trkpt>
      <trkpt lat="45.93514" lon="4.77287">
        <ele>170</ele>
        <time>2018-08-28T08:31:41Z</time>
      </trkpt>
      <trkpt lat="45.93516" lon="4.77293">
        <ele>170</ele>
        <time>2018-08-28T08:31:42Z</time>
      </trkpt>
      <trkpt lat="45.93518" lon="4.77301">
        <ele>170</ele>
        <time>2018-08-28T08:31:43Z</time>
      </trkpt>
      <trkpt lat="45.93519" lon="4.77308">
        <ele>170</ele>
        <time>2018-08-28T08:31:44Z</time>
      </trkpt>
      <trkpt lat="45.93522" lon="4.77317">
        <ele>170</ele>
        <time>2018-08-28T08:31:45Z</time>
      </trkpt>
      <trkpt lat="45.93524" lon="4.77329">
        <ele>170</ele>
        <time>2018-08-28T08:31:47Z</time>
      </trkpt>
      <trkpt lat="45.93524" lon="4.77337">
        <ele>170</ele>
        <time>2018-08-28T08:31:48Z</time>
      </trkpt>
      <trkpt lat="45.93525" lon="4.77345">
        <ele>170</ele>
        <time>2018-08-28T08:31:49Z</time>
      </trkpt>
      <trkpt lat="45.93525" lon="4.77354">
        <ele>170</ele>
        <time>2018-08-28T08:31:50Z</time>
      </trkpt>
      <trkpt lat="45.93526" lon="4.77362">
        <ele>170</ele>
        <time>2018-08-28T08:31:51Z</time>
      </trkpt>
      <trkpt lat="45.93529" lon="4.7737">
        <ele>170</ele>
        <time>2018-08-28T08:31:52Z</time>
      </trkpt>
      <trkpt lat="45.9353" lon="4.77376">
        <ele>170</ele>
        <time>2018-08-28T08:31:53Z</time>
      </trkpt>
      <trkpt lat="45.93531" lon="4.77383">
        <ele>170</ele>
        <time>2018-08-28T08:31:54Z</time>
      </trkpt>
      <trkpt lat="45.93531" lon="4.7739">
        <ele>170</ele>
        <time>2018-08-28T08:31:55Z</time>
      </trkpt>
      <trkpt lat="45.93534" lon="4.77397">
        <ele>170</ele>
        <time>2018-08-28T08:31:56Z</time>
      </trkpt>
      <trkpt lat="45.93536" lon="4.77404">
        <ele>170</ele>
        <time>2018-08-28T08:31:57Z</time>
      </trkpt>
      <trkpt lat="45.93538" lon="4.77412">
        <ele>170</ele>
        <time>2018-08-28T08:31:58Z</time>
      </trkpt>
      <trkpt lat="45.9354" lon="4.77424">
        <ele>170</ele>
        <time>2018-08-28T08:32:00Z</time>
      </trkpt>
      <trkpt lat="45.9354" lon="4.77433">
        <ele>169</ele>
        <time>2018-08-28T08:32:01Z</time>
      </trkpt>
      <trkpt lat="45.93541" lon="4.7744">
        <ele>169</ele>
        <time>2018-08-28T08:32:02Z</time>
      </trkpt>
      <trkpt lat="45.93543" lon="4.77447">
        <ele>169</ele>
        <time>2018-08-28T08:32:03Z</time>
      </trkpt>
      <trkpt lat="45.93546" lon="4.77456">
        <ele>169</ele>
        <time>2018-08-28T08:32:04Z</time>
      </trkpt>
      <trkpt lat="45.93547" lon="4.77464">
        <ele>169</ele>
        <time>2018-08-28T08:32:05Z</time>
      </trkpt>
      <trkpt lat="45.93549" lon="4.7747">
        <ele>169</ele>
        <time>2018-08-28T08:32:06Z</time>
      </trkpt>
      <trkpt lat="45.93551" lon="4.77478">
        <ele>169</ele>
        <time>2018-08-28T08:32:07Z</time>
      </trkpt>
      <trkpt lat="45.93553" lon="4.77486">
        <ele>169</ele>
        <time>2018-08-28T08:32:08Z</time>
      </trkpt>
      <trkpt lat="45.93556" lon="4.77494">
        <ele>169</ele>
        <time>2018-08-28T08:32:09Z</time>
      </trkpt>
      <trkpt lat="45.93558" lon="4.77502">
        <ele>169</ele>
        <time>2018-08-28T08:32:10Z</time>
      </trkpt>
      <trkpt lat="45.93559" lon="4.77508">
        <ele>169</ele>
        <time>2018-08-28T08:32:11Z</time>
      </trkpt>
      <trkpt lat="45.93562" lon="4.77516">
        <ele>169</ele>
        <time>2018-08-28T08:32:12Z</time>
      </trkpt>
      <trkpt lat="45.93563" lon="4.77523">
        <ele>169</ele>
        <time>2018-08-28T08:32:13Z</time>
      </trkpt>
      <trkpt lat="45.93566" lon="4.77529">
        <ele>169</ele>
        <time>2018-08-28T08:32:14Z</time>
      </trkpt>
      <trkpt lat="45.93569" lon="4.77537">
        <ele>169</ele>
        <time>2018-08-28T08:32:15Z</time>
      </trkpt>
      <trkpt lat="45.93571" lon="4.77544">
        <ele>169</ele>
        <time>2018-08-28T08:32:16Z</time>
      </trkpt>
      <trkpt lat="45.93573" lon="4.77551">
        <ele>169</ele>
        <time>2018-08-28T08:32:17Z</time>
      </trkpt>
      <trkpt lat="45.93575" lon="4.77557">
        <ele>169</ele>
        <time>2018-08-28T08:32:18Z</time>
      </trkpt>
      <trkpt lat="45.93577" lon="4.77563">
        <ele>169</ele>
        <time>2018-08-28T08:32:19Z</time>
      </trkpt>
      <trkpt lat="45.93578" lon="4.77568">
        <ele>170</ele>
        <time>2018-08-28T08:32:20Z</time>
      </trkpt>
      <trkpt lat="45.93582" lon="4.77576">
        <ele>170</ele>
        <time>2018-08-28T08:32:21Z</time>
      </trkpt>
      <trkpt lat="45.93585" lon="4.77586">
        <ele>170</ele>
        <time>2018-08-28T08:32:23Z</time>
      </trkpt>
      <trkpt lat="45.93587" lon="4.77592">
        <ele>170</ele>
        <time>2018-08-28T08:32:24Z</time>
      </trkpt>
      <trkpt lat="45.9359" lon="4.77603">
        <ele>170</ele>
        <time>2018-08-28T08:32:26Z</time>
      </trkpt>
      <trkpt lat="45.93592" lon="4.7761">
        <ele>170</ele>
        <time>2018-08-28T08:32:27Z</time>
      </trkpt>
      <trkpt lat="45.93594" lon="4.77616">
        <ele>170</ele>
        <time>2018-08-28T08:32:28Z</time>
      </trkpt>
      <trkpt lat="45.93595" lon="4.77623">
        <ele>170</ele>
        <time>2018-08-28T08:32:29Z</time>
      </trkpt>
      <trkpt lat="45.93599" lon="4.77632">
        <ele>169</ele>
        <time>2018-08-28T08:32:30Z</time>
      </trkpt>
      <trkpt lat="45.93602" lon="4.77638">
        <ele>169</ele>
        <time>2018-08-28T08:32:31Z</time>
      </trkpt>
      <trkpt lat="45.93605" lon="4.77646">
        <ele>169</ele>
        <time>2018-08-28T08:32:32Z</time>
      </trkpt>
      <trkpt lat="45.93607" lon="4.77653">
        <ele>169</ele>
        <time>2018-08-28T08:32:33Z</time>
      </trkpt>
      <trkpt lat="45.9361" lon="4.77661">
        <ele>169</ele>
        <time>2018-08-28T08:32:34Z</time>
      </trkpt>
      <trkpt lat="45.93614" lon="4.77668">
        <ele>169</ele>
        <time>2018-08-28T08:32:35Z</time>
      </trkpt>
      <trkpt lat="45.93616" lon="4.77674">
        <ele>169</ele>
        <time>2018-08-28T08:32:36Z</time>
      </trkpt>
      <trkpt lat="45.93619" lon="4.77681">
        <ele>169</ele>
        <time>2018-08-28T08:32:37Z</time>
      </trkpt>
      <trkpt lat="45.93622" lon="4.77686">
        <ele>169</ele>
        <time>2018-08-28T08:32:38Z</time>
      </trkpt>
      <trkpt lat="45.93625" lon="4.77693">
        <ele>169</ele>
        <time>2018-08-28T08:32:39Z</time>
      </trkpt>
      <trkpt lat="45.93629" lon="4.77698">
        <ele>169</ele>
        <time>2018-08-28T08:32:40Z</time>
      </trkpt>
      <trkpt lat="45.93633" lon="4.77706">
        <ele>170</ele>
        <time>2018-08-28T08:32:41Z</time>
      </trkpt>
      <trkpt lat="45.93636" lon="4.77711">
        <ele>170</ele>
        <time>2018-08-28T08:32:42Z</time>
      </trkpt>
      <trkpt lat="45.93638" lon="4.77717">
        <ele>170</ele>
        <time>2018-08-28T08:32:43Z</time>
      </trkpt>
      <trkpt lat="45.93641" lon="4.77723">
        <ele>170</ele>
        <time>2018-08-28T08:32:44Z</time>
      </trkpt>
      <trkpt lat="45.93643" lon="4.77728">
        <ele>170</ele>
        <time>2018-08-28T08:32:45Z</time>
      </trkpt>
      <trkpt lat="45.93648" lon="4.77736">
        <ele>170</ele>
        <time>2018-08-28T08:32:47Z</time>
      </trkpt>
      <trkpt lat="45.93651" lon="4.77741">
        <ele>170</ele>
        <time>2018-08-28T08:32:48Z</time>
      </trkpt>
      <trkpt lat="45.93655" lon="4.77746">
        <ele>170</ele>
        <time>2018-08-28T08:32:49Z</time>
      </trkpt>
      <trkpt lat="45.93658" lon="4.77751">
        <ele>171</ele>
        <time>2018-08-28T08:32:50Z</time>
      </trkpt>
      <trkpt lat="45.93663" lon="4.77758">
        <ele>171</ele>
        <time>2018-08-28T08:32:52Z</time>
      </trkpt>
      <trkpt lat="45.93666" lon="4.77762">
        <ele>171</ele>
        <time>2018-08-28T08:32:53Z</time>
      </trkpt>
      <trkpt lat="45.93671" lon="4.7777">
        <ele>170</ele>
        <time>2018-08-28T08:32:55Z</time>
      </trkpt>
      <trkpt lat="45.93674" lon="4.77774">
        <ele>170</ele>
        <time>2018-08-28T08:32:56Z</time>
      </trkpt>
      <trkpt lat="45.9368" lon="4.77783">
        <ele>170</ele>
        <time>2018-08-28T08:32:58Z</time>
      </trkpt>
      <trkpt lat="45.93683" lon="4.77787">
        <ele>170</ele>
        <time>2018-08-28T08:32:59Z</time>
      </trkpt>
      <trkpt lat="45.93689" lon="4.77796">
        <ele>169</ele>
        <time>2018-08-28T08:33:01Z</time>
      </trkpt>
      <trkpt lat="45.93692" lon="4.778">
        <ele>169</ele>
        <time>2018-08-28T08:33:02Z</time>
      </trkpt>
      <trkpt lat="45.93696" lon="4.77804">
        <ele>169</ele>
        <time>2018-08-28T08:33:03Z</time>
      </trkpt>
      <trkpt lat="45.93699" lon="4.77808">
        <ele>169</ele>
        <time>2018-08-28T08:33:04Z</time>
      </trkpt>
      <trkpt lat="45.93704" lon="4.7781">
        <ele>169</ele>
        <time>2018-08-28T08:33:05Z</time>
      </trkpt>
      <trkpt lat="45.93707" lon="4.77814">
        <ele>169</ele>
        <time>2018-08-28T08:33:06Z</time>
      </trkpt>
      <trkpt lat="45.93711" lon="4.77818">
        <ele>169</ele>
        <time>2018-08-28T08:33:07Z</time>
      </trkpt>
      <trkpt lat="45.93714" lon="4.77823">
        <ele>169</ele>
        <time>2018-08-28T08:33:08Z</time>
      </trkpt>
      <trkpt lat="45.93718" lon="4.77828">
        <ele>168</ele>
        <time>2018-08-28T08:33:09Z</time>
      </trkpt>
      <trkpt lat="45.93722" lon="4.77832">
        <ele>168</ele>
        <time>2018-08-28T08:33:10Z</time>
      </trkpt>
      <trkpt lat="45.93725" lon="4.77837">
        <ele>167</ele>
        <time>2018-08-28T08:33:11Z</time>
      </trkpt>
      <trkpt lat="45.9373" lon="4.77841">
        <ele>167</ele>
        <time>2018-08-28T08:33:12Z</time>
      </trkpt>
      <trkpt lat="45.93734" lon="4.77849">
        <ele>167</ele>
        <time>2018-08-28T08:33:14Z</time>
      </trkpt>
      <trkpt lat="45.93737" lon="4.77854">
        <ele>167</ele>
        <time>2018-08-28T08:33:15Z</time>
      </trkpt>
      <trkpt lat="45.93742" lon="4.77862">
        <ele>167</ele>
        <time>2018-08-28T08:33:17Z</time>
      </trkpt>
      <trkpt lat="45.93745" lon="4.77867">
        <ele>167</ele>
        <time>2018-08-28T08:33:18Z</time>
      </trkpt>
      <trkpt lat="45.93749" lon="4.77871">
        <ele>167</ele>
        <time>2018-08-28T08:33:19Z</time>
      </trkpt>
      <trkpt lat="45.93752" lon="4.77876">
        <ele>166</ele>
        <time>2018-08-28T08:33:20Z</time>
      </trkpt>
      <trkpt lat="45.93758" lon="4.77881">
        <ele>166</ele>
        <time>2018-08-28T08:33:21Z</time>
      </trkpt>
      <trkpt lat="45.93763" lon="4.77888">
        <ele>166</ele>
        <time>2018-08-28T08:33:22Z</time>
      </trkpt>
      <trkpt lat="45.93768" lon="4.77893">
        <ele>166</ele>
        <time>2018-08-28T08:33:23Z</time>
      </trkpt>
      <trkpt lat="45.93772" lon="4.77898">
        <ele>166</ele>
        <time>2018-08-28T08:33:24Z</time>
      </trkpt>
      <trkpt lat="45.93775" lon="4.77904">
        <ele>166</ele>
        <time>2018-08-28T08:33:25Z</time>
      </trkpt>
      <trkpt lat="45.93778" lon="4.77908">
        <ele>166</ele>
        <time>2018-08-28T08:33:26Z</time>
      </trkpt>
      <trkpt lat="45.93783" lon="4.77914">
        <ele>166</ele>
        <time>2018-08-28T08:33:27Z</time>
      </trkpt>
      <trkpt lat="45.93787" lon="4.77918">
        <ele>168</ele>
        <time>2018-08-28T08:33:28Z</time>
      </trkpt>
      <trkpt lat="45.93792" lon="4.77923">
        <ele>168</ele>
        <time>2018-08-28T08:33:29Z</time>
      </trkpt>
      <trkpt lat="45.93795" lon="4.77928">
        <ele>168</ele>
        <time>2018-08-28T08:33:30Z</time>
      </trkpt>
      <trkpt lat="45.938" lon="4.77933">
        <ele>168</ele>
        <time>2018-08-28T08:33:31Z</time>
      </trkpt>
      <trkpt lat="45.93803" lon="4.77939">
        <ele>169</ele>
        <time>2018-08-28T08:33:32Z</time>
      </trkpt>
      <trkpt lat="45.93808" lon="4.77941">
        <ele>169</ele>
        <time>2018-08-28T08:33:33Z</time>
      </trkpt>
      <trkpt lat="45.93812" lon="4.77948">
        <ele>169</ele>
        <time>2018-08-28T08:33:34Z</time>
      </trkpt>
      <trkpt lat="45.93816" lon="4.77954">
        <ele>170</ele>
        <time>2018-08-28T08:33:35Z</time>
      </trkpt>
      <trkpt lat="45.9382" lon="4.77959">
        <ele>170</ele>
        <time>2018-08-28T08:33:36Z</time>
      </trkpt>
      <trkpt lat="45.93825" lon="4.77966">
        <ele>171</ele>
        <time>2018-08-28T08:33:37Z</time>
      </trkpt>
      <trkpt lat="45.93829" lon="4.77972">
        <ele>172</ele>
        <time>2018-08-28T08:33:38Z</time>
      </trkpt>
      <trkpt lat="45.93833" lon="4.77979">
        <ele>173</ele>
        <time>2018-08-28T08:33:39Z</time>
      </trkpt>
      <trkpt lat="45.93837" lon="4.77985">
        <ele>178</ele>
        <time>2018-08-28T08:33:40Z</time>
      </trkpt>
      <trkpt lat="45.9384" lon="4.77991">
        <ele>179</ele>
        <time>2018-08-28T08:33:41Z</time>
      </trkpt>
      <trkpt lat="45.93841" lon="4.78">
        <ele>179</ele>
        <time>2018-08-28T08:33:42Z</time>
      </trkpt>
      <trkpt lat="45.93841" lon="4.78008">
        <ele>181</ele>
        <time>2018-08-28T08:33:43Z</time>
      </trkpt>
      <trkpt lat="45.93841" lon="4.78017">
        <ele>181</ele>
        <time>2018-08-28T08:33:44Z</time>
      </trkpt>
      <trkpt lat="45.93842" lon="4.78025">
        <ele>182</ele>
        <time>2018-08-28T08:33:45Z</time>
      </trkpt>
      <trkpt lat="45.93842" lon="4.78033">
        <ele>182</ele>
        <time>2018-08-28T08:33:46Z</time>
      </trkpt>
      <trkpt lat="45.93844" lon="4.78039">
        <ele>182</ele>
        <time>2018-08-28T08:33:47Z</time>
      </trkpt>
      <trkpt lat="45.93843" lon="4.78046">
        <ele>182</ele>
        <time>2018-08-28T08:33:48Z</time>
      </trkpt>
      <trkpt lat="45.93842" lon="4.78058">
        <ele>182</ele>
        <time>2018-08-28T08:33:50Z</time>
      </trkpt>
      <trkpt lat="45.93841" lon="4.78064">
        <ele>182</ele>
        <time>2018-08-28T08:33:51Z</time>
      </trkpt>
      <trkpt lat="45.93838" lon="4.78076">
        <ele>181</ele>
        <time>2018-08-28T08:33:53Z</time>
      </trkpt>
      <trkpt lat="45.93836" lon="4.78084">
        <ele>181</ele>
        <time>2018-08-28T08:33:54Z</time>
      </trkpt>
      <trkpt lat="45.93833" lon="4.78091">
        <ele>180</ele>
        <time>2018-08-28T08:33:55Z</time>
      </trkpt>
      <trkpt lat="45.93831" lon="4.78097">
        <ele>180</ele>
        <time>2018-08-28T08:33:56Z</time>
      </trkpt>
      <trkpt lat="45.93829" lon="4.78105">
        <ele>179</ele>
        <time>2018-08-28T08:33:57Z</time>
      </trkpt>
      <trkpt lat="45.93827" lon="4.78112">
        <ele>179</ele>
        <time>2018-08-28T08:33:58Z</time>
      </trkpt>
      <trkpt lat="45.93826" lon="4.78119">
        <ele>179</ele>
        <time>2018-08-28T08:33:59Z</time>
      </trkpt>
      <trkpt lat="45.93826" lon="4.78127">
        <ele>180</ele>
        <time>2018-08-28T08:34:00Z</time>
      </trkpt>
      <trkpt lat="45.93825" lon="4.78133">
        <ele>180</ele>
        <time>2018-08-28T08:34:01Z</time>
      </trkpt>
      <trkpt lat="45.93824" lon="4.7814">
        <ele>180</ele>
        <time>2018-08-28T08:34:02Z</time>
      </trkpt>
      <trkpt lat="45.93822" lon="4.78146">
        <ele>180</ele>
        <time>2018-08-28T08:34:03Z</time>
      </trkpt>
      <trkpt lat="45.9382" lon="4.78152">
        <ele>180</ele>
        <time>2018-08-28T08:34:04Z</time>
      </trkpt>
      <trkpt lat="45.93818" lon="4.78158">
        <ele>180</ele>
        <time>2018-08-28T08:34:05Z</time>
      </trkpt>
      <trkpt lat="45.93816" lon="4.78167">
        <ele>180</ele>
        <time>2018-08-28T08:34:06Z</time>
      </trkpt>
      <trkpt lat="45.93815" lon="4.78173">
        <ele>182</ele>
        <time>2018-08-28T08:34:07Z</time>
      </trkpt>
      <trkpt lat="45.93813" lon="4.7818">
        <ele>182</ele>
        <time>2018-08-28T08:34:08Z</time>
      </trkpt>
      <trkpt lat="45.93811" lon="4.78192">
        <ele>182</ele>
        <time>2018-08-28T08:34:10Z</time>
      </trkpt>
      <trkpt lat="45.93811" lon="4.782">
        <ele>182</ele>
        <time>2018-08-28T08:34:11Z</time>
      </trkpt>
      <trkpt lat="45.93809" lon="4.78206">
        <ele>182</ele>
        <time>2018-08-28T08:34:12Z</time>
      </trkpt>
      <trkpt lat="45.93807" lon="4.78213">
        <ele>182</ele>
        <time>2018-08-28T08:34:13Z</time>
      </trkpt>
      <trkpt lat="45.93804" lon="4.78217">
        <ele>182</ele>
        <time>2018-08-28T08:34:14Z</time>
      </trkpt>
      <trkpt lat="45.93802" lon="4.78224">
        <ele>182</ele>
        <time>2018-08-28T08:34:15Z</time>
      </trkpt>
      <trkpt lat="45.93795" lon="4.78232">
        <ele>182</ele>
        <time>2018-08-28T08:34:17Z</time>
      </trkpt>
      <trkpt lat="45.93791" lon="4.78237">
        <ele>182</ele>
        <time>2018-08-28T08:34:18Z</time>
      </trkpt>
      <trkpt lat="45.93788" lon="4.78244">
        <ele>182</ele>
        <time>2018-08-28T08:34:19Z</time>
      </trkpt>
      <trkpt lat="45.93788" lon="4.78252">
        <ele>183</ele>
        <time>2018-08-28T08:34:20Z</time>
      </trkpt>
      <trkpt lat="45.93787" lon="4.7826">
        <ele>183</ele>
        <time>2018-08-28T08:34:21Z</time>
      </trkpt>
      <trkpt lat="45.93787" lon="4.78266">
        <ele>183</ele>
        <time>2018-08-28T08:34:22Z</time>
      </trkpt>
      <trkpt lat="45.93786" lon="4.78274">
        <ele>183</ele>
        <time>2018-08-28T08:34:23Z</time>
      </trkpt>
      <trkpt lat="45.93784" lon="4.78282">
        <ele>183</ele>
        <time>2018-08-28T08:34:24Z</time>
      </trkpt>
      <trkpt lat="45.93781" lon="4.7829">
        <ele>183</ele>
        <time>2018-08-28T08:34:25Z</time>
      </trkpt>
      <trkpt lat="45.93779" lon="4.78299">
        <ele>183</ele>
        <time>2018-08-28T08:34:26Z</time>
      </trkpt>
      <trkpt lat="45.93777" lon="4.78307">
        <ele>183</ele>
        <time>2018-08-28T08:34:27Z</time>
      </trkpt>
      <trkpt lat="45.93774" lon="4.78313">
        <ele>183</ele>
        <time>2018-08-28T08:34:28Z</time>
      </trkpt>
      <trkpt lat="45.93773" lon="4.78321">
        <ele>183</ele>
        <time>2018-08-28T08:34:29Z</time>
      </trkpt>
      <trkpt lat="45.93771" lon="4.78329">
        <ele>183</ele>
        <time>2018-08-28T08:34:30Z</time>
      </trkpt>
      <trkpt lat="45.93769" lon="4.78336">
        <ele>183</ele>
        <time>2018-08-28T08:34:31Z</time>
      </trkpt>
      <trkpt lat="45.93767" lon="4.78342">
        <ele>183</ele>
        <time>2018-08-28T08:34:32Z</time>
      </trkpt>
      <trkpt lat="45.93764" lon="4.78347">
        <ele>183</ele>
        <time>2018-08-28T08:34:33Z</time>
      </trkpt>
      <trkpt lat="45.93763" lon="4.78355">
        <ele>183</ele>
        <time>2018-08-28T08:34:34Z</time>
      </trkpt>
      <trkpt lat="45.93761" lon="4.78362">
        <ele>183</ele>
        <time>2018-08-28T08:34:35Z</time>
      </trkpt>
      <trkpt lat="45.9376" lon="4.7837">
        <ele>183</ele>
        <time>2018-08-28T08:34:36Z</time>
      </trkpt>
      <trkpt lat="45.93758" lon="4.78377">
        <ele>183</ele>
        <time>2018-08-28T08:34:37Z</time>
      </trkpt>
      <trkpt lat="45.93755" lon="4.78386">
        <ele>183</ele>
        <time>2018-08-28T08:34:38Z</time>
      </trkpt>
      <trkpt lat="45.93753" lon="4.78394">
        <ele>183</ele>
        <time>2018-08-28T08:34:39Z</time>
      </trkpt>
      <trkpt lat="45.9375" lon="4.78399">
        <ele>182</ele>
        <time>2018-08-28T08:34:40Z</time>
      </trkpt>
      <trkpt lat="45.93746" lon="4.78405">
        <ele>181</ele>
        <time>2018-08-28T08:34:41Z</time>
      </trkpt>
      <trkpt lat="45.93745" lon="4.78413">
        <ele>181</ele>
        <time>2018-08-28T08:34:42Z</time>
      </trkpt>
      <trkpt lat="45.93743" lon="4.78422">
        <ele>181</ele>
        <time>2018-08-28T08:34:43Z</time>
      </trkpt>
      <trkpt lat="45.93742" lon="4.78431">
        <ele>180</ele>
        <time>2018-08-28T08:34:44Z</time>
      </trkpt>
      <trkpt lat="45.93741" lon="4.78439">
        <ele>180</ele>
        <time>2018-08-28T08:34:45Z</time>
      </trkpt>
      <trkpt lat="45.9374" lon="4.78447">
        <ele>180</ele>
        <time>2018-08-28T08:34:46Z</time>
      </trkpt>
      <trkpt lat="45.93739" lon="4.78456">
        <ele>180</ele>
        <time>2018-08-28T08:34:47Z</time>
      </trkpt>
      <trkpt lat="45.93737" lon="4.78466">
        <ele>180</ele>
        <time>2018-08-28T08:34:48Z</time>
      </trkpt>
      <trkpt lat="45.93733" lon="4.78472">
        <ele>180</ele>
        <time>2018-08-28T08:34:49Z</time>
      </trkpt>
      <trkpt lat="45.93732" lon="4.78481">
        <ele>180</ele>
        <time>2018-08-28T08:34:50Z</time>
      </trkpt>
      <trkpt lat="45.93729" lon="4.78489">
        <ele>180</ele>
        <time>2018-08-28T08:34:51Z</time>
      </trkpt>
      <trkpt lat="45.93727" lon="4.78497">
        <ele>180</ele>
        <time>2018-08-28T08:34:52Z</time>
      </trkpt>
      <trkpt lat="45.93724" lon="4.78506">
        <ele>179</ele>
        <time>2018-08-28T08:34:53Z</time>
      </trkpt>
      <trkpt lat="45.93722" lon="4.78514">
        <ele>179</ele>
        <time>2018-08-28T08:34:54Z</time>
      </trkpt>
      <trkpt lat="45.9372" lon="4.78522">
        <ele>178</ele>
        <time>2018-08-28T08:34:55Z</time>
      </trkpt>
      <trkpt lat="45.93717" lon="4.78532">
        <ele>178</ele>
        <time>2018-08-28T08:34:56Z</time>
      </trkpt>
      <trkpt lat="45.93716" lon="4.78543">
        <ele>178</ele>
        <time>2018-08-28T08:34:57Z</time>
      </trkpt>
      <trkpt lat="45.93715" lon="4.78551">
        <ele>178</ele>
        <time>2018-08-28T08:34:58Z</time>
      </trkpt>
      <trkpt lat="45.93714" lon="4.78561">
        <ele>178</ele>
        <time>2018-08-28T08:34:59Z</time>
      </trkpt>
      <trkpt lat="45.93713" lon="4.78572">
        <ele>178</ele>
        <time>2018-08-28T08:35:00Z</time>
      </trkpt>
      <trkpt lat="45.93711" lon="4.7858">
        <ele>177</ele>
        <time>2018-08-28T08:35:01Z</time>
      </trkpt>
      <trkpt lat="45.93709" lon="4.78589">
        <ele>176</ele>
        <time>2018-08-28T08:35:02Z</time>
      </trkpt>
      <trkpt lat="45.93707" lon="4.78598">
        <ele>176</ele>
        <time>2018-08-28T08:35:03Z</time>
      </trkpt>
      <trkpt lat="45.93704" lon="4.78605">
        <ele>176</ele>
        <time>2018-08-28T08:35:04Z</time>
      </trkpt>
      <trkpt lat="45.93702" lon="4.78613">
        <ele>176</ele>
        <time>2018-08-28T08:35:05Z</time>
      </trkpt>
      <trkpt lat="45.93699" lon="4.78621">
        <ele>176</ele>
        <time>2018-08-28T08:35:06Z</time>
      </trkpt>
      <trkpt lat="45.93696" lon="4.7863">
        <ele>176</ele>
        <time>2018-08-28T08:35:07Z</time>
      </trkpt>
      <trkpt lat="45.93692" lon="4.78637">
        <ele>176</ele>
        <time>2018-08-28T08:35:08Z</time>
      </trkpt>
      <trkpt lat="45.93687" lon="4.78645">
        <ele>176</ele>
        <time>2018-08-28T08:35:09Z</time>
      </trkpt>
      <trkpt lat="45.93685" lon="4.78654">
        <ele>175</ele>
        <time>2018-08-28T08:35:10Z</time>
      </trkpt>
      <trkpt lat="45.93681" lon="4.78662">
        <ele>175</ele>
        <time>2018-08-28T08:35:11Z</time>
      </trkpt>
      <trkpt lat="45.93678" lon="4.78671">
        <ele>175</ele>
        <time>2018-08-28T08:35:12Z</time>
      </trkpt>
      <trkpt lat="45.93675" lon="4.7868">
        <ele>175</ele>
        <time>2018-08-28T08:35:13Z</time>
      </trkpt>
      <trkpt lat="45.93672" lon="4.78688">
        <ele>175</ele>
        <time>2018-08-28T08:35:14Z</time>
      </trkpt>
      <trkpt lat="45.93668" lon="4.78696">
        <ele>175</ele>
        <time>2018-08-28T08:35:15Z</time>
      </trkpt>
      <trkpt lat="45.93664" lon="4.78702">
        <ele>173</ele>
        <time>2018-08-28T08:35:16Z</time>
      </trkpt>
      <trkpt lat="45.93661" lon="4.78709">
        <ele>173</ele>
        <time>2018-08-28T08:35:17Z</time>
      </trkpt>
      <trkpt lat="45.93658" lon="4.78716">
        <ele>173</ele>
        <time>2018-08-28T08:35:18Z</time>
      </trkpt>
      <trkpt lat="45.93654" lon="4.78724">
        <ele>173</ele>
        <time>2018-08-28T08:35:19Z</time>
      </trkpt>
      <trkpt lat="45.93649" lon="4.78733">
        <ele>174</ele>
        <time>2018-08-28T08:35:20Z</time>
      </trkpt>
      <trkpt lat="45.93646" lon="4.78741">
        <ele>174</ele>
        <time>2018-08-28T08:35:21Z</time>
      </trkpt>
      <trkpt lat="45.93644" lon="4.78749">
        <ele>174</ele>
        <time>2018-08-28T08:35:22Z</time>
      </trkpt>
      <trkpt lat="45.9364" lon="4.78755">
        <ele>174</ele>
        <time>2018-08-28T08:35:23Z</time>
      </trkpt>
      <trkpt lat="45.93637" lon="4.78763">
        <ele>174</ele>
        <time>2018-08-28T08:35:24Z</time>
      </trkpt>
      <trkpt lat="45.93632" lon="4.7877">
        <ele>174</ele>
        <time>2018-08-28T08:35:25Z</time>
      </trkpt>
      <trkpt lat="45.93629" lon="4.78779">
        <ele>174</ele>
        <time>2018-08-28T08:35:26Z</time>
      </trkpt>
      <trkpt lat="45.93626" lon="4.78786">
        <ele>173</ele>
        <time>2018-08-28T08:35:27Z</time>
      </trkpt>
      <trkpt lat="45.93622" lon="4.78794">
        <ele>173</ele>
        <time>2018-08-28T08:35:28Z</time>
      </trkpt>
      <trkpt lat="45.93619" lon="4.78803">
        <ele>173</ele>
        <time>2018-08-28T08:35:29Z</time>
      </trkpt>
      <trkpt lat="45.93616" lon="4.78808">
        <ele>173</ele>
        <time>2018-08-28T08:35:30Z</time>
      </trkpt>
      <trkpt lat="45.93613" lon="4.78814">
        <ele>173</ele>
        <time>2018-08-28T08:35:31Z</time>
      </trkpt>
      <trkpt lat="45.9361" lon="4.78821">
        <ele>173</ele>
        <time>2018-08-28T08:35:32Z</time>
      </trkpt>
      <trkpt lat="45.93606" lon="4.78829">
        <ele>173</ele>
        <time>2018-08-28T08:35:33Z</time>
      </trkpt>
      <trkpt lat="45.93604" lon="4.78838">
        <ele>174</ele>
        <time>2018-08-28T08:35:34Z</time>
      </trkpt>
      <trkpt lat="45.93602" lon="4.78845">
        <ele>174</ele>
        <time>2018-08-28T08:35:35Z</time>
      </trkpt>
      <trkpt lat="45.93597" lon="4.78854">
        <ele>174</ele>
        <time>2018-08-28T08:35:36Z</time>
      </trkpt>
      <trkpt lat="45.93596" lon="4.78862">
        <ele>174</ele>
        <time>2018-08-28T08:35:37Z</time>
      </trkpt>
      <trkpt lat="45.93592" lon="4.7887">
        <ele>174</ele>
        <time>2018-08-28T08:35:38Z</time>
      </trkpt>
      <trkpt lat="45.9359" lon="4.78878">
        <ele>173</ele>
        <time>2018-08-28T08:35:39Z</time>
      </trkpt>
      <trkpt lat="45.93586" lon="4.78887">
        <ele>173</ele>
        <time>2018-08-28T08:35:40Z</time>
      </trkpt>
      <trkpt lat="45.93584" lon="4.78895">
        <ele>173</ele>
        <time>2018-08-28T08:35:41Z</time>
      </trkpt>
      <trkpt lat="45.93581" lon="4.78904">
        <ele>172</ele>
        <time>2018-08-28T08:35:42Z</time>
      </trkpt>
      <trkpt lat="45.93577" lon="4.78911">
        <ele>172</ele>
        <time>2018-08-28T08:35:43Z</time>
      </trkpt>
      <trkpt lat="45.93573" lon="4.78917">
        <ele>172</ele>
        <time>2018-08-28T08:35:44Z</time>
      </trkpt>
      <trkpt lat="45.9357" lon="4.78924">
        <ele>172</ele>
        <time>2018-08-28T08:35:45Z</time>
      </trkpt>
      <trkpt lat="45.93566" lon="4.78931">
        <ele>172</ele>
        <time>2018-08-28T08:35:46Z</time>
      </trkpt>
      <trkpt lat="45.93562" lon="4.78937">
        <ele>172</ele>
        <time>2018-08-28T08:35:47Z</time>
      </trkpt>
      <trkpt lat="45.9356" lon="4.78943">
        <ele>172</ele>
        <time>2018-08-28T08:35:48Z</time>
      </trkpt>
      <trkpt lat="45.93556" lon="4.78949">
        <ele>172</ele>
        <time>2018-08-28T08:35:49Z</time>
      </trkpt>
      <trkpt lat="45.93552" lon="4.78955">
        <ele>172</ele>
        <time>2018-08-28T08:35:50Z</time>
      </trkpt>
      <trkpt lat="45.93545" lon="4.78958">
        <ele>172</ele>
        <time>2018-08-28T08:35:51Z</time>
      </trkpt>
      <trkpt lat="45.9354" lon="4.7896">
        <ele>172</ele>
        <time>2018-08-28T08:35:52Z</time>
      </trkpt>
      <trkpt lat="45.93536" lon="4.78963">
        <ele>172</ele>
        <time>2018-08-28T08:35:53Z</time>
      </trkpt>
      <trkpt lat="45.93531" lon="4.78968">
        <ele>172</ele>
        <time>2018-08-28T08:35:54Z</time>
      </trkpt>
      <trkpt lat="45.9353" lon="4.78977">
        <ele>172</ele>
        <time>2018-08-28T08:35:55Z</time>
      </trkpt>
      <trkpt lat="45.93529" lon="4.78987">
        <ele>172</ele>
        <time>2018-08-28T08:35:56Z</time>
      </trkpt>
      <trkpt lat="45.93529" lon="4.78995">
        <ele>172</ele>
        <time>2018-08-28T08:35:57Z</time>
      </trkpt>
      <trkpt lat="45.93528" lon="4.79002">
        <ele>172</ele>
        <time>2018-08-28T08:35:58Z</time>
      </trkpt>
      <trkpt lat="45.93527" lon="4.79011">
        <ele>172</ele>
        <time>2018-08-28T08:35:59Z</time>
      </trkpt>
      <trkpt lat="45.93523" lon="4.79019">
        <ele>172</ele>
        <time>2018-08-28T08:36:00Z</time>
      </trkpt>
      <trkpt lat="45.9352" lon="4.79027">
        <ele>173</ele>
        <time>2018-08-28T08:36:01Z</time>
      </trkpt>
      <trkpt lat="45.93517" lon="4.79036">
        <ele>173</ele>
        <time>2018-08-28T08:36:02Z</time>
      </trkpt>
      <trkpt lat="45.93514" lon="4.79044">
        <ele>173</ele>
        <time>2018-08-28T08:36:03Z</time>
      </trkpt>
      <trkpt lat="45.9351" lon="4.79051">
        <ele>173</ele>
        <time>2018-08-28T08:36:04Z</time>
      </trkpt>
      <trkpt lat="45.93505" lon="4.79058">
        <ele>173</ele>
        <time>2018-08-28T08:36:05Z</time>
      </trkpt>
      <trkpt lat="45.93501" lon="4.79065">
        <ele>173</ele>
        <time>2018-08-28T08:36:06Z</time>
      </trkpt>
      <trkpt lat="45.93498" lon="4.79072">
        <ele>172</ele>
        <time>2018-08-28T08:36:07Z</time>
      </trkpt>
      <trkpt lat="45.93495" lon="4.79079">
        <ele>172</ele>
        <time>2018-08-28T08:36:08Z</time>
      </trkpt>
      <trkpt lat="45.93492" lon="4.79086">
        <ele>173</ele>
        <time>2018-08-28T08:36:09Z</time>
      </trkpt>
      <trkpt lat="45.93489" lon="4.79094">
        <ele>173</ele>
        <time>2018-08-28T08:36:10Z</time>
      </trkpt>
      <trkpt lat="45.93486" lon="4.79102">
        <ele>172</ele>
        <time>2018-08-28T08:36:11Z</time>
      </trkpt>
      <trkpt lat="45.93483" lon="4.7911">
        <ele>172</ele>
        <time>2018-08-28T08:36:12Z</time>
      </trkpt>
      <trkpt lat="45.93481" lon="4.79114">
        <ele>172</ele>
        <time>2018-08-28T08:36:13Z</time>
      </trkpt>
      <trkpt lat="45.93478" lon="4.79122">
        <ele>172</ele>
        <time>2018-08-28T08:36:14Z</time>
      </trkpt>
      <trkpt lat="45.93476" lon="4.7913">
        <ele>172</ele>
        <time>2018-08-28T08:36:15Z</time>
      </trkpt>
      <trkpt lat="45.93477" lon="4.79139">
        <ele>172</ele>
        <time>2018-08-28T08:36:16Z</time>
      </trkpt>
      <trkpt lat="45.93473" lon="4.79147">
        <ele>172</ele>
        <time>2018-08-28T08:36:17Z</time>
      </trkpt>
      <trkpt lat="45.93471" lon="4.79156">
        <ele>172</ele>
        <time>2018-08-28T08:36:18Z</time>
      </trkpt>
      <trkpt lat="45.93468" lon="4.79165">
        <ele>172</ele>
        <time>2018-08-28T08:36:19Z</time>
      </trkpt>
      <trkpt lat="45.93465" lon="4.79172">
        <ele>172</ele>
        <time>2018-08-28T08:36:20Z</time>
      </trkpt>
      <trkpt lat="45.93463" lon="4.7918">
        <ele>172</ele>
        <time>2018-08-28T08:36:21Z</time>
      </trkpt>
      <trkpt lat="45.9346" lon="4.79187">
        <ele>172</ele>
        <time>2018-08-28T08:36:22Z</time>
      </trkpt>
      <trkpt lat="45.93458" lon="4.79195">
        <ele>172</ele>
        <time>2018-08-28T08:36:23Z</time>
      </trkpt>
      <trkpt lat="45.93455" lon="4.792">
        <ele>172</ele>
        <time>2018-08-28T08:36:24Z</time>
      </trkpt>
      <trkpt lat="45.93452" lon="4.79206">
        <ele>172</ele>
        <time>2018-08-28T08:36:25Z</time>
      </trkpt>
      <trkpt lat="45.93449" lon="4.79214">
        <ele>172</ele>
        <time>2018-08-28T08:36:26Z</time>
      </trkpt>
      <trkpt lat="45.93446" lon="4.79222">
        <ele>172</ele>
        <time>2018-08-28T08:36:27Z</time>
      </trkpt>
      <trkpt lat="45.93445" lon="4.7923">
        <ele>172</ele>
        <time>2018-08-28T08:36:28Z</time>
      </trkpt>
      <trkpt lat="45.93442" lon="4.79238">
        <ele>172</ele>
        <time>2018-08-28T08:36:29Z</time>
      </trkpt>
      <trkpt lat="45.93439" lon="4.79245">
        <ele>172</ele>
        <time>2018-08-28T08:36:30Z</time>
      </trkpt>
      <trkpt lat="45.93437" lon="4.79253">
        <ele>172</ele>
        <time>2018-08-28T08:36:31Z</time>
      </trkpt>
      <trkpt lat="45.93434" lon="4.79261">
        <ele>172</ele>
        <time>2018-08-28T08:36:32Z</time>
      </trkpt>
      <trkpt lat="45.93433" lon="4.79267">
        <ele>172</ele>
        <time>2018-08-28T08:36:33Z</time>
      </trkpt>
      <trkpt lat="45.9343" lon="4.79276">
        <ele>172</ele>
        <time>2018-08-28T08:36:34Z</time>
      </trkpt>
      <trkpt lat="45.93428" lon="4.79282">
        <ele>172</ele>
        <time>2018-08-28T08:36:35Z</time>
      </trkpt>
      <trkpt lat="45.93426" lon="4.7929">
        <ele>172</ele>
        <time>2018-08-28T08:36:36Z</time>
      </trkpt>
      <trkpt lat="45.93423" lon="4.79295">
        <ele>172</ele>
        <time>2018-08-28T08:36:37Z</time>
      </trkpt>
      <trkpt lat="45.9342" lon="4.79303">
        <ele>172</ele>
        <time>2018-08-28T08:36:38Z</time>
      </trkpt>
      <trkpt lat="45.93417" lon="4.79309">
        <ele>171</ele>
        <time>2018-08-28T08:36:39Z</time>
      </trkpt>
      <trkpt lat="45.93413" lon="4.79313">
        <ele>171</ele>
        <time>2018-08-28T08:36:40Z</time>
      </trkpt>
      <trkpt lat="45.93413" lon="4.79321">
        <ele>172</ele>
        <time>2018-08-28T08:36:41Z</time>
      </trkpt>
      <trkpt lat="45.93409" lon="4.79327">
        <ele>172</ele>
        <time>2018-08-28T08:36:42Z</time>
      </trkpt>
      <trkpt lat="45.93405" lon="4.79334">
        <ele>172</ele>
        <time>2018-08-28T08:36:43Z</time>
      </trkpt>
      <trkpt lat="45.93403" lon="4.79342">
        <ele>172</ele>
        <time>2018-08-28T08:36:44Z</time>
      </trkpt>
      <trkpt lat="45.934" lon="4.79349">
        <ele>172</ele>
        <time>2018-08-28T08:36:45Z</time>
      </trkpt>
      <trkpt lat="45.93398" lon="4.79357">
        <ele>172</ele>
        <time>2018-08-28T08:36:46Z</time>
      </trkpt>
      <trkpt lat="45.93395" lon="4.79364">
        <ele>172</ele>
        <time>2018-08-28T08:36:47Z</time>
      </trkpt>
      <trkpt lat="45.93395" lon="4.7937">
        <ele>172</ele>
        <time>2018-08-28T08:36:48Z</time>
      </trkpt>
      <trkpt lat="45.93393" lon="4.79376">
        <ele>172</ele>
        <time>2018-08-28T08:36:49Z</time>
      </trkpt>
      <trkpt lat="45.93391" lon="4.79386">
        <ele>172</ele>
        <time>2018-08-28T08:36:50Z</time>
      </trkpt>
      <trkpt lat="45.93389" lon="4.79395">
        <ele>172</ele>
        <time>2018-08-28T08:36:51Z</time>
      </trkpt>
      <trkpt lat="45.93384" lon="4.79401">
        <ele>172</ele>
        <time>2018-08-28T08:36:52Z</time>
      </trkpt>
      <trkpt lat="45.93381" lon="4.79408">
        <ele>172</ele>
        <time>2018-08-28T08:36:53Z</time>
      </trkpt>
      <trkpt lat="45.93378" lon="4.79416">
        <ele>172</ele>
        <time>2018-08-28T08:36:54Z</time>
      </trkpt>
      <trkpt lat="45.93377" lon="4.79424">
        <ele>174</ele>
        <time>2018-08-28T08:36:55Z</time>
      </trkpt>
      <trkpt lat="45.93373" lon="4.7943">
        <ele>174</ele>
        <time>2018-08-28T08:36:56Z</time>
      </trkpt>
      <trkpt lat="45.9337" lon="4.79439">
        <ele>174</ele>
        <time>2018-08-28T08:36:57Z</time>
      </trkpt>
      <trkpt lat="45.93367" lon="4.79446">
        <ele>175</ele>
        <time>2018-08-28T08:36:58Z</time>
      </trkpt>
      <trkpt lat="45.93368" lon="4.79456">
        <ele>175</ele>
        <time>2018-08-28T08:36:59Z</time>
      </trkpt>
      <trkpt lat="45.93366" lon="4.79463">
        <ele>175</ele>
        <time>2018-08-28T08:37:00Z</time>
      </trkpt>
      <trkpt lat="45.93362" lon="4.79469">
        <ele>175</ele>
        <time>2018-08-28T08:37:01Z</time>
      </trkpt>
      <trkpt lat="45.93359" lon="4.79473">
        <ele>175</ele>
        <time>2018-08-28T08:37:02Z</time>
      </trkpt>
      <trkpt lat="45.93357" lon="4.79482">
        <ele>175</ele>
        <time>2018-08-28T08:37:03Z</time>
      </trkpt>
      <trkpt lat="45.93355" lon="4.79487">
        <ele>175</ele>
        <time>2018-08-28T08:37:04Z</time>
      </trkpt>
      <trkpt lat="45.93355" lon="4.79496">
        <ele>176</ele>
        <time>2018-08-28T08:37:05Z</time>
      </trkpt>
      <trkpt lat="45.93353" lon="4.79504">
        <ele>177</ele>
        <time>2018-08-28T08:37:06Z</time>
      </trkpt>
      <trkpt lat="45.9335" lon="4.79511">
        <ele>177</ele>
        <time>2018-08-28T08:37:07Z</time>
      </trkpt>
      <trkpt lat="45.93347" lon="4.79516">
        <ele>177</ele>
        <time>2018-08-28T08:37:08Z</time>
      </trkpt>
      <trkpt lat="45.93345" lon="4.79522">
        <ele>177</ele>
        <time>2018-08-28T08:37:09Z</time>
      </trkpt>
      <trkpt lat="45.93346" lon="4.79532">
        <ele>177</ele>
        <time>2018-08-28T08:37:10Z</time>
      </trkpt>
      <trkpt lat="45.93346" lon="4.79541">
        <ele>177</ele>
        <time>2018-08-28T08:37:11Z</time>
      </trkpt>
      <trkpt lat="45.93343" lon="4.79547">
        <ele>177</ele>
        <time>2018-08-28T08:37:12Z</time>
      </trkpt>
      <trkpt lat="45.93341" lon="4.79554">
        <ele>177</ele>
        <time>2018-08-28T08:37:13Z</time>
      </trkpt>
      <trkpt lat="45.93338" lon="4.79562">
        <ele>177</ele>
        <time>2018-08-28T08:37:14Z</time>
      </trkpt>
      <trkpt lat="45.93335" lon="4.79568">
        <ele>177</ele>
        <time>2018-08-28T08:37:15Z</time>
      </trkpt>
      <trkpt lat="45.93332" lon="4.79578">
        <ele>177</ele>
        <time>2018-08-28T08:37:16Z</time>
      </trkpt>
      <trkpt lat="45.93328" lon="4.79587">
        <ele>177</ele>
        <time>2018-08-28T08:37:17Z</time>
      </trkpt>
      <trkpt lat="45.93323" lon="4.79595">
        <ele>177</ele>
        <time>2018-08-28T08:37:18Z</time>
      </trkpt>
      <trkpt lat="45.93321" lon="4.79602">
        <ele>177</ele>
        <time>2018-08-28T08:37:19Z</time>
      </trkpt>
      <trkpt lat="45.93317" lon="4.7961">
        <ele>177</ele>
        <time>2018-08-28T08:37:20Z</time>
      </trkpt>
      <trkpt lat="45.93314" lon="4.79617">
        <ele>177</ele>
        <time>2018-08-28T08:37:21Z</time>
      </trkpt>
      <trkpt lat="45.93311" lon="4.79622">
        <ele>177</ele>
        <time>2018-08-28T08:37:22Z</time>
      </trkpt>
      <trkpt lat="45.93308" lon="4.79629">
        <ele>177</ele>
        <time>2018-08-28T08:37:23Z</time>
      </trkpt>
      <trkpt lat="45.93306" lon="4.79636">
        <ele>177</ele>
        <time>2018-08-28T08:37:24Z</time>
      </trkpt>
      <trkpt lat="45.93304" lon="4.79642">
        <ele>177</ele>
        <time>2018-08-28T08:37:25Z</time>
      </trkpt>
      <trkpt lat="45.93302" lon="4.79649">
        <ele>177</ele>
        <time>2018-08-28T08:37:26Z</time>
      </trkpt>
      <trkpt lat="45.933" lon="4.79656">
        <ele>177</ele>
        <time>2018-08-28T08:37:27Z</time>
      </trkpt>
      <trkpt lat="45.93297" lon="4.79663">
        <ele>177</ele>
        <time>2018-08-28T08:37:28Z</time>
      </trkpt>
      <trkpt lat="45.93295" lon="4.7967">
        <ele>177</ele>
        <time>2018-08-28T08:37:29Z</time>
      </trkpt>
      <trkpt lat="45.93292" lon="4.79679">
        <ele>177</ele>
        <time>2018-08-28T08:37:30Z</time>
      </trkpt>
      <trkpt lat="45.93289" lon="4.79687">
        <ele>177</ele>
        <time>2018-08-28T08:37:31Z</time>
      </trkpt>
      <trkpt lat="45.93286" lon="4.79696">
        <ele>177</ele>
        <time>2018-08-28T08:37:32Z</time>
      </trkpt>
      <trkpt lat="45.93283" lon="4.79704">
        <ele>177</ele>
        <time>2018-08-28T08:37:33Z</time>
      </trkpt>
      <trkpt lat="45.9328" lon="4.79713">
        <ele>177</ele>
        <time>2018-08-28T08:37:34Z</time>
      </trkpt>
      <trkpt lat="45.93282" lon="4.79726">
        <ele>177</ele>
        <time>2018-08-28T08:37:35Z</time>
      </trkpt>
      <trkpt lat="45.9328" lon="4.79734">
        <ele>177</ele>
        <time>2018-08-28T08:37:36Z</time>
      </trkpt>
      <trkpt lat="45.93276" lon="4.79744">
        <ele>177</ele>
        <time>2018-08-28T08:37:37Z</time>
      </trkpt>
      <trkpt lat="45.93273" lon="4.79753">
        <ele>176</ele>
        <time>2018-08-28T08:37:38Z</time>
      </trkpt>
      <trkpt lat="45.93271" lon="4.79762">
        <ele>176</ele>
        <time>2018-08-28T08:37:39Z</time>
      </trkpt>
      <trkpt lat="45.93268" lon="4.7977">
        <ele>175</ele>
        <time>2018-08-28T08:37:40Z</time>
      </trkpt>
      <trkpt lat="45.93266" lon="4.7978">
        <ele>175</ele>
        <time>2018-08-28T08:37:41Z</time>
      </trkpt>
      <trkpt lat="45.93264" lon="4.79788">
        <ele>175</ele>
        <time>2018-08-28T08:37:42Z</time>
      </trkpt>
      <trkpt lat="45.9326" lon="4.79797">
        <ele>175</ele>
        <time>2018-08-28T08:37:43Z</time>
      </trkpt>
      <trkpt lat="45.93256" lon="4.79806">
        <ele>174</ele>
        <time>2018-08-28T08:37:44Z</time>
      </trkpt>
      <trkpt lat="45.93253" lon="4.79815">
        <ele>174</ele>
        <time>2018-08-28T08:37:45Z</time>
      </trkpt>
      <trkpt lat="45.93249" lon="4.79824">
        <ele>174</ele>
        <time>2018-08-28T08:37:46Z</time>
      </trkpt>
      <trkpt lat="45.93246" lon="4.79833">
        <ele>174</ele>
        <time>2018-08-28T08:37:47Z</time>
      </trkpt>
      <trkpt lat="45.93243" lon="4.79842">
        <ele>173</ele>
        <time>2018-08-28T08:37:48Z</time>
      </trkpt>
      <trkpt lat="45.93239" lon="4.79852">
        <ele>173</ele>
        <time>2018-08-28T08:37:49Z</time>
      </trkpt>
      <trkpt lat="45.93235" lon="4.79861">
        <ele>172</ele>
        <time>2018-08-28T08:37:50Z</time>
      </trkpt>
      <trkpt lat="45.9323" lon="4.7987">
        <ele>172</ele>
        <time>2018-08-28T08:37:51Z</time>
      </trkpt>
      <trkpt lat="45.93226" lon="4.79879">
        <ele>172</ele>
        <time>2018-08-28T08:37:52Z</time>
      </trkpt>
      <trkpt lat="45.93221" lon="4.79887">
        <ele>172</ele>
        <time>2018-08-28T08:37:53Z</time>
      </trkpt>
      <trkpt lat="45.93216" lon="4.79895">
        <ele>172</ele>
        <time>2018-08-28T08:37:54Z</time>
      </trkpt>
      <trkpt lat="45.93215" lon="4.799">
        <ele>172</ele>
        <time>2018-08-28T08:37:55Z</time>
      </trkpt>
      <trkpt lat="45.93211" lon="4.79909">
        <ele>172</ele>
        <time>2018-08-28T08:37:56Z</time>
      </trkpt>
      <trkpt lat="45.93207" lon="4.79916">
        <ele>171</ele>
        <time>2018-08-28T08:37:57Z</time>
      </trkpt>
      <trkpt lat="45.93203" lon="4.79921">
        <ele>171</ele>
        <time>2018-08-28T08:37:58Z</time>
      </trkpt>
      <trkpt lat="45.93199" lon="4.79929">
        <ele>171</ele>
        <time>2018-08-28T08:37:59Z</time>
      </trkpt>
      <trkpt lat="45.93196" lon="4.79936">
        <ele>170</ele>
        <time>2018-08-28T08:38:00Z</time>
      </trkpt>
      <trkpt lat="45.93191" lon="4.79944">
        <ele>170</ele>
        <time>2018-08-28T08:38:01Z</time>
      </trkpt>
      <trkpt lat="45.93187" lon="4.79953">
        <ele>170</ele>
        <time>2018-08-28T08:38:02Z</time>
      </trkpt>
      <trkpt lat="45.93185" lon="4.79961">
        <ele>170</ele>
        <time>2018-08-28T08:38:03Z</time>
      </trkpt>
      <trkpt lat="45.93183" lon="4.79968">
        <ele>170</ele>
        <time>2018-08-28T08:38:04Z</time>
      </trkpt>
      <trkpt lat="45.9318" lon="4.79977">
        <ele>170</ele>
        <time>2018-08-28T08:38:05Z</time>
      </trkpt>
      <trkpt lat="45.93178" lon="4.79986">
        <ele>170</ele>
        <time>2018-08-28T08:38:06Z</time>
      </trkpt>
      <trkpt lat="45.93178" lon="4.79993">
        <ele>170</ele>
        <time>2018-08-28T08:38:07Z</time>
      </trkpt>
      <trkpt lat="45.93178" lon="4.80001">
        <ele>169</ele>
        <time>2018-08-28T08:38:08Z</time>
      </trkpt>
      <trkpt lat="45.93178" lon="4.80009">
        <ele>170</ele>
        <time>2018-08-28T08:38:09Z</time>
      </trkpt>
      <trkpt lat="45.93176" lon="4.80017">
        <ele>170</ele>
        <time>2018-08-28T08:38:10Z</time>
      </trkpt>
      <trkpt lat="45.93173" lon="4.80026">
        <ele>170</ele>
        <time>2018-08-28T08:38:11Z</time>
      </trkpt>
      <trkpt lat="45.93172" lon="4.80035">
        <ele>170</ele>
        <time>2018-08-28T08:38:12Z</time>
      </trkpt>
      <trkpt lat="45.93171" lon="4.80043">
        <ele>170</ele>
        <time>2018-08-28T08:38:13Z</time>
      </trkpt>
      <trkpt lat="45.93169" lon="4.80051">
        <ele>170</ele>
        <time>2018-08-28T08:38:14Z</time>
      </trkpt>
      <trkpt lat="45.93167" lon="4.80058">
        <ele>170</ele>
        <time>2018-08-28T08:38:15Z</time>
      </trkpt>
      <trkpt lat="45.93164" lon="4.80066">
        <ele>170</ele>
        <time>2018-08-28T08:38:16Z</time>
      </trkpt>
      <trkpt lat="45.93162" lon="4.80074">
        <ele>170</ele>
        <time>2018-08-28T08:38:17Z</time>
      </trkpt>
      <trkpt lat="45.9316" lon="4.80082">
        <ele>170</ele>
        <time>2018-08-28T08:38:18Z</time>
      </trkpt>
      <trkpt lat="45.93157" lon="4.80091">
        <ele>170</ele>
        <time>2018-08-28T08:38:19Z</time>
      </trkpt>
      <trkpt lat="45.93156" lon="4.80099">
        <ele>170</ele>
        <time>2018-08-28T08:38:20Z</time>
      </trkpt>
      <trkpt lat="45.93153" lon="4.80108">
        <ele>169</ele>
        <time>2018-08-28T08:38:21Z</time>
      </trkpt>
      <trkpt lat="45.93151" lon="4.80116">
        <ele>169</ele>
        <time>2018-08-28T08:38:22Z</time>
      </trkpt>
      <trkpt lat="45.93148" lon="4.80124">
        <ele>169</ele>
        <time>2018-08-28T08:38:23Z</time>
      </trkpt>
      <trkpt lat="45.93145" lon="4.80132">
        <ele>169</ele>
        <time>2018-08-28T08:38:24Z</time>
      </trkpt>
      <trkpt lat="45.93143" lon="4.8014">
        <ele>169</ele>
        <time>2018-08-28T08:38:25Z</time>
      </trkpt>
      <trkpt lat="45.9314" lon="4.80148">
        <ele>169</ele>
        <time>2018-08-28T08:38:26Z</time>
      </trkpt>
      <trkpt lat="45.93138" lon="4.80156">
        <ele>169</ele>
        <time>2018-08-28T08:38:27Z</time>
      </trkpt>
      <trkpt lat="45.93135" lon="4.80163">
        <ele>169</ele>
        <time>2018-08-28T08:38:28Z</time>
      </trkpt>
      <trkpt lat="45.93132" lon="4.8017">
        <ele>169</ele>
        <time>2018-08-28T08:38:29Z</time>
      </trkpt>
      <trkpt lat="45.9313" lon="4.80177">
        <ele>169</ele>
        <time>2018-08-28T08:38:30Z</time>
      </trkpt>
      <trkpt lat="45.93128" lon="4.80184">
        <ele>169</ele>
        <time>2018-08-28T08:38:31Z</time>
      </trkpt>
      <trkpt lat="45.93127" lon="4.8019">
        <ele>169</ele>
        <time>2018-08-28T08:38:32Z</time>
      </trkpt>
      <trkpt lat="45.93123" lon="4.80198">
        <ele>169</ele>
        <time>2018-08-28T08:38:33Z</time>
      </trkpt>
      <trkpt lat="45.93122" lon="4.80206">
        <ele>169</ele>
        <time>2018-08-28T08:38:34Z</time>
      </trkpt>
      <trkpt lat="45.93119" lon="4.80214">
        <ele>169</ele>
        <time>2018-08-28T08:38:35Z</time>
      </trkpt>
      <trkpt lat="45.93116" lon="4.80223">
        <ele>169</ele>
        <time>2018-08-28T08:38:36Z</time>
      </trkpt>
      <trkpt lat="45.93113" lon="4.80231">
        <ele>169</ele>
        <time>2018-08-28T08:38:37Z</time>
      </trkpt>
      <trkpt lat="45.9311" lon="4.8024">
        <ele>169</ele>
        <time>2018-08-28T08:38:38Z</time>
      </trkpt>
      <trkpt lat="45.93109" lon="4.80247">
        <ele>169</ele>
        <time>2018-08-28T08:38:39Z</time>
      </trkpt>
      <trkpt lat="45.93106" lon="4.80255">
        <ele>169</ele>
        <time>2018-08-28T08:38:40Z</time>
      </trkpt>
      <trkpt lat="45.93103" lon="4.80261">
        <ele>169</ele>
        <time>2018-08-28T08:38:41Z</time>
      </trkpt>
      <trkpt lat="45.931" lon="4.80269">
        <ele>169</ele>
        <time>2018-08-28T08:38:42Z</time>
      </trkpt>
      <trkpt lat="45.93097" lon="4.80277">
        <ele>169</ele>
        <time>2018-08-28T08:38:43Z</time>
      </trkpt>
      <trkpt lat="45.93094" lon="4.80285">
        <ele>169</ele>
        <time>2018-08-28T08:38:44Z</time>
      </trkpt>
      <trkpt lat="45.9309" lon="4.80294">
        <ele>169</ele>
        <time>2018-08-28T08:38:45Z</time>
      </trkpt>
      <trkpt lat="45.93086" lon="4.80302">
        <ele>169</ele>
        <time>2018-08-28T08:38:46Z</time>
      </trkpt>
      <trkpt lat="45.93083" lon="4.8031">
        <ele>169</ele>
        <time>2018-08-28T08:38:47Z</time>
      </trkpt>
      <trkpt lat="45.9308" lon="4.80317">
        <ele>169</ele>
        <time>2018-08-28T08:38:48Z</time>
      </trkpt>
      <trkpt lat="45.93077" lon="4.80325">
        <ele>169</ele>
        <time>2018-08-28T08:38:49Z</time>
      </trkpt>
      <trkpt lat="45.93075" lon="4.80333">
        <ele>169</ele>
        <time>2018-08-28T08:38:50Z</time>
      </trkpt>
      <trkpt lat="45.93073" lon="4.80342">
        <ele>169</ele>
        <time>2018-08-28T08:38:51Z</time>
      </trkpt>
      <trkpt lat="45.93071" lon="4.80349">
        <ele>169</ele>
        <time>2018-08-28T08:38:52Z</time>
      </trkpt>
      <trkpt lat="45.93068" lon="4.80358">
        <ele>170</ele>
        <time>2018-08-28T08:38:53Z</time>
      </trkpt>
      <trkpt lat="45.93065" lon="4.80366">
        <ele>170</ele>
        <time>2018-08-28T08:38:54Z</time>
      </trkpt>
      <trkpt lat="45.93062" lon="4.80374">
        <ele>170</ele>
        <time>2018-08-28T08:38:55Z</time>
      </trkpt>
      <trkpt lat="45.93061" lon="4.80381">
        <ele>170</ele>
        <time>2018-08-28T08:38:56Z</time>
      </trkpt>
      <trkpt lat="45.93059" lon="4.80389">
        <ele>170</ele>
        <time>2018-08-28T08:38:57Z</time>
      </trkpt>
      <trkpt lat="45.93057" lon="4.80396">
        <ele>170</ele>
        <time>2018-08-28T08:38:58Z</time>
      </trkpt>
      <trkpt lat="45.93055" lon="4.80403">
        <ele>170</ele>
        <time>2018-08-28T08:38:59Z</time>
      </trkpt>
      <trkpt lat="45.93052" lon="4.80411">
        <ele>170</ele>
        <time>2018-08-28T08:39:00Z</time>
      </trkpt>
      <trkpt lat="45.9305" lon="4.80418">
        <ele>171</ele>
        <time>2018-08-28T08:39:01Z</time>
      </trkpt>
      <trkpt lat="45.93046" lon="4.80425">
        <ele>171</ele>
        <time>2018-08-28T08:39:02Z</time>
      </trkpt>
      <trkpt lat="45.93043" lon="4.80432">
        <ele>171</ele>
        <time>2018-08-28T08:39:03Z</time>
      </trkpt>
      <trkpt lat="45.9304" lon="4.80438">
        <ele>171</ele>
        <time>2018-08-28T08:39:04Z</time>
      </trkpt>
      <trkpt lat="45.93038" lon="4.80447">
        <ele>171</ele>
        <time>2018-08-28T08:39:05Z</time>
      </trkpt>
      <trkpt lat="45.93036" lon="4.80454">
        <ele>171</ele>
        <time>2018-08-28T08:39:06Z</time>
      </trkpt>
      <trkpt lat="45.93034" lon="4.80461">
        <ele>171</ele>
        <time>2018-08-28T08:39:07Z</time>
      </trkpt>
      <trkpt lat="45.93032" lon="4.80468">
        <ele>171</ele>
        <time>2018-08-28T08:39:08Z</time>
      </trkpt>
      <trkpt lat="45.9303" lon="4.80476">
        <ele>171</ele>
        <time>2018-08-28T08:39:09Z</time>
      </trkpt>
      <trkpt lat="45.93025" lon="4.80484">
        <ele>171</ele>
        <time>2018-08-28T08:39:10Z</time>
      </trkpt>
      <trkpt lat="45.93023" lon="4.80496">
        <ele>171</ele>
        <time>2018-08-28T08:39:12Z</time>
      </trkpt>
      <trkpt lat="45.9302" lon="4.80503">
        <ele>171</ele>
        <time>2018-08-28T08:39:13Z</time>
      </trkpt>
      <trkpt lat="45.93019" lon="4.8051">
        <ele>171</ele>
        <time>2018-08-28T08:39:14Z</time>
      </trkpt>
      <trkpt lat="45.93015" lon="4.80518">
        <ele>171</ele>
        <time>2018-08-28T08:39:15Z</time>
      </trkpt>
      <trkpt lat="45.93014" lon="4.80524">
        <ele>172</ele>
        <time>2018-08-28T08:39:16Z</time>
      </trkpt>
      <trkpt lat="45.93009" lon="4.80531">
        <ele>172</ele>
        <time>2018-08-28T08:39:17Z</time>
      </trkpt>
      <trkpt lat="45.93008" lon="4.80537">
        <ele>172</ele>
        <time>2018-08-28T08:39:18Z</time>
      </trkpt>
      <trkpt lat="45.93006" lon="4.80545">
        <ele>172</ele>
        <time>2018-08-28T08:39:19Z</time>
      </trkpt>
      <trkpt lat="45.93004" lon="4.80553">
        <ele>172</ele>
        <time>2018-08-28T08:39:20Z</time>
      </trkpt>
      <trkpt lat="45.93002" lon="4.8056">
        <ele>172</ele>
        <time>2018-08-28T08:39:21Z</time>
      </trkpt>
      <trkpt lat="45.92999" lon="4.80567">
        <ele>171</ele>
        <time>2018-08-28T08:39:22Z</time>
      </trkpt>
      <trkpt lat="45.92998" lon="4.80574">
        <ele>172</ele>
        <time>2018-08-28T08:39:23Z</time>
      </trkpt>
      <trkpt lat="45.92995" lon="4.8058">
        <ele>172</ele>
        <time>2018-08-28T08:39:24Z</time>
      </trkpt>
      <trkpt lat="45.92993" lon="4.80587">
        <ele>172</ele>
        <time>2018-08-28T08:39:25Z</time>
      </trkpt>
      <trkpt lat="45.9299" lon="4.80595">
        <ele>172</ele>
        <time>2018-08-28T08:39:26Z</time>
      </trkpt>
      <trkpt lat="45.92987" lon="4.80603">
        <ele>172</ele>
        <time>2018-08-28T08:39:27Z</time>
      </trkpt>
      <trkpt lat="45.92984" lon="4.80611">
        <ele>172</ele>
        <time>2018-08-28T08:39:28Z</time>
      </trkpt>
      <trkpt lat="45.9298" lon="4.80619">
        <ele>172</ele>
        <time>2018-08-28T08:39:29Z</time>
      </trkpt>
      <trkpt lat="45.92976" lon="4.80627">
        <ele>172</ele>
        <time>2018-08-28T08:39:30Z</time>
      </trkpt>
      <trkpt lat="45.92973" lon="4.80635">
        <ele>172</ele>
        <time>2018-08-28T08:39:31Z</time>
      </trkpt>
      <trkpt lat="45.92971" lon="4.80642">
        <ele>172</ele>
        <time>2018-08-28T08:39:32Z</time>
      </trkpt>
      <trkpt lat="45.92968" lon="4.80652">
        <ele>172</ele>
        <time>2018-08-28T08:39:33Z</time>
      </trkpt>
      <trkpt lat="45.92965" lon="4.80659">
        <ele>172</ele>
        <time>2018-08-28T08:39:34Z</time>
      </trkpt>
      <trkpt lat="45.92963" lon="4.80667">
        <ele>172</ele>
        <time>2018-08-28T08:39:35Z</time>
      </trkpt>
      <trkpt lat="45.9296" lon="4.80674">
        <ele>172</ele>
        <time>2018-08-28T08:39:36Z</time>
      </trkpt>
      <trkpt lat="45.92957" lon="4.80682">
        <ele>172</ele>
        <time>2018-08-28T08:39:37Z</time>
      </trkpt>
      <trkpt lat="45.92954" lon="4.8069">
        <ele>172</ele>
        <time>2018-08-28T08:39:38Z</time>
      </trkpt>
      <trkpt lat="45.92951" lon="4.80698">
        <ele>172</ele>
        <time>2018-08-28T08:39:39Z</time>
      </trkpt>
      <trkpt lat="45.92949" lon="4.80705">
        <ele>172</ele>
        <time>2018-08-28T08:39:40Z</time>
      </trkpt>
      <trkpt lat="45.92947" lon="4.80713">
        <ele>172</ele>
        <time>2018-08-28T08:39:41Z</time>
      </trkpt>
      <trkpt lat="45.92944" lon="4.8072">
        <ele>172</ele>
        <time>2018-08-28T08:39:42Z</time>
      </trkpt>
      <trkpt lat="45.92941" lon="4.80728">
        <ele>172</ele>
        <time>2018-08-28T08:39:43Z</time>
      </trkpt>
      <trkpt lat="45.92939" lon="4.80737">
        <ele>172</ele>
        <time>2018-08-28T08:39:44Z</time>
      </trkpt>
      <trkpt lat="45.92937" lon="4.80744">
        <ele>172</ele>
        <time>2018-08-28T08:39:45Z</time>
      </trkpt>
      <trkpt lat="45.92934" lon="4.80752">
        <ele>172</ele>
        <time>2018-08-28T08:39:46Z</time>
      </trkpt>
      <trkpt lat="45.92932" lon="4.80758">
        <ele>172</ele>
        <time>2018-08-28T08:39:47Z</time>
      </trkpt>
      <trkpt lat="45.9293" lon="4.80765">
        <ele>172</ele>
        <time>2018-08-28T08:39:48Z</time>
      </trkpt>
      <trkpt lat="45.92928" lon="4.80772">
        <ele>172</ele>
        <time>2018-08-28T08:39:49Z</time>
      </trkpt>
      <trkpt lat="45.92927" lon="4.80779">
        <ele>172</ele>
        <time>2018-08-28T08:39:50Z</time>
      </trkpt>
      <trkpt lat="45.92924" lon="4.80785">
        <ele>172</ele>
        <time>2018-08-28T08:39:51Z</time>
      </trkpt>
      <trkpt lat="45.92921" lon="4.80791">
        <ele>172</ele>
        <time>2018-08-28T08:39:52Z</time>
      </trkpt>
      <trkpt lat="45.92919" lon="4.80798">
        <ele>172</ele>
        <time>2018-08-28T08:39:53Z</time>
      </trkpt>
      <trkpt lat="45.92917" lon="4.80807">
        <ele>171</ele>
        <time>2018-08-28T08:39:54Z</time>
      </trkpt>
      <trkpt lat="45.92914" lon="4.80815">
        <ele>171</ele>
        <time>2018-08-28T08:39:55Z</time>
      </trkpt>
      <trkpt lat="45.92912" lon="4.80822">
        <ele>172</ele>
        <time>2018-08-28T08:39:56Z</time>
      </trkpt>
      <trkpt lat="45.92912" lon="4.80828">
        <ele>172</ele>
        <time>2018-08-28T08:39:57Z</time>
      </trkpt>
      <trkpt lat="45.92909" lon="4.80836">
        <ele>172</ele>
        <time>2018-08-28T08:39:58Z</time>
      </trkpt>
      <trkpt lat="45.92906" lon="4.80845">
        <ele>171</ele>
        <time>2018-08-28T08:39:59Z</time>
      </trkpt>
      <trkpt lat="45.92904" lon="4.80854">
        <ele>171</ele>
        <time>2018-08-28T08:40:00Z</time>
      </trkpt>
      <trkpt lat="45.92905" lon="4.80859">
        <ele>171</ele>
        <time>2018-08-28T08:40:01Z</time>
      </trkpt>
      <trkpt lat="45.92901" lon="4.80867">
        <ele>171</ele>
        <time>2018-08-28T08:40:02Z</time>
      </trkpt>
      <trkpt lat="45.92899" lon="4.80874">
        <ele>171</ele>
        <time>2018-08-28T08:40:03Z</time>
      </trkpt>
      <trkpt lat="45.92895" lon="4.80883">
        <ele>171</ele>
        <time>2018-08-28T08:40:04Z</time>
      </trkpt>
      <trkpt lat="45.92891" lon="4.8089">
        <ele>170</ele>
        <time>2018-08-28T08:40:05Z</time>
      </trkpt>
      <trkpt lat="45.9289" lon="4.80896">
        <ele>170</ele>
        <time>2018-08-28T08:40:06Z</time>
      </trkpt>
      <trkpt lat="45.92889" lon="4.80907">
        <ele>170</ele>
        <time>2018-08-28T08:40:07Z</time>
      </trkpt>
      <trkpt lat="45.92886" lon="4.80915">
        <ele>170</ele>
        <time>2018-08-28T08:40:08Z</time>
      </trkpt>
      <trkpt lat="45.92882" lon="4.80924">
        <ele>170</ele>
        <time>2018-08-28T08:40:09Z</time>
      </trkpt>
      <trkpt lat="45.92879" lon="4.80931">
        <ele>170</ele>
        <time>2018-08-28T08:40:10Z</time>
      </trkpt>
      <trkpt lat="45.92875" lon="4.80938">
        <ele>170</ele>
        <time>2018-08-28T08:40:11Z</time>
      </trkpt>
      <trkpt lat="45.92873" lon="4.80946">
        <ele>170</ele>
        <time>2018-08-28T08:40:12Z</time>
      </trkpt>
      <trkpt lat="45.92868" lon="4.8095">
        <ele>170</ele>
        <time>2018-08-28T08:40:13Z</time>
      </trkpt>
      <trkpt lat="45.92866" lon="4.80957">
        <ele>169</ele>
        <time>2018-08-28T08:40:14Z</time>
      </trkpt>
      <trkpt lat="45.92863" lon="4.80963">
        <ele>169</ele>
        <time>2018-08-28T08:40:15Z</time>
      </trkpt>
      <trkpt lat="45.92862" lon="4.80972">
        <ele>169</ele>
        <time>2018-08-28T08:40:16Z</time>
      </trkpt>
      <trkpt lat="45.92861" lon="4.80979">
        <ele>169</ele>
        <time>2018-08-28T08:40:17Z</time>
      </trkpt>
      <trkpt lat="45.9286" lon="4.80989">
        <ele>169</ele>
        <time>2018-08-28T08:40:18Z</time>
      </trkpt>
      <trkpt lat="45.92858" lon="4.80996">
        <ele>169</ele>
        <time>2018-08-28T08:40:19Z</time>
      </trkpt>
      <trkpt lat="45.92855" lon="4.81004">
        <ele>169</ele>
        <time>2018-08-28T08:40:20Z</time>
      </trkpt>
      <trkpt lat="45.92852" lon="4.81011">
        <ele>169</ele>
        <time>2018-08-28T08:40:21Z</time>
      </trkpt>
      <trkpt lat="45.92849" lon="4.81018">
        <ele>169</ele>
        <time>2018-08-28T08:40:22Z</time>
      </trkpt>
      <trkpt lat="45.92845" lon="4.81025">
        <ele>169</ele>
        <time>2018-08-28T08:40:23Z</time>
      </trkpt>
      <trkpt lat="45.92842" lon="4.81032">
        <ele>169</ele>
        <time>2018-08-28T08:40:24Z</time>
      </trkpt>
      <trkpt lat="45.92838" lon="4.81039">
        <ele>169</ele>
        <time>2018-08-28T08:40:25Z</time>
      </trkpt>
      <trkpt lat="45.92834" lon="4.81046">
        <ele>169</ele>
        <time>2018-08-28T08:40:26Z</time>
      </trkpt>
      <trkpt lat="45.92831" lon="4.81052">
        <ele>169</ele>
        <time>2018-08-28T08:40:27Z</time>
      </trkpt>
      <trkpt lat="45.92826" lon="4.81059">
        <ele>169</ele>
        <time>2018-08-28T08:40:28Z</time>
      </trkpt>
      <trkpt lat="45.92824" lon="4.81064">
        <ele>169</ele>
        <time>2018-08-28T08:40:29Z</time>
      </trkpt>
      <trkpt lat="45.9282" lon="4.81069">
        <ele>169</ele>
        <time>2018-08-28T08:40:30Z</time>
      </trkpt>
      <trkpt lat="45.92816" lon="4.81074">
        <ele>169</ele>
        <time>2018-08-28T08:40:31Z</time>
      </trkpt>
      <trkpt lat="45.92812" lon="4.81081">
        <ele>169</ele>
        <time>2018-08-28T08:40:32Z</time>
      </trkpt>
      <trkpt lat="45.92808" lon="4.81088">
        <ele>170</ele>
        <time>2018-08-28T08:40:33Z</time>
      </trkpt>
      <trkpt lat="45.92804" lon="4.81099">
        <ele>170</ele>
        <time>2018-08-28T08:40:35Z</time>
      </trkpt>
      <trkpt lat="45.92798" lon="4.81105">
        <ele>170</ele>
        <time>2018-08-28T08:40:36Z</time>
      </trkpt>
      <trkpt lat="45.92792" lon="4.81113">
        <ele>170</ele>
        <time>2018-08-28T08:40:37Z</time>
      </trkpt>
      <trkpt lat="45.92788" lon="4.8112">
        <ele>170</ele>
        <time>2018-08-28T08:40:38Z</time>
      </trkpt>
      <trkpt lat="45.92783" lon="4.81124">
        <ele>170</ele>
        <time>2018-08-28T08:40:39Z</time>
      </trkpt>
      <trkpt lat="45.92777" lon="4.81127">
        <ele>170</ele>
        <time>2018-08-28T08:40:40Z</time>
      </trkpt>
      <trkpt lat="45.9277" lon="4.81127">
        <ele>170</ele>
        <time>2018-08-28T08:40:41Z</time>
      </trkpt>
      <trkpt lat="45.92765" lon="4.8113">
        <ele>170</ele>
        <time>2018-08-28T08:40:42Z</time>
      </trkpt>
      <trkpt lat="45.92757" lon="4.81134">
        <ele>170</ele>
        <time>2018-08-28T08:40:44Z</time>
      </trkpt>
      <trkpt lat="45.92752" lon="4.81137">
        <ele>170</ele>
        <time>2018-08-28T08:40:45Z</time>
      </trkpt>
      <trkpt lat="45.92747" lon="4.81142">
        <ele>170</ele>
        <time>2018-08-28T08:40:46Z</time>
      </trkpt>
      <trkpt lat="45.92743" lon="4.81146">
        <ele>170</ele>
        <time>2018-08-28T08:40:47Z</time>
      </trkpt>
      <trkpt lat="45.92739" lon="4.8115">
        <ele>170</ele>
        <time>2018-08-28T08:40:48Z</time>
      </trkpt>
      <trkpt lat="45.92734" lon="4.81151">
        <ele>170</ele>
        <time>2018-08-28T08:40:49Z</time>
      </trkpt>
      <trkpt lat="45.9273" lon="4.81153">
        <ele>170</ele>
        <time>2018-08-28T08:40:50Z</time>
      </trkpt>
      <trkpt lat="45.92725" lon="4.81154">
        <ele>170</ele>
        <time>2018-08-28T08:40:51Z</time>
      </trkpt>
      <trkpt lat="45.9272" lon="4.81155">
        <ele>170</ele>
        <time>2018-08-28T08:40:52Z</time>
      </trkpt>
      <trkpt lat="45.92714" lon="4.81159">
        <ele>170</ele>
        <time>2018-08-28T08:40:53Z</time>
      </trkpt>
      <trkpt lat="45.92709" lon="4.8116">
        <ele>170</ele>
        <time>2018-08-28T08:40:54Z</time>
      </trkpt>
      <trkpt lat="45.92702" lon="4.81162">
        <ele>171</ele>
        <time>2018-08-28T08:40:55Z</time>
      </trkpt>
      <trkpt lat="45.92696" lon="4.81164">
        <ele>171</ele>
        <time>2018-08-28T08:40:56Z</time>
      </trkpt>
      <trkpt lat="45.9269" lon="4.81165">
        <ele>171</ele>
        <time>2018-08-28T08:40:57Z</time>
      </trkpt>
      <trkpt lat="45.92684" lon="4.81166">
        <ele>171</ele>
        <time>2018-08-28T08:40:58Z</time>
      </trkpt>
      <trkpt lat="45.92679" lon="4.81168">
        <ele>171</ele>
        <time>2018-08-28T08:40:59Z</time>
      </trkpt>
      <trkpt lat="45.92673" lon="4.81169">
        <ele>171</ele>
        <time>2018-08-28T08:41:00Z</time>
      </trkpt>
      <trkpt lat="45.92667" lon="4.81169">
        <ele>171</ele>
        <time>2018-08-28T08:41:01Z</time>
      </trkpt>
      <trkpt lat="45.92662" lon="4.8117">
        <ele>171</ele>
        <time>2018-08-28T08:41:02Z</time>
      </trkpt>
      <trkpt lat="45.92657" lon="4.81172">
        <ele>171</ele>
        <time>2018-08-28T08:41:03Z</time>
      </trkpt>
      <trkpt lat="45.92651" lon="4.81172">
        <ele>171</ele>
        <time>2018-08-28T08:41:04Z</time>
      </trkpt>
      <trkpt lat="45.92644" lon="4.81173">
        <ele>171</ele>
        <time>2018-08-28T08:41:05Z</time>
      </trkpt>
      <trkpt lat="45.92637" lon="4.81174">
        <ele>171</ele>
        <time>2018-08-28T08:41:06Z</time>
      </trkpt>
      <trkpt lat="45.92631" lon="4.81177">
        <ele>171</ele>
        <time>2018-08-28T08:41:07Z</time>
      </trkpt>
      <trkpt lat="45.92625" lon="4.81179">
        <ele>171</ele>
        <time>2018-08-28T08:41:08Z</time>
      </trkpt>
      <trkpt lat="45.92618" lon="4.81178">
        <ele>170</ele>
        <time>2018-08-28T08:41:09Z</time>
      </trkpt>
      <trkpt lat="45.92611" lon="4.81178">
        <ele>170</ele>
        <time>2018-08-28T08:41:10Z</time>
      </trkpt>
      <trkpt lat="45.92605" lon="4.81179">
        <ele>170</ele>
        <time>2018-08-28T08:41:11Z</time>
      </trkpt>
      <trkpt lat="45.92599" lon="4.81179">
        <ele>170</ele>
        <time>2018-08-28T08:41:12Z</time>
      </trkpt>
      <trkpt lat="45.92592" lon="4.81179">
        <ele>170</ele>
        <time>2018-08-28T08:41:13Z</time>
      </trkpt>
      <trkpt lat="45.92586" lon="4.81179">
        <ele>170</ele>
        <time>2018-08-28T08:41:14Z</time>
      </trkpt>
      <trkpt lat="45.9258" lon="4.81179">
        <ele>170</ele>
        <time>2018-08-28T08:41:15Z</time>
      </trkpt>
      <trkpt lat="45.92574" lon="4.81178">
        <ele>170</ele>
        <time>2018-08-28T08:41:16Z</time>
      </trkpt>
      <trkpt lat="45.92567" lon="4.81177">
        <ele>170</ele>
        <time>2018-08-28T08:41:17Z</time>
      </trkpt>
      <trkpt lat="45.92562" lon="4.81179">
        <ele>170</ele>
        <time>2018-08-28T08:41:18Z</time>
      </trkpt>
      <trkpt lat="45.92556" lon="4.81179">
        <ele>170</ele>
        <time>2018-08-28T08:41:19Z</time>
      </trkpt>
      <trkpt lat="45.9255" lon="4.8118">
        <ele>170</ele>
        <time>2018-08-28T08:41:20Z</time>
      </trkpt>
      <trkpt lat="45.92544" lon="4.8118">
        <ele>170</ele>
        <time>2018-08-28T08:41:21Z</time>
      </trkpt>
      <trkpt lat="45.92538" lon="4.8118">
        <ele>171</ele>
        <time>2018-08-28T08:41:22Z</time>
      </trkpt>
      <trkpt lat="45.9253" lon="4.81179">
        <ele>171</ele>
        <time>2018-08-28T08:41:23Z</time>
      </trkpt>
      <trkpt lat="45.92524" lon="4.81179">
        <ele>171</ele>
        <time>2018-08-28T08:41:24Z</time>
      </trkpt>
      <trkpt lat="45.92518" lon="4.81179">
        <ele>171</ele>
        <time>2018-08-28T08:41:25Z</time>
      </trkpt>
      <trkpt lat="45.92511" lon="4.81182">
        <ele>171</ele>
        <time>2018-08-28T08:41:26Z</time>
      </trkpt>
      <trkpt lat="45.92505" lon="4.81183">
        <ele>171</ele>
        <time>2018-08-28T08:41:27Z</time>
      </trkpt>
      <trkpt lat="45.92501" lon="4.81188">
        <ele>171</ele>
        <time>2018-08-28T08:41:28Z</time>
      </trkpt>
      <trkpt lat="45.92495" lon="4.81187">
        <ele>171</ele>
        <time>2018-08-28T08:41:29Z</time>
      </trkpt>
      <trkpt lat="45.92489" lon="4.81197">
        <ele>171</ele>
        <time>2018-08-28T08:41:31Z</time>
      </trkpt>
      <trkpt lat="45.92485" lon="4.81201">
        <ele>171</ele>
        <time>2018-08-28T08:41:32Z</time>
      </trkpt>
      <trkpt lat="45.92479" lon="4.812">
        <ele>171</ele>
        <time>2018-08-28T08:41:33Z</time>
      </trkpt>
      <trkpt lat="45.92473" lon="4.81199">
        <ele>171</ele>
        <time>2018-08-28T08:41:34Z</time>
      </trkpt>
      <trkpt lat="45.92467" lon="4.812">
        <ele>171</ele>
        <time>2018-08-28T08:41:35Z</time>
      </trkpt>
      <trkpt lat="45.92461" lon="4.81201">
        <ele>171</ele>
        <time>2018-08-28T08:41:36Z</time>
      </trkpt>
      <trkpt lat="45.92455" lon="4.81201">
        <ele>171</ele>
        <time>2018-08-28T08:41:37Z</time>
      </trkpt>
      <trkpt lat="45.92449" lon="4.81202">
        <ele>171</ele>
        <time>2018-08-28T08:41:38Z</time>
      </trkpt>
      <trkpt lat="45.92443" lon="4.81203">
        <ele>171</ele>
        <time>2018-08-28T08:41:39Z</time>
      </trkpt>
      <trkpt lat="45.92438" lon="4.81204">
        <ele>171</ele>
        <time>2018-08-28T08:41:40Z</time>
      </trkpt>
      <trkpt lat="45.92432" lon="4.81203">
        <ele>171</ele>
        <time>2018-08-28T08:41:41Z</time>
      </trkpt>
      <trkpt lat="45.92426" lon="4.81204">
        <ele>171</ele>
        <time>2018-08-28T08:41:42Z</time>
      </trkpt>
      <trkpt lat="45.9242" lon="4.81204">
        <ele>171</ele>
        <time>2018-08-28T08:41:43Z</time>
      </trkpt>
      <trkpt lat="45.92414" lon="4.81203">
        <ele>170</ele>
        <time>2018-08-28T08:41:44Z</time>
      </trkpt>
      <trkpt lat="45.92408" lon="4.81205">
        <ele>170</ele>
        <time>2018-08-28T08:41:45Z</time>
      </trkpt>
      <trkpt lat="45.92404" lon="4.81207">
        <ele>170</ele>
        <time>2018-08-28T08:41:46Z</time>
      </trkpt>
      <trkpt lat="45.92398" lon="4.81209">
        <ele>170</ele>
        <time>2018-08-28T08:41:47Z</time>
      </trkpt>
      <trkpt lat="45.92393" lon="4.81211">
        <ele>170</ele>
        <time>2018-08-28T08:41:48Z</time>
      </trkpt>
      <trkpt lat="45.92388" lon="4.81212">
        <ele>170</ele>
        <time>2018-08-28T08:41:49Z</time>
      </trkpt>
      <trkpt lat="45.92383" lon="4.81214">
        <ele>170</ele>
        <time>2018-08-28T08:41:50Z</time>
      </trkpt>
      <trkpt lat="45.92379" lon="4.81217">
        <ele>170</ele>
        <time>2018-08-28T08:41:51Z</time>
      </trkpt>
      <trkpt lat="45.92373" lon="4.81219">
        <ele>170</ele>
        <time>2018-08-28T08:41:52Z</time>
      </trkpt>
      <trkpt lat="45.92369" lon="4.81222">
        <ele>170</ele>
        <time>2018-08-28T08:41:53Z</time>
      </trkpt>
      <trkpt lat="45.92363" lon="4.81225">
        <ele>170</ele>
        <time>2018-08-28T08:41:54Z</time>
      </trkpt>
      <trkpt lat="45.9236" lon="4.81228">
        <ele>170</ele>
        <time>2018-08-28T08:41:55Z</time>
      </trkpt>
      <trkpt lat="45.92355" lon="4.81231">
        <ele>169</ele>
        <time>2018-08-28T08:41:56Z</time>
      </trkpt>
      <trkpt lat="45.9235" lon="4.81234">
        <ele>169</ele>
        <time>2018-08-28T08:41:57Z</time>
      </trkpt>
      <trkpt lat="45.92345" lon="4.81238">
        <ele>169</ele>
        <time>2018-08-28T08:41:58Z</time>
      </trkpt>
      <trkpt lat="45.9234" lon="4.81241">
        <ele>169</ele>
        <time>2018-08-28T08:41:59Z</time>
      </trkpt>
      <trkpt lat="45.92335" lon="4.81245">
        <ele>169</ele>
        <time>2018-08-28T08:42:00Z</time>
      </trkpt>
      <trkpt lat="45.92328" lon="4.81246">
        <ele>169</ele>
        <time>2018-08-28T08:42:01Z</time>
      </trkpt>
      <trkpt lat="45.92323" lon="4.81249">
        <ele>169</ele>
        <time>2018-08-28T08:42:02Z</time>
      </trkpt>
      <trkpt lat="45.92318" lon="4.81251">
        <ele>170</ele>
        <time>2018-08-28T08:42:03Z</time>
      </trkpt>
      <trkpt lat="45.92313" lon="4.81253">
        <ele>170</ele>
        <time>2018-08-28T08:42:04Z</time>
      </trkpt>
      <trkpt lat="45.92307" lon="4.81256">
        <ele>170</ele>
        <time>2018-08-28T08:42:05Z</time>
      </trkpt>
      <trkpt lat="45.92302" lon="4.81261">
        <ele>170</ele>
        <time>2018-08-28T08:42:06Z</time>
      </trkpt>
      <trkpt lat="45.92297" lon="4.81266">
        <ele>170</ele>
        <time>2018-08-28T08:42:07Z</time>
      </trkpt>
      <trkpt lat="45.9229" lon="4.8127">
        <ele>170</ele>
        <time>2018-08-28T08:42:08Z</time>
      </trkpt>
      <trkpt lat="45.92285" lon="4.81274">
        <ele>170</ele>
        <time>2018-08-28T08:42:09Z</time>
      </trkpt>
      <trkpt lat="45.92279" lon="4.81278">
        <ele>170</ele>
        <time>2018-08-28T08:42:10Z</time>
      </trkpt>
      <trkpt lat="45.92274" lon="4.81281">
        <ele>170</ele>
        <time>2018-08-28T08:42:11Z</time>
      </trkpt>
      <trkpt lat="45.9227" lon="4.81283">
        <ele>170</ele>
        <time>2018-08-28T08:42:12Z</time>
      </trkpt>
      <trkpt lat="45.92265" lon="4.81286">
        <ele>170</ele>
        <time>2018-08-28T08:42:13Z</time>
      </trkpt>
      <trkpt lat="45.9226" lon="4.81289">
        <ele>170</ele>
        <time>2018-08-28T08:42:14Z</time>
      </trkpt>
      <trkpt lat="45.92255" lon="4.81293">
        <ele>171</ele>
        <time>2018-08-28T08:42:15Z</time>
      </trkpt>
      <trkpt lat="45.9225" lon="4.81295">
        <ele>171</ele>
        <time>2018-08-28T08:42:16Z</time>
      </trkpt>
      <trkpt lat="45.92246" lon="4.81299">
        <ele>171</ele>
        <time>2018-08-28T08:42:17Z</time>
      </trkpt>
      <trkpt lat="45.92238" lon="4.81298">
        <ele>171</ele>
        <time>2018-08-28T08:42:18Z</time>
      </trkpt>
      <trkpt lat="45.92234" lon="4.81303">
        <ele>171</ele>
        <time>2018-08-28T08:42:19Z</time>
      </trkpt>
      <trkpt lat="45.92229" lon="4.81303">
        <ele>171</ele>
        <time>2018-08-28T08:42:20Z</time>
      </trkpt>
      <trkpt lat="45.92227" lon="4.81306">
        <ele>171</ele>
        <time>2018-08-28T08:42:21Z</time>
      </trkpt>
      <trkpt lat="45.92222" lon="4.81311">
        <ele>171</ele>
        <time>2018-08-28T08:42:22Z</time>
      </trkpt>
      <trkpt lat="45.92218" lon="4.81315">
        <ele>171</ele>
        <time>2018-08-28T08:42:23Z</time>
      </trkpt>
      <trkpt lat="45.9221" lon="4.81325">
        <ele>171</ele>
        <time>2018-08-28T08:42:24Z</time>
      </trkpt>
      <trkpt lat="45.92204" lon="4.81327">
        <ele>170</ele>
        <time>2018-08-28T08:42:25Z</time>
      </trkpt>
      <trkpt lat="45.922" lon="4.81329">
        <ele>170</ele>
        <time>2018-08-28T08:42:26Z</time>
      </trkpt>
      <trkpt lat="45.92195" lon="4.81335">
        <ele>170</ele>
        <time>2018-08-28T08:42:27Z</time>
      </trkpt>
      <trkpt lat="45.92189" lon="4.8134">
        <ele>170</ele>
        <time>2018-08-28T08:42:28Z</time>
      </trkpt>
      <trkpt lat="45.92184" lon="4.8134">
        <ele>170</ele>
        <time>2018-08-28T08:42:29Z</time>
      </trkpt>
      <trkpt lat="45.92178" lon="4.81341">
        <ele>170</ele>
        <time>2018-08-28T08:42:30Z</time>
      </trkpt>
      <trkpt lat="45.92174" lon="4.81343">
        <ele>170</ele>
        <time>2018-08-28T08:42:31Z</time>
      </trkpt>
      <trkpt lat="45.92169" lon="4.81347">
        <ele>170</ele>
        <time>2018-08-28T08:42:32Z</time>
      </trkpt>
      <trkpt lat="45.92164" lon="4.8135">
        <ele>170</ele>
        <time>2018-08-28T08:42:33Z</time>
      </trkpt>
      <trkpt lat="45.9216" lon="4.81354">
        <ele>170</ele>
        <time>2018-08-28T08:42:34Z</time>
      </trkpt>
      <trkpt lat="45.92157" lon="4.8136">
        <ele>170</ele>
        <time>2018-08-28T08:42:35Z</time>
      </trkpt>
      <trkpt lat="45.92153" lon="4.81365">
        <ele>170</ele>
        <time>2018-08-28T08:42:36Z</time>
      </trkpt>
      <trkpt lat="45.9215" lon="4.8137">
        <ele>170</ele>
        <time>2018-08-28T08:42:37Z</time>
      </trkpt>
      <trkpt lat="45.92145" lon="4.81372">
        <ele>170</ele>
        <time>2018-08-28T08:42:38Z</time>
      </trkpt>
      <trkpt lat="45.92139" lon="4.81373">
        <ele>170</ele>
        <time>2018-08-28T08:42:39Z</time>
      </trkpt>
      <trkpt lat="45.92134" lon="4.81375">
        <ele>170</ele>
        <time>2018-08-28T08:42:40Z</time>
      </trkpt>
      <trkpt lat="45.92129" lon="4.81375">
        <ele>170</ele>
        <time>2018-08-28T08:42:41Z</time>
      </trkpt>
      <trkpt lat="45.92124" lon="4.81381">
        <ele>170</ele>
        <time>2018-08-28T08:42:42Z</time>
      </trkpt>
      <trkpt lat="45.92119" lon="4.81385">
        <ele>170</ele>
        <time>2018-08-28T08:42:43Z</time>
      </trkpt>
      <trkpt lat="45.92114" lon="4.81388">
        <ele>170</ele>
        <time>2018-08-28T08:42:44Z</time>
      </trkpt>
      <trkpt lat="45.92109" lon="4.8139">
        <ele>170</ele>
        <time>2018-08-28T08:42:45Z</time>
      </trkpt>
      <trkpt lat="45.92105" lon="4.81392">
        <ele>170</ele>
        <time>2018-08-28T08:42:46Z</time>
      </trkpt>
      <trkpt lat="45.92098" lon="4.81394">
        <ele>170</ele>
        <time>2018-08-28T08:42:47Z</time>
      </trkpt>
      <trkpt lat="45.92094" lon="4.81396">
        <ele>170</ele>
        <time>2018-08-28T08:42:48Z</time>
      </trkpt>
      <trkpt lat="45.92089" lon="4.81399">
        <ele>170</ele>
        <time>2018-08-28T08:42:49Z</time>
      </trkpt>
      <trkpt lat="45.92084" lon="4.814">
        <ele>170</ele>
        <time>2018-08-28T08:42:50Z</time>
      </trkpt>
      <trkpt lat="45.92079" lon="4.81401">
        <ele>170</ele>
        <time>2018-08-28T08:42:51Z</time>
      </trkpt>
      <trkpt lat="45.92074" lon="4.81403">
        <ele>170</ele>
        <time>2018-08-28T08:42:52Z</time>
      </trkpt>
      <trkpt lat="45.9207" lon="4.81406">
        <ele>170</ele>
        <time>2018-08-28T08:42:53Z</time>
      </trkpt>
      <trkpt lat="45.92064" lon="4.8141">
        <ele>169</ele>
        <time>2018-08-28T08:42:54Z</time>
      </trkpt>
      <trkpt lat="45.92059" lon="4.81414">
        <ele>169</ele>
        <time>2018-08-28T08:42:55Z</time>
      </trkpt>
      <trkpt lat="45.92054" lon="4.81416">
        <ele>169</ele>
        <time>2018-08-28T08:42:56Z</time>
      </trkpt>
      <trkpt lat="45.92049" lon="4.81421">
        <ele>170</ele>
        <time>2018-08-28T08:42:57Z</time>
      </trkpt>
      <trkpt lat="45.92043" lon="4.81424">
        <ele>170</ele>
        <time>2018-08-28T08:42:58Z</time>
      </trkpt>
      <trkpt lat="45.92037" lon="4.81427">
        <ele>170</ele>
        <time>2018-08-28T08:42:59Z</time>
      </trkpt>
      <trkpt lat="45.92032" lon="4.8143">
        <ele>170</ele>
        <time>2018-08-28T08:43:00Z</time>
      </trkpt>
      <trkpt lat="45.92027" lon="4.81434">
        <ele>170</ele>
        <time>2018-08-28T08:43:01Z</time>
      </trkpt>
      <trkpt lat="45.92021" lon="4.81438">
        <ele>170</ele>
        <time>2018-08-28T08:43:02Z</time>
      </trkpt>
      <trkpt lat="45.92015" lon="4.81441">
        <ele>170</ele>
        <time>2018-08-28T08:43:03Z</time>
      </trkpt>
      <trkpt lat="45.92008" lon="4.81443">
        <ele>170</ele>
        <time>2018-08-28T08:43:04Z</time>
      </trkpt>
      <trkpt lat="45.92001" lon="4.81446">
        <ele>170</ele>
        <time>2018-08-28T08:43:05Z</time>
      </trkpt>
      <trkpt lat="45.91995" lon="4.81448">
        <ele>170</ele>
        <time>2018-08-28T08:43:06Z</time>
      </trkpt>
      <trkpt lat="45.91989" lon="4.81453">
        <ele>170</ele>
        <time>2018-08-28T08:43:07Z</time>
      </trkpt>
      <trkpt lat="45.91983" lon="4.81455">
        <ele>170</ele>
        <time>2018-08-28T08:43:08Z</time>
      </trkpt>
      <trkpt lat="45.91977" lon="4.81457">
        <ele>170</ele>
        <time>2018-08-28T08:43:09Z</time>
      </trkpt>
      <trkpt lat="45.91971" lon="4.81459">
        <ele>170</ele>
        <time>2018-08-28T08:43:10Z</time>
      </trkpt>
      <trkpt lat="45.91965" lon="4.81462">
        <ele>170</ele>
        <time>2018-08-28T08:43:11Z</time>
      </trkpt>
      <trkpt lat="45.91959" lon="4.81465">
        <ele>170</ele>
        <time>2018-08-28T08:43:12Z</time>
      </trkpt>
      <trkpt lat="45.91952" lon="4.81468">
        <ele>170</ele>
        <time>2018-08-28T08:43:13Z</time>
      </trkpt>
      <trkpt lat="45.91946" lon="4.8147">
        <ele>170</ele>
        <time>2018-08-28T08:43:14Z</time>
      </trkpt>
      <trkpt lat="45.91941" lon="4.81474">
        <ele>170</ele>
        <time>2018-08-28T08:43:15Z</time>
      </trkpt>
      <trkpt lat="45.91936" lon="4.81476">
        <ele>170</ele>
        <time>2018-08-28T08:43:16Z</time>
      </trkpt>
      <trkpt lat="45.9193" lon="4.81477">
        <ele>170</ele>
        <time>2018-08-28T08:43:17Z</time>
      </trkpt>
      <trkpt lat="45.91923" lon="4.81476">
        <ele>170</ele>
        <time>2018-08-28T08:43:18Z</time>
      </trkpt>
      <trkpt lat="45.91916" lon="4.81478">
        <ele>169</ele>
        <time>2018-08-28T08:43:19Z</time>
      </trkpt>
      <trkpt lat="45.9191" lon="4.8148">
        <ele>169</ele>
        <time>2018-08-28T08:43:20Z</time>
      </trkpt>
      <trkpt lat="45.91904" lon="4.81482">
        <ele>169</ele>
        <time>2018-08-28T08:43:21Z</time>
      </trkpt>
      <trkpt lat="45.919" lon="4.81483">
        <ele>169</ele>
        <time>2018-08-28T08:43:22Z</time>
      </trkpt>
      <trkpt lat="45.91893" lon="4.81486">
        <ele>169</ele>
        <time>2018-08-28T08:43:23Z</time>
      </trkpt>
      <trkpt lat="45.91889" lon="4.81491">
        <ele>169</ele>
        <time>2018-08-28T08:43:24Z</time>
      </trkpt>
      <trkpt lat="45.91884" lon="4.81493">
        <ele>169</ele>
        <time>2018-08-28T08:43:25Z</time>
      </trkpt>
      <trkpt lat="45.91878" lon="4.81495">
        <ele>169</ele>
        <time>2018-08-28T08:43:26Z</time>
      </trkpt>
      <trkpt lat="45.91874" lon="4.81497">
        <ele>169</ele>
        <time>2018-08-28T08:43:27Z</time>
      </trkpt>
      <trkpt lat="45.91869" lon="4.81499">
        <ele>169</ele>
        <time>2018-08-28T08:43:28Z</time>
      </trkpt>
      <trkpt lat="45.91863" lon="4.81501">
        <ele>169</ele>
        <time>2018-08-28T08:43:29Z</time>
      </trkpt>
      <trkpt lat="45.91857" lon="4.81503">
        <ele>169</ele>
        <time>2018-08-28T08:43:30Z</time>
      </trkpt>
      <trkpt lat="45.91851" lon="4.81506">
        <ele>169</ele>
        <time>2018-08-28T08:43:31Z</time>
      </trkpt>
      <trkpt lat="45.91847" lon="4.8151">
        <ele>169</ele>
        <time>2018-08-28T08:43:32Z</time>
      </trkpt>
      <trkpt lat="45.91841" lon="4.81512">
        <ele>168</ele>
        <time>2018-08-28T08:43:33Z</time>
      </trkpt>
      <trkpt lat="45.91835" lon="4.81513">
        <ele>168</ele>
        <time>2018-08-28T08:43:34Z</time>
      </trkpt>
      <trkpt lat="45.91829" lon="4.81514">
        <ele>168</ele>
        <time>2018-08-28T08:43:35Z</time>
      </trkpt>
      <trkpt lat="45.91823" lon="4.81516">
        <ele>168</ele>
        <time>2018-08-28T08:43:36Z</time>
      </trkpt>
      <trkpt lat="45.91818" lon="4.81517">
        <ele>168</ele>
        <time>2018-08-28T08:43:37Z</time>
      </trkpt>
      <trkpt lat="45.91813" lon="4.81519">
        <ele>168</ele>
        <time>2018-08-28T08:43:38Z</time>
      </trkpt>
      <trkpt lat="45.91807" lon="4.8152">
        <ele>168</ele>
        <time>2018-08-28T08:43:39Z</time>
      </trkpt>
      <trkpt lat="45.91803" lon="4.81521">
        <ele>168</ele>
        <time>2018-08-28T08:43:40Z</time>
      </trkpt>
      <trkpt lat="45.91799" lon="4.81522">
        <ele>168</ele>
        <time>2018-08-28T08:43:41Z</time>
      </trkpt>
      <trkpt lat="45.91793" lon="4.81524">
        <ele>168</ele>
        <time>2018-08-28T08:43:42Z</time>
      </trkpt>
      <trkpt lat="45.91789" lon="4.81526">
        <ele>169</ele>
        <time>2018-08-28T08:43:43Z</time>
      </trkpt>
      <trkpt lat="45.91784" lon="4.81528">
        <ele>169</ele>
        <time>2018-08-28T08:43:44Z</time>
      </trkpt>
      <trkpt lat="45.9178" lon="4.8153">
        <ele>169</ele>
        <time>2018-08-28T08:43:45Z</time>
      </trkpt>
      <trkpt lat="45.91774" lon="4.81528">
        <ele>169</ele>
        <time>2018-08-28T08:43:46Z</time>
      </trkpt>
      <trkpt lat="45.91769" lon="4.81531">
        <ele>169</ele>
        <time>2018-08-28T08:43:47Z</time>
      </trkpt>
      <trkpt lat="45.91764" lon="4.8153">
        <ele>169</ele>
        <time>2018-08-28T08:43:48Z</time>
      </trkpt>
      <trkpt lat="45.91761" lon="4.81531">
        <ele>169</ele>
        <time>2018-08-28T08:43:49Z</time>
      </trkpt>
      <trkpt lat="45.91755" lon="4.81533">
        <ele>169</ele>
        <time>2018-08-28T08:43:50Z</time>
      </trkpt>
      <trkpt lat="45.91749" lon="4.81534">
        <ele>169</ele>
        <time>2018-08-28T08:43:51Z</time>
      </trkpt>
      <trkpt lat="45.91743" lon="4.81538">
        <ele>169</ele>
        <time>2018-08-28T08:43:52Z</time>
      </trkpt>
      <trkpt lat="45.9174" lon="4.81538">
        <ele>169</ele>
        <time>2018-08-28T08:43:53Z</time>
      </trkpt>
      <trkpt lat="45.91734" lon="4.8154">
        <ele>169</ele>
        <time>2018-08-28T08:43:54Z</time>
      </trkpt>
      <trkpt lat="45.91727" lon="4.81542">
        <ele>169</ele>
        <time>2018-08-28T08:43:55Z</time>
      </trkpt>
      <trkpt lat="45.91723" lon="4.81544">
        <ele>169</ele>
        <time>2018-08-28T08:43:56Z</time>
      </trkpt>
      <trkpt lat="45.91714" lon="4.81546">
        <ele>169</ele>
        <time>2018-08-28T08:43:58Z</time>
      </trkpt>
      <trkpt lat="45.91709" lon="4.81547">
        <ele>169</ele>
        <time>2018-08-28T08:43:59Z</time>
      </trkpt>
      <trkpt lat="45.91704" lon="4.81548">
        <ele>169</ele>
        <time>2018-08-28T08:44:00Z</time>
      </trkpt>
      <trkpt lat="45.91697" lon="4.8155">
        <ele>169</ele>
        <time>2018-08-28T08:44:01Z</time>
      </trkpt>
      <trkpt lat="45.91693" lon="4.81555">
        <ele>169</ele>
        <time>2018-08-28T08:44:02Z</time>
      </trkpt>
      <trkpt lat="45.91688" lon="4.81555">
        <ele>169</ele>
        <time>2018-08-28T08:44:03Z</time>
      </trkpt>
      <trkpt lat="45.91683" lon="4.81558">
        <ele>169</ele>
        <time>2018-08-28T08:44:04Z</time>
      </trkpt>
      <trkpt lat="45.91676" lon="4.81559">
        <ele>170</ele>
        <time>2018-08-28T08:44:05Z</time>
      </trkpt>
      <trkpt lat="45.9167" lon="4.8156">
        <ele>170</ele>
        <time>2018-08-28T08:44:06Z</time>
      </trkpt>
      <trkpt lat="45.91663" lon="4.81559">
        <ele>170</ele>
        <time>2018-08-28T08:44:07Z</time>
      </trkpt>
      <trkpt lat="45.91658" lon="4.8156">
        <ele>170</ele>
        <time>2018-08-28T08:44:08Z</time>
      </trkpt>
      <trkpt lat="45.91652" lon="4.81565">
        <ele>170</ele>
        <time>2018-08-28T08:44:09Z</time>
      </trkpt>
      <trkpt lat="45.91645" lon="4.81567">
        <ele>170</ele>
        <time>2018-08-28T08:44:10Z</time>
      </trkpt>
      <trkpt lat="45.91639" lon="4.81569">
        <ele>170</ele>
        <time>2018-08-28T08:44:11Z</time>
      </trkpt>
      <trkpt lat="45.91633" lon="4.81569">
        <ele>170</ele>
        <time>2018-08-28T08:44:12Z</time>
      </trkpt>
      <trkpt lat="45.91628" lon="4.81569">
        <ele>170</ele>
        <time>2018-08-28T08:44:13Z</time>
      </trkpt>
      <trkpt lat="45.91622" lon="4.81568">
        <ele>170</ele>
        <time>2018-08-28T08:44:14Z</time>
      </trkpt>
      <trkpt lat="45.91613" lon="4.8157">
        <ele>170</ele>
        <time>2018-08-28T08:44:15Z</time>
      </trkpt>
      <trkpt lat="45.91609" lon="4.81572">
        <ele>170</ele>
        <time>2018-08-28T08:44:16Z</time>
      </trkpt>
      <trkpt lat="45.91602" lon="4.81572">
        <ele>170</ele>
        <time>2018-08-28T08:44:17Z</time>
      </trkpt>
      <trkpt lat="45.91596" lon="4.81575">
        <ele>170</ele>
        <time>2018-08-28T08:44:18Z</time>
      </trkpt>
      <trkpt lat="45.91591" lon="4.81577">
        <ele>170</ele>
        <time>2018-08-28T08:44:19Z</time>
      </trkpt>
      <trkpt lat="45.91586" lon="4.81578">
        <ele>170</ele>
        <time>2018-08-28T08:44:20Z</time>
      </trkpt>
      <trkpt lat="45.91579" lon="4.8158">
        <ele>170</ele>
        <time>2018-08-28T08:44:21Z</time>
      </trkpt>
      <trkpt lat="45.91571" lon="4.81578">
        <ele>170</ele>
        <time>2018-08-28T08:44:22Z</time>
      </trkpt>
      <trkpt lat="45.91564" lon="4.81579">
        <ele>170</ele>
        <time>2018-08-28T08:44:23Z</time>
      </trkpt>
      <trkpt lat="45.91559" lon="4.8158">
        <ele>170</ele>
        <time>2018-08-28T08:44:24Z</time>
      </trkpt>
      <trkpt lat="45.91554" lon="4.81583">
        <ele>169</ele>
        <time>2018-08-28T08:44:25Z</time>
      </trkpt>
      <trkpt lat="45.91548" lon="4.81584">
        <ele>170</ele>
        <time>2018-08-28T08:44:26Z</time>
      </trkpt>
      <trkpt lat="45.91543" lon="4.81585">
        <ele>170</ele>
        <time>2018-08-28T08:44:27Z</time>
      </trkpt>
      <trkpt lat="45.91537" lon="4.81586">
        <ele>170</ele>
        <time>2018-08-28T08:44:28Z</time>
      </trkpt>
      <trkpt lat="45.91532" lon="4.81587">
        <ele>170</ele>
        <time>2018-08-28T08:44:29Z</time>
      </trkpt>
      <trkpt lat="45.91528" lon="4.81591">
        <ele>170</ele>
        <time>2018-08-28T08:44:30Z</time>
      </trkpt>
      <trkpt lat="45.91523" lon="4.81591">
        <ele>170</ele>
        <time>2018-08-28T08:44:31Z</time>
      </trkpt>
      <trkpt lat="45.91518" lon="4.81593">
        <ele>170</ele>
        <time>2018-08-28T08:44:32Z</time>
      </trkpt>
      <trkpt lat="45.91513" lon="4.81599">
        <ele>170</ele>
        <time>2018-08-28T08:44:33Z</time>
      </trkpt>
      <trkpt lat="45.91507" lon="4.81597">
        <ele>170</ele>
        <time>2018-08-28T08:44:34Z</time>
      </trkpt>
      <trkpt lat="45.91503" lon="4.81599">
        <ele>170</ele>
        <time>2018-08-28T08:44:35Z</time>
      </trkpt>
      <trkpt lat="45.91497" lon="4.816">
        <ele>169</ele>
        <time>2018-08-28T08:44:36Z</time>
      </trkpt>
      <trkpt lat="45.91491" lon="4.81599">
        <ele>169</ele>
        <time>2018-08-28T08:44:37Z</time>
      </trkpt>
      <trkpt lat="45.91485" lon="4.81599">
        <ele>169</ele>
        <time>2018-08-28T08:44:38Z</time>
      </trkpt>
      <trkpt lat="45.91479" lon="4.816">
        <ele>170</ele>
        <time>2018-08-28T08:44:39Z</time>
      </trkpt>
      <trkpt lat="45.91474" lon="4.816">
        <ele>170</ele>
        <time>2018-08-28T08:44:40Z</time>
      </trkpt>
      <trkpt lat="45.91468" lon="4.81601">
        <ele>170</ele>
        <time>2018-08-28T08:44:41Z</time>
      </trkpt>
      <trkpt lat="45.91462" lon="4.81602">
        <ele>170</ele>
        <time>2018-08-28T08:44:42Z</time>
      </trkpt>
      <trkpt lat="45.91456" lon="4.81601">
        <ele>170</ele>
        <time>2018-08-28T08:44:43Z</time>
      </trkpt>
      <trkpt lat="45.91451" lon="4.81602">
        <ele>170</ele>
        <time>2018-08-28T08:44:44Z</time>
      </trkpt>
      <trkpt lat="45.91446" lon="4.81603">
        <ele>170</ele>
        <time>2018-08-28T08:44:45Z</time>
      </trkpt>
      <trkpt lat="45.91439" lon="4.8161">
        <ele>170</ele>
        <time>2018-08-28T08:44:47Z</time>
      </trkpt>
      <trkpt lat="45.91434" lon="4.8161">
        <ele>170</ele>
        <time>2018-08-28T08:44:48Z</time>
      </trkpt>
      <trkpt lat="45.91428" lon="4.8161">
        <ele>170</ele>
        <time>2018-08-28T08:44:49Z</time>
      </trkpt>
      <trkpt lat="45.91422" lon="4.81611">
        <ele>170</ele>
        <time>2018-08-28T08:44:50Z</time>
      </trkpt>
      <trkpt lat="45.91416" lon="4.81612">
        <ele>170</ele>
        <time>2018-08-28T08:44:51Z</time>
      </trkpt>
      <trkpt lat="45.9141" lon="4.81611">
        <ele>170</ele>
        <time>2018-08-28T08:44:52Z</time>
      </trkpt>
      <trkpt lat="45.91402" lon="4.8161">
        <ele>170</ele>
        <time>2018-08-28T08:44:53Z</time>
      </trkpt>
      <trkpt lat="45.91396" lon="4.81611">
        <ele>170</ele>
        <time>2018-08-28T08:44:54Z</time>
      </trkpt>
      <trkpt lat="45.91391" lon="4.81611">
        <ele>170</ele>
        <time>2018-08-28T08:44:55Z</time>
      </trkpt>
      <trkpt lat="45.91386" lon="4.8161">
        <ele>170</ele>
        <time>2018-08-28T08:44:56Z</time>
      </trkpt>
      <trkpt lat="45.9138" lon="4.8161">
        <ele>170</ele>
        <time>2018-08-28T08:44:57Z</time>
      </trkpt>
      <trkpt lat="45.91373" lon="4.81609">
        <ele>170</ele>
        <time>2018-08-28T08:44:58Z</time>
      </trkpt>
      <trkpt lat="45.91367" lon="4.81609">
        <ele>170</ele>
        <time>2018-08-28T08:44:59Z</time>
      </trkpt>
      <trkpt lat="45.9136" lon="4.8161">
        <ele>170</ele>
        <time>2018-08-28T08:45:00Z</time>
      </trkpt>
      <trkpt lat="45.91354" lon="4.81611">
        <ele>170</ele>
        <time>2018-08-28T08:45:01Z</time>
      </trkpt>
      <trkpt lat="45.91346" lon="4.81608">
        <ele>170</ele>
        <time>2018-08-28T08:45:02Z</time>
      </trkpt>
      <trkpt lat="45.91339" lon="4.81607">
        <ele>170</ele>
        <time>2018-08-28T08:45:03Z</time>
      </trkpt>
      <trkpt lat="45.91332" lon="4.81607">
        <ele>170</ele>
        <time>2018-08-28T08:45:04Z</time>
      </trkpt>
      <trkpt lat="45.91325" lon="4.81606">
        <ele>170</ele>
        <time>2018-08-28T08:45:05Z</time>
      </trkpt>
      <trkpt lat="45.91318" lon="4.81606">
        <ele>170</ele>
        <time>2018-08-28T08:45:06Z</time>
      </trkpt>
      <trkpt lat="45.91313" lon="4.81606">
        <ele>170</ele>
        <time>2018-08-28T08:45:07Z</time>
      </trkpt>
      <trkpt lat="45.91307" lon="4.81608">
        <ele>170</ele>
        <time>2018-08-28T08:45:08Z</time>
      </trkpt>
      <trkpt lat="45.91301" lon="4.81607">
        <ele>170</ele>
        <time>2018-08-28T08:45:09Z</time>
      </trkpt>
      <trkpt lat="45.91295" lon="4.81607">
        <ele>170</ele>
        <time>2018-08-28T08:45:10Z</time>
      </trkpt>
      <trkpt lat="45.91288" lon="4.81608">
        <ele>170</ele>
        <time>2018-08-28T08:45:11Z</time>
      </trkpt>
      <trkpt lat="45.91281" lon="4.81608">
        <ele>170</ele>
        <time>2018-08-28T08:45:12Z</time>
      </trkpt>
      <trkpt lat="45.91275" lon="4.81608">
        <ele>170</ele>
        <time>2018-08-28T08:45:13Z</time>
      </trkpt>
      <trkpt lat="45.91268" lon="4.81608">
        <ele>170</ele>
        <time>2018-08-28T08:45:14Z</time>
      </trkpt>
      <trkpt lat="45.91262" lon="4.81607">
        <ele>170</ele>
        <time>2018-08-28T08:45:15Z</time>
      </trkpt>
      <trkpt lat="45.91256" lon="4.81608">
        <ele>170</ele>
        <time>2018-08-28T08:45:16Z</time>
      </trkpt>
      <trkpt lat="45.91249" lon="4.81608">
        <ele>170</ele>
        <time>2018-08-28T08:45:17Z</time>
      </trkpt>
      <trkpt lat="45.91243" lon="4.81608">
        <ele>170</ele>
        <time>2018-08-28T08:45:18Z</time>
      </trkpt>
      <trkpt lat="45.91236" lon="4.81609">
        <ele>170</ele>
        <time>2018-08-28T08:45:19Z</time>
      </trkpt>
      <trkpt lat="45.91229" lon="4.81608">
        <ele>170</ele>
        <time>2018-08-28T08:45:20Z</time>
      </trkpt>
      <trkpt lat="45.91222" lon="4.81607">
        <ele>170</ele>
        <time>2018-08-28T08:45:21Z</time>
      </trkpt>
      <trkpt lat="45.91216" lon="4.81607">
        <ele>170</ele>
        <time>2018-08-28T08:45:22Z</time>
      </trkpt>
      <trkpt lat="45.91209" lon="4.81607">
        <ele>170</ele>
        <time>2018-08-28T08:45:23Z</time>
      </trkpt>
      <trkpt lat="45.91202" lon="4.81608">
        <ele>170</ele>
        <time>2018-08-28T08:45:24Z</time>
      </trkpt>
      <trkpt lat="45.91195" lon="4.81606">
        <ele>170</ele>
        <time>2018-08-28T08:45:25Z</time>
      </trkpt>
      <trkpt lat="45.91189" lon="4.81606">
        <ele>170</ele>
        <time>2018-08-28T08:45:26Z</time>
      </trkpt>
      <trkpt lat="45.91182" lon="4.81606">
        <ele>170</ele>
        <time>2018-08-28T08:45:27Z</time>
      </trkpt>
      <trkpt lat="45.91175" lon="4.81606">
        <ele>170</ele>
        <time>2018-08-28T08:45:28Z</time>
      </trkpt>
      <trkpt lat="45.91168" lon="4.81606">
        <ele>170</ele>
        <time>2018-08-28T08:45:29Z</time>
      </trkpt>
      <trkpt lat="45.91162" lon="4.81606">
        <ele>170</ele>
        <time>2018-08-28T08:45:30Z</time>
      </trkpt>
      <trkpt lat="45.91155" lon="4.81606">
        <ele>170</ele>
        <time>2018-08-28T08:45:31Z</time>
      </trkpt>
      <trkpt lat="45.91148" lon="4.81606">
        <ele>170</ele>
        <time>2018-08-28T08:45:32Z</time>
      </trkpt>
      <trkpt lat="45.91142" lon="4.81606">
        <ele>170</ele>
        <time>2018-08-28T08:45:33Z</time>
      </trkpt>
      <trkpt lat="45.91136" lon="4.81606">
        <ele>170</ele>
        <time>2018-08-28T08:45:34Z</time>
      </trkpt>
      <trkpt lat="45.9113" lon="4.81605">
        <ele>170</ele>
        <time>2018-08-28T08:45:35Z</time>
      </trkpt>
      <trkpt lat="45.91124" lon="4.81605">
        <ele>170</ele>
        <time>2018-08-28T08:45:36Z</time>
      </trkpt>
      <trkpt lat="45.91121" lon="4.81611">
        <ele>170</ele>
        <time>2018-08-28T08:45:37Z</time>
      </trkpt>
      <trkpt lat="45.91114" lon="4.8161">
        <ele>170</ele>
        <time>2018-08-28T08:45:38Z</time>
      </trkpt>
      <trkpt lat="45.91108" lon="4.81609">
        <ele>170</ele>
        <time>2018-08-28T08:45:39Z</time>
      </trkpt>
      <trkpt lat="45.91101" lon="4.81608">
        <ele>169</ele>
        <time>2018-08-28T08:45:40Z</time>
      </trkpt>
      <trkpt lat="45.91095" lon="4.81607">
        <ele>169</ele>
        <time>2018-08-28T08:45:41Z</time>
      </trkpt>
      <trkpt lat="45.91089" lon="4.81607">
        <ele>169</ele>
        <time>2018-08-28T08:45:42Z</time>
      </trkpt>
      <trkpt lat="45.91082" lon="4.81605">
        <ele>169</ele>
        <time>2018-08-28T08:45:43Z</time>
      </trkpt>
      <trkpt lat="45.91078" lon="4.81608">
        <ele>169</ele>
        <time>2018-08-28T08:45:44Z</time>
      </trkpt>
      <trkpt lat="45.91072" lon="4.81607">
        <ele>169</ele>
        <time>2018-08-28T08:45:45Z</time>
      </trkpt>
      <trkpt lat="45.91065" lon="4.81606">
        <ele>169</ele>
        <time>2018-08-28T08:45:46Z</time>
      </trkpt>
      <trkpt lat="45.91058" lon="4.81604">
        <ele>169</ele>
        <time>2018-08-28T08:45:47Z</time>
      </trkpt>
      <trkpt lat="45.91052" lon="4.81603">
        <ele>169</ele>
        <time>2018-08-28T08:45:48Z</time>
      </trkpt>
      <trkpt lat="45.91046" lon="4.81602">
        <ele>169</ele>
        <time>2018-08-28T08:45:49Z</time>
      </trkpt>
      <trkpt lat="45.9104" lon="4.81601">
        <ele>169</ele>
        <time>2018-08-28T08:45:50Z</time>
      </trkpt>
      <trkpt lat="45.91033" lon="4.81599">
        <ele>169</ele>
        <time>2018-08-28T08:45:51Z</time>
      </trkpt>
      <trkpt lat="45.91026" lon="4.81597">
        <ele>169</ele>
        <time>2018-08-28T08:45:52Z</time>
      </trkpt>
      <trkpt lat="45.91017" lon="4.81594">
        <ele>169</ele>
        <time>2018-08-28T08:45:53Z</time>
      </trkpt>
      <trkpt lat="45.91009" lon="4.81593">
        <ele>169</ele>
        <time>2018-08-28T08:45:54Z</time>
      </trkpt>
      <trkpt lat="45.91003" lon="4.81592">
        <ele>169</ele>
        <time>2018-08-28T08:45:55Z</time>
      </trkpt>
      <trkpt lat="45.90997" lon="4.81591">
        <ele>169</ele>
        <time>2018-08-28T08:45:56Z</time>
      </trkpt>
      <trkpt lat="45.90992" lon="4.81591">
        <ele>169</ele>
        <time>2018-08-28T08:45:57Z</time>
      </trkpt>
      <trkpt lat="45.90987" lon="4.81589">
        <ele>169</ele>
        <time>2018-08-28T08:45:58Z</time>
      </trkpt>
      <trkpt lat="45.90982" lon="4.81588">
        <ele>169</ele>
        <time>2018-08-28T08:45:59Z</time>
      </trkpt>
      <trkpt lat="45.90976" lon="4.8159">
        <ele>169</ele>
        <time>2018-08-28T08:46:00Z</time>
      </trkpt>
      <trkpt lat="45.90971" lon="4.8159">
        <ele>169</ele>
        <time>2018-08-28T08:46:01Z</time>
      </trkpt>
      <trkpt lat="45.90965" lon="4.8159">
        <ele>169</ele>
        <time>2018-08-28T08:46:02Z</time>
      </trkpt>
      <trkpt lat="45.9096" lon="4.81588">
        <ele>169</ele>
        <time>2018-08-28T08:46:03Z</time>
      </trkpt>
      <trkpt lat="45.90955" lon="4.81586">
        <ele>169</ele>
        <time>2018-08-28T08:46:04Z</time>
      </trkpt>
      <trkpt lat="45.9095" lon="4.81585">
        <ele>169</ele>
        <time>2018-08-28T08:46:05Z</time>
      </trkpt>
      <trkpt lat="45.90943" lon="4.81581">
        <ele>169</ele>
        <time>2018-08-28T08:46:07Z</time>
      </trkpt>
      <trkpt lat="45.90941" lon="4.81581">
        <ele>170</ele>
        <time>2018-08-28T08:46:08Z</time>
      </trkpt>
      <trkpt lat="45.90935" lon="4.8158">
        <ele>170</ele>
        <time>2018-08-28T08:46:10Z</time>
      </trkpt>
      <trkpt lat="45.90925" lon="4.81578">
        <ele>170</ele>
        <time>2018-08-28T08:46:11Z</time>
      </trkpt>
      <trkpt lat="45.90922" lon="4.81578">
        <ele>170</ele>
        <time>2018-08-28T08:46:12Z</time>
      </trkpt>
      <trkpt lat="45.90916" lon="4.81579">
        <ele>170</ele>
        <time>2018-08-28T08:46:13Z</time>
      </trkpt>
      <trkpt lat="45.90911" lon="4.81578">
        <ele>170</ele>
        <time>2018-08-28T08:46:14Z</time>
      </trkpt>
      <trkpt lat="45.90905" lon="4.81579">
        <ele>170</ele>
        <time>2018-08-28T08:46:15Z</time>
      </trkpt>
      <trkpt lat="45.90899" lon="4.81577">
        <ele>170</ele>
        <time>2018-08-28T08:46:16Z</time>
      </trkpt>
      <trkpt lat="45.90894" lon="4.81578">
        <ele>170</ele>
        <time>2018-08-28T08:46:17Z</time>
      </trkpt>
      <trkpt lat="45.90889" lon="4.81577">
        <ele>170</ele>
        <time>2018-08-28T08:46:18Z</time>
      </trkpt>
      <trkpt lat="45.90883" lon="4.81576">
        <ele>171</ele>
        <time>2018-08-28T08:46:19Z</time>
      </trkpt>
      <trkpt lat="45.90877" lon="4.81576">
        <ele>171</ele>
        <time>2018-08-28T08:46:20Z</time>
      </trkpt>
      <trkpt lat="45.9087" lon="4.81575">
        <ele>171</ele>
        <time>2018-08-28T08:46:21Z</time>
      </trkpt>
      <trkpt lat="45.90861" lon="4.81576">
        <ele>171</ele>
        <time>2018-08-28T08:46:23Z</time>
      </trkpt>
      <trkpt lat="45.90855" lon="4.81575">
        <ele>171</ele>
        <time>2018-08-28T08:46:24Z</time>
      </trkpt>
      <trkpt lat="45.90849" lon="4.81575">
        <ele>172</ele>
        <time>2018-08-28T08:46:25Z</time>
      </trkpt>
      <trkpt lat="45.90845" lon="4.81575">
        <ele>172</ele>
        <time>2018-08-28T08:46:26Z</time>
      </trkpt>
      <trkpt lat="45.90836" lon="4.81575">
        <ele>172</ele>
        <time>2018-08-28T08:46:28Z</time>
      </trkpt>
      <trkpt lat="45.90831" lon="4.81575">
        <ele>173</ele>
        <time>2018-08-28T08:46:29Z</time>
      </trkpt>
      <trkpt lat="45.90825" lon="4.8158">
        <ele>173</ele>
        <time>2018-08-28T08:46:30Z</time>
      </trkpt>
      <trkpt lat="45.9082" lon="4.81579">
        <ele>173</ele>
        <time>2018-08-28T08:46:31Z</time>
      </trkpt>
      <trkpt lat="45.90815" lon="4.81579">
        <ele>173</ele>
        <time>2018-08-28T08:46:32Z</time>
      </trkpt>
      <trkpt lat="45.9081" lon="4.8158">
        <ele>172</ele>
        <time>2018-08-28T08:46:33Z</time>
      </trkpt>
      <trkpt lat="45.90805" lon="4.8158">
        <ele>172</ele>
        <time>2018-08-28T08:46:34Z</time>
      </trkpt>
      <trkpt lat="45.90799" lon="4.81579">
        <ele>172</ele>
        <time>2018-08-28T08:46:35Z</time>
      </trkpt>
      <trkpt lat="45.90796" lon="4.81578">
        <ele>172</ele>
        <time>2018-08-28T08:46:36Z</time>
      </trkpt>
      <trkpt lat="45.90791" lon="4.81574">
        <ele>173</ele>
        <time>2018-08-28T08:46:37Z</time>
      </trkpt>
      <trkpt lat="45.90786" lon="4.81573">
        <ele>173</ele>
        <time>2018-08-28T08:46:38Z</time>
      </trkpt>
      <trkpt lat="45.90781" lon="4.81573">
        <ele>173</ele>
        <time>2018-08-28T08:46:39Z</time>
      </trkpt>
      <trkpt lat="45.90778" lon="4.81574">
        <ele>173</ele>
        <time>2018-08-28T08:46:40Z</time>
      </trkpt>
      <trkpt lat="45.90772" lon="4.81575">
        <ele>173</ele>
        <time>2018-08-28T08:46:41Z</time>
      </trkpt>
      <trkpt lat="45.90763" lon="4.81575">
        <ele>173</ele>
        <time>2018-08-28T08:46:43Z</time>
      </trkpt>
      <trkpt lat="45.90759" lon="4.81574">
        <ele>173</ele>
        <time>2018-08-28T08:46:44Z</time>
      </trkpt>
      <trkpt lat="45.90751" lon="4.8157">
        <ele>173</ele>
        <time>2018-08-28T08:46:46Z</time>
      </trkpt>
      <trkpt lat="45.90749" lon="4.81569">
        <ele>174</ele>
        <time>2018-08-28T08:46:47Z</time>
      </trkpt>
      <trkpt lat="45.90743" lon="4.81568">
        <ele>174</ele>
        <time>2018-08-28T08:46:48Z</time>
      </trkpt>
      <trkpt lat="45.90739" lon="4.81567">
        <ele>175</ele>
        <time>2018-08-28T08:46:49Z</time>
      </trkpt>
      <trkpt lat="45.90732" lon="4.81568">
        <ele>175</ele>
        <time>2018-08-28T08:46:52Z</time>
      </trkpt>
      <trkpt lat="45.90723" lon="4.81569">
        <ele>175</ele>
        <time>2018-08-28T08:46:53Z</time>
      </trkpt>
      <trkpt lat="45.90716" lon="4.81571">
        <ele>175</ele>
        <time>2018-08-28T08:46:56Z</time>
      </trkpt>
      <trkpt lat="45.90713" lon="4.81572">
        <ele>175</ele>
        <time>2018-08-28T08:46:57Z</time>
      </trkpt>
      <trkpt lat="45.90707" lon="4.81572">
        <ele>176</ele>
        <time>2018-08-28T08:46:59Z</time>
      </trkpt>
      <trkpt lat="45.90704" lon="4.81572">
        <ele>176</ele>
        <time>2018-08-28T08:47:00Z</time>
      </trkpt>
      <trkpt lat="45.90695" lon="4.81572">
        <ele>176</ele>
        <time>2018-08-28T08:47:04Z</time>
      </trkpt>
      <trkpt lat="45.90693" lon="4.81572">
        <ele>176</ele>
        <time>2018-08-28T08:47:05Z</time>
      </trkpt>
      <trkpt lat="45.90686" lon="4.81571">
        <ele>177</ele>
        <time>2018-08-28T08:47:09Z</time>
      </trkpt>
      <trkpt lat="45.90684" lon="4.81571">
        <ele>177</ele>
        <time>2018-08-28T08:47:10Z</time>
      </trkpt>
      <trkpt lat="45.90682" lon="4.81571">
        <ele>177</ele>
        <time>2018-08-28T08:47:11Z</time>
      </trkpt>
      <trkpt lat="45.90671" lon="4.81572">
        <ele>177</ele>
        <time>2018-08-28T08:47:12Z</time>
      </trkpt>
      <trkpt lat="45.90662" lon="4.81573">
        <ele>179</ele>
        <time>2018-08-28T08:47:15Z</time>
      </trkpt>
      <trkpt lat="45.90656" lon="4.81571">
        <ele>179</ele>
        <time>2018-08-28T08:47:16Z</time>
      </trkpt>
      <trkpt lat="45.90647" lon="4.81573">
        <ele>179</ele>
        <time>2018-08-28T08:47:20Z</time>
      </trkpt>
      <trkpt lat="45.90644" lon="4.81573">
        <ele>179</ele>
        <time>2018-08-28T08:47:21Z</time>
      </trkpt>
      <trkpt lat="45.90642" lon="4.81574">
        <ele>179</ele>
        <time>2018-08-28T08:47:22Z</time>
      </trkpt>
      <trkpt lat="45.90631" lon="4.81575">
        <ele>179</ele>
        <time>2018-08-28T08:47:23Z</time>
      </trkpt>
      <trkpt lat="45.90624" lon="4.81576">
        <ele>180</ele>
        <time>2018-08-28T08:47:25Z</time>
      </trkpt>
      <trkpt lat="45.90622" lon="4.81577">
        <ele>180</ele>
        <time>2018-08-28T08:47:26Z</time>
      </trkpt>
      <trkpt lat="45.90617" lon="4.81577">
        <ele>180</ele>
        <time>2018-08-28T08:47:28Z</time>
      </trkpt>
      <trkpt lat="45.9061" lon="4.81578">
        <ele>180</ele>
        <time>2018-08-28T08:47:29Z</time>
      </trkpt>
      <trkpt lat="45.90604" lon="4.81578">
        <ele>180</ele>
        <time>2018-08-28T08:47:31Z</time>
      </trkpt>
      <trkpt lat="45.90599" lon="4.81579">
        <ele>181</ele>
        <time>2018-08-28T08:47:32Z</time>
      </trkpt>
      <trkpt lat="45.90592" lon="4.8158">
        <ele>181</ele>
        <time>2018-08-28T08:47:34Z</time>
      </trkpt>
      <trkpt lat="45.90587" lon="4.8158">
        <ele>181</ele>
        <time>2018-08-28T08:47:35Z</time>
      </trkpt>
      <trkpt lat="45.90579" lon="4.8158">
        <ele>182</ele>
        <time>2018-08-28T08:47:38Z</time>
      </trkpt>
      <trkpt lat="45.90576" lon="4.8158">
        <ele>182</ele>
        <time>2018-08-28T08:47:39Z</time>
      </trkpt>
      <trkpt lat="45.90568" lon="4.81581">
        <ele>182</ele>
        <time>2018-08-28T08:47:40Z</time>
      </trkpt>
      <trkpt lat="45.90566" lon="4.81581">
        <ele>182</ele>
        <time>2018-08-28T08:47:41Z</time>
      </trkpt>
      <trkpt lat="45.90559" lon="4.8158">
        <ele>181</ele>
        <time>2018-08-28T08:47:44Z</time>
      </trkpt>
      <trkpt lat="45.90552" lon="4.81581">
        <ele>181</ele>
        <time>2018-08-28T08:47:45Z</time>
      </trkpt>
      <trkpt lat="45.90546" lon="4.81581">
        <ele>181</ele>
        <time>2018-08-28T08:47:47Z</time>
      </trkpt>
      <trkpt lat="45.90541" lon="4.81582">
        <ele>181</ele>
        <time>2018-08-28T08:47:48Z</time>
      </trkpt>
      <trkpt lat="45.90533" lon="4.81582">
        <ele>181</ele>
        <time>2018-08-28T08:47:50Z</time>
      </trkpt>
      <trkpt lat="45.90529" lon="4.81582">
        <ele>181</ele>
        <time>2018-08-28T08:47:51Z</time>
      </trkpt>
      <trkpt lat="45.90523" lon="4.81582">
        <ele>181</ele>
        <time>2018-08-28T08:47:53Z</time>
      </trkpt>
      <trkpt lat="45.90517" lon="4.81582">
        <ele>181</ele>
        <time>2018-08-28T08:47:54Z</time>
      </trkpt>
      <trkpt lat="45.90509" lon="4.81581">
        <ele>181</ele>
        <time>2018-08-28T08:47:55Z</time>
      </trkpt>
      <trkpt lat="45.90505" lon="4.81581">
        <ele>181</ele>
        <time>2018-08-28T08:47:56Z</time>
      </trkpt>
      <trkpt lat="45.90498" lon="4.81583">
        <ele>181</ele>
        <time>2018-08-28T08:47:58Z</time>
      </trkpt>
      <trkpt lat="45.90494" lon="4.81584">
        <ele>181</ele>
        <time>2018-08-28T08:47:59Z</time>
      </trkpt>
      <trkpt lat="45.90485" lon="4.81585">
        <ele>182</ele>
        <time>2018-08-28T08:48:02Z</time>
      </trkpt>
      <trkpt lat="45.90476" lon="4.81584">
        <ele>182</ele>
        <time>2018-08-28T08:48:03Z</time>
      </trkpt>
      <trkpt lat="45.90468" lon="4.81583">
        <ele>181</ele>
        <time>2018-08-28T08:48:05Z</time>
      </trkpt>
      <trkpt lat="45.90465" lon="4.81584">
        <ele>182</ele>
        <time>2018-08-28T08:48:06Z</time>
      </trkpt>
      <trkpt lat="45.90459" lon="4.81581">
        <ele>181</ele>
        <time>2018-08-28T08:48:07Z</time>
      </trkpt>
      <trkpt lat="45.90454" lon="4.8158">
        <ele>181</ele>
        <time>2018-08-28T08:48:08Z</time>
      </trkpt>
      <trkpt lat="45.90447" lon="4.81581">
        <ele>181</ele>
        <time>2018-08-28T08:48:12Z</time>
      </trkpt>
      <trkpt lat="45.90439" lon="4.81582">
        <ele>182</ele>
        <time>2018-08-28T08:48:13Z</time>
      </trkpt>
      <trkpt lat="45.90432" lon="4.81581">
        <ele>182</ele>
        <time>2018-08-28T08:48:14Z</time>
      </trkpt>
      <trkpt lat="45.90428" lon="4.81581">
        <ele>182</ele>
        <time>2018-08-28T08:48:15Z</time>
      </trkpt>
      <trkpt lat="45.90422" lon="4.81582">
        <ele>182</ele>
        <time>2018-08-28T08:48:16Z</time>
      </trkpt>
      <trkpt lat="45.90417" lon="4.81584">
        <ele>182</ele>
        <time>2018-08-28T08:48:17Z</time>
      </trkpt>
      <trkpt lat="45.90411" lon="4.81585">
        <ele>182</ele>
        <time>2018-08-28T08:48:18Z</time>
      </trkpt>
      <trkpt lat="45.90407" lon="4.81585">
        <ele>182</ele>
        <time>2018-08-28T08:48:19Z</time>
      </trkpt>
      <trkpt lat="45.90401" lon="4.81585">
        <ele>182</ele>
        <time>2018-08-28T08:48:20Z</time>
      </trkpt>
      <trkpt lat="45.90396" lon="4.81586">
        <ele>182</ele>
        <time>2018-08-28T08:48:21Z</time>
      </trkpt>
      <trkpt lat="45.90388" lon="4.81591">
        <ele>182</ele>
        <time>2018-08-28T08:48:23Z</time>
      </trkpt>
      <trkpt lat="45.90382" lon="4.81593">
        <ele>182</ele>
        <time>2018-08-28T08:48:24Z</time>
      </trkpt>
      <trkpt lat="45.90377" lon="4.81595">
        <ele>182</ele>
        <time>2018-08-28T08:48:25Z</time>
      </trkpt>
      <trkpt lat="45.90371" lon="4.81598">
        <ele>182</ele>
        <time>2018-08-28T08:48:26Z</time>
      </trkpt>
      <trkpt lat="45.90365" lon="4.81599">
        <ele>182</ele>
        <time>2018-08-28T08:48:27Z</time>
      </trkpt>
      <trkpt lat="45.90361" lon="4.81601">
        <ele>182</ele>
        <time>2018-08-28T08:48:28Z</time>
      </trkpt>
      <trkpt lat="45.90356" lon="4.81603">
        <ele>182</ele>
        <time>2018-08-28T08:48:29Z</time>
      </trkpt>
      <trkpt lat="45.90352" lon="4.81605">
        <ele>182</ele>
        <time>2018-08-28T08:48:30Z</time>
      </trkpt>
      <trkpt lat="45.90346" lon="4.81608">
        <ele>182</ele>
        <time>2018-08-28T08:48:31Z</time>
      </trkpt>
      <trkpt lat="45.9034" lon="4.81609">
        <ele>182</ele>
        <time>2018-08-28T08:48:32Z</time>
      </trkpt>
      <trkpt lat="45.90332" lon="4.81609">
        <ele>182</ele>
        <time>2018-08-28T08:48:33Z</time>
      </trkpt>
      <trkpt lat="45.90328" lon="4.81613">
        <ele>182</ele>
        <time>2018-08-28T08:48:34Z</time>
      </trkpt>
      <trkpt lat="45.90323" lon="4.81613">
        <ele>182</ele>
        <time>2018-08-28T08:48:35Z</time>
      </trkpt>
      <trkpt lat="45.90318" lon="4.81614">
        <ele>182</ele>
        <time>2018-08-28T08:48:36Z</time>
      </trkpt>
      <trkpt lat="45.90311" lon="4.81614">
        <ele>182</ele>
        <time>2018-08-28T08:48:37Z</time>
      </trkpt>
      <trkpt lat="45.90306" lon="4.81614">
        <ele>182</ele>
        <time>2018-08-28T08:48:38Z</time>
      </trkpt>
      <trkpt lat="45.90301" lon="4.81613">
        <ele>182</ele>
        <time>2018-08-28T08:48:39Z</time>
      </trkpt>
      <trkpt lat="45.90296" lon="4.81612">
        <ele>182</ele>
        <time>2018-08-28T08:48:40Z</time>
      </trkpt>
      <trkpt lat="45.90288" lon="4.81612">
        <ele>182</ele>
        <time>2018-08-28T08:48:42Z</time>
      </trkpt>
      <trkpt lat="45.90282" lon="4.81613">
        <ele>182</ele>
        <time>2018-08-28T08:48:43Z</time>
      </trkpt>
      <trkpt lat="45.90277" lon="4.81614">
        <ele>181</ele>
        <time>2018-08-28T08:48:44Z</time>
      </trkpt>
      <trkpt lat="45.90274" lon="4.81623">
        <ele>182</ele>
        <time>2018-08-28T08:48:45Z</time>
      </trkpt>
      <trkpt lat="45.90272" lon="4.81629">
        <ele>182</ele>
        <time>2018-08-28T08:48:46Z</time>
      </trkpt>
      <trkpt lat="45.9027" lon="4.81637">
        <ele>182</ele>
        <time>2018-08-28T08:48:47Z</time>
      </trkpt>
      <trkpt lat="45.9027" lon="4.81643">
        <ele>182</ele>
        <time>2018-08-28T08:48:48Z</time>
      </trkpt>
      <trkpt lat="45.90271" lon="4.8165">
        <ele>182</ele>
        <time>2018-08-28T08:48:49Z</time>
      </trkpt>
      <trkpt lat="45.90275" lon="4.81655">
        <ele>182</ele>
        <time>2018-08-28T08:48:50Z</time>
      </trkpt>
      <trkpt lat="45.90281" lon="4.81661">
        <ele>182</ele>
        <time>2018-08-28T08:48:51Z</time>
      </trkpt>
      <trkpt lat="45.90287" lon="4.81664">
        <ele>182</ele>
        <time>2018-08-28T08:48:52Z</time>
      </trkpt>
      <trkpt lat="45.90293" lon="4.81667">
        <ele>183</ele>
        <time>2018-08-28T08:48:53Z</time>
      </trkpt>
      <trkpt lat="45.90297" lon="4.81669">
        <ele>183</ele>
        <time>2018-08-28T08:48:54Z</time>
      </trkpt>
      <trkpt lat="45.90302" lon="4.81672">
        <ele>183</ele>
        <time>2018-08-28T08:48:55Z</time>
      </trkpt>
      <trkpt lat="45.90306" lon="4.81673">
        <ele>183</ele>
        <time>2018-08-28T08:48:56Z</time>
      </trkpt>
      <trkpt lat="45.9031" lon="4.81678">
        <ele>183</ele>
        <time>2018-08-28T08:48:57Z</time>
      </trkpt>
      <trkpt lat="45.90317" lon="4.81685">
        <ele>183</ele>
        <time>2018-08-28T08:48:59Z</time>
      </trkpt>
      <trkpt lat="45.90322" lon="4.81688">
        <ele>183</ele>
        <time>2018-08-28T08:49:00Z</time>
      </trkpt>
      <trkpt lat="45.90329" lon="4.81696">
        <ele>183</ele>
        <time>2018-08-28T08:49:02Z</time>
      </trkpt>
      <trkpt lat="45.90332" lon="4.81703">
        <ele>183</ele>
        <time>2018-08-28T08:49:03Z</time>
      </trkpt>
      <trkpt lat="45.90337" lon="4.81708">
        <ele>183</ele>
        <time>2018-08-28T08:49:04Z</time>
      </trkpt>
      <trkpt lat="45.9034" lon="4.81714">
        <ele>183</ele>
        <time>2018-08-28T08:49:05Z</time>
      </trkpt>
      <trkpt lat="45.90344" lon="4.81724">
        <ele>183</ele>
        <time>2018-08-28T08:49:07Z</time>
      </trkpt>
      <trkpt lat="45.90346" lon="4.81731">
        <ele>183</ele>
        <time>2018-08-28T08:49:08Z</time>
      </trkpt>
      <trkpt lat="45.90348" lon="4.81744">
        <ele>183</ele>
        <time>2018-08-28T08:49:10Z</time>
      </trkpt>
      <trkpt lat="45.9035" lon="4.81746">
        <ele>183</ele>
        <time>2018-08-28T08:49:11Z</time>
      </trkpt>
      <trkpt lat="45.90353" lon="4.81758">
        <ele>183</ele>
        <time>2018-08-28T08:49:13Z</time>
      </trkpt>
      <trkpt lat="45.90355" lon="4.81764">
        <ele>183</ele>
        <time>2018-08-28T08:49:14Z</time>
      </trkpt>
      <trkpt lat="45.90358" lon="4.81773">
        <ele>183</ele>
        <time>2018-08-28T08:49:16Z</time>
      </trkpt>
      <trkpt lat="45.90359" lon="4.8178">
        <ele>183</ele>
        <time>2018-08-28T08:49:17Z</time>
      </trkpt>
      <trkpt lat="45.9036" lon="4.81788">
        <ele>183</ele>
        <time>2018-08-28T08:49:18Z</time>
      </trkpt>
      <trkpt lat="45.90363" lon="4.81796">
        <ele>183</ele>
        <time>2018-08-28T08:49:19Z</time>
      </trkpt>
      <trkpt lat="45.90367" lon="4.81808">
        <ele>183</ele>
        <time>2018-08-28T08:49:20Z</time>
      </trkpt>
      <trkpt lat="45.90368" lon="4.81815">
        <ele>183</ele>
        <time>2018-08-28T08:49:21Z</time>
      </trkpt>
      <trkpt lat="45.9037" lon="4.81822">
        <ele>183</ele>
        <time>2018-08-28T08:49:22Z</time>
      </trkpt>
      <trkpt lat="45.90372" lon="4.8183">
        <ele>183</ele>
        <time>2018-08-28T08:49:23Z</time>
      </trkpt>
      <trkpt lat="45.90374" lon="4.81837">
        <ele>183</ele>
        <time>2018-08-28T08:49:24Z</time>
      </trkpt>
      <trkpt lat="45.90375" lon="4.81841">
        <ele>183</ele>
        <time>2018-08-28T08:49:25Z</time>
      </trkpt>
      <trkpt lat="45.90376" lon="4.8185">
        <ele>183</ele>
        <time>2018-08-28T08:49:26Z</time>
      </trkpt>
      <trkpt lat="45.90378" lon="4.81857">
        <ele>183</ele>
        <time>2018-08-28T08:49:27Z</time>
      </trkpt>
      <trkpt lat="45.9038" lon="4.81866">
        <ele>183</ele>
        <time>2018-08-28T08:49:28Z</time>
      </trkpt>
      <trkpt lat="45.90383" lon="4.81874">
        <ele>183</ele>
        <time>2018-08-28T08:49:29Z</time>
      </trkpt>
      <trkpt lat="45.90383" lon="4.8188">
        <ele>183</ele>
        <time>2018-08-28T08:49:30Z</time>
      </trkpt>
      <trkpt lat="45.90384" lon="4.81888">
        <ele>183</ele>
        <time>2018-08-28T08:49:31Z</time>
      </trkpt>
      <trkpt lat="45.90384" lon="4.81895">
        <ele>183</ele>
        <time>2018-08-28T08:49:32Z</time>
      </trkpt>
      <trkpt lat="45.90383" lon="4.81902">
        <ele>183</ele>
        <time>2018-08-28T08:49:33Z</time>
      </trkpt>
      <trkpt lat="45.90383" lon="4.81909">
        <ele>183</ele>
        <time>2018-08-28T08:49:34Z</time>
      </trkpt>
      <trkpt lat="45.90384" lon="4.81917">
        <ele>183</ele>
        <time>2018-08-28T08:49:35Z</time>
      </trkpt>
      <trkpt lat="45.90384" lon="4.81924">
        <ele>183</ele>
        <time>2018-08-28T08:49:36Z</time>
      </trkpt>
      <trkpt lat="45.90383" lon="4.81931">
        <ele>183</ele>
        <time>2018-08-28T08:49:37Z</time>
      </trkpt>
      <trkpt lat="45.90397" lon="4.81936">
        <ele>183</ele>
        <time>2018-08-28T08:49:38Z</time>
      </trkpt>
      <trkpt lat="45.90403" lon="4.81942">
        <ele>183</ele>
        <time>2018-08-28T08:49:39Z</time>
      </trkpt>
      <trkpt lat="45.90406" lon="4.81948">
        <ele>183</ele>
        <time>2018-08-28T08:49:40Z</time>
      </trkpt>
      <trkpt lat="45.90409" lon="4.81955">
        <ele>183</ele>
        <time>2018-08-28T08:49:41Z</time>
      </trkpt>
      <trkpt lat="45.90411" lon="4.81962">
        <ele>183</ele>
        <time>2018-08-28T08:49:42Z</time>
      </trkpt>
      <trkpt lat="45.90414" lon="4.81969">
        <ele>183</ele>
        <time>2018-08-28T08:49:43Z</time>
      </trkpt>
      <trkpt lat="45.90416" lon="4.81975">
        <ele>183</ele>
        <time>2018-08-28T08:49:44Z</time>
      </trkpt>
      <trkpt lat="45.90417" lon="4.81982">
        <ele>184</ele>
        <time>2018-08-28T08:49:45Z</time>
      </trkpt>
      <trkpt lat="45.9042" lon="4.81989">
        <ele>184</ele>
        <time>2018-08-28T08:49:46Z</time>
      </trkpt>
      <trkpt lat="45.90423" lon="4.81995">
        <ele>184</ele>
        <time>2018-08-28T08:49:47Z</time>
      </trkpt>
      <trkpt lat="45.90425" lon="4.82003">
        <ele>184</ele>
        <time>2018-08-28T08:49:48Z</time>
      </trkpt>
      <trkpt lat="45.90428" lon="4.82009">
        <ele>184</ele>
        <time>2018-08-28T08:49:49Z</time>
      </trkpt>
      <trkpt lat="45.90431" lon="4.82016">
        <ele>185</ele>
        <time>2018-08-28T08:49:50Z</time>
      </trkpt>
      <trkpt lat="45.90432" lon="4.82023">
        <ele>185</ele>
        <time>2018-08-28T08:49:51Z</time>
      </trkpt>
      <trkpt lat="45.90435" lon="4.8203">
        <ele>185</ele>
        <time>2018-08-28T08:49:52Z</time>
      </trkpt>
      <trkpt lat="45.90437" lon="4.82036">
        <ele>185</ele>
        <time>2018-08-28T08:49:53Z</time>
      </trkpt>
      <trkpt lat="45.90439" lon="4.82042">
        <ele>185</ele>
        <time>2018-08-28T08:49:54Z</time>
      </trkpt>
      <trkpt lat="45.90441" lon="4.82048">
        <ele>185</ele>
        <time>2018-08-28T08:49:55Z</time>
      </trkpt>
      <trkpt lat="45.90443" lon="4.82054">
        <ele>186</ele>
        <time>2018-08-28T08:49:56Z</time>
      </trkpt>
      <trkpt lat="45.90447" lon="4.82059">
        <ele>186</ele>
        <time>2018-08-28T08:49:57Z</time>
      </trkpt>
      <trkpt lat="45.90449" lon="4.82066">
        <ele>186</ele>
        <time>2018-08-28T08:49:58Z</time>
      </trkpt>
      <trkpt lat="45.90452" lon="4.82072">
        <ele>186</ele>
        <time>2018-08-28T08:49:59Z</time>
      </trkpt>
      <trkpt lat="45.90454" lon="4.82078">
        <ele>186</ele>
        <time>2018-08-28T08:50:00Z</time>
      </trkpt>
      <trkpt lat="45.90457" lon="4.82085">
        <ele>187</ele>
        <time>2018-08-28T08:50:01Z</time>
      </trkpt>
      <trkpt lat="45.90459" lon="4.82091">
        <ele>187</ele>
        <time>2018-08-28T08:50:02Z</time>
      </trkpt>
      <trkpt lat="45.90464" lon="4.82099">
        <ele>187</ele>
        <time>2018-08-28T08:50:04Z</time>
      </trkpt>
      <trkpt lat="45.90467" lon="4.82104">
        <ele>187</ele>
        <time>2018-08-28T08:50:05Z</time>
      </trkpt>
      <trkpt lat="45.90468" lon="4.82111">
        <ele>187</ele>
        <time>2018-08-28T08:50:06Z</time>
      </trkpt>
      <trkpt lat="45.90471" lon="4.82116">
        <ele>187</ele>
        <time>2018-08-28T08:50:07Z</time>
      </trkpt>
      <trkpt lat="45.90473" lon="4.82122">
        <ele>187</ele>
        <time>2018-08-28T08:50:08Z</time>
      </trkpt>
      <trkpt lat="45.90476" lon="4.82127">
        <ele>187</ele>
        <time>2018-08-28T08:50:09Z</time>
      </trkpt>
      <trkpt lat="45.90482" lon="4.82134">
        <ele>187</ele>
        <time>2018-08-28T08:50:11Z</time>
      </trkpt>
      <trkpt lat="45.90483" lon="4.82139">
        <ele>187</ele>
        <time>2018-08-28T08:50:12Z</time>
      </trkpt>
      <trkpt lat="45.90489" lon="4.82147">
        <ele>187</ele>
        <time>2018-08-28T08:50:14Z</time>
      </trkpt>
      <trkpt lat="45.90495" lon="4.82154">
        <ele>188</ele>
        <time>2018-08-28T08:50:15Z</time>
      </trkpt>
      <trkpt lat="45.90501" lon="4.82158">
        <ele>188</ele>
        <time>2018-08-28T08:50:17Z</time>
      </trkpt>
      <trkpt lat="45.90504" lon="4.82161">
        <ele>188</ele>
        <time>2018-08-28T08:50:18Z</time>
      </trkpt>
      <trkpt lat="45.90512" lon="4.82164">
        <ele>188</ele>
        <time>2018-08-28T08:50:21Z</time>
      </trkpt>
      <trkpt lat="45.90521" lon="4.82167">
        <ele>189</ele>
        <time>2018-08-28T08:50:22Z</time>
      </trkpt>
      <trkpt lat="45.90529" lon="4.8217">
        <ele>190</ele>
        <time>2018-08-28T08:50:24Z</time>
      </trkpt>
      <trkpt lat="45.90534" lon="4.82173">
        <ele>190</ele>
        <time>2018-08-28T08:50:25Z</time>
      </trkpt>
      <trkpt lat="45.90539" lon="4.82174">
        <ele>190</ele>
        <time>2018-08-28T08:50:26Z</time>
      </trkpt>
      <trkpt lat="45.90543" lon="4.82174">
        <ele>190</ele>
        <time>2018-08-28T08:50:27Z</time>
      </trkpt>
      <trkpt lat="45.90549" lon="4.82177">
        <ele>190</ele>
        <time>2018-08-28T08:50:29Z</time>
      </trkpt>
      <trkpt lat="45.90553" lon="4.82179">
        <ele>190</ele>
        <time>2018-08-28T08:50:30Z</time>
      </trkpt>
      <trkpt lat="45.9056" lon="4.82185">
        <ele>190</ele>
        <time>2018-08-28T08:50:32Z</time>
      </trkpt>
      <trkpt lat="45.90562" lon="4.82186">
        <ele>190</ele>
        <time>2018-08-28T08:50:33Z</time>
      </trkpt>
      <trkpt lat="45.90567" lon="4.82187">
        <ele>191</ele>
        <time>2018-08-28T08:50:35Z</time>
      </trkpt>
      <trkpt lat="45.90573" lon="4.82191">
        <ele>191</ele>
        <time>2018-08-28T08:50:36Z</time>
      </trkpt>
      <trkpt lat="45.90578" lon="4.82196">
        <ele>191</ele>
        <time>2018-08-28T08:50:38Z</time>
      </trkpt>
      <trkpt lat="45.90581" lon="4.822">
        <ele>191</ele>
        <time>2018-08-28T08:50:39Z</time>
      </trkpt>
      <trkpt lat="45.90587" lon="4.82208">
        <ele>192</ele>
        <time>2018-08-28T08:50:41Z</time>
      </trkpt>
      <trkpt lat="45.90589" lon="4.82212">
        <ele>192</ele>
        <time>2018-08-28T08:50:42Z</time>
      </trkpt>
      <trkpt lat="45.90593" lon="4.8222">
        <ele>192</ele>
        <time>2018-08-28T08:50:44Z</time>
      </trkpt>
      <trkpt lat="45.90596" lon="4.82224">
        <ele>192</ele>
        <time>2018-08-28T08:50:45Z</time>
      </trkpt>
      <trkpt lat="45.906" lon="4.82233">
        <ele>192</ele>
        <time>2018-08-28T08:50:47Z</time>
      </trkpt>
      <trkpt lat="45.90602" lon="4.82237">
        <ele>192</ele>
        <time>2018-08-28T08:50:48Z</time>
      </trkpt>
      <trkpt lat="45.90606" lon="4.82247">
        <ele>192</ele>
        <time>2018-08-28T08:50:50Z</time>
      </trkpt>
      <trkpt lat="45.90607" lon="4.82252">
        <ele>193</ele>
        <time>2018-08-28T08:50:51Z</time>
      </trkpt>
      <trkpt lat="45.90609" lon="4.82262">
        <ele>193</ele>
        <time>2018-08-28T08:50:53Z</time>
      </trkpt>
      <trkpt lat="45.90611" lon="4.82267">
        <ele>193</ele>
        <time>2018-08-28T08:50:54Z</time>
      </trkpt>
      <trkpt lat="45.90612" lon="4.82279">
        <ele>194</ele>
        <time>2018-08-28T08:50:56Z</time>
      </trkpt>
      <trkpt lat="45.90611" lon="4.82287">
        <ele>194</ele>
        <time>2018-08-28T08:50:57Z</time>
      </trkpt>
      <trkpt lat="45.90611" lon="4.82299">
        <ele>194</ele>
        <time>2018-08-28T08:50:59Z</time>
      </trkpt>
      <trkpt lat="45.90612" lon="4.82304">
        <ele>194</ele>
        <time>2018-08-28T08:51:00Z</time>
      </trkpt>
      <trkpt lat="45.90611" lon="4.82315">
        <ele>194</ele>
        <time>2018-08-28T08:51:03Z</time>
      </trkpt>
      <trkpt lat="45.90611" lon="4.82317">
        <ele>194</ele>
        <time>2018-08-28T08:51:04Z</time>
      </trkpt>
      <trkpt lat="45.90613" lon="4.8233">
        <ele>194</ele>
        <time>2018-08-28T08:51:05Z</time>
      </trkpt>
      <trkpt lat="45.90613" lon="4.82337">
        <ele>195</ele>
        <time>2018-08-28T08:51:06Z</time>
      </trkpt>
      <trkpt lat="45.90612" lon="4.82348">
        <ele>195</ele>
        <time>2018-08-28T08:51:08Z</time>
      </trkpt>
      <trkpt lat="45.90611" lon="4.82354">
        <ele>195</ele>
        <time>2018-08-28T08:51:09Z</time>
      </trkpt>
      <trkpt lat="45.90611" lon="4.82367">
        <ele>195</ele>
        <time>2018-08-28T08:51:11Z</time>
      </trkpt>
      <trkpt lat="45.90611" lon="4.82375">
        <ele>195</ele>
        <time>2018-08-28T08:51:12Z</time>
      </trkpt>
      <trkpt lat="45.90612" lon="4.82383">
        <ele>196</ele>
        <time>2018-08-28T08:51:13Z</time>
      </trkpt>
      <trkpt lat="45.90612" lon="4.82388">
        <ele>196</ele>
        <time>2018-08-28T08:51:14Z</time>
      </trkpt>
      <trkpt lat="45.90611" lon="4.824">
        <ele>195</ele>
        <time>2018-08-28T08:51:17Z</time>
      </trkpt>
      <trkpt lat="45.90611" lon="4.82404">
        <ele>195</ele>
        <time>2018-08-28T08:51:18Z</time>
      </trkpt>
      <trkpt lat="45.90612" lon="4.82409">
        <ele>195</ele>
        <time>2018-08-28T08:51:19Z</time>
      </trkpt>
      <trkpt lat="45.90613" lon="4.8242">
        <ele>196</ele>
        <time>2018-08-28T08:51:20Z</time>
      </trkpt>
      <trkpt lat="45.90613" lon="4.82433">
        <ele>196</ele>
        <time>2018-08-28T08:51:24Z</time>
      </trkpt>
      <trkpt lat="45.90612" lon="4.82436">
        <ele>196</ele>
        <time>2018-08-28T08:51:25Z</time>
      </trkpt>
      <trkpt lat="45.90608" lon="4.82447">
        <ele>196</ele>
        <time>2018-08-28T08:51:26Z</time>
      </trkpt>
      <trkpt lat="45.90605" lon="4.8245">
        <ele>196</ele>
        <time>2018-08-28T08:51:27Z</time>
      </trkpt>
      <trkpt lat="45.906" lon="4.8246">
        <ele>196</ele>
        <time>2018-08-28T08:51:29Z</time>
      </trkpt>
      <trkpt lat="45.90598" lon="4.82465">
        <ele>196</ele>
        <time>2018-08-28T08:51:30Z</time>
      </trkpt>
      <trkpt lat="45.90596" lon="4.82476">
        <ele>196</ele>
        <time>2018-08-28T08:51:32Z</time>
      </trkpt>
      <trkpt lat="45.90598" lon="4.82482">
        <ele>195</ele>
        <time>2018-08-28T08:51:33Z</time>
      </trkpt>
      <trkpt lat="45.90602" lon="4.82493">
        <ele>195</ele>
        <time>2018-08-28T08:51:35Z</time>
      </trkpt>
      <trkpt lat="45.90603" lon="4.82498">
        <ele>195</ele>
        <time>2018-08-28T08:51:36Z</time>
      </trkpt>
      <trkpt lat="45.90605" lon="4.8251">
        <ele>196</ele>
        <time>2018-08-28T08:51:38Z</time>
      </trkpt>
      <trkpt lat="45.90607" lon="4.82515">
        <ele>196</ele>
        <time>2018-08-28T08:51:39Z</time>
      </trkpt>
      <trkpt lat="45.90609" lon="4.82527">
        <ele>196</ele>
        <time>2018-08-28T08:51:41Z</time>
      </trkpt>
      <trkpt lat="45.9061" lon="4.82535">
        <ele>196</ele>
        <time>2018-08-28T08:51:42Z</time>
      </trkpt>
      <trkpt lat="45.9061" lon="4.82541">
        <ele>196</ele>
        <time>2018-08-28T08:51:43Z</time>
      </trkpt>
      <trkpt lat="45.90611" lon="4.82548">
        <ele>196</ele>
        <time>2018-08-28T08:51:44Z</time>
      </trkpt>
      <trkpt lat="45.90613" lon="4.82554">
        <ele>196</ele>
        <time>2018-08-28T08:51:45Z</time>
      </trkpt>
      <trkpt lat="45.90614" lon="4.8256">
        <ele>196</ele>
        <time>2018-08-28T08:51:46Z</time>
      </trkpt>
      <trkpt lat="45.90615" lon="4.82571">
        <ele>196</ele>
        <time>2018-08-28T08:51:48Z</time>
      </trkpt>
      <trkpt lat="45.90615" lon="4.82577">
        <ele>196</ele>
        <time>2018-08-28T08:51:49Z</time>
      </trkpt>
      <trkpt lat="45.90615" lon="4.82588">
        <ele>197</ele>
        <time>2018-08-28T08:51:51Z</time>
      </trkpt>
      <trkpt lat="45.90616" lon="4.82594">
        <ele>197</ele>
        <time>2018-08-28T08:51:52Z</time>
      </trkpt>
      <trkpt lat="45.90617" lon="4.82601">
        <ele>197</ele>
        <time>2018-08-28T08:51:53Z</time>
      </trkpt>
      <trkpt lat="45.90618" lon="4.82607">
        <ele>197</ele>
        <time>2018-08-28T08:51:54Z</time>
      </trkpt>
      <trkpt lat="45.90619" lon="4.82619">
        <ele>197</ele>
        <time>2018-08-28T08:51:56Z</time>
      </trkpt>
      <trkpt lat="45.9062" lon="4.82624">
        <ele>197</ele>
        <time>2018-08-28T08:51:57Z</time>
      </trkpt>
      <trkpt lat="45.90621" lon="4.82637">
        <ele>197</ele>
        <time>2018-08-28T08:51:59Z</time>
      </trkpt>
      <trkpt lat="45.90622" lon="4.82642">
        <ele>197</ele>
        <time>2018-08-28T08:52:00Z</time>
      </trkpt>
      <trkpt lat="45.90624" lon="4.82653">
        <ele>198</ele>
        <time>2018-08-28T08:52:02Z</time>
      </trkpt>
      <trkpt lat="45.90625" lon="4.82659">
        <ele>198</ele>
        <time>2018-08-28T08:52:03Z</time>
      </trkpt>
      <trkpt lat="45.90627" lon="4.8267">
        <ele>199</ele>
        <time>2018-08-28T08:52:05Z</time>
      </trkpt>
      <trkpt lat="45.90628" lon="4.82676">
        <ele>199</ele>
        <time>2018-08-28T08:52:06Z</time>
      </trkpt>
      <trkpt lat="45.9063" lon="4.82689">
        <ele>199</ele>
        <time>2018-08-28T08:52:08Z</time>
      </trkpt>
      <trkpt lat="45.90631" lon="4.82695">
        <ele>199</ele>
        <time>2018-08-28T08:52:09Z</time>
      </trkpt>
      <trkpt lat="45.90633" lon="4.82701">
        <ele>199</ele>
        <time>2018-08-28T08:52:10Z</time>
      </trkpt>
      <trkpt lat="45.90634" lon="4.82708">
        <ele>199</ele>
        <time>2018-08-28T08:52:11Z</time>
      </trkpt>
      <trkpt lat="45.90635" lon="4.82717">
        <ele>199</ele>
        <time>2018-08-28T08:52:13Z</time>
      </trkpt>
      <trkpt lat="45.90637" lon="4.82727">
        <ele>200</ele>
        <time>2018-08-28T08:52:14Z</time>
      </trkpt>
      <trkpt lat="45.90637" lon="4.82738">
        <ele>200</ele>
        <time>2018-08-28T08:52:16Z</time>
      </trkpt>
      <trkpt lat="45.90638" lon="4.82744">
        <ele>200</ele>
        <time>2018-08-28T08:52:17Z</time>
      </trkpt>
      <trkpt lat="45.90639" lon="4.82756">
        <ele>201</ele>
        <time>2018-08-28T08:52:19Z</time>
      </trkpt>
      <trkpt lat="45.9064" lon="4.82761">
        <ele>201</ele>
        <time>2018-08-28T08:52:20Z</time>
      </trkpt>
      <trkpt lat="45.9064" lon="4.82768">
        <ele>201</ele>
        <time>2018-08-28T08:52:21Z</time>
      </trkpt>
      <trkpt lat="45.90642" lon="4.82774">
        <ele>201</ele>
        <time>2018-08-28T08:52:22Z</time>
      </trkpt>
      <trkpt lat="45.90643" lon="4.82784">
        <ele>201</ele>
        <time>2018-08-28T08:52:24Z</time>
      </trkpt>
      <trkpt lat="45.90646" lon="4.82788">
        <ele>201</ele>
        <time>2018-08-28T08:52:25Z</time>
      </trkpt>
      <trkpt lat="45.90648" lon="4.82794">
        <ele>201</ele>
        <time>2018-08-28T08:52:26Z</time>
      </trkpt>
      <trkpt lat="45.90651" lon="4.82799">
        <ele>202</ele>
        <time>2018-08-28T08:52:27Z</time>
      </trkpt>
      <trkpt lat="45.90653" lon="4.82805">
        <ele>202</ele>
        <time>2018-08-28T08:52:28Z</time>
      </trkpt>
      <trkpt lat="45.90655" lon="4.82811">
        <ele>202</ele>
        <time>2018-08-28T08:52:29Z</time>
      </trkpt>
      <trkpt lat="45.90658" lon="4.82816">
        <ele>202</ele>
        <time>2018-08-28T08:52:30Z</time>
      </trkpt>
      <trkpt lat="45.90658" lon="4.82823">
        <ele>203</ele>
        <time>2018-08-28T08:52:31Z</time>
      </trkpt>
      <trkpt lat="45.90662" lon="4.82828">
        <ele>203</ele>
        <time>2018-08-28T08:52:32Z</time>
      </trkpt>
      <trkpt lat="45.90664" lon="4.82834">
        <ele>204</ele>
        <time>2018-08-28T08:52:33Z</time>
      </trkpt>
      <trkpt lat="45.90668" lon="4.82844">
        <ele>204</ele>
        <time>2018-08-28T08:52:35Z</time>
      </trkpt>
      <trkpt lat="45.9067" lon="4.8285">
        <ele>205</ele>
        <time>2018-08-28T08:52:36Z</time>
      </trkpt>
      <trkpt lat="45.90672" lon="4.82856">
        <ele>205</ele>
        <time>2018-08-28T08:52:37Z</time>
      </trkpt>
      <trkpt lat="45.90674" lon="4.82862">
        <ele>205</ele>
        <time>2018-08-28T08:52:38Z</time>
      </trkpt>
      <trkpt lat="45.90676" lon="4.82867">
        <ele>205</ele>
        <time>2018-08-28T08:52:39Z</time>
      </trkpt>
      <trkpt lat="45.90679" lon="4.82873">
        <ele>205</ele>
        <time>2018-08-28T08:52:40Z</time>
      </trkpt>
      <trkpt lat="45.90683" lon="4.82884">
        <ele>204</ele>
        <time>2018-08-28T08:52:42Z</time>
      </trkpt>
      <trkpt lat="45.90685" lon="4.82888">
        <ele>204</ele>
        <time>2018-08-28T08:52:43Z</time>
      </trkpt>
      <trkpt lat="45.90688" lon="4.82898">
        <ele>204</ele>
        <time>2018-08-28T08:52:45Z</time>
      </trkpt>
      <trkpt lat="45.9069" lon="4.82903">
        <ele>204</ele>
        <time>2018-08-28T08:52:46Z</time>
      </trkpt>
      <trkpt lat="45.90694" lon="4.82913">
        <ele>204</ele>
        <time>2018-08-28T08:52:48Z</time>
      </trkpt>
      <trkpt lat="45.90696" lon="4.82918">
        <ele>203</ele>
        <time>2018-08-28T08:52:49Z</time>
      </trkpt>
      <trkpt lat="45.907" lon="4.82928">
        <ele>203</ele>
        <time>2018-08-28T08:52:51Z</time>
      </trkpt>
      <trkpt lat="45.90703" lon="4.82933">
        <ele>203</ele>
        <time>2018-08-28T08:52:52Z</time>
      </trkpt>
      <trkpt lat="45.90707" lon="4.82943">
        <ele>203</ele>
        <time>2018-08-28T08:52:54Z</time>
      </trkpt>
      <trkpt lat="45.9071" lon="4.82947">
        <ele>203</ele>
        <time>2018-08-28T08:52:55Z</time>
      </trkpt>
      <trkpt lat="45.90715" lon="4.82957">
        <ele>203</ele>
        <time>2018-08-28T08:52:57Z</time>
      </trkpt>
      <trkpt lat="45.90717" lon="4.82962">
        <ele>203</ele>
        <time>2018-08-28T08:52:58Z</time>
      </trkpt>
      <trkpt lat="45.90722" lon="4.82971">
        <ele>203</ele>
        <time>2018-08-28T08:53:00Z</time>
      </trkpt>
      <trkpt lat="45.90724" lon="4.82976">
        <ele>203</ele>
        <time>2018-08-28T08:53:01Z</time>
      </trkpt>
      <trkpt lat="45.9073" lon="4.82985">
        <ele>204</ele>
        <time>2018-08-28T08:53:03Z</time>
      </trkpt>
      <trkpt lat="45.90732" lon="4.82989">
        <ele>204</ele>
        <time>2018-08-28T08:53:04Z</time>
      </trkpt>
      <trkpt lat="45.90737" lon="4.82997">
        <ele>204</ele>
        <time>2018-08-28T08:53:06Z</time>
      </trkpt>
      <trkpt lat="45.90739" lon="4.83002">
        <ele>204</ele>
        <time>2018-08-28T08:53:07Z</time>
      </trkpt>
      <trkpt lat="45.90744" lon="4.83011">
        <ele>203</ele>
        <time>2018-08-28T08:53:09Z</time>
      </trkpt>
      <trkpt lat="45.90746" lon="4.83016">
        <ele>203</ele>
        <time>2018-08-28T08:53:10Z</time>
      </trkpt>
      <trkpt lat="45.90751" lon="4.83026">
        <ele>206</ele>
        <time>2018-08-28T08:53:12Z</time>
      </trkpt>
      <trkpt lat="45.90754" lon="4.8303">
        <ele>206</ele>
        <time>2018-08-28T08:53:13Z</time>
      </trkpt>
      <trkpt lat="45.90758" lon="4.83039">
        <ele>206</ele>
        <time>2018-08-28T08:53:15Z</time>
      </trkpt>
      <trkpt lat="45.9076" lon="4.83044">
        <ele>206</ele>
        <time>2018-08-28T08:53:16Z</time>
      </trkpt>
      <trkpt lat="45.90764" lon="4.83053">
        <ele>206</ele>
        <time>2018-08-28T08:53:18Z</time>
      </trkpt>
      <trkpt lat="45.90766" lon="4.83057">
        <ele>206</ele>
        <time>2018-08-28T08:53:19Z</time>
      </trkpt>
      <trkpt lat="45.90769" lon="4.83066">
        <ele>206</ele>
        <time>2018-08-28T08:53:21Z</time>
      </trkpt>
      <trkpt lat="45.9077" lon="4.83071">
        <ele>206</ele>
        <time>2018-08-28T08:53:22Z</time>
      </trkpt>
      <trkpt lat="45.90773" lon="4.83078">
        <ele>206</ele>
        <time>2018-08-28T08:53:24Z</time>
      </trkpt>
      <trkpt lat="45.90775" lon="4.83084">
        <ele>206</ele>
        <time>2018-08-28T08:53:25Z</time>
      </trkpt>
      <trkpt lat="45.90779" lon="4.83096">
        <ele>206</ele>
        <time>2018-08-28T08:53:28Z</time>
      </trkpt>
      <trkpt lat="45.90781" lon="4.83103">
        <ele>206</ele>
        <time>2018-08-28T08:53:29Z</time>
      </trkpt>
      <trkpt lat="45.90785" lon="4.83113">
        <ele>207</ele>
        <time>2018-08-28T08:53:31Z</time>
      </trkpt>
      <trkpt lat="45.90786" lon="4.83118">
        <ele>207</ele>
        <time>2018-08-28T08:53:32Z</time>
      </trkpt>
      <trkpt lat="45.90789" lon="4.83128">
        <ele>207</ele>
        <time>2018-08-28T08:53:34Z</time>
      </trkpt>
      <trkpt lat="45.90791" lon="4.83133">
        <ele>207</ele>
        <time>2018-08-28T08:53:35Z</time>
      </trkpt>
      <trkpt lat="45.90795" lon="4.83143">
        <ele>207</ele>
        <time>2018-08-28T08:53:37Z</time>
      </trkpt>
      <trkpt lat="45.90798" lon="4.83148">
        <ele>207</ele>
        <time>2018-08-28T08:53:38Z</time>
      </trkpt>
      <trkpt lat="45.90802" lon="4.83156">
        <ele>208</ele>
        <time>2018-08-28T08:53:40Z</time>
      </trkpt>
      <trkpt lat="45.90803" lon="4.83159">
        <ele>208</ele>
        <time>2018-08-28T08:53:41Z</time>
      </trkpt>
      <trkpt lat="45.90807" lon="4.83168">
        <ele>208</ele>
        <time>2018-08-28T08:53:43Z</time>
      </trkpt>
      <trkpt lat="45.9081" lon="4.83175">
        <ele>209</ele>
        <time>2018-08-28T08:53:44Z</time>
      </trkpt>
      <trkpt lat="45.90813" lon="4.83185">
        <ele>209</ele>
        <time>2018-08-28T08:53:47Z</time>
      </trkpt>
      <trkpt lat="45.90815" lon="4.83189">
        <ele>209</ele>
        <time>2018-08-28T08:53:48Z</time>
      </trkpt>
      <trkpt lat="45.90818" lon="4.83199">
        <ele>208</ele>
        <time>2018-08-28T08:53:51Z</time>
      </trkpt>
      <trkpt lat="45.90819" lon="4.83204">
        <ele>208</ele>
        <time>2018-08-28T08:53:52Z</time>
      </trkpt>
      <trkpt lat="45.90822" lon="4.83212">
        <ele>208</ele>
        <time>2018-08-28T08:53:54Z</time>
      </trkpt>
      <trkpt lat="45.90827" lon="4.83225">
        <ele>209</ele>
        <time>2018-08-28T08:53:55Z</time>
      </trkpt>
      <trkpt lat="45.90829" lon="4.8323">
        <ele>209</ele>
        <time>2018-08-28T08:53:57Z</time>
      </trkpt>
      <trkpt lat="45.90832" lon="4.83237">
        <ele>209</ele>
        <time>2018-08-28T08:53:58Z</time>
      </trkpt>
      <trkpt lat="45.90835" lon="4.83246">
        <ele>211</ele>
        <time>2018-08-28T08:54:01Z</time>
      </trkpt>
      <trkpt lat="45.90836" lon="4.83249">
        <ele>211</ele>
        <time>2018-08-28T08:54:02Z</time>
      </trkpt>
      <trkpt lat="45.90838" lon="4.83253">
        <ele>211</ele>
        <time>2018-08-28T08:54:03Z</time>
      </trkpt>
      <trkpt lat="45.90843" lon="4.83264">
        <ele>213</ele>
        <time>2018-08-28T08:54:04Z</time>
      </trkpt>
      <trkpt lat="45.90847" lon="4.83273">
        <ele>214</ele>
        <time>2018-08-28T08:54:07Z</time>
      </trkpt>
      <trkpt lat="45.90851" lon="4.83281">
        <ele>215</ele>
        <time>2018-08-28T08:54:08Z</time>
      </trkpt>
      <trkpt lat="45.90855" lon="4.83291">
        <ele>215</ele>
        <time>2018-08-28T08:54:10Z</time>
      </trkpt>
      <trkpt lat="45.90856" lon="4.83296">
        <ele>215</ele>
        <time>2018-08-28T08:54:11Z</time>
      </trkpt>
      <trkpt lat="45.9086" lon="4.83306">
        <ele>215</ele>
        <time>2018-08-28T08:54:13Z</time>
      </trkpt>
      <trkpt lat="45.90861" lon="4.83311">
        <ele>215</ele>
        <time>2018-08-28T08:54:14Z</time>
      </trkpt>
      <trkpt lat="45.90864" lon="4.83321">
        <ele>215</ele>
        <time>2018-08-28T08:54:16Z</time>
      </trkpt>
      <trkpt lat="45.90865" lon="4.83326">
        <ele>216</ele>
        <time>2018-08-28T08:54:17Z</time>
      </trkpt>
      <trkpt lat="45.90868" lon="4.83336">
        <ele>214</ele>
        <time>2018-08-28T08:54:19Z</time>
      </trkpt>
      <trkpt lat="45.9087" lon="4.83342">
        <ele>215</ele>
        <time>2018-08-28T08:54:20Z</time>
      </trkpt>
      <trkpt lat="45.90873" lon="4.83353">
        <ele>215</ele>
        <time>2018-08-28T08:54:22Z</time>
      </trkpt>
      <trkpt lat="45.90876" lon="4.83358">
        <ele>215</ele>
        <time>2018-08-28T08:54:23Z</time>
      </trkpt>
      <trkpt lat="45.9088" lon="4.83369">
        <ele>215</ele>
        <time>2018-08-28T08:54:25Z</time>
      </trkpt>
      <trkpt lat="45.90882" lon="4.83375">
        <ele>215</ele>
        <time>2018-08-28T08:54:26Z</time>
      </trkpt>
      <trkpt lat="45.90886" lon="4.83383">
        <ele>215</ele>
        <time>2018-08-28T08:54:28Z</time>
      </trkpt>
      <trkpt lat="45.90888" lon="4.83389">
        <ele>215</ele>
        <time>2018-08-28T08:54:29Z</time>
      </trkpt>
      <trkpt lat="45.9089" lon="4.83396">
        <ele>215</ele>
        <time>2018-08-28T08:54:30Z</time>
      </trkpt>
      <trkpt lat="45.90891" lon="4.83402">
        <ele>215</ele>
        <time>2018-08-28T08:54:31Z</time>
      </trkpt>
      <trkpt lat="45.90895" lon="4.83413">
        <ele>216</ele>
        <time>2018-08-28T08:54:33Z</time>
      </trkpt>
      <trkpt lat="45.90897" lon="4.83415">
        <ele>216</ele>
        <time>2018-08-28T08:54:34Z</time>
      </trkpt>
      <trkpt lat="45.90901" lon="4.83424">
        <ele>214</ele>
        <time>2018-08-28T08:54:35Z</time>
      </trkpt>
      <trkpt lat="45.90903" lon="4.8343">
        <ele>214</ele>
        <time>2018-08-28T08:54:36Z</time>
      </trkpt>
      <trkpt lat="45.90907" lon="4.8344">
        <ele>214</ele>
        <time>2018-08-28T08:54:38Z</time>
      </trkpt>
      <trkpt lat="45.90909" lon="4.83446">
        <ele>213</ele>
        <time>2018-08-28T08:54:39Z</time>
      </trkpt>
      <trkpt lat="45.90912" lon="4.83452">
        <ele>213</ele>
        <time>2018-08-28T08:54:40Z</time>
      </trkpt>
      <trkpt lat="45.90914" lon="4.83458">
        <ele>213</ele>
        <time>2018-08-28T08:54:41Z</time>
      </trkpt>
      <trkpt lat="45.90917" lon="4.83465">
        <ele>213</ele>
        <time>2018-08-28T08:54:42Z</time>
      </trkpt>
      <trkpt lat="45.90918" lon="4.8347">
        <ele>219</ele>
        <time>2018-08-28T08:54:43Z</time>
      </trkpt>
      <trkpt lat="45.9092" lon="4.83477">
        <ele>218</ele>
        <time>2018-08-28T08:54:44Z</time>
      </trkpt>
      <trkpt lat="45.90922" lon="4.83484">
        <ele>218</ele>
        <time>2018-08-28T08:54:45Z</time>
      </trkpt>
      <trkpt lat="45.90925" lon="4.83495">
        <ele>216</ele>
        <time>2018-08-28T08:54:47Z</time>
      </trkpt>
      <trkpt lat="45.90926" lon="4.83499">
        <ele>216</ele>
        <time>2018-08-28T08:54:48Z</time>
      </trkpt>
      <trkpt lat="45.90932" lon="4.83508">
        <ele>216</ele>
        <time>2018-08-28T08:54:50Z</time>
      </trkpt>
      <trkpt lat="45.90934" lon="4.83513">
        <ele>217</ele>
        <time>2018-08-28T08:54:51Z</time>
      </trkpt>
      <trkpt lat="45.90938" lon="4.83519">
        <ele>217</ele>
        <time>2018-08-28T08:54:52Z</time>
      </trkpt>
      <trkpt lat="45.90941" lon="4.83524">
        <ele>218</ele>
        <time>2018-08-28T08:54:53Z</time>
      </trkpt>
      <trkpt lat="45.90947" lon="4.83533">
        <ele>218</ele>
        <time>2018-08-28T08:54:55Z</time>
      </trkpt>
      <trkpt lat="45.90949" lon="4.83537">
        <ele>218</ele>
        <time>2018-08-28T08:54:56Z</time>
      </trkpt>
      <trkpt lat="45.90954" lon="4.83544">
        <ele>219</ele>
        <time>2018-08-28T08:54:58Z</time>
      </trkpt>
      <trkpt lat="45.90957" lon="4.83549">
        <ele>219</ele>
        <time>2018-08-28T08:54:59Z</time>
      </trkpt>
      <trkpt lat="45.90963" lon="4.83558">
        <ele>219</ele>
        <time>2018-08-28T08:55:02Z</time>
      </trkpt>
      <trkpt lat="45.90964" lon="4.8356">
        <ele>219</ele>
        <time>2018-08-28T08:55:03Z</time>
      </trkpt>
      <trkpt lat="45.90967" lon="4.83565">
        <ele>219</ele>
        <time>2018-08-28T08:55:05Z</time>
      </trkpt>
      <trkpt lat="45.90973" lon="4.83578">
        <ele>220</ele>
        <time>2018-08-28T08:55:06Z</time>
      </trkpt>
      <trkpt lat="45.90975" lon="4.83584">
        <ele>219</ele>
        <time>2018-08-28T08:55:07Z</time>
      </trkpt>
      <trkpt lat="45.90977" lon="4.8359">
        <ele>219</ele>
        <time>2018-08-28T08:55:08Z</time>
      </trkpt>
      <trkpt lat="45.90982" lon="4.836">
        <ele>219</ele>
        <time>2018-08-28T08:55:10Z</time>
      </trkpt>
      <trkpt lat="45.90984" lon="4.83605">
        <ele>219</ele>
        <time>2018-08-28T08:55:11Z</time>
      </trkpt>
      <trkpt lat="45.90987" lon="4.83611">
        <ele>219</ele>
        <time>2018-08-28T08:55:12Z</time>
      </trkpt>
      <trkpt lat="45.90989" lon="4.83617">
        <ele>219</ele>
        <time>2018-08-28T08:55:13Z</time>
      </trkpt>
      <trkpt lat="45.90993" lon="4.83623">
        <ele>219</ele>
        <time>2018-08-28T08:55:14Z</time>
      </trkpt>
      <trkpt lat="45.90995" lon="4.83628">
        <ele>219</ele>
        <time>2018-08-28T08:55:15Z</time>
      </trkpt>
      <trkpt lat="45.90998" lon="4.83635">
        <ele>219</ele>
        <time>2018-08-28T08:55:16Z</time>
      </trkpt>
      <trkpt lat="45.90999" lon="4.8364">
        <ele>219</ele>
        <time>2018-08-28T08:55:17Z</time>
      </trkpt>
      <trkpt lat="45.91003" lon="4.83651">
        <ele>224</ele>
        <time>2018-08-28T08:55:19Z</time>
      </trkpt>
      <trkpt lat="45.91006" lon="4.83656">
        <ele>224</ele>
        <time>2018-08-28T08:55:20Z</time>
      </trkpt>
      <trkpt lat="45.91008" lon="4.83661">
        <ele>223</ele>
        <time>2018-08-28T08:55:21Z</time>
      </trkpt>
      <trkpt lat="45.91011" lon="4.83667">
        <ele>223</ele>
        <time>2018-08-28T08:55:22Z</time>
      </trkpt>
      <trkpt lat="45.91013" lon="4.83673">
        <ele>223</ele>
        <time>2018-08-28T08:55:23Z</time>
      </trkpt>
      <trkpt lat="45.91015" lon="4.83679">
        <ele>224</ele>
        <time>2018-08-28T08:55:24Z</time>
      </trkpt>
      <trkpt lat="45.91018" lon="4.8369">
        <ele>224</ele>
        <time>2018-08-28T08:55:26Z</time>
      </trkpt>
      <trkpt lat="45.9102" lon="4.83696">
        <ele>225</ele>
        <time>2018-08-28T08:55:27Z</time>
      </trkpt>
      <trkpt lat="45.91024" lon="4.83706">
        <ele>225</ele>
        <time>2018-08-28T08:55:29Z</time>
      </trkpt>
      <trkpt lat="45.91025" lon="4.83708">
        <ele>225</ele>
        <time>2018-08-28T08:55:30Z</time>
      </trkpt>
      <trkpt lat="45.91028" lon="4.83715">
        <ele>225</ele>
        <time>2018-08-28T08:55:31Z</time>
      </trkpt>
      <trkpt lat="45.9103" lon="4.83721">
        <ele>225</ele>
        <time>2018-08-28T08:55:32Z</time>
      </trkpt>
      <trkpt lat="45.91033" lon="4.8373">
        <ele>225</ele>
        <time>2018-08-28T08:55:34Z</time>
      </trkpt>
      <trkpt lat="45.91035" lon="4.83735">
        <ele>225</ele>
        <time>2018-08-28T08:55:35Z</time>
      </trkpt>
      <trkpt lat="45.9104" lon="4.83744">
        <ele>225</ele>
        <time>2018-08-28T08:55:38Z</time>
      </trkpt>
      <trkpt lat="45.91041" lon="4.83747">
        <ele>225</ele>
        <time>2018-08-28T08:55:39Z</time>
      </trkpt>
      <trkpt lat="45.91045" lon="4.83756">
        <ele>224</ele>
        <time>2018-08-28T08:55:40Z</time>
      </trkpt>
      <trkpt lat="45.91046" lon="4.83758">
        <ele>224</ele>
        <time>2018-08-28T08:55:41Z</time>
      </trkpt>
      <trkpt lat="45.9105" lon="4.83767">
        <ele>224</ele>
        <time>2018-08-28T08:55:44Z</time>
      </trkpt>
      <trkpt lat="45.91051" lon="4.8377">
        <ele>224</ele>
        <time>2018-08-28T08:55:45Z</time>
      </trkpt>
      <trkpt lat="45.91054" lon="4.8378">
        <ele>224</ele>
        <time>2018-08-28T08:55:46Z</time>
      </trkpt>
      <trkpt lat="45.91054" lon="4.83782">
        <ele>224</ele>
        <time>2018-08-28T08:55:47Z</time>
      </trkpt>
      <trkpt lat="45.91057" lon="4.83791">
        <ele>224</ele>
        <time>2018-08-28T08:55:49Z</time>
      </trkpt>
      <trkpt lat="45.91058" lon="4.83794">
        <ele>224</ele>
        <time>2018-08-28T08:55:50Z</time>
      </trkpt>
      <trkpt lat="45.91061" lon="4.83803">
        <ele>224</ele>
        <time>2018-08-28T08:55:51Z</time>
      </trkpt>
      <trkpt lat="45.91062" lon="4.83808">
        <ele>224</ele>
        <time>2018-08-28T08:55:52Z</time>
      </trkpt>
      <trkpt lat="45.91065" lon="4.83819">
        <ele>224</ele>
        <time>2018-08-28T08:55:54Z</time>
      </trkpt>
      <trkpt lat="45.91068" lon="4.83825">
        <ele>224</ele>
        <time>2018-08-28T08:55:55Z</time>
      </trkpt>
      <trkpt lat="45.9107" lon="4.83831">
        <ele>225</ele>
        <time>2018-08-28T08:55:56Z</time>
      </trkpt>
      <trkpt lat="45.91072" lon="4.8384">
        <ele>224</ele>
        <time>2018-08-28T08:55:57Z</time>
      </trkpt>
      <trkpt lat="45.91073" lon="4.83847">
        <ele>223</ele>
        <time>2018-08-28T08:55:58Z</time>
      </trkpt>
      <trkpt lat="45.91075" lon="4.83853">
        <ele>223</ele>
        <time>2018-08-28T08:55:59Z</time>
      </trkpt>
      <trkpt lat="45.91077" lon="4.83862">
        <ele>222</ele>
        <time>2018-08-28T08:56:01Z</time>
      </trkpt>
      <trkpt lat="45.91078" lon="4.83869">
        <ele>222</ele>
        <time>2018-08-28T08:56:02Z</time>
      </trkpt>
      <trkpt lat="45.9108" lon="4.83879">
        <ele>222</ele>
        <time>2018-08-28T08:56:04Z</time>
      </trkpt>
      <trkpt lat="45.91081" lon="4.83885">
        <ele>221</ele>
        <time>2018-08-28T08:56:05Z</time>
      </trkpt>
      <trkpt lat="45.91081" lon="4.83891">
        <ele>221</ele>
        <time>2018-08-28T08:56:06Z</time>
      </trkpt>
      <trkpt lat="45.91081" lon="4.83899">
        <ele>221</ele>
        <time>2018-08-28T08:56:07Z</time>
      </trkpt>
      <trkpt lat="45.91083" lon="4.83905">
        <ele>222</ele>
        <time>2018-08-28T08:56:08Z</time>
      </trkpt>
      <trkpt lat="45.91084" lon="4.83912">
        <ele>224</ele>
        <time>2018-08-28T08:56:09Z</time>
      </trkpt>
      <trkpt lat="45.91084" lon="4.83923">
        <ele>224</ele>
        <time>2018-08-28T08:56:11Z</time>
      </trkpt>
      <trkpt lat="45.91085" lon="4.83929">
        <ele>225</ele>
        <time>2018-08-28T08:56:12Z</time>
      </trkpt>
      <trkpt lat="45.91088" lon="4.83936">
        <ele>225</ele>
        <time>2018-08-28T08:56:13Z</time>
      </trkpt>
      <trkpt lat="45.91089" lon="4.83942">
        <ele>226</ele>
        <time>2018-08-28T08:56:14Z</time>
      </trkpt>
      <trkpt lat="45.9109" lon="4.83949">
        <ele>226</ele>
        <time>2018-08-28T08:56:15Z</time>
      </trkpt>
      <trkpt lat="45.91091" lon="4.83955">
        <ele>227</ele>
        <time>2018-08-28T08:56:16Z</time>
      </trkpt>
      <trkpt lat="45.91091" lon="4.83963">
        <ele>227</ele>
        <time>2018-08-28T08:56:17Z</time>
      </trkpt>
      <trkpt lat="45.91093" lon="4.83971">
        <ele>226</ele>
        <time>2018-08-28T08:56:18Z</time>
      </trkpt>
      <trkpt lat="45.91094" lon="4.83978">
        <ele>226</ele>
        <time>2018-08-28T08:56:19Z</time>
      </trkpt>
      <trkpt lat="45.91095" lon="4.83984">
        <ele>226</ele>
        <time>2018-08-28T08:56:20Z</time>
      </trkpt>
      <trkpt lat="45.91096" lon="4.83992">
        <ele>225</ele>
        <time>2018-08-28T08:56:21Z</time>
      </trkpt>
      <trkpt lat="45.91096" lon="4.83998">
        <ele>225</ele>
        <time>2018-08-28T08:56:22Z</time>
      </trkpt>
      <trkpt lat="45.91097" lon="4.84009">
        <ele>225</ele>
        <time>2018-08-28T08:56:24Z</time>
      </trkpt>
      <trkpt lat="45.91098" lon="4.84015">
        <ele>225</ele>
        <time>2018-08-28T08:56:25Z</time>
      </trkpt>
      <trkpt lat="45.911" lon="4.84027">
        <ele>225</ele>
        <time>2018-08-28T08:56:27Z</time>
      </trkpt>
      <trkpt lat="45.911" lon="4.84033">
        <ele>225</ele>
        <time>2018-08-28T08:56:28Z</time>
      </trkpt>
      <trkpt lat="45.91102" lon="4.84046">
        <ele>225</ele>
        <time>2018-08-28T08:56:30Z</time>
      </trkpt>
      <trkpt lat="45.91103" lon="4.84052">
        <ele>225</ele>
        <time>2018-08-28T08:56:31Z</time>
      </trkpt>
      <trkpt lat="45.91106" lon="4.84059">
        <ele>225</ele>
        <time>2018-08-28T08:56:32Z</time>
      </trkpt>
      <trkpt lat="45.91107" lon="4.84065">
        <ele>225</ele>
        <time>2018-08-28T08:56:33Z</time>
      </trkpt>
      <trkpt lat="45.91109" lon="4.8407">
        <ele>225</ele>
        <time>2018-08-28T08:56:34Z</time>
      </trkpt>
      <trkpt lat="45.91111" lon="4.84076">
        <ele>225</ele>
        <time>2018-08-28T08:56:35Z</time>
      </trkpt>
      <trkpt lat="45.91116" lon="4.84082">
        <ele>225</ele>
        <time>2018-08-28T08:56:36Z</time>
      </trkpt>
      <trkpt lat="45.91118" lon="4.84085">
        <ele>224</ele>
        <time>2018-08-28T08:56:37Z</time>
      </trkpt>
      <trkpt lat="45.91124" lon="4.84094">
        <ele>225</ele>
        <time>2018-08-28T08:56:39Z</time>
      </trkpt>
      <trkpt lat="45.91126" lon="4.84098">
        <ele>225</ele>
        <time>2018-08-28T08:56:40Z</time>
      </trkpt>
      <trkpt lat="45.91133" lon="4.84107">
        <ele>225</ele>
        <time>2018-08-28T08:56:43Z</time>
      </trkpt>
      <trkpt lat="45.91137" lon="4.84113">
        <ele>225</ele>
        <time>2018-08-28T08:56:44Z</time>
      </trkpt>
      <trkpt lat="45.91142" lon="4.84122">
        <ele>225</ele>
        <time>2018-08-28T08:56:46Z</time>
      </trkpt>
      <trkpt lat="45.91144" lon="4.84126">
        <ele>225</ele>
        <time>2018-08-28T08:56:47Z</time>
      </trkpt>
      <trkpt lat="45.91149" lon="4.84135">
        <ele>225</ele>
        <time>2018-08-28T08:56:50Z</time>
      </trkpt>
      <trkpt lat="45.91151" lon="4.84138">
        <ele>225</ele>
        <time>2018-08-28T08:56:51Z</time>
      </trkpt>
      <trkpt lat="45.91156" lon="4.84146">
        <ele>226</ele>
        <time>2018-08-28T08:56:54Z</time>
      </trkpt>
      <trkpt lat="45.91158" lon="4.8415">
        <ele>226</ele>
        <time>2018-08-28T08:56:55Z</time>
      </trkpt>
      <trkpt lat="45.91163" lon="4.84159">
        <ele>226</ele>
        <time>2018-08-28T08:56:58Z</time>
      </trkpt>
      <trkpt lat="45.91164" lon="4.84163">
        <ele>227</ele>
        <time>2018-08-28T08:56:59Z</time>
      </trkpt>
      <trkpt lat="45.91167" lon="4.8417">
        <ele>228</ele>
        <time>2018-08-28T08:57:01Z</time>
      </trkpt>
      <trkpt lat="45.91169" lon="4.84174">
        <ele>228</ele>
        <time>2018-08-28T08:57:02Z</time>
      </trkpt>
      <trkpt lat="45.91172" lon="4.84182">
        <ele>229</ele>
        <time>2018-08-28T08:57:04Z</time>
      </trkpt>
      <trkpt lat="45.91173" lon="4.84187">
        <ele>229</ele>
        <time>2018-08-28T08:57:05Z</time>
      </trkpt>
      <trkpt lat="45.91176" lon="4.84196">
        <ele>229</ele>
        <time>2018-08-28T08:57:07Z</time>
      </trkpt>
      <trkpt lat="45.91177" lon="4.842">
        <ele>229</ele>
        <time>2018-08-28T08:57:08Z</time>
      </trkpt>
      <trkpt lat="45.9118" lon="4.84209">
        <ele>229</ele>
        <time>2018-08-28T08:57:10Z</time>
      </trkpt>
      <trkpt lat="45.91183" lon="4.84222">
        <ele>229</ele>
        <time>2018-08-28T08:57:11Z</time>
      </trkpt>
      <trkpt lat="45.91184" lon="4.84232">
        <ele>229</ele>
        <time>2018-08-28T08:57:14Z</time>
      </trkpt>
      <trkpt lat="45.91184" lon="4.84242">
        <ele>228</ele>
        <time>2018-08-28T08:57:15Z</time>
      </trkpt>
      <trkpt lat="45.91184" lon="4.84254">
        <ele>228</ele>
        <time>2018-08-28T08:57:17Z</time>
      </trkpt>
      <trkpt lat="45.91183" lon="4.84261">
        <ele>228</ele>
        <time>2018-08-28T08:57:18Z</time>
      </trkpt>
      <trkpt lat="45.91184" lon="4.84268">
        <ele>228</ele>
        <time>2018-08-28T08:57:19Z</time>
      </trkpt>
      <trkpt lat="45.91185" lon="4.84275">
        <ele>228</ele>
        <time>2018-08-28T08:57:20Z</time>
      </trkpt>
      <trkpt lat="45.91186" lon="4.84281">
        <ele>229</ele>
        <time>2018-08-28T08:57:21Z</time>
      </trkpt>
      <trkpt lat="45.91188" lon="4.84287">
        <ele>229</ele>
        <time>2018-08-28T08:57:22Z</time>
      </trkpt>
      <trkpt lat="45.91191" lon="4.84294">
        <ele>229</ele>
        <time>2018-08-28T08:57:23Z</time>
      </trkpt>
      <trkpt lat="45.91192" lon="4.843">
        <ele>229</ele>
        <time>2018-08-28T08:57:24Z</time>
      </trkpt>
      <trkpt lat="45.91194" lon="4.84307">
        <ele>229</ele>
        <time>2018-08-28T08:57:25Z</time>
      </trkpt>
      <trkpt lat="45.91196" lon="4.84312">
        <ele>229</ele>
        <time>2018-08-28T08:57:26Z</time>
      </trkpt>
      <trkpt lat="45.91199" lon="4.84318">
        <ele>229</ele>
        <time>2018-08-28T08:57:27Z</time>
      </trkpt>
      <trkpt lat="45.91202" lon="4.84325">
        <ele>229</ele>
        <time>2018-08-28T08:57:28Z</time>
      </trkpt>
      <trkpt lat="45.91204" lon="4.84331">
        <ele>229</ele>
        <time>2018-08-28T08:57:29Z</time>
      </trkpt>
      <trkpt lat="45.91205" lon="4.84337">
        <ele>228</ele>
        <time>2018-08-28T08:57:30Z</time>
      </trkpt>
      <trkpt lat="45.91207" lon="4.84344">
        <ele>228</ele>
        <time>2018-08-28T08:57:31Z</time>
      </trkpt>
      <trkpt lat="45.91209" lon="4.8435">
        <ele>228</ele>
        <time>2018-08-28T08:57:32Z</time>
      </trkpt>
      <trkpt lat="45.91213" lon="4.8436">
        <ele>228</ele>
        <time>2018-08-28T08:57:34Z</time>
      </trkpt>
      <trkpt lat="45.91216" lon="4.84367">
        <ele>228</ele>
        <time>2018-08-28T08:57:35Z</time>
      </trkpt>
      <trkpt lat="45.9122" lon="4.84375">
        <ele>228</ele>
        <time>2018-08-28T08:57:36Z</time>
      </trkpt>
      <trkpt lat="45.91223" lon="4.84381">
        <ele>228</ele>
        <time>2018-08-28T08:57:37Z</time>
      </trkpt>
      <trkpt lat="45.91226" lon="4.84387">
        <ele>228</ele>
        <time>2018-08-28T08:57:38Z</time>
      </trkpt>
      <trkpt lat="45.91228" lon="4.84394">
        <ele>228</ele>
        <time>2018-08-28T08:57:39Z</time>
      </trkpt>
      <trkpt lat="45.91231" lon="4.84402">
        <ele>229</ele>
        <time>2018-08-28T08:57:40Z</time>
      </trkpt>
      <trkpt lat="45.91234" lon="4.84408">
        <ele>229</ele>
        <time>2018-08-28T08:57:41Z</time>
      </trkpt>
      <trkpt lat="45.91237" lon="4.84414">
        <ele>229</ele>
        <time>2018-08-28T08:57:42Z</time>
      </trkpt>
      <trkpt lat="45.91242" lon="4.84422">
        <ele>229</ele>
        <time>2018-08-28T08:57:43Z</time>
      </trkpt>
      <trkpt lat="45.91246" lon="4.84433">
        <ele>228</ele>
        <time>2018-08-28T08:57:45Z</time>
      </trkpt>
      <trkpt lat="45.91249" lon="4.84441">
        <ele>228</ele>
        <time>2018-08-28T08:57:46Z</time>
      </trkpt>
      <trkpt lat="45.91252" lon="4.84445">
        <ele>232</ele>
        <time>2018-08-28T08:57:47Z</time>
      </trkpt>
      <trkpt lat="45.91255" lon="4.84451">
        <ele>232</ele>
        <time>2018-08-28T08:57:48Z</time>
      </trkpt>
      <trkpt lat="45.91261" lon="4.84459">
        <ele>232</ele>
        <time>2018-08-28T08:57:50Z</time>
      </trkpt>
      <trkpt lat="45.91264" lon="4.84466">
        <ele>232</ele>
        <time>2018-08-28T08:57:51Z</time>
      </trkpt>
      <trkpt lat="45.91267" lon="4.84472">
        <ele>232</ele>
        <time>2018-08-28T08:57:52Z</time>
      </trkpt>
      <trkpt lat="45.9127" lon="4.84479">
        <ele>232</ele>
        <time>2018-08-28T08:57:53Z</time>
      </trkpt>
      <trkpt lat="45.91273" lon="4.84484">
        <ele>232</ele>
        <time>2018-08-28T08:57:54Z</time>
      </trkpt>
      <trkpt lat="45.91274" lon="4.8449">
        <ele>232</ele>
        <time>2018-08-28T08:57:55Z</time>
      </trkpt>
      <trkpt lat="45.91276" lon="4.84496">
        <ele>232</ele>
        <time>2018-08-28T08:57:56Z</time>
      </trkpt>
      <trkpt lat="45.91279" lon="4.84501">
        <ele>230</ele>
        <time>2018-08-28T08:57:57Z</time>
      </trkpt>
      <trkpt lat="45.91281" lon="4.84509">
        <ele>230</ele>
        <time>2018-08-28T08:57:59Z</time>
      </trkpt>
      <trkpt lat="45.91283" lon="4.84515">
        <ele>230</ele>
        <time>2018-08-28T08:58:00Z</time>
      </trkpt>
      <trkpt lat="45.91286" lon="4.84518">
        <ele>231</ele>
        <time>2018-08-28T08:58:01Z</time>
      </trkpt>
      <trkpt lat="45.91289" lon="4.84524">
        <ele>231</ele>
        <time>2018-08-28T08:58:02Z</time>
      </trkpt>
      <trkpt lat="45.91292" lon="4.84531">
        <ele>231</ele>
        <time>2018-08-28T08:58:03Z</time>
      </trkpt>
      <trkpt lat="45.91295" lon="4.84538">
        <ele>231</ele>
        <time>2018-08-28T08:58:04Z</time>
      </trkpt>
      <trkpt lat="45.91298" lon="4.84545">
        <ele>231</ele>
        <time>2018-08-28T08:58:05Z</time>
      </trkpt>
      <trkpt lat="45.91301" lon="4.84552">
        <ele>231</ele>
        <time>2018-08-28T08:58:06Z</time>
      </trkpt>
      <trkpt lat="45.91303" lon="4.84558">
        <ele>231</ele>
        <time>2018-08-28T08:58:07Z</time>
      </trkpt>
      <trkpt lat="45.91306" lon="4.84564">
        <ele>231</ele>
        <time>2018-08-28T08:58:08Z</time>
      </trkpt>
      <trkpt lat="45.91309" lon="4.84572">
        <ele>231</ele>
        <time>2018-08-28T08:58:09Z</time>
      </trkpt>
      <trkpt lat="45.91311" lon="4.84578">
        <ele>231</ele>
        <time>2018-08-28T08:58:10Z</time>
      </trkpt>
      <trkpt lat="45.91315" lon="4.84588">
        <ele>230</ele>
        <time>2018-08-28T08:58:12Z</time>
      </trkpt>
      <trkpt lat="45.91317" lon="4.84593">
        <ele>230</ele>
        <time>2018-08-28T08:58:13Z</time>
      </trkpt>
      <trkpt lat="45.91321" lon="4.84604">
        <ele>230</ele>
        <time>2018-08-28T08:58:15Z</time>
      </trkpt>
      <trkpt lat="45.91324" lon="4.8461">
        <ele>229</ele>
        <time>2018-08-28T08:58:16Z</time>
      </trkpt>
      <trkpt lat="45.91327" lon="4.8462">
        <ele>229</ele>
        <time>2018-08-28T08:58:18Z</time>
      </trkpt>
      <trkpt lat="45.91329" lon="4.84625">
        <ele>229</ele>
        <time>2018-08-28T08:58:19Z</time>
      </trkpt>
      <trkpt lat="45.91332" lon="4.84631">
        <ele>229</ele>
        <time>2018-08-28T08:58:20Z</time>
      </trkpt>
      <trkpt lat="45.91335" lon="4.84637">
        <ele>234</ele>
        <time>2018-08-28T08:58:21Z</time>
      </trkpt>
      <trkpt lat="45.91337" lon="4.84644">
        <ele>233</ele>
        <time>2018-08-28T08:58:22Z</time>
      </trkpt>
      <trkpt lat="45.91339" lon="4.8465">
        <ele>233</ele>
        <time>2018-08-28T08:58:23Z</time>
      </trkpt>
      <trkpt lat="45.91339" lon="4.84656">
        <ele>232</ele>
        <time>2018-08-28T08:58:24Z</time>
      </trkpt>
      <trkpt lat="45.91341" lon="4.84663">
        <ele>231</ele>
        <time>2018-08-28T08:58:25Z</time>
      </trkpt>
      <trkpt lat="45.91344" lon="4.84674">
        <ele>232</ele>
        <time>2018-08-28T08:58:27Z</time>
      </trkpt>
      <trkpt lat="45.91346" lon="4.84679">
        <ele>232</ele>
        <time>2018-08-28T08:58:28Z</time>
      </trkpt>
      <trkpt lat="45.91349" lon="4.8469">
        <ele>233</ele>
        <time>2018-08-28T08:58:30Z</time>
      </trkpt>
      <trkpt lat="45.9135" lon="4.84695">
        <ele>233</ele>
        <time>2018-08-28T08:58:31Z</time>
      </trkpt>
      <trkpt lat="45.91353" lon="4.84705">
        <ele>234</ele>
        <time>2018-08-28T08:58:33Z</time>
      </trkpt>
      <trkpt lat="45.91355" lon="4.8471">
        <ele>234</ele>
        <time>2018-08-28T08:58:34Z</time>
      </trkpt>
      <trkpt lat="45.91359" lon="4.8472">
        <ele>234</ele>
        <time>2018-08-28T08:58:36Z</time>
      </trkpt>
      <trkpt lat="45.9136" lon="4.84725">
        <ele>234</ele>
        <time>2018-08-28T08:58:37Z</time>
      </trkpt>
      <trkpt lat="45.91364" lon="4.84735">
        <ele>234</ele>
        <time>2018-08-28T08:58:39Z</time>
      </trkpt>
      <trkpt lat="45.91365" lon="4.8474">
        <ele>234</ele>
        <time>2018-08-28T08:58:40Z</time>
      </trkpt>
      <trkpt lat="45.9137" lon="4.8475">
        <ele>233</ele>
        <time>2018-08-28T08:58:42Z</time>
      </trkpt>
      <trkpt lat="45.91372" lon="4.84755">
        <ele>233</ele>
        <time>2018-08-28T08:58:43Z</time>
      </trkpt>
      <trkpt lat="45.91374" lon="4.8476">
        <ele>234</ele>
        <time>2018-08-28T08:58:45Z</time>
      </trkpt>
      <trkpt lat="45.91377" lon="4.84767">
        <ele>234</ele>
        <time>2018-08-28T08:58:46Z</time>
      </trkpt>
      <trkpt lat="45.9138" lon="4.84773">
        <ele>234</ele>
        <time>2018-08-28T08:58:47Z</time>
      </trkpt>
      <trkpt lat="45.91382" lon="4.84778">
        <ele>234</ele>
        <time>2018-08-28T08:58:48Z</time>
      </trkpt>
      <trkpt lat="45.91387" lon="4.84788">
        <ele>234</ele>
        <time>2018-08-28T08:58:50Z</time>
      </trkpt>
      <trkpt lat="45.91389" lon="4.84792">
        <ele>234</ele>
        <time>2018-08-28T08:58:51Z</time>
      </trkpt>
      <trkpt lat="45.91392" lon="4.84798">
        <ele>234</ele>
        <time>2018-08-28T08:58:52Z</time>
      </trkpt>
      <trkpt lat="45.91396" lon="4.84802">
        <ele>234</ele>
        <time>2018-08-28T08:58:53Z</time>
      </trkpt>
      <trkpt lat="45.91398" lon="4.84808">
        <ele>234</ele>
        <time>2018-08-28T08:58:54Z</time>
      </trkpt>
      <trkpt lat="45.91401" lon="4.84813">
        <ele>234</ele>
        <time>2018-08-28T08:58:55Z</time>
      </trkpt>
      <trkpt lat="45.91406" lon="4.8482">
        <ele>234</ele>
        <time>2018-08-28T08:58:57Z</time>
      </trkpt>
      <trkpt lat="45.91409" lon="4.84827">
        <ele>234</ele>
        <time>2018-08-28T08:58:58Z</time>
      </trkpt>
      <trkpt lat="45.91414" lon="4.84836">
        <ele>234</ele>
        <time>2018-08-28T08:59:00Z</time>
      </trkpt>
      <trkpt lat="45.91415" lon="4.84838">
        <ele>234</ele>
        <time>2018-08-28T08:59:01Z</time>
      </trkpt>
      <trkpt lat="45.91421" lon="4.84847">
        <ele>235</ele>
        <time>2018-08-28T08:59:05Z</time>
      </trkpt>
      <trkpt lat="45.91423" lon="4.8485">
        <ele>235</ele>
        <time>2018-08-28T08:59:06Z</time>
      </trkpt>
      <trkpt lat="45.91429" lon="4.84859">
        <ele>235</ele>
        <time>2018-08-28T08:59:09Z</time>
      </trkpt>
      <trkpt lat="45.9143" lon="4.84862">
        <ele>235</ele>
        <time>2018-08-28T08:59:10Z</time>
      </trkpt>
      <trkpt lat="45.91436" lon="4.8487">
        <ele>235</ele>
        <time>2018-08-28T08:59:13Z</time>
      </trkpt>
      <trkpt lat="45.91438" lon="4.84872">
        <ele>235</ele>
        <time>2018-08-28T08:59:14Z</time>
      </trkpt>
      <trkpt lat="45.91445" lon="4.84876">
        <ele>236</ele>
        <time>2018-08-28T08:59:17Z</time>
      </trkpt>
      <trkpt lat="45.91448" lon="4.84877">
        <ele>236</ele>
        <time>2018-08-28T08:59:18Z</time>
      </trkpt>
      <trkpt lat="45.91456" lon="4.84879">
        <ele>236</ele>
        <time>2018-08-28T08:59:21Z</time>
      </trkpt>
      <trkpt lat="45.91458" lon="4.8488">
        <ele>236</ele>
        <time>2018-08-28T08:59:22Z</time>
      </trkpt>
      <trkpt lat="45.91466" lon="4.84884">
        <ele>236</ele>
        <time>2018-08-28T08:59:25Z</time>
      </trkpt>
      <trkpt lat="45.91469" lon="4.84886">
        <ele>236</ele>
        <time>2018-08-28T08:59:26Z</time>
      </trkpt>
      <trkpt lat="45.91476" lon="4.84893">
        <ele>237</ele>
        <time>2018-08-28T08:59:29Z</time>
      </trkpt>
      <trkpt lat="45.91477" lon="4.84896">
        <ele>237</ele>
        <time>2018-08-28T08:59:30Z</time>
      </trkpt>
      <trkpt lat="45.91481" lon="4.84904">
        <ele>237</ele>
        <time>2018-08-28T08:59:33Z</time>
      </trkpt>
      <trkpt lat="45.91482" lon="4.84907">
        <ele>237</ele>
        <time>2018-08-28T08:59:34Z</time>
      </trkpt>
      <trkpt lat="45.91485" lon="4.84917">
        <ele>238</ele>
        <time>2018-08-28T08:59:37Z</time>
      </trkpt>
      <trkpt lat="45.91485" lon="4.8492">
        <ele>238</ele>
        <time>2018-08-28T08:59:38Z</time>
      </trkpt>
      <trkpt lat="45.91486" lon="4.8493">
        <ele>238</ele>
        <time>2018-08-28T08:59:41Z</time>
      </trkpt>
      <trkpt lat="45.91486" lon="4.84933">
        <ele>238</ele>
        <time>2018-08-28T08:59:42Z</time>
      </trkpt>
      <trkpt lat="45.91485" lon="4.84945">
        <ele>238</ele>
        <time>2018-08-28T08:59:46Z</time>
      </trkpt>
      <trkpt lat="45.91484" lon="4.84948">
        <ele>238</ele>
        <time>2018-08-28T08:59:47Z</time>
      </trkpt>
      <trkpt lat="45.91483" lon="4.84959">
        <ele>238</ele>
        <time>2018-08-28T08:59:51Z</time>
      </trkpt>
      <trkpt lat="45.91484" lon="4.84962">
        <ele>238</ele>
        <time>2018-08-28T08:59:52Z</time>
      </trkpt>
      <trkpt lat="45.91484" lon="4.84975">
        <ele>239</ele>
        <time>2018-08-28T08:59:56Z</time>
      </trkpt>
      <trkpt lat="45.91484" lon="4.84978">
        <ele>239</ele>
        <time>2018-08-28T08:59:57Z</time>
      </trkpt>
      <trkpt lat="45.91485" lon="4.8499">
        <ele>240</ele>
        <time>2018-08-28T09:00:01Z</time>
      </trkpt>
      <trkpt lat="45.91486" lon="4.84993">
        <ele>240</ele>
        <time>2018-08-28T09:00:02Z</time>
      </trkpt>
      <trkpt lat="45.91488" lon="4.85003">
        <ele>241</ele>
        <time>2018-08-28T09:00:05Z</time>
      </trkpt>
      <trkpt lat="45.91489" lon="4.85006">
        <ele>241</ele>
        <time>2018-08-28T09:00:06Z</time>
      </trkpt>
      <trkpt lat="45.91491" lon="4.85017">
        <ele>241</ele>
        <time>2018-08-28T09:00:09Z</time>
      </trkpt>
      <trkpt lat="45.91492" lon="4.8502">
        <ele>241</ele>
        <time>2018-08-28T09:00:10Z</time>
      </trkpt>
      <trkpt lat="45.91493" lon="4.85023">
        <ele>241</ele>
        <time>2018-08-28T09:00:11Z</time>
      </trkpt>
      <trkpt lat="45.91496" lon="4.85033">
        <ele>241</ele>
        <time>2018-08-28T09:00:12Z</time>
      </trkpt>
      <trkpt lat="45.915" lon="4.85043">
        <ele>241</ele>
        <time>2018-08-28T09:00:17Z</time>
      </trkpt>
      <trkpt lat="45.91501" lon="4.85046">
        <ele>245</ele>
        <time>2018-08-28T09:00:18Z</time>
      </trkpt>
      <trkpt lat="45.91503" lon="4.85056">
        <ele>245</ele>
        <time>2018-08-28T09:00:21Z</time>
      </trkpt>
      <trkpt lat="45.91504" lon="4.85059">
        <ele>245</ele>
        <time>2018-08-28T09:00:22Z</time>
      </trkpt>
      <trkpt lat="45.91507" lon="4.8507">
        <ele>245</ele>
        <time>2018-08-28T09:00:25Z</time>
      </trkpt>
      <trkpt lat="45.91508" lon="4.85073">
        <ele>245</ele>
        <time>2018-08-28T09:00:26Z</time>
      </trkpt>
      <trkpt lat="45.91511" lon="4.85083">
        <ele>246</ele>
        <time>2018-08-28T09:00:29Z</time>
      </trkpt>
      <trkpt lat="45.91512" lon="4.85086">
        <ele>246</ele>
        <time>2018-08-28T09:00:30Z</time>
      </trkpt>
      <trkpt lat="45.91515" lon="4.85096">
        <ele>246</ele>
        <time>2018-08-28T09:00:33Z</time>
      </trkpt>
      <trkpt lat="45.91516" lon="4.851">
        <ele>247</ele>
        <time>2018-08-28T09:00:34Z</time>
      </trkpt>
      <trkpt lat="45.9152" lon="4.85111">
        <ele>247</ele>
        <time>2018-08-28T09:00:37Z</time>
      </trkpt>
      <trkpt lat="45.91521" lon="4.85115">
        <ele>247</ele>
        <time>2018-08-28T09:00:38Z</time>
      </trkpt>
      <trkpt lat="45.91524" lon="4.85126">
        <ele>247</ele>
        <time>2018-08-28T09:00:41Z</time>
      </trkpt>
      <trkpt lat="45.91525" lon="4.8513">
        <ele>247</ele>
        <time>2018-08-28T09:00:42Z</time>
      </trkpt>
      <trkpt lat="45.91528" lon="4.8514">
        <ele>247</ele>
        <time>2018-08-28T09:00:45Z</time>
      </trkpt>
      <trkpt lat="45.91529" lon="4.85144">
        <ele>247</ele>
        <time>2018-08-28T09:00:46Z</time>
      </trkpt>
      <trkpt lat="45.91533" lon="4.85154">
        <ele>247</ele>
        <time>2018-08-28T09:00:49Z</time>
      </trkpt>
      <trkpt lat="45.91534" lon="4.85158">
        <ele>247</ele>
        <time>2018-08-28T09:00:50Z</time>
      </trkpt>
      <trkpt lat="45.91537" lon="4.85169">
        <ele>248</ele>
        <time>2018-08-28T09:00:53Z</time>
      </trkpt>
      <trkpt lat="45.91539" lon="4.85172">
        <ele>248</ele>
        <time>2018-08-28T09:00:54Z</time>
      </trkpt>
      <trkpt lat="45.91542" lon="4.85183">
        <ele>249</ele>
        <time>2018-08-28T09:00:57Z</time>
      </trkpt>
      <trkpt lat="45.91543" lon="4.85186">
        <ele>249</ele>
        <time>2018-08-28T09:00:58Z</time>
      </trkpt>
      <trkpt lat="45.91547" lon="4.85198">
        <ele>249</ele>
        <time>2018-08-28T09:01:01Z</time>
      </trkpt>
      <trkpt lat="45.91548" lon="4.85201">
        <ele>249</ele>
        <time>2018-08-28T09:01:02Z</time>
      </trkpt>
      <trkpt lat="45.91551" lon="4.85213">
        <ele>249</ele>
        <time>2018-08-28T09:01:05Z</time>
      </trkpt>
      <trkpt lat="45.91552" lon="4.85217">
        <ele>249</ele>
        <time>2018-08-28T09:01:06Z</time>
      </trkpt>
      <trkpt lat="45.91555" lon="4.85227">
        <ele>249</ele>
        <time>2018-08-28T09:01:09Z</time>
      </trkpt>
      <trkpt lat="45.91557" lon="4.8523">
        <ele>249</ele>
        <time>2018-08-28T09:01:10Z</time>
      </trkpt>
      <trkpt lat="45.9156" lon="4.8524">
        <ele>249</ele>
        <time>2018-08-28T09:01:13Z</time>
      </trkpt>
      <trkpt lat="45.91561" lon="4.85244">
        <ele>249</ele>
        <time>2018-08-28T09:01:14Z</time>
      </trkpt>
      <trkpt lat="45.91564" lon="4.85256">
        <ele>250</ele>
        <time>2018-08-28T09:01:17Z</time>
      </trkpt>
      <trkpt lat="45.91565" lon="4.85259">
        <ele>250</ele>
        <time>2018-08-28T09:01:18Z</time>
      </trkpt>
      <trkpt lat="45.91568" lon="4.85271">
        <ele>251</ele>
        <time>2018-08-28T09:01:21Z</time>
      </trkpt>
      <trkpt lat="45.9157" lon="4.85275">
        <ele>251</ele>
        <time>2018-08-28T09:01:22Z</time>
      </trkpt>
      <trkpt lat="45.91572" lon="4.85283">
        <ele>251</ele>
        <time>2018-08-28T09:01:24Z</time>
      </trkpt>
      <trkpt lat="45.91574" lon="4.85288">
        <ele>251</ele>
        <time>2018-08-28T09:01:25Z</time>
      </trkpt>
      <trkpt lat="45.91577" lon="4.85296">
        <ele>251</ele>
        <time>2018-08-28T09:01:27Z</time>
      </trkpt>
      <trkpt lat="45.91578" lon="4.853">
        <ele>251</ele>
        <time>2018-08-28T09:01:28Z</time>
      </trkpt>
      <trkpt lat="45.91581" lon="4.85309">
        <ele>252</ele>
        <time>2018-08-28T09:01:30Z</time>
      </trkpt>
      <trkpt lat="45.91583" lon="4.85313">
        <ele>252</ele>
        <time>2018-08-28T09:01:31Z</time>
      </trkpt>
      <trkpt lat="45.91586" lon="4.85321">
        <ele>253</ele>
        <time>2018-08-28T09:01:33Z</time>
      </trkpt>
      <trkpt lat="45.91588" lon="4.85325">
        <ele>253</ele>
        <time>2018-08-28T09:01:34Z</time>
      </trkpt>
      <trkpt lat="45.91591" lon="4.85333">
        <ele>253</ele>
        <time>2018-08-28T09:01:36Z</time>
      </trkpt>
      <trkpt lat="45.91592" lon="4.85337">
        <ele>253</ele>
        <time>2018-08-28T09:01:37Z</time>
      </trkpt>
      <trkpt lat="45.91596" lon="4.85345">
        <ele>254</ele>
        <time>2018-08-28T09:01:39Z</time>
      </trkpt>
      <trkpt lat="45.91601" lon="4.85357">
        <ele>254</ele>
        <time>2018-08-28T09:01:40Z</time>
      </trkpt>
      <trkpt lat="45.91604" lon="4.85366">
        <ele>254</ele>
        <time>2018-08-28T09:01:44Z</time>
      </trkpt>
      <trkpt lat="45.91604" lon="4.85369">
        <ele>254</ele>
        <time>2018-08-28T09:01:45Z</time>
      </trkpt>
      <trkpt lat="45.91608" lon="4.8538">
        <ele>254</ele>
        <time>2018-08-28T09:01:48Z</time>
      </trkpt>
      <trkpt lat="45.9161" lon="4.85383">
        <ele>254</ele>
        <time>2018-08-28T09:01:49Z</time>
      </trkpt>
      <trkpt lat="45.91612" lon="4.85391">
        <ele>254</ele>
        <time>2018-08-28T09:01:51Z</time>
      </trkpt>
      <trkpt lat="45.91614" lon="4.85394">
        <ele>254</ele>
        <time>2018-08-28T09:01:52Z</time>
      </trkpt>
      <trkpt lat="45.91617" lon="4.85402">
        <ele>254</ele>
        <time>2018-08-28T09:01:54Z</time>
      </trkpt>
      <trkpt lat="45.91623" lon="4.85415">
        <ele>254</ele>
        <time>2018-08-28T09:01:55Z</time>
      </trkpt>
      <trkpt lat="45.91628" lon="4.85425">
        <ele>255</ele>
        <time>2018-08-28T09:01:57Z</time>
      </trkpt>
      <trkpt lat="45.91628" lon="4.85427">
        <ele>255</ele>
        <time>2018-08-28T09:01:58Z</time>
      </trkpt>
      <trkpt lat="45.91632" lon="4.85436">
        <ele>255</ele>
        <time>2018-08-28T09:02:01Z</time>
      </trkpt>
      <trkpt lat="45.91637" lon="4.85446">
        <ele>255</ele>
        <time>2018-08-28T09:02:02Z</time>
      </trkpt>
      <trkpt lat="45.9164" lon="4.85454">
        <ele>255</ele>
        <time>2018-08-28T09:02:05Z</time>
      </trkpt>
      <trkpt lat="45.91642" lon="4.85457">
        <ele>255</ele>
        <time>2018-08-28T09:02:06Z</time>
      </trkpt>
      <trkpt lat="45.91646" lon="4.85468">
        <ele>256</ele>
        <time>2018-08-28T09:02:09Z</time>
      </trkpt>
      <trkpt lat="45.9165" lon="4.85481">
        <ele>256</ele>
        <time>2018-08-28T09:02:10Z</time>
      </trkpt>
      <trkpt lat="45.91653" lon="4.85487">
        <ele>256</ele>
        <time>2018-08-28T09:02:11Z</time>
      </trkpt>
      <trkpt lat="45.91656" lon="4.85492">
        <ele>256</ele>
        <time>2018-08-28T09:02:12Z</time>
      </trkpt>
      <trkpt lat="45.9166" lon="4.855">
        <ele>256</ele>
        <time>2018-08-28T09:02:15Z</time>
      </trkpt>
      <trkpt lat="45.91661" lon="4.85503">
        <ele>256</ele>
        <time>2018-08-28T09:02:16Z</time>
      </trkpt>
      <trkpt lat="45.91663" lon="4.85506">
        <ele>256</ele>
        <time>2018-08-28T09:02:17Z</time>
      </trkpt>
      <trkpt lat="45.91667" lon="4.85514">
        <ele>256</ele>
        <time>2018-08-28T09:02:18Z</time>
      </trkpt>
      <trkpt lat="45.91672" lon="4.85523">
        <ele>256</ele>
        <time>2018-08-28T09:02:21Z</time>
      </trkpt>
      <trkpt lat="45.91674" lon="4.85526">
        <ele>256</ele>
        <time>2018-08-28T09:02:22Z</time>
      </trkpt>
      <trkpt lat="45.91675" lon="4.85529">
        <ele>256</ele>
        <time>2018-08-28T09:02:23Z</time>
      </trkpt>
      <trkpt lat="45.91679" lon="4.85539">
        <ele>256</ele>
        <time>2018-08-28T09:02:24Z</time>
      </trkpt>
      <trkpt lat="45.91683" lon="4.8555">
        <ele>256</ele>
        <time>2018-08-28T09:02:28Z</time>
      </trkpt>
      <trkpt lat="45.91684" lon="4.85553">
        <ele>256</ele>
        <time>2018-08-28T09:02:29Z</time>
      </trkpt>
      <trkpt lat="45.91688" lon="4.85564">
        <ele>256</ele>
        <time>2018-08-28T09:02:32Z</time>
      </trkpt>
      <trkpt lat="45.9169" lon="4.85569">
        <ele>256</ele>
        <time>2018-08-28T09:02:33Z</time>
      </trkpt>
      <trkpt lat="45.91693" lon="4.8558">
        <ele>256</ele>
        <time>2018-08-28T09:02:36Z</time>
      </trkpt>
      <trkpt lat="45.91694" lon="4.85584">
        <ele>257</ele>
        <time>2018-08-28T09:02:37Z</time>
      </trkpt>
      <trkpt lat="45.91698" lon="4.85595">
        <ele>257</ele>
        <time>2018-08-28T09:02:40Z</time>
      </trkpt>
      <trkpt lat="45.91699" lon="4.85599">
        <ele>257</ele>
        <time>2018-08-28T09:02:41Z</time>
      </trkpt>
      <trkpt lat="45.91703" lon="4.8561">
        <ele>257</ele>
        <time>2018-08-28T09:02:44Z</time>
      </trkpt>
      <trkpt lat="45.91704" lon="4.85614">
        <ele>257</ele>
        <time>2018-08-28T09:02:45Z</time>
      </trkpt>
      <trkpt lat="45.91707" lon="4.85623">
        <ele>257</ele>
        <time>2018-08-28T09:02:47Z</time>
      </trkpt>
      <trkpt lat="45.91708" lon="4.85627">
        <ele>257</ele>
        <time>2018-08-28T09:02:48Z</time>
      </trkpt>
      <trkpt lat="45.91711" lon="4.85636">
        <ele>257</ele>
        <time>2018-08-28T09:02:50Z</time>
      </trkpt>
      <trkpt lat="45.91712" lon="4.8564">
        <ele>257</ele>
        <time>2018-08-28T09:02:51Z</time>
      </trkpt>
      <trkpt lat="45.91714" lon="4.85649">
        <ele>257</ele>
        <time>2018-08-28T09:02:53Z</time>
      </trkpt>
      <trkpt lat="45.91715" lon="4.85654">
        <ele>257</ele>
        <time>2018-08-28T09:02:54Z</time>
      </trkpt>
      <trkpt lat="45.91717" lon="4.85664">
        <ele>258</ele>
        <time>2018-08-28T09:02:56Z</time>
      </trkpt>
      <trkpt lat="45.9172" lon="4.85677">
        <ele>259</ele>
        <time>2018-08-28T09:02:57Z</time>
      </trkpt>
      <trkpt lat="45.91722" lon="4.85684">
        <ele>259</ele>
        <time>2018-08-28T09:02:59Z</time>
      </trkpt>
      <trkpt lat="45.91724" lon="4.85692">
        <ele>259</ele>
        <time>2018-08-28T09:03:00Z</time>
      </trkpt>
      <trkpt lat="45.91726" lon="4.85701">
        <ele>259</ele>
        <time>2018-08-28T09:03:03Z</time>
      </trkpt>
      <trkpt lat="45.91729" lon="4.85711">
        <ele>259</ele>
        <time>2018-08-28T09:03:04Z</time>
      </trkpt>
      <trkpt lat="45.91732" lon="4.8572">
        <ele>259</ele>
        <time>2018-08-28T09:03:07Z</time>
      </trkpt>
      <trkpt lat="45.91733" lon="4.85723">
        <ele>259</ele>
        <time>2018-08-28T09:03:08Z</time>
      </trkpt>
      <trkpt lat="45.91734" lon="4.85727">
        <ele>259</ele>
        <time>2018-08-28T09:03:09Z</time>
      </trkpt>
      <trkpt lat="45.91738" lon="4.85738">
        <ele>260</ele>
        <time>2018-08-28T09:03:10Z</time>
      </trkpt>
      <trkpt lat="45.91741" lon="4.85748">
        <ele>260</ele>
        <time>2018-08-28T09:03:12Z</time>
      </trkpt>
      <trkpt lat="45.91743" lon="4.85753">
        <ele>260</ele>
        <time>2018-08-28T09:03:13Z</time>
      </trkpt>
      <trkpt lat="45.91747" lon="4.85763">
        <ele>260</ele>
        <time>2018-08-28T09:03:15Z</time>
      </trkpt>
      <trkpt lat="45.91748" lon="4.85766">
        <ele>260</ele>
        <time>2018-08-28T09:03:16Z</time>
      </trkpt>
      <trkpt lat="45.91752" lon="4.85775">
        <ele>260</ele>
        <time>2018-08-28T09:03:19Z</time>
      </trkpt>
      <trkpt lat="45.91753" lon="4.85778">
        <ele>260</ele>
        <time>2018-08-28T09:03:20Z</time>
      </trkpt>
      <trkpt lat="45.91757" lon="4.8579">
        <ele>260</ele>
        <time>2018-08-28T09:03:23Z</time>
      </trkpt>
      <trkpt lat="45.91759" lon="4.85794">
        <ele>260</ele>
        <time>2018-08-28T09:03:24Z</time>
      </trkpt>
      <trkpt lat="45.91762" lon="4.85802">
        <ele>260</ele>
        <time>2018-08-28T09:03:26Z</time>
      </trkpt>
      <trkpt lat="45.91763" lon="4.85807">
        <ele>260</ele>
        <time>2018-08-28T09:03:27Z</time>
      </trkpt>
      <trkpt lat="45.91766" lon="4.85815">
        <ele>260</ele>
        <time>2018-08-28T09:03:29Z</time>
      </trkpt>
      <trkpt lat="45.91768" lon="4.85819">
        <ele>260</ele>
        <time>2018-08-28T09:03:30Z</time>
      </trkpt>
      <trkpt lat="45.9177" lon="4.85827">
        <ele>260</ele>
        <time>2018-08-28T09:03:32Z</time>
      </trkpt>
      <trkpt lat="45.91772" lon="4.85831">
        <ele>260</ele>
        <time>2018-08-28T09:03:33Z</time>
      </trkpt>
      <trkpt lat="45.91774" lon="4.8584">
        <ele>261</ele>
        <time>2018-08-28T09:03:35Z</time>
      </trkpt>
      <trkpt lat="45.91776" lon="4.85844">
        <ele>261</ele>
        <time>2018-08-28T09:03:36Z</time>
      </trkpt>
      <trkpt lat="45.91779" lon="4.85853">
        <ele>261</ele>
        <time>2018-08-28T09:03:38Z</time>
      </trkpt>
      <trkpt lat="45.9178" lon="4.85857">
        <ele>261</ele>
        <time>2018-08-28T09:03:39Z</time>
      </trkpt>
      <trkpt lat="45.91783" lon="4.85871">
        <ele>261</ele>
        <time>2018-08-28T09:03:40Z</time>
      </trkpt>
      <trkpt lat="45.91787" lon="4.85882">
        <ele>261</ele>
        <time>2018-08-28T09:03:43Z</time>
      </trkpt>
      <trkpt lat="45.91787" lon="4.85885">
        <ele>261</ele>
        <time>2018-08-28T09:03:44Z</time>
      </trkpt>
      <trkpt lat="45.9179" lon="4.85896">
        <ele>261</ele>
        <time>2018-08-28T09:03:47Z</time>
      </trkpt>
      <trkpt lat="45.9179" lon="4.859">
        <ele>261</ele>
        <time>2018-08-28T09:03:48Z</time>
      </trkpt>
      <trkpt lat="45.91793" lon="4.85913">
        <ele>261</ele>
        <time>2018-08-28T09:03:49Z</time>
      </trkpt>
      <trkpt lat="45.91796" lon="4.85924">
        <ele>262</ele>
        <time>2018-08-28T09:03:51Z</time>
      </trkpt>
      <trkpt lat="45.91797" lon="4.85929">
        <ele>262</ele>
        <time>2018-08-28T09:03:52Z</time>
      </trkpt>
      <trkpt lat="45.918" lon="4.85941">
        <ele>262</ele>
        <time>2018-08-28T09:03:54Z</time>
      </trkpt>
      <trkpt lat="45.91801" lon="4.85947">
        <ele>262</ele>
        <time>2018-08-28T09:03:55Z</time>
      </trkpt>
      <trkpt lat="45.91803" lon="4.85958">
        <ele>262</ele>
        <time>2018-08-28T09:03:57Z</time>
      </trkpt>
      <trkpt lat="45.91804" lon="4.85963">
        <ele>262</ele>
        <time>2018-08-28T09:03:58Z</time>
      </trkpt>
      <trkpt lat="45.91806" lon="4.85974">
        <ele>262</ele>
        <time>2018-08-28T09:04:00Z</time>
      </trkpt>
      <trkpt lat="45.91807" lon="4.8598">
        <ele>262</ele>
        <time>2018-08-28T09:04:01Z</time>
      </trkpt>
      <trkpt lat="45.9181" lon="4.85991">
        <ele>262</ele>
        <time>2018-08-28T09:04:03Z</time>
      </trkpt>
      <trkpt lat="45.91812" lon="4.85997">
        <ele>262</ele>
        <time>2018-08-28T09:04:04Z</time>
      </trkpt>
      <trkpt lat="45.91814" lon="4.86008">
        <ele>263</ele>
        <time>2018-08-28T09:04:06Z</time>
      </trkpt>
      <trkpt lat="45.91815" lon="4.86014">
        <ele>263</ele>
        <time>2018-08-28T09:04:07Z</time>
      </trkpt>
      <trkpt lat="45.91817" lon="4.86026">
        <ele>263</ele>
        <time>2018-08-28T09:04:09Z</time>
      </trkpt>
      <trkpt lat="45.91819" lon="4.86033">
        <ele>263</ele>
        <time>2018-08-28T09:04:10Z</time>
      </trkpt>
      <trkpt lat="45.91821" lon="4.86045">
        <ele>263</ele>
        <time>2018-08-28T09:04:12Z</time>
      </trkpt>
      <trkpt lat="45.91823" lon="4.86051">
        <ele>263</ele>
        <time>2018-08-28T09:04:13Z</time>
      </trkpt>
      <trkpt lat="45.91826" lon="4.86063">
        <ele>263</ele>
        <time>2018-08-28T09:04:16Z</time>
      </trkpt>
      <trkpt lat="45.91828" lon="4.8607">
        <ele>263</ele>
        <time>2018-08-28T09:04:17Z</time>
      </trkpt>
      <trkpt lat="45.91831" lon="4.8608">
        <ele>263</ele>
        <time>2018-08-28T09:04:19Z</time>
      </trkpt>
      <trkpt lat="45.91832" lon="4.86086">
        <ele>263</ele>
        <time>2018-08-28T09:04:20Z</time>
      </trkpt>
      <trkpt lat="45.91835" lon="4.86099">
        <ele>263</ele>
        <time>2018-08-28T09:04:22Z</time>
      </trkpt>
      <trkpt lat="45.91837" lon="4.86104">
        <ele>263</ele>
        <time>2018-08-28T09:04:23Z</time>
      </trkpt>
      <trkpt lat="45.91838" lon="4.8611">
        <ele>263</ele>
        <time>2018-08-28T09:04:24Z</time>
      </trkpt>
      <trkpt lat="45.9184" lon="4.86117">
        <ele>263</ele>
        <time>2018-08-28T09:04:25Z</time>
      </trkpt>
      <trkpt lat="45.91843" lon="4.86126">
        <ele>263</ele>
        <time>2018-08-28T09:04:27Z</time>
      </trkpt>
      <trkpt lat="45.91843" lon="4.8613">
        <ele>263</ele>
        <time>2018-08-28T09:04:28Z</time>
      </trkpt>
      <trkpt lat="45.91846" lon="4.8614">
        <ele>263</ele>
        <time>2018-08-28T09:04:30Z</time>
      </trkpt>
      <trkpt lat="45.91848" lon="4.86145">
        <ele>263</ele>
        <time>2018-08-28T09:04:31Z</time>
      </trkpt>
      <trkpt lat="45.9185" lon="4.86153">
        <ele>263</ele>
        <time>2018-08-28T09:04:33Z</time>
      </trkpt>
      <trkpt lat="45.91852" lon="4.86161">
        <ele>263</ele>
        <time>2018-08-28T09:04:34Z</time>
      </trkpt>
      <trkpt lat="45.91854" lon="4.86168">
        <ele>265</ele>
        <time>2018-08-28T09:04:36Z</time>
      </trkpt>
      <trkpt lat="45.91856" lon="4.86176">
        <ele>265</ele>
        <time>2018-08-28T09:04:37Z</time>
      </trkpt>
      <trkpt lat="45.91856" lon="4.86184">
        <ele>265</ele>
        <time>2018-08-28T09:04:39Z</time>
      </trkpt>
      <trkpt lat="45.91857" lon="4.86192">
        <ele>265</ele>
        <time>2018-08-28T09:04:40Z</time>
      </trkpt>
      <trkpt lat="45.91857" lon="4.86202">
        <ele>265</ele>
        <time>2018-08-28T09:04:43Z</time>
      </trkpt>
      <trkpt lat="45.91857" lon="4.86206">
        <ele>265</ele>
        <time>2018-08-28T09:04:44Z</time>
      </trkpt>
      <trkpt lat="45.91858" lon="4.86218">
        <ele>266</ele>
        <time>2018-08-28T09:04:47Z</time>
      </trkpt>
      <trkpt lat="45.91858" lon="4.86222">
        <ele>266</ele>
        <time>2018-08-28T09:04:48Z</time>
      </trkpt>
      <trkpt lat="45.91858" lon="4.86235">
        <ele>266</ele>
        <time>2018-08-28T09:04:51Z</time>
      </trkpt>
      <trkpt lat="45.91858" lon="4.86239">
        <ele>266</ele>
        <time>2018-08-28T09:04:52Z</time>
      </trkpt>
      <trkpt lat="45.91858" lon="4.86251">
        <ele>269</ele>
        <time>2018-08-28T09:04:55Z</time>
      </trkpt>
      <trkpt lat="45.91858" lon="4.86255">
        <ele>269</ele>
        <time>2018-08-28T09:04:56Z</time>
      </trkpt>
      <trkpt lat="45.91859" lon="4.86266">
        <ele>269</ele>
        <time>2018-08-28T09:04:59Z</time>
      </trkpt>
      <trkpt lat="45.91858" lon="4.8627">
        <ele>269</ele>
        <time>2018-08-28T09:05:00Z</time>
      </trkpt>
      <trkpt lat="45.91858" lon="4.86281">
        <ele>269</ele>
        <time>2018-08-28T09:05:03Z</time>
      </trkpt>
      <trkpt lat="45.91857" lon="4.86285">
        <ele>269</ele>
        <time>2018-08-28T09:05:04Z</time>
      </trkpt>
      <trkpt lat="45.91858" lon="4.86297">
        <ele>270</ele>
        <time>2018-08-28T09:05:07Z</time>
      </trkpt>
      <trkpt lat="45.91858" lon="4.86301">
        <ele>270</ele>
        <time>2018-08-28T09:05:08Z</time>
      </trkpt>
      <trkpt lat="45.91858" lon="4.86313">
        <ele>270</ele>
        <time>2018-08-28T09:05:11Z</time>
      </trkpt>
      <trkpt lat="45.91858" lon="4.86316">
        <ele>270</ele>
        <time>2018-08-28T09:05:12Z</time>
      </trkpt>
      <trkpt lat="45.91858" lon="4.86328">
        <ele>270</ele>
        <time>2018-08-28T09:05:15Z</time>
      </trkpt>
      <trkpt lat="45.91858" lon="4.86333">
        <ele>270</ele>
        <time>2018-08-28T09:05:16Z</time>
      </trkpt>
      <trkpt lat="45.91858" lon="4.86341">
        <ele>271</ele>
        <time>2018-08-28T09:05:18Z</time>
      </trkpt>
      <trkpt lat="45.91858" lon="4.86346">
        <ele>271</ele>
        <time>2018-08-28T09:05:19Z</time>
      </trkpt>
      <trkpt lat="45.91858" lon="4.86358">
        <ele>271</ele>
        <time>2018-08-28T09:05:22Z</time>
      </trkpt>
      <trkpt lat="45.91859" lon="4.86363">
        <ele>271</ele>
        <time>2018-08-28T09:05:23Z</time>
      </trkpt>
      <trkpt lat="45.91859" lon="4.86375">
        <ele>272</ele>
        <time>2018-08-28T09:05:26Z</time>
      </trkpt>
      <trkpt lat="45.91859" lon="4.86379">
        <ele>272</ele>
        <time>2018-08-28T09:05:27Z</time>
      </trkpt>
      <trkpt lat="45.91859" lon="4.86388">
        <ele>271</ele>
        <time>2018-08-28T09:05:29Z</time>
      </trkpt>
      <trkpt lat="45.9186" lon="4.86392">
        <ele>271</ele>
        <time>2018-08-28T09:05:30Z</time>
      </trkpt>
      <trkpt lat="45.91861" lon="4.86401">
        <ele>271</ele>
        <time>2018-08-28T09:05:32Z</time>
      </trkpt>
      <trkpt lat="45.91862" lon="4.86414">
        <ele>271</ele>
        <time>2018-08-28T09:05:33Z</time>
      </trkpt>
      <trkpt lat="45.91865" lon="4.86424">
        <ele>271</ele>
        <time>2018-08-28T09:05:35Z</time>
      </trkpt>
      <trkpt lat="45.91867" lon="4.86429">
        <ele>271</ele>
        <time>2018-08-28T09:05:36Z</time>
      </trkpt>
      <trkpt lat="45.9187" lon="4.86438">
        <ele>271</ele>
        <time>2018-08-28T09:05:38Z</time>
      </trkpt>
      <trkpt lat="45.91871" lon="4.8644">
        <ele>271</ele>
        <time>2018-08-28T09:05:39Z</time>
      </trkpt>
      <trkpt lat="45.91874" lon="4.86447">
        <ele>271</ele>
        <time>2018-08-28T09:05:40Z</time>
      </trkpt>
      <trkpt lat="45.91876" lon="4.86452">
        <ele>271</ele>
        <time>2018-08-28T09:05:41Z</time>
      </trkpt>
      <trkpt lat="45.91879" lon="4.86463">
        <ele>271</ele>
        <time>2018-08-28T09:05:43Z</time>
      </trkpt>
      <trkpt lat="45.91881" lon="4.86468">
        <ele>271</ele>
        <time>2018-08-28T09:05:44Z</time>
      </trkpt>
      <trkpt lat="45.91884" lon="4.86477">
        <ele>271</ele>
        <time>2018-08-28T09:05:46Z</time>
      </trkpt>
      <trkpt lat="45.91885" lon="4.8648">
        <ele>271</ele>
        <time>2018-08-28T09:05:47Z</time>
      </trkpt>
      <trkpt lat="45.91889" lon="4.86491">
        <ele>271</ele>
        <time>2018-08-28T09:05:49Z</time>
      </trkpt>
      <trkpt lat="45.91891" lon="4.86496">
        <ele>271</ele>
        <time>2018-08-28T09:05:50Z</time>
      </trkpt>
      <trkpt lat="45.91893" lon="4.86502">
        <ele>270</ele>
        <time>2018-08-28T09:05:51Z</time>
      </trkpt>
      <trkpt lat="45.91896" lon="4.86508">
        <ele>270</ele>
        <time>2018-08-28T09:05:52Z</time>
      </trkpt>
      <trkpt lat="45.919" lon="4.86519">
        <ele>270</ele>
        <time>2018-08-28T09:05:54Z</time>
      </trkpt>
      <trkpt lat="45.91902" lon="4.86524">
        <ele>270</ele>
        <time>2018-08-28T09:05:55Z</time>
      </trkpt>
      <trkpt lat="45.91906" lon="4.86534">
        <ele>270</ele>
        <time>2018-08-28T09:05:57Z</time>
      </trkpt>
      <trkpt lat="45.91908" lon="4.86539">
        <ele>270</ele>
        <time>2018-08-28T09:05:58Z</time>
      </trkpt>
      <trkpt lat="45.91911" lon="4.86549">
        <ele>270</ele>
        <time>2018-08-28T09:06:00Z</time>
      </trkpt>
      <trkpt lat="45.91913" lon="4.86554">
        <ele>270</ele>
        <time>2018-08-28T09:06:01Z</time>
      </trkpt>
      <trkpt lat="45.91916" lon="4.86564">
        <ele>270</ele>
        <time>2018-08-28T09:06:03Z</time>
      </trkpt>
      <trkpt lat="45.91918" lon="4.8657">
        <ele>271</ele>
        <time>2018-08-28T09:06:04Z</time>
      </trkpt>
      <trkpt lat="45.91922" lon="4.86581">
        <ele>271</ele>
        <time>2018-08-28T09:06:06Z</time>
      </trkpt>
      <trkpt lat="45.91924" lon="4.86586">
        <ele>271</ele>
        <time>2018-08-28T09:06:07Z</time>
      </trkpt>
      <trkpt lat="45.91927" lon="4.86597">
        <ele>271</ele>
        <time>2018-08-28T09:06:10Z</time>
      </trkpt>
      <trkpt lat="45.91929" lon="4.866">
        <ele>271</ele>
        <time>2018-08-28T09:06:11Z</time>
      </trkpt>
      <trkpt lat="45.91932" lon="4.8661">
        <ele>272</ele>
        <time>2018-08-28T09:06:14Z</time>
      </trkpt>
      <trkpt lat="45.91936" lon="4.86622">
        <ele>272</ele>
        <time>2018-08-28T09:06:15Z</time>
      </trkpt>
      <trkpt lat="45.91938" lon="4.86629">
        <ele>272</ele>
        <time>2018-08-28T09:06:17Z</time>
      </trkpt>
      <trkpt lat="45.9194" lon="4.86636">
        <ele>272</ele>
        <time>2018-08-28T09:06:18Z</time>
      </trkpt>
      <trkpt lat="45.91943" lon="4.86647">
        <ele>272</ele>
        <time>2018-08-28T09:06:20Z</time>
      </trkpt>
      <trkpt lat="45.91944" lon="4.86652">
        <ele>272</ele>
        <time>2018-08-28T09:06:21Z</time>
      </trkpt>
      <trkpt lat="45.91947" lon="4.86663">
        <ele>272</ele>
        <time>2018-08-28T09:06:23Z</time>
      </trkpt>
      <trkpt lat="45.91948" lon="4.86668">
        <ele>273</ele>
        <time>2018-08-28T09:06:24Z</time>
      </trkpt>
      <trkpt lat="45.91951" lon="4.86678">
        <ele>273</ele>
        <time>2018-08-28T09:06:26Z</time>
      </trkpt>
      <trkpt lat="45.91952" lon="4.86683">
        <ele>274</ele>
        <time>2018-08-28T09:06:27Z</time>
      </trkpt>
      <trkpt lat="45.91955" lon="4.86692">
        <ele>274</ele>
        <time>2018-08-28T09:06:29Z</time>
      </trkpt>
      <trkpt lat="45.91956" lon="4.86697">
        <ele>274</ele>
        <time>2018-08-28T09:06:30Z</time>
      </trkpt>
      <trkpt lat="45.91958" lon="4.86705">
        <ele>274</ele>
        <time>2018-08-28T09:06:32Z</time>
      </trkpt>
      <trkpt lat="45.9196" lon="4.86712">
        <ele>274</ele>
        <time>2018-08-28T09:06:33Z</time>
      </trkpt>
      <trkpt lat="45.91963" lon="4.86721">
        <ele>274</ele>
        <time>2018-08-28T09:06:36Z</time>
      </trkpt>
      <trkpt lat="45.91964" lon="4.86724">
        <ele>274</ele>
        <time>2018-08-28T09:06:37Z</time>
      </trkpt>
      <trkpt lat="45.91968" lon="4.86735">
        <ele>274</ele>
        <time>2018-08-28T09:06:40Z</time>
      </trkpt>
      <trkpt lat="45.9197" lon="4.86738">
        <ele>274</ele>
        <time>2018-08-28T09:06:41Z</time>
      </trkpt>
      <trkpt lat="45.91973" lon="4.86746">
        <ele>275</ele>
        <time>2018-08-28T09:06:43Z</time>
      </trkpt>
      <trkpt lat="45.91974" lon="4.8675">
        <ele>275</ele>
        <time>2018-08-28T09:06:44Z</time>
      </trkpt>
      <trkpt lat="45.91976" lon="4.86758">
        <ele>277</ele>
        <time>2018-08-28T09:06:46Z</time>
      </trkpt>
      <trkpt lat="45.91977" lon="4.86763">
        <ele>277</ele>
        <time>2018-08-28T09:06:47Z</time>
      </trkpt>
      <trkpt lat="45.9198" lon="4.86775">
        <ele>277</ele>
        <time>2018-08-28T09:06:50Z</time>
      </trkpt>
      <trkpt lat="45.91981" lon="4.86779">
        <ele>277</ele>
        <time>2018-08-28T09:06:51Z</time>
      </trkpt>
      <trkpt lat="45.91984" lon="4.8679">
        <ele>277</ele>
        <time>2018-08-28T09:06:54Z</time>
      </trkpt>
      <trkpt lat="45.91986" lon="4.86794">
        <ele>277</ele>
        <time>2018-08-28T09:06:55Z</time>
      </trkpt>
      <trkpt lat="45.9199" lon="4.86805">
        <ele>278</ele>
        <time>2018-08-28T09:06:58Z</time>
      </trkpt>
      <trkpt lat="45.91991" lon="4.86809">
        <ele>278</ele>
        <time>2018-08-28T09:06:59Z</time>
      </trkpt>
      <trkpt lat="45.91994" lon="4.86817">
        <ele>278</ele>
        <time>2018-08-28T09:07:01Z</time>
      </trkpt>
      <trkpt lat="45.91995" lon="4.86821">
        <ele>278</ele>
        <time>2018-08-28T09:07:02Z</time>
      </trkpt>
      <trkpt lat="45.91999" lon="4.86832">
        <ele>279</ele>
        <time>2018-08-28T09:07:05Z</time>
      </trkpt>
      <trkpt lat="45.92" lon="4.86836">
        <ele>279</ele>
        <time>2018-08-28T09:07:06Z</time>
      </trkpt>
      <trkpt lat="45.92003" lon="4.86844">
        <ele>280</ele>
        <time>2018-08-28T09:07:08Z</time>
      </trkpt>
      <trkpt lat="45.92004" lon="4.86849">
        <ele>280</ele>
        <time>2018-08-28T09:07:09Z</time>
      </trkpt>
      <trkpt lat="45.92006" lon="4.86857">
        <ele>281</ele>
        <time>2018-08-28T09:07:11Z</time>
      </trkpt>
      <trkpt lat="45.92008" lon="4.86861">
        <ele>281</ele>
        <time>2018-08-28T09:07:12Z</time>
      </trkpt>
      <trkpt lat="45.92012" lon="4.86874">
        <ele>282</ele>
        <time>2018-08-28T09:07:13Z</time>
      </trkpt>
      <trkpt lat="45.92015" lon="4.86885">
        <ele>282</ele>
        <time>2018-08-28T09:07:16Z</time>
      </trkpt>
      <trkpt lat="45.92016" lon="4.86888">
        <ele>282</ele>
        <time>2018-08-28T09:07:17Z</time>
      </trkpt>
      <trkpt lat="45.92019" lon="4.86899">
        <ele>283</ele>
        <time>2018-08-28T09:07:20Z</time>
      </trkpt>
      <trkpt lat="45.9202" lon="4.86902">
        <ele>283</ele>
        <time>2018-08-28T09:07:21Z</time>
      </trkpt>
      <trkpt lat="45.92023" lon="4.86913">
        <ele>283</ele>
        <time>2018-08-28T09:07:24Z</time>
      </trkpt>
      <trkpt lat="45.92023" lon="4.86916">
        <ele>283</ele>
        <time>2018-08-28T09:07:25Z</time>
      </trkpt>
      <trkpt lat="45.92026" lon="4.86928">
        <ele>284</ele>
        <time>2018-08-28T09:07:28Z</time>
      </trkpt>
      <trkpt lat="45.92027" lon="4.86932">
        <ele>284</ele>
        <time>2018-08-28T09:07:29Z</time>
      </trkpt>
      <trkpt lat="45.92029" lon="4.8694">
        <ele>284</ele>
        <time>2018-08-28T09:07:31Z</time>
      </trkpt>
      <trkpt lat="45.9203" lon="4.86944">
        <ele>284</ele>
        <time>2018-08-28T09:07:32Z</time>
      </trkpt>
      <trkpt lat="45.92032" lon="4.86953">
        <ele>284</ele>
        <time>2018-08-28T09:07:34Z</time>
      </trkpt>
      <trkpt lat="45.92033" lon="4.86957">
        <ele>284</ele>
        <time>2018-08-28T09:07:35Z</time>
      </trkpt>
      <trkpt lat="45.92035" lon="4.86965">
        <ele>284</ele>
        <time>2018-08-28T09:07:37Z</time>
      </trkpt>
      <trkpt lat="45.92036" lon="4.86969">
        <ele>284</ele>
        <time>2018-08-28T09:07:38Z</time>
      </trkpt>
      <trkpt lat="45.92038" lon="4.86978">
        <ele>284</ele>
        <time>2018-08-28T09:07:40Z</time>
      </trkpt>
      <trkpt lat="45.92039" lon="4.86982">
        <ele>284</ele>
        <time>2018-08-28T09:07:41Z</time>
      </trkpt>
      <trkpt lat="45.92041" lon="4.86995">
        <ele>284</ele>
        <time>2018-08-28T09:07:44Z</time>
      </trkpt>
      <trkpt lat="45.92041" lon="4.86999">
        <ele>284</ele>
        <time>2018-08-28T09:07:45Z</time>
      </trkpt>
      <trkpt lat="45.92042" lon="4.87008">
        <ele>284</ele>
        <time>2018-08-28T09:07:47Z</time>
      </trkpt>
      <trkpt lat="45.92043" lon="4.87013">
        <ele>284</ele>
        <time>2018-08-28T09:07:48Z</time>
      </trkpt>
      <trkpt lat="45.92043" lon="4.87022">
        <ele>284</ele>
        <time>2018-08-28T09:07:50Z</time>
      </trkpt>
      <trkpt lat="45.92044" lon="4.87027">
        <ele>284</ele>
        <time>2018-08-28T09:07:51Z</time>
      </trkpt>
      <trkpt lat="45.92046" lon="4.87037">
        <ele>284</ele>
        <time>2018-08-28T09:07:53Z</time>
      </trkpt>
      <trkpt lat="45.92046" lon="4.87041">
        <ele>284</ele>
        <time>2018-08-28T09:07:54Z</time>
      </trkpt>
      <trkpt lat="45.92048" lon="4.8705">
        <ele>284</ele>
        <time>2018-08-28T09:07:56Z</time>
      </trkpt>
      <trkpt lat="45.92048" lon="4.87054">
        <ele>284</ele>
        <time>2018-08-28T09:07:57Z</time>
      </trkpt>
      <trkpt lat="45.92049" lon="4.87062">
        <ele>284</ele>
        <time>2018-08-28T09:07:59Z</time>
      </trkpt>
      <trkpt lat="45.9205" lon="4.87067">
        <ele>284</ele>
        <time>2018-08-28T09:08:00Z</time>
      </trkpt>
      <trkpt lat="45.92052" lon="4.87081">
        <ele>284</ele>
        <time>2018-08-28T09:08:01Z</time>
      </trkpt>
      <trkpt lat="45.92053" lon="4.87091">
        <ele>284</ele>
        <time>2018-08-28T09:08:03Z</time>
      </trkpt>
      <trkpt lat="45.92054" lon="4.87096">
        <ele>284</ele>
        <time>2018-08-28T09:08:04Z</time>
      </trkpt>
      <trkpt lat="45.92056" lon="4.87107">
        <ele>284</ele>
        <time>2018-08-28T09:08:06Z</time>
      </trkpt>
      <trkpt lat="45.92056" lon="4.8711">
        <ele>284</ele>
        <time>2018-08-28T09:08:07Z</time>
      </trkpt>
      <trkpt lat="45.92056" lon="4.87116">
        <ele>284</ele>
        <time>2018-08-28T09:08:09Z</time>
      </trkpt>
      <trkpt lat="45.92057" lon="4.87127">
        <ele>283</ele>
        <time>2018-08-28T09:08:10Z</time>
      </trkpt>
      <trkpt lat="45.92058" lon="4.87138">
        <ele>283</ele>
        <time>2018-08-28T09:08:12Z</time>
      </trkpt>
      <trkpt lat="45.92059" lon="4.87143">
        <ele>283</ele>
        <time>2018-08-28T09:08:13Z</time>
      </trkpt>
      <trkpt lat="45.9206" lon="4.87155">
        <ele>283</ele>
        <time>2018-08-28T09:08:15Z</time>
      </trkpt>
      <trkpt lat="45.9206" lon="4.87158">
        <ele>283</ele>
        <time>2018-08-28T09:08:16Z</time>
      </trkpt>
      <trkpt lat="45.9206" lon="4.87169">
        <ele>284</ele>
        <time>2018-08-28T09:08:19Z</time>
      </trkpt>
      <trkpt lat="45.92061" lon="4.87181">
        <ele>284</ele>
        <time>2018-08-28T09:08:20Z</time>
      </trkpt>
      <trkpt lat="45.92062" lon="4.87192">
        <ele>284</ele>
        <time>2018-08-28T09:08:22Z</time>
      </trkpt>
      <trkpt lat="45.92062" lon="4.87198">
        <ele>284</ele>
        <time>2018-08-28T09:08:23Z</time>
      </trkpt>
      <trkpt lat="45.92064" lon="4.8721">
        <ele>285</ele>
        <time>2018-08-28T09:08:25Z</time>
      </trkpt>
      <trkpt lat="45.92064" lon="4.87216">
        <ele>285</ele>
        <time>2018-08-28T09:08:26Z</time>
      </trkpt>
      <trkpt lat="45.92065" lon="4.87229">
        <ele>285</ele>
        <time>2018-08-28T09:08:28Z</time>
      </trkpt>
      <trkpt lat="45.92065" lon="4.87235">
        <ele>285</ele>
        <time>2018-08-28T09:08:29Z</time>
      </trkpt>
      <trkpt lat="45.92065" lon="4.87241">
        <ele>285</ele>
        <time>2018-08-28T09:08:30Z</time>
      </trkpt>
      <trkpt lat="45.92066" lon="4.87248">
        <ele>285</ele>
        <time>2018-08-28T09:08:31Z</time>
      </trkpt>
      <trkpt lat="45.92066" lon="4.87259">
        <ele>287</ele>
        <time>2018-08-28T09:08:33Z</time>
      </trkpt>
      <trkpt lat="45.92066" lon="4.87266">
        <ele>287</ele>
        <time>2018-08-28T09:08:34Z</time>
      </trkpt>
      <trkpt lat="45.92068" lon="4.87273">
        <ele>287</ele>
        <time>2018-08-28T09:08:35Z</time>
      </trkpt>
      <trkpt lat="45.92068" lon="4.8728">
        <ele>287</ele>
        <time>2018-08-28T09:08:36Z</time>
      </trkpt>
      <trkpt lat="45.92068" lon="4.87287">
        <ele>287</ele>
        <time>2018-08-28T09:08:37Z</time>
      </trkpt>
      <trkpt lat="45.92069" lon="4.87293">
        <ele>287</ele>
        <time>2018-08-28T09:08:38Z</time>
      </trkpt>
      <trkpt lat="45.9207" lon="4.873">
        <ele>287</ele>
        <time>2018-08-28T09:08:39Z</time>
      </trkpt>
      <trkpt lat="45.92071" lon="4.87307">
        <ele>287</ele>
        <time>2018-08-28T09:08:40Z</time>
      </trkpt>
      <trkpt lat="45.92071" lon="4.87319">
        <ele>287</ele>
        <time>2018-08-28T09:08:42Z</time>
      </trkpt>
      <trkpt lat="45.92072" lon="4.87324">
        <ele>288</ele>
        <time>2018-08-28T09:08:43Z</time>
      </trkpt>
      <trkpt lat="45.92073" lon="4.87336">
        <ele>288</ele>
        <time>2018-08-28T09:08:45Z</time>
      </trkpt>
      <trkpt lat="45.92074" lon="4.87343">
        <ele>288</ele>
        <time>2018-08-28T09:08:46Z</time>
      </trkpt>
      <trkpt lat="45.92074" lon="4.87355">
        <ele>288</ele>
        <time>2018-08-28T09:08:48Z</time>
      </trkpt>
      <trkpt lat="45.92074" lon="4.87362">
        <ele>288</ele>
        <time>2018-08-28T09:08:49Z</time>
      </trkpt>
      <trkpt lat="45.92075" lon="4.87369">
        <ele>288</ele>
        <time>2018-08-28T09:08:50Z</time>
      </trkpt>
      <trkpt lat="45.92076" lon="4.87376">
        <ele>288</ele>
        <time>2018-08-28T09:08:51Z</time>
      </trkpt>
      <trkpt lat="45.92078" lon="4.87388">
        <ele>288</ele>
        <time>2018-08-28T09:08:53Z</time>
      </trkpt>
      <trkpt lat="45.92078" lon="4.87394">
        <ele>288</ele>
        <time>2018-08-28T09:08:54Z</time>
      </trkpt>
      <trkpt lat="45.92079" lon="4.87402">
        <ele>289</ele>
        <time>2018-08-28T09:08:55Z</time>
      </trkpt>
      <trkpt lat="45.9208" lon="4.87408">
        <ele>289</ele>
        <time>2018-08-28T09:08:56Z</time>
      </trkpt>
      <trkpt lat="45.92081" lon="4.8742">
        <ele>288</ele>
        <time>2018-08-28T09:08:58Z</time>
      </trkpt>
      <trkpt lat="45.92081" lon="4.87427">
        <ele>288</ele>
        <time>2018-08-28T09:08:59Z</time>
      </trkpt>
      <trkpt lat="45.92083" lon="4.87438">
        <ele>286</ele>
        <time>2018-08-28T09:09:01Z</time>
      </trkpt>
      <trkpt lat="45.92084" lon="4.87444">
        <ele>287</ele>
        <time>2018-08-28T09:09:02Z</time>
      </trkpt>
      <trkpt lat="45.92085" lon="4.87453">
        <ele>286</ele>
        <time>2018-08-28T09:09:04Z</time>
      </trkpt>
      <trkpt lat="45.92087" lon="4.87458">
        <ele>286</ele>
        <time>2018-08-28T09:09:05Z</time>
      </trkpt>
      <trkpt lat="45.92089" lon="4.87465">
        <ele>286</ele>
        <time>2018-08-28T09:09:06Z</time>
      </trkpt>
      <trkpt lat="45.92091" lon="4.87472">
        <ele>285</ele>
        <time>2018-08-28T09:09:07Z</time>
      </trkpt>
      <trkpt lat="45.92095" lon="4.87478">
        <ele>285</ele>
        <time>2018-08-28T09:09:08Z</time>
      </trkpt>
      <trkpt lat="45.92098" lon="4.87485">
        <ele>285</ele>
        <time>2018-08-28T09:09:09Z</time>
      </trkpt>
      <trkpt lat="45.92102" lon="4.87494">
        <ele>285</ele>
        <time>2018-08-28T09:09:10Z</time>
      </trkpt>
      <trkpt lat="45.92105" lon="4.87502">
        <ele>282</ele>
        <time>2018-08-28T09:09:11Z</time>
      </trkpt>
      <trkpt lat="45.92109" lon="4.87508">
        <ele>282</ele>
        <time>2018-08-28T09:09:12Z</time>
      </trkpt>
      <trkpt lat="45.92112" lon="4.87514">
        <ele>282</ele>
        <time>2018-08-28T09:09:13Z</time>
      </trkpt>
      <trkpt lat="45.92116" lon="4.87521">
        <ele>281</ele>
        <time>2018-08-28T09:09:14Z</time>
      </trkpt>
      <trkpt lat="45.9212" lon="4.87528">
        <ele>281</ele>
        <time>2018-08-28T09:09:15Z</time>
      </trkpt>
      <trkpt lat="45.92124" lon="4.87535">
        <ele>281</ele>
        <time>2018-08-28T09:09:16Z</time>
      </trkpt>
      <trkpt lat="45.92127" lon="4.87542">
        <ele>281</ele>
        <time>2018-08-28T09:09:17Z</time>
      </trkpt>
      <trkpt lat="45.92131" lon="4.87551">
        <ele>280</ele>
        <time>2018-08-28T09:09:18Z</time>
      </trkpt>
      <trkpt lat="45.92135" lon="4.8756">
        <ele>280</ele>
        <time>2018-08-28T09:09:19Z</time>
      </trkpt>
      <trkpt lat="45.92138" lon="4.87569">
        <ele>280</ele>
        <time>2018-08-28T09:09:20Z</time>
      </trkpt>
      <trkpt lat="45.9214" lon="4.87579">
        <ele>280</ele>
        <time>2018-08-28T09:09:21Z</time>
      </trkpt>
      <trkpt lat="45.92143" lon="4.87592">
        <ele>279</ele>
        <time>2018-08-28T09:09:22Z</time>
      </trkpt>
      <trkpt lat="45.92145" lon="4.87601">
        <ele>279</ele>
        <time>2018-08-28T09:09:23Z</time>
      </trkpt>
      <trkpt lat="45.92146" lon="4.87611">
        <ele>279</ele>
        <time>2018-08-28T09:09:24Z</time>
      </trkpt>
      <trkpt lat="45.92148" lon="4.8762">
        <ele>280</ele>
        <time>2018-08-28T09:09:25Z</time>
      </trkpt>
      <trkpt lat="45.92148" lon="4.8763">
        <ele>280</ele>
        <time>2018-08-28T09:09:26Z</time>
      </trkpt>
      <trkpt lat="45.92148" lon="4.87638">
        <ele>280</ele>
        <time>2018-08-28T09:09:27Z</time>
      </trkpt>
      <trkpt lat="45.92148" lon="4.87646">
        <ele>280</ele>
        <time>2018-08-28T09:09:28Z</time>
      </trkpt>
      <trkpt lat="45.9215" lon="4.87653">
        <ele>280</ele>
        <time>2018-08-28T09:09:29Z</time>
      </trkpt>
      <trkpt lat="45.92151" lon="4.87659">
        <ele>280</ele>
        <time>2018-08-28T09:09:30Z</time>
      </trkpt>
      <trkpt lat="45.9215" lon="4.87667">
        <ele>283</ele>
        <time>2018-08-28T09:09:31Z</time>
      </trkpt>
      <trkpt lat="45.92151" lon="4.87674">
        <ele>283</ele>
        <time>2018-08-28T09:09:32Z</time>
      </trkpt>
      <trkpt lat="45.92153" lon="4.87685">
        <ele>283</ele>
        <time>2018-08-28T09:09:34Z</time>
      </trkpt>
      <trkpt lat="45.92153" lon="4.8769">
        <ele>283</ele>
        <time>2018-08-28T09:09:35Z</time>
      </trkpt>
      <trkpt lat="45.92154" lon="4.87703">
        <ele>284</ele>
        <time>2018-08-28T09:09:38Z</time>
      </trkpt>
      <trkpt lat="45.92154" lon="4.87705">
        <ele>284</ele>
        <time>2018-08-28T09:09:39Z</time>
      </trkpt>
      <trkpt lat="45.92155" lon="4.87717">
        <ele>285</ele>
        <time>2018-08-28T09:09:43Z</time>
      </trkpt>
      <trkpt lat="45.92155" lon="4.87722">
        <ele>285</ele>
        <time>2018-08-28T09:09:44Z</time>
      </trkpt>
      <trkpt lat="45.92156" lon="4.87731">
        <ele>285</ele>
        <time>2018-08-28T09:09:46Z</time>
      </trkpt>
      <trkpt lat="45.92157" lon="4.87736">
        <ele>285</ele>
        <time>2018-08-28T09:09:47Z</time>
      </trkpt>
      <trkpt lat="45.92159" lon="4.87745">
        <ele>286</ele>
        <time>2018-08-28T09:09:49Z</time>
      </trkpt>
      <trkpt lat="45.92159" lon="4.87749">
        <ele>286</ele>
        <time>2018-08-28T09:09:50Z</time>
      </trkpt>
      <trkpt lat="45.9216" lon="4.87758">
        <ele>287</ele>
        <time>2018-08-28T09:09:52Z</time>
      </trkpt>
      <trkpt lat="45.9216" lon="4.87762">
        <ele>287</ele>
        <time>2018-08-28T09:09:53Z</time>
      </trkpt>
      <trkpt lat="45.92161" lon="4.87775">
        <ele>288</ele>
        <time>2018-08-28T09:09:56Z</time>
      </trkpt>
      <trkpt lat="45.92162" lon="4.87779">
        <ele>288</ele>
        <time>2018-08-28T09:09:57Z</time>
      </trkpt>
      <trkpt lat="45.92162" lon="4.87792">
        <ele>289</ele>
        <time>2018-08-28T09:10:00Z</time>
      </trkpt>
      <trkpt lat="45.92162" lon="4.87796">
        <ele>289</ele>
        <time>2018-08-28T09:10:01Z</time>
      </trkpt>
      <trkpt lat="45.92162" lon="4.87805">
        <ele>289</ele>
        <time>2018-08-28T09:10:03Z</time>
      </trkpt>
      <trkpt lat="45.92163" lon="4.87809">
        <ele>289</ele>
        <time>2018-08-28T09:10:04Z</time>
      </trkpt>
      <trkpt lat="45.92163" lon="4.87818">
        <ele>290</ele>
        <time>2018-08-28T09:10:06Z</time>
      </trkpt>
      <trkpt lat="45.92163" lon="4.87823">
        <ele>290</ele>
        <time>2018-08-28T09:10:07Z</time>
      </trkpt>
      <trkpt lat="45.92163" lon="4.87831">
        <ele>290</ele>
        <time>2018-08-28T09:10:09Z</time>
      </trkpt>
      <trkpt lat="45.92163" lon="4.87836">
        <ele>290</ele>
        <time>2018-08-28T09:10:10Z</time>
      </trkpt>
      <trkpt lat="45.92164" lon="4.87844">
        <ele>291</ele>
        <time>2018-08-28T09:10:12Z</time>
      </trkpt>
      <trkpt lat="45.92165" lon="4.87848">
        <ele>291</ele>
        <time>2018-08-28T09:10:13Z</time>
      </trkpt>
      <trkpt lat="45.92166" lon="4.87862">
        <ele>291</ele>
        <time>2018-08-28T09:10:14Z</time>
      </trkpt>
      <trkpt lat="45.92169" lon="4.87874">
        <ele>290</ele>
        <time>2018-08-28T09:10:16Z</time>
      </trkpt>
      <trkpt lat="45.9217" lon="4.8788">
        <ele>290</ele>
        <time>2018-08-28T09:10:17Z</time>
      </trkpt>
      <trkpt lat="45.92171" lon="4.87891">
        <ele>291</ele>
        <time>2018-08-28T09:10:21Z</time>
      </trkpt>
      <trkpt lat="45.92171" lon="4.87895">
        <ele>291</ele>
        <time>2018-08-28T09:10:22Z</time>
      </trkpt>
      <trkpt lat="45.92171" lon="4.87905">
        <ele>291</ele>
        <time>2018-08-28T09:10:24Z</time>
      </trkpt>
      <trkpt lat="45.92171" lon="4.87918">
        <ele>292</ele>
        <time>2018-08-28T09:10:25Z</time>
      </trkpt>
      <trkpt lat="45.92172" lon="4.87928">
        <ele>292</ele>
        <time>2018-08-28T09:10:28Z</time>
      </trkpt>
      <trkpt lat="45.92172" lon="4.87932">
        <ele>292</ele>
        <time>2018-08-28T09:10:29Z</time>
      </trkpt>
      <trkpt lat="45.92172" lon="4.87942">
        <ele>292</ele>
        <time>2018-08-28T09:10:30Z</time>
      </trkpt>
      <trkpt lat="45.92173" lon="4.87948">
        <ele>293</ele>
        <time>2018-08-28T09:10:31Z</time>
      </trkpt>
      <trkpt lat="45.92173" lon="4.87959">
        <ele>293</ele>
        <time>2018-08-28T09:10:33Z</time>
      </trkpt>
      <trkpt lat="45.92173" lon="4.87965">
        <ele>293</ele>
        <time>2018-08-28T09:10:34Z</time>
      </trkpt>
      <trkpt lat="45.92173" lon="4.87976">
        <ele>293</ele>
        <time>2018-08-28T09:10:36Z</time>
      </trkpt>
      <trkpt lat="45.92173" lon="4.87982">
        <ele>293</ele>
        <time>2018-08-28T09:10:37Z</time>
      </trkpt>
      <trkpt lat="45.92175" lon="4.87993">
        <ele>293</ele>
        <time>2018-08-28T09:10:39Z</time>
      </trkpt>
      <trkpt lat="45.92176" lon="4.87999">
        <ele>294</ele>
        <time>2018-08-28T09:10:40Z</time>
      </trkpt>
      <trkpt lat="45.92175" lon="4.88011">
        <ele>294</ele>
        <time>2018-08-28T09:10:42Z</time>
      </trkpt>
      <trkpt lat="45.92175" lon="4.88014">
        <ele>294</ele>
        <time>2018-08-28T09:10:43Z</time>
      </trkpt>
      <trkpt lat="45.92174" lon="4.88021">
        <ele>294</ele>
        <time>2018-08-28T09:10:44Z</time>
      </trkpt>
      <trkpt lat="45.92173" lon="4.88027">
        <ele>294</ele>
        <time>2018-08-28T09:10:45Z</time>
      </trkpt>
      <trkpt lat="45.92173" lon="4.88032">
        <ele>294</ele>
        <time>2018-08-28T09:10:47Z</time>
      </trkpt>
      <trkpt lat="45.92171" lon="4.8804">
        <ele>294</ele>
        <time>2018-08-28T09:10:48Z</time>
      </trkpt>
      <trkpt lat="45.92168" lon="4.88048">
        <ele>293</ele>
        <time>2018-08-28T09:10:49Z</time>
      </trkpt>
      <trkpt lat="45.92171" lon="4.88057">
        <ele>293</ele>
        <time>2018-08-28T09:10:50Z</time>
      </trkpt>
      <trkpt lat="45.9217" lon="4.88068">
        <ele>293</ele>
        <time>2018-08-28T09:10:52Z</time>
      </trkpt>
      <trkpt lat="45.9217" lon="4.88071">
        <ele>293</ele>
        <time>2018-08-28T09:10:53Z</time>
      </trkpt>
      <trkpt lat="45.92166" lon="4.88082">
        <ele>293</ele>
        <time>2018-08-28T09:10:55Z</time>
      </trkpt>
      <trkpt lat="45.92165" lon="4.88086">
        <ele>293</ele>
        <time>2018-08-28T09:10:56Z</time>
      </trkpt>
      <trkpt lat="45.92164" lon="4.88097">
        <ele>293</ele>
        <time>2018-08-28T09:10:58Z</time>
      </trkpt>
      <trkpt lat="45.92164" lon="4.88099">
        <ele>293</ele>
        <time>2018-08-28T09:10:59Z</time>
      </trkpt>
      <trkpt lat="45.92162" lon="4.88107">
        <ele>293</ele>
        <time>2018-08-28T09:11:00Z</time>
      </trkpt>
      <trkpt lat="45.9216" lon="4.88111">
        <ele>293</ele>
        <time>2018-08-28T09:11:01Z</time>
      </trkpt>
      <trkpt lat="45.92157" lon="4.88121">
        <ele>294</ele>
        <time>2018-08-28T09:11:03Z</time>
      </trkpt>
      <trkpt lat="45.92157" lon="4.88124">
        <ele>294</ele>
        <time>2018-08-28T09:11:04Z</time>
      </trkpt>
      <trkpt lat="45.92155" lon="4.88134">
        <ele>293</ele>
        <time>2018-08-28T09:11:07Z</time>
      </trkpt>
      <trkpt lat="45.92155" lon="4.88137">
        <ele>293</ele>
        <time>2018-08-28T09:11:08Z</time>
      </trkpt>
      <trkpt lat="45.92154" lon="4.88148">
        <ele>293</ele>
        <time>2018-08-28T09:11:11Z</time>
      </trkpt>
      <trkpt lat="45.92153" lon="4.88153">
        <ele>293</ele>
        <time>2018-08-28T09:11:12Z</time>
      </trkpt>
      <trkpt lat="45.92152" lon="4.88161">
        <ele>293</ele>
        <time>2018-08-28T09:11:14Z</time>
      </trkpt>
      <trkpt lat="45.92151" lon="4.88165">
        <ele>293</ele>
        <time>2018-08-28T09:11:15Z</time>
      </trkpt>
      <trkpt lat="45.9215" lon="4.88177">
        <ele>292</ele>
        <time>2018-08-28T09:11:18Z</time>
      </trkpt>
      <trkpt lat="45.9215" lon="4.8818">
        <ele>292</ele>
        <time>2018-08-28T09:11:19Z</time>
      </trkpt>
      <trkpt lat="45.92151" lon="4.8819">
        <ele>292</ele>
        <time>2018-08-28T09:11:22Z</time>
      </trkpt>
      <trkpt lat="45.92154" lon="4.88202">
        <ele>292</ele>
        <time>2018-08-28T09:11:23Z</time>
      </trkpt>
      <trkpt lat="45.9216" lon="4.88205">
        <ele>292</ele>
        <time>2018-08-28T09:11:26Z</time>
      </trkpt>
      <trkpt lat="45.92163" lon="4.88205">
        <ele>292</ele>
        <time>2018-08-28T09:11:27Z</time>
      </trkpt>
      <trkpt lat="45.92169" lon="4.88204">
        <ele>293</ele>
        <time>2018-08-28T09:11:29Z</time>
      </trkpt>
      <trkpt lat="45.92172" lon="4.88204">
        <ele>293</ele>
        <time>2018-08-28T09:11:30Z</time>
      </trkpt>
      <trkpt lat="45.9218" lon="4.88202">
        <ele>293</ele>
        <time>2018-08-28T09:11:32Z</time>
      </trkpt>
      <trkpt lat="45.92184" lon="4.88202">
        <ele>293</ele>
        <time>2018-08-28T09:11:33Z</time>
      </trkpt>
      <trkpt lat="45.92191" lon="4.88202">
        <ele>293</ele>
        <time>2018-08-28T09:11:35Z</time>
      </trkpt>
      <trkpt lat="45.92201" lon="4.88201">
        <ele>293</ele>
        <time>2018-08-28T09:11:36Z</time>
      </trkpt>
      <trkpt lat="45.92208" lon="4.88202">
        <ele>293</ele>
        <time>2018-08-28T09:11:38Z</time>
      </trkpt>
      <trkpt lat="45.9221" lon="4.88202">
        <ele>293</ele>
        <time>2018-08-28T09:11:39Z</time>
      </trkpt>
      <trkpt lat="45.92217" lon="4.88203">
        <ele>293</ele>
        <time>2018-08-28T09:11:41Z</time>
      </trkpt>
      <trkpt lat="45.92222" lon="4.88205">
        <ele>293</ele>
        <time>2018-08-28T09:11:42Z</time>
      </trkpt>
      <trkpt lat="45.92226" lon="4.88205">
        <ele>294</ele>
        <time>2018-08-28T09:11:44Z</time>
      </trkpt>
      <trkpt lat="45.92234" lon="4.88205">
        <ele>294</ele>
        <time>2018-08-28T09:11:45Z</time>
      </trkpt>
      <trkpt lat="45.92242" lon="4.88206">
        <ele>294</ele>
        <time>2018-08-28T09:11:47Z</time>
      </trkpt>
      <trkpt lat="45.92246" lon="4.88205">
        <ele>294</ele>
        <time>2018-08-28T09:11:48Z</time>
      </trkpt>
      <trkpt lat="45.92252" lon="4.88205">
        <ele>294</ele>
        <time>2018-08-28T09:11:49Z</time>
      </trkpt>
      <trkpt lat="45.92256" lon="4.88204">
        <ele>294</ele>
        <time>2018-08-28T09:11:50Z</time>
      </trkpt>
      <trkpt lat="45.92265" lon="4.88202">
        <ele>294</ele>
        <time>2018-08-28T09:11:52Z</time>
      </trkpt>
      <trkpt lat="45.92268" lon="4.88202">
        <ele>294</ele>
        <time>2018-08-28T09:11:53Z</time>
      </trkpt>
      <trkpt lat="45.92276" lon="4.88202">
        <ele>294</ele>
        <time>2018-08-28T09:11:55Z</time>
      </trkpt>
      <trkpt lat="45.92281" lon="4.88202">
        <ele>294</ele>
        <time>2018-08-28T09:11:56Z</time>
      </trkpt>
      <trkpt lat="45.92288" lon="4.88203">
        <ele>294</ele>
        <time>2018-08-28T09:11:58Z</time>
      </trkpt>
      <trkpt lat="45.92293" lon="4.88203">
        <ele>294</ele>
        <time>2018-08-28T09:11:59Z</time>
      </trkpt>
      <trkpt lat="45.92298" lon="4.88203">
        <ele>294</ele>
        <time>2018-08-28T09:12:00Z</time>
      </trkpt>
      <trkpt lat="45.92303" lon="4.88204">
        <ele>294</ele>
        <time>2018-08-28T09:12:01Z</time>
      </trkpt>
      <trkpt lat="45.92307" lon="4.88203">
        <ele>294</ele>
        <time>2018-08-28T09:12:02Z</time>
      </trkpt>
      <trkpt lat="45.92312" lon="4.88203">
        <ele>294</ele>
        <time>2018-08-28T09:12:03Z</time>
      </trkpt>
      <trkpt lat="45.9232" lon="4.88204">
        <ele>293</ele>
        <time>2018-08-28T09:12:05Z</time>
      </trkpt>
      <trkpt lat="45.92325" lon="4.88204">
        <ele>293</ele>
        <time>2018-08-28T09:12:06Z</time>
      </trkpt>
      <trkpt lat="45.9233" lon="4.88204">
        <ele>293</ele>
        <time>2018-08-28T09:12:07Z</time>
      </trkpt>
      <trkpt lat="45.92335" lon="4.88205">
        <ele>292</ele>
        <time>2018-08-28T09:12:08Z</time>
      </trkpt>
      <trkpt lat="45.9234" lon="4.88205">
        <ele>292</ele>
        <time>2018-08-28T09:12:09Z</time>
      </trkpt>
      <trkpt lat="45.92346" lon="4.88205">
        <ele>292</ele>
        <time>2018-08-28T09:12:10Z</time>
      </trkpt>
      <trkpt lat="45.92352" lon="4.88206">
        <ele>292</ele>
        <time>2018-08-28T09:12:11Z</time>
      </trkpt>
      <trkpt lat="45.92358" lon="4.88207">
        <ele>292</ele>
        <time>2018-08-28T09:12:12Z</time>
      </trkpt>
      <trkpt lat="45.92364" lon="4.88208">
        <ele>292</ele>
        <time>2018-08-28T09:12:13Z</time>
      </trkpt>
      <trkpt lat="45.92369" lon="4.88205">
        <ele>292</ele>
        <time>2018-08-28T09:12:14Z</time>
      </trkpt>
      <trkpt lat="45.92377" lon="4.88204">
        <ele>292</ele>
        <time>2018-08-28T09:12:15Z</time>
      </trkpt>
      <trkpt lat="45.92382" lon="4.88203">
        <ele>292</ele>
        <time>2018-08-28T09:12:16Z</time>
      </trkpt>
      <trkpt lat="45.92387" lon="4.88203">
        <ele>292</ele>
        <time>2018-08-28T09:12:17Z</time>
      </trkpt>
      <trkpt lat="45.92391" lon="4.88204">
        <ele>292</ele>
        <time>2018-08-28T09:12:18Z</time>
      </trkpt>
      <trkpt lat="45.92397" lon="4.88204">
        <ele>292</ele>
        <time>2018-08-28T09:12:19Z</time>
      </trkpt>
      <trkpt lat="45.92402" lon="4.88208">
        <ele>292</ele>
        <time>2018-08-28T09:12:20Z</time>
      </trkpt>
      <trkpt lat="45.92407" lon="4.88209">
        <ele>292</ele>
        <time>2018-08-28T09:12:21Z</time>
      </trkpt>
      <trkpt lat="45.92414" lon="4.88207">
        <ele>292</ele>
        <time>2018-08-28T09:12:22Z</time>
      </trkpt>
      <trkpt lat="45.92419" lon="4.88208">
        <ele>291</ele>
        <time>2018-08-28T09:12:23Z</time>
      </trkpt>
      <trkpt lat="45.92426" lon="4.88207">
        <ele>291</ele>
        <time>2018-08-28T09:12:24Z</time>
      </trkpt>
      <trkpt lat="45.92431" lon="4.88207">
        <ele>291</ele>
        <time>2018-08-28T09:12:25Z</time>
      </trkpt>
      <trkpt lat="45.92436" lon="4.88208">
        <ele>291</ele>
        <time>2018-08-28T09:12:26Z</time>
      </trkpt>
      <trkpt lat="45.92441" lon="4.8821">
        <ele>291</ele>
        <time>2018-08-28T09:12:27Z</time>
      </trkpt>
      <trkpt lat="45.92447" lon="4.88207">
        <ele>291</ele>
        <time>2018-08-28T09:12:28Z</time>
      </trkpt>
      <trkpt lat="45.92452" lon="4.88205">
        <ele>291</ele>
        <time>2018-08-28T09:12:29Z</time>
      </trkpt>
      <trkpt lat="45.92457" lon="4.88205">
        <ele>291</ele>
        <time>2018-08-28T09:12:30Z</time>
      </trkpt>
      <trkpt lat="45.92466" lon="4.88205">
        <ele>291</ele>
        <time>2018-08-28T09:12:32Z</time>
      </trkpt>
      <trkpt lat="45.92469" lon="4.88207">
        <ele>291</ele>
        <time>2018-08-28T09:12:33Z</time>
      </trkpt>
      <trkpt lat="45.92475" lon="4.88205">
        <ele>291</ele>
        <time>2018-08-28T09:12:34Z</time>
      </trkpt>
      <trkpt lat="45.92479" lon="4.88205">
        <ele>291</ele>
        <time>2018-08-28T09:12:35Z</time>
      </trkpt>
      <trkpt lat="45.92486" lon="4.88206">
        <ele>291</ele>
        <time>2018-08-28T09:12:36Z</time>
      </trkpt>
      <trkpt lat="45.92491" lon="4.88206">
        <ele>291</ele>
        <time>2018-08-28T09:12:37Z</time>
      </trkpt>
      <trkpt lat="45.92497" lon="4.88207">
        <ele>291</ele>
        <time>2018-08-28T09:12:38Z</time>
      </trkpt>
      <trkpt lat="45.92503" lon="4.88206">
        <ele>291</ele>
        <time>2018-08-28T09:12:39Z</time>
      </trkpt>
      <trkpt lat="45.92508" lon="4.88206">
        <ele>291</ele>
        <time>2018-08-28T09:12:40Z</time>
      </trkpt>
      <trkpt lat="45.92514" lon="4.88206">
        <ele>291</ele>
        <time>2018-08-28T09:12:41Z</time>
      </trkpt>
      <trkpt lat="45.92521" lon="4.88205">
        <ele>291</ele>
        <time>2018-08-28T09:12:42Z</time>
      </trkpt>
      <trkpt lat="45.92526" lon="4.88205">
        <ele>291</ele>
        <time>2018-08-28T09:12:43Z</time>
      </trkpt>
      <trkpt lat="45.92531" lon="4.88205">
        <ele>291</ele>
        <time>2018-08-28T09:12:44Z</time>
      </trkpt>
      <trkpt lat="45.92538" lon="4.882">
        <ele>291</ele>
        <time>2018-08-28T09:12:45Z</time>
      </trkpt>
      <trkpt lat="45.92543" lon="4.882">
        <ele>291</ele>
        <time>2018-08-28T09:12:46Z</time>
      </trkpt>
      <trkpt lat="45.92548" lon="4.88201">
        <ele>291</ele>
        <time>2018-08-28T09:12:47Z</time>
      </trkpt>
      <trkpt lat="45.92553" lon="4.88201">
        <ele>291</ele>
        <time>2018-08-28T09:12:48Z</time>
      </trkpt>
      <trkpt lat="45.92558" lon="4.88201">
        <ele>291</ele>
        <time>2018-08-28T09:12:49Z</time>
      </trkpt>
      <trkpt lat="45.92563" lon="4.88201">
        <ele>291</ele>
        <time>2018-08-28T09:12:50Z</time>
      </trkpt>
      <trkpt lat="45.9257" lon="4.88202">
        <ele>291</ele>
        <time>2018-08-28T09:12:51Z</time>
      </trkpt>
      <trkpt lat="45.92575" lon="4.88202">
        <ele>291</ele>
        <time>2018-08-28T09:12:52Z</time>
      </trkpt>
      <trkpt lat="45.9258" lon="4.88203">
        <ele>291</ele>
        <time>2018-08-28T09:12:53Z</time>
      </trkpt>
      <trkpt lat="45.92585" lon="4.88203">
        <ele>291</ele>
        <time>2018-08-28T09:12:54Z</time>
      </trkpt>
      <trkpt lat="45.92589" lon="4.88204">
        <ele>291</ele>
        <time>2018-08-28T09:12:55Z</time>
      </trkpt>
      <trkpt lat="45.92597" lon="4.88205">
        <ele>291</ele>
        <time>2018-08-28T09:12:57Z</time>
      </trkpt>
      <trkpt lat="45.92601" lon="4.88208">
        <ele>291</ele>
        <time>2018-08-28T09:12:58Z</time>
      </trkpt>
      <trkpt lat="45.92609" lon="4.88208">
        <ele>291</ele>
        <time>2018-08-28T09:13:00Z</time>
      </trkpt>
      <trkpt lat="45.92613" lon="4.88209">
        <ele>291</ele>
        <time>2018-08-28T09:13:01Z</time>
      </trkpt>
      <trkpt lat="45.92618" lon="4.8821">
        <ele>291</ele>
        <time>2018-08-28T09:13:02Z</time>
      </trkpt>
      <trkpt lat="45.92623" lon="4.88211">
        <ele>291</ele>
        <time>2018-08-28T09:13:03Z</time>
      </trkpt>
      <trkpt lat="45.92628" lon="4.8821">
        <ele>292</ele>
        <time>2018-08-28T09:13:04Z</time>
      </trkpt>
      <trkpt lat="45.92633" lon="4.8821">
        <ele>292</ele>
        <time>2018-08-28T09:13:05Z</time>
      </trkpt>
      <trkpt lat="45.92638" lon="4.88207">
        <ele>292</ele>
        <time>2018-08-28T09:13:06Z</time>
      </trkpt>
      <trkpt lat="45.92641" lon="4.88213">
        <ele>292</ele>
        <time>2018-08-28T09:13:07Z</time>
      </trkpt>
      <trkpt lat="45.92647" lon="4.88214">
        <ele>292</ele>
        <time>2018-08-28T09:13:08Z</time>
      </trkpt>
      <trkpt lat="45.92653" lon="4.88216">
        <ele>292</ele>
        <time>2018-08-28T09:13:09Z</time>
      </trkpt>
      <trkpt lat="45.92658" lon="4.88216">
        <ele>292</ele>
        <time>2018-08-28T09:13:10Z</time>
      </trkpt>
      <trkpt lat="45.92664" lon="4.88216">
        <ele>292</ele>
        <time>2018-08-28T09:13:11Z</time>
      </trkpt>
      <trkpt lat="45.92668" lon="4.88217">
        <ele>292</ele>
        <time>2018-08-28T09:13:12Z</time>
      </trkpt>
      <trkpt lat="45.92674" lon="4.88217">
        <ele>292</ele>
        <time>2018-08-28T09:13:13Z</time>
      </trkpt>
      <trkpt lat="45.92678" lon="4.88218">
        <ele>292</ele>
        <time>2018-08-28T09:13:14Z</time>
      </trkpt>
      <trkpt lat="45.92684" lon="4.88215">
        <ele>292</ele>
        <time>2018-08-28T09:13:15Z</time>
      </trkpt>
      <trkpt lat="45.9269" lon="4.88212">
        <ele>292</ele>
        <time>2018-08-28T09:13:16Z</time>
      </trkpt>
      <trkpt lat="45.92695" lon="4.88211">
        <ele>292</ele>
        <time>2018-08-28T09:13:17Z</time>
      </trkpt>
      <trkpt lat="45.92704" lon="4.8821">
        <ele>292</ele>
        <time>2018-08-28T09:13:19Z</time>
      </trkpt>
      <trkpt lat="45.92708" lon="4.88208">
        <ele>292</ele>
        <time>2018-08-28T09:13:20Z</time>
      </trkpt>
      <trkpt lat="45.92713" lon="4.88209">
        <ele>292</ele>
        <time>2018-08-28T09:13:21Z</time>
      </trkpt>
      <trkpt lat="45.92718" lon="4.8821">
        <ele>292</ele>
        <time>2018-08-28T09:13:22Z</time>
      </trkpt>
      <trkpt lat="45.92724" lon="4.88204">
        <ele>292</ele>
        <time>2018-08-28T09:13:24Z</time>
      </trkpt>
      <trkpt lat="45.9273" lon="4.88203">
        <ele>292</ele>
        <time>2018-08-28T09:13:25Z</time>
      </trkpt>
      <trkpt lat="45.92736" lon="4.88203">
        <ele>292</ele>
        <time>2018-08-28T09:13:26Z</time>
      </trkpt>
      <trkpt lat="45.92742" lon="4.88204">
        <ele>292</ele>
        <time>2018-08-28T09:13:27Z</time>
      </trkpt>
      <trkpt lat="45.92748" lon="4.882">
        <ele>292</ele>
        <time>2018-08-28T09:13:28Z</time>
      </trkpt>
      <trkpt lat="45.92752" lon="4.88203">
        <ele>292</ele>
        <time>2018-08-28T09:13:29Z</time>
      </trkpt>
      <trkpt lat="45.92757" lon="4.88204">
        <ele>292</ele>
        <time>2018-08-28T09:13:30Z</time>
      </trkpt>
      <trkpt lat="45.92762" lon="4.88205">
        <ele>292</ele>
        <time>2018-08-28T09:13:31Z</time>
      </trkpt>
      <trkpt lat="45.92767" lon="4.88203">
        <ele>292</ele>
        <time>2018-08-28T09:13:32Z</time>
      </trkpt>
      <trkpt lat="45.92772" lon="4.88203">
        <ele>292</ele>
        <time>2018-08-28T09:13:33Z</time>
      </trkpt>
      <trkpt lat="45.92776" lon="4.88203">
        <ele>292</ele>
        <time>2018-08-28T09:13:34Z</time>
      </trkpt>
      <trkpt lat="45.92781" lon="4.88204">
        <ele>292</ele>
        <time>2018-08-28T09:13:35Z</time>
      </trkpt>
      <trkpt lat="45.92789" lon="4.88207">
        <ele>292</ele>
        <time>2018-08-28T09:13:37Z</time>
      </trkpt>
      <trkpt lat="45.92793" lon="4.88208">
        <ele>292</ele>
        <time>2018-08-28T09:13:38Z</time>
      </trkpt>
      <trkpt lat="45.92798" lon="4.88208">
        <ele>292</ele>
        <time>2018-08-28T09:13:39Z</time>
      </trkpt>
      <trkpt lat="45.92804" lon="4.88206">
        <ele>292</ele>
        <time>2018-08-28T09:13:40Z</time>
      </trkpt>
      <trkpt lat="45.92807" lon="4.88211">
        <ele>292</ele>
        <time>2018-08-28T09:13:41Z</time>
      </trkpt>
      <trkpt lat="45.92814" lon="4.88208">
        <ele>292</ele>
        <time>2018-08-28T09:13:42Z</time>
      </trkpt>
      <trkpt lat="45.92819" lon="4.88208">
        <ele>292</ele>
        <time>2018-08-28T09:13:43Z</time>
      </trkpt>
      <trkpt lat="45.92822" lon="4.88204">
        <ele>292</ele>
        <time>2018-08-28T09:13:44Z</time>
      </trkpt>
      <trkpt lat="45.92827" lon="4.88203">
        <ele>292</ele>
        <time>2018-08-28T09:13:45Z</time>
      </trkpt>
      <trkpt lat="45.92832" lon="4.88203">
        <ele>292</ele>
        <time>2018-08-28T09:13:46Z</time>
      </trkpt>
      <trkpt lat="45.92837" lon="4.88203">
        <ele>291</ele>
        <time>2018-08-28T09:13:47Z</time>
      </trkpt>
      <trkpt lat="45.92842" lon="4.88203">
        <ele>291</ele>
        <time>2018-08-28T09:13:48Z</time>
      </trkpt>
      <trkpt lat="45.92847" lon="4.88203">
        <ele>291</ele>
        <time>2018-08-28T09:13:49Z</time>
      </trkpt>
      <trkpt lat="45.92853" lon="4.88202">
        <ele>291</ele>
        <time>2018-08-28T09:13:50Z</time>
      </trkpt>
      <trkpt lat="45.92858" lon="4.88202">
        <ele>291</ele>
        <time>2018-08-28T09:13:51Z</time>
      </trkpt>
      <trkpt lat="45.92863" lon="4.88201">
        <ele>291</ele>
        <time>2018-08-28T09:13:52Z</time>
      </trkpt>
      <trkpt lat="45.92868" lon="4.88201">
        <ele>291</ele>
        <time>2018-08-28T09:13:53Z</time>
      </trkpt>
      <trkpt lat="45.92873" lon="4.88202">
        <ele>291</ele>
        <time>2018-08-28T09:13:54Z</time>
      </trkpt>
      <trkpt lat="45.92879" lon="4.88203">
        <ele>291</ele>
        <time>2018-08-28T09:13:55Z</time>
      </trkpt>
      <trkpt lat="45.92884" lon="4.88203">
        <ele>291</ele>
        <time>2018-08-28T09:13:56Z</time>
      </trkpt>
      <trkpt lat="45.92889" lon="4.88204">
        <ele>291</ele>
        <time>2018-08-28T09:13:57Z</time>
      </trkpt>
      <trkpt lat="45.92894" lon="4.88205">
        <ele>291</ele>
        <time>2018-08-28T09:13:58Z</time>
      </trkpt>
      <trkpt lat="45.929" lon="4.88198">
        <ele>291</ele>
        <time>2018-08-28T09:13:59Z</time>
      </trkpt>
      <trkpt lat="45.92905" lon="4.88198">
        <ele>291</ele>
        <time>2018-08-28T09:14:00Z</time>
      </trkpt>
      <trkpt lat="45.9291" lon="4.88199">
        <ele>291</ele>
        <time>2018-08-28T09:14:01Z</time>
      </trkpt>
      <trkpt lat="45.92916" lon="4.88198">
        <ele>291</ele>
        <time>2018-08-28T09:14:02Z</time>
      </trkpt>
      <trkpt lat="45.92921" lon="4.88198">
        <ele>291</ele>
        <time>2018-08-28T09:14:03Z</time>
      </trkpt>
      <trkpt lat="45.92926" lon="4.882">
        <ele>291</ele>
        <time>2018-08-28T09:14:04Z</time>
      </trkpt>
      <trkpt lat="45.92933" lon="4.88201">
        <ele>291</ele>
        <time>2018-08-28T09:14:05Z</time>
      </trkpt>
      <trkpt lat="45.92939" lon="4.88201">
        <ele>291</ele>
        <time>2018-08-28T09:14:06Z</time>
      </trkpt>
      <trkpt lat="45.92945" lon="4.88202">
        <ele>291</ele>
        <time>2018-08-28T09:14:07Z</time>
      </trkpt>
      <trkpt lat="45.92951" lon="4.88202">
        <ele>291</ele>
        <time>2018-08-28T09:14:08Z</time>
      </trkpt>
      <trkpt lat="45.92957" lon="4.88202">
        <ele>291</ele>
        <time>2018-08-28T09:14:09Z</time>
      </trkpt>
      <trkpt lat="45.92961" lon="4.88207">
        <ele>291</ele>
        <time>2018-08-28T09:14:10Z</time>
      </trkpt>
      <trkpt lat="45.92967" lon="4.88209">
        <ele>291</ele>
        <time>2018-08-28T09:14:11Z</time>
      </trkpt>
      <trkpt lat="45.9297" lon="4.88207">
        <ele>291</ele>
        <time>2018-08-28T09:14:12Z</time>
      </trkpt>
      <trkpt lat="45.92975" lon="4.88204">
        <ele>291</ele>
        <time>2018-08-28T09:14:13Z</time>
      </trkpt>
      <trkpt lat="45.92981" lon="4.88203">
        <ele>291</ele>
        <time>2018-08-28T09:14:14Z</time>
      </trkpt>
      <trkpt lat="45.92986" lon="4.88202">
        <ele>291</ele>
        <time>2018-08-28T09:14:15Z</time>
      </trkpt>
      <trkpt lat="45.92992" lon="4.88203">
        <ele>291</ele>
        <time>2018-08-28T09:14:16Z</time>
      </trkpt>
      <trkpt lat="45.92998" lon="4.88203">
        <ele>291</ele>
        <time>2018-08-28T09:14:17Z</time>
      </trkpt>
      <trkpt lat="45.93004" lon="4.88202">
        <ele>291</ele>
        <time>2018-08-28T09:14:18Z</time>
      </trkpt>
      <trkpt lat="45.93009" lon="4.88205">
        <ele>291</ele>
        <time>2018-08-28T09:14:19Z</time>
      </trkpt>
      <trkpt lat="45.93015" lon="4.88202">
        <ele>291</ele>
        <time>2018-08-28T09:14:20Z</time>
      </trkpt>
      <trkpt lat="45.93021" lon="4.88201">
        <ele>291</ele>
        <time>2018-08-28T09:14:21Z</time>
      </trkpt>
      <trkpt lat="45.93025" lon="4.88199">
        <ele>291</ele>
        <time>2018-08-28T09:14:22Z</time>
      </trkpt>
      <trkpt lat="45.9303" lon="4.882">
        <ele>291</ele>
        <time>2018-08-28T09:14:23Z</time>
      </trkpt>
      <trkpt lat="45.93036" lon="4.882">
        <ele>291</ele>
        <time>2018-08-28T09:14:24Z</time>
      </trkpt>
      <trkpt lat="45.93043" lon="4.88207">
        <ele>292</ele>
        <time>2018-08-28T09:14:26Z</time>
      </trkpt>
      <trkpt lat="45.93048" lon="4.88207">
        <ele>292</ele>
        <time>2018-08-28T09:14:27Z</time>
      </trkpt>
      <trkpt lat="45.93055" lon="4.88208">
        <ele>292</ele>
        <time>2018-08-28T09:14:28Z</time>
      </trkpt>
      <trkpt lat="45.9306" lon="4.88208">
        <ele>292</ele>
        <time>2018-08-28T09:14:29Z</time>
      </trkpt>
      <trkpt lat="45.93067" lon="4.88208">
        <ele>292</ele>
        <time>2018-08-28T09:14:30Z</time>
      </trkpt>
      <trkpt lat="45.93071" lon="4.88206">
        <ele>292</ele>
        <time>2018-08-28T09:14:31Z</time>
      </trkpt>
      <trkpt lat="45.93076" lon="4.88206">
        <ele>292</ele>
        <time>2018-08-28T09:14:32Z</time>
      </trkpt>
      <trkpt lat="45.93082" lon="4.88207">
        <ele>292</ele>
        <time>2018-08-28T09:14:33Z</time>
      </trkpt>
      <trkpt lat="45.93088" lon="4.88208">
        <ele>292</ele>
        <time>2018-08-28T09:14:34Z</time>
      </trkpt>
      <trkpt lat="45.93093" lon="4.88207">
        <ele>292</ele>
        <time>2018-08-28T09:14:35Z</time>
      </trkpt>
      <trkpt lat="45.93098" lon="4.88208">
        <ele>292</ele>
        <time>2018-08-28T09:14:36Z</time>
      </trkpt>
      <trkpt lat="45.93103" lon="4.88208">
        <ele>292</ele>
        <time>2018-08-28T09:14:37Z</time>
      </trkpt>
      <trkpt lat="45.93109" lon="4.88208">
        <ele>292</ele>
        <time>2018-08-28T09:14:38Z</time>
      </trkpt>
      <trkpt lat="45.93116" lon="4.88208">
        <ele>292</ele>
        <time>2018-08-28T09:14:39Z</time>
      </trkpt>
      <trkpt lat="45.93122" lon="4.88206">
        <ele>292</ele>
        <time>2018-08-28T09:14:40Z</time>
      </trkpt>
      <trkpt lat="45.93128" lon="4.88206">
        <ele>292</ele>
        <time>2018-08-28T09:14:41Z</time>
      </trkpt>
      <trkpt lat="45.93132" lon="4.88206">
        <ele>292</ele>
        <time>2018-08-28T09:14:42Z</time>
      </trkpt>
      <trkpt lat="45.93137" lon="4.88201">
        <ele>292</ele>
        <time>2018-08-28T09:14:43Z</time>
      </trkpt>
      <trkpt lat="45.93145" lon="4.88205">
        <ele>292</ele>
        <time>2018-08-28T09:14:45Z</time>
      </trkpt>
      <trkpt lat="45.9315" lon="4.88206">
        <ele>292</ele>
        <time>2018-08-28T09:14:46Z</time>
      </trkpt>
      <trkpt lat="45.93157" lon="4.88206">
        <ele>292</ele>
        <time>2018-08-28T09:14:48Z</time>
      </trkpt>
      <trkpt lat="45.9316" lon="4.88202">
        <ele>292</ele>
        <time>2018-08-28T09:14:49Z</time>
      </trkpt>
      <trkpt lat="45.93165" lon="4.88202">
        <ele>292</ele>
        <time>2018-08-28T09:14:50Z</time>
      </trkpt>
      <trkpt lat="45.93172" lon="4.88204">
        <ele>291</ele>
        <time>2018-08-28T09:14:51Z</time>
      </trkpt>
      <trkpt lat="45.93179" lon="4.88207">
        <ele>291</ele>
        <time>2018-08-28T09:14:52Z</time>
      </trkpt>
      <trkpt lat="45.93187" lon="4.88207">
        <ele>291</ele>
        <time>2018-08-28T09:14:53Z</time>
      </trkpt>
      <trkpt lat="45.93193" lon="4.88207">
        <ele>291</ele>
        <time>2018-08-28T09:14:54Z</time>
      </trkpt>
      <trkpt lat="45.93198" lon="4.88209">
        <ele>291</ele>
        <time>2018-08-28T09:14:55Z</time>
      </trkpt>
      <trkpt lat="45.93203" lon="4.88209">
        <ele>291</ele>
        <time>2018-08-28T09:14:56Z</time>
      </trkpt>
      <trkpt lat="45.9321" lon="4.8821">
        <ele>291</ele>
        <time>2018-08-28T09:14:57Z</time>
      </trkpt>
      <trkpt lat="45.93215" lon="4.8821">
        <ele>291</ele>
        <time>2018-08-28T09:14:58Z</time>
      </trkpt>
      <trkpt lat="45.93219" lon="4.88209">
        <ele>291</ele>
        <time>2018-08-28T09:14:59Z</time>
      </trkpt>
      <trkpt lat="45.93224" lon="4.88209">
        <ele>291</ele>
        <time>2018-08-28T09:15:00Z</time>
      </trkpt>
      <trkpt lat="45.93229" lon="4.88209">
        <ele>291</ele>
        <time>2018-08-28T09:15:01Z</time>
      </trkpt>
      <trkpt lat="45.93234" lon="4.88209">
        <ele>291</ele>
        <time>2018-08-28T09:15:02Z</time>
      </trkpt>
      <trkpt lat="45.93241" lon="4.88205">
        <ele>291</ele>
        <time>2018-08-28T09:15:03Z</time>
      </trkpt>
      <trkpt lat="45.93247" lon="4.88205">
        <ele>291</ele>
        <time>2018-08-28T09:15:04Z</time>
      </trkpt>
      <trkpt lat="45.93253" lon="4.88209">
        <ele>290</ele>
        <time>2018-08-28T09:15:05Z</time>
      </trkpt>
      <trkpt lat="45.93258" lon="4.88207">
        <ele>290</ele>
        <time>2018-08-28T09:15:06Z</time>
      </trkpt>
      <trkpt lat="45.93264" lon="4.88208">
        <ele>290</ele>
        <time>2018-08-28T09:15:07Z</time>
      </trkpt>
      <trkpt lat="45.93271" lon="4.88208">
        <ele>290</ele>
        <time>2018-08-28T09:15:08Z</time>
      </trkpt>
      <trkpt lat="45.93278" lon="4.88209">
        <ele>290</ele>
        <time>2018-08-28T09:15:09Z</time>
      </trkpt>
      <trkpt lat="45.93284" lon="4.8821">
        <ele>290</ele>
        <time>2018-08-28T09:15:10Z</time>
      </trkpt>
      <trkpt lat="45.93288" lon="4.88209">
        <ele>290</ele>
        <time>2018-08-28T09:15:11Z</time>
      </trkpt>
      <trkpt lat="45.93292" lon="4.88207">
        <ele>290</ele>
        <time>2018-08-28T09:15:12Z</time>
      </trkpt>
      <trkpt lat="45.93298" lon="4.88206">
        <ele>290</ele>
        <time>2018-08-28T09:15:13Z</time>
      </trkpt>
      <trkpt lat="45.93304" lon="4.88207">
        <ele>290</ele>
        <time>2018-08-28T09:15:14Z</time>
      </trkpt>
      <trkpt lat="45.93309" lon="4.88208">
        <ele>290</ele>
        <time>2018-08-28T09:15:15Z</time>
      </trkpt>
      <trkpt lat="45.93316" lon="4.8821">
        <ele>290</ele>
        <time>2018-08-28T09:15:17Z</time>
      </trkpt>
      <trkpt lat="45.93318" lon="4.88213">
        <ele>290</ele>
        <time>2018-08-28T09:15:18Z</time>
      </trkpt>
      <trkpt lat="45.93324" lon="4.88216">
        <ele>290</ele>
        <time>2018-08-28T09:15:20Z</time>
      </trkpt>
      <trkpt lat="45.93332" lon="4.88213">
        <ele>290</ele>
        <time>2018-08-28T09:15:21Z</time>
      </trkpt>
      <trkpt lat="45.93337" lon="4.88209">
        <ele>290</ele>
        <time>2018-08-28T09:15:22Z</time>
      </trkpt>
      <trkpt lat="45.93343" lon="4.88209">
        <ele>290</ele>
        <time>2018-08-28T09:15:23Z</time>
      </trkpt>
      <trkpt lat="45.93349" lon="4.88209">
        <ele>290</ele>
        <time>2018-08-28T09:15:24Z</time>
      </trkpt>
      <trkpt lat="45.93356" lon="4.8821">
        <ele>290</ele>
        <time>2018-08-28T09:15:25Z</time>
      </trkpt>
      <trkpt lat="45.93362" lon="4.8821">
        <ele>290</ele>
        <time>2018-08-28T09:15:26Z</time>
      </trkpt>
      <trkpt lat="45.93367" lon="4.88207">
        <ele>290</ele>
        <time>2018-08-28T09:15:27Z</time>
      </trkpt>
      <trkpt lat="45.93373" lon="4.88208">
        <ele>290</ele>
        <time>2018-08-28T09:15:28Z</time>
      </trkpt>
      <trkpt lat="45.93379" lon="4.8821">
        <ele>290</ele>
        <time>2018-08-28T09:15:29Z</time>
      </trkpt>
      <trkpt lat="45.93386" lon="4.8821">
        <ele>290</ele>
        <time>2018-08-28T09:15:30Z</time>
      </trkpt>
      <trkpt lat="45.93391" lon="4.88208">
        <ele>290</ele>
        <time>2018-08-28T09:15:31Z</time>
      </trkpt>
      <trkpt lat="45.93398" lon="4.88209">
        <ele>290</ele>
        <time>2018-08-28T09:15:32Z</time>
      </trkpt>
      <trkpt lat="45.93406" lon="4.8821">
        <ele>290</ele>
        <time>2018-08-28T09:15:33Z</time>
      </trkpt>
      <trkpt lat="45.93413" lon="4.88209">
        <ele>289</ele>
        <time>2018-08-28T09:15:34Z</time>
      </trkpt>
      <trkpt lat="45.9342" lon="4.88207">
        <ele>289</ele>
        <time>2018-08-28T09:15:35Z</time>
      </trkpt>
      <trkpt lat="45.93426" lon="4.88207">
        <ele>289</ele>
        <time>2018-08-28T09:15:36Z</time>
      </trkpt>
      <trkpt lat="45.93432" lon="4.88208">
        <ele>289</ele>
        <time>2018-08-28T09:15:37Z</time>
      </trkpt>
      <trkpt lat="45.93438" lon="4.88208">
        <ele>289</ele>
        <time>2018-08-28T09:15:38Z</time>
      </trkpt>
      <trkpt lat="45.93445" lon="4.8821">
        <ele>289</ele>
        <time>2018-08-28T09:15:39Z</time>
      </trkpt>
      <trkpt lat="45.93451" lon="4.88212">
        <ele>289</ele>
        <time>2018-08-28T09:15:40Z</time>
      </trkpt>
      <trkpt lat="45.93458" lon="4.88215">
        <ele>289</ele>
        <time>2018-08-28T09:15:41Z</time>
      </trkpt>
      <trkpt lat="45.93463" lon="4.88218">
        <ele>289</ele>
        <time>2018-08-28T09:15:42Z</time>
      </trkpt>
      <trkpt lat="45.93468" lon="4.88224">
        <ele>289</ele>
        <time>2018-08-28T09:15:43Z</time>
      </trkpt>
      <trkpt lat="45.93472" lon="4.88228">
        <ele>289</ele>
        <time>2018-08-28T09:15:44Z</time>
      </trkpt>
      <trkpt lat="45.93477" lon="4.88234">
        <ele>289</ele>
        <time>2018-08-28T09:15:45Z</time>
      </trkpt>
      <trkpt lat="45.93482" lon="4.88237">
        <ele>289</ele>
        <time>2018-08-28T09:15:46Z</time>
      </trkpt>
      <trkpt lat="45.93489" lon="4.88236">
        <ele>289</ele>
        <time>2018-08-28T09:15:47Z</time>
      </trkpt>
      <trkpt lat="45.93494" lon="4.88233">
        <ele>289</ele>
        <time>2018-08-28T09:15:48Z</time>
      </trkpt>
      <trkpt lat="45.93498" lon="4.88232">
        <ele>289</ele>
        <time>2018-08-28T09:15:49Z</time>
      </trkpt>
      <trkpt lat="45.93504" lon="4.88228">
        <ele>288</ele>
        <time>2018-08-28T09:15:50Z</time>
      </trkpt>
      <trkpt lat="45.93509" lon="4.88226">
        <ele>288</ele>
        <time>2018-08-28T09:15:51Z</time>
      </trkpt>
      <trkpt lat="45.93516" lon="4.88221">
        <ele>288</ele>
        <time>2018-08-28T09:15:52Z</time>
      </trkpt>
      <trkpt lat="45.93521" lon="4.88219">
        <ele>288</ele>
        <time>2018-08-28T09:15:53Z</time>
      </trkpt>
      <trkpt lat="45.93527" lon="4.88218">
        <ele>288</ele>
        <time>2018-08-28T09:15:54Z</time>
      </trkpt>
      <trkpt lat="45.93534" lon="4.88214">
        <ele>287</ele>
        <time>2018-08-28T09:15:55Z</time>
      </trkpt>
      <trkpt lat="45.9354" lon="4.88214">
        <ele>287</ele>
        <time>2018-08-28T09:15:56Z</time>
      </trkpt>
      <trkpt lat="45.93546" lon="4.88214">
        <ele>287</ele>
        <time>2018-08-28T09:15:57Z</time>
      </trkpt>
      <trkpt lat="45.93553" lon="4.88214">
        <ele>287</ele>
        <time>2018-08-28T09:15:58Z</time>
      </trkpt>
      <trkpt lat="45.9356" lon="4.88214">
        <ele>287</ele>
        <time>2018-08-28T09:15:59Z</time>
      </trkpt>
      <trkpt lat="45.93566" lon="4.88212">
        <ele>287</ele>
        <time>2018-08-28T09:16:00Z</time>
      </trkpt>
      <trkpt lat="45.93572" lon="4.88212">
        <ele>287</ele>
        <time>2018-08-28T09:16:01Z</time>
      </trkpt>
      <trkpt lat="45.93579" lon="4.88212">
        <ele>287</ele>
        <time>2018-08-28T09:16:02Z</time>
      </trkpt>
      <trkpt lat="45.93585" lon="4.88212">
        <ele>286</ele>
        <time>2018-08-28T09:16:03Z</time>
      </trkpt>
      <trkpt lat="45.93592" lon="4.88212">
        <ele>286</ele>
        <time>2018-08-28T09:16:04Z</time>
      </trkpt>
      <trkpt lat="45.93599" lon="4.8821">
        <ele>285</ele>
        <time>2018-08-28T09:16:05Z</time>
      </trkpt>
      <trkpt lat="45.93606" lon="4.88211">
        <ele>285</ele>
        <time>2018-08-28T09:16:06Z</time>
      </trkpt>
      <trkpt lat="45.93612" lon="4.88212">
        <ele>285</ele>
        <time>2018-08-28T09:16:07Z</time>
      </trkpt>
      <trkpt lat="45.93618" lon="4.88212">
        <ele>285</ele>
        <time>2018-08-28T09:16:08Z</time>
      </trkpt>
      <trkpt lat="45.93625" lon="4.88211">
        <ele>285</ele>
        <time>2018-08-28T09:16:09Z</time>
      </trkpt>
      <trkpt lat="45.93631" lon="4.88212">
        <ele>285</ele>
        <time>2018-08-28T09:16:10Z</time>
      </trkpt>
      <trkpt lat="45.93639" lon="4.88212">
        <ele>285</ele>
        <time>2018-08-28T09:16:11Z</time>
      </trkpt>
      <trkpt lat="45.93647" lon="4.8821">
        <ele>285</ele>
        <time>2018-08-28T09:16:12Z</time>
      </trkpt>
      <trkpt lat="45.93653" lon="4.88207">
        <ele>285</ele>
        <time>2018-08-28T09:16:13Z</time>
      </trkpt>
      <trkpt lat="45.93658" lon="4.88208">
        <ele>285</ele>
        <time>2018-08-28T09:16:14Z</time>
      </trkpt>
      <trkpt lat="45.93664" lon="4.88208">
        <ele>285</ele>
        <time>2018-08-28T09:16:15Z</time>
      </trkpt>
      <trkpt lat="45.93671" lon="4.88207">
        <ele>285</ele>
        <time>2018-08-28T09:16:16Z</time>
      </trkpt>
      <trkpt lat="45.93678" lon="4.88206">
        <ele>285</ele>
        <time>2018-08-28T09:16:17Z</time>
      </trkpt>
      <trkpt lat="45.93684" lon="4.88206">
        <ele>285</ele>
        <time>2018-08-28T09:16:18Z</time>
      </trkpt>
      <trkpt lat="45.9369" lon="4.88206">
        <ele>285</ele>
        <time>2018-08-28T09:16:19Z</time>
      </trkpt>
      <trkpt lat="45.93696" lon="4.88206">
        <ele>285</ele>
        <time>2018-08-28T09:16:20Z</time>
      </trkpt>
      <trkpt lat="45.93701" lon="4.88208">
        <ele>285</ele>
        <time>2018-08-28T09:16:21Z</time>
      </trkpt>
      <trkpt lat="45.93705" lon="4.88207">
        <ele>285</ele>
        <time>2018-08-28T09:16:22Z</time>
      </trkpt>
      <trkpt lat="45.93711" lon="4.88208">
        <ele>285</ele>
        <time>2018-08-28T09:16:23Z</time>
      </trkpt>
      <trkpt lat="45.93717" lon="4.88209">
        <ele>285</ele>
        <time>2018-08-28T09:16:24Z</time>
      </trkpt>
      <trkpt lat="45.93723" lon="4.8821">
        <ele>285</ele>
        <time>2018-08-28T09:16:25Z</time>
      </trkpt>
      <trkpt lat="45.93731" lon="4.88205">
        <ele>285</ele>
        <time>2018-08-28T09:16:26Z</time>
      </trkpt>
      <trkpt lat="45.93741" lon="4.882">
        <ele>285</ele>
        <time>2018-08-28T09:16:27Z</time>
      </trkpt>
      <trkpt lat="45.93745" lon="4.88201">
        <ele>285</ele>
        <time>2018-08-28T09:16:28Z</time>
      </trkpt>
      <trkpt lat="45.93751" lon="4.88203">
        <ele>287</ele>
        <time>2018-08-28T09:16:29Z</time>
      </trkpt>
      <trkpt lat="45.93759" lon="4.88196">
        <ele>286</ele>
        <time>2018-08-28T09:16:30Z</time>
      </trkpt>
      <trkpt lat="45.93766" lon="4.88196">
        <ele>286</ele>
        <time>2018-08-28T09:16:31Z</time>
      </trkpt>
      <trkpt lat="45.93771" lon="4.88201">
        <ele>287</ele>
        <time>2018-08-28T09:16:32Z</time>
      </trkpt>
      <trkpt lat="45.93777" lon="4.88202">
        <ele>287</ele>
        <time>2018-08-28T09:16:33Z</time>
      </trkpt>
      <trkpt lat="45.93783" lon="4.88202">
        <ele>287</ele>
        <time>2018-08-28T09:16:34Z</time>
      </trkpt>
      <trkpt lat="45.9379" lon="4.88203">
        <ele>287</ele>
        <time>2018-08-28T09:16:35Z</time>
      </trkpt>
      <trkpt lat="45.93797" lon="4.88203">
        <ele>287</ele>
        <time>2018-08-28T09:16:36Z</time>
      </trkpt>
      <trkpt lat="45.93802" lon="4.88204">
        <ele>287</ele>
        <time>2018-08-28T09:16:37Z</time>
      </trkpt>
      <trkpt lat="45.93808" lon="4.88204">
        <ele>287</ele>
        <time>2018-08-28T09:16:38Z</time>
      </trkpt>
      <trkpt lat="45.93813" lon="4.88205">
        <ele>287</ele>
        <time>2018-08-28T09:16:39Z</time>
      </trkpt>
      <trkpt lat="45.93817" lon="4.88207">
        <ele>288</ele>
        <time>2018-08-28T09:16:40Z</time>
      </trkpt>
      <trkpt lat="45.93823" lon="4.88208">
        <ele>288</ele>
        <time>2018-08-28T09:16:41Z</time>
      </trkpt>
      <trkpt lat="45.93829" lon="4.88211">
        <ele>288</ele>
        <time>2018-08-28T09:16:42Z</time>
      </trkpt>
      <trkpt lat="45.93836" lon="4.88212">
        <ele>289</ele>
        <time>2018-08-28T09:16:43Z</time>
      </trkpt>
      <trkpt lat="45.93841" lon="4.88213">
        <ele>289</ele>
        <time>2018-08-28T09:16:44Z</time>
      </trkpt>
      <trkpt lat="45.93848" lon="4.88215">
        <ele>289</ele>
        <time>2018-08-28T09:16:45Z</time>
      </trkpt>
      <trkpt lat="45.93853" lon="4.88216">
        <ele>289</ele>
        <time>2018-08-28T09:16:46Z</time>
      </trkpt>
      <trkpt lat="45.93858" lon="4.88219">
        <ele>289</ele>
        <time>2018-08-28T09:16:47Z</time>
      </trkpt>
      <trkpt lat="45.93864" lon="4.88219">
        <ele>289</ele>
        <time>2018-08-28T09:16:48Z</time>
      </trkpt>
      <trkpt lat="45.93873" lon="4.88214">
        <ele>289</ele>
        <time>2018-08-28T09:16:49Z</time>
      </trkpt>
      <trkpt lat="45.9388" lon="4.8821">
        <ele>288</ele>
        <time>2018-08-28T09:16:50Z</time>
      </trkpt>
      <trkpt lat="45.93887" lon="4.88209">
        <ele>288</ele>
        <time>2018-08-28T09:16:51Z</time>
      </trkpt>
      <trkpt lat="45.93894" lon="4.88211">
        <ele>288</ele>
        <time>2018-08-28T09:16:52Z</time>
      </trkpt>
      <trkpt lat="45.939" lon="4.88212">
        <ele>288</ele>
        <time>2018-08-28T09:16:53Z</time>
      </trkpt>
      <trkpt lat="45.93908" lon="4.88213">
        <ele>288</ele>
        <time>2018-08-28T09:16:54Z</time>
      </trkpt>
      <trkpt lat="45.93915" lon="4.88213">
        <ele>288</ele>
        <time>2018-08-28T09:16:55Z</time>
      </trkpt>
      <trkpt lat="45.93922" lon="4.88215">
        <ele>287</ele>
        <time>2018-08-28T09:16:56Z</time>
      </trkpt>
      <trkpt lat="45.93928" lon="4.88214">
        <ele>287</ele>
        <time>2018-08-28T09:16:57Z</time>
      </trkpt>
      <trkpt lat="45.93934" lon="4.88214">
        <ele>287</ele>
        <time>2018-08-28T09:16:58Z</time>
      </trkpt>
      <trkpt lat="45.9394" lon="4.88214">
        <ele>287</ele>
        <time>2018-08-28T09:16:59Z</time>
      </trkpt>
      <trkpt lat="45.93948" lon="4.88215">
        <ele>287</ele>
        <time>2018-08-28T09:17:00Z</time>
      </trkpt>
      <trkpt lat="45.93956" lon="4.88216">
        <ele>286</ele>
        <time>2018-08-28T09:17:01Z</time>
      </trkpt>
      <trkpt lat="45.93963" lon="4.88218">
        <ele>286</ele>
        <time>2018-08-28T09:17:02Z</time>
      </trkpt>
      <trkpt lat="45.93969" lon="4.88218">
        <ele>286</ele>
        <time>2018-08-28T09:17:03Z</time>
      </trkpt>
      <trkpt lat="45.93975" lon="4.88219">
        <ele>286</ele>
        <time>2018-08-28T09:17:04Z</time>
      </trkpt>
      <trkpt lat="45.93982" lon="4.88219">
        <ele>286</ele>
        <time>2018-08-28T09:17:05Z</time>
      </trkpt>
      <trkpt lat="45.93987" lon="4.88219">
        <ele>286</ele>
        <time>2018-08-28T09:17:06Z</time>
      </trkpt>
      <trkpt lat="45.93993" lon="4.8822">
        <ele>286</ele>
        <time>2018-08-28T09:17:07Z</time>
      </trkpt>
      <trkpt lat="45.94" lon="4.8822">
        <ele>286</ele>
        <time>2018-08-28T09:17:08Z</time>
      </trkpt>
      <trkpt lat="45.94006" lon="4.88221">
        <ele>284</ele>
        <time>2018-08-28T09:17:09Z</time>
      </trkpt>
      <trkpt lat="45.94011" lon="4.88224">
        <ele>284</ele>
        <time>2018-08-28T09:17:10Z</time>
      </trkpt>
      <trkpt lat="45.94017" lon="4.88225">
        <ele>284</ele>
        <time>2018-08-28T09:17:11Z</time>
      </trkpt>
      <trkpt lat="45.94022" lon="4.88226">
        <ele>284</ele>
        <time>2018-08-28T09:17:12Z</time>
      </trkpt>
      <trkpt lat="45.94028" lon="4.88225">
        <ele>283</ele>
        <time>2018-08-28T09:17:13Z</time>
      </trkpt>
      <trkpt lat="45.94033" lon="4.88226">
        <ele>283</ele>
        <time>2018-08-28T09:17:14Z</time>
      </trkpt>
      <trkpt lat="45.94038" lon="4.88224">
        <ele>283</ele>
        <time>2018-08-28T09:17:15Z</time>
      </trkpt>
      <trkpt lat="45.94043" lon="4.88226">
        <ele>283</ele>
        <time>2018-08-28T09:17:16Z</time>
      </trkpt>
      <trkpt lat="45.94048" lon="4.88228">
        <ele>283</ele>
        <time>2018-08-28T09:17:17Z</time>
      </trkpt>
      <trkpt lat="45.94054" lon="4.8823">
        <ele>283</ele>
        <time>2018-08-28T09:17:18Z</time>
      </trkpt>
      <trkpt lat="45.9406" lon="4.88229">
        <ele>283</ele>
        <time>2018-08-28T09:17:19Z</time>
      </trkpt>
      <trkpt lat="45.94066" lon="4.8823">
        <ele>282</ele>
        <time>2018-08-28T09:17:20Z</time>
      </trkpt>
      <trkpt lat="45.94072" lon="4.8823">
        <ele>282</ele>
        <time>2018-08-28T09:17:21Z</time>
      </trkpt>
      <trkpt lat="45.94079" lon="4.88231">
        <ele>282</ele>
        <time>2018-08-28T09:17:22Z</time>
      </trkpt>
      <trkpt lat="45.94085" lon="4.88232">
        <ele>281</ele>
        <time>2018-08-28T09:17:23Z</time>
      </trkpt>
      <trkpt lat="45.94092" lon="4.88232">
        <ele>281</ele>
        <time>2018-08-28T09:17:24Z</time>
      </trkpt>
      <trkpt lat="45.94099" lon="4.88234">
        <ele>281</ele>
        <time>2018-08-28T09:17:25Z</time>
      </trkpt>
      <trkpt lat="45.94107" lon="4.88232">
        <ele>280</ele>
        <time>2018-08-28T09:17:26Z</time>
      </trkpt>
      <trkpt lat="45.94114" lon="4.88233">
        <ele>280</ele>
        <time>2018-08-28T09:17:27Z</time>
      </trkpt>
      <trkpt lat="45.94121" lon="4.88235">
        <ele>280</ele>
        <time>2018-08-28T09:17:28Z</time>
      </trkpt>
      <trkpt lat="45.94128" lon="4.88236">
        <ele>280</ele>
        <time>2018-08-28T09:17:29Z</time>
      </trkpt>
      <trkpt lat="45.94135" lon="4.88238">
        <ele>280</ele>
        <time>2018-08-28T09:17:30Z</time>
      </trkpt>
      <trkpt lat="45.94142" lon="4.88239">
        <ele>280</ele>
        <time>2018-08-28T09:17:31Z</time>
      </trkpt>
      <trkpt lat="45.94149" lon="4.8824">
        <ele>279</ele>
        <time>2018-08-28T09:17:32Z</time>
      </trkpt>
      <trkpt lat="45.94155" lon="4.8824">
        <ele>279</ele>
        <time>2018-08-28T09:17:33Z</time>
      </trkpt>
      <trkpt lat="45.94162" lon="4.88241">
        <ele>279</ele>
        <time>2018-08-28T09:17:34Z</time>
      </trkpt>
      <trkpt lat="45.94169" lon="4.88241">
        <ele>279</ele>
        <time>2018-08-28T09:17:35Z</time>
      </trkpt>
      <trkpt lat="45.94177" lon="4.88243">
        <ele>279</ele>
        <time>2018-08-28T09:17:36Z</time>
      </trkpt>
      <trkpt lat="45.94184" lon="4.88241">
        <ele>278</ele>
        <time>2018-08-28T09:17:37Z</time>
      </trkpt>
      <trkpt lat="45.94192" lon="4.88242">
        <ele>278</ele>
        <time>2018-08-28T09:17:38Z</time>
      </trkpt>
      <trkpt lat="45.94199" lon="4.88242">
        <ele>278</ele>
        <time>2018-08-28T09:17:39Z</time>
      </trkpt>
      <trkpt lat="45.94206" lon="4.88242">
        <ele>278</ele>
        <time>2018-08-28T09:17:40Z</time>
      </trkpt>
      <trkpt lat="45.94212" lon="4.88245">
        <ele>278</ele>
        <time>2018-08-28T09:17:41Z</time>
      </trkpt>
      <trkpt lat="45.94218" lon="4.88246">
        <ele>278</ele>
        <time>2018-08-28T09:17:42Z</time>
      </trkpt>
      <trkpt lat="45.94226" lon="4.88246">
        <ele>278</ele>
        <time>2018-08-28T09:17:43Z</time>
      </trkpt>
      <trkpt lat="45.94233" lon="4.88247">
        <ele>278</ele>
        <time>2018-08-28T09:17:44Z</time>
      </trkpt>
      <trkpt lat="45.94239" lon="4.88248">
        <ele>278</ele>
        <time>2018-08-28T09:17:45Z</time>
      </trkpt>
      <trkpt lat="45.94245" lon="4.8825">
        <ele>278</ele>
        <time>2018-08-28T09:17:46Z</time>
      </trkpt>
      <trkpt lat="45.94252" lon="4.88251">
        <ele>278</ele>
        <time>2018-08-28T09:17:47Z</time>
      </trkpt>
      <trkpt lat="45.94259" lon="4.88252">
        <ele>278</ele>
        <time>2018-08-28T09:17:48Z</time>
      </trkpt>
      <trkpt lat="45.94266" lon="4.88254">
        <ele>278</ele>
        <time>2018-08-28T09:17:49Z</time>
      </trkpt>
      <trkpt lat="45.94272" lon="4.88256">
        <ele>278</ele>
        <time>2018-08-28T09:17:50Z</time>
      </trkpt>
      <trkpt lat="45.94277" lon="4.88256">
        <ele>278</ele>
        <time>2018-08-28T09:17:51Z</time>
      </trkpt>
      <trkpt lat="45.94283" lon="4.88257">
        <ele>277</ele>
        <time>2018-08-28T09:17:52Z</time>
      </trkpt>
      <trkpt lat="45.94287" lon="4.88256">
        <ele>277</ele>
        <time>2018-08-28T09:17:53Z</time>
      </trkpt>
      <trkpt lat="45.94292" lon="4.88257">
        <ele>277</ele>
        <time>2018-08-28T09:17:54Z</time>
      </trkpt>
      <trkpt lat="45.94297" lon="4.88257">
        <ele>277</ele>
        <time>2018-08-28T09:17:55Z</time>
      </trkpt>
      <trkpt lat="45.94302" lon="4.88258">
        <ele>277</ele>
        <time>2018-08-28T09:17:56Z</time>
      </trkpt>
      <trkpt lat="45.94308" lon="4.88259">
        <ele>277</ele>
        <time>2018-08-28T09:17:57Z</time>
      </trkpt>
      <trkpt lat="45.94314" lon="4.88254">
        <ele>277</ele>
        <time>2018-08-28T09:17:58Z</time>
      </trkpt>
      <trkpt lat="45.94318" lon="4.88255">
        <ele>277</ele>
        <time>2018-08-28T09:17:59Z</time>
      </trkpt>
      <trkpt lat="45.94323" lon="4.88259">
        <ele>277</ele>
        <time>2018-08-28T09:18:00Z</time>
      </trkpt>
      <trkpt lat="45.94329" lon="4.88261">
        <ele>277</ele>
        <time>2018-08-28T09:18:01Z</time>
      </trkpt>
      <trkpt lat="45.94336" lon="4.88261">
        <ele>276</ele>
        <time>2018-08-28T09:18:02Z</time>
      </trkpt>
      <trkpt lat="45.94342" lon="4.88262">
        <ele>276</ele>
        <time>2018-08-28T09:18:03Z</time>
      </trkpt>
      <trkpt lat="45.94349" lon="4.88264">
        <ele>276</ele>
        <time>2018-08-28T09:18:04Z</time>
      </trkpt>
      <trkpt lat="45.94354" lon="4.88266">
        <ele>276</ele>
        <time>2018-08-28T09:18:05Z</time>
      </trkpt>
      <trkpt lat="45.94361" lon="4.88267">
        <ele>276</ele>
        <time>2018-08-28T09:18:06Z</time>
      </trkpt>
      <trkpt lat="45.94369" lon="4.88268">
        <ele>276</ele>
        <time>2018-08-28T09:18:07Z</time>
      </trkpt>
      <trkpt lat="45.94376" lon="4.88269">
        <ele>276</ele>
        <time>2018-08-28T09:18:08Z</time>
      </trkpt>
      <trkpt lat="45.94383" lon="4.8827">
        <ele>276</ele>
        <time>2018-08-28T09:18:09Z</time>
      </trkpt>
      <trkpt lat="45.94389" lon="4.88274">
        <ele>276</ele>
        <time>2018-08-28T09:18:10Z</time>
      </trkpt>
      <trkpt lat="45.94397" lon="4.88269">
        <ele>276</ele>
        <time>2018-08-28T09:18:11Z</time>
      </trkpt>
      <trkpt lat="45.94402" lon="4.8827">
        <ele>276</ele>
        <time>2018-08-28T09:18:12Z</time>
      </trkpt>
      <trkpt lat="45.94408" lon="4.88272">
        <ele>276</ele>
        <time>2018-08-28T09:18:13Z</time>
      </trkpt>
      <trkpt lat="45.94413" lon="4.88273">
        <ele>276</ele>
        <time>2018-08-28T09:18:14Z</time>
      </trkpt>
      <trkpt lat="45.94418" lon="4.88276">
        <ele>276</ele>
        <time>2018-08-28T09:18:15Z</time>
      </trkpt>
      <trkpt lat="45.94424" lon="4.88277">
        <ele>276</ele>
        <time>2018-08-28T09:18:16Z</time>
      </trkpt>
      <trkpt lat="45.94431" lon="4.88277">
        <ele>276</ele>
        <time>2018-08-28T09:18:17Z</time>
      </trkpt>
      <trkpt lat="45.94435" lon="4.8828">
        <ele>276</ele>
        <time>2018-08-28T09:18:18Z</time>
      </trkpt>
      <trkpt lat="45.9444" lon="4.88282">
        <ele>276</ele>
        <time>2018-08-28T09:18:19Z</time>
      </trkpt>
      <trkpt lat="45.94449" lon="4.88281">
        <ele>276</ele>
        <time>2018-08-28T09:18:21Z</time>
      </trkpt>
      <trkpt lat="45.94454" lon="4.88282">
        <ele>276</ele>
        <time>2018-08-28T09:18:22Z</time>
      </trkpt>
      <trkpt lat="45.94461" lon="4.88283">
        <ele>276</ele>
        <time>2018-08-28T09:18:23Z</time>
      </trkpt>
      <trkpt lat="45.94468" lon="4.88278">
        <ele>276</ele>
        <time>2018-08-28T09:18:24Z</time>
      </trkpt>
      <trkpt lat="45.94476" lon="4.88279">
        <ele>276</ele>
        <time>2018-08-28T09:18:25Z</time>
      </trkpt>
      <trkpt lat="45.94482" lon="4.88282">
        <ele>276</ele>
        <time>2018-08-28T09:18:26Z</time>
      </trkpt>
      <trkpt lat="45.94487" lon="4.88284">
        <ele>276</ele>
        <time>2018-08-28T09:18:27Z</time>
      </trkpt>
      <trkpt lat="45.94493" lon="4.88285">
        <ele>276</ele>
        <time>2018-08-28T09:18:28Z</time>
      </trkpt>
      <trkpt lat="45.94499" lon="4.88286">
        <ele>276</ele>
        <time>2018-08-28T09:18:29Z</time>
      </trkpt>
      <trkpt lat="45.94506" lon="4.88286">
        <ele>275</ele>
        <time>2018-08-28T09:18:30Z</time>
      </trkpt>
      <trkpt lat="45.94512" lon="4.88287">
        <ele>275</ele>
        <time>2018-08-28T09:18:31Z</time>
      </trkpt>
      <trkpt lat="45.94518" lon="4.88287">
        <ele>275</ele>
        <time>2018-08-28T09:18:32Z</time>
      </trkpt>
      <trkpt lat="45.94524" lon="4.88288">
        <ele>275</ele>
        <time>2018-08-28T09:18:33Z</time>
      </trkpt>
      <trkpt lat="45.94529" lon="4.8829">
        <ele>275</ele>
        <time>2018-08-28T09:18:34Z</time>
      </trkpt>
      <trkpt lat="45.94535" lon="4.88292">
        <ele>275</ele>
        <time>2018-08-28T09:18:35Z</time>
      </trkpt>
      <trkpt lat="45.94541" lon="4.88293">
        <ele>275</ele>
        <time>2018-08-28T09:18:36Z</time>
      </trkpt>
      <trkpt lat="45.94546" lon="4.8829">
        <ele>275</ele>
        <time>2018-08-28T09:18:37Z</time>
      </trkpt>
      <trkpt lat="45.94551" lon="4.88289">
        <ele>275</ele>
        <time>2018-08-28T09:18:38Z</time>
      </trkpt>
      <trkpt lat="45.94558" lon="4.8829">
        <ele>275</ele>
        <time>2018-08-28T09:18:39Z</time>
      </trkpt>
      <trkpt lat="45.94563" lon="4.88293">
        <ele>275</ele>
        <time>2018-08-28T09:18:40Z</time>
      </trkpt>
      <trkpt lat="45.94569" lon="4.88294">
        <ele>275</ele>
        <time>2018-08-28T09:18:41Z</time>
      </trkpt>
      <trkpt lat="45.94574" lon="4.88295">
        <ele>275</ele>
        <time>2018-08-28T09:18:42Z</time>
      </trkpt>
      <trkpt lat="45.94579" lon="4.88296">
        <ele>275</ele>
        <time>2018-08-28T09:18:43Z</time>
      </trkpt>
      <trkpt lat="45.94584" lon="4.88297">
        <ele>275</ele>
        <time>2018-08-28T09:18:44Z</time>
      </trkpt>
      <trkpt lat="45.94591" lon="4.88302">
        <ele>275</ele>
        <time>2018-08-28T09:18:46Z</time>
      </trkpt>
      <trkpt lat="45.94598" lon="4.88303">
        <ele>275</ele>
        <time>2018-08-28T09:18:47Z</time>
      </trkpt>
      <trkpt lat="45.94604" lon="4.88303">
        <ele>275</ele>
        <time>2018-08-28T09:18:48Z</time>
      </trkpt>
      <trkpt lat="45.9461" lon="4.88305">
        <ele>275</ele>
        <time>2018-08-28T09:18:49Z</time>
      </trkpt>
      <trkpt lat="45.94615" lon="4.88307">
        <ele>275</ele>
        <time>2018-08-28T09:18:50Z</time>
      </trkpt>
      <trkpt lat="45.94621" lon="4.88309">
        <ele>275</ele>
        <time>2018-08-28T09:18:51Z</time>
      </trkpt>
      <trkpt lat="45.94628" lon="4.8831">
        <ele>276</ele>
        <time>2018-08-28T09:18:52Z</time>
      </trkpt>
      <trkpt lat="45.94633" lon="4.88312">
        <ele>276</ele>
        <time>2018-08-28T09:18:53Z</time>
      </trkpt>
      <trkpt lat="45.94639" lon="4.8831">
        <ele>276</ele>
        <time>2018-08-28T09:18:54Z</time>
      </trkpt>
      <trkpt lat="45.94646" lon="4.88306">
        <ele>276</ele>
        <time>2018-08-28T09:18:55Z</time>
      </trkpt>
      <trkpt lat="45.94648" lon="4.88312">
        <ele>276</ele>
        <time>2018-08-28T09:18:56Z</time>
      </trkpt>
      <trkpt lat="45.94654" lon="4.88313">
        <ele>276</ele>
        <time>2018-08-28T09:18:57Z</time>
      </trkpt>
      <trkpt lat="45.9466" lon="4.88316">
        <ele>276</ele>
        <time>2018-08-28T09:18:58Z</time>
      </trkpt>
      <trkpt lat="45.94665" lon="4.88317">
        <ele>276</ele>
        <time>2018-08-28T09:18:59Z</time>
      </trkpt>
      <trkpt lat="45.94669" lon="4.88319">
        <ele>276</ele>
        <time>2018-08-28T09:19:00Z</time>
      </trkpt>
      <trkpt lat="45.94674" lon="4.8832">
        <ele>276</ele>
        <time>2018-08-28T09:19:01Z</time>
      </trkpt>
      <trkpt lat="45.94681" lon="4.88323">
        <ele>276</ele>
        <time>2018-08-28T09:19:02Z</time>
      </trkpt>
      <trkpt lat="45.94686" lon="4.88324">
        <ele>276</ele>
        <time>2018-08-28T09:19:03Z</time>
      </trkpt>
      <trkpt lat="45.94692" lon="4.88323">
        <ele>276</ele>
        <time>2018-08-28T09:19:04Z</time>
      </trkpt>
      <trkpt lat="45.94698" lon="4.88321">
        <ele>276</ele>
        <time>2018-08-28T09:19:05Z</time>
      </trkpt>
      <trkpt lat="45.94703" lon="4.88322">
        <ele>276</ele>
        <time>2018-08-28T09:19:06Z</time>
      </trkpt>
      <trkpt lat="45.94709" lon="4.88321">
        <ele>276</ele>
        <time>2018-08-28T09:19:07Z</time>
      </trkpt>
      <trkpt lat="45.94713" lon="4.88323">
        <ele>276</ele>
        <time>2018-08-28T09:19:08Z</time>
      </trkpt>
      <trkpt lat="45.94718" lon="4.88323">
        <ele>276</ele>
        <time>2018-08-28T09:19:09Z</time>
      </trkpt>
      <trkpt lat="45.94722" lon="4.88325">
        <ele>276</ele>
        <time>2018-08-28T09:19:10Z</time>
      </trkpt>
      <trkpt lat="45.94727" lon="4.88327">
        <ele>277</ele>
        <time>2018-08-28T09:19:11Z</time>
      </trkpt>
      <trkpt lat="45.94732" lon="4.88328">
        <ele>277</ele>
        <time>2018-08-28T09:19:12Z</time>
      </trkpt>
      <trkpt lat="45.94737" lon="4.88328">
        <ele>277</ele>
        <time>2018-08-28T09:19:13Z</time>
      </trkpt>
      <trkpt lat="45.94742" lon="4.88327">
        <ele>277</ele>
        <time>2018-08-28T09:19:14Z</time>
      </trkpt>
      <trkpt lat="45.94747" lon="4.88328">
        <ele>277</ele>
        <time>2018-08-28T09:19:15Z</time>
      </trkpt>
      <trkpt lat="45.94754" lon="4.88334">
        <ele>277</ele>
        <time>2018-08-28T09:19:16Z</time>
      </trkpt>
      <trkpt lat="45.9476" lon="4.88336">
        <ele>277</ele>
        <time>2018-08-28T09:19:17Z</time>
      </trkpt>
      <trkpt lat="45.94765" lon="4.88336">
        <ele>277</ele>
        <time>2018-08-28T09:19:18Z</time>
      </trkpt>
      <trkpt lat="45.94771" lon="4.88337">
        <ele>277</ele>
        <time>2018-08-28T09:19:19Z</time>
      </trkpt>
      <trkpt lat="45.94776" lon="4.88338">
        <ele>278</ele>
        <time>2018-08-28T09:19:20Z</time>
      </trkpt>
      <trkpt lat="45.9478" lon="4.88339">
        <ele>278</ele>
        <time>2018-08-28T09:19:21Z</time>
      </trkpt>
      <trkpt lat="45.94784" lon="4.88341">
        <ele>278</ele>
        <time>2018-08-28T09:19:22Z</time>
      </trkpt>
      <trkpt lat="45.94789" lon="4.88342">
        <ele>278</ele>
        <time>2018-08-28T09:19:23Z</time>
      </trkpt>
      <trkpt lat="45.94797" lon="4.88342">
        <ele>278</ele>
        <time>2018-08-28T09:19:25Z</time>
      </trkpt>
      <trkpt lat="45.94802" lon="4.88338">
        <ele>278</ele>
        <time>2018-08-28T09:19:26Z</time>
      </trkpt>
      <trkpt lat="45.94807" lon="4.88335">
        <ele>278</ele>
        <time>2018-08-28T09:19:27Z</time>
      </trkpt>
      <trkpt lat="45.94811" lon="4.88336">
        <ele>278</ele>
        <time>2018-08-28T09:19:28Z</time>
      </trkpt>
      <trkpt lat="45.94818" lon="4.88337">
        <ele>278</ele>
        <time>2018-08-28T09:19:30Z</time>
      </trkpt>
      <trkpt lat="45.94822" lon="4.88335">
        <ele>279</ele>
        <time>2018-08-28T09:19:31Z</time>
      </trkpt>
      <trkpt lat="45.9483" lon="4.88335">
        <ele>279</ele>
        <time>2018-08-28T09:19:33Z</time>
      </trkpt>
      <trkpt lat="45.94835" lon="4.88333">
        <ele>279</ele>
        <time>2018-08-28T09:19:34Z</time>
      </trkpt>
      <trkpt lat="45.94844" lon="4.88332">
        <ele>279</ele>
        <time>2018-08-28T09:19:36Z</time>
      </trkpt>
      <trkpt lat="45.9485" lon="4.88324">
        <ele>280</ele>
        <time>2018-08-28T09:19:37Z</time>
      </trkpt>
      <trkpt lat="45.94858" lon="4.88322">
        <ele>280</ele>
        <time>2018-08-28T09:19:39Z</time>
      </trkpt>
      <trkpt lat="45.94862" lon="4.88323">
        <ele>280</ele>
        <time>2018-08-28T09:19:40Z</time>
      </trkpt>
      <trkpt lat="45.9487" lon="4.88322">
        <ele>280</ele>
        <time>2018-08-28T09:19:42Z</time>
      </trkpt>
      <trkpt lat="45.94874" lon="4.88322">
        <ele>280</ele>
        <time>2018-08-28T09:19:43Z</time>
      </trkpt>
      <trkpt lat="45.94881" lon="4.88323">
        <ele>280</ele>
        <time>2018-08-28T09:19:45Z</time>
      </trkpt>
      <trkpt lat="45.94885" lon="4.88323">
        <ele>281</ele>
        <time>2018-08-28T09:19:46Z</time>
      </trkpt>
      <trkpt lat="45.94892" lon="4.88323">
        <ele>281</ele>
        <time>2018-08-28T09:19:48Z</time>
      </trkpt>
      <trkpt lat="45.94895" lon="4.88322">
        <ele>281</ele>
        <time>2018-08-28T09:19:49Z</time>
      </trkpt>
      <trkpt lat="45.94902" lon="4.88319">
        <ele>281</ele>
        <time>2018-08-28T09:19:51Z</time>
      </trkpt>
      <trkpt lat="45.94906" lon="4.88316">
        <ele>281</ele>
        <time>2018-08-28T09:19:52Z</time>
      </trkpt>
      <trkpt lat="45.9491" lon="4.88312">
        <ele>281</ele>
        <time>2018-08-28T09:19:53Z</time>
      </trkpt>
      <trkpt lat="45.94914" lon="4.8831">
        <ele>281</ele>
        <time>2018-08-28T09:19:54Z</time>
      </trkpt>
      <trkpt lat="45.94922" lon="4.88307">
        <ele>283</ele>
        <time>2018-08-28T09:19:56Z</time>
      </trkpt>
      <trkpt lat="45.94926" lon="4.88305">
        <ele>283</ele>
        <time>2018-08-28T09:19:57Z</time>
      </trkpt>
      <trkpt lat="45.94934" lon="4.88301">
        <ele>283</ele>
        <time>2018-08-28T09:19:59Z</time>
      </trkpt>
      <trkpt lat="45.94939" lon="4.88296">
        <ele>283</ele>
        <time>2018-08-28T09:20:00Z</time>
      </trkpt>
      <trkpt lat="45.94943" lon="4.88294">
        <ele>283</ele>
        <time>2018-08-28T09:20:01Z</time>
      </trkpt>
      <trkpt lat="45.94948" lon="4.88291">
        <ele>283</ele>
        <time>2018-08-28T09:20:02Z</time>
      </trkpt>
      <trkpt lat="45.94953" lon="4.88289">
        <ele>283</ele>
        <time>2018-08-28T09:20:03Z</time>
      </trkpt>
      <trkpt lat="45.94957" lon="4.88288">
        <ele>283</ele>
        <time>2018-08-28T09:20:04Z</time>
      </trkpt>
      <trkpt lat="45.94962" lon="4.88283">
        <ele>283</ele>
        <time>2018-08-28T09:20:05Z</time>
      </trkpt>
      <trkpt lat="45.94966" lon="4.88282">
        <ele>283</ele>
        <time>2018-08-28T09:20:06Z</time>
      </trkpt>
      <trkpt lat="45.94974" lon="4.88278">
        <ele>283</ele>
        <time>2018-08-28T09:20:08Z</time>
      </trkpt>
      <trkpt lat="45.94979" lon="4.88277">
        <ele>283</ele>
        <time>2018-08-28T09:20:09Z</time>
      </trkpt>
      <trkpt lat="45.94987" lon="4.88274">
        <ele>283</ele>
        <time>2018-08-28T09:20:11Z</time>
      </trkpt>
      <trkpt lat="45.94991" lon="4.88273">
        <ele>283</ele>
        <time>2018-08-28T09:20:12Z</time>
      </trkpt>
      <trkpt lat="45.94998" lon="4.88272">
        <ele>283</ele>
        <time>2018-08-28T09:20:14Z</time>
      </trkpt>
      <trkpt lat="45.95002" lon="4.88271">
        <ele>284</ele>
        <time>2018-08-28T09:20:15Z</time>
      </trkpt>
      <trkpt lat="45.95008" lon="4.8827">
        <ele>285</ele>
        <time>2018-08-28T09:20:17Z</time>
      </trkpt>
      <trkpt lat="45.95012" lon="4.88268">
        <ele>285</ele>
        <time>2018-08-28T09:20:18Z</time>
      </trkpt>
      <trkpt lat="45.9502" lon="4.88265">
        <ele>285</ele>
        <time>2018-08-28T09:20:20Z</time>
      </trkpt>
      <trkpt lat="45.95023" lon="4.88263">
        <ele>285</ele>
        <time>2018-08-28T09:20:21Z</time>
      </trkpt>
      <trkpt lat="45.95031" lon="4.88258">
        <ele>285</ele>
        <time>2018-08-28T09:20:23Z</time>
      </trkpt>
      <trkpt lat="45.95036" lon="4.88255">
        <ele>285</ele>
        <time>2018-08-28T09:20:24Z</time>
      </trkpt>
      <trkpt lat="45.95044" lon="4.88254">
        <ele>286</ele>
        <time>2018-08-28T09:20:26Z</time>
      </trkpt>
      <trkpt lat="45.95048" lon="4.88252">
        <ele>286</ele>
        <time>2018-08-28T09:20:27Z</time>
      </trkpt>
      <trkpt lat="45.95052" lon="4.8825">
        <ele>286</ele>
        <time>2018-08-28T09:20:28Z</time>
      </trkpt>
      <trkpt lat="45.95057" lon="4.88246">
        <ele>285</ele>
        <time>2018-08-28T09:20:29Z</time>
      </trkpt>
      <trkpt lat="45.95066" lon="4.88246">
        <ele>286</ele>
        <time>2018-08-28T09:20:31Z</time>
      </trkpt>
      <trkpt lat="45.9507" lon="4.88245">
        <ele>286</ele>
        <time>2018-08-28T09:20:32Z</time>
      </trkpt>
      <trkpt lat="45.95078" lon="4.8824">
        <ele>286</ele>
        <time>2018-08-28T09:20:34Z</time>
      </trkpt>
      <trkpt lat="45.95083" lon="4.88239">
        <ele>286</ele>
        <time>2018-08-28T09:20:35Z</time>
      </trkpt>
      <trkpt lat="45.95087" lon="4.88237">
        <ele>287</ele>
        <time>2018-08-28T09:20:36Z</time>
      </trkpt>
      <trkpt lat="45.95092" lon="4.88236">
        <ele>287</ele>
        <time>2018-08-28T09:20:37Z</time>
      </trkpt>
      <trkpt lat="45.95096" lon="4.88233">
        <ele>287</ele>
        <time>2018-08-28T09:20:38Z</time>
      </trkpt>
      <trkpt lat="45.951" lon="4.88231">
        <ele>287</ele>
        <time>2018-08-28T09:20:39Z</time>
      </trkpt>
      <trkpt lat="45.95108" lon="4.88231">
        <ele>287</ele>
        <time>2018-08-28T09:20:41Z</time>
      </trkpt>
      <trkpt lat="45.95112" lon="4.88229">
        <ele>287</ele>
        <time>2018-08-28T09:20:42Z</time>
      </trkpt>
      <trkpt lat="45.95119" lon="4.88225">
        <ele>287</ele>
        <time>2018-08-28T09:20:44Z</time>
      </trkpt>
      <trkpt lat="45.95123" lon="4.88222">
        <ele>287</ele>
        <time>2018-08-28T09:20:45Z</time>
      </trkpt>
      <trkpt lat="45.95126" lon="4.88213">
        <ele>287</ele>
        <time>2018-08-28T09:20:46Z</time>
      </trkpt>
      <trkpt lat="45.95128" lon="4.88207">
        <ele>287</ele>
        <time>2018-08-28T09:20:47Z</time>
      </trkpt>
      <trkpt lat="45.95133" lon="4.88198">
        <ele>287</ele>
        <time>2018-08-28T09:20:49Z</time>
      </trkpt>
      <trkpt lat="45.95136" lon="4.88192">
        <ele>286</ele>
        <time>2018-08-28T09:20:50Z</time>
      </trkpt>
      <trkpt lat="45.9514" lon="4.88187">
        <ele>286</ele>
        <time>2018-08-28T09:20:51Z</time>
      </trkpt>
      <trkpt lat="45.95145" lon="4.88182">
        <ele>286</ele>
        <time>2018-08-28T09:20:52Z</time>
      </trkpt>
      <trkpt lat="45.9515" lon="4.88181">
        <ele>286</ele>
        <time>2018-08-28T09:20:53Z</time>
      </trkpt>
      <trkpt lat="45.95156" lon="4.8818">
        <ele>286</ele>
        <time>2018-08-28T09:20:54Z</time>
      </trkpt>
      <trkpt lat="45.95161" lon="4.88178">
        <ele>286</ele>
        <time>2018-08-28T09:20:55Z</time>
      </trkpt>
      <trkpt lat="45.95167" lon="4.88174">
        <ele>286</ele>
        <time>2018-08-28T09:20:56Z</time>
      </trkpt>
      <trkpt lat="45.95173" lon="4.88173">
        <ele>285</ele>
        <time>2018-08-28T09:20:57Z</time>
      </trkpt>
      <trkpt lat="45.95178" lon="4.88167">
        <ele>285</ele>
        <time>2018-08-28T09:20:58Z</time>
      </trkpt>
      <trkpt lat="45.95185" lon="4.88168">
        <ele>285</ele>
        <time>2018-08-28T09:20:59Z</time>
      </trkpt>
      <trkpt lat="45.95191" lon="4.88166">
        <ele>283</ele>
        <time>2018-08-28T09:21:00Z</time>
      </trkpt>
      <trkpt lat="45.95198" lon="4.88167">
        <ele>283</ele>
        <time>2018-08-28T09:21:01Z</time>
      </trkpt>
      <trkpt lat="45.95205" lon="4.88166">
        <ele>282</ele>
        <time>2018-08-28T09:21:02Z</time>
      </trkpt>
      <trkpt lat="45.95212" lon="4.88167">
        <ele>284</ele>
        <time>2018-08-28T09:21:03Z</time>
      </trkpt>
      <trkpt lat="45.9522" lon="4.88166">
        <ele>282</ele>
        <time>2018-08-28T09:21:04Z</time>
      </trkpt>
      <trkpt lat="45.95227" lon="4.88168">
        <ele>283</ele>
        <time>2018-08-28T09:21:05Z</time>
      </trkpt>
      <trkpt lat="45.95235" lon="4.8817">
        <ele>283</ele>
        <time>2018-08-28T09:21:06Z</time>
      </trkpt>
      <trkpt lat="45.95242" lon="4.8817">
        <ele>282</ele>
        <time>2018-08-28T09:21:07Z</time>
      </trkpt>
      <trkpt lat="45.95251" lon="4.88169">
        <ele>281</ele>
        <time>2018-08-28T09:21:08Z</time>
      </trkpt>
      <trkpt lat="45.95259" lon="4.88168">
        <ele>281</ele>
        <time>2018-08-28T09:21:09Z</time>
      </trkpt>
      <trkpt lat="45.95268" lon="4.88167">
        <ele>281</ele>
        <time>2018-08-28T09:21:10Z</time>
      </trkpt>
      <trkpt lat="45.95276" lon="4.88167">
        <ele>281</ele>
        <time>2018-08-28T09:21:11Z</time>
      </trkpt>
      <trkpt lat="45.95283" lon="4.88169">
        <ele>281</ele>
        <time>2018-08-28T09:21:12Z</time>
      </trkpt>
      <trkpt lat="45.95293" lon="4.8817">
        <ele>281</ele>
        <time>2018-08-28T09:21:13Z</time>
      </trkpt>
      <trkpt lat="45.95302" lon="4.88172">
        <ele>281</ele>
        <time>2018-08-28T09:21:14Z</time>
      </trkpt>
      <trkpt lat="45.95311" lon="4.88173">
        <ele>280</ele>
        <time>2018-08-28T09:21:15Z</time>
      </trkpt>
      <trkpt lat="45.9532" lon="4.88174">
        <ele>280</ele>
        <time>2018-08-28T09:21:16Z</time>
      </trkpt>
      <trkpt lat="45.9533" lon="4.88172">
        <ele>279</ele>
        <time>2018-08-28T09:21:17Z</time>
      </trkpt>
      <trkpt lat="45.95338" lon="4.88173">
        <ele>278</ele>
        <time>2018-08-28T09:21:18Z</time>
      </trkpt>
      <trkpt lat="45.95346" lon="4.8817">
        <ele>278</ele>
        <time>2018-08-28T09:21:19Z</time>
      </trkpt>
      <trkpt lat="45.95355" lon="4.88168">
        <ele>278</ele>
        <time>2018-08-28T09:21:20Z</time>
      </trkpt>
      <trkpt lat="45.95364" lon="4.88167">
        <ele>278</ele>
        <time>2018-08-28T09:21:21Z</time>
      </trkpt>
      <trkpt lat="45.95373" lon="4.8816">
        <ele>276</ele>
        <time>2018-08-28T09:21:22Z</time>
      </trkpt>
      <trkpt lat="45.95382" lon="4.88159">
        <ele>276</ele>
        <time>2018-08-28T09:21:23Z</time>
      </trkpt>
      <trkpt lat="45.95391" lon="4.88157">
        <ele>276</ele>
        <time>2018-08-28T09:21:24Z</time>
      </trkpt>
      <trkpt lat="45.95399" lon="4.88153">
        <ele>276</ele>
        <time>2018-08-28T09:21:25Z</time>
      </trkpt>
      <trkpt lat="45.95407" lon="4.8815">
        <ele>276</ele>
        <time>2018-08-28T09:21:26Z</time>
      </trkpt>
      <trkpt lat="45.95414" lon="4.88147">
        <ele>276</ele>
        <time>2018-08-28T09:21:27Z</time>
      </trkpt>
      <trkpt lat="45.95421" lon="4.88147">
        <ele>276</ele>
        <time>2018-08-28T09:21:28Z</time>
      </trkpt>
      <trkpt lat="45.95429" lon="4.88143">
        <ele>276</ele>
        <time>2018-08-28T09:21:29Z</time>
      </trkpt>
      <trkpt lat="45.95436" lon="4.8814">
        <ele>276</ele>
        <time>2018-08-28T09:21:30Z</time>
      </trkpt>
      <trkpt lat="45.95443" lon="4.88135">
        <ele>276</ele>
        <time>2018-08-28T09:21:31Z</time>
      </trkpt>
      <trkpt lat="45.95449" lon="4.88134">
        <ele>276</ele>
        <time>2018-08-28T09:21:32Z</time>
      </trkpt>
      <trkpt lat="45.95455" lon="4.88131">
        <ele>276</ele>
        <time>2018-08-28T09:21:33Z</time>
      </trkpt>
      <trkpt lat="45.95461" lon="4.88127">
        <ele>276</ele>
        <time>2018-08-28T09:21:34Z</time>
      </trkpt>
      <trkpt lat="45.95467" lon="4.88126">
        <ele>276</ele>
        <time>2018-08-28T09:21:35Z</time>
      </trkpt>
      <trkpt lat="45.95473" lon="4.88123">
        <ele>276</ele>
        <time>2018-08-28T09:21:36Z</time>
      </trkpt>
      <trkpt lat="45.95478" lon="4.88121">
        <ele>276</ele>
        <time>2018-08-28T09:21:37Z</time>
      </trkpt>
      <trkpt lat="45.95483" lon="4.88118">
        <ele>276</ele>
        <time>2018-08-28T09:21:38Z</time>
      </trkpt>
      <trkpt lat="45.95491" lon="4.88115">
        <ele>276</ele>
        <time>2018-08-28T09:21:40Z</time>
      </trkpt>
      <trkpt lat="45.95496" lon="4.88112">
        <ele>276</ele>
        <time>2018-08-28T09:21:41Z</time>
      </trkpt>
      <trkpt lat="45.95501" lon="4.88109">
        <ele>276</ele>
        <time>2018-08-28T09:21:42Z</time>
      </trkpt>
      <trkpt lat="45.95506" lon="4.88107">
        <ele>276</ele>
        <time>2018-08-28T09:21:43Z</time>
      </trkpt>
      <trkpt lat="45.9551" lon="4.88103">
        <ele>276</ele>
        <time>2018-08-28T09:21:44Z</time>
      </trkpt>
      <trkpt lat="45.95516" lon="4.88096">
        <ele>276</ele>
        <time>2018-08-28T09:21:45Z</time>
      </trkpt>
      <trkpt lat="45.95522" lon="4.88094">
        <ele>276</ele>
        <time>2018-08-28T09:21:46Z</time>
      </trkpt>
      <trkpt lat="45.95526" lon="4.8809">
        <ele>276</ele>
        <time>2018-08-28T09:21:47Z</time>
      </trkpt>
      <trkpt lat="45.95531" lon="4.88089">
        <ele>277</ele>
        <time>2018-08-28T09:21:48Z</time>
      </trkpt>
      <trkpt lat="45.95536" lon="4.88087">
        <ele>277</ele>
        <time>2018-08-28T09:21:49Z</time>
      </trkpt>
      <trkpt lat="45.95541" lon="4.88085">
        <ele>277</ele>
        <time>2018-08-28T09:21:50Z</time>
      </trkpt>
      <trkpt lat="45.95546" lon="4.88081">
        <ele>276</ele>
        <time>2018-08-28T09:21:51Z</time>
      </trkpt>
      <trkpt lat="45.95554" lon="4.88077">
        <ele>276</ele>
        <time>2018-08-28T09:21:53Z</time>
      </trkpt>
      <trkpt lat="45.95557" lon="4.88077">
        <ele>276</ele>
        <time>2018-08-28T09:21:54Z</time>
      </trkpt>
      <trkpt lat="45.95565" lon="4.88072">
        <ele>276</ele>
        <time>2018-08-28T09:21:56Z</time>
      </trkpt>
      <trkpt lat="45.95568" lon="4.88067">
        <ele>276</ele>
        <time>2018-08-28T09:21:57Z</time>
      </trkpt>
      <trkpt lat="45.95572" lon="4.88065">
        <ele>276</ele>
        <time>2018-08-28T09:21:58Z</time>
      </trkpt>
      <trkpt lat="45.95577" lon="4.88063">
        <ele>276</ele>
        <time>2018-08-28T09:21:59Z</time>
      </trkpt>
      <trkpt lat="45.95585" lon="4.88058">
        <ele>278</ele>
        <time>2018-08-28T09:22:01Z</time>
      </trkpt>
      <trkpt lat="45.95589" lon="4.88056">
        <ele>278</ele>
        <time>2018-08-28T09:22:02Z</time>
      </trkpt>
      <trkpt lat="45.95596" lon="4.88052">
        <ele>278</ele>
        <time>2018-08-28T09:22:04Z</time>
      </trkpt>
      <trkpt lat="45.956" lon="4.8805">
        <ele>278</ele>
        <time>2018-08-28T09:22:05Z</time>
      </trkpt>
      <trkpt lat="45.95606" lon="4.88043">
        <ele>278</ele>
        <time>2018-08-28T09:22:07Z</time>
      </trkpt>
      <trkpt lat="45.9561" lon="4.88041">
        <ele>278</ele>
        <time>2018-08-28T09:22:08Z</time>
      </trkpt>
      <trkpt lat="45.95617" lon="4.88034">
        <ele>278</ele>
        <time>2018-08-28T09:22:10Z</time>
      </trkpt>
      <trkpt lat="45.95621" lon="4.88031">
        <ele>278</ele>
        <time>2018-08-28T09:22:11Z</time>
      </trkpt>
      <trkpt lat="45.95628" lon="4.88025">
        <ele>279</ele>
        <time>2018-08-28T09:22:13Z</time>
      </trkpt>
      <trkpt lat="45.95631" lon="4.88022">
        <ele>279</ele>
        <time>2018-08-28T09:22:14Z</time>
      </trkpt>
      <trkpt lat="45.95635" lon="4.88018">
        <ele>279</ele>
        <time>2018-08-28T09:22:15Z</time>
      </trkpt>
      <trkpt lat="45.95639" lon="4.88015">
        <ele>279</ele>
        <time>2018-08-28T09:22:16Z</time>
      </trkpt>
      <trkpt lat="45.95646" lon="4.8801">
        <ele>279</ele>
        <time>2018-08-28T09:22:18Z</time>
      </trkpt>
      <trkpt lat="45.95649" lon="4.88007">
        <ele>280</ele>
        <time>2018-08-28T09:22:19Z</time>
      </trkpt>
      <trkpt lat="45.95656" lon="4.88001">
        <ele>280</ele>
        <time>2018-08-28T09:22:21Z</time>
      </trkpt>
      <trkpt lat="45.95659" lon="4.87998">
        <ele>280</ele>
        <time>2018-08-28T09:22:22Z</time>
      </trkpt>
      <trkpt lat="45.95665" lon="4.87991">
        <ele>280</ele>
        <time>2018-08-28T09:22:24Z</time>
      </trkpt>
      <trkpt lat="45.95667" lon="4.8799">
        <ele>282</ele>
        <time>2018-08-28T09:22:25Z</time>
      </trkpt>
      <trkpt lat="45.95673" lon="4.87986">
        <ele>282</ele>
        <time>2018-08-28T09:22:26Z</time>
      </trkpt>
      <trkpt lat="45.95676" lon="4.87984">
        <ele>282</ele>
        <time>2018-08-28T09:22:27Z</time>
      </trkpt>
      <trkpt lat="45.95682" lon="4.87977">
        <ele>282</ele>
        <time>2018-08-28T09:22:31Z</time>
      </trkpt>
      <trkpt lat="45.95685" lon="4.87975">
        <ele>282</ele>
        <time>2018-08-28T09:22:32Z</time>
      </trkpt>
      <trkpt lat="45.95693" lon="4.87967">
        <ele>282</ele>
        <time>2018-08-28T09:22:33Z</time>
      </trkpt>
      <trkpt lat="45.957" lon="4.87961">
        <ele>282</ele>
        <time>2018-08-28T09:22:36Z</time>
      </trkpt>
      <trkpt lat="45.95702" lon="4.87959">
        <ele>283</ele>
        <time>2018-08-28T09:22:37Z</time>
      </trkpt>
      <trkpt lat="45.95706" lon="4.87955">
        <ele>283</ele>
        <time>2018-08-28T09:22:39Z</time>
      </trkpt>
      <trkpt lat="45.95714" lon="4.87947">
        <ele>283</ele>
        <time>2018-08-28T09:22:40Z</time>
      </trkpt>
      <trkpt lat="45.95719" lon="4.87941">
        <ele>283</ele>
        <time>2018-08-28T09:22:43Z</time>
      </trkpt>
      <trkpt lat="45.95721" lon="4.87939">
        <ele>283</ele>
        <time>2018-08-28T09:22:44Z</time>
      </trkpt>
      <trkpt lat="45.95728" lon="4.87934">
        <ele>283</ele>
        <time>2018-08-28T09:22:45Z</time>
      </trkpt>
      <trkpt lat="45.95732" lon="4.87931">
        <ele>284</ele>
        <time>2018-08-28T09:22:46Z</time>
      </trkpt>
      <trkpt lat="45.95738" lon="4.87926">
        <ele>284</ele>
        <time>2018-08-28T09:22:48Z</time>
      </trkpt>
      <trkpt lat="45.95742" lon="4.87924">
        <ele>284</ele>
        <time>2018-08-28T09:22:49Z</time>
      </trkpt>
      <trkpt lat="45.95748" lon="4.8792">
        <ele>285</ele>
        <time>2018-08-28T09:22:51Z</time>
      </trkpt>
      <trkpt lat="45.95751" lon="4.87917">
        <ele>285</ele>
        <time>2018-08-28T09:22:52Z</time>
      </trkpt>
      <trkpt lat="45.95757" lon="4.87915">
        <ele>285</ele>
        <time>2018-08-28T09:22:54Z</time>
      </trkpt>
      <trkpt lat="45.95762" lon="4.87913">
        <ele>285</ele>
        <time>2018-08-28T09:22:55Z</time>
      </trkpt>
      <trkpt lat="45.95769" lon="4.87909">
        <ele>286</ele>
        <time>2018-08-28T09:22:57Z</time>
      </trkpt>
      <trkpt lat="45.95772" lon="4.87907">
        <ele>286</ele>
        <time>2018-08-28T09:22:58Z</time>
      </trkpt>
      <trkpt lat="45.95779" lon="4.87904">
        <ele>286</ele>
        <time>2018-08-28T09:23:00Z</time>
      </trkpt>
      <trkpt lat="45.95782" lon="4.87901">
        <ele>286</ele>
        <time>2018-08-28T09:23:01Z</time>
      </trkpt>
      <trkpt lat="45.95789" lon="4.87896">
        <ele>286</ele>
        <time>2018-08-28T09:23:03Z</time>
      </trkpt>
      <trkpt lat="45.95792" lon="4.87894">
        <ele>286</ele>
        <time>2018-08-28T09:23:04Z</time>
      </trkpt>
      <trkpt lat="45.95798" lon="4.87889">
        <ele>287</ele>
        <time>2018-08-28T09:23:06Z</time>
      </trkpt>
      <trkpt lat="45.95801" lon="4.87886">
        <ele>287</ele>
        <time>2018-08-28T09:23:07Z</time>
      </trkpt>
      <trkpt lat="45.95808" lon="4.87881">
        <ele>287</ele>
        <time>2018-08-28T09:23:11Z</time>
      </trkpt>
      <trkpt lat="45.9581" lon="4.8788">
        <ele>287</ele>
        <time>2018-08-28T09:23:12Z</time>
      </trkpt>
      <trkpt lat="45.95817" lon="4.87877">
        <ele>287</ele>
        <time>2018-08-28T09:23:15Z</time>
      </trkpt>
      <trkpt lat="45.9582" lon="4.87876">
        <ele>287</ele>
        <time>2018-08-28T09:23:16Z</time>
      </trkpt>
      <trkpt lat="45.95828" lon="4.87875">
        <ele>287</ele>
        <time>2018-08-28T09:23:21Z</time>
      </trkpt>
      <trkpt lat="45.95828" lon="4.87874">
        <ele>287</ele>
        <time>2018-08-28T09:23:22Z</time>
      </trkpt>
      <trkpt lat="45.95836" lon="4.8787">
        <ele>289</ele>
        <time>2018-08-28T09:23:28Z</time>
      </trkpt>
      <trkpt lat="45.95838" lon="4.87869">
        <ele>289</ele>
        <time>2018-08-28T09:23:29Z</time>
      </trkpt>
      <trkpt lat="45.95842" lon="4.87865">
        <ele>289</ele>
        <time>2018-08-28T09:23:31Z</time>
      </trkpt>
      <trkpt lat="45.95849" lon="4.87858">
        <ele>289</ele>
        <time>2018-08-28T09:23:32Z</time>
      </trkpt>
      <trkpt lat="45.95855" lon="4.87853">
        <ele>289</ele>
        <time>2018-08-28T09:23:34Z</time>
      </trkpt>
      <trkpt lat="45.95858" lon="4.8785">
        <ele>289</ele>
        <time>2018-08-28T09:23:35Z</time>
      </trkpt>
      <trkpt lat="45.95864" lon="4.87844">
        <ele>289</ele>
        <time>2018-08-28T09:23:37Z</time>
      </trkpt>
      <trkpt lat="45.95867" lon="4.8784">
        <ele>289</ele>
        <time>2018-08-28T09:23:38Z</time>
      </trkpt>
      <trkpt lat="45.95875" lon="4.87834">
        <ele>289</ele>
        <time>2018-08-28T09:23:40Z</time>
      </trkpt>
      <trkpt lat="45.95879" lon="4.8783">
        <ele>288</ele>
        <time>2018-08-28T09:23:41Z</time>
      </trkpt>
      <trkpt lat="45.95882" lon="4.87824">
        <ele>288</ele>
        <time>2018-08-28T09:23:42Z</time>
      </trkpt>
      <trkpt lat="45.95885" lon="4.87818">
        <ele>288</ele>
        <time>2018-08-28T09:23:43Z</time>
      </trkpt>
      <trkpt lat="45.95891" lon="4.87809">
        <ele>288</ele>
        <time>2018-08-28T09:23:45Z</time>
      </trkpt>
      <trkpt lat="45.95893" lon="4.87808">
        <ele>288</ele>
        <time>2018-08-28T09:23:46Z</time>
      </trkpt>
      <trkpt lat="45.95899" lon="4.87799">
        <ele>288</ele>
        <time>2018-08-28T09:23:48Z</time>
      </trkpt>
      <trkpt lat="45.95902" lon="4.87793">
        <ele>288</ele>
        <time>2018-08-28T09:23:49Z</time>
      </trkpt>
      <trkpt lat="45.95906" lon="4.87788">
        <ele>288</ele>
        <time>2018-08-28T09:23:50Z</time>
      </trkpt>
      <trkpt lat="45.95908" lon="4.87784">
        <ele>288</ele>
        <time>2018-08-28T09:23:51Z</time>
      </trkpt>
      <trkpt lat="45.95914" lon="4.87778">
        <ele>288</ele>
        <time>2018-08-28T09:23:53Z</time>
      </trkpt>
      <trkpt lat="45.95917" lon="4.87774">
        <ele>288</ele>
        <time>2018-08-28T09:23:54Z</time>
      </trkpt>
      <trkpt lat="45.95922" lon="4.87764">
        <ele>288</ele>
        <time>2018-08-28T09:23:56Z</time>
      </trkpt>
      <trkpt lat="45.95925" lon="4.87759">
        <ele>288</ele>
        <time>2018-08-28T09:23:57Z</time>
      </trkpt>
      <trkpt lat="45.95931" lon="4.8775">
        <ele>288</ele>
        <time>2018-08-28T09:23:59Z</time>
      </trkpt>
      <trkpt lat="45.95934" lon="4.87745">
        <ele>288</ele>
        <time>2018-08-28T09:24:00Z</time>
      </trkpt>
      <trkpt lat="45.95939" lon="4.87736">
        <ele>288</ele>
        <time>2018-08-28T09:24:02Z</time>
      </trkpt>
      <trkpt lat="45.95942" lon="4.87732">
        <ele>289</ele>
        <time>2018-08-28T09:24:03Z</time>
      </trkpt>
      <trkpt lat="45.95945" lon="4.87727">
        <ele>289</ele>
        <time>2018-08-28T09:24:04Z</time>
      </trkpt>
      <trkpt lat="45.95949" lon="4.87722">
        <ele>289</ele>
        <time>2018-08-28T09:24:05Z</time>
      </trkpt>
      <trkpt lat="45.95952" lon="4.87716">
        <ele>289</ele>
        <time>2018-08-28T09:24:06Z</time>
      </trkpt>
      <trkpt lat="45.95956" lon="4.87711">
        <ele>289</ele>
        <time>2018-08-28T09:24:07Z</time>
      </trkpt>
      <trkpt lat="45.9596" lon="4.87706">
        <ele>289</ele>
        <time>2018-08-28T09:24:08Z</time>
      </trkpt>
      <trkpt lat="45.95963" lon="4.87701">
        <ele>289</ele>
        <time>2018-08-28T09:24:09Z</time>
      </trkpt>
      <trkpt lat="45.9597" lon="4.87693">
        <ele>289</ele>
        <time>2018-08-28T09:24:11Z</time>
      </trkpt>
      <trkpt lat="45.95974" lon="4.8769">
        <ele>289</ele>
        <time>2018-08-28T09:24:12Z</time>
      </trkpt>
      <trkpt lat="45.95977" lon="4.87686">
        <ele>289</ele>
        <time>2018-08-28T09:24:13Z</time>
      </trkpt>
      <trkpt lat="45.95981" lon="4.87682">
        <ele>289</ele>
        <time>2018-08-28T09:24:14Z</time>
      </trkpt>
      <trkpt lat="45.95985" lon="4.87679">
        <ele>289</ele>
        <time>2018-08-28T09:24:15Z</time>
      </trkpt>
      <trkpt lat="45.95989" lon="4.87675">
        <ele>289</ele>
        <time>2018-08-28T09:24:16Z</time>
      </trkpt>
      <trkpt lat="45.95996" lon="4.87669">
        <ele>290</ele>
        <time>2018-08-28T09:24:18Z</time>
      </trkpt>
      <trkpt lat="45.95999" lon="4.87664">
        <ele>290</ele>
        <time>2018-08-28T09:24:19Z</time>
      </trkpt>
      <trkpt lat="45.96006" lon="4.87657">
        <ele>290</ele>
        <time>2018-08-28T09:24:21Z</time>
      </trkpt>
      <trkpt lat="45.96011" lon="4.87652">
        <ele>289</ele>
        <time>2018-08-28T09:24:22Z</time>
      </trkpt>
      <trkpt lat="45.96016" lon="4.87649">
        <ele>289</ele>
        <time>2018-08-28T09:24:23Z</time>
      </trkpt>
      <trkpt lat="45.9602" lon="4.87645">
        <ele>289</ele>
        <time>2018-08-28T09:24:24Z</time>
      </trkpt>
      <trkpt lat="45.96024" lon="4.8764">
        <ele>289</ele>
        <time>2018-08-28T09:24:25Z</time>
      </trkpt>
      <trkpt lat="45.96029" lon="4.87635">
        <ele>289</ele>
        <time>2018-08-28T09:24:26Z</time>
      </trkpt>
      <trkpt lat="45.96033" lon="4.8763">
        <ele>289</ele>
        <time>2018-08-28T09:24:27Z</time>
      </trkpt>
      <trkpt lat="45.96037" lon="4.87625">
        <ele>289</ele>
        <time>2018-08-28T09:24:28Z</time>
      </trkpt>
      <trkpt lat="45.96042" lon="4.87621">
        <ele>289</ele>
        <time>2018-08-28T09:24:29Z</time>
      </trkpt>
      <trkpt lat="45.96046" lon="4.87616">
        <ele>289</ele>
        <time>2018-08-28T09:24:30Z</time>
      </trkpt>
      <trkpt lat="45.9605" lon="4.87613">
        <ele>289</ele>
        <time>2018-08-28T09:24:31Z</time>
      </trkpt>
      <trkpt lat="45.96053" lon="4.87609">
        <ele>289</ele>
        <time>2018-08-28T09:24:32Z</time>
      </trkpt>
      <trkpt lat="45.96057" lon="4.87602">
        <ele>289</ele>
        <time>2018-08-28T09:24:33Z</time>
      </trkpt>
      <trkpt lat="45.9606" lon="4.87597">
        <ele>288</ele>
        <time>2018-08-28T09:24:34Z</time>
      </trkpt>
      <trkpt lat="45.96063" lon="4.87594">
        <ele>288</ele>
        <time>2018-08-28T09:24:35Z</time>
      </trkpt>
      <trkpt lat="45.96066" lon="4.87587">
        <ele>288</ele>
        <time>2018-08-28T09:24:36Z</time>
      </trkpt>
      <trkpt lat="45.96071" lon="4.87582">
        <ele>288</ele>
        <time>2018-08-28T09:24:37Z</time>
      </trkpt>
      <trkpt lat="45.96076" lon="4.87579">
        <ele>288</ele>
        <time>2018-08-28T09:24:38Z</time>
      </trkpt>
      <trkpt lat="45.9608" lon="4.87572">
        <ele>288</ele>
        <time>2018-08-28T09:24:39Z</time>
      </trkpt>
      <trkpt lat="45.96084" lon="4.87567">
        <ele>287</ele>
        <time>2018-08-28T09:24:40Z</time>
      </trkpt>
      <trkpt lat="45.96088" lon="4.87563">
        <ele>287</ele>
        <time>2018-08-28T09:24:41Z</time>
      </trkpt>
      <trkpt lat="45.96092" lon="4.87558">
        <ele>287</ele>
        <time>2018-08-28T09:24:42Z</time>
      </trkpt>
      <trkpt lat="45.96098" lon="4.87554">
        <ele>287</ele>
        <time>2018-08-28T09:24:43Z</time>
      </trkpt>
      <trkpt lat="45.96101" lon="4.87547">
        <ele>287</ele>
        <time>2018-08-28T09:24:44Z</time>
      </trkpt>
      <trkpt lat="45.96105" lon="4.87543">
        <ele>287</ele>
        <time>2018-08-28T09:24:45Z</time>
      </trkpt>
      <trkpt lat="45.9611" lon="4.87538">
        <ele>287</ele>
        <time>2018-08-28T09:24:46Z</time>
      </trkpt>
      <trkpt lat="45.96114" lon="4.87532">
        <ele>287</ele>
        <time>2018-08-28T09:24:47Z</time>
      </trkpt>
      <trkpt lat="45.96118" lon="4.87526">
        <ele>286</ele>
        <time>2018-08-28T09:24:48Z</time>
      </trkpt>
      <trkpt lat="45.96123" lon="4.87521">
        <ele>286</ele>
        <time>2018-08-28T09:24:49Z</time>
      </trkpt>
      <trkpt lat="45.96127" lon="4.87516">
        <ele>286</ele>
        <time>2018-08-28T09:24:50Z</time>
      </trkpt>
      <trkpt lat="45.96131" lon="4.8751">
        <ele>286</ele>
        <time>2018-08-28T09:24:51Z</time>
      </trkpt>
      <trkpt lat="45.96136" lon="4.87505">
        <ele>286</ele>
        <time>2018-08-28T09:24:52Z</time>
      </trkpt>
      <trkpt lat="45.96141" lon="4.87501">
        <ele>286</ele>
        <time>2018-08-28T09:24:53Z</time>
      </trkpt>
      <trkpt lat="45.96145" lon="4.87497">
        <ele>285</ele>
        <time>2018-08-28T09:24:54Z</time>
      </trkpt>
      <trkpt lat="45.96151" lon="4.87491">
        <ele>285</ele>
        <time>2018-08-28T09:24:55Z</time>
      </trkpt>
      <trkpt lat="45.96156" lon="4.87487">
        <ele>285</ele>
        <time>2018-08-28T09:24:56Z</time>
      </trkpt>
      <trkpt lat="45.96159" lon="4.8748">
        <ele>285</ele>
        <time>2018-08-28T09:24:57Z</time>
      </trkpt>
      <trkpt lat="45.96163" lon="4.87473">
        <ele>285</ele>
        <time>2018-08-28T09:24:58Z</time>
      </trkpt>
      <trkpt lat="45.96168" lon="4.87467">
        <ele>284</ele>
        <time>2018-08-28T09:24:59Z</time>
      </trkpt>
      <trkpt lat="45.96173" lon="4.87463">
        <ele>284</ele>
        <time>2018-08-28T09:25:00Z</time>
      </trkpt>
      <trkpt lat="45.96178" lon="4.87459">
        <ele>284</ele>
        <time>2018-08-28T09:25:01Z</time>
      </trkpt>
      <trkpt lat="45.96182" lon="4.87452">
        <ele>284</ele>
        <time>2018-08-28T09:25:02Z</time>
      </trkpt>
      <trkpt lat="45.96187" lon="4.87446">
        <ele>284</ele>
        <time>2018-08-28T09:25:03Z</time>
      </trkpt>
      <trkpt lat="45.96191" lon="4.87439">
        <ele>284</ele>
        <time>2018-08-28T09:25:04Z</time>
      </trkpt>
      <trkpt lat="45.96195" lon="4.87432">
        <ele>284</ele>
        <time>2018-08-28T09:25:05Z</time>
      </trkpt>
      <trkpt lat="45.96202" lon="4.87429">
        <ele>284</ele>
        <time>2018-08-28T09:25:06Z</time>
      </trkpt>
      <trkpt lat="45.96207" lon="4.87423">
        <ele>284</ele>
        <time>2018-08-28T09:25:07Z</time>
      </trkpt>
      <trkpt lat="45.96212" lon="4.87418">
        <ele>284</ele>
        <time>2018-08-28T09:25:08Z</time>
      </trkpt>
      <trkpt lat="45.96217" lon="4.87413">
        <ele>283</ele>
        <time>2018-08-28T09:25:09Z</time>
      </trkpt>
      <trkpt lat="45.9622" lon="4.87409">
        <ele>283</ele>
        <time>2018-08-28T09:25:10Z</time>
      </trkpt>
      <trkpt lat="45.96224" lon="4.87402">
        <ele>283</ele>
        <time>2018-08-28T09:25:11Z</time>
      </trkpt>
      <trkpt lat="45.96228" lon="4.87395">
        <ele>283</ele>
        <time>2018-08-28T09:25:12Z</time>
      </trkpt>
      <trkpt lat="45.96233" lon="4.87387">
        <ele>283</ele>
        <time>2018-08-28T09:25:13Z</time>
      </trkpt>
      <trkpt lat="45.96236" lon="4.87382">
        <ele>283</ele>
        <time>2018-08-28T09:25:14Z</time>
      </trkpt>
      <trkpt lat="45.96242" lon="4.87378">
        <ele>283</ele>
        <time>2018-08-28T09:25:15Z</time>
      </trkpt>
      <trkpt lat="45.96248" lon="4.87373">
        <ele>283</ele>
        <time>2018-08-28T09:25:16Z</time>
      </trkpt>
      <trkpt lat="45.96254" lon="4.87365">
        <ele>283</ele>
        <time>2018-08-28T09:25:17Z</time>
      </trkpt>
      <trkpt lat="45.96258" lon="4.87358">
        <ele>283</ele>
        <time>2018-08-28T09:25:18Z</time>
      </trkpt>
      <trkpt lat="45.96263" lon="4.87351">
        <ele>283</ele>
        <time>2018-08-28T09:25:19Z</time>
      </trkpt>
      <trkpt lat="45.96268" lon="4.87346">
        <ele>283</ele>
        <time>2018-08-28T09:25:20Z</time>
      </trkpt>
      <trkpt lat="45.96273" lon="4.87339">
        <ele>283</ele>
        <time>2018-08-28T09:25:21Z</time>
      </trkpt>
      <trkpt lat="45.96277" lon="4.87332">
        <ele>283</ele>
        <time>2018-08-28T09:25:22Z</time>
      </trkpt>
      <trkpt lat="45.96282" lon="4.87326">
        <ele>283</ele>
        <time>2018-08-28T09:25:23Z</time>
      </trkpt>
      <trkpt lat="45.96287" lon="4.8732">
        <ele>283</ele>
        <time>2018-08-28T09:25:24Z</time>
      </trkpt>
      <trkpt lat="45.9629" lon="4.87315">
        <ele>283</ele>
        <time>2018-08-28T09:25:25Z</time>
      </trkpt>
      <trkpt lat="45.96296" lon="4.87308">
        <ele>283</ele>
        <time>2018-08-28T09:25:26Z</time>
      </trkpt>
      <trkpt lat="45.963" lon="4.87302">
        <ele>283</ele>
        <time>2018-08-28T09:25:27Z</time>
      </trkpt>
      <trkpt lat="45.96305" lon="4.87297">
        <ele>283</ele>
        <time>2018-08-28T09:25:28Z</time>
      </trkpt>
      <trkpt lat="45.96309" lon="4.87293">
        <ele>283</ele>
        <time>2018-08-28T09:25:29Z</time>
      </trkpt>
      <trkpt lat="45.96313" lon="4.87288">
        <ele>283</ele>
        <time>2018-08-28T09:25:30Z</time>
      </trkpt>
      <trkpt lat="45.96317" lon="4.87286">
        <ele>283</ele>
        <time>2018-08-28T09:25:31Z</time>
      </trkpt>
      <trkpt lat="45.96321" lon="4.87279">
        <ele>283</ele>
        <time>2018-08-28T09:25:32Z</time>
      </trkpt>
      <trkpt lat="45.96326" lon="4.87273">
        <ele>283</ele>
        <time>2018-08-28T09:25:33Z</time>
      </trkpt>
      <trkpt lat="45.9633" lon="4.87267">
        <ele>283</ele>
        <time>2018-08-28T09:25:34Z</time>
      </trkpt>
      <trkpt lat="45.96334" lon="4.87265">
        <ele>283</ele>
        <time>2018-08-28T09:25:35Z</time>
      </trkpt>
      <trkpt lat="45.96339" lon="4.8726">
        <ele>283</ele>
        <time>2018-08-28T09:25:36Z</time>
      </trkpt>
      <trkpt lat="45.96342" lon="4.8725">
        <ele>283</ele>
        <time>2018-08-28T09:25:37Z</time>
      </trkpt>
      <trkpt lat="45.96348" lon="4.87243">
        <ele>283</ele>
        <time>2018-08-28T09:25:38Z</time>
      </trkpt>
      <trkpt lat="45.96352" lon="4.87235">
        <ele>282</ele>
        <time>2018-08-28T09:25:39Z</time>
      </trkpt>
      <trkpt lat="45.96357" lon="4.87228">
        <ele>282</ele>
        <time>2018-08-28T09:25:40Z</time>
      </trkpt>
      <trkpt lat="45.96362" lon="4.87222">
        <ele>282</ele>
        <time>2018-08-28T09:25:41Z</time>
      </trkpt>
      <trkpt lat="45.96368" lon="4.87215">
        <ele>282</ele>
        <time>2018-08-28T09:25:42Z</time>
      </trkpt>
      <trkpt lat="45.96374" lon="4.87209">
        <ele>282</ele>
        <time>2018-08-28T09:25:43Z</time>
      </trkpt>
      <trkpt lat="45.96379" lon="4.87203">
        <ele>282</ele>
        <time>2018-08-28T09:25:44Z</time>
      </trkpt>
      <trkpt lat="45.96383" lon="4.87197">
        <ele>282</ele>
        <time>2018-08-28T09:25:45Z</time>
      </trkpt>
      <trkpt lat="45.96387" lon="4.87191">
        <ele>282</ele>
        <time>2018-08-28T09:25:46Z</time>
      </trkpt>
      <trkpt lat="45.96392" lon="4.87186">
        <ele>282</ele>
        <time>2018-08-28T09:25:47Z</time>
      </trkpt>
      <trkpt lat="45.96397" lon="4.87181">
        <ele>282</ele>
        <time>2018-08-28T09:25:48Z</time>
      </trkpt>
      <trkpt lat="45.96402" lon="4.87175">
        <ele>282</ele>
        <time>2018-08-28T09:25:49Z</time>
      </trkpt>
      <trkpt lat="45.96407" lon="4.8717">
        <ele>281</ele>
        <time>2018-08-28T09:25:50Z</time>
      </trkpt>
      <trkpt lat="45.96412" lon="4.87162">
        <ele>281</ele>
        <time>2018-08-28T09:25:51Z</time>
      </trkpt>
      <trkpt lat="45.96416" lon="4.87156">
        <ele>281</ele>
        <time>2018-08-28T09:25:52Z</time>
      </trkpt>
      <trkpt lat="45.96419" lon="4.87148">
        <ele>281</ele>
        <time>2018-08-28T09:25:53Z</time>
      </trkpt>
      <trkpt lat="45.96423" lon="4.87142">
        <ele>281</ele>
        <time>2018-08-28T09:25:54Z</time>
      </trkpt>
      <trkpt lat="45.96427" lon="4.87136">
        <ele>281</ele>
        <time>2018-08-28T09:25:55Z</time>
      </trkpt>
      <trkpt lat="45.96431" lon="4.87131">
        <ele>281</ele>
        <time>2018-08-28T09:25:56Z</time>
      </trkpt>
      <trkpt lat="45.96435" lon="4.87127">
        <ele>281</ele>
        <time>2018-08-28T09:25:57Z</time>
      </trkpt>
      <trkpt lat="45.96439" lon="4.87123">
        <ele>281</ele>
        <time>2018-08-28T09:25:58Z</time>
      </trkpt>
      <trkpt lat="45.96446" lon="4.87116">
        <ele>281</ele>
        <time>2018-08-28T09:26:00Z</time>
      </trkpt>
      <trkpt lat="45.9645" lon="4.8711">
        <ele>281</ele>
        <time>2018-08-28T09:26:01Z</time>
      </trkpt>
      <trkpt lat="45.96453" lon="4.87103">
        <ele>281</ele>
        <time>2018-08-28T09:26:02Z</time>
      </trkpt>
      <trkpt lat="45.96458" lon="4.87098">
        <ele>281</ele>
        <time>2018-08-28T09:26:03Z</time>
      </trkpt>
      <trkpt lat="45.96461" lon="4.87092">
        <ele>282</ele>
        <time>2018-08-28T09:26:04Z</time>
      </trkpt>
      <trkpt lat="45.96465" lon="4.87087">
        <ele>282</ele>
        <time>2018-08-28T09:26:05Z</time>
      </trkpt>
      <trkpt lat="45.96468" lon="4.87084">
        <ele>282</ele>
        <time>2018-08-28T09:26:06Z</time>
      </trkpt>
      <trkpt lat="45.96472" lon="4.87079">
        <ele>281</ele>
        <time>2018-08-28T09:26:07Z</time>
      </trkpt>
      <trkpt lat="45.96479" lon="4.87071">
        <ele>282</ele>
        <time>2018-08-28T09:26:09Z</time>
      </trkpt>
      <trkpt lat="45.96482" lon="4.87067">
        <ele>282</ele>
        <time>2018-08-28T09:26:10Z</time>
      </trkpt>
      <trkpt lat="45.96486" lon="4.87062">
        <ele>281</ele>
        <time>2018-08-28T09:26:11Z</time>
      </trkpt>
      <trkpt lat="45.96489" lon="4.87056">
        <ele>281</ele>
        <time>2018-08-28T09:26:12Z</time>
      </trkpt>
      <trkpt lat="45.96491" lon="4.87052">
        <ele>281</ele>
        <time>2018-08-28T09:26:13Z</time>
      </trkpt>
      <trkpt lat="45.96495" lon="4.87046">
        <ele>281</ele>
        <time>2018-08-28T09:26:14Z</time>
      </trkpt>
      <trkpt lat="45.96502" lon="4.8704">
        <ele>282</ele>
        <time>2018-08-28T09:26:17Z</time>
      </trkpt>
      <trkpt lat="45.96504" lon="4.87041">
        <ele>282</ele>
        <time>2018-08-28T09:26:18Z</time>
      </trkpt>
      <trkpt lat="45.96512" lon="4.87047">
        <ele>283</ele>
        <time>2018-08-28T09:26:22Z</time>
      </trkpt>
      <trkpt lat="45.96514" lon="4.8705">
        <ele>283</ele>
        <time>2018-08-28T09:26:23Z</time>
      </trkpt>
      <trkpt lat="45.9652" lon="4.87054">
        <ele>283</ele>
        <time>2018-08-28T09:26:25Z</time>
      </trkpt>
      <trkpt lat="45.96523" lon="4.87056">
        <ele>283</ele>
        <time>2018-08-28T09:26:26Z</time>
      </trkpt>
      <trkpt lat="45.96531" lon="4.87057">
        <ele>283</ele>
        <time>2018-08-28T09:26:29Z</time>
      </trkpt>
      <trkpt lat="45.96533" lon="4.87056">
        <ele>283</ele>
        <time>2018-08-28T09:26:30Z</time>
      </trkpt>
      <trkpt lat="45.96542" lon="4.87058">
        <ele>283</ele>
        <time>2018-08-28T09:26:35Z</time>
      </trkpt>
      <trkpt lat="45.96542" lon="4.8706">
        <ele>283</ele>
        <time>2018-08-28T09:26:36Z</time>
      </trkpt>
      <trkpt lat="45.96548" lon="4.87069">
        <ele>283</ele>
        <time>2018-08-28T09:26:41Z</time>
      </trkpt>
      <trkpt lat="45.9655" lon="4.87069">
        <ele>283</ele>
        <time>2018-08-28T09:26:42Z</time>
      </trkpt>
      <trkpt lat="45.96557" lon="4.8707">
        <ele>283</ele>
        <time>2018-08-28T09:26:45Z</time>
      </trkpt>
      <trkpt lat="45.96564" lon="4.87065">
        <ele>283</ele>
        <time>2018-08-28T09:26:46Z</time>
      </trkpt>
      <trkpt lat="45.96563" lon="4.87055">
        <ele>283</ele>
        <time>2018-08-28T09:26:49Z</time>
      </trkpt>
      <trkpt lat="45.96562" lon="4.87051">
        <ele>283</ele>
        <time>2018-08-28T09:26:50Z</time>
      </trkpt>
      <trkpt lat="45.9656" lon="4.87042">
        <ele>283</ele>
        <time>2018-08-28T09:26:52Z</time>
      </trkpt>
      <trkpt lat="45.96559" lon="4.87037">
        <ele>283</ele>
        <time>2018-08-28T09:26:53Z</time>
      </trkpt>
      <trkpt lat="45.96556" lon="4.87029">
        <ele>283</ele>
        <time>2018-08-28T09:26:55Z</time>
      </trkpt>
      <trkpt lat="45.96554" lon="4.87026">
        <ele>283</ele>
        <time>2018-08-28T09:26:56Z</time>
      </trkpt>
      <trkpt lat="45.96546" lon="4.8702">
        <ele>283</ele>
        <time>2018-08-28T09:26:59Z</time>
      </trkpt>
      <trkpt lat="45.96544" lon="4.87019">
        <ele>283</ele>
        <time>2018-08-28T09:27:00Z</time>
      </trkpt>
      <trkpt lat="45.96535" lon="4.8702">
        <ele>283</ele>
        <time>2018-08-28T09:27:04Z</time>
      </trkpt>
      <trkpt lat="45.96533" lon="4.8702">
        <ele>283</ele>
        <time>2018-08-28T09:27:05Z</time>
      </trkpt>
      <trkpt lat="45.96531" lon="4.87028">
        <ele>283</ele>
        <time>2018-08-28T09:36:53Z</time>
      </trkpt>
      <trkpt lat="45.96531" lon="4.87028">
        <ele>283</ele>
        <time>2018-08-28T09:36:54Z</time>
      </trkpt>
      <trkpt lat="45.96531" lon="4.87028">
        <ele>283</ele>
        <time>2018-08-28T09:36:55Z</time>
      </trkpt>
      <trkpt lat="45.96531" lon="4.87028">
        <ele>283</ele>
        <time>2018-08-28T09:36:56Z</time>
      </trkpt>
      <trkpt lat="45.96539" lon="4.87031">
        <ele>283</ele>
        <time>2018-08-28T09:37:15Z</time>
      </trkpt>
      <trkpt lat="45.9654" lon="4.8703">
        <ele>283</ele>
        <time>2018-08-28T09:37:16Z</time>
      </trkpt>
      <trkpt lat="45.96543" lon="4.87021">
        <ele>283</ele>
        <time>2018-08-28T09:37:20Z</time>
      </trkpt>
      <trkpt lat="45.96544" lon="4.87017">
        <ele>283</ele>
        <time>2018-08-28T09:37:21Z</time>
      </trkpt>
      <trkpt lat="45.96544" lon="4.87007">
        <ele>283</ele>
        <time>2018-08-28T09:37:23Z</time>
      </trkpt>
      <trkpt lat="45.96545" lon="4.87002">
        <ele>283</ele>
        <time>2018-08-28T09:37:24Z</time>
      </trkpt>
      <trkpt lat="45.96548" lon="4.86992">
        <ele>283</ele>
        <time>2018-08-28T09:37:27Z</time>
      </trkpt>
      <trkpt lat="45.9655" lon="4.8699">
        <ele>283</ele>
        <time>2018-08-28T09:37:28Z</time>
      </trkpt>
      <trkpt lat="45.96556" lon="4.86981">
        <ele>283</ele>
        <time>2018-08-28T09:37:31Z</time>
      </trkpt>
      <trkpt lat="45.96558" lon="4.86977">
        <ele>283</ele>
        <time>2018-08-28T09:37:32Z</time>
      </trkpt>
      <trkpt lat="45.96563" lon="4.86964">
        <ele>283</ele>
        <time>2018-08-28T09:37:33Z</time>
      </trkpt>
      <trkpt lat="45.96567" lon="4.86956">
        <ele>284</ele>
        <time>2018-08-28T09:37:37Z</time>
      </trkpt>
      <trkpt lat="45.96569" lon="4.86953">
        <ele>284</ele>
        <time>2018-08-28T09:37:38Z</time>
      </trkpt>
      <trkpt lat="45.96571" lon="4.86949">
        <ele>284</ele>
        <time>2018-08-28T09:37:39Z</time>
      </trkpt>
      <trkpt lat="45.96578" lon="4.86936">
        <ele>284</ele>
        <time>2018-08-28T09:37:40Z</time>
      </trkpt>
      <trkpt lat="45.96583" lon="4.86928">
        <ele>284</ele>
        <time>2018-08-28T09:37:42Z</time>
      </trkpt>
      <trkpt lat="45.96586" lon="4.86923">
        <ele>285</ele>
        <time>2018-08-28T09:37:43Z</time>
      </trkpt>
      <trkpt lat="45.96591" lon="4.86914">
        <ele>286</ele>
        <time>2018-08-28T09:37:45Z</time>
      </trkpt>
      <trkpt lat="45.96594" lon="4.86909">
        <ele>286</ele>
        <time>2018-08-28T09:37:46Z</time>
      </trkpt>
      <trkpt lat="45.96598" lon="4.869">
        <ele>286</ele>
        <time>2018-08-28T09:37:48Z</time>
      </trkpt>
      <trkpt lat="45.966" lon="4.86897">
        <ele>286</ele>
        <time>2018-08-28T09:37:49Z</time>
      </trkpt>
      <trkpt lat="45.96604" lon="4.86888">
        <ele>287</ele>
        <time>2018-08-28T09:37:52Z</time>
      </trkpt>
      <trkpt lat="45.96606" lon="4.86885">
        <ele>287</ele>
        <time>2018-08-28T09:37:53Z</time>
      </trkpt>
      <trkpt lat="45.96612" lon="4.86874">
        <ele>287</ele>
        <time>2018-08-28T09:37:54Z</time>
      </trkpt>
      <trkpt lat="45.96619" lon="4.86866">
        <ele>287</ele>
        <time>2018-08-28T09:37:56Z</time>
      </trkpt>
      <trkpt lat="45.96623" lon="4.86859">
        <ele>287</ele>
        <time>2018-08-28T09:37:57Z</time>
      </trkpt>
      <trkpt lat="45.96627" lon="4.86853">
        <ele>287</ele>
        <time>2018-08-28T09:37:59Z</time>
      </trkpt>
      <trkpt lat="45.96631" lon="4.86847">
        <ele>287</ele>
        <time>2018-08-28T09:38:00Z</time>
      </trkpt>
      <trkpt lat="45.96635" lon="4.86836">
        <ele>287</ele>
        <time>2018-08-28T09:38:03Z</time>
      </trkpt>
      <trkpt lat="45.96637" lon="4.86833">
        <ele>288</ele>
        <time>2018-08-28T09:38:04Z</time>
      </trkpt>
      <trkpt lat="45.9664" lon="4.86826">
        <ele>288</ele>
        <time>2018-08-28T09:38:06Z</time>
      </trkpt>
      <trkpt lat="45.96646" lon="4.86814">
        <ele>288</ele>
        <time>2018-08-28T09:38:07Z</time>
      </trkpt>
      <trkpt lat="45.96649" lon="4.86806">
        <ele>288</ele>
        <time>2018-08-28T09:38:08Z</time>
      </trkpt>
      <trkpt lat="45.96652" lon="4.86802">
        <ele>288</ele>
        <time>2018-08-28T09:38:09Z</time>
      </trkpt>
      <trkpt lat="45.96658" lon="4.86795">
        <ele>288</ele>
        <time>2018-08-28T09:38:11Z</time>
      </trkpt>
      <trkpt lat="45.96661" lon="4.86791">
        <ele>288</ele>
        <time>2018-08-28T09:38:12Z</time>
      </trkpt>
      <trkpt lat="45.96666" lon="4.86783">
        <ele>288</ele>
        <time>2018-08-28T09:38:14Z</time>
      </trkpt>
      <trkpt lat="45.96669" lon="4.86778">
        <ele>289</ele>
        <time>2018-08-28T09:38:15Z</time>
      </trkpt>
      <trkpt lat="45.96674" lon="4.86771">
        <ele>289</ele>
        <time>2018-08-28T09:38:18Z</time>
      </trkpt>
      <trkpt lat="45.96678" lon="4.86767">
        <ele>289</ele>
        <time>2018-08-28T09:38:19Z</time>
      </trkpt>
      <trkpt lat="45.96685" lon="4.86759">
        <ele>289</ele>
        <time>2018-08-28T09:38:21Z</time>
      </trkpt>
      <trkpt lat="45.96688" lon="4.86754">
        <ele>289</ele>
        <time>2018-08-28T09:38:22Z</time>
      </trkpt>
      <trkpt lat="45.96694" lon="4.86744">
        <ele>289</ele>
        <time>2018-08-28T09:38:24Z</time>
      </trkpt>
      <trkpt lat="45.96696" lon="4.8674">
        <ele>289</ele>
        <time>2018-08-28T09:38:25Z</time>
      </trkpt>
      <trkpt lat="45.96701" lon="4.86731">
        <ele>289</ele>
        <time>2018-08-28T09:38:27Z</time>
      </trkpt>
      <trkpt lat="45.96704" lon="4.86727">
        <ele>289</ele>
        <time>2018-08-28T09:38:28Z</time>
      </trkpt>
      <trkpt lat="45.96709" lon="4.86718">
        <ele>289</ele>
        <time>2018-08-28T09:38:30Z</time>
      </trkpt>
      <trkpt lat="45.96712" lon="4.86713">
        <ele>289</ele>
        <time>2018-08-28T09:38:31Z</time>
      </trkpt>
      <trkpt lat="45.96718" lon="4.86703">
        <ele>289</ele>
        <time>2018-08-28T09:38:33Z</time>
      </trkpt>
      <trkpt lat="45.9672" lon="4.86699">
        <ele>289</ele>
        <time>2018-08-28T09:38:34Z</time>
      </trkpt>
      <trkpt lat="45.96725" lon="4.8669">
        <ele>289</ele>
        <time>2018-08-28T09:38:36Z</time>
      </trkpt>
      <trkpt lat="45.96728" lon="4.86685">
        <ele>289</ele>
        <time>2018-08-28T09:38:37Z</time>
      </trkpt>
      <trkpt lat="45.96734" lon="4.86677">
        <ele>290</ele>
        <time>2018-08-28T09:38:39Z</time>
      </trkpt>
      <trkpt lat="45.96737" lon="4.86672">
        <ele>290</ele>
        <time>2018-08-28T09:38:40Z</time>
      </trkpt>
      <trkpt lat="45.96742" lon="4.86665">
        <ele>290</ele>
        <time>2018-08-28T09:38:42Z</time>
      </trkpt>
      <trkpt lat="45.96745" lon="4.8666">
        <ele>290</ele>
        <time>2018-08-28T09:38:43Z</time>
      </trkpt>
      <trkpt lat="45.96751" lon="4.86651">
        <ele>290</ele>
        <time>2018-08-28T09:38:45Z</time>
      </trkpt>
      <trkpt lat="45.96753" lon="4.86646">
        <ele>290</ele>
        <time>2018-08-28T09:38:46Z</time>
      </trkpt>
      <trkpt lat="45.96759" lon="4.86636">
        <ele>290</ele>
        <time>2018-08-28T09:38:48Z</time>
      </trkpt>
      <trkpt lat="45.96761" lon="4.86631">
        <ele>289</ele>
        <time>2018-08-28T09:38:49Z</time>
      </trkpt>
      <trkpt lat="45.96766" lon="4.86622">
        <ele>289</ele>
        <time>2018-08-28T09:38:51Z</time>
      </trkpt>
      <trkpt lat="45.96769" lon="4.86617">
        <ele>289</ele>
        <time>2018-08-28T09:38:52Z</time>
      </trkpt>
      <trkpt lat="45.96774" lon="4.86607">
        <ele>289</ele>
        <time>2018-08-28T09:38:54Z</time>
      </trkpt>
      <trkpt lat="45.96778" lon="4.866">
        <ele>289</ele>
        <time>2018-08-28T09:38:55Z</time>
      </trkpt>
      <trkpt lat="45.96781" lon="4.86595">
        <ele>289</ele>
        <time>2018-08-28T09:38:56Z</time>
      </trkpt>
      <trkpt lat="45.96785" lon="4.86588">
        <ele>289</ele>
        <time>2018-08-28T09:38:57Z</time>
      </trkpt>
      <trkpt lat="45.96787" lon="4.8658">
        <ele>290</ele>
        <time>2018-08-28T09:38:58Z</time>
      </trkpt>
      <trkpt lat="45.96791" lon="4.86574">
        <ele>290</ele>
        <time>2018-08-28T09:38:59Z</time>
      </trkpt>
      <trkpt lat="45.96796" lon="4.86568">
        <ele>290</ele>
        <time>2018-08-28T09:39:00Z</time>
      </trkpt>
      <trkpt lat="45.96799" lon="4.86563">
        <ele>290</ele>
        <time>2018-08-28T09:39:01Z</time>
      </trkpt>
      <trkpt lat="45.96803" lon="4.8656">
        <ele>290</ele>
        <time>2018-08-28T09:39:02Z</time>
      </trkpt>
      <trkpt lat="45.96805" lon="4.86554">
        <ele>290</ele>
        <time>2018-08-28T09:39:03Z</time>
      </trkpt>
      <trkpt lat="45.96808" lon="4.86548">
        <ele>290</ele>
        <time>2018-08-28T09:39:04Z</time>
      </trkpt>
      <trkpt lat="45.96812" lon="4.86542">
        <ele>290</ele>
        <time>2018-08-28T09:39:05Z</time>
      </trkpt>
      <trkpt lat="45.96815" lon="4.86537">
        <ele>290</ele>
        <time>2018-08-28T09:39:06Z</time>
      </trkpt>
      <trkpt lat="45.96818" lon="4.86533">
        <ele>290</ele>
        <time>2018-08-28T09:39:07Z</time>
      </trkpt>
      <trkpt lat="45.96821" lon="4.86527">
        <ele>289</ele>
        <time>2018-08-28T09:39:08Z</time>
      </trkpt>
      <trkpt lat="45.96825" lon="4.86522">
        <ele>289</ele>
        <time>2018-08-28T09:39:09Z</time>
      </trkpt>
      <trkpt lat="45.96827" lon="4.86515">
        <ele>289</ele>
        <time>2018-08-28T09:39:10Z</time>
      </trkpt>
      <trkpt lat="45.9683" lon="4.86509">
        <ele>289</ele>
        <time>2018-08-28T09:39:11Z</time>
      </trkpt>
      <trkpt lat="45.96836" lon="4.865">
        <ele>289</ele>
        <time>2018-08-28T09:39:13Z</time>
      </trkpt>
      <trkpt lat="45.96837" lon="4.86495">
        <ele>289</ele>
        <time>2018-08-28T09:39:14Z</time>
      </trkpt>
      <trkpt lat="45.96839" lon="4.86488">
        <ele>289</ele>
        <time>2018-08-28T09:39:15Z</time>
      </trkpt>
      <trkpt lat="45.96841" lon="4.86482">
        <ele>289</ele>
        <time>2018-08-28T09:39:16Z</time>
      </trkpt>
      <trkpt lat="45.96844" lon="4.86476">
        <ele>289</ele>
        <time>2018-08-28T09:39:17Z</time>
      </trkpt>
      <trkpt lat="45.96845" lon="4.86469">
        <ele>289</ele>
        <time>2018-08-28T09:39:18Z</time>
      </trkpt>
      <trkpt lat="45.96847" lon="4.86462">
        <ele>289</ele>
        <time>2018-08-28T09:39:19Z</time>
      </trkpt>
      <trkpt lat="45.96849" lon="4.86455">
        <ele>289</ele>
        <time>2018-08-28T09:39:20Z</time>
      </trkpt>
      <trkpt lat="45.96853" lon="4.86445">
        <ele>290</ele>
        <time>2018-08-28T09:39:22Z</time>
      </trkpt>
      <trkpt lat="45.96854" lon="4.86442">
        <ele>290</ele>
        <time>2018-08-28T09:39:23Z</time>
      </trkpt>
      <trkpt lat="45.96855" lon="4.8643">
        <ele>290</ele>
        <time>2018-08-28T09:39:25Z</time>
      </trkpt>
      <trkpt lat="45.96856" lon="4.86425">
        <ele>290</ele>
        <time>2018-08-28T09:39:26Z</time>
      </trkpt>
      <trkpt lat="45.96857" lon="4.86415">
        <ele>291</ele>
        <time>2018-08-28T09:39:28Z</time>
      </trkpt>
      <trkpt lat="45.96859" lon="4.86408">
        <ele>290</ele>
        <time>2018-08-28T09:39:29Z</time>
      </trkpt>
      <trkpt lat="45.9686" lon="4.86402">
        <ele>290</ele>
        <time>2018-08-28T09:39:30Z</time>
      </trkpt>
      <trkpt lat="45.9686" lon="4.86393">
        <ele>290</ele>
        <time>2018-08-28T09:39:31Z</time>
      </trkpt>
      <trkpt lat="45.96861" lon="4.86386">
        <ele>290</ele>
        <time>2018-08-28T09:39:32Z</time>
      </trkpt>
      <trkpt lat="45.96862" lon="4.86377">
        <ele>290</ele>
        <time>2018-08-28T09:39:33Z</time>
      </trkpt>
      <trkpt lat="45.96864" lon="4.8637">
        <ele>290</ele>
        <time>2018-08-28T09:39:34Z</time>
      </trkpt>
      <trkpt lat="45.96864" lon="4.86361">
        <ele>290</ele>
        <time>2018-08-28T09:39:35Z</time>
      </trkpt>
      <trkpt lat="45.96865" lon="4.86353">
        <ele>290</ele>
        <time>2018-08-28T09:39:36Z</time>
      </trkpt>
      <trkpt lat="45.96868" lon="4.86346">
        <ele>290</ele>
        <time>2018-08-28T09:39:37Z</time>
      </trkpt>
      <trkpt lat="45.96869" lon="4.86338">
        <ele>290</ele>
        <time>2018-08-28T09:39:38Z</time>
      </trkpt>
      <trkpt lat="45.9687" lon="4.86331">
        <ele>289</ele>
        <time>2018-08-28T09:39:39Z</time>
      </trkpt>
      <trkpt lat="45.96873" lon="4.86321">
        <ele>289</ele>
        <time>2018-08-28T09:39:41Z</time>
      </trkpt>
      <trkpt lat="45.96873" lon="4.86315">
        <ele>289</ele>
        <time>2018-08-28T09:39:42Z</time>
      </trkpt>
      <trkpt lat="45.96877" lon="4.86307">
        <ele>289</ele>
        <time>2018-08-28T09:39:44Z</time>
      </trkpt>
      <trkpt lat="45.96877" lon="4.86301">
        <ele>289</ele>
        <time>2018-08-28T09:39:45Z</time>
      </trkpt>
      <trkpt lat="45.96877" lon="4.86294">
        <ele>289</ele>
        <time>2018-08-28T09:39:46Z</time>
      </trkpt>
      <trkpt lat="45.96879" lon="4.86288">
        <ele>289</ele>
        <time>2018-08-28T09:39:47Z</time>
      </trkpt>
      <trkpt lat="45.96881" lon="4.86281">
        <ele>289</ele>
        <time>2018-08-28T09:39:48Z</time>
      </trkpt>
      <trkpt lat="45.96883" lon="4.86276">
        <ele>288</ele>
        <time>2018-08-28T09:39:49Z</time>
      </trkpt>
      <trkpt lat="45.96884" lon="4.86269">
        <ele>288</ele>
        <time>2018-08-28T09:39:50Z</time>
      </trkpt>
      <trkpt lat="45.96885" lon="4.8626">
        <ele>288</ele>
        <time>2018-08-28T09:39:51Z</time>
      </trkpt>
      <trkpt lat="45.96885" lon="4.86253">
        <ele>288</ele>
        <time>2018-08-28T09:39:52Z</time>
      </trkpt>
      <trkpt lat="45.96885" lon="4.86243">
        <ele>288</ele>
        <time>2018-08-28T09:39:53Z</time>
      </trkpt>
      <trkpt lat="45.96888" lon="4.86236">
        <ele>288</ele>
        <time>2018-08-28T09:39:54Z</time>
      </trkpt>
      <trkpt lat="45.96889" lon="4.86228">
        <ele>288</ele>
        <time>2018-08-28T09:39:55Z</time>
      </trkpt>
      <trkpt lat="45.96889" lon="4.8622">
        <ele>289</ele>
        <time>2018-08-28T09:39:56Z</time>
      </trkpt>
      <trkpt lat="45.9689" lon="4.8621">
        <ele>289</ele>
        <time>2018-08-28T09:39:57Z</time>
      </trkpt>
      <trkpt lat="45.96893" lon="4.86205">
        <ele>289</ele>
        <time>2018-08-28T09:39:58Z</time>
      </trkpt>
      <trkpt lat="45.96894" lon="4.86194">
        <ele>289</ele>
        <time>2018-08-28T09:39:59Z</time>
      </trkpt>
      <trkpt lat="45.96893" lon="4.86181">
        <ele>289</ele>
        <time>2018-08-28T09:40:00Z</time>
      </trkpt>
      <trkpt lat="45.96894" lon="4.86171">
        <ele>288</ele>
        <time>2018-08-28T09:40:01Z</time>
      </trkpt>
      <trkpt lat="45.96895" lon="4.8616">
        <ele>289</ele>
        <time>2018-08-28T09:40:02Z</time>
      </trkpt>
      <trkpt lat="45.96896" lon="4.86151">
        <ele>289</ele>
        <time>2018-08-28T09:40:03Z</time>
      </trkpt>
      <trkpt lat="45.96896" lon="4.86136">
        <ele>289</ele>
        <time>2018-08-28T09:40:04Z</time>
      </trkpt>
      <trkpt lat="45.96897" lon="4.86127">
        <ele>289</ele>
        <time>2018-08-28T09:40:05Z</time>
      </trkpt>
      <trkpt lat="45.96898" lon="4.86117">
        <ele>289</ele>
        <time>2018-08-28T09:40:06Z</time>
      </trkpt>
      <trkpt lat="45.969" lon="4.86109">
        <ele>289</ele>
        <time>2018-08-28T09:40:07Z</time>
      </trkpt>
      <trkpt lat="45.96902" lon="4.861">
        <ele>288</ele>
        <time>2018-08-28T09:40:08Z</time>
      </trkpt>
      <trkpt lat="45.96903" lon="4.8609">
        <ele>288</ele>
        <time>2018-08-28T09:40:09Z</time>
      </trkpt>
      <trkpt lat="45.96906" lon="4.86084">
        <ele>288</ele>
        <time>2018-08-28T09:40:10Z</time>
      </trkpt>
      <trkpt lat="45.96908" lon="4.86075">
        <ele>288</ele>
        <time>2018-08-28T09:40:11Z</time>
      </trkpt>
      <trkpt lat="45.96908" lon="4.86065">
        <ele>288</ele>
        <time>2018-08-28T09:40:12Z</time>
      </trkpt>
      <trkpt lat="45.96909" lon="4.86058">
        <ele>288</ele>
        <time>2018-08-28T09:40:13Z</time>
      </trkpt>
      <trkpt lat="45.96912" lon="4.86048">
        <ele>289</ele>
        <time>2018-08-28T09:40:14Z</time>
      </trkpt>
      <trkpt lat="45.96912" lon="4.86038">
        <ele>289</ele>
        <time>2018-08-28T09:40:15Z</time>
      </trkpt>
      <trkpt lat="45.96913" lon="4.8603">
        <ele>289</ele>
        <time>2018-08-28T09:40:16Z</time>
      </trkpt>
      <trkpt lat="45.96913" lon="4.86021">
        <ele>289</ele>
        <time>2018-08-28T09:40:17Z</time>
      </trkpt>
      <trkpt lat="45.96914" lon="4.86013">
        <ele>288</ele>
        <time>2018-08-28T09:40:18Z</time>
      </trkpt>
      <trkpt lat="45.96916" lon="4.86003">
        <ele>288</ele>
        <time>2018-08-28T09:40:19Z</time>
      </trkpt>
      <trkpt lat="45.96918" lon="4.85994">
        <ele>288</ele>
        <time>2018-08-28T09:40:20Z</time>
      </trkpt>
      <trkpt lat="45.96919" lon="4.85984">
        <ele>287</ele>
        <time>2018-08-28T09:40:21Z</time>
      </trkpt>
      <trkpt lat="45.96921" lon="4.85976">
        <ele>287</ele>
        <time>2018-08-28T09:40:22Z</time>
      </trkpt>
      <trkpt lat="45.96921" lon="4.85966">
        <ele>287</ele>
        <time>2018-08-28T09:40:23Z</time>
      </trkpt>
      <trkpt lat="45.96923" lon="4.85956">
        <ele>287</ele>
        <time>2018-08-28T09:40:24Z</time>
      </trkpt>
      <trkpt lat="45.96925" lon="4.85947">
        <ele>286</ele>
        <time>2018-08-28T09:40:25Z</time>
      </trkpt>
      <trkpt lat="45.96926" lon="4.85939">
        <ele>286</ele>
        <time>2018-08-28T09:40:26Z</time>
      </trkpt>
      <trkpt lat="45.96928" lon="4.85931">
        <ele>286</ele>
        <time>2018-08-28T09:40:27Z</time>
      </trkpt>
      <trkpt lat="45.96931" lon="4.85923">
        <ele>286</ele>
        <time>2018-08-28T09:40:28Z</time>
      </trkpt>
      <trkpt lat="45.96933" lon="4.85916">
        <ele>286</ele>
        <time>2018-08-28T09:40:29Z</time>
      </trkpt>
      <trkpt lat="45.96935" lon="4.85909">
        <ele>286</ele>
        <time>2018-08-28T09:40:30Z</time>
      </trkpt>
      <trkpt lat="45.96937" lon="4.85902">
        <ele>285</ele>
        <time>2018-08-28T09:40:31Z</time>
      </trkpt>
      <trkpt lat="45.96941" lon="4.85896">
        <ele>285</ele>
        <time>2018-08-28T09:40:32Z</time>
      </trkpt>
      <trkpt lat="45.96943" lon="4.85887">
        <ele>285</ele>
        <time>2018-08-28T09:40:33Z</time>
      </trkpt>
      <trkpt lat="45.96945" lon="4.8588">
        <ele>285</ele>
        <time>2018-08-28T09:40:34Z</time>
      </trkpt>
      <trkpt lat="45.96948" lon="4.85871">
        <ele>285</ele>
        <time>2018-08-28T09:40:35Z</time>
      </trkpt>
      <trkpt lat="45.9695" lon="4.85861">
        <ele>285</ele>
        <time>2018-08-28T09:40:36Z</time>
      </trkpt>
      <trkpt lat="45.96955" lon="4.85854">
        <ele>285</ele>
        <time>2018-08-28T09:40:37Z</time>
      </trkpt>
      <trkpt lat="45.96957" lon="4.85844">
        <ele>285</ele>
        <time>2018-08-28T09:40:38Z</time>
      </trkpt>
      <trkpt lat="45.96959" lon="4.85835">
        <ele>285</ele>
        <time>2018-08-28T09:40:39Z</time>
      </trkpt>
      <trkpt lat="45.96961" lon="4.85826">
        <ele>285</ele>
        <time>2018-08-28T09:40:40Z</time>
      </trkpt>
      <trkpt lat="45.96961" lon="4.85814">
        <ele>285</ele>
        <time>2018-08-28T09:40:41Z</time>
      </trkpt>
      <trkpt lat="45.96962" lon="4.85804">
        <ele>285</ele>
        <time>2018-08-28T09:40:42Z</time>
      </trkpt>
      <trkpt lat="45.96965" lon="4.85795">
        <ele>285</ele>
        <time>2018-08-28T09:40:43Z</time>
      </trkpt>
      <trkpt lat="45.96967" lon="4.85785">
        <ele>285</ele>
        <time>2018-08-28T09:40:44Z</time>
      </trkpt>
      <trkpt lat="45.96969" lon="4.85777">
        <ele>285</ele>
        <time>2018-08-28T09:40:45Z</time>
      </trkpt>
      <trkpt lat="45.96971" lon="4.85771">
        <ele>285</ele>
        <time>2018-08-28T09:40:46Z</time>
      </trkpt>
      <trkpt lat="45.96973" lon="4.85763">
        <ele>285</ele>
        <time>2018-08-28T09:40:47Z</time>
      </trkpt>
      <trkpt lat="45.96976" lon="4.85755">
        <ele>285</ele>
        <time>2018-08-28T09:40:48Z</time>
      </trkpt>
      <trkpt lat="45.96979" lon="4.85747">
        <ele>285</ele>
        <time>2018-08-28T09:40:49Z</time>
      </trkpt>
      <trkpt lat="45.96981" lon="4.85738">
        <ele>285</ele>
        <time>2018-08-28T09:40:50Z</time>
      </trkpt>
      <trkpt lat="45.96984" lon="4.85728">
        <ele>285</ele>
        <time>2018-08-28T09:40:51Z</time>
      </trkpt>
      <trkpt lat="45.96987" lon="4.8572">
        <ele>285</ele>
        <time>2018-08-28T09:40:52Z</time>
      </trkpt>
      <trkpt lat="45.9699" lon="4.85712">
        <ele>285</ele>
        <time>2018-08-28T09:40:53Z</time>
      </trkpt>
      <trkpt lat="45.96991" lon="4.85702">
        <ele>285</ele>
        <time>2018-08-28T09:40:54Z</time>
      </trkpt>
      <trkpt lat="45.96993" lon="4.85696">
        <ele>285</ele>
        <time>2018-08-28T09:40:55Z</time>
      </trkpt>
      <trkpt lat="45.96995" lon="4.85687">
        <ele>285</ele>
        <time>2018-08-28T09:40:56Z</time>
      </trkpt>
      <trkpt lat="45.96997" lon="4.8568">
        <ele>286</ele>
        <time>2018-08-28T09:40:57Z</time>
      </trkpt>
      <trkpt lat="45.96999" lon="4.85672">
        <ele>286</ele>
        <time>2018-08-28T09:40:58Z</time>
      </trkpt>
      <trkpt lat="45.97001" lon="4.85663">
        <ele>286</ele>
        <time>2018-08-28T09:40:59Z</time>
      </trkpt>
      <trkpt lat="45.97003" lon="4.85657">
        <ele>285</ele>
        <time>2018-08-28T09:41:00Z</time>
      </trkpt>
      <trkpt lat="45.97005" lon="4.85652">
        <ele>285</ele>
        <time>2018-08-28T09:41:01Z</time>
      </trkpt>
      <trkpt lat="45.97008" lon="4.85644">
        <ele>284</ele>
        <time>2018-08-28T09:41:02Z</time>
      </trkpt>
      <trkpt lat="45.9701" lon="4.85634">
        <ele>284</ele>
        <time>2018-08-28T09:41:03Z</time>
      </trkpt>
      <trkpt lat="45.97013" lon="4.85625">
        <ele>284</ele>
        <time>2018-08-28T09:41:04Z</time>
      </trkpt>
      <trkpt lat="45.97014" lon="4.85616">
        <ele>284</ele>
        <time>2018-08-28T09:41:05Z</time>
      </trkpt>
      <trkpt lat="45.97014" lon="4.85604">
        <ele>284</ele>
        <time>2018-08-28T09:41:06Z</time>
      </trkpt>
      <trkpt lat="45.97017" lon="4.85595">
        <ele>284</ele>
        <time>2018-08-28T09:41:07Z</time>
      </trkpt>
      <trkpt lat="45.97018" lon="4.85584">
        <ele>284</ele>
        <time>2018-08-28T09:41:08Z</time>
      </trkpt>
      <trkpt lat="45.97021" lon="4.85575">
        <ele>283</ele>
        <time>2018-08-28T09:41:09Z</time>
      </trkpt>
      <trkpt lat="45.97024" lon="4.85565">
        <ele>283</ele>
        <time>2018-08-28T09:41:10Z</time>
      </trkpt>
      <trkpt lat="45.97027" lon="4.85555">
        <ele>283</ele>
        <time>2018-08-28T09:41:11Z</time>
      </trkpt>
      <trkpt lat="45.9703" lon="4.85545">
        <ele>283</ele>
        <time>2018-08-28T09:41:12Z</time>
      </trkpt>
      <trkpt lat="45.97033" lon="4.85536">
        <ele>282</ele>
        <time>2018-08-28T09:41:13Z</time>
      </trkpt>
      <trkpt lat="45.97037" lon="4.85527">
        <ele>282</ele>
        <time>2018-08-28T09:41:14Z</time>
      </trkpt>
      <trkpt lat="45.9704" lon="4.8552">
        <ele>282</ele>
        <time>2018-08-28T09:41:15Z</time>
      </trkpt>
      <trkpt lat="45.97043" lon="4.85511">
        <ele>282</ele>
        <time>2018-08-28T09:41:16Z</time>
      </trkpt>
      <trkpt lat="45.97046" lon="4.85503">
        <ele>282</ele>
        <time>2018-08-28T09:41:17Z</time>
      </trkpt>
      <trkpt lat="45.97048" lon="4.85494">
        <ele>281</ele>
        <time>2018-08-28T09:41:18Z</time>
      </trkpt>
      <trkpt lat="45.97051" lon="4.85485">
        <ele>281</ele>
        <time>2018-08-28T09:41:19Z</time>
      </trkpt>
      <trkpt lat="45.97054" lon="4.85475">
        <ele>281</ele>
        <time>2018-08-28T09:41:20Z</time>
      </trkpt>
      <trkpt lat="45.97056" lon="4.85463">
        <ele>281</ele>
        <time>2018-08-28T09:41:21Z</time>
      </trkpt>
      <trkpt lat="45.97057" lon="4.85452">
        <ele>281</ele>
        <time>2018-08-28T09:41:22Z</time>
      </trkpt>
      <trkpt lat="45.97061" lon="4.85446">
        <ele>281</ele>
        <time>2018-08-28T09:41:23Z</time>
      </trkpt>
      <trkpt lat="45.97065" lon="4.85438">
        <ele>281</ele>
        <time>2018-08-28T09:41:24Z</time>
      </trkpt>
      <trkpt lat="45.97068" lon="4.85429">
        <ele>281</ele>
        <time>2018-08-28T09:41:25Z</time>
      </trkpt>
      <trkpt lat="45.97072" lon="4.8542">
        <ele>281</ele>
        <time>2018-08-28T09:41:26Z</time>
      </trkpt>
      <trkpt lat="45.97075" lon="4.85411">
        <ele>281</ele>
        <time>2018-08-28T09:41:27Z</time>
      </trkpt>
      <trkpt lat="45.97079" lon="4.85404">
        <ele>281</ele>
        <time>2018-08-28T09:41:28Z</time>
      </trkpt>
      <trkpt lat="45.97083" lon="4.85397">
        <ele>281</ele>
        <time>2018-08-28T09:41:29Z</time>
      </trkpt>
      <trkpt lat="45.97086" lon="4.85389">
        <ele>280</ele>
        <time>2018-08-28T09:41:30Z</time>
      </trkpt>
      <trkpt lat="45.97088" lon="4.85381">
        <ele>280</ele>
        <time>2018-08-28T09:41:31Z</time>
      </trkpt>
      <trkpt lat="45.97091" lon="4.85372">
        <ele>280</ele>
        <time>2018-08-28T09:41:32Z</time>
      </trkpt>
      <trkpt lat="45.97094" lon="4.85363">
        <ele>280</ele>
        <time>2018-08-28T09:41:33Z</time>
      </trkpt>
      <trkpt lat="45.97097" lon="4.85357">
        <ele>280</ele>
        <time>2018-08-28T09:41:34Z</time>
      </trkpt>
      <trkpt lat="45.971" lon="4.85348">
        <ele>280</ele>
        <time>2018-08-28T09:41:35Z</time>
      </trkpt>
      <trkpt lat="45.97102" lon="4.85337">
        <ele>280</ele>
        <time>2018-08-28T09:41:36Z</time>
      </trkpt>
      <trkpt lat="45.97105" lon="4.85329">
        <ele>280</ele>
        <time>2018-08-28T09:41:37Z</time>
      </trkpt>
      <trkpt lat="45.97108" lon="4.85321">
        <ele>280</ele>
        <time>2018-08-28T09:41:38Z</time>
      </trkpt>
      <trkpt lat="45.97111" lon="4.85312">
        <ele>280</ele>
        <time>2018-08-28T09:41:39Z</time>
      </trkpt>
      <trkpt lat="45.97114" lon="4.85304">
        <ele>280</ele>
        <time>2018-08-28T09:41:40Z</time>
      </trkpt>
      <trkpt lat="45.97118" lon="4.85297">
        <ele>280</ele>
        <time>2018-08-28T09:41:41Z</time>
      </trkpt>
      <trkpt lat="45.97122" lon="4.85289">
        <ele>280</ele>
        <time>2018-08-28T09:41:42Z</time>
      </trkpt>
      <trkpt lat="45.97126" lon="4.85283">
        <ele>279</ele>
        <time>2018-08-28T09:41:43Z</time>
      </trkpt>
      <trkpt lat="45.97129" lon="4.85276">
        <ele>279</ele>
        <time>2018-08-28T09:41:44Z</time>
      </trkpt>
      <trkpt lat="45.97132" lon="4.85267">
        <ele>279</ele>
        <time>2018-08-28T09:41:45Z</time>
      </trkpt>
      <trkpt lat="45.97134" lon="4.85259">
        <ele>279</ele>
        <time>2018-08-28T09:41:46Z</time>
      </trkpt>
      <trkpt lat="45.97138" lon="4.8525">
        <ele>279</ele>
        <time>2018-08-28T09:41:47Z</time>
      </trkpt>
      <trkpt lat="45.97142" lon="4.85243">
        <ele>279</ele>
        <time>2018-08-28T09:41:48Z</time>
      </trkpt>
      <trkpt lat="45.97146" lon="4.85236">
        <ele>279</ele>
        <time>2018-08-28T09:41:49Z</time>
      </trkpt>
      <trkpt lat="45.97149" lon="4.85229">
        <ele>279</ele>
        <time>2018-08-28T09:41:50Z</time>
      </trkpt>
      <trkpt lat="45.97153" lon="4.85221">
        <ele>279</ele>
        <time>2018-08-28T09:41:51Z</time>
      </trkpt>
      <trkpt lat="45.97157" lon="4.85215">
        <ele>279</ele>
        <time>2018-08-28T09:41:52Z</time>
      </trkpt>
      <trkpt lat="45.97161" lon="4.85208">
        <ele>279</ele>
        <time>2018-08-28T09:41:53Z</time>
      </trkpt>
      <trkpt lat="45.97166" lon="4.85203">
        <ele>279</ele>
        <time>2018-08-28T09:41:54Z</time>
      </trkpt>
      <trkpt lat="45.97169" lon="4.85194">
        <ele>278</ele>
        <time>2018-08-28T09:41:55Z</time>
      </trkpt>
      <trkpt lat="45.97174" lon="4.85188">
        <ele>278</ele>
        <time>2018-08-28T09:41:56Z</time>
      </trkpt>
      <trkpt lat="45.97177" lon="4.8518">
        <ele>278</ele>
        <time>2018-08-28T09:41:57Z</time>
      </trkpt>
      <trkpt lat="45.9718" lon="4.85172">
        <ele>278</ele>
        <time>2018-08-28T09:41:58Z</time>
      </trkpt>
      <trkpt lat="45.97185" lon="4.85165">
        <ele>278</ele>
        <time>2018-08-28T09:41:59Z</time>
      </trkpt>
      <trkpt lat="45.97188" lon="4.85157">
        <ele>278</ele>
        <time>2018-08-28T09:42:00Z</time>
      </trkpt>
      <trkpt lat="45.97193" lon="4.85151">
        <ele>278</ele>
        <time>2018-08-28T09:42:01Z</time>
      </trkpt>
      <trkpt lat="45.97195" lon="4.85143">
        <ele>278</ele>
        <time>2018-08-28T09:42:02Z</time>
      </trkpt>
      <trkpt lat="45.97198" lon="4.85136">
        <ele>278</ele>
        <time>2018-08-28T09:42:03Z</time>
      </trkpt>
      <trkpt lat="45.97201" lon="4.85128">
        <ele>278</ele>
        <time>2018-08-28T09:42:04Z</time>
      </trkpt>
      <trkpt lat="45.97205" lon="4.85122">
        <ele>278</ele>
        <time>2018-08-28T09:42:05Z</time>
      </trkpt>
      <trkpt lat="45.97208" lon="4.85114">
        <ele>278</ele>
        <time>2018-08-28T09:42:06Z</time>
      </trkpt>
      <trkpt lat="45.97212" lon="4.85108">
        <ele>278</ele>
        <time>2018-08-28T09:42:07Z</time>
      </trkpt>
      <trkpt lat="45.97216" lon="4.85099">
        <ele>278</ele>
        <time>2018-08-28T09:42:08Z</time>
      </trkpt>
      <trkpt lat="45.97217" lon="4.85089">
        <ele>278</ele>
        <time>2018-08-28T09:42:09Z</time>
      </trkpt>
      <trkpt lat="45.9722" lon="4.85082">
        <ele>278</ele>
        <time>2018-08-28T09:42:10Z</time>
      </trkpt>
      <trkpt lat="45.97223" lon="4.85074">
        <ele>278</ele>
        <time>2018-08-28T09:42:11Z</time>
      </trkpt>
      <trkpt lat="45.97226" lon="4.85066">
        <ele>278</ele>
        <time>2018-08-28T09:42:12Z</time>
      </trkpt>
      <trkpt lat="45.97228" lon="4.85059">
        <ele>279</ele>
        <time>2018-08-28T09:42:13Z</time>
      </trkpt>
      <trkpt lat="45.97232" lon="4.85053">
        <ele>279</ele>
        <time>2018-08-28T09:42:14Z</time>
      </trkpt>
      <trkpt lat="45.97236" lon="4.85045">
        <ele>279</ele>
        <time>2018-08-28T09:42:15Z</time>
      </trkpt>
      <trkpt lat="45.97236" lon="4.85039">
        <ele>279</ele>
        <time>2018-08-28T09:42:16Z</time>
      </trkpt>
      <trkpt lat="45.97239" lon="4.85032">
        <ele>279</ele>
        <time>2018-08-28T09:42:17Z</time>
      </trkpt>
      <trkpt lat="45.97243" lon="4.85028">
        <ele>279</ele>
        <time>2018-08-28T09:42:18Z</time>
      </trkpt>
      <trkpt lat="45.97247" lon="4.85023">
        <ele>279</ele>
        <time>2018-08-28T09:42:19Z</time>
      </trkpt>
      <trkpt lat="45.9725" lon="4.85017">
        <ele>279</ele>
        <time>2018-08-28T09:42:20Z</time>
      </trkpt>
      <trkpt lat="45.97251" lon="4.85004">
        <ele>279</ele>
        <time>2018-08-28T09:42:21Z</time>
      </trkpt>
      <trkpt lat="45.97254" lon="4.84996">
        <ele>279</ele>
        <time>2018-08-28T09:42:22Z</time>
      </trkpt>
      <trkpt lat="45.97257" lon="4.84989">
        <ele>279</ele>
        <time>2018-08-28T09:42:23Z</time>
      </trkpt>
      <trkpt lat="45.9726" lon="4.84981">
        <ele>279</ele>
        <time>2018-08-28T09:42:24Z</time>
      </trkpt>
      <trkpt lat="45.97263" lon="4.84974">
        <ele>279</ele>
        <time>2018-08-28T09:42:25Z</time>
      </trkpt>
      <trkpt lat="45.97266" lon="4.84964">
        <ele>279</ele>
        <time>2018-08-28T09:42:26Z</time>
      </trkpt>
      <trkpt lat="45.97273" lon="4.84958">
        <ele>279</ele>
        <time>2018-08-28T09:42:27Z</time>
      </trkpt>
      <trkpt lat="45.97276" lon="4.8495">
        <ele>279</ele>
        <time>2018-08-28T09:42:28Z</time>
      </trkpt>
      <trkpt lat="45.97281" lon="4.84946">
        <ele>278</ele>
        <time>2018-08-28T09:42:29Z</time>
      </trkpt>
      <trkpt lat="45.97286" lon="4.84938">
        <ele>278</ele>
        <time>2018-08-28T09:42:30Z</time>
      </trkpt>
      <trkpt lat="45.97291" lon="4.84931">
        <ele>278</ele>
        <time>2018-08-28T09:42:31Z</time>
      </trkpt>
      <trkpt lat="45.97295" lon="4.84924">
        <ele>278</ele>
        <time>2018-08-28T09:42:32Z</time>
      </trkpt>
      <trkpt lat="45.97298" lon="4.84916">
        <ele>278</ele>
        <time>2018-08-28T09:42:33Z</time>
      </trkpt>
      <trkpt lat="45.97303" lon="4.8491">
        <ele>278</ele>
        <time>2018-08-28T09:42:34Z</time>
      </trkpt>
      <trkpt lat="45.97308" lon="4.84904">
        <ele>278</ele>
        <time>2018-08-28T09:42:35Z</time>
      </trkpt>
      <trkpt lat="45.97312" lon="4.84898">
        <ele>278</ele>
        <time>2018-08-28T09:42:36Z</time>
      </trkpt>
      <trkpt lat="45.97315" lon="4.84892">
        <ele>278</ele>
        <time>2018-08-28T09:42:37Z</time>
      </trkpt>
      <trkpt lat="45.9732" lon="4.84887">
        <ele>278</ele>
        <time>2018-08-28T09:42:38Z</time>
      </trkpt>
      <trkpt lat="45.97324" lon="4.84879">
        <ele>278</ele>
        <time>2018-08-28T09:42:39Z</time>
      </trkpt>
      <trkpt lat="45.97328" lon="4.84873">
        <ele>278</ele>
        <time>2018-08-28T09:42:40Z</time>
      </trkpt>
      <trkpt lat="45.9733" lon="4.84865">
        <ele>278</ele>
        <time>2018-08-28T09:42:41Z</time>
      </trkpt>
      <trkpt lat="45.97334" lon="4.84859">
        <ele>277</ele>
        <time>2018-08-28T09:42:42Z</time>
      </trkpt>
      <trkpt lat="45.97337" lon="4.84852">
        <ele>277</ele>
        <time>2018-08-28T09:42:43Z</time>
      </trkpt>
      <trkpt lat="45.9734" lon="4.84846">
        <ele>277</ele>
        <time>2018-08-28T09:42:44Z</time>
      </trkpt>
      <trkpt lat="45.97344" lon="4.84839">
        <ele>277</ele>
        <time>2018-08-28T09:42:45Z</time>
      </trkpt>
      <trkpt lat="45.97348" lon="4.84829">
        <ele>278</ele>
        <time>2018-08-28T09:42:46Z</time>
      </trkpt>
      <trkpt lat="45.97351" lon="4.84821">
        <ele>278</ele>
        <time>2018-08-28T09:42:47Z</time>
      </trkpt>
      <trkpt lat="45.97354" lon="4.84813">
        <ele>278</ele>
        <time>2018-08-28T09:42:48Z</time>
      </trkpt>
      <trkpt lat="45.97359" lon="4.84806">
        <ele>278</ele>
        <time>2018-08-28T09:42:49Z</time>
      </trkpt>
      <trkpt lat="45.97362" lon="4.84799">
        <ele>278</ele>
        <time>2018-08-28T09:42:50Z</time>
      </trkpt>
      <trkpt lat="45.97365" lon="4.84791">
        <ele>278</ele>
        <time>2018-08-28T09:42:51Z</time>
      </trkpt>
      <trkpt lat="45.97369" lon="4.84784">
        <ele>278</ele>
        <time>2018-08-28T09:42:52Z</time>
      </trkpt>
      <trkpt lat="45.97372" lon="4.84777">
        <ele>278</ele>
        <time>2018-08-28T09:42:53Z</time>
      </trkpt>
      <trkpt lat="45.97372" lon="4.84769">
        <ele>278</ele>
        <time>2018-08-28T09:42:54Z</time>
      </trkpt>
      <trkpt lat="45.97376" lon="4.84763">
        <ele>278</ele>
        <time>2018-08-28T09:42:55Z</time>
      </trkpt>
      <trkpt lat="45.97379" lon="4.84756">
        <ele>278</ele>
        <time>2018-08-28T09:42:56Z</time>
      </trkpt>
      <trkpt lat="45.97381" lon="4.8475">
        <ele>278</ele>
        <time>2018-08-28T09:42:57Z</time>
      </trkpt>
      <trkpt lat="45.97383" lon="4.84742">
        <ele>278</ele>
        <time>2018-08-28T09:42:58Z</time>
      </trkpt>
      <trkpt lat="45.97386" lon="4.84734">
        <ele>278</ele>
        <time>2018-08-28T09:42:59Z</time>
      </trkpt>
      <trkpt lat="45.97388" lon="4.84727">
        <ele>278</ele>
        <time>2018-08-28T09:43:00Z</time>
      </trkpt>
      <trkpt lat="45.97392" lon="4.84721">
        <ele>278</ele>
        <time>2018-08-28T09:43:01Z</time>
      </trkpt>
      <trkpt lat="45.97394" lon="4.84712">
        <ele>278</ele>
        <time>2018-08-28T09:43:02Z</time>
      </trkpt>
      <trkpt lat="45.97396" lon="4.84704">
        <ele>278</ele>
        <time>2018-08-28T09:43:03Z</time>
      </trkpt>
      <trkpt lat="45.97398" lon="4.84697">
        <ele>278</ele>
        <time>2018-08-28T09:43:04Z</time>
      </trkpt>
      <trkpt lat="45.97399" lon="4.8469">
        <ele>278</ele>
        <time>2018-08-28T09:43:05Z</time>
      </trkpt>
      <trkpt lat="45.97402" lon="4.84682">
        <ele>278</ele>
        <time>2018-08-28T09:43:06Z</time>
      </trkpt>
      <trkpt lat="45.97403" lon="4.84675">
        <ele>277</ele>
        <time>2018-08-28T09:43:07Z</time>
      </trkpt>
      <trkpt lat="45.97405" lon="4.84667">
        <ele>277</ele>
        <time>2018-08-28T09:43:08Z</time>
      </trkpt>
      <trkpt lat="45.97407" lon="4.84658">
        <ele>277</ele>
        <time>2018-08-28T09:43:09Z</time>
      </trkpt>
      <trkpt lat="45.97409" lon="4.84649">
        <ele>278</ele>
        <time>2018-08-28T09:43:10Z</time>
      </trkpt>
      <trkpt lat="45.97412" lon="4.84642">
        <ele>278</ele>
        <time>2018-08-28T09:43:11Z</time>
      </trkpt>
      <trkpt lat="45.97415" lon="4.84634">
        <ele>278</ele>
        <time>2018-08-28T09:43:12Z</time>
      </trkpt>
      <trkpt lat="45.97417" lon="4.84624">
        <ele>276</ele>
        <time>2018-08-28T09:43:13Z</time>
      </trkpt>
      <trkpt lat="45.97418" lon="4.84616">
        <ele>276</ele>
        <time>2018-08-28T09:43:14Z</time>
      </trkpt>
      <trkpt lat="45.9742" lon="4.84606">
        <ele>276</ele>
        <time>2018-08-28T09:43:15Z</time>
      </trkpt>
      <trkpt lat="45.97419" lon="4.84596">
        <ele>277</ele>
        <time>2018-08-28T09:43:16Z</time>
      </trkpt>
      <trkpt lat="45.9742" lon="4.84588">
        <ele>277</ele>
        <time>2018-08-28T09:43:17Z</time>
      </trkpt>
      <trkpt lat="45.97421" lon="4.84581">
        <ele>277</ele>
        <time>2018-08-28T09:43:18Z</time>
      </trkpt>
      <trkpt lat="45.97421" lon="4.84571">
        <ele>277</ele>
        <time>2018-08-28T09:43:19Z</time>
      </trkpt>
      <trkpt lat="45.97422" lon="4.84562">
        <ele>277</ele>
        <time>2018-08-28T09:43:20Z</time>
      </trkpt>
      <trkpt lat="45.97422" lon="4.84554">
        <ele>277</ele>
        <time>2018-08-28T09:43:21Z</time>
      </trkpt>
      <trkpt lat="45.97423" lon="4.84546">
        <ele>277</ele>
        <time>2018-08-28T09:43:22Z</time>
      </trkpt>
      <trkpt lat="45.97425" lon="4.84539">
        <ele>277</ele>
        <time>2018-08-28T09:43:23Z</time>
      </trkpt>
      <trkpt lat="45.97427" lon="4.84526">
        <ele>277</ele>
        <time>2018-08-28T09:43:25Z</time>
      </trkpt>
      <trkpt lat="45.97429" lon="4.84519">
        <ele>277</ele>
        <time>2018-08-28T09:43:26Z</time>
      </trkpt>
      <trkpt lat="45.97429" lon="4.84508">
        <ele>277</ele>
        <time>2018-08-28T09:43:27Z</time>
      </trkpt>
      <trkpt lat="45.97429" lon="4.84499">
        <ele>278</ele>
        <time>2018-08-28T09:43:28Z</time>
      </trkpt>
      <trkpt lat="45.9743" lon="4.84492">
        <ele>278</ele>
        <time>2018-08-28T09:43:29Z</time>
      </trkpt>
      <trkpt lat="45.97431" lon="4.84484">
        <ele>278</ele>
        <time>2018-08-28T09:43:30Z</time>
      </trkpt>
      <trkpt lat="45.97433" lon="4.84477">
        <ele>278</ele>
        <time>2018-08-28T09:43:31Z</time>
      </trkpt>
      <trkpt lat="45.97435" lon="4.84472">
        <ele>277</ele>
        <time>2018-08-28T09:43:32Z</time>
      </trkpt>
      <trkpt lat="45.97435" lon="4.84465">
        <ele>278</ele>
        <time>2018-08-28T09:43:33Z</time>
      </trkpt>
      <trkpt lat="45.97437" lon="4.84457">
        <ele>278</ele>
        <time>2018-08-28T09:43:34Z</time>
      </trkpt>
      <trkpt lat="45.97439" lon="4.84445">
        <ele>278</ele>
        <time>2018-08-28T09:43:36Z</time>
      </trkpt>
      <trkpt lat="45.97441" lon="4.84439">
        <ele>278</ele>
        <time>2018-08-28T09:43:37Z</time>
      </trkpt>
      <trkpt lat="45.9744" lon="4.84431">
        <ele>278</ele>
        <time>2018-08-28T09:43:38Z</time>
      </trkpt>
      <trkpt lat="45.97441" lon="4.84422">
        <ele>278</ele>
        <time>2018-08-28T09:43:39Z</time>
      </trkpt>
      <trkpt lat="45.97442" lon="4.84415">
        <ele>278</ele>
        <time>2018-08-28T09:43:40Z</time>
      </trkpt>
      <trkpt lat="45.97442" lon="4.84406">
        <ele>278</ele>
        <time>2018-08-28T09:43:41Z</time>
      </trkpt>
      <trkpt lat="45.97443" lon="4.84398">
        <ele>278</ele>
        <time>2018-08-28T09:43:42Z</time>
      </trkpt>
      <trkpt lat="45.97443" lon="4.84389">
        <ele>278</ele>
        <time>2018-08-28T09:43:43Z</time>
      </trkpt>
      <trkpt lat="45.97445" lon="4.84379">
        <ele>278</ele>
        <time>2018-08-28T09:43:45Z</time>
      </trkpt>
      <trkpt lat="45.97446" lon="4.84372">
        <ele>278</ele>
        <time>2018-08-28T09:43:46Z</time>
      </trkpt>
      <trkpt lat="45.97449" lon="4.84362">
        <ele>278</ele>
        <time>2018-08-28T09:43:48Z</time>
      </trkpt>
      <trkpt lat="45.9745" lon="4.84354">
        <ele>278</ele>
        <time>2018-08-28T09:43:49Z</time>
      </trkpt>
      <trkpt lat="45.9745" lon="4.84345">
        <ele>277</ele>
        <time>2018-08-28T09:43:50Z</time>
      </trkpt>
      <trkpt lat="45.97452" lon="4.84337">
        <ele>277</ele>
        <time>2018-08-28T09:43:51Z</time>
      </trkpt>
      <trkpt lat="45.97454" lon="4.8433">
        <ele>278</ele>
        <time>2018-08-28T09:43:52Z</time>
      </trkpt>
      <trkpt lat="45.97456" lon="4.84323">
        <ele>278</ele>
        <time>2018-08-28T09:43:53Z</time>
      </trkpt>
      <trkpt lat="45.97459" lon="4.84317">
        <ele>278</ele>
        <time>2018-08-28T09:43:54Z</time>
      </trkpt>
      <trkpt lat="45.97459" lon="4.84308">
        <ele>278</ele>
        <time>2018-08-28T09:43:55Z</time>
      </trkpt>
      <trkpt lat="45.9746" lon="4.84297">
        <ele>278</ele>
        <time>2018-08-28T09:43:56Z</time>
      </trkpt>
      <trkpt lat="45.97461" lon="4.84289">
        <ele>278</ele>
        <time>2018-08-28T09:43:57Z</time>
      </trkpt>
      <trkpt lat="45.97462" lon="4.84279">
        <ele>278</ele>
        <time>2018-08-28T09:43:58Z</time>
      </trkpt>
      <trkpt lat="45.97464" lon="4.84271">
        <ele>278</ele>
        <time>2018-08-28T09:43:59Z</time>
      </trkpt>
      <trkpt lat="45.97464" lon="4.84263">
        <ele>278</ele>
        <time>2018-08-28T09:44:00Z</time>
      </trkpt>
      <trkpt lat="45.97465" lon="4.84255">
        <ele>278</ele>
        <time>2018-08-28T09:44:01Z</time>
      </trkpt>
      <trkpt lat="45.97468" lon="4.84243">
        <ele>279</ele>
        <time>2018-08-28T09:44:03Z</time>
      </trkpt>
      <trkpt lat="45.9747" lon="4.84232">
        <ele>279</ele>
        <time>2018-08-28T09:44:04Z</time>
      </trkpt>
      <trkpt lat="45.97471" lon="4.84226">
        <ele>279</ele>
        <time>2018-08-28T09:44:05Z</time>
      </trkpt>
      <trkpt lat="45.97472" lon="4.84217">
        <ele>279</ele>
        <time>2018-08-28T09:44:06Z</time>
      </trkpt>
      <trkpt lat="45.97473" lon="4.84209">
        <ele>279</ele>
        <time>2018-08-28T09:44:07Z</time>
      </trkpt>
      <trkpt lat="45.97475" lon="4.84201">
        <ele>279</ele>
        <time>2018-08-28T09:44:08Z</time>
      </trkpt>
      <trkpt lat="45.97476" lon="4.84194">
        <ele>279</ele>
        <time>2018-08-28T09:44:09Z</time>
      </trkpt>
      <trkpt lat="45.97477" lon="4.84183">
        <ele>279</ele>
        <time>2018-08-28T09:44:10Z</time>
      </trkpt>
      <trkpt lat="45.97479" lon="4.84175">
        <ele>279</ele>
        <time>2018-08-28T09:44:11Z</time>
      </trkpt>
      <trkpt lat="45.97483" lon="4.8417">
        <ele>279</ele>
        <time>2018-08-28T09:44:12Z</time>
      </trkpt>
      <trkpt lat="45.97484" lon="4.84161">
        <ele>279</ele>
        <time>2018-08-28T09:44:13Z</time>
      </trkpt>
      <trkpt lat="45.97485" lon="4.84152">
        <ele>279</ele>
        <time>2018-08-28T09:44:14Z</time>
      </trkpt>
      <trkpt lat="45.97486" lon="4.8414">
        <ele>279</ele>
        <time>2018-08-28T09:44:15Z</time>
      </trkpt>
      <trkpt lat="45.97487" lon="4.84132">
        <ele>279</ele>
        <time>2018-08-28T09:44:16Z</time>
      </trkpt>
      <trkpt lat="45.97489" lon="4.84123">
        <ele>279</ele>
        <time>2018-08-28T09:44:17Z</time>
      </trkpt>
      <trkpt lat="45.9749" lon="4.84116">
        <ele>279</ele>
        <time>2018-08-28T09:44:18Z</time>
      </trkpt>
      <trkpt lat="45.97491" lon="4.84108">
        <ele>279</ele>
        <time>2018-08-28T09:44:19Z</time>
      </trkpt>
      <trkpt lat="45.97496" lon="4.84104">
        <ele>279</ele>
        <time>2018-08-28T09:44:20Z</time>
      </trkpt>
      <trkpt lat="45.97497" lon="4.84097">
        <ele>278</ele>
        <time>2018-08-28T09:44:21Z</time>
      </trkpt>
      <trkpt lat="45.97499" lon="4.84086">
        <ele>278</ele>
        <time>2018-08-28T09:44:22Z</time>
      </trkpt>
      <trkpt lat="45.97501" lon="4.84077">
        <ele>278</ele>
        <time>2018-08-28T09:44:23Z</time>
      </trkpt>
      <trkpt lat="45.97501" lon="4.84065">
        <ele>278</ele>
        <time>2018-08-28T09:44:24Z</time>
      </trkpt>
      <trkpt lat="45.97502" lon="4.84054">
        <ele>277</ele>
        <time>2018-08-28T09:44:25Z</time>
      </trkpt>
      <trkpt lat="45.97504" lon="4.84044">
        <ele>277</ele>
        <time>2018-08-28T09:44:26Z</time>
      </trkpt>
      <trkpt lat="45.97506" lon="4.84033">
        <ele>277</ele>
        <time>2018-08-28T09:44:27Z</time>
      </trkpt>
      <trkpt lat="45.97508" lon="4.84021">
        <ele>277</ele>
        <time>2018-08-28T09:44:28Z</time>
      </trkpt>
      <trkpt lat="45.9751" lon="4.84012">
        <ele>277</ele>
        <time>2018-08-28T09:44:29Z</time>
      </trkpt>
      <trkpt lat="45.97512" lon="4.84003">
        <ele>277</ele>
        <time>2018-08-28T09:44:30Z</time>
      </trkpt>
      <trkpt lat="45.97513" lon="4.83992">
        <ele>277</ele>
        <time>2018-08-28T09:44:31Z</time>
      </trkpt>
      <trkpt lat="45.97515" lon="4.83981">
        <ele>277</ele>
        <time>2018-08-28T09:44:32Z</time>
      </trkpt>
      <trkpt lat="45.97516" lon="4.8397">
        <ele>277</ele>
        <time>2018-08-28T09:44:33Z</time>
      </trkpt>
      <trkpt lat="45.97518" lon="4.83962">
        <ele>277</ele>
        <time>2018-08-28T09:44:34Z</time>
      </trkpt>
      <trkpt lat="45.9752" lon="4.83955">
        <ele>277</ele>
        <time>2018-08-28T09:44:35Z</time>
      </trkpt>
      <trkpt lat="45.97521" lon="4.83944">
        <ele>277</ele>
        <time>2018-08-28T09:44:36Z</time>
      </trkpt>
      <trkpt lat="45.97523" lon="4.83934">
        <ele>277</ele>
        <time>2018-08-28T09:44:37Z</time>
      </trkpt>
      <trkpt lat="45.97524" lon="4.83923">
        <ele>277</ele>
        <time>2018-08-28T09:44:38Z</time>
      </trkpt>
      <trkpt lat="45.97525" lon="4.83914">
        <ele>277</ele>
        <time>2018-08-28T09:44:39Z</time>
      </trkpt>
      <trkpt lat="45.97527" lon="4.83905">
        <ele>277</ele>
        <time>2018-08-28T09:44:40Z</time>
      </trkpt>
      <trkpt lat="45.9753" lon="4.83898">
        <ele>278</ele>
        <time>2018-08-28T09:44:41Z</time>
      </trkpt>
      <trkpt lat="45.97531" lon="4.8389">
        <ele>278</ele>
        <time>2018-08-28T09:44:42Z</time>
      </trkpt>
      <trkpt lat="45.97536" lon="4.83889">
        <ele>278</ele>
        <time>2018-08-28T09:44:43Z</time>
      </trkpt>
      <trkpt lat="45.97538" lon="4.83879">
        <ele>278</ele>
        <time>2018-08-28T09:44:44Z</time>
      </trkpt>
      <trkpt lat="45.9754" lon="4.8387">
        <ele>278</ele>
        <time>2018-08-28T09:44:45Z</time>
      </trkpt>
      <trkpt lat="45.97543" lon="4.83865">
        <ele>278</ele>
        <time>2018-08-28T09:44:46Z</time>
      </trkpt>
      <trkpt lat="45.97542" lon="4.83851">
        <ele>278</ele>
        <time>2018-08-28T09:44:47Z</time>
      </trkpt>
      <trkpt lat="45.97545" lon="4.83849">
        <ele>278</ele>
        <time>2018-08-28T09:44:48Z</time>
      </trkpt>
      <trkpt lat="45.97547" lon="4.8384">
        <ele>278</ele>
        <time>2018-08-28T09:44:49Z</time>
      </trkpt>
      <trkpt lat="45.97548" lon="4.83833">
        <ele>278</ele>
        <time>2018-08-28T09:44:50Z</time>
      </trkpt>
      <trkpt lat="45.97548" lon="4.83824">
        <ele>278</ele>
        <time>2018-08-28T09:44:51Z</time>
      </trkpt>
      <trkpt lat="45.97548" lon="4.83815">
        <ele>278</ele>
        <time>2018-08-28T09:44:52Z</time>
      </trkpt>
      <trkpt lat="45.97547" lon="4.83803">
        <ele>278</ele>
        <time>2018-08-28T09:44:53Z</time>
      </trkpt>
      <trkpt lat="45.97547" lon="4.83794">
        <ele>278</ele>
        <time>2018-08-28T09:44:54Z</time>
      </trkpt>
      <trkpt lat="45.97545" lon="4.83784">
        <ele>278</ele>
        <time>2018-08-28T09:44:55Z</time>
      </trkpt>
      <trkpt lat="45.97544" lon="4.83773">
        <ele>278</ele>
        <time>2018-08-28T09:44:56Z</time>
      </trkpt>
      <trkpt lat="45.97543" lon="4.83763">
        <ele>278</ele>
        <time>2018-08-28T09:44:57Z</time>
      </trkpt>
      <trkpt lat="45.97544" lon="4.83757">
        <ele>278</ele>
        <time>2018-08-28T09:44:58Z</time>
      </trkpt>
      <trkpt lat="45.97543" lon="4.83749">
        <ele>278</ele>
        <time>2018-08-28T09:44:59Z</time>
      </trkpt>
      <trkpt lat="45.97541" lon="4.83739">
        <ele>278</ele>
        <time>2018-08-28T09:45:00Z</time>
      </trkpt>
      <trkpt lat="45.9754" lon="4.8373">
        <ele>278</ele>
        <time>2018-08-28T09:45:01Z</time>
      </trkpt>
      <trkpt lat="45.97539" lon="4.8372">
        <ele>278</ele>
        <time>2018-08-28T09:45:02Z</time>
      </trkpt>
      <trkpt lat="45.97539" lon="4.83711">
        <ele>278</ele>
        <time>2018-08-28T09:45:03Z</time>
      </trkpt>
      <trkpt lat="45.97539" lon="4.83702">
        <ele>278</ele>
        <time>2018-08-28T09:45:04Z</time>
      </trkpt>
      <trkpt lat="45.97539" lon="4.83692">
        <ele>278</ele>
        <time>2018-08-28T09:45:05Z</time>
      </trkpt>
      <trkpt lat="45.97538" lon="4.83683">
        <ele>278</ele>
        <time>2018-08-28T09:45:06Z</time>
      </trkpt>
      <trkpt lat="45.97537" lon="4.83673">
        <ele>278</ele>
        <time>2018-08-28T09:45:07Z</time>
      </trkpt>
      <trkpt lat="45.97538" lon="4.83663">
        <ele>277</ele>
        <time>2018-08-28T09:45:08Z</time>
      </trkpt>
      <trkpt lat="45.97538" lon="4.83652">
        <ele>277</ele>
        <time>2018-08-28T09:45:09Z</time>
      </trkpt>
      <trkpt lat="45.97537" lon="4.83644">
        <ele>277</ele>
        <time>2018-08-28T09:45:10Z</time>
      </trkpt>
      <trkpt lat="45.97537" lon="4.83635">
        <ele>277</ele>
        <time>2018-08-28T09:45:11Z</time>
      </trkpt>
      <trkpt lat="45.97537" lon="4.83625">
        <ele>277</ele>
        <time>2018-08-28T09:45:12Z</time>
      </trkpt>
      <trkpt lat="45.97537" lon="4.83615">
        <ele>277</ele>
        <time>2018-08-28T09:45:13Z</time>
      </trkpt>
      <trkpt lat="45.97536" lon="4.83604">
        <ele>277</ele>
        <time>2018-08-28T09:45:14Z</time>
      </trkpt>
      <trkpt lat="45.97535" lon="4.83593">
        <ele>277</ele>
        <time>2018-08-28T09:45:15Z</time>
      </trkpt>
      <trkpt lat="45.97536" lon="4.83584">
        <ele>277</ele>
        <time>2018-08-28T09:45:16Z</time>
      </trkpt>
      <trkpt lat="45.97536" lon="4.83576">
        <ele>276</ele>
        <time>2018-08-28T09:45:17Z</time>
      </trkpt>
      <trkpt lat="45.97538" lon="4.83568">
        <ele>276</ele>
        <time>2018-08-28T09:45:18Z</time>
      </trkpt>
      <trkpt lat="45.97538" lon="4.83559">
        <ele>276</ele>
        <time>2018-08-28T09:45:19Z</time>
      </trkpt>
      <trkpt lat="45.97539" lon="4.8355">
        <ele>276</ele>
        <time>2018-08-28T09:45:20Z</time>
      </trkpt>
      <trkpt lat="45.97538" lon="4.8354">
        <ele>276</ele>
        <time>2018-08-28T09:45:21Z</time>
      </trkpt>
      <trkpt lat="45.97539" lon="4.8353">
        <ele>276</ele>
        <time>2018-08-28T09:45:22Z</time>
      </trkpt>
      <trkpt lat="45.97537" lon="4.83519">
        <ele>276</ele>
        <time>2018-08-28T09:45:23Z</time>
      </trkpt>
      <trkpt lat="45.97538" lon="4.83511">
        <ele>276</ele>
        <time>2018-08-28T09:45:24Z</time>
      </trkpt>
      <trkpt lat="45.97538" lon="4.83504">
        <ele>276</ele>
        <time>2018-08-28T09:45:25Z</time>
      </trkpt>
      <trkpt lat="45.97539" lon="4.83495">
        <ele>276</ele>
        <time>2018-08-28T09:45:26Z</time>
      </trkpt>
      <trkpt lat="45.97539" lon="4.83487">
        <ele>276</ele>
        <time>2018-08-28T09:45:27Z</time>
      </trkpt>
      <trkpt lat="45.97539" lon="4.83477">
        <ele>276</ele>
        <time>2018-08-28T09:45:28Z</time>
      </trkpt>
      <trkpt lat="45.97539" lon="4.83468">
        <ele>276</ele>
        <time>2018-08-28T09:45:29Z</time>
      </trkpt>
      <trkpt lat="45.97539" lon="4.83458">
        <ele>276</ele>
        <time>2018-08-28T09:45:30Z</time>
      </trkpt>
      <trkpt lat="45.9754" lon="4.83449">
        <ele>276</ele>
        <time>2018-08-28T09:45:31Z</time>
      </trkpt>
      <trkpt lat="45.9754" lon="4.83442">
        <ele>276</ele>
        <time>2018-08-28T09:45:32Z</time>
      </trkpt>
      <trkpt lat="45.9754" lon="4.83432">
        <ele>276</ele>
        <time>2018-08-28T09:45:33Z</time>
      </trkpt>
      <trkpt lat="45.9754" lon="4.83424">
        <ele>276</ele>
        <time>2018-08-28T09:45:34Z</time>
      </trkpt>
      <trkpt lat="45.9754" lon="4.83415">
        <ele>277</ele>
        <time>2018-08-28T09:45:35Z</time>
      </trkpt>
      <trkpt lat="45.9754" lon="4.83408">
        <ele>277</ele>
        <time>2018-08-28T09:45:36Z</time>
      </trkpt>
      <trkpt lat="45.9754" lon="4.83401">
        <ele>277</ele>
        <time>2018-08-28T09:45:37Z</time>
      </trkpt>
      <trkpt lat="45.97543" lon="4.8339">
        <ele>276</ele>
        <time>2018-08-28T09:45:39Z</time>
      </trkpt>
      <trkpt lat="45.97543" lon="4.83382">
        <ele>276</ele>
        <time>2018-08-28T09:45:40Z</time>
      </trkpt>
      <trkpt lat="45.97542" lon="4.83374">
        <ele>276</ele>
        <time>2018-08-28T09:45:41Z</time>
      </trkpt>
      <trkpt lat="45.9754" lon="4.83365">
        <ele>277</ele>
        <time>2018-08-28T09:45:42Z</time>
      </trkpt>
      <trkpt lat="45.9754" lon="4.83357">
        <ele>277</ele>
        <time>2018-08-28T09:45:43Z</time>
      </trkpt>
      <trkpt lat="45.97541" lon="4.8335">
        <ele>277</ele>
        <time>2018-08-28T09:45:44Z</time>
      </trkpt>
      <trkpt lat="45.9754" lon="4.83337">
        <ele>277</ele>
        <time>2018-08-28T09:45:48Z</time>
      </trkpt>
      <trkpt lat="45.9754" lon="4.83334">
        <ele>277</ele>
        <time>2018-08-28T09:45:49Z</time>
      </trkpt>
      <trkpt lat="45.97537" lon="4.83323">
        <ele>276</ele>
        <time>2018-08-28T09:46:39Z</time>
      </trkpt>
      <trkpt lat="45.97537" lon="4.83321">
        <ele>276</ele>
        <time>2018-08-28T09:46:40Z</time>
      </trkpt>
      <trkpt lat="45.97537" lon="4.83311">
        <ele>276</ele>
        <time>2018-08-28T09:46:43Z</time>
      </trkpt>
      <trkpt lat="45.97537" lon="4.83298">
        <ele>276</ele>
        <time>2018-08-28T09:46:44Z</time>
      </trkpt>
      <trkpt lat="45.97536" lon="4.83286">
        <ele>276</ele>
        <time>2018-08-28T09:46:46Z</time>
      </trkpt>
      <trkpt lat="45.97536" lon="4.83278">
        <ele>276</ele>
        <time>2018-08-28T09:46:47Z</time>
      </trkpt>
      <trkpt lat="45.97535" lon="4.8327">
        <ele>276</ele>
        <time>2018-08-28T09:46:48Z</time>
      </trkpt>
      <trkpt lat="45.97535" lon="4.83263">
        <ele>276</ele>
        <time>2018-08-28T09:46:49Z</time>
      </trkpt>
      <trkpt lat="45.97534" lon="4.83254">
        <ele>276</ele>
        <time>2018-08-28T09:46:50Z</time>
      </trkpt>
      <trkpt lat="45.97532" lon="4.83245">
        <ele>275</ele>
        <time>2018-08-28T09:46:51Z</time>
      </trkpt>
      <trkpt lat="45.9753" lon="4.83238">
        <ele>275</ele>
        <time>2018-08-28T09:46:52Z</time>
      </trkpt>
      <trkpt lat="45.97528" lon="4.8323">
        <ele>275</ele>
        <time>2018-08-28T09:46:53Z</time>
      </trkpt>
      <trkpt lat="45.97525" lon="4.83221">
        <ele>275</ele>
        <time>2018-08-28T09:46:54Z</time>
      </trkpt>
      <trkpt lat="45.97522" lon="4.83214">
        <ele>275</ele>
        <time>2018-08-28T09:46:55Z</time>
      </trkpt>
      <trkpt lat="45.97519" lon="4.83206">
        <ele>275</ele>
        <time>2018-08-28T09:46:56Z</time>
      </trkpt>
      <trkpt lat="45.97516" lon="4.83197">
        <ele>275</ele>
        <time>2018-08-28T09:46:57Z</time>
      </trkpt>
      <trkpt lat="45.97512" lon="4.83188">
        <ele>275</ele>
        <time>2018-08-28T09:46:58Z</time>
      </trkpt>
      <trkpt lat="45.97509" lon="4.8318">
        <ele>274</ele>
        <time>2018-08-28T09:46:59Z</time>
      </trkpt>
      <trkpt lat="45.97505" lon="4.83171">
        <ele>274</ele>
        <time>2018-08-28T09:47:00Z</time>
      </trkpt>
      <trkpt lat="45.97502" lon="4.83162">
        <ele>274</ele>
        <time>2018-08-28T09:47:01Z</time>
      </trkpt>
      <trkpt lat="45.97499" lon="4.83154">
        <ele>273</ele>
        <time>2018-08-28T09:47:02Z</time>
      </trkpt>
      <trkpt lat="45.97496" lon="4.83144">
        <ele>273</ele>
        <time>2018-08-28T09:47:03Z</time>
      </trkpt>
      <trkpt lat="45.97494" lon="4.83134">
        <ele>273</ele>
        <time>2018-08-28T09:47:04Z</time>
      </trkpt>
      <trkpt lat="45.97491" lon="4.83125">
        <ele>273</ele>
        <time>2018-08-28T09:47:05Z</time>
      </trkpt>
      <trkpt lat="45.97488" lon="4.83113">
        <ele>272</ele>
        <time>2018-08-28T09:47:06Z</time>
      </trkpt>
      <trkpt lat="45.97487" lon="4.83105">
        <ele>272</ele>
        <time>2018-08-28T09:47:07Z</time>
      </trkpt>
      <trkpt lat="45.97484" lon="4.83094">
        <ele>272</ele>
        <time>2018-08-28T09:47:08Z</time>
      </trkpt>
      <trkpt lat="45.97482" lon="4.83084">
        <ele>272</ele>
        <time>2018-08-28T09:47:09Z</time>
      </trkpt>
      <trkpt lat="45.9748" lon="4.83074">
        <ele>271</ele>
        <time>2018-08-28T09:47:10Z</time>
      </trkpt>
      <trkpt lat="45.97477" lon="4.83065">
        <ele>271</ele>
        <time>2018-08-28T09:47:11Z</time>
      </trkpt>
      <trkpt lat="45.97474" lon="4.83055">
        <ele>271</ele>
        <time>2018-08-28T09:47:12Z</time>
      </trkpt>
      <trkpt lat="45.97472" lon="4.83046">
        <ele>271</ele>
        <time>2018-08-28T09:47:13Z</time>
      </trkpt>
      <trkpt lat="45.9747" lon="4.83036">
        <ele>271</ele>
        <time>2018-08-28T09:47:14Z</time>
      </trkpt>
      <trkpt lat="45.97467" lon="4.83027">
        <ele>271</ele>
        <time>2018-08-28T09:47:15Z</time>
      </trkpt>
      <trkpt lat="45.97465" lon="4.83019">
        <ele>270</ele>
        <time>2018-08-28T09:47:16Z</time>
      </trkpt>
      <trkpt lat="45.97463" lon="4.8301">
        <ele>270</ele>
        <time>2018-08-28T09:47:17Z</time>
      </trkpt>
      <trkpt lat="45.97459" lon="4.83001">
        <ele>270</ele>
        <time>2018-08-28T09:47:18Z</time>
      </trkpt>
      <trkpt lat="45.97457" lon="4.82991">
        <ele>269</ele>
        <time>2018-08-28T09:47:19Z</time>
      </trkpt>
      <trkpt lat="45.97454" lon="4.82982">
        <ele>269</ele>
        <time>2018-08-28T09:47:20Z</time>
      </trkpt>
      <trkpt lat="45.97451" lon="4.82973">
        <ele>269</ele>
        <time>2018-08-28T09:47:21Z</time>
      </trkpt>
      <trkpt lat="45.9745" lon="4.82962">
        <ele>269</ele>
        <time>2018-08-28T09:47:22Z</time>
      </trkpt>
      <trkpt lat="45.97448" lon="4.82952">
        <ele>269</ele>
        <time>2018-08-28T09:47:23Z</time>
      </trkpt>
      <trkpt lat="45.97447" lon="4.82942">
        <ele>269</ele>
        <time>2018-08-28T09:47:24Z</time>
      </trkpt>
      <trkpt lat="45.97445" lon="4.82932">
        <ele>268</ele>
        <time>2018-08-28T09:47:25Z</time>
      </trkpt>
      <trkpt lat="45.97442" lon="4.8292">
        <ele>268</ele>
        <time>2018-08-28T09:47:26Z</time>
      </trkpt>
      <trkpt lat="45.97439" lon="4.82912">
        <ele>267</ele>
        <time>2018-08-28T09:47:27Z</time>
      </trkpt>
      <trkpt lat="45.97438" lon="4.82902">
        <ele>267</ele>
        <time>2018-08-28T09:47:28Z</time>
      </trkpt>
      <trkpt lat="45.97436" lon="4.8289">
        <ele>267</ele>
        <time>2018-08-28T09:47:29Z</time>
      </trkpt>
      <trkpt lat="45.97435" lon="4.82879">
        <ele>267</ele>
        <time>2018-08-28T09:47:30Z</time>
      </trkpt>
      <trkpt lat="45.97435" lon="4.82868">
        <ele>267</ele>
        <time>2018-08-28T09:47:31Z</time>
      </trkpt>
      <trkpt lat="45.97434" lon="4.82862">
        <ele>267</ele>
        <time>2018-08-28T09:47:32Z</time>
      </trkpt>
      <trkpt lat="45.97433" lon="4.82851">
        <ele>267</ele>
        <time>2018-08-28T09:47:33Z</time>
      </trkpt>
      <trkpt lat="45.97431" lon="4.8284">
        <ele>267</ele>
        <time>2018-08-28T09:47:34Z</time>
      </trkpt>
      <trkpt lat="45.9743" lon="4.8283">
        <ele>266</ele>
        <time>2018-08-28T09:47:35Z</time>
      </trkpt>
      <trkpt lat="45.97429" lon="4.8282">
        <ele>266</ele>
        <time>2018-08-28T09:47:36Z</time>
      </trkpt>
      <trkpt lat="45.97427" lon="4.8281">
        <ele>265</ele>
        <time>2018-08-28T09:47:37Z</time>
      </trkpt>
      <trkpt lat="45.97426" lon="4.82799">
        <ele>265</ele>
        <time>2018-08-28T09:47:38Z</time>
      </trkpt>
      <trkpt lat="45.97425" lon="4.8279">
        <ele>265</ele>
        <time>2018-08-28T09:47:39Z</time>
      </trkpt>
      <trkpt lat="45.97423" lon="4.82778">
        <ele>265</ele>
        <time>2018-08-28T09:47:40Z</time>
      </trkpt>
      <trkpt lat="45.97422" lon="4.82768">
        <ele>264</ele>
        <time>2018-08-28T09:47:41Z</time>
      </trkpt>
      <trkpt lat="45.97419" lon="4.82758">
        <ele>264</ele>
        <time>2018-08-28T09:47:42Z</time>
      </trkpt>
      <trkpt lat="45.97417" lon="4.82745">
        <ele>263</ele>
        <time>2018-08-28T09:47:43Z</time>
      </trkpt>
      <trkpt lat="45.97415" lon="4.82733">
        <ele>263</ele>
        <time>2018-08-28T09:47:44Z</time>
      </trkpt>
      <trkpt lat="45.97413" lon="4.82723">
        <ele>263</ele>
        <time>2018-08-28T09:47:45Z</time>
      </trkpt>
      <trkpt lat="45.97412" lon="4.82712">
        <ele>263</ele>
        <time>2018-08-28T09:47:46Z</time>
      </trkpt>
      <trkpt lat="45.9741" lon="4.82701">
        <ele>263</ele>
        <time>2018-08-28T09:47:47Z</time>
      </trkpt>
      <trkpt lat="45.97408" lon="4.82691">
        <ele>263</ele>
        <time>2018-08-28T09:47:48Z</time>
      </trkpt>
      <trkpt lat="45.97407" lon="4.82684">
        <ele>263</ele>
        <time>2018-08-28T09:47:49Z</time>
      </trkpt>
      <trkpt lat="45.97405" lon="4.82673">
        <ele>263</ele>
        <time>2018-08-28T09:47:50Z</time>
      </trkpt>
      <trkpt lat="45.97403" lon="4.82664">
        <ele>262</ele>
        <time>2018-08-28T09:47:51Z</time>
      </trkpt>
      <trkpt lat="45.97402" lon="4.82655">
        <ele>262</ele>
        <time>2018-08-28T09:47:52Z</time>
      </trkpt>
      <trkpt lat="45.974" lon="4.82645">
        <ele>262</ele>
        <time>2018-08-28T09:47:53Z</time>
      </trkpt>
      <trkpt lat="45.97398" lon="4.82636">
        <ele>262</ele>
        <time>2018-08-28T09:47:54Z</time>
      </trkpt>
      <trkpt lat="45.97397" lon="4.82628">
        <ele>262</ele>
        <time>2018-08-28T09:47:55Z</time>
      </trkpt>
      <trkpt lat="45.97396" lon="4.82619">
        <ele>262</ele>
        <time>2018-08-28T09:47:56Z</time>
      </trkpt>
      <trkpt lat="45.97395" lon="4.82609">
        <ele>262</ele>
        <time>2018-08-28T09:47:57Z</time>
      </trkpt>
      <trkpt lat="45.97393" lon="4.82602">
        <ele>262</ele>
        <time>2018-08-28T09:47:58Z</time>
      </trkpt>
      <trkpt lat="45.97392" lon="4.82593">
        <ele>262</ele>
        <time>2018-08-28T09:47:59Z</time>
      </trkpt>
      <trkpt lat="45.97389" lon="4.82584">
        <ele>262</ele>
        <time>2018-08-28T09:48:00Z</time>
      </trkpt>
      <trkpt lat="45.97388" lon="4.82573">
        <ele>262</ele>
        <time>2018-08-28T09:48:01Z</time>
      </trkpt>
      <trkpt lat="45.97386" lon="4.82563">
        <ele>262</ele>
        <time>2018-08-28T09:48:02Z</time>
      </trkpt>
      <trkpt lat="45.97385" lon="4.82552">
        <ele>262</ele>
        <time>2018-08-28T09:48:03Z</time>
      </trkpt>
      <trkpt lat="45.97383" lon="4.82542">
        <ele>262</ele>
        <time>2018-08-28T09:48:04Z</time>
      </trkpt>
      <trkpt lat="45.97382" lon="4.8253">
        <ele>262</ele>
        <time>2018-08-28T09:48:05Z</time>
      </trkpt>
      <trkpt lat="45.97381" lon="4.82521">
        <ele>262</ele>
        <time>2018-08-28T09:48:06Z</time>
      </trkpt>
      <trkpt lat="45.97381" lon="4.8251">
        <ele>262</ele>
        <time>2018-08-28T09:48:07Z</time>
      </trkpt>
      <trkpt lat="45.9738" lon="4.82501">
        <ele>262</ele>
        <time>2018-08-28T09:48:08Z</time>
      </trkpt>
      <trkpt lat="45.97379" lon="4.82491">
        <ele>262</ele>
        <time>2018-08-28T09:48:09Z</time>
      </trkpt>
      <trkpt lat="45.97379" lon="4.82482">
        <ele>262</ele>
        <time>2018-08-28T09:48:10Z</time>
      </trkpt>
      <trkpt lat="45.97377" lon="4.82471">
        <ele>262</ele>
        <time>2018-08-28T09:48:11Z</time>
      </trkpt>
      <trkpt lat="45.97376" lon="4.82463">
        <ele>262</ele>
        <time>2018-08-28T09:48:12Z</time>
      </trkpt>
      <trkpt lat="45.97376" lon="4.82454">
        <ele>262</ele>
        <time>2018-08-28T09:48:13Z</time>
      </trkpt>
      <trkpt lat="45.97377" lon="4.82446">
        <ele>262</ele>
        <time>2018-08-28T09:48:14Z</time>
      </trkpt>
      <trkpt lat="45.97377" lon="4.82438">
        <ele>262</ele>
        <time>2018-08-28T09:48:15Z</time>
      </trkpt>
      <trkpt lat="45.97376" lon="4.82429">
        <ele>262</ele>
        <time>2018-08-28T09:48:16Z</time>
      </trkpt>
      <trkpt lat="45.97376" lon="4.8242">
        <ele>262</ele>
        <time>2018-08-28T09:48:17Z</time>
      </trkpt>
      <trkpt lat="45.97376" lon="4.8241">
        <ele>263</ele>
        <time>2018-08-28T09:48:18Z</time>
      </trkpt>
      <trkpt lat="45.97378" lon="4.82403">
        <ele>263</ele>
        <time>2018-08-28T09:48:19Z</time>
      </trkpt>
      <trkpt lat="45.97378" lon="4.82395">
        <ele>263</ele>
        <time>2018-08-28T09:48:20Z</time>
      </trkpt>
      <trkpt lat="45.9738" lon="4.82389">
        <ele>263</ele>
        <time>2018-08-28T09:48:21Z</time>
      </trkpt>
      <trkpt lat="45.97379" lon="4.82376">
        <ele>263</ele>
        <time>2018-08-28T09:48:22Z</time>
      </trkpt>
      <trkpt lat="45.97378" lon="4.82368">
        <ele>263</ele>
        <time>2018-08-28T09:48:23Z</time>
      </trkpt>
      <trkpt lat="45.97378" lon="4.82359">
        <ele>263</ele>
        <time>2018-08-28T09:48:24Z</time>
      </trkpt>
      <trkpt lat="45.97379" lon="4.82351">
        <ele>263</ele>
        <time>2018-08-28T09:48:25Z</time>
      </trkpt>
      <trkpt lat="45.9738" lon="4.82344">
        <ele>263</ele>
        <time>2018-08-28T09:48:26Z</time>
      </trkpt>
      <trkpt lat="45.9738" lon="4.82335">
        <ele>263</ele>
        <time>2018-08-28T09:48:27Z</time>
      </trkpt>
      <trkpt lat="45.97381" lon="4.82329">
        <ele>263</ele>
        <time>2018-08-28T09:48:28Z</time>
      </trkpt>
      <trkpt lat="45.97379" lon="4.82318">
        <ele>263</ele>
        <time>2018-08-28T09:48:29Z</time>
      </trkpt>
      <trkpt lat="45.9738" lon="4.82306">
        <ele>263</ele>
        <time>2018-08-28T09:48:31Z</time>
      </trkpt>
      <trkpt lat="45.9738" lon="4.82299">
        <ele>263</ele>
        <time>2018-08-28T09:48:32Z</time>
      </trkpt>
      <trkpt lat="45.97381" lon="4.82292">
        <ele>263</ele>
        <time>2018-08-28T09:48:33Z</time>
      </trkpt>
      <trkpt lat="45.97382" lon="4.82284">
        <ele>263</ele>
        <time>2018-08-28T09:48:34Z</time>
      </trkpt>
      <trkpt lat="45.97382" lon="4.82274">
        <ele>263</ele>
        <time>2018-08-28T09:48:35Z</time>
      </trkpt>
      <trkpt lat="45.97382" lon="4.82267">
        <ele>263</ele>
        <time>2018-08-28T09:48:36Z</time>
      </trkpt>
      <trkpt lat="45.97382" lon="4.82258">
        <ele>263</ele>
        <time>2018-08-28T09:48:37Z</time>
      </trkpt>
      <trkpt lat="45.97383" lon="4.8225">
        <ele>263</ele>
        <time>2018-08-28T09:48:38Z</time>
      </trkpt>
      <trkpt lat="45.97383" lon="4.82242">
        <ele>263</ele>
        <time>2018-08-28T09:48:39Z</time>
      </trkpt>
      <trkpt lat="45.97384" lon="4.82235">
        <ele>263</ele>
        <time>2018-08-28T09:48:40Z</time>
      </trkpt>
      <trkpt lat="45.97386" lon="4.82226">
        <ele>263</ele>
        <time>2018-08-28T09:48:41Z</time>
      </trkpt>
      <trkpt lat="45.97389" lon="4.82219">
        <ele>263</ele>
        <time>2018-08-28T09:48:42Z</time>
      </trkpt>
      <trkpt lat="45.9739" lon="4.8221">
        <ele>263</ele>
        <time>2018-08-28T09:48:43Z</time>
      </trkpt>
      <trkpt lat="45.97393" lon="4.82201">
        <ele>262</ele>
        <time>2018-08-28T09:48:44Z</time>
      </trkpt>
      <trkpt lat="45.97398" lon="4.82193">
        <ele>262</ele>
        <time>2018-08-28T09:48:45Z</time>
      </trkpt>
      <trkpt lat="45.97403" lon="4.82186">
        <ele>262</ele>
        <time>2018-08-28T09:48:46Z</time>
      </trkpt>
      <trkpt lat="45.97408" lon="4.82178">
        <ele>262</ele>
        <time>2018-08-28T09:48:47Z</time>
      </trkpt>
      <trkpt lat="45.97412" lon="4.82172">
        <ele>261</ele>
        <time>2018-08-28T09:48:48Z</time>
      </trkpt>
      <trkpt lat="45.97418" lon="4.82166">
        <ele>261</ele>
        <time>2018-08-28T09:48:49Z</time>
      </trkpt>
      <trkpt lat="45.97422" lon="4.82158">
        <ele>261</ele>
        <time>2018-08-28T09:48:50Z</time>
      </trkpt>
      <trkpt lat="45.97429" lon="4.82152">
        <ele>261</ele>
        <time>2018-08-28T09:48:51Z</time>
      </trkpt>
      <trkpt lat="45.97435" lon="4.82145">
        <ele>261</ele>
        <time>2018-08-28T09:48:52Z</time>
      </trkpt>
      <trkpt lat="45.9744" lon="4.8214">
        <ele>261</ele>
        <time>2018-08-28T09:48:53Z</time>
      </trkpt>
      <trkpt lat="45.97445" lon="4.82134">
        <ele>261</ele>
        <time>2018-08-28T09:48:54Z</time>
      </trkpt>
      <trkpt lat="45.9745" lon="4.82126">
        <ele>260</ele>
        <time>2018-08-28T09:48:55Z</time>
      </trkpt>
      <trkpt lat="45.97454" lon="4.82118">
        <ele>260</ele>
        <time>2018-08-28T09:48:56Z</time>
      </trkpt>
      <trkpt lat="45.97456" lon="4.82108">
        <ele>260</ele>
        <time>2018-08-28T09:48:57Z</time>
      </trkpt>
      <trkpt lat="45.97459" lon="4.82097">
        <ele>260</ele>
        <time>2018-08-28T09:48:58Z</time>
      </trkpt>
      <trkpt lat="45.97461" lon="4.82087">
        <ele>260</ele>
        <time>2018-08-28T09:48:59Z</time>
      </trkpt>
      <trkpt lat="45.97463" lon="4.82077">
        <ele>258</ele>
        <time>2018-08-28T09:49:00Z</time>
      </trkpt>
      <trkpt lat="45.97464" lon="4.82066">
        <ele>258</ele>
        <time>2018-08-28T09:49:01Z</time>
      </trkpt>
      <trkpt lat="45.97464" lon="4.82056">
        <ele>258</ele>
        <time>2018-08-28T09:49:02Z</time>
      </trkpt>
      <trkpt lat="45.97464" lon="4.82045">
        <ele>258</ele>
        <time>2018-08-28T09:49:03Z</time>
      </trkpt>
      <trkpt lat="45.97463" lon="4.82034">
        <ele>258</ele>
        <time>2018-08-28T09:49:04Z</time>
      </trkpt>
      <trkpt lat="45.97462" lon="4.82024">
        <ele>257</ele>
        <time>2018-08-28T09:49:05Z</time>
      </trkpt>
      <trkpt lat="45.97461" lon="4.82013">
        <ele>257</ele>
        <time>2018-08-28T09:49:06Z</time>
      </trkpt>
      <trkpt lat="45.9746" lon="4.82003">
        <ele>257</ele>
        <time>2018-08-28T09:49:07Z</time>
      </trkpt>
      <trkpt lat="45.97459" lon="4.81991">
        <ele>255</ele>
        <time>2018-08-28T09:49:08Z</time>
      </trkpt>
      <trkpt lat="45.97458" lon="4.81978">
        <ele>255</ele>
        <time>2018-08-28T09:49:09Z</time>
      </trkpt>
      <trkpt lat="45.97456" lon="4.81965">
        <ele>255</ele>
        <time>2018-08-28T09:49:10Z</time>
      </trkpt>
      <trkpt lat="45.97455" lon="4.81953">
        <ele>255</ele>
        <time>2018-08-28T09:49:11Z</time>
      </trkpt>
      <trkpt lat="45.97453" lon="4.8194">
        <ele>255</ele>
        <time>2018-08-28T09:49:12Z</time>
      </trkpt>
      <trkpt lat="45.97452" lon="4.81926">
        <ele>255</ele>
        <time>2018-08-28T09:49:13Z</time>
      </trkpt>
      <trkpt lat="45.9745" lon="4.81911">
        <ele>254</ele>
        <time>2018-08-28T09:49:14Z</time>
      </trkpt>
      <trkpt lat="45.97448" lon="4.81897">
        <ele>253</ele>
        <time>2018-08-28T09:49:15Z</time>
      </trkpt>
      <trkpt lat="45.97447" lon="4.81882">
        <ele>253</ele>
        <time>2018-08-28T09:49:16Z</time>
      </trkpt>
      <trkpt lat="45.97445" lon="4.81869">
        <ele>253</ele>
        <time>2018-08-28T09:49:17Z</time>
      </trkpt>
      <trkpt lat="45.97443" lon="4.81855">
        <ele>253</ele>
        <time>2018-08-28T09:49:18Z</time>
      </trkpt>
      <trkpt lat="45.97442" lon="4.81841">
        <ele>253</ele>
        <time>2018-08-28T09:49:19Z</time>
      </trkpt>
      <trkpt lat="45.97441" lon="4.81826">
        <ele>252</ele>
        <time>2018-08-28T09:49:20Z</time>
      </trkpt>
      <trkpt lat="45.9744" lon="4.81811">
        <ele>252</ele>
        <time>2018-08-28T09:49:21Z</time>
      </trkpt>
      <trkpt lat="45.97437" lon="4.81795">
        <ele>252</ele>
        <time>2018-08-28T09:49:22Z</time>
      </trkpt>
      <trkpt lat="45.97436" lon="4.81781">
        <ele>251</ele>
        <time>2018-08-28T09:49:23Z</time>
      </trkpt>
      <trkpt lat="45.97434" lon="4.81767">
        <ele>251</ele>
        <time>2018-08-28T09:49:24Z</time>
      </trkpt>
      <trkpt lat="45.97434" lon="4.81753">
        <ele>251</ele>
        <time>2018-08-28T09:49:25Z</time>
      </trkpt>
      <trkpt lat="45.97434" lon="4.81739">
        <ele>250</ele>
        <time>2018-08-28T09:49:26Z</time>
      </trkpt>
      <trkpt lat="45.97435" lon="4.81723">
        <ele>250</ele>
        <time>2018-08-28T09:49:27Z</time>
      </trkpt>
      <trkpt lat="45.97435" lon="4.81708">
        <ele>250</ele>
        <time>2018-08-28T09:49:28Z</time>
      </trkpt>
      <trkpt lat="45.97435" lon="4.81692">
        <ele>250</ele>
        <time>2018-08-28T09:49:29Z</time>
      </trkpt>
      <trkpt lat="45.97435" lon="4.81675">
        <ele>249</ele>
        <time>2018-08-28T09:49:30Z</time>
      </trkpt>
      <trkpt lat="45.97435" lon="4.81661">
        <ele>248</ele>
        <time>2018-08-28T09:49:31Z</time>
      </trkpt>
      <trkpt lat="45.97434" lon="4.81645">
        <ele>248</ele>
        <time>2018-08-28T09:49:32Z</time>
      </trkpt>
      <trkpt lat="45.97436" lon="4.81632">
        <ele>248</ele>
        <time>2018-08-28T09:49:33Z</time>
      </trkpt>
      <trkpt lat="45.97436" lon="4.81619">
        <ele>248</ele>
        <time>2018-08-28T09:49:34Z</time>
      </trkpt>
      <trkpt lat="45.97437" lon="4.81606">
        <ele>248</ele>
        <time>2018-08-28T09:49:35Z</time>
      </trkpt>
      <trkpt lat="45.97437" lon="4.81592">
        <ele>247</ele>
        <time>2018-08-28T09:49:36Z</time>
      </trkpt>
      <trkpt lat="45.97437" lon="4.81578">
        <ele>246</ele>
        <time>2018-08-28T09:49:37Z</time>
      </trkpt>
      <trkpt lat="45.97435" lon="4.81564">
        <ele>246</ele>
        <time>2018-08-28T09:49:38Z</time>
      </trkpt>
      <trkpt lat="45.97436" lon="4.8155">
        <ele>246</ele>
        <time>2018-08-28T09:49:39Z</time>
      </trkpt>
      <trkpt lat="45.97435" lon="4.81535">
        <ele>245</ele>
        <time>2018-08-28T09:49:40Z</time>
      </trkpt>
      <trkpt lat="45.97435" lon="4.81522">
        <ele>245</ele>
        <time>2018-08-28T09:49:41Z</time>
      </trkpt>
      <trkpt lat="45.97434" lon="4.81509">
        <ele>244</ele>
        <time>2018-08-28T09:49:42Z</time>
      </trkpt>
      <trkpt lat="45.97433" lon="4.81496">
        <ele>243</ele>
        <time>2018-08-28T09:49:43Z</time>
      </trkpt>
      <trkpt lat="45.97433" lon="4.81486">
        <ele>243</ele>
        <time>2018-08-28T09:49:44Z</time>
      </trkpt>
      <trkpt lat="45.97431" lon="4.81475">
        <ele>243</ele>
        <time>2018-08-28T09:49:45Z</time>
      </trkpt>
      <trkpt lat="45.97429" lon="4.81465">
        <ele>243</ele>
        <time>2018-08-28T09:49:46Z</time>
      </trkpt>
      <trkpt lat="45.97425" lon="4.81456">
        <ele>243</ele>
        <time>2018-08-28T09:49:47Z</time>
      </trkpt>
      <trkpt lat="45.97422" lon="4.81448">
        <ele>242</ele>
        <time>2018-08-28T09:49:48Z</time>
      </trkpt>
      <trkpt lat="45.97419" lon="4.81441">
        <ele>242</ele>
        <time>2018-08-28T09:49:49Z</time>
      </trkpt>
      <trkpt lat="45.97414" lon="4.81435">
        <ele>241</ele>
        <time>2018-08-28T09:49:50Z</time>
      </trkpt>
      <trkpt lat="45.97409" lon="4.81427">
        <ele>241</ele>
        <time>2018-08-28T09:49:51Z</time>
      </trkpt>
      <trkpt lat="45.97405" lon="4.81421">
        <ele>241</ele>
        <time>2018-08-28T09:49:52Z</time>
      </trkpt>
      <trkpt lat="45.974" lon="4.81412">
        <ele>240</ele>
        <time>2018-08-28T09:49:53Z</time>
      </trkpt>
      <trkpt lat="45.97394" lon="4.81405">
        <ele>240</ele>
        <time>2018-08-28T09:49:54Z</time>
      </trkpt>
      <trkpt lat="45.97391" lon="4.81397">
        <ele>240</ele>
        <time>2018-08-28T09:49:55Z</time>
      </trkpt>
      <trkpt lat="45.97387" lon="4.8139">
        <ele>240</ele>
        <time>2018-08-28T09:49:56Z</time>
      </trkpt>
      <trkpt lat="45.97384" lon="4.81381">
        <ele>239</ele>
        <time>2018-08-28T09:49:57Z</time>
      </trkpt>
      <trkpt lat="45.97382" lon="4.81372">
        <ele>239</ele>
        <time>2018-08-28T09:49:58Z</time>
      </trkpt>
      <trkpt lat="45.97382" lon="4.81364">
        <ele>239</ele>
        <time>2018-08-28T09:49:59Z</time>
      </trkpt>
      <trkpt lat="45.97381" lon="4.81355">
        <ele>239</ele>
        <time>2018-08-28T09:50:00Z</time>
      </trkpt>
      <trkpt lat="45.97381" lon="4.81346">
        <ele>239</ele>
        <time>2018-08-28T09:50:01Z</time>
      </trkpt>
      <trkpt lat="45.97382" lon="4.81337">
        <ele>239</ele>
        <time>2018-08-28T09:50:02Z</time>
      </trkpt>
      <trkpt lat="45.97382" lon="4.81326">
        <ele>238</ele>
        <time>2018-08-28T09:50:03Z</time>
      </trkpt>
      <trkpt lat="45.97381" lon="4.81316">
        <ele>238</ele>
        <time>2018-08-28T09:50:04Z</time>
      </trkpt>
      <trkpt lat="45.97382" lon="4.81306">
        <ele>238</ele>
        <time>2018-08-28T09:50:05Z</time>
      </trkpt>
      <trkpt lat="45.97383" lon="4.81297">
        <ele>238</ele>
        <time>2018-08-28T09:50:06Z</time>
      </trkpt>
      <trkpt lat="45.97384" lon="4.81285">
        <ele>238</ele>
        <time>2018-08-28T09:50:07Z</time>
      </trkpt>
      <trkpt lat="45.97385" lon="4.81275">
        <ele>238</ele>
        <time>2018-08-28T09:50:08Z</time>
      </trkpt>
      <trkpt lat="45.97386" lon="4.81265">
        <ele>238</ele>
        <time>2018-08-28T09:50:09Z</time>
      </trkpt>
      <trkpt lat="45.97387" lon="4.81256">
        <ele>238</ele>
        <time>2018-08-28T09:50:10Z</time>
      </trkpt>
      <trkpt lat="45.97385" lon="4.81244">
        <ele>237</ele>
        <time>2018-08-28T09:50:11Z</time>
      </trkpt>
      <trkpt lat="45.97386" lon="4.81232">
        <ele>237</ele>
        <time>2018-08-28T09:50:12Z</time>
      </trkpt>
      <trkpt lat="45.97387" lon="4.81223">
        <ele>237</ele>
        <time>2018-08-28T09:50:13Z</time>
      </trkpt>
      <trkpt lat="45.97389" lon="4.81215">
        <ele>237</ele>
        <time>2018-08-28T09:50:14Z</time>
      </trkpt>
      <trkpt lat="45.97384" lon="4.81207">
        <ele>237</ele>
        <time>2018-08-28T09:50:15Z</time>
      </trkpt>
      <trkpt lat="45.97387" lon="4.81197">
        <ele>237</ele>
        <time>2018-08-28T09:50:16Z</time>
      </trkpt>
      <trkpt lat="45.97389" lon="4.81185">
        <ele>237</ele>
        <time>2018-08-28T09:50:17Z</time>
      </trkpt>
      <trkpt lat="45.97389" lon="4.81176">
        <ele>237</ele>
        <time>2018-08-28T09:50:18Z</time>
      </trkpt>
      <trkpt lat="45.97388" lon="4.81167">
        <ele>237</ele>
        <time>2018-08-28T09:50:19Z</time>
      </trkpt>
      <trkpt lat="45.97388" lon="4.81158">
        <ele>236</ele>
        <time>2018-08-28T09:50:20Z</time>
      </trkpt>
      <trkpt lat="45.97388" lon="4.8115">
        <ele>236</ele>
        <time>2018-08-28T09:50:21Z</time>
      </trkpt>
      <trkpt lat="45.97388" lon="4.81141">
        <ele>236</ele>
        <time>2018-08-28T09:50:22Z</time>
      </trkpt>
      <trkpt lat="45.97387" lon="4.81133">
        <ele>236</ele>
        <time>2018-08-28T09:50:23Z</time>
      </trkpt>
      <trkpt lat="45.97388" lon="4.81126">
        <ele>236</ele>
        <time>2018-08-28T09:50:24Z</time>
      </trkpt>
      <trkpt lat="45.97386" lon="4.81116">
        <ele>235</ele>
        <time>2018-08-28T09:50:25Z</time>
      </trkpt>
      <trkpt lat="45.97384" lon="4.8111">
        <ele>235</ele>
        <time>2018-08-28T09:50:26Z</time>
      </trkpt>
      <trkpt lat="45.97383" lon="4.81102">
        <ele>235</ele>
        <time>2018-08-28T09:50:27Z</time>
      </trkpt>
      <trkpt lat="45.97382" lon="4.81096">
        <ele>235</ele>
        <time>2018-08-28T09:50:28Z</time>
      </trkpt>
      <trkpt lat="45.97381" lon="4.81085">
        <ele>235</ele>
        <time>2018-08-28T09:50:30Z</time>
      </trkpt>
      <trkpt lat="45.97379" lon="4.81079">
        <ele>234</ele>
        <time>2018-08-28T09:50:31Z</time>
      </trkpt>
      <trkpt lat="45.97375" lon="4.81069">
        <ele>233</ele>
        <time>2018-08-28T09:50:33Z</time>
      </trkpt>
      <trkpt lat="45.97371" lon="4.81061">
        <ele>233</ele>
        <time>2018-08-28T09:50:34Z</time>
      </trkpt>
      <trkpt lat="45.97368" lon="4.81054">
        <ele>233</ele>
        <time>2018-08-28T09:50:35Z</time>
      </trkpt>
      <trkpt lat="45.97369" lon="4.81047">
        <ele>233</ele>
        <time>2018-08-28T09:50:36Z</time>
      </trkpt>
      <trkpt lat="45.97366" lon="4.81035">
        <ele>233</ele>
        <time>2018-08-28T09:50:38Z</time>
      </trkpt>
      <trkpt lat="45.97364" lon="4.8103">
        <ele>233</ele>
        <time>2018-08-28T09:50:39Z</time>
      </trkpt>
      <trkpt lat="45.9736" lon="4.81019">
        <ele>233</ele>
        <time>2018-08-28T09:50:41Z</time>
      </trkpt>
      <trkpt lat="45.97359" lon="4.81012">
        <ele>233</ele>
        <time>2018-08-28T09:50:42Z</time>
      </trkpt>
      <trkpt lat="45.97357" lon="4.81005">
        <ele>233</ele>
        <time>2018-08-28T09:50:43Z</time>
      </trkpt>
      <trkpt lat="45.97358" lon="4.80999">
        <ele>232</ele>
        <time>2018-08-28T09:50:44Z</time>
      </trkpt>
      <trkpt lat="45.97356" lon="4.80993">
        <ele>232</ele>
        <time>2018-08-28T09:50:45Z</time>
      </trkpt>
      <trkpt lat="45.97356" lon="4.80986">
        <ele>232</ele>
        <time>2018-08-28T09:50:46Z</time>
      </trkpt>
      <trkpt lat="45.97355" lon="4.80974">
        <ele>232</ele>
        <time>2018-08-28T09:50:48Z</time>
      </trkpt>
      <trkpt lat="45.97353" lon="4.80967">
        <ele>231</ele>
        <time>2018-08-28T09:50:49Z</time>
      </trkpt>
      <trkpt lat="45.97352" lon="4.80959">
        <ele>231</ele>
        <time>2018-08-28T09:50:50Z</time>
      </trkpt>
      <trkpt lat="45.97351" lon="4.80953">
        <ele>231</ele>
        <time>2018-08-28T09:50:51Z</time>
      </trkpt>
      <trkpt lat="45.9735" lon="4.80946">
        <ele>231</ele>
        <time>2018-08-28T09:50:52Z</time>
      </trkpt>
      <trkpt lat="45.97349" lon="4.80939">
        <ele>231</ele>
        <time>2018-08-28T09:50:53Z</time>
      </trkpt>
      <trkpt lat="45.97348" lon="4.80932">
        <ele>231</ele>
        <time>2018-08-28T09:50:54Z</time>
      </trkpt>
      <trkpt lat="45.97346" lon="4.80924">
        <ele>231</ele>
        <time>2018-08-28T09:50:55Z</time>
      </trkpt>
      <trkpt lat="45.97344" lon="4.80915">
        <ele>230</ele>
        <time>2018-08-28T09:50:56Z</time>
      </trkpt>
      <trkpt lat="45.9734" lon="4.80902">
        <ele>230</ele>
        <time>2018-08-28T09:50:57Z</time>
      </trkpt>
      <trkpt lat="45.97336" lon="4.80891">
        <ele>229</ele>
        <time>2018-08-28T09:50:58Z</time>
      </trkpt>
      <trkpt lat="45.9733" lon="4.80883">
        <ele>228</ele>
        <time>2018-08-28T09:50:59Z</time>
      </trkpt>
      <trkpt lat="45.97325" lon="4.80874">
        <ele>228</ele>
        <time>2018-08-28T09:51:00Z</time>
      </trkpt>
      <trkpt lat="45.9732" lon="4.80867">
        <ele>228</ele>
        <time>2018-08-28T09:51:01Z</time>
      </trkpt>
      <trkpt lat="45.97312" lon="4.80862">
        <ele>228</ele>
        <time>2018-08-28T09:51:02Z</time>
      </trkpt>
      <trkpt lat="45.97306" lon="4.80856">
        <ele>228</ele>
        <time>2018-08-28T09:51:03Z</time>
      </trkpt>
      <trkpt lat="45.97299" lon="4.80853">
        <ele>228</ele>
        <time>2018-08-28T09:51:04Z</time>
      </trkpt>
      <trkpt lat="45.9729" lon="4.80851">
        <ele>228</ele>
        <time>2018-08-28T09:51:05Z</time>
      </trkpt>
      <trkpt lat="45.97283" lon="4.8085">
        <ele>228</ele>
        <time>2018-08-28T09:51:06Z</time>
      </trkpt>
      <trkpt lat="45.97275" lon="4.80847">
        <ele>227</ele>
        <time>2018-08-28T09:51:07Z</time>
      </trkpt>
      <trkpt lat="45.9727" lon="4.80843">
        <ele>227</ele>
        <time>2018-08-28T09:51:08Z</time>
      </trkpt>
      <trkpt lat="45.97265" lon="4.80837">
        <ele>227</ele>
        <time>2018-08-28T09:51:09Z</time>
      </trkpt>
      <trkpt lat="45.97259" lon="4.80831">
        <ele>227</ele>
        <time>2018-08-28T09:51:10Z</time>
      </trkpt>
      <trkpt lat="45.97257" lon="4.80824">
        <ele>227</ele>
        <time>2018-08-28T09:51:11Z</time>
      </trkpt>
      <trkpt lat="45.97253" lon="4.80816">
        <ele>227</ele>
        <time>2018-08-28T09:51:12Z</time>
      </trkpt>
      <trkpt lat="45.9725" lon="4.80811">
        <ele>227</ele>
        <time>2018-08-28T09:51:13Z</time>
      </trkpt>
      <trkpt lat="45.97248" lon="4.80803">
        <ele>228</ele>
        <time>2018-08-28T09:51:14Z</time>
      </trkpt>
      <trkpt lat="45.97248" lon="4.80796">
        <ele>229</ele>
        <time>2018-08-28T09:51:15Z</time>
      </trkpt>
      <trkpt lat="45.97247" lon="4.80788">
        <ele>229</ele>
        <time>2018-08-28T09:51:16Z</time>
      </trkpt>
      <trkpt lat="45.97248" lon="4.8078">
        <ele>229</ele>
        <time>2018-08-28T09:51:17Z</time>
      </trkpt>
      <trkpt lat="45.97248" lon="4.80772">
        <ele>229</ele>
        <time>2018-08-28T09:51:18Z</time>
      </trkpt>
      <trkpt lat="45.9725" lon="4.80765">
        <ele>228</ele>
        <time>2018-08-28T09:51:19Z</time>
      </trkpt>
      <trkpt lat="45.9725" lon="4.80757">
        <ele>228</ele>
        <time>2018-08-28T09:51:20Z</time>
      </trkpt>
      <trkpt lat="45.97249" lon="4.80749">
        <ele>228</ele>
        <time>2018-08-28T09:51:21Z</time>
      </trkpt>
      <trkpt lat="45.9725" lon="4.80741">
        <ele>228</ele>
        <time>2018-08-28T09:51:22Z</time>
      </trkpt>
      <trkpt lat="45.9725" lon="4.80732">
        <ele>229</ele>
        <time>2018-08-28T09:51:23Z</time>
      </trkpt>
      <trkpt lat="45.9725" lon="4.80726">
        <ele>227</ele>
        <time>2018-08-28T09:51:24Z</time>
      </trkpt>
      <trkpt lat="45.97251" lon="4.80717">
        <ele>227</ele>
        <time>2018-08-28T09:51:25Z</time>
      </trkpt>
      <trkpt lat="45.97251" lon="4.8071">
        <ele>227</ele>
        <time>2018-08-28T09:51:26Z</time>
      </trkpt>
      <trkpt lat="45.97252" lon="4.80703">
        <ele>227</ele>
        <time>2018-08-28T09:51:27Z</time>
      </trkpt>
      <trkpt lat="45.97251" lon="4.80694">
        <ele>227</ele>
        <time>2018-08-28T09:51:28Z</time>
      </trkpt>
      <trkpt lat="45.9725" lon="4.80686">
        <ele>227</ele>
        <time>2018-08-28T09:51:29Z</time>
      </trkpt>
      <trkpt lat="45.9725" lon="4.80674">
        <ele>227</ele>
        <time>2018-08-28T09:51:31Z</time>
      </trkpt>
      <trkpt lat="45.97248" lon="4.80664">
        <ele>228</ele>
        <time>2018-08-28T09:51:32Z</time>
      </trkpt>
      <trkpt lat="45.97247" lon="4.80657">
        <ele>228</ele>
        <time>2018-08-28T09:51:33Z</time>
      </trkpt>
      <trkpt lat="45.97247" lon="4.80649">
        <ele>229</ele>
        <time>2018-08-28T09:51:34Z</time>
      </trkpt>
      <trkpt lat="45.97246" lon="4.80641">
        <ele>229</ele>
        <time>2018-08-28T09:51:35Z</time>
      </trkpt>
      <trkpt lat="45.97245" lon="4.80632">
        <ele>229</ele>
        <time>2018-08-28T09:51:36Z</time>
      </trkpt>
      <trkpt lat="45.97244" lon="4.80625">
        <ele>229</ele>
        <time>2018-08-28T09:51:37Z</time>
      </trkpt>
      <trkpt lat="45.97243" lon="4.80617">
        <ele>229</ele>
        <time>2018-08-28T09:51:38Z</time>
      </trkpt>
      <trkpt lat="45.97243" lon="4.80609">
        <ele>228</ele>
        <time>2018-08-28T09:51:39Z</time>
      </trkpt>
      <trkpt lat="45.97242" lon="4.806">
        <ele>228</ele>
        <time>2018-08-28T09:51:40Z</time>
      </trkpt>
      <trkpt lat="45.97241" lon="4.8059">
        <ele>228</ele>
        <time>2018-08-28T09:51:42Z</time>
      </trkpt>
      <trkpt lat="45.9724" lon="4.80583">
        <ele>227</ele>
        <time>2018-08-28T09:51:43Z</time>
      </trkpt>
      <trkpt lat="45.97239" lon="4.8057">
        <ele>227</ele>
        <time>2018-08-28T09:51:45Z</time>
      </trkpt>
      <trkpt lat="45.97238" lon="4.80563">
        <ele>228</ele>
        <time>2018-08-28T09:51:46Z</time>
      </trkpt>
      <trkpt lat="45.97237" lon="4.80556">
        <ele>228</ele>
        <time>2018-08-28T09:51:47Z</time>
      </trkpt>
      <trkpt lat="45.97235" lon="4.80547">
        <ele>228</ele>
        <time>2018-08-28T09:51:48Z</time>
      </trkpt>
      <trkpt lat="45.97231" lon="4.8054">
        <ele>227</ele>
        <time>2018-08-28T09:51:49Z</time>
      </trkpt>
      <trkpt lat="45.9723" lon="4.80533">
        <ele>227</ele>
        <time>2018-08-28T09:51:50Z</time>
      </trkpt>
      <trkpt lat="45.97229" lon="4.80526">
        <ele>227</ele>
        <time>2018-08-28T09:51:51Z</time>
      </trkpt>
      <trkpt lat="45.97228" lon="4.80519">
        <ele>227</ele>
        <time>2018-08-28T09:51:52Z</time>
      </trkpt>
      <trkpt lat="45.97228" lon="4.80513">
        <ele>227</ele>
        <time>2018-08-28T09:51:53Z</time>
      </trkpt>
      <trkpt lat="45.97225" lon="4.80504">
        <ele>227</ele>
        <time>2018-08-28T09:51:54Z</time>
      </trkpt>
      <trkpt lat="45.97223" lon="4.80496">
        <ele>225</ele>
        <time>2018-08-28T09:51:55Z</time>
      </trkpt>
      <trkpt lat="45.97218" lon="4.80485">
        <ele>225</ele>
        <time>2018-08-28T09:51:56Z</time>
      </trkpt>
      <trkpt lat="45.97214" lon="4.80476">
        <ele>225</ele>
        <time>2018-08-28T09:51:57Z</time>
      </trkpt>
      <trkpt lat="45.97212" lon="4.8047">
        <ele>225</ele>
        <time>2018-08-28T09:51:58Z</time>
      </trkpt>
      <trkpt lat="45.97208" lon="4.80457">
        <ele>225</ele>
        <time>2018-08-28T09:51:59Z</time>
      </trkpt>
      <trkpt lat="45.97204" lon="4.80448">
        <ele>225</ele>
        <time>2018-08-28T09:52:00Z</time>
      </trkpt>
      <trkpt lat="45.97201" lon="4.80438">
        <ele>224</ele>
        <time>2018-08-28T09:52:01Z</time>
      </trkpt>
      <trkpt lat="45.97198" lon="4.80429">
        <ele>224</ele>
        <time>2018-08-28T09:52:02Z</time>
      </trkpt>
      <trkpt lat="45.97196" lon="4.80417">
        <ele>224</ele>
        <time>2018-08-28T09:52:03Z</time>
      </trkpt>
      <trkpt lat="45.97192" lon="4.80406">
        <ele>222</ele>
        <time>2018-08-28T09:52:04Z</time>
      </trkpt>
      <trkpt lat="45.97187" lon="4.80396">
        <ele>222</ele>
        <time>2018-08-28T09:52:05Z</time>
      </trkpt>
      <trkpt lat="45.97185" lon="4.80386">
        <ele>222</ele>
        <time>2018-08-28T09:52:06Z</time>
      </trkpt>
      <trkpt lat="45.97183" lon="4.80376">
        <ele>222</ele>
        <time>2018-08-28T09:52:07Z</time>
      </trkpt>
      <trkpt lat="45.9718" lon="4.80366">
        <ele>222</ele>
        <time>2018-08-28T09:52:08Z</time>
      </trkpt>
      <trkpt lat="45.97177" lon="4.80358">
        <ele>222</ele>
        <time>2018-08-28T09:52:09Z</time>
      </trkpt>
      <trkpt lat="45.97174" lon="4.80348">
        <ele>222</ele>
        <time>2018-08-28T09:52:10Z</time>
      </trkpt>
      <trkpt lat="45.9717" lon="4.80338">
        <ele>223</ele>
        <time>2018-08-28T09:52:11Z</time>
      </trkpt>
      <trkpt lat="45.97166" lon="4.8033">
        <ele>223</ele>
        <time>2018-08-28T09:52:12Z</time>
      </trkpt>
      <trkpt lat="45.97165" lon="4.80322">
        <ele>224</ele>
        <time>2018-08-28T09:52:13Z</time>
      </trkpt>
      <trkpt lat="45.97164" lon="4.80314">
        <ele>224</ele>
        <time>2018-08-28T09:52:14Z</time>
      </trkpt>
      <trkpt lat="45.97161" lon="4.80306">
        <ele>224</ele>
        <time>2018-08-28T09:52:15Z</time>
      </trkpt>
      <trkpt lat="45.97158" lon="4.80298">
        <ele>224</ele>
        <time>2018-08-28T09:52:16Z</time>
      </trkpt>
      <trkpt lat="45.97156" lon="4.8029">
        <ele>224</ele>
        <time>2018-08-28T09:52:17Z</time>
      </trkpt>
      <trkpt lat="45.97153" lon="4.80284">
        <ele>224</ele>
        <time>2018-08-28T09:52:18Z</time>
      </trkpt>
      <trkpt lat="45.9715" lon="4.80276">
        <ele>223</ele>
        <time>2018-08-28T09:52:19Z</time>
      </trkpt>
      <trkpt lat="45.97149" lon="4.80268">
        <ele>223</ele>
        <time>2018-08-28T09:52:20Z</time>
      </trkpt>
      <trkpt lat="45.97145" lon="4.80261">
        <ele>223</ele>
        <time>2018-08-28T09:52:21Z</time>
      </trkpt>
      <trkpt lat="45.97142" lon="4.80255">
        <ele>223</ele>
        <time>2018-08-28T09:52:22Z</time>
      </trkpt>
      <trkpt lat="45.97138" lon="4.80248">
        <ele>220</ele>
        <time>2018-08-28T09:52:23Z</time>
      </trkpt>
      <trkpt lat="45.97135" lon="4.80241">
        <ele>220</ele>
        <time>2018-08-28T09:52:24Z</time>
      </trkpt>
      <trkpt lat="45.97134" lon="4.80234">
        <ele>220</ele>
        <time>2018-08-28T09:52:25Z</time>
      </trkpt>
      <trkpt lat="45.97132" lon="4.80226">
        <ele>220</ele>
        <time>2018-08-28T09:52:26Z</time>
      </trkpt>
      <trkpt lat="45.97128" lon="4.80223">
        <ele>220</ele>
        <time>2018-08-28T09:52:27Z</time>
      </trkpt>
      <trkpt lat="45.97124" lon="4.80214">
        <ele>220</ele>
        <time>2018-08-28T09:52:28Z</time>
      </trkpt>
      <trkpt lat="45.97115" lon="4.80208">
        <ele>220</ele>
        <time>2018-08-28T09:52:29Z</time>
      </trkpt>
      <trkpt lat="45.97111" lon="4.80201">
        <ele>220</ele>
        <time>2018-08-28T09:52:30Z</time>
      </trkpt>
      <trkpt lat="45.97107" lon="4.80193">
        <ele>220</ele>
        <time>2018-08-28T09:52:31Z</time>
      </trkpt>
      <trkpt lat="45.97101" lon="4.80184">
        <ele>220</ele>
        <time>2018-08-28T09:52:32Z</time>
      </trkpt>
      <trkpt lat="45.97096" lon="4.80175">
        <ele>220</ele>
        <time>2018-08-28T09:52:33Z</time>
      </trkpt>
      <trkpt lat="45.97091" lon="4.80168">
        <ele>220</ele>
        <time>2018-08-28T09:52:34Z</time>
      </trkpt>
      <trkpt lat="45.97088" lon="4.80159">
        <ele>218</ele>
        <time>2018-08-28T09:52:35Z</time>
      </trkpt>
      <trkpt lat="45.97082" lon="4.80152">
        <ele>219</ele>
        <time>2018-08-28T09:52:36Z</time>
      </trkpt>
      <trkpt lat="45.97075" lon="4.80147">
        <ele>218</ele>
        <time>2018-08-28T09:52:37Z</time>
      </trkpt>
      <trkpt lat="45.97071" lon="4.80139">
        <ele>218</ele>
        <time>2018-08-28T09:52:38Z</time>
      </trkpt>
      <trkpt lat="45.97065" lon="4.80132">
        <ele>217</ele>
        <time>2018-08-28T09:52:39Z</time>
      </trkpt>
      <trkpt lat="45.9706" lon="4.80124">
        <ele>217</ele>
        <time>2018-08-28T09:52:40Z</time>
      </trkpt>
      <trkpt lat="45.97055" lon="4.80118">
        <ele>217</ele>
        <time>2018-08-28T09:52:41Z</time>
      </trkpt>
      <trkpt lat="45.9705" lon="4.80111">
        <ele>217</ele>
        <time>2018-08-28T09:52:42Z</time>
      </trkpt>
      <trkpt lat="45.97046" lon="4.80102">
        <ele>217</ele>
        <time>2018-08-28T09:52:43Z</time>
      </trkpt>
      <trkpt lat="45.9704" lon="4.80096">
        <ele>216</ele>
        <time>2018-08-28T09:52:44Z</time>
      </trkpt>
      <trkpt lat="45.97035" lon="4.80088">
        <ele>216</ele>
        <time>2018-08-28T09:52:45Z</time>
      </trkpt>
      <trkpt lat="45.97032" lon="4.80083">
        <ele>215</ele>
        <time>2018-08-28T09:52:46Z</time>
      </trkpt>
      <trkpt lat="45.97031" lon="4.80075">
        <ele>215</ele>
        <time>2018-08-28T09:52:47Z</time>
      </trkpt>
      <trkpt lat="45.9703" lon="4.80068">
        <ele>214</ele>
        <time>2018-08-28T09:52:48Z</time>
      </trkpt>
      <trkpt lat="45.97029" lon="4.80062">
        <ele>214</ele>
        <time>2018-08-28T09:52:49Z</time>
      </trkpt>
      <trkpt lat="45.9703" lon="4.80054">
        <ele>214</ele>
        <time>2018-08-28T09:52:52Z</time>
      </trkpt>
      <trkpt lat="45.97032" lon="4.80045">
        <ele>214</ele>
        <time>2018-08-28T09:52:53Z</time>
      </trkpt>
      <trkpt lat="45.97035" lon="4.8004">
        <ele>214</ele>
        <time>2018-08-28T09:52:54Z</time>
      </trkpt>
      <trkpt lat="45.97039" lon="4.80036">
        <ele>214</ele>
        <time>2018-08-28T09:52:55Z</time>
      </trkpt>
      <trkpt lat="45.97044" lon="4.80033">
        <ele>214</ele>
        <time>2018-08-28T09:52:56Z</time>
      </trkpt>
      <trkpt lat="45.97049" lon="4.80028">
        <ele>214</ele>
        <time>2018-08-28T09:52:57Z</time>
      </trkpt>
      <trkpt lat="45.97053" lon="4.80023">
        <ele>214</ele>
        <time>2018-08-28T09:52:58Z</time>
      </trkpt>
      <trkpt lat="45.97057" lon="4.80015">
        <ele>214</ele>
        <time>2018-08-28T09:52:59Z</time>
      </trkpt>
      <trkpt lat="45.97061" lon="4.80008">
        <ele>214</ele>
        <time>2018-08-28T09:53:00Z</time>
      </trkpt>
      <trkpt lat="45.97066" lon="4.80002">
        <ele>214</ele>
        <time>2018-08-28T09:53:01Z</time>
      </trkpt>
      <trkpt lat="45.97071" lon="4.79993">
        <ele>213</ele>
        <time>2018-08-28T09:53:02Z</time>
      </trkpt>
      <trkpt lat="45.97075" lon="4.79986">
        <ele>213</ele>
        <time>2018-08-28T09:53:03Z</time>
      </trkpt>
      <trkpt lat="45.97081" lon="4.79977">
        <ele>213</ele>
        <time>2018-08-28T09:53:04Z</time>
      </trkpt>
      <trkpt lat="45.97085" lon="4.7997">
        <ele>212</ele>
        <time>2018-08-28T09:53:05Z</time>
      </trkpt>
      <trkpt lat="45.97091" lon="4.79963">
        <ele>211</ele>
        <time>2018-08-28T09:53:06Z</time>
      </trkpt>
      <trkpt lat="45.97098" lon="4.79958">
        <ele>211</ele>
        <time>2018-08-28T09:53:07Z</time>
      </trkpt>
      <trkpt lat="45.97104" lon="4.79954">
        <ele>211</ele>
        <time>2018-08-28T09:53:08Z</time>
      </trkpt>
      <trkpt lat="45.9711" lon="4.79951">
        <ele>211</ele>
        <time>2018-08-28T09:53:09Z</time>
      </trkpt>
      <trkpt lat="45.97116" lon="4.79948">
        <ele>211</ele>
        <time>2018-08-28T09:53:10Z</time>
      </trkpt>
      <trkpt lat="45.97122" lon="4.79946">
        <ele>211</ele>
        <time>2018-08-28T09:53:11Z</time>
      </trkpt>
      <trkpt lat="45.97128" lon="4.79942">
        <ele>211</ele>
        <time>2018-08-28T09:53:12Z</time>
      </trkpt>
      <trkpt lat="45.97134" lon="4.7994">
        <ele>211</ele>
        <time>2018-08-28T09:53:13Z</time>
      </trkpt>
      <trkpt lat="45.97139" lon="4.79938">
        <ele>211</ele>
        <time>2018-08-28T09:53:14Z</time>
      </trkpt>
      <trkpt lat="45.97145" lon="4.79937">
        <ele>211</ele>
        <time>2018-08-28T09:53:15Z</time>
      </trkpt>
      <trkpt lat="45.97151" lon="4.79937">
        <ele>211</ele>
        <time>2018-08-28T09:53:16Z</time>
      </trkpt>
      <trkpt lat="45.97157" lon="4.79931">
        <ele>210</ele>
        <time>2018-08-28T09:53:17Z</time>
      </trkpt>
      <trkpt lat="45.97164" lon="4.79928">
        <ele>210</ele>
        <time>2018-08-28T09:53:18Z</time>
      </trkpt>
      <trkpt lat="45.9717" lon="4.79928">
        <ele>210</ele>
        <time>2018-08-28T09:53:19Z</time>
      </trkpt>
      <trkpt lat="45.97176" lon="4.79927">
        <ele>210</ele>
        <time>2018-08-28T09:53:20Z</time>
      </trkpt>
      <trkpt lat="45.9718" lon="4.79929">
        <ele>210</ele>
        <time>2018-08-28T09:53:21Z</time>
      </trkpt>
      <trkpt lat="45.97184" lon="4.79928">
        <ele>210</ele>
        <time>2018-08-28T09:53:22Z</time>
      </trkpt>
      <trkpt lat="45.97191" lon="4.79927">
        <ele>211</ele>
        <time>2018-08-28T09:53:23Z</time>
      </trkpt>
      <trkpt lat="45.97198" lon="4.79925">
        <ele>211</ele>
        <time>2018-08-28T09:53:24Z</time>
      </trkpt>
      <trkpt lat="45.97204" lon="4.79926">
        <ele>211</ele>
        <time>2018-08-28T09:53:25Z</time>
      </trkpt>
      <trkpt lat="45.97209" lon="4.79925">
        <ele>211</ele>
        <time>2018-08-28T09:53:26Z</time>
      </trkpt>
      <trkpt lat="45.97214" lon="4.79925">
        <ele>211</ele>
        <time>2018-08-28T09:53:27Z</time>
      </trkpt>
      <trkpt lat="45.9722" lon="4.79924">
        <ele>211</ele>
        <time>2018-08-28T09:53:28Z</time>
      </trkpt>
      <trkpt lat="45.97226" lon="4.79923">
        <ele>211</ele>
        <time>2018-08-28T09:53:29Z</time>
      </trkpt>
      <trkpt lat="45.97231" lon="4.79922">
        <ele>211</ele>
        <time>2018-08-28T09:53:30Z</time>
      </trkpt>
      <trkpt lat="45.97235" lon="4.79921">
        <ele>211</ele>
        <time>2018-08-28T09:53:31Z</time>
      </trkpt>
      <trkpt lat="45.97243" lon="4.79918">
        <ele>212</ele>
        <time>2018-08-28T09:53:33Z</time>
      </trkpt>
      <trkpt lat="45.97247" lon="4.79917">
        <ele>212</ele>
        <time>2018-08-28T09:53:34Z</time>
      </trkpt>
      <trkpt lat="45.97251" lon="4.79917">
        <ele>212</ele>
        <time>2018-08-28T09:53:36Z</time>
      </trkpt>
      <trkpt lat="45.97256" lon="4.79914">
        <ele>212</ele>
        <time>2018-08-28T09:53:37Z</time>
      </trkpt>
      <trkpt lat="45.97255" lon="4.7991">
        <ele>212</ele>
        <time>2018-08-28T09:53:39Z</time>
      </trkpt>
      <trkpt lat="45.97253" lon="4.799">
        <ele>213</ele>
        <time>2018-08-28T09:53:40Z</time>
      </trkpt>
      <trkpt lat="45.97251" lon="4.79895">
        <ele>213</ele>
        <time>2018-08-28T09:53:41Z</time>
      </trkpt>
      <trkpt lat="45.97248" lon="4.79887">
        <ele>211</ele>
        <time>2018-08-28T09:53:42Z</time>
      </trkpt>
      <trkpt lat="45.97246" lon="4.79877">
        <ele>211</ele>
        <time>2018-08-28T09:53:44Z</time>
      </trkpt>
      <trkpt lat="45.97244" lon="4.79869">
        <ele>211</ele>
        <time>2018-08-28T09:53:45Z</time>
      </trkpt>
      <trkpt lat="45.97242" lon="4.79862">
        <ele>211</ele>
        <time>2018-08-28T09:53:46Z</time>
      </trkpt>
      <trkpt lat="45.97241" lon="4.79853">
        <ele>211</ele>
        <time>2018-08-28T09:53:47Z</time>
      </trkpt>
      <trkpt lat="45.97239" lon="4.79847">
        <ele>211</ele>
        <time>2018-08-28T09:53:48Z</time>
      </trkpt>
      <trkpt lat="45.97238" lon="4.79838">
        <ele>211</ele>
        <time>2018-08-28T09:53:49Z</time>
      </trkpt>
      <trkpt lat="45.97237" lon="4.7983">
        <ele>211</ele>
        <time>2018-08-28T09:53:50Z</time>
      </trkpt>
      <trkpt lat="45.97238" lon="4.79824">
        <ele>211</ele>
        <time>2018-08-28T09:53:51Z</time>
      </trkpt>
      <trkpt lat="45.97238" lon="4.79811">
        <ele>210</ele>
        <time>2018-08-28T09:53:53Z</time>
      </trkpt>
      <trkpt lat="45.97241" lon="4.79802">
        <ele>210</ele>
        <time>2018-08-28T09:53:54Z</time>
      </trkpt>
      <trkpt lat="45.97241" lon="4.79792">
        <ele>210</ele>
        <time>2018-08-28T09:53:55Z</time>
      </trkpt>
      <trkpt lat="45.97241" lon="4.79784">
        <ele>210</ele>
        <time>2018-08-28T09:53:56Z</time>
      </trkpt>
      <trkpt lat="45.97241" lon="4.79774">
        <ele>210</ele>
        <time>2018-08-28T09:53:57Z</time>
      </trkpt>
      <trkpt lat="45.97242" lon="4.79765">
        <ele>209</ele>
        <time>2018-08-28T09:53:58Z</time>
      </trkpt>
      <trkpt lat="45.97243" lon="4.79756">
        <ele>209</ele>
        <time>2018-08-28T09:53:59Z</time>
      </trkpt>
      <trkpt lat="45.97245" lon="4.79749">
        <ele>209</ele>
        <time>2018-08-28T09:54:00Z</time>
      </trkpt>
      <trkpt lat="45.97245" lon="4.79738">
        <ele>209</ele>
        <time>2018-08-28T09:54:01Z</time>
      </trkpt>
      <trkpt lat="45.97246" lon="4.7973">
        <ele>209</ele>
        <time>2018-08-28T09:54:02Z</time>
      </trkpt>
      <trkpt lat="45.97247" lon="4.79721">
        <ele>209</ele>
        <time>2018-08-28T09:54:03Z</time>
      </trkpt>
      <trkpt lat="45.97248" lon="4.79713">
        <ele>209</ele>
        <time>2018-08-28T09:54:04Z</time>
      </trkpt>
      <trkpt lat="45.97249" lon="4.79706">
        <ele>208</ele>
        <time>2018-08-28T09:54:05Z</time>
      </trkpt>
      <trkpt lat="45.97249" lon="4.79699">
        <ele>208</ele>
        <time>2018-08-28T09:54:06Z</time>
      </trkpt>
      <trkpt lat="45.9725" lon="4.7969">
        <ele>208</ele>
        <time>2018-08-28T09:54:07Z</time>
      </trkpt>
      <trkpt lat="45.97251" lon="4.79685">
        <ele>211</ele>
        <time>2018-08-28T09:54:08Z</time>
      </trkpt>
      <trkpt lat="45.97252" lon="4.79673">
        <ele>209</ele>
        <time>2018-08-28T09:54:10Z</time>
      </trkpt>
      <trkpt lat="45.97253" lon="4.79668">
        <ele>209</ele>
        <time>2018-08-28T09:54:11Z</time>
      </trkpt>
      <trkpt lat="45.97255" lon="4.79657">
        <ele>210</ele>
        <time>2018-08-28T09:54:13Z</time>
      </trkpt>
      <trkpt lat="45.97256" lon="4.79651">
        <ele>211</ele>
        <time>2018-08-28T09:54:14Z</time>
      </trkpt>
      <trkpt lat="45.97256" lon="4.7964">
        <ele>212</ele>
        <time>2018-08-28T09:54:16Z</time>
      </trkpt>
      <trkpt lat="45.97257" lon="4.79633">
        <ele>213</ele>
        <time>2018-08-28T09:54:17Z</time>
      </trkpt>
      <trkpt lat="45.97256" lon="4.79625">
        <ele>213</ele>
        <time>2018-08-28T09:54:18Z</time>
      </trkpt>
      <trkpt lat="45.97256" lon="4.79618">
        <ele>213</ele>
        <time>2018-08-28T09:54:19Z</time>
      </trkpt>
      <trkpt lat="45.97255" lon="4.7961">
        <ele>213</ele>
        <time>2018-08-28T09:54:20Z</time>
      </trkpt>
      <trkpt lat="45.97256" lon="4.79604">
        <ele>213</ele>
        <time>2018-08-28T09:54:21Z</time>
      </trkpt>
      <trkpt lat="45.97257" lon="4.79597">
        <ele>212</ele>
        <time>2018-08-28T09:54:22Z</time>
      </trkpt>
      <trkpt lat="45.97257" lon="4.79589">
        <ele>212</ele>
        <time>2018-08-28T09:54:23Z</time>
      </trkpt>
      <trkpt lat="45.97257" lon="4.79583">
        <ele>211</ele>
        <time>2018-08-28T09:54:24Z</time>
      </trkpt>
      <trkpt lat="45.97257" lon="4.79575">
        <ele>212</ele>
        <time>2018-08-28T09:54:25Z</time>
      </trkpt>
      <trkpt lat="45.97256" lon="4.79567">
        <ele>213</ele>
        <time>2018-08-28T09:54:26Z</time>
      </trkpt>
      <trkpt lat="45.97254" lon="4.7956">
        <ele>213</ele>
        <time>2018-08-28T09:54:27Z</time>
      </trkpt>
      <trkpt lat="45.97252" lon="4.79553">
        <ele>214</ele>
        <time>2018-08-28T09:54:28Z</time>
      </trkpt>
      <trkpt lat="45.97251" lon="4.79545">
        <ele>214</ele>
        <time>2018-08-28T09:54:29Z</time>
      </trkpt>
      <trkpt lat="45.97249" lon="4.79537">
        <ele>210</ele>
        <time>2018-08-28T09:54:30Z</time>
      </trkpt>
      <trkpt lat="45.97248" lon="4.79531">
        <ele>210</ele>
        <time>2018-08-28T09:54:31Z</time>
      </trkpt>
      <trkpt lat="45.97247" lon="4.79523">
        <ele>210</ele>
        <time>2018-08-28T09:54:32Z</time>
      </trkpt>
      <trkpt lat="45.97245" lon="4.79517">
        <ele>210</ele>
        <time>2018-08-28T09:54:33Z</time>
      </trkpt>
      <trkpt lat="45.97244" lon="4.79504">
        <ele>210</ele>
        <time>2018-08-28T09:54:35Z</time>
      </trkpt>
      <trkpt lat="45.97242" lon="4.79497">
        <ele>210</ele>
        <time>2018-08-28T09:54:36Z</time>
      </trkpt>
      <trkpt lat="45.97241" lon="4.79489">
        <ele>210</ele>
        <time>2018-08-28T09:54:37Z</time>
      </trkpt>
      <trkpt lat="45.97241" lon="4.79484">
        <ele>210</ele>
        <time>2018-08-28T09:54:38Z</time>
      </trkpt>
      <trkpt lat="45.97241" lon="4.79473">
        <ele>209</ele>
        <time>2018-08-28T09:54:40Z</time>
      </trkpt>
      <trkpt lat="45.97238" lon="4.79468">
        <ele>209</ele>
        <time>2018-08-28T09:54:41Z</time>
      </trkpt>
      <trkpt lat="45.97236" lon="4.79461">
        <ele>209</ele>
        <time>2018-08-28T09:54:42Z</time>
      </trkpt>
      <trkpt lat="45.97234" lon="4.79454">
        <ele>209</ele>
        <time>2018-08-28T09:54:43Z</time>
      </trkpt>
      <trkpt lat="45.9723" lon="4.79448">
        <ele>209</ele>
        <time>2018-08-28T09:54:44Z</time>
      </trkpt>
      <trkpt lat="45.97227" lon="4.79441">
        <ele>209</ele>
        <time>2018-08-28T09:54:45Z</time>
      </trkpt>
      <trkpt lat="45.97224" lon="4.79434">
        <ele>209</ele>
        <time>2018-08-28T09:54:46Z</time>
      </trkpt>
      <trkpt lat="45.97221" lon="4.79426">
        <ele>209</ele>
        <time>2018-08-28T09:54:47Z</time>
      </trkpt>
      <trkpt lat="45.97218" lon="4.79418">
        <ele>208</ele>
        <time>2018-08-28T09:54:48Z</time>
      </trkpt>
      <trkpt lat="45.97215" lon="4.7941">
        <ele>208</ele>
        <time>2018-08-28T09:54:49Z</time>
      </trkpt>
      <trkpt lat="45.97211" lon="4.79401">
        <ele>208</ele>
        <time>2018-08-28T09:54:50Z</time>
      </trkpt>
      <trkpt lat="45.97208" lon="4.79394">
        <ele>208</ele>
        <time>2018-08-28T09:54:51Z</time>
      </trkpt>
      <trkpt lat="45.97205" lon="4.79386">
        <ele>208</ele>
        <time>2018-08-28T09:54:52Z</time>
      </trkpt>
      <trkpt lat="45.97202" lon="4.79379">
        <ele>208</ele>
        <time>2018-08-28T09:54:53Z</time>
      </trkpt>
      <trkpt lat="45.972" lon="4.7937">
        <ele>207</ele>
        <time>2018-08-28T09:54:54Z</time>
      </trkpt>
      <trkpt lat="45.97196" lon="4.79362">
        <ele>207</ele>
        <time>2018-08-28T09:54:55Z</time>
      </trkpt>
      <trkpt lat="45.97193" lon="4.79354">
        <ele>207</ele>
        <time>2018-08-28T09:54:56Z</time>
      </trkpt>
      <trkpt lat="45.97189" lon="4.79346">
        <ele>207</ele>
        <time>2018-08-28T09:54:57Z</time>
      </trkpt>
      <trkpt lat="45.97185" lon="4.79341">
        <ele>207</ele>
        <time>2018-08-28T09:54:58Z</time>
      </trkpt>
      <trkpt lat="45.97182" lon="4.79334">
        <ele>206</ele>
        <time>2018-08-28T09:54:59Z</time>
      </trkpt>
      <trkpt lat="45.97178" lon="4.79326">
        <ele>206</ele>
        <time>2018-08-28T09:55:00Z</time>
      </trkpt>
      <trkpt lat="45.97175" lon="4.79318">
        <ele>207</ele>
        <time>2018-08-28T09:55:01Z</time>
      </trkpt>
      <trkpt lat="45.97171" lon="4.79311">
        <ele>207</ele>
        <time>2018-08-28T09:55:02Z</time>
      </trkpt>
      <trkpt lat="45.97167" lon="4.79302">
        <ele>207</ele>
        <time>2018-08-28T09:55:03Z</time>
      </trkpt>
      <trkpt lat="45.97167" lon="4.79294">
        <ele>204</ele>
        <time>2018-08-28T09:55:04Z</time>
      </trkpt>
      <trkpt lat="45.97165" lon="4.79288">
        <ele>204</ele>
        <time>2018-08-28T09:55:05Z</time>
      </trkpt>
      <trkpt lat="45.97163" lon="4.79281">
        <ele>204</ele>
        <time>2018-08-28T09:55:06Z</time>
      </trkpt>
      <trkpt lat="45.9716" lon="4.79273">
        <ele>204</ele>
        <time>2018-08-28T09:55:07Z</time>
      </trkpt>
      <trkpt lat="45.97157" lon="4.79266">
        <ele>204</ele>
        <time>2018-08-28T09:55:08Z</time>
      </trkpt>
      <trkpt lat="45.97154" lon="4.79259">
        <ele>205</ele>
        <time>2018-08-28T09:55:09Z</time>
      </trkpt>
      <trkpt lat="45.97152" lon="4.79252">
        <ele>205</ele>
        <time>2018-08-28T09:55:10Z</time>
      </trkpt>
      <trkpt lat="45.97151" lon="4.79245">
        <ele>205</ele>
        <time>2018-08-28T09:55:11Z</time>
      </trkpt>
      <trkpt lat="45.97148" lon="4.79238">
        <ele>205</ele>
        <time>2018-08-28T09:55:12Z</time>
      </trkpt>
      <trkpt lat="45.97145" lon="4.79231">
        <ele>205</ele>
        <time>2018-08-28T09:55:13Z</time>
      </trkpt>
      <trkpt lat="45.97141" lon="4.79225">
        <ele>205</ele>
        <time>2018-08-28T09:55:14Z</time>
      </trkpt>
      <trkpt lat="45.97138" lon="4.79218">
        <ele>206</ele>
        <time>2018-08-28T09:55:15Z</time>
      </trkpt>
      <trkpt lat="45.97136" lon="4.79211">
        <ele>206</ele>
        <time>2018-08-28T09:55:16Z</time>
      </trkpt>
      <trkpt lat="45.97136" lon="4.79204">
        <ele>206</ele>
        <time>2018-08-28T09:55:17Z</time>
      </trkpt>
      <trkpt lat="45.97134" lon="4.79196">
        <ele>206</ele>
        <time>2018-08-28T09:55:18Z</time>
      </trkpt>
      <trkpt lat="45.97131" lon="4.79188">
        <ele>206</ele>
        <time>2018-08-28T09:55:19Z</time>
      </trkpt>
      <trkpt lat="45.97126" lon="4.79179">
        <ele>206</ele>
        <time>2018-08-28T09:55:20Z</time>
      </trkpt>
      <trkpt lat="45.97119" lon="4.79171">
        <ele>206</ele>
        <time>2018-08-28T09:55:21Z</time>
      </trkpt>
      <trkpt lat="45.97115" lon="4.79162">
        <ele>207</ele>
        <time>2018-08-28T09:55:22Z</time>
      </trkpt>
      <trkpt lat="45.97111" lon="4.79154">
        <ele>206</ele>
        <time>2018-08-28T09:55:23Z</time>
      </trkpt>
      <trkpt lat="45.97106" lon="4.79147">
        <ele>206</ele>
        <time>2018-08-28T09:55:24Z</time>
      </trkpt>
      <trkpt lat="45.97102" lon="4.79139">
        <ele>206</ele>
        <time>2018-08-28T09:55:25Z</time>
      </trkpt>
      <trkpt lat="45.97097" lon="4.79132">
        <ele>206</ele>
        <time>2018-08-28T09:55:26Z</time>
      </trkpt>
      <trkpt lat="45.97093" lon="4.79124">
        <ele>206</ele>
        <time>2018-08-28T09:55:27Z</time>
      </trkpt>
      <trkpt lat="45.97089" lon="4.79117">
        <ele>206</ele>
        <time>2018-08-28T09:55:28Z</time>
      </trkpt>
      <trkpt lat="45.97083" lon="4.79109">
        <ele>204</ele>
        <time>2018-08-28T09:55:29Z</time>
      </trkpt>
      <trkpt lat="45.9708" lon="4.79102">
        <ele>204</ele>
        <time>2018-08-28T09:55:30Z</time>
      </trkpt>
      <trkpt lat="45.97078" lon="4.79094">
        <ele>204</ele>
        <time>2018-08-28T09:55:31Z</time>
      </trkpt>
      <trkpt lat="45.97077" lon="4.79086">
        <ele>204</ele>
        <time>2018-08-28T09:55:32Z</time>
      </trkpt>
      <trkpt lat="45.97075" lon="4.79077">
        <ele>204</ele>
        <time>2018-08-28T09:55:33Z</time>
      </trkpt>
      <trkpt lat="45.97072" lon="4.79071">
        <ele>204</ele>
        <time>2018-08-28T09:55:34Z</time>
      </trkpt>
      <trkpt lat="45.9707" lon="4.79064">
        <ele>203</ele>
        <time>2018-08-28T09:55:35Z</time>
      </trkpt>
      <trkpt lat="45.9707" lon="4.79057">
        <ele>203</ele>
        <time>2018-08-28T09:55:36Z</time>
      </trkpt>
      <trkpt lat="45.97067" lon="4.7905">
        <ele>203</ele>
        <time>2018-08-28T09:55:37Z</time>
      </trkpt>
      <trkpt lat="45.97065" lon="4.79043">
        <ele>203</ele>
        <time>2018-08-28T09:55:38Z</time>
      </trkpt>
      <trkpt lat="45.97064" lon="4.79037">
        <ele>203</ele>
        <time>2018-08-28T09:55:39Z</time>
      </trkpt>
      <trkpt lat="45.97062" lon="4.7903">
        <ele>203</ele>
        <time>2018-08-28T09:55:40Z</time>
      </trkpt>
      <trkpt lat="45.97057" lon="4.79022">
        <ele>203</ele>
        <time>2018-08-28T09:55:41Z</time>
      </trkpt>
      <trkpt lat="45.97054" lon="4.79013">
        <ele>203</ele>
        <time>2018-08-28T09:55:42Z</time>
      </trkpt>
      <trkpt lat="45.97058" lon="4.79007">
        <ele>204</ele>
        <time>2018-08-28T09:55:43Z</time>
      </trkpt>
      <trkpt lat="45.97056" lon="4.78999">
        <ele>205</ele>
        <time>2018-08-28T09:55:44Z</time>
      </trkpt>
      <trkpt lat="45.97053" lon="4.78992">
        <ele>205</ele>
        <time>2018-08-28T09:55:45Z</time>
      </trkpt>
      <trkpt lat="45.97048" lon="4.78985">
        <ele>205</ele>
        <time>2018-08-28T09:55:46Z</time>
      </trkpt>
      <trkpt lat="45.97047" lon="4.78978">
        <ele>205</ele>
        <time>2018-08-28T09:55:47Z</time>
      </trkpt>
      <trkpt lat="45.97043" lon="4.78969">
        <ele>205</ele>
        <time>2018-08-28T09:55:48Z</time>
      </trkpt>
      <trkpt lat="45.9704" lon="4.78963">
        <ele>205</ele>
        <time>2018-08-28T09:55:49Z</time>
      </trkpt>
      <trkpt lat="45.97036" lon="4.78956">
        <ele>205</ele>
        <time>2018-08-28T09:55:50Z</time>
      </trkpt>
      <trkpt lat="45.97031" lon="4.78948">
        <ele>205</ele>
        <time>2018-08-28T09:55:51Z</time>
      </trkpt>
      <trkpt lat="45.97025" lon="4.78943">
        <ele>205</ele>
        <time>2018-08-28T09:55:52Z</time>
      </trkpt>
      <trkpt lat="45.9702" lon="4.78936">
        <ele>205</ele>
        <time>2018-08-28T09:55:53Z</time>
      </trkpt>
      <trkpt lat="45.97015" lon="4.78931">
        <ele>205</ele>
        <time>2018-08-28T09:55:54Z</time>
      </trkpt>
      <trkpt lat="45.97011" lon="4.78924">
        <ele>204</ele>
        <time>2018-08-28T09:55:55Z</time>
      </trkpt>
      <trkpt lat="45.97007" lon="4.78918">
        <ele>204</ele>
        <time>2018-08-28T09:55:56Z</time>
      </trkpt>
      <trkpt lat="45.97001" lon="4.78911">
        <ele>205</ele>
        <time>2018-08-28T09:55:57Z</time>
      </trkpt>
      <trkpt lat="45.96996" lon="4.78904">
        <ele>204</ele>
        <time>2018-08-28T09:55:58Z</time>
      </trkpt>
      <trkpt lat="45.96991" lon="4.78899">
        <ele>203</ele>
        <time>2018-08-28T09:55:59Z</time>
      </trkpt>
      <trkpt lat="45.96986" lon="4.78892">
        <ele>203</ele>
        <time>2018-08-28T09:56:00Z</time>
      </trkpt>
      <trkpt lat="45.96984" lon="4.78886">
        <ele>203</ele>
        <time>2018-08-28T09:56:01Z</time>
      </trkpt>
      <trkpt lat="45.96977" lon="4.7888">
        <ele>203</ele>
        <time>2018-08-28T09:56:02Z</time>
      </trkpt>
      <trkpt lat="45.96973" lon="4.78873">
        <ele>203</ele>
        <time>2018-08-28T09:56:03Z</time>
      </trkpt>
      <trkpt lat="45.96968" lon="4.78868">
        <ele>203</ele>
        <time>2018-08-28T09:56:04Z</time>
      </trkpt>
      <trkpt lat="45.96963" lon="4.78861">
        <ele>203</ele>
        <time>2018-08-28T09:56:05Z</time>
      </trkpt>
      <trkpt lat="45.96958" lon="4.78855">
        <ele>203</ele>
        <time>2018-08-28T09:56:06Z</time>
      </trkpt>
      <trkpt lat="45.96952" lon="4.78849">
        <ele>203</ele>
        <time>2018-08-28T09:56:07Z</time>
      </trkpt>
      <trkpt lat="45.96947" lon="4.78843">
        <ele>202</ele>
        <time>2018-08-28T09:56:08Z</time>
      </trkpt>
      <trkpt lat="45.96941" lon="4.78836">
        <ele>202</ele>
        <time>2018-08-28T09:56:09Z</time>
      </trkpt>
      <trkpt lat="45.96937" lon="4.78829">
        <ele>202</ele>
        <time>2018-08-28T09:56:10Z</time>
      </trkpt>
      <trkpt lat="45.96932" lon="4.78823">
        <ele>202</ele>
        <time>2018-08-28T09:56:11Z</time>
      </trkpt>
      <trkpt lat="45.96927" lon="4.78816">
        <ele>202</ele>
        <time>2018-08-28T09:56:12Z</time>
      </trkpt>
      <trkpt lat="45.96921" lon="4.78809">
        <ele>202</ele>
        <time>2018-08-28T09:56:13Z</time>
      </trkpt>
      <trkpt lat="45.96916" lon="4.78802">
        <ele>200</ele>
        <time>2018-08-28T09:56:14Z</time>
      </trkpt>
      <trkpt lat="45.96912" lon="4.78795">
        <ele>201</ele>
        <time>2018-08-28T09:56:15Z</time>
      </trkpt>
      <trkpt lat="45.9691" lon="4.7879">
        <ele>201</ele>
        <time>2018-08-28T09:56:16Z</time>
      </trkpt>
      <trkpt lat="45.96907" lon="4.78784">
        <ele>201</ele>
        <time>2018-08-28T09:56:17Z</time>
      </trkpt>
      <trkpt lat="45.96904" lon="4.78778">
        <ele>201</ele>
        <time>2018-08-28T09:56:18Z</time>
      </trkpt>
      <trkpt lat="45.969" lon="4.7877">
        <ele>201</ele>
        <time>2018-08-28T09:56:19Z</time>
      </trkpt>
      <trkpt lat="45.96896" lon="4.78761">
        <ele>201</ele>
        <time>2018-08-28T09:56:20Z</time>
      </trkpt>
      <trkpt lat="45.96892" lon="4.78751">
        <ele>201</ele>
        <time>2018-08-28T09:56:21Z</time>
      </trkpt>
      <trkpt lat="45.96889" lon="4.78743">
        <ele>202</ele>
        <time>2018-08-28T09:56:22Z</time>
      </trkpt>
      <trkpt lat="45.96885" lon="4.78734">
        <ele>202</ele>
        <time>2018-08-28T09:56:23Z</time>
      </trkpt>
      <trkpt lat="45.96881" lon="4.78725">
        <ele>202</ele>
        <time>2018-08-28T09:56:24Z</time>
      </trkpt>
      <trkpt lat="45.96876" lon="4.78717">
        <ele>202</ele>
        <time>2018-08-28T09:56:25Z</time>
      </trkpt>
      <trkpt lat="45.96872" lon="4.78708">
        <ele>202</ele>
        <time>2018-08-28T09:56:26Z</time>
      </trkpt>
      <trkpt lat="45.96866" lon="4.78698">
        <ele>202</ele>
        <time>2018-08-28T09:56:27Z</time>
      </trkpt>
      <trkpt lat="45.96863" lon="4.78692">
        <ele>202</ele>
        <time>2018-08-28T09:56:28Z</time>
      </trkpt>
      <trkpt lat="45.96857" lon="4.78685">
        <ele>202</ele>
        <time>2018-08-28T09:56:29Z</time>
      </trkpt>
      <trkpt lat="45.96851" lon="4.78682">
        <ele>202</ele>
        <time>2018-08-28T09:56:30Z</time>
      </trkpt>
      <trkpt lat="45.96847" lon="4.78673">
        <ele>201</ele>
        <time>2018-08-28T09:56:31Z</time>
      </trkpt>
      <trkpt lat="45.96843" lon="4.78666">
        <ele>202</ele>
        <time>2018-08-28T09:56:32Z</time>
      </trkpt>
      <trkpt lat="45.96839" lon="4.78657">
        <ele>202</ele>
        <time>2018-08-28T09:56:33Z</time>
      </trkpt>
      <trkpt lat="45.96837" lon="4.78648">
        <ele>203</ele>
        <time>2018-08-28T09:56:34Z</time>
      </trkpt>
      <trkpt lat="45.96834" lon="4.78641">
        <ele>203</ele>
        <time>2018-08-28T09:56:35Z</time>
      </trkpt>
      <trkpt lat="45.96833" lon="4.78633">
        <ele>201</ele>
        <time>2018-08-28T09:56:36Z</time>
      </trkpt>
      <trkpt lat="45.96833" lon="4.78625">
        <ele>201</ele>
        <time>2018-08-28T09:56:37Z</time>
      </trkpt>
      <trkpt lat="45.96833" lon="4.78618">
        <ele>202</ele>
        <time>2018-08-28T09:56:38Z</time>
      </trkpt>
      <trkpt lat="45.96831" lon="4.78609">
        <ele>202</ele>
        <time>2018-08-28T09:56:39Z</time>
      </trkpt>
      <trkpt lat="45.96828" lon="4.786">
        <ele>202</ele>
        <time>2018-08-28T09:56:40Z</time>
      </trkpt>
      <trkpt lat="45.96825" lon="4.78593">
        <ele>202</ele>
        <time>2018-08-28T09:56:41Z</time>
      </trkpt>
      <trkpt lat="45.96823" lon="4.78586">
        <ele>202</ele>
        <time>2018-08-28T09:56:42Z</time>
      </trkpt>
      <trkpt lat="45.9682" lon="4.7858">
        <ele>203</ele>
        <time>2018-08-28T09:56:43Z</time>
      </trkpt>
      <trkpt lat="45.96815" lon="4.78577">
        <ele>203</ele>
        <time>2018-08-28T09:56:44Z</time>
      </trkpt>
      <trkpt lat="45.96812" lon="4.78572">
        <ele>203</ele>
        <time>2018-08-28T09:56:45Z</time>
      </trkpt>
      <trkpt lat="45.96809" lon="4.78565">
        <ele>203</ele>
        <time>2018-08-28T09:56:46Z</time>
      </trkpt>
      <trkpt lat="45.96805" lon="4.78557">
        <ele>203</ele>
        <time>2018-08-28T09:56:47Z</time>
      </trkpt>
      <trkpt lat="45.968" lon="4.7855">
        <ele>203</ele>
        <time>2018-08-28T09:56:48Z</time>
      </trkpt>
      <trkpt lat="45.96795" lon="4.78542">
        <ele>203</ele>
        <time>2018-08-28T09:56:49Z</time>
      </trkpt>
      <trkpt lat="45.96792" lon="4.78535">
        <ele>203</ele>
        <time>2018-08-28T09:56:50Z</time>
      </trkpt>
      <trkpt lat="45.96788" lon="4.78528">
        <ele>203</ele>
        <time>2018-08-28T09:56:51Z</time>
      </trkpt>
      <trkpt lat="45.96786" lon="4.78521">
        <ele>203</ele>
        <time>2018-08-28T09:56:52Z</time>
      </trkpt>
      <trkpt lat="45.96781" lon="4.78514">
        <ele>203</ele>
        <time>2018-08-28T09:56:53Z</time>
      </trkpt>
      <trkpt lat="45.96776" lon="4.78507">
        <ele>203</ele>
        <time>2018-08-28T09:56:54Z</time>
      </trkpt>
      <trkpt lat="45.96771" lon="4.785">
        <ele>205</ele>
        <time>2018-08-28T09:56:55Z</time>
      </trkpt>
      <trkpt lat="45.96767" lon="4.78494">
        <ele>205</ele>
        <time>2018-08-28T09:56:56Z</time>
      </trkpt>
      <trkpt lat="45.96763" lon="4.78489">
        <ele>205</ele>
        <time>2018-08-28T09:56:57Z</time>
      </trkpt>
      <trkpt lat="45.96759" lon="4.78484">
        <ele>205</ele>
        <time>2018-08-28T09:56:58Z</time>
      </trkpt>
      <trkpt lat="45.96751" lon="4.78479">
        <ele>205</ele>
        <time>2018-08-28T09:56:59Z</time>
      </trkpt>
      <trkpt lat="45.96745" lon="4.78474">
        <ele>203</ele>
        <time>2018-08-28T09:57:00Z</time>
      </trkpt>
      <trkpt lat="45.9674" lon="4.78469">
        <ele>203</ele>
        <time>2018-08-28T09:57:01Z</time>
      </trkpt>
      <trkpt lat="45.96735" lon="4.78463">
        <ele>203</ele>
        <time>2018-08-28T09:57:02Z</time>
      </trkpt>
      <trkpt lat="45.96729" lon="4.78458">
        <ele>203</ele>
        <time>2018-08-28T09:57:03Z</time>
      </trkpt>
      <trkpt lat="45.96724" lon="4.78453">
        <ele>203</ele>
        <time>2018-08-28T09:57:04Z</time>
      </trkpt>
      <trkpt lat="45.9672" lon="4.78448">
        <ele>203</ele>
        <time>2018-08-28T09:57:05Z</time>
      </trkpt>
      <trkpt lat="45.96712" lon="4.78442">
        <ele>203</ele>
        <time>2018-08-28T09:57:06Z</time>
      </trkpt>
      <trkpt lat="45.96704" lon="4.78435">
        <ele>203</ele>
        <time>2018-08-28T09:57:07Z</time>
      </trkpt>
      <trkpt lat="45.96698" lon="4.7843">
        <ele>203</ele>
        <time>2018-08-28T09:57:08Z</time>
      </trkpt>
      <trkpt lat="45.96695" lon="4.78424">
        <ele>202</ele>
        <time>2018-08-28T09:57:09Z</time>
      </trkpt>
      <trkpt lat="45.96689" lon="4.78419">
        <ele>202</ele>
        <time>2018-08-28T09:57:10Z</time>
      </trkpt>
      <trkpt lat="45.96685" lon="4.78414">
        <ele>204</ele>
        <time>2018-08-28T09:57:11Z</time>
      </trkpt>
      <trkpt lat="45.96678" lon="4.7841">
        <ele>203</ele>
        <time>2018-08-28T09:57:12Z</time>
      </trkpt>
      <trkpt lat="45.96674" lon="4.78405">
        <ele>203</ele>
        <time>2018-08-28T09:57:13Z</time>
      </trkpt>
      <trkpt lat="45.96669" lon="4.784">
        <ele>204</ele>
        <time>2018-08-28T09:57:14Z</time>
      </trkpt>
      <trkpt lat="45.96665" lon="4.78396">
        <ele>201</ele>
        <time>2018-08-28T09:57:15Z</time>
      </trkpt>
      <trkpt lat="45.96661" lon="4.78391">
        <ele>201</ele>
        <time>2018-08-28T09:57:16Z</time>
      </trkpt>
      <trkpt lat="45.96656" lon="4.78386">
        <ele>201</ele>
        <time>2018-08-28T09:57:17Z</time>
      </trkpt>
      <trkpt lat="45.9665" lon="4.78381">
        <ele>201</ele>
        <time>2018-08-28T09:57:18Z</time>
      </trkpt>
      <trkpt lat="45.96645" lon="4.78376">
        <ele>201</ele>
        <time>2018-08-28T09:57:19Z</time>
      </trkpt>
      <trkpt lat="45.96638" lon="4.78374">
        <ele>201</ele>
        <time>2018-08-28T09:57:20Z</time>
      </trkpt>
      <trkpt lat="45.96631" lon="4.78369">
        <ele>201</ele>
        <time>2018-08-28T09:57:21Z</time>
      </trkpt>
      <trkpt lat="45.96627" lon="4.78365">
        <ele>201</ele>
        <time>2018-08-28T09:57:22Z</time>
      </trkpt>
      <trkpt lat="45.96622" lon="4.7836">
        <ele>201</ele>
        <time>2018-08-28T09:57:23Z</time>
      </trkpt>
      <trkpt lat="45.96618" lon="4.78354">
        <ele>201</ele>
        <time>2018-08-28T09:57:24Z</time>
      </trkpt>
      <trkpt lat="45.96613" lon="4.78348">
        <ele>200</ele>
        <time>2018-08-28T09:57:25Z</time>
      </trkpt>
      <trkpt lat="45.96607" lon="4.78343">
        <ele>200</ele>
        <time>2018-08-28T09:57:26Z</time>
      </trkpt>
      <trkpt lat="45.96601" lon="4.78338">
        <ele>200</ele>
        <time>2018-08-28T09:57:27Z</time>
      </trkpt>
      <trkpt lat="45.96598" lon="4.78333">
        <ele>202</ele>
        <time>2018-08-28T09:57:28Z</time>
      </trkpt>
      <trkpt lat="45.96593" lon="4.78328">
        <ele>201</ele>
        <time>2018-08-28T09:57:29Z</time>
      </trkpt>
      <trkpt lat="45.96587" lon="4.78322">
        <ele>201</ele>
        <time>2018-08-28T09:57:30Z</time>
      </trkpt>
      <trkpt lat="45.9658" lon="4.78316">
        <ele>199</ele>
        <time>2018-08-28T09:57:31Z</time>
      </trkpt>
      <trkpt lat="45.96574" lon="4.78309">
        <ele>199</ele>
        <time>2018-08-28T09:57:32Z</time>
      </trkpt>
      <trkpt lat="45.96569" lon="4.78305">
        <ele>200</ele>
        <time>2018-08-28T09:57:33Z</time>
      </trkpt>
      <trkpt lat="45.96563" lon="4.78298">
        <ele>200</ele>
        <time>2018-08-28T09:57:34Z</time>
      </trkpt>
      <trkpt lat="45.96558" lon="4.78291">
        <ele>200</ele>
        <time>2018-08-28T09:57:35Z</time>
      </trkpt>
      <trkpt lat="45.96553" lon="4.78285">
        <ele>200</ele>
        <time>2018-08-28T09:57:36Z</time>
      </trkpt>
      <trkpt lat="45.96548" lon="4.7828">
        <ele>200</ele>
        <time>2018-08-28T09:57:37Z</time>
      </trkpt>
      <trkpt lat="45.96547" lon="4.78275">
        <ele>200</ele>
        <time>2018-08-28T09:57:38Z</time>
      </trkpt>
      <trkpt lat="45.96542" lon="4.78269">
        <ele>200</ele>
        <time>2018-08-28T09:57:39Z</time>
      </trkpt>
      <trkpt lat="45.96538" lon="4.78262">
        <ele>200</ele>
        <time>2018-08-28T09:57:40Z</time>
      </trkpt>
      <trkpt lat="45.96533" lon="4.78255">
        <ele>200</ele>
        <time>2018-08-28T09:57:41Z</time>
      </trkpt>
      <trkpt lat="45.96528" lon="4.78247">
        <ele>204</ele>
        <time>2018-08-28T09:57:42Z</time>
      </trkpt>
      <trkpt lat="45.96524" lon="4.78241">
        <ele>204</ele>
        <time>2018-08-28T09:57:43Z</time>
      </trkpt>
      <trkpt lat="45.96519" lon="4.78233">
        <ele>204</ele>
        <time>2018-08-28T09:57:44Z</time>
      </trkpt>
      <trkpt lat="45.96514" lon="4.78226">
        <ele>204</ele>
        <time>2018-08-28T09:57:45Z</time>
      </trkpt>
      <trkpt lat="45.9651" lon="4.78218">
        <ele>204</ele>
        <time>2018-08-28T09:57:46Z</time>
      </trkpt>
      <trkpt lat="45.96507" lon="4.78211">
        <ele>205</ele>
        <time>2018-08-28T09:57:47Z</time>
      </trkpt>
      <trkpt lat="45.96502" lon="4.78205">
        <ele>205</ele>
        <time>2018-08-28T09:57:48Z</time>
      </trkpt>
      <trkpt lat="45.96499" lon="4.78198">
        <ele>201</ele>
        <time>2018-08-28T09:57:49Z</time>
      </trkpt>
      <trkpt lat="45.96495" lon="4.78196">
        <ele>201</ele>
        <time>2018-08-28T09:57:50Z</time>
      </trkpt>
      <trkpt lat="45.9649" lon="4.78193">
        <ele>201</ele>
        <time>2018-08-28T09:57:51Z</time>
      </trkpt>
      <trkpt lat="45.96484" lon="4.78188">
        <ele>201</ele>
        <time>2018-08-28T09:57:52Z</time>
      </trkpt>
      <trkpt lat="45.96479" lon="4.78185">
        <ele>201</ele>
        <time>2018-08-28T09:57:53Z</time>
      </trkpt>
      <trkpt lat="45.96473" lon="4.78182">
        <ele>201</ele>
        <time>2018-08-28T09:57:54Z</time>
      </trkpt>
      <trkpt lat="45.9647" lon="4.78178">
        <ele>201</ele>
        <time>2018-08-28T09:57:55Z</time>
      </trkpt>
      <trkpt lat="45.96464" lon="4.78173">
        <ele>200</ele>
        <time>2018-08-28T09:57:56Z</time>
      </trkpt>
      <trkpt lat="45.96461" lon="4.78169">
        <ele>200</ele>
        <time>2018-08-28T09:57:57Z</time>
      </trkpt>
      <trkpt lat="45.96455" lon="4.78164">
        <ele>204</ele>
        <time>2018-08-28T09:57:58Z</time>
      </trkpt>
      <trkpt lat="45.9645" lon="4.78159">
        <ele>204</ele>
        <time>2018-08-28T09:57:59Z</time>
      </trkpt>
      <trkpt lat="45.96444" lon="4.78155">
        <ele>203</ele>
        <time>2018-08-28T09:58:00Z</time>
      </trkpt>
      <trkpt lat="45.96439" lon="4.78151">
        <ele>203</ele>
        <time>2018-08-28T09:58:01Z</time>
      </trkpt>
      <trkpt lat="45.96435" lon="4.78147">
        <ele>203</ele>
        <time>2018-08-28T09:58:02Z</time>
      </trkpt>
      <trkpt lat="45.96428" lon="4.78141">
        <ele>203</ele>
        <time>2018-08-28T09:58:03Z</time>
      </trkpt>
      <trkpt lat="45.96423" lon="4.78136">
        <ele>203</ele>
        <time>2018-08-28T09:58:04Z</time>
      </trkpt>
      <trkpt lat="45.96417" lon="4.78131">
        <ele>204</ele>
        <time>2018-08-28T09:58:05Z</time>
      </trkpt>
      <trkpt lat="45.96413" lon="4.78127">
        <ele>200</ele>
        <time>2018-08-28T09:58:06Z</time>
      </trkpt>
      <trkpt lat="45.96406" lon="4.78122">
        <ele>200</ele>
        <time>2018-08-28T09:58:07Z</time>
      </trkpt>
      <trkpt lat="45.96404" lon="4.78118">
        <ele>200</ele>
        <time>2018-08-28T09:58:08Z</time>
      </trkpt>
      <trkpt lat="45.96397" lon="4.78112">
        <ele>200</ele>
        <time>2018-08-28T09:58:10Z</time>
      </trkpt>
      <trkpt lat="45.96391" lon="4.78107">
        <ele>200</ele>
        <time>2018-08-28T09:58:11Z</time>
      </trkpt>
      <trkpt lat="45.96388" lon="4.78103">
        <ele>200</ele>
        <time>2018-08-28T09:58:12Z</time>
      </trkpt>
      <trkpt lat="45.96377" lon="4.78098">
        <ele>200</ele>
        <time>2018-08-28T09:58:13Z</time>
      </trkpt>
      <trkpt lat="45.96373" lon="4.78093">
        <ele>200</ele>
        <time>2018-08-28T09:58:14Z</time>
      </trkpt>
      <trkpt lat="45.96368" lon="4.78088">
        <ele>199</ele>
        <time>2018-08-28T09:58:15Z</time>
      </trkpt>
      <trkpt lat="45.96364" lon="4.78082">
        <ele>202</ele>
        <time>2018-08-28T09:58:16Z</time>
      </trkpt>
      <trkpt lat="45.96357" lon="4.78077">
        <ele>202</ele>
        <time>2018-08-28T09:58:17Z</time>
      </trkpt>
      <trkpt lat="45.96352" lon="4.7807">
        <ele>202</ele>
        <time>2018-08-28T09:58:18Z</time>
      </trkpt>
      <trkpt lat="45.96347" lon="4.78064">
        <ele>202</ele>
        <time>2018-08-28T09:58:19Z</time>
      </trkpt>
      <trkpt lat="45.9634" lon="4.78059">
        <ele>202</ele>
        <time>2018-08-28T09:58:20Z</time>
      </trkpt>
      <trkpt lat="45.96333" lon="4.78054">
        <ele>199</ele>
        <time>2018-08-28T09:58:21Z</time>
      </trkpt>
      <trkpt lat="45.96329" lon="4.78046">
        <ele>199</ele>
        <time>2018-08-28T09:58:22Z</time>
      </trkpt>
      <trkpt lat="45.96322" lon="4.78039">
        <ele>199</ele>
        <time>2018-08-28T09:58:23Z</time>
      </trkpt>
      <trkpt lat="45.96317" lon="4.78033">
        <ele>200</ele>
        <time>2018-08-28T09:58:24Z</time>
      </trkpt>
      <trkpt lat="45.96313" lon="4.78026">
        <ele>200</ele>
        <time>2018-08-28T09:58:25Z</time>
      </trkpt>
      <trkpt lat="45.96309" lon="4.78022">
        <ele>200</ele>
        <time>2018-08-28T09:58:26Z</time>
      </trkpt>
      <trkpt lat="45.96305" lon="4.78016">
        <ele>200</ele>
        <time>2018-08-28T09:58:27Z</time>
      </trkpt>
      <trkpt lat="45.963" lon="4.78011">
        <ele>200</ele>
        <time>2018-08-28T09:58:28Z</time>
      </trkpt>
      <trkpt lat="45.96295" lon="4.78006">
        <ele>199</ele>
        <time>2018-08-28T09:58:29Z</time>
      </trkpt>
      <trkpt lat="45.96289" lon="4.77997">
        <ele>204</ele>
        <time>2018-08-28T09:58:31Z</time>
      </trkpt>
      <trkpt lat="45.96286" lon="4.77993">
        <ele>204</ele>
        <time>2018-08-28T09:58:32Z</time>
      </trkpt>
      <trkpt lat="45.96281" lon="4.77989">
        <ele>203</ele>
        <time>2018-08-28T09:58:33Z</time>
      </trkpt>
      <trkpt lat="45.96277" lon="4.77985">
        <ele>203</ele>
        <time>2018-08-28T09:58:34Z</time>
      </trkpt>
      <trkpt lat="45.96272" lon="4.77982">
        <ele>203</ele>
        <time>2018-08-28T09:58:35Z</time>
      </trkpt>
      <trkpt lat="45.96268" lon="4.77978">
        <ele>203</ele>
        <time>2018-08-28T09:58:36Z</time>
      </trkpt>
      <trkpt lat="45.96262" lon="4.77974">
        <ele>203</ele>
        <time>2018-08-28T09:58:37Z</time>
      </trkpt>
      <trkpt lat="45.96258" lon="4.77969">
        <ele>204</ele>
        <time>2018-08-28T09:58:38Z</time>
      </trkpt>
      <trkpt lat="45.96252" lon="4.77962">
        <ele>204</ele>
        <time>2018-08-28T09:58:40Z</time>
      </trkpt>
      <trkpt lat="45.96251" lon="4.77959">
        <ele>205</ele>
        <time>2018-08-28T09:58:41Z</time>
      </trkpt>
      <trkpt lat="45.96246" lon="4.77953">
        <ele>200</ele>
        <time>2018-08-28T09:58:42Z</time>
      </trkpt>
      <trkpt lat="45.96243" lon="4.77948">
        <ele>200</ele>
        <time>2018-08-28T09:58:43Z</time>
      </trkpt>
      <trkpt lat="45.96234" lon="4.77943">
        <ele>200</ele>
        <time>2018-08-28T09:58:44Z</time>
      </trkpt>
      <trkpt lat="45.96231" lon="4.77937">
        <ele>201</ele>
        <time>2018-08-28T09:58:45Z</time>
      </trkpt>
      <trkpt lat="45.96226" lon="4.77933">
        <ele>201</ele>
        <time>2018-08-28T09:58:46Z</time>
      </trkpt>
      <trkpt lat="45.96222" lon="4.77929">
        <ele>200</ele>
        <time>2018-08-28T09:58:47Z</time>
      </trkpt>
      <trkpt lat="45.96218" lon="4.77924">
        <ele>200</ele>
        <time>2018-08-28T09:58:48Z</time>
      </trkpt>
      <trkpt lat="45.96216" lon="4.77918">
        <ele>200</ele>
        <time>2018-08-28T09:58:49Z</time>
      </trkpt>
      <trkpt lat="45.96211" lon="4.77911">
        <ele>203</ele>
        <time>2018-08-28T09:58:50Z</time>
      </trkpt>
      <trkpt lat="45.96205" lon="4.77904">
        <ele>202</ele>
        <time>2018-08-28T09:58:51Z</time>
      </trkpt>
      <trkpt lat="45.96202" lon="4.77898">
        <ele>202</ele>
        <time>2018-08-28T09:58:52Z</time>
      </trkpt>
      <trkpt lat="45.96199" lon="4.77892">
        <ele>202</ele>
        <time>2018-08-28T09:58:53Z</time>
      </trkpt>
      <trkpt lat="45.96196" lon="4.77886">
        <ele>202</ele>
        <time>2018-08-28T09:58:54Z</time>
      </trkpt>
      <trkpt lat="45.96192" lon="4.77881">
        <ele>202</ele>
        <time>2018-08-28T09:58:55Z</time>
      </trkpt>
      <trkpt lat="45.9619" lon="4.77876">
        <ele>202</ele>
        <time>2018-08-28T09:58:56Z</time>
      </trkpt>
      <trkpt lat="45.96183" lon="4.77867">
        <ele>201</ele>
        <time>2018-08-28T09:58:58Z</time>
      </trkpt>
      <trkpt lat="45.9618" lon="4.77861">
        <ele>201</ele>
        <time>2018-08-28T09:58:59Z</time>
      </trkpt>
      <trkpt lat="45.96174" lon="4.77851">
        <ele>201</ele>
        <time>2018-08-28T09:59:01Z</time>
      </trkpt>
      <trkpt lat="45.9617" lon="4.77845">
        <ele>200</ele>
        <time>2018-08-28T09:59:02Z</time>
      </trkpt>
      <trkpt lat="45.96165" lon="4.77838">
        <ele>198</ele>
        <time>2018-08-28T09:59:03Z</time>
      </trkpt>
      <trkpt lat="45.96162" lon="4.77832">
        <ele>199</ele>
        <time>2018-08-28T09:59:04Z</time>
      </trkpt>
      <trkpt lat="45.96157" lon="4.77826">
        <ele>198</ele>
        <time>2018-08-28T09:59:05Z</time>
      </trkpt>
      <trkpt lat="45.96152" lon="4.77819">
        <ele>198</ele>
        <time>2018-08-28T09:59:06Z</time>
      </trkpt>
      <trkpt lat="45.96149" lon="4.77813">
        <ele>198</ele>
        <time>2018-08-28T09:59:07Z</time>
      </trkpt>
      <trkpt lat="45.96145" lon="4.77807">
        <ele>198</ele>
        <time>2018-08-28T09:59:08Z</time>
      </trkpt>
      <trkpt lat="45.96141" lon="4.77801">
        <ele>198</ele>
        <time>2018-08-28T09:59:09Z</time>
      </trkpt>
      <trkpt lat="45.96136" lon="4.77794">
        <ele>198</ele>
        <time>2018-08-28T09:59:10Z</time>
      </trkpt>
      <trkpt lat="45.96129" lon="4.77788">
        <ele>197</ele>
        <time>2018-08-28T09:59:11Z</time>
      </trkpt>
      <trkpt lat="45.96125" lon="4.77781">
        <ele>197</ele>
        <time>2018-08-28T09:59:12Z</time>
      </trkpt>
      <trkpt lat="45.96121" lon="4.77774">
        <ele>197</ele>
        <time>2018-08-28T09:59:13Z</time>
      </trkpt>
      <trkpt lat="45.96117" lon="4.77767">
        <ele>197</ele>
        <time>2018-08-28T09:59:14Z</time>
      </trkpt>
      <trkpt lat="45.96113" lon="4.77759">
        <ele>197</ele>
        <time>2018-08-28T09:59:15Z</time>
      </trkpt>
      <trkpt lat="45.96108" lon="4.77753">
        <ele>197</ele>
        <time>2018-08-28T09:59:16Z</time>
      </trkpt>
      <trkpt lat="45.96104" lon="4.77746">
        <ele>198</ele>
        <time>2018-08-28T09:59:17Z</time>
      </trkpt>
      <trkpt lat="45.96101" lon="4.77739">
        <ele>198</ele>
        <time>2018-08-28T09:59:18Z</time>
      </trkpt>
      <trkpt lat="45.96097" lon="4.77732">
        <ele>198</ele>
        <time>2018-08-28T09:59:19Z</time>
      </trkpt>
      <trkpt lat="45.96093" lon="4.77725">
        <ele>199</ele>
        <time>2018-08-28T09:59:20Z</time>
      </trkpt>
      <trkpt lat="45.96089" lon="4.77718">
        <ele>199</ele>
        <time>2018-08-28T09:59:21Z</time>
      </trkpt>
      <trkpt lat="45.96084" lon="4.77711">
        <ele>200</ele>
        <time>2018-08-28T09:59:22Z</time>
      </trkpt>
      <trkpt lat="45.96079" lon="4.77704">
        <ele>197</ele>
        <time>2018-08-28T09:59:23Z</time>
      </trkpt>
      <trkpt lat="45.96074" lon="4.77697">
        <ele>197</ele>
        <time>2018-08-28T09:59:24Z</time>
      </trkpt>
      <trkpt lat="45.96071" lon="4.7769">
        <ele>197</ele>
        <time>2018-08-28T09:59:25Z</time>
      </trkpt>
      <trkpt lat="45.96067" lon="4.77684">
        <ele>198</ele>
        <time>2018-08-28T09:59:26Z</time>
      </trkpt>
      <trkpt lat="45.96063" lon="4.77676">
        <ele>198</ele>
        <time>2018-08-28T09:59:27Z</time>
      </trkpt>
      <trkpt lat="45.9606" lon="4.77671">
        <ele>198</ele>
        <time>2018-08-28T09:59:28Z</time>
      </trkpt>
      <trkpt lat="45.96056" lon="4.77665">
        <ele>200</ele>
        <time>2018-08-28T09:59:29Z</time>
      </trkpt>
      <trkpt lat="45.96053" lon="4.77658">
        <ele>200</ele>
        <time>2018-08-28T09:59:30Z</time>
      </trkpt>
      <trkpt lat="45.96049" lon="4.77652">
        <ele>200</ele>
        <time>2018-08-28T09:59:31Z</time>
      </trkpt>
      <trkpt lat="45.96044" lon="4.77647">
        <ele>199</ele>
        <time>2018-08-28T09:59:32Z</time>
      </trkpt>
      <trkpt lat="45.96042" lon="4.77642">
        <ele>199</ele>
        <time>2018-08-28T09:59:33Z</time>
      </trkpt>
      <trkpt lat="45.96038" lon="4.77636">
        <ele>199</ele>
        <time>2018-08-28T09:59:34Z</time>
      </trkpt>
      <trkpt lat="45.96031" lon="4.77633">
        <ele>199</ele>
        <time>2018-08-28T09:59:35Z</time>
      </trkpt>
      <trkpt lat="45.96026" lon="4.77626">
        <ele>199</ele>
        <time>2018-08-28T09:59:36Z</time>
      </trkpt>
      <trkpt lat="45.96021" lon="4.77621">
        <ele>199</ele>
        <time>2018-08-28T09:59:37Z</time>
      </trkpt>
      <trkpt lat="45.96016" lon="4.77617">
        <ele>199</ele>
        <time>2018-08-28T09:59:38Z</time>
      </trkpt>
      <trkpt lat="45.96011" lon="4.77611">
        <ele>199</ele>
        <time>2018-08-28T09:59:39Z</time>
      </trkpt>
      <trkpt lat="45.96006" lon="4.77606">
        <ele>198</ele>
        <time>2018-08-28T09:59:40Z</time>
      </trkpt>
      <trkpt lat="45.96001" lon="4.77601">
        <ele>198</ele>
        <time>2018-08-28T09:59:41Z</time>
      </trkpt>
      <trkpt lat="45.95999" lon="4.77595">
        <ele>196</ele>
        <time>2018-08-28T09:59:42Z</time>
      </trkpt>
      <trkpt lat="45.95998" lon="4.77589">
        <ele>196</ele>
        <time>2018-08-28T09:59:43Z</time>
      </trkpt>
      <trkpt lat="45.95995" lon="4.77583">
        <ele>197</ele>
        <time>2018-08-28T09:59:44Z</time>
      </trkpt>
      <trkpt lat="45.95991" lon="4.77576">
        <ele>196</ele>
        <time>2018-08-28T09:59:45Z</time>
      </trkpt>
      <trkpt lat="45.95987" lon="4.77569">
        <ele>196</ele>
        <time>2018-08-28T09:59:46Z</time>
      </trkpt>
      <trkpt lat="45.95986" lon="4.77563">
        <ele>196</ele>
        <time>2018-08-28T09:59:47Z</time>
      </trkpt>
      <trkpt lat="45.95982" lon="4.77557">
        <ele>196</ele>
        <time>2018-08-28T09:59:48Z</time>
      </trkpt>
      <trkpt lat="45.95979" lon="4.77548">
        <ele>196</ele>
        <time>2018-08-28T09:59:49Z</time>
      </trkpt>
      <trkpt lat="45.95976" lon="4.77541">
        <ele>196</ele>
        <time>2018-08-28T09:59:50Z</time>
      </trkpt>
      <trkpt lat="45.95973" lon="4.77534">
        <ele>196</ele>
        <time>2018-08-28T09:59:51Z</time>
      </trkpt>
      <trkpt lat="45.95968" lon="4.77528">
        <ele>195</ele>
        <time>2018-08-28T09:59:52Z</time>
      </trkpt>
      <trkpt lat="45.95965" lon="4.77521">
        <ele>195</ele>
        <time>2018-08-28T09:59:53Z</time>
      </trkpt>
      <trkpt lat="45.95963" lon="4.77513">
        <ele>195</ele>
        <time>2018-08-28T09:59:54Z</time>
      </trkpt>
      <trkpt lat="45.95958" lon="4.77506">
        <ele>195</ele>
        <time>2018-08-28T09:59:55Z</time>
      </trkpt>
      <trkpt lat="45.95954" lon="4.77498">
        <ele>196</ele>
        <time>2018-08-28T09:59:56Z</time>
      </trkpt>
      <trkpt lat="45.95951" lon="4.7749">
        <ele>195</ele>
        <time>2018-08-28T09:59:57Z</time>
      </trkpt>
      <trkpt lat="45.95948" lon="4.77482">
        <ele>195</ele>
        <time>2018-08-28T09:59:58Z</time>
      </trkpt>
      <trkpt lat="45.95944" lon="4.77475">
        <ele>195</ele>
        <time>2018-08-28T09:59:59Z</time>
      </trkpt>
      <trkpt lat="45.95942" lon="4.77467">
        <ele>195</ele>
        <time>2018-08-28T10:00:00Z</time>
      </trkpt>
      <trkpt lat="45.95939" lon="4.77458">
        <ele>195</ele>
        <time>2018-08-28T10:00:01Z</time>
      </trkpt>
      <trkpt lat="45.95936" lon="4.7745">
        <ele>195</ele>
        <time>2018-08-28T10:00:02Z</time>
      </trkpt>
      <trkpt lat="45.95939" lon="4.77443">
        <ele>196</ele>
        <time>2018-08-28T10:00:03Z</time>
      </trkpt>
      <trkpt lat="45.95934" lon="4.77433">
        <ele>195</ele>
        <time>2018-08-28T10:00:04Z</time>
      </trkpt>
      <trkpt lat="45.95931" lon="4.77425">
        <ele>195</ele>
        <time>2018-08-28T10:00:05Z</time>
      </trkpt>
      <trkpt lat="45.95928" lon="4.77416">
        <ele>195</ele>
        <time>2018-08-28T10:00:06Z</time>
      </trkpt>
      <trkpt lat="45.95925" lon="4.77407">
        <ele>195</ele>
        <time>2018-08-28T10:00:07Z</time>
      </trkpt>
      <trkpt lat="45.95921" lon="4.77399">
        <ele>196</ele>
        <time>2018-08-28T10:00:08Z</time>
      </trkpt>
      <trkpt lat="45.95918" lon="4.77391">
        <ele>196</ele>
        <time>2018-08-28T10:00:09Z</time>
      </trkpt>
      <trkpt lat="45.95915" lon="4.77385">
        <ele>193</ele>
        <time>2018-08-28T10:00:10Z</time>
      </trkpt>
      <trkpt lat="45.95912" lon="4.77376">
        <ele>193</ele>
        <time>2018-08-28T10:00:11Z</time>
      </trkpt>
      <trkpt lat="45.95911" lon="4.77365">
        <ele>193</ele>
        <time>2018-08-28T10:00:12Z</time>
      </trkpt>
      <trkpt lat="45.95907" lon="4.77357">
        <ele>193</ele>
        <time>2018-08-28T10:00:13Z</time>
      </trkpt>
      <trkpt lat="45.95905" lon="4.77349">
        <ele>193</ele>
        <time>2018-08-28T10:00:14Z</time>
      </trkpt>
      <trkpt lat="45.95902" lon="4.7734">
        <ele>193</ele>
        <time>2018-08-28T10:00:15Z</time>
      </trkpt>
      <trkpt lat="45.95901" lon="4.77329">
        <ele>194</ele>
        <time>2018-08-28T10:00:16Z</time>
      </trkpt>
      <trkpt lat="45.95897" lon="4.7732">
        <ele>193</ele>
        <time>2018-08-28T10:00:17Z</time>
      </trkpt>
      <trkpt lat="45.95894" lon="4.7731">
        <ele>193</ele>
        <time>2018-08-28T10:00:18Z</time>
      </trkpt>
      <trkpt lat="45.9589" lon="4.77301">
        <ele>193</ele>
        <time>2018-08-28T10:00:19Z</time>
      </trkpt>
      <trkpt lat="45.95888" lon="4.77293">
        <ele>193</ele>
        <time>2018-08-28T10:00:20Z</time>
      </trkpt>
      <trkpt lat="45.95887" lon="4.77285">
        <ele>193</ele>
        <time>2018-08-28T10:00:21Z</time>
      </trkpt>
      <trkpt lat="45.95886" lon="4.77276">
        <ele>193</ele>
        <time>2018-08-28T10:00:22Z</time>
      </trkpt>
      <trkpt lat="45.95883" lon="4.77267">
        <ele>193</ele>
        <time>2018-08-28T10:00:23Z</time>
      </trkpt>
      <trkpt lat="45.95878" lon="4.77258">
        <ele>193</ele>
        <time>2018-08-28T10:00:24Z</time>
      </trkpt>
      <trkpt lat="45.95876" lon="4.7725">
        <ele>193</ele>
        <time>2018-08-28T10:00:25Z</time>
      </trkpt>
      <trkpt lat="45.95875" lon="4.77242">
        <ele>193</ele>
        <time>2018-08-28T10:00:26Z</time>
      </trkpt>
      <trkpt lat="45.95874" lon="4.77233">
        <ele>193</ele>
        <time>2018-08-28T10:00:27Z</time>
      </trkpt>
      <trkpt lat="45.95873" lon="4.77226">
        <ele>193</ele>
        <time>2018-08-28T10:00:28Z</time>
      </trkpt>
      <trkpt lat="45.95872" lon="4.77218">
        <ele>193</ele>
        <time>2018-08-28T10:00:29Z</time>
      </trkpt>
      <trkpt lat="45.95869" lon="4.77208">
        <ele>193</ele>
        <time>2018-08-28T10:00:30Z</time>
      </trkpt>
      <trkpt lat="45.95867" lon="4.77199">
        <ele>193</ele>
        <time>2018-08-28T10:00:31Z</time>
      </trkpt>
      <trkpt lat="45.95864" lon="4.7719">
        <ele>192</ele>
        <time>2018-08-28T10:00:32Z</time>
      </trkpt>
      <trkpt lat="45.95862" lon="4.77181">
        <ele>192</ele>
        <time>2018-08-28T10:00:33Z</time>
      </trkpt>
      <trkpt lat="45.9586" lon="4.77174">
        <ele>192</ele>
        <time>2018-08-28T10:00:34Z</time>
      </trkpt>
      <trkpt lat="45.95857" lon="4.77165">
        <ele>192</ele>
        <time>2018-08-28T10:00:35Z</time>
      </trkpt>
      <trkpt lat="45.95856" lon="4.77158">
        <ele>192</ele>
        <time>2018-08-28T10:00:36Z</time>
      </trkpt>
      <trkpt lat="45.95854" lon="4.7715">
        <ele>193</ele>
        <time>2018-08-28T10:00:37Z</time>
      </trkpt>
      <trkpt lat="45.95852" lon="4.77143">
        <ele>193</ele>
        <time>2018-08-28T10:00:38Z</time>
      </trkpt>
      <trkpt lat="45.95848" lon="4.77135">
        <ele>193</ele>
        <time>2018-08-28T10:00:39Z</time>
      </trkpt>
      <trkpt lat="45.95845" lon="4.77128">
        <ele>193</ele>
        <time>2018-08-28T10:00:40Z</time>
      </trkpt>
      <trkpt lat="45.95842" lon="4.77119">
        <ele>193</ele>
        <time>2018-08-28T10:00:41Z</time>
      </trkpt>
      <trkpt lat="45.95839" lon="4.77111">
        <ele>193</ele>
        <time>2018-08-28T10:00:42Z</time>
      </trkpt>
      <trkpt lat="45.95836" lon="4.77103">
        <ele>193</ele>
        <time>2018-08-28T10:00:43Z</time>
      </trkpt>
      <trkpt lat="45.95836" lon="4.77094">
        <ele>193</ele>
        <time>2018-08-28T10:00:44Z</time>
      </trkpt>
      <trkpt lat="45.95835" lon="4.77085">
        <ele>192</ele>
        <time>2018-08-28T10:00:45Z</time>
      </trkpt>
      <trkpt lat="45.95831" lon="4.77077">
        <ele>191</ele>
        <time>2018-08-28T10:00:46Z</time>
      </trkpt>
      <trkpt lat="45.95825" lon="4.7707">
        <ele>191</ele>
        <time>2018-08-28T10:00:47Z</time>
      </trkpt>
      <trkpt lat="45.9582" lon="4.77062">
        <ele>190</ele>
        <time>2018-08-28T10:00:48Z</time>
      </trkpt>
      <trkpt lat="45.95816" lon="4.77053">
        <ele>190</ele>
        <time>2018-08-28T10:00:49Z</time>
      </trkpt>
      <trkpt lat="45.95814" lon="4.77046">
        <ele>190</ele>
        <time>2018-08-28T10:00:50Z</time>
      </trkpt>
      <trkpt lat="45.95809" lon="4.77037">
        <ele>190</ele>
        <time>2018-08-28T10:00:51Z</time>
      </trkpt>
      <trkpt lat="45.95806" lon="4.77028">
        <ele>190</ele>
        <time>2018-08-28T10:00:52Z</time>
      </trkpt>
      <trkpt lat="45.95804" lon="4.77019">
        <ele>190</ele>
        <time>2018-08-28T10:00:53Z</time>
      </trkpt>
      <trkpt lat="45.95801" lon="4.7701">
        <ele>190</ele>
        <time>2018-08-28T10:00:54Z</time>
      </trkpt>
      <trkpt lat="45.95796" lon="4.77001">
        <ele>190</ele>
        <time>2018-08-28T10:00:55Z</time>
      </trkpt>
      <trkpt lat="45.95797" lon="4.76992">
        <ele>189</ele>
        <time>2018-08-28T10:00:56Z</time>
      </trkpt>
      <trkpt lat="45.95797" lon="4.76983">
        <ele>189</ele>
        <time>2018-08-28T10:00:57Z</time>
      </trkpt>
      <trkpt lat="45.958" lon="4.76973">
        <ele>189</ele>
        <time>2018-08-28T10:00:58Z</time>
      </trkpt>
      <trkpt lat="45.95803" lon="4.76964">
        <ele>189</ele>
        <time>2018-08-28T10:00:59Z</time>
      </trkpt>
      <trkpt lat="45.95805" lon="4.76956">
        <ele>189</ele>
        <time>2018-08-28T10:01:00Z</time>
      </trkpt>
      <trkpt lat="45.95807" lon="4.76946">
        <ele>189</ele>
        <time>2018-08-28T10:01:01Z</time>
      </trkpt>
      <trkpt lat="45.95808" lon="4.76938">
        <ele>189</ele>
        <time>2018-08-28T10:01:02Z</time>
      </trkpt>
      <trkpt lat="45.9581" lon="4.76929">
        <ele>189</ele>
        <time>2018-08-28T10:01:03Z</time>
      </trkpt>
      <trkpt lat="45.95812" lon="4.76921">
        <ele>189</ele>
        <time>2018-08-28T10:01:04Z</time>
      </trkpt>
      <trkpt lat="45.95814" lon="4.76915">
        <ele>189</ele>
        <time>2018-08-28T10:01:05Z</time>
      </trkpt>
      <trkpt lat="45.95816" lon="4.76908">
        <ele>189</ele>
        <time>2018-08-28T10:01:06Z</time>
      </trkpt>
      <trkpt lat="45.95818" lon="4.769">
        <ele>189</ele>
        <time>2018-08-28T10:01:07Z</time>
      </trkpt>
      <trkpt lat="45.9582" lon="4.76891">
        <ele>189</ele>
        <time>2018-08-28T10:01:08Z</time>
      </trkpt>
      <trkpt lat="45.95822" lon="4.76883">
        <ele>189</ele>
        <time>2018-08-28T10:01:09Z</time>
      </trkpt>
      <trkpt lat="45.95822" lon="4.76875">
        <ele>189</ele>
        <time>2018-08-28T10:01:10Z</time>
      </trkpt>
      <trkpt lat="45.95824" lon="4.76867">
        <ele>189</ele>
        <time>2018-08-28T10:01:11Z</time>
      </trkpt>
      <trkpt lat="45.95825" lon="4.76859">
        <ele>189</ele>
        <time>2018-08-28T10:01:12Z</time>
      </trkpt>
      <trkpt lat="45.95826" lon="4.76853">
        <ele>190</ele>
        <time>2018-08-28T10:01:13Z</time>
      </trkpt>
      <trkpt lat="45.95825" lon="4.76845">
        <ele>190</ele>
        <time>2018-08-28T10:01:14Z</time>
      </trkpt>
      <trkpt lat="45.95828" lon="4.76837">
        <ele>190</ele>
        <time>2018-08-28T10:01:15Z</time>
      </trkpt>
      <trkpt lat="45.95827" lon="4.76831">
        <ele>190</ele>
        <time>2018-08-28T10:01:16Z</time>
      </trkpt>
      <trkpt lat="45.95829" lon="4.76824">
        <ele>190</ele>
        <time>2018-08-28T10:01:17Z</time>
      </trkpt>
      <trkpt lat="45.9583" lon="4.76818">
        <ele>190</ele>
        <time>2018-08-28T10:01:18Z</time>
      </trkpt>
      <trkpt lat="45.95831" lon="4.76806">
        <ele>190</ele>
        <time>2018-08-28T10:01:20Z</time>
      </trkpt>
      <trkpt lat="45.95831" lon="4.76803">
        <ele>190</ele>
        <time>2018-08-28T10:01:21Z</time>
      </trkpt>
      <trkpt lat="45.95833" lon="4.76799">
        <ele>190</ele>
        <time>2018-08-28T10:01:22Z</time>
      </trkpt>
      <trkpt lat="45.95835" lon="4.76791">
        <ele>191</ele>
        <time>2018-08-28T10:01:23Z</time>
      </trkpt>
      <trkpt lat="45.95834" lon="4.76786">
        <ele>191</ele>
        <time>2018-08-28T10:01:24Z</time>
      </trkpt>
      <trkpt lat="45.95832" lon="4.76778">
        <ele>190</ele>
        <time>2018-08-28T10:01:25Z</time>
      </trkpt>
      <trkpt lat="45.95831" lon="4.76773">
        <ele>190</ele>
        <time>2018-08-28T10:01:26Z</time>
      </trkpt>
      <trkpt lat="45.9583" lon="4.76765">
        <ele>190</ele>
        <time>2018-08-28T10:01:27Z</time>
      </trkpt>
      <trkpt lat="45.95828" lon="4.76758">
        <ele>191</ele>
        <time>2018-08-28T10:01:28Z</time>
      </trkpt>
      <trkpt lat="45.95826" lon="4.7675">
        <ele>190</ele>
        <time>2018-08-28T10:01:29Z</time>
      </trkpt>
      <trkpt lat="45.95825" lon="4.76741">
        <ele>190</ele>
        <time>2018-08-28T10:01:30Z</time>
      </trkpt>
      <trkpt lat="45.95824" lon="4.76732">
        <ele>190</ele>
        <time>2018-08-28T10:01:31Z</time>
      </trkpt>
      <trkpt lat="45.95823" lon="4.76723">
        <ele>190</ele>
        <time>2018-08-28T10:01:32Z</time>
      </trkpt>
      <trkpt lat="45.95822" lon="4.76714">
        <ele>189</ele>
        <time>2018-08-28T10:01:33Z</time>
      </trkpt>
      <trkpt lat="45.9582" lon="4.76708">
        <ele>189</ele>
        <time>2018-08-28T10:01:34Z</time>
      </trkpt>
      <trkpt lat="45.95818" lon="4.767">
        <ele>189</ele>
        <time>2018-08-28T10:01:35Z</time>
      </trkpt>
      <trkpt lat="45.95816" lon="4.76687">
        <ele>189</ele>
        <time>2018-08-28T10:01:37Z</time>
      </trkpt>
      <trkpt lat="45.95814" lon="4.76677">
        <ele>189</ele>
        <time>2018-08-28T10:01:38Z</time>
      </trkpt>
      <trkpt lat="45.95812" lon="4.76668">
        <ele>189</ele>
        <time>2018-08-28T10:01:39Z</time>
      </trkpt>
      <trkpt lat="45.95813" lon="4.76657">
        <ele>188</ele>
        <time>2018-08-28T10:01:40Z</time>
      </trkpt>
      <trkpt lat="45.95811" lon="4.76647">
        <ele>188</ele>
        <time>2018-08-28T10:01:41Z</time>
      </trkpt>
      <trkpt lat="45.95809" lon="4.76636">
        <ele>188</ele>
        <time>2018-08-28T10:01:42Z</time>
      </trkpt>
      <trkpt lat="45.95807" lon="4.76626">
        <ele>188</ele>
        <time>2018-08-28T10:01:43Z</time>
      </trkpt>
      <trkpt lat="45.95807" lon="4.76619">
        <ele>188</ele>
        <time>2018-08-28T10:01:44Z</time>
      </trkpt>
      <trkpt lat="45.95806" lon="4.76611">
        <ele>188</ele>
        <time>2018-08-28T10:01:45Z</time>
      </trkpt>
      <trkpt lat="45.95805" lon="4.76601">
        <ele>188</ele>
        <time>2018-08-28T10:01:46Z</time>
      </trkpt>
      <trkpt lat="45.95802" lon="4.76592">
        <ele>187</ele>
        <time>2018-08-28T10:01:47Z</time>
      </trkpt>
      <trkpt lat="45.958" lon="4.76583">
        <ele>187</ele>
        <time>2018-08-28T10:01:48Z</time>
      </trkpt>
      <trkpt lat="45.95799" lon="4.76573">
        <ele>187</ele>
        <time>2018-08-28T10:01:49Z</time>
      </trkpt>
      <trkpt lat="45.95799" lon="4.76564">
        <ele>187</ele>
        <time>2018-08-28T10:01:50Z</time>
      </trkpt>
      <trkpt lat="45.95797" lon="4.76554">
        <ele>187</ele>
        <time>2018-08-28T10:01:51Z</time>
      </trkpt>
      <trkpt lat="45.95796" lon="4.76545">
        <ele>187</ele>
        <time>2018-08-28T10:01:52Z</time>
      </trkpt>
      <trkpt lat="45.95795" lon="4.76539">
        <ele>187</ele>
        <time>2018-08-28T10:01:53Z</time>
      </trkpt>
      <trkpt lat="45.95794" lon="4.7653">
        <ele>187</ele>
        <time>2018-08-28T10:01:54Z</time>
      </trkpt>
      <trkpt lat="45.95792" lon="4.76521">
        <ele>187</ele>
        <time>2018-08-28T10:01:55Z</time>
      </trkpt>
      <trkpt lat="45.9579" lon="4.76512">
        <ele>187</ele>
        <time>2018-08-28T10:01:56Z</time>
      </trkpt>
      <trkpt lat="45.95789" lon="4.76503">
        <ele>187</ele>
        <time>2018-08-28T10:01:57Z</time>
      </trkpt>
      <trkpt lat="45.95788" lon="4.76495">
        <ele>186</ele>
        <time>2018-08-28T10:01:58Z</time>
      </trkpt>
      <trkpt lat="45.95785" lon="4.76488">
        <ele>186</ele>
        <time>2018-08-28T10:01:59Z</time>
      </trkpt>
      <trkpt lat="45.95783" lon="4.76479">
        <ele>186</ele>
        <time>2018-08-28T10:02:00Z</time>
      </trkpt>
      <trkpt lat="45.9578" lon="4.76473">
        <ele>186</ele>
        <time>2018-08-28T10:02:01Z</time>
      </trkpt>
      <trkpt lat="45.95782" lon="4.76465">
        <ele>186</ele>
        <time>2018-08-28T10:02:02Z</time>
      </trkpt>
      <trkpt lat="45.95778" lon="4.76456">
        <ele>186</ele>
        <time>2018-08-28T10:02:03Z</time>
      </trkpt>
      <trkpt lat="45.95778" lon="4.76447">
        <ele>186</ele>
        <time>2018-08-28T10:02:04Z</time>
      </trkpt>
      <trkpt lat="45.9578" lon="4.76439">
        <ele>186</ele>
        <time>2018-08-28T10:02:05Z</time>
      </trkpt>
      <trkpt lat="45.9578" lon="4.7643">
        <ele>186</ele>
        <time>2018-08-28T10:02:06Z</time>
      </trkpt>
      <trkpt lat="45.95779" lon="4.76421">
        <ele>186</ele>
        <time>2018-08-28T10:02:07Z</time>
      </trkpt>
      <trkpt lat="45.95776" lon="4.7641">
        <ele>186</ele>
        <time>2018-08-28T10:02:08Z</time>
      </trkpt>
      <trkpt lat="45.95773" lon="4.76401">
        <ele>186</ele>
        <time>2018-08-28T10:02:09Z</time>
      </trkpt>
      <trkpt lat="45.95772" lon="4.76394">
        <ele>186</ele>
        <time>2018-08-28T10:02:10Z</time>
      </trkpt>
      <trkpt lat="45.95772" lon="4.76385">
        <ele>186</ele>
        <time>2018-08-28T10:02:11Z</time>
      </trkpt>
      <trkpt lat="45.95772" lon="4.76375">
        <ele>186</ele>
        <time>2018-08-28T10:02:12Z</time>
      </trkpt>
      <trkpt lat="45.95772" lon="4.76365">
        <ele>186</ele>
        <time>2018-08-28T10:02:13Z</time>
      </trkpt>
      <trkpt lat="45.95771" lon="4.76355">
        <ele>186</ele>
        <time>2018-08-28T10:02:14Z</time>
      </trkpt>
      <trkpt lat="45.9577" lon="4.76344">
        <ele>186</ele>
        <time>2018-08-28T10:02:15Z</time>
      </trkpt>
      <trkpt lat="45.9577" lon="4.76335">
        <ele>186</ele>
        <time>2018-08-28T10:02:16Z</time>
      </trkpt>
      <trkpt lat="45.95769" lon="4.76325">
        <ele>185</ele>
        <time>2018-08-28T10:02:17Z</time>
      </trkpt>
      <trkpt lat="45.95768" lon="4.76316">
        <ele>185</ele>
        <time>2018-08-28T10:02:18Z</time>
      </trkpt>
      <trkpt lat="45.95768" lon="4.76307">
        <ele>186</ele>
        <time>2018-08-28T10:02:19Z</time>
      </trkpt>
      <trkpt lat="45.95769" lon="4.76299">
        <ele>186</ele>
        <time>2018-08-28T10:02:20Z</time>
      </trkpt>
      <trkpt lat="45.95768" lon="4.7629">
        <ele>186</ele>
        <time>2018-08-28T10:02:21Z</time>
      </trkpt>
      <trkpt lat="45.95768" lon="4.7628">
        <ele>186</ele>
        <time>2018-08-28T10:02:22Z</time>
      </trkpt>
      <trkpt lat="45.95768" lon="4.76271">
        <ele>186</ele>
        <time>2018-08-28T10:02:23Z</time>
      </trkpt>
      <trkpt lat="45.95767" lon="4.76261">
        <ele>185</ele>
        <time>2018-08-28T10:02:24Z</time>
      </trkpt>
      <trkpt lat="45.95767" lon="4.76252">
        <ele>185</ele>
        <time>2018-08-28T10:02:25Z</time>
      </trkpt>
      <trkpt lat="45.95766" lon="4.76242">
        <ele>186</ele>
        <time>2018-08-28T10:02:26Z</time>
      </trkpt>
      <trkpt lat="45.95766" lon="4.76233">
        <ele>186</ele>
        <time>2018-08-28T10:02:27Z</time>
      </trkpt>
      <trkpt lat="45.95765" lon="4.76223">
        <ele>186</ele>
        <time>2018-08-28T10:02:28Z</time>
      </trkpt>
      <trkpt lat="45.95764" lon="4.76213">
        <ele>186</ele>
        <time>2018-08-28T10:02:29Z</time>
      </trkpt>
      <trkpt lat="45.95764" lon="4.76203">
        <ele>186</ele>
        <time>2018-08-28T10:02:30Z</time>
      </trkpt>
      <trkpt lat="45.95763" lon="4.76192">
        <ele>186</ele>
        <time>2018-08-28T10:02:31Z</time>
      </trkpt>
      <trkpt lat="45.95762" lon="4.76183">
        <ele>186</ele>
        <time>2018-08-28T10:02:32Z</time>
      </trkpt>
      <trkpt lat="45.95761" lon="4.76172">
        <ele>185</ele>
        <time>2018-08-28T10:02:33Z</time>
      </trkpt>
      <trkpt lat="45.95761" lon="4.76164">
        <ele>186</ele>
        <time>2018-08-28T10:02:34Z</time>
      </trkpt>
      <trkpt lat="45.95761" lon="4.76155">
        <ele>186</ele>
        <time>2018-08-28T10:02:35Z</time>
      </trkpt>
      <trkpt lat="45.9576" lon="4.76146">
        <ele>186</ele>
        <time>2018-08-28T10:02:36Z</time>
      </trkpt>
      <trkpt lat="45.95757" lon="4.76135">
        <ele>186</ele>
        <time>2018-08-28T10:02:37Z</time>
      </trkpt>
      <trkpt lat="45.95756" lon="4.76126">
        <ele>186</ele>
        <time>2018-08-28T10:02:38Z</time>
      </trkpt>
      <trkpt lat="45.95756" lon="4.76118">
        <ele>186</ele>
        <time>2018-08-28T10:02:39Z</time>
      </trkpt>
      <trkpt lat="45.95755" lon="4.76111">
        <ele>186</ele>
        <time>2018-08-28T10:02:40Z</time>
      </trkpt>
      <trkpt lat="45.95753" lon="4.76102">
        <ele>186</ele>
        <time>2018-08-28T10:02:41Z</time>
      </trkpt>
      <trkpt lat="45.9575" lon="4.76093">
        <ele>185</ele>
        <time>2018-08-28T10:02:42Z</time>
      </trkpt>
      <trkpt lat="45.95749" lon="4.76085">
        <ele>185</ele>
        <time>2018-08-28T10:02:43Z</time>
      </trkpt>
      <trkpt lat="45.95749" lon="4.76078">
        <ele>185</ele>
        <time>2018-08-28T10:02:44Z</time>
      </trkpt>
      <trkpt lat="45.95744" lon="4.76071">
        <ele>185</ele>
        <time>2018-08-28T10:02:45Z</time>
      </trkpt>
      <trkpt lat="45.9574" lon="4.76064">
        <ele>184</ele>
        <time>2018-08-28T10:02:46Z</time>
      </trkpt>
      <trkpt lat="45.95737" lon="4.76056">
        <ele>184</ele>
        <time>2018-08-28T10:02:47Z</time>
      </trkpt>
      <trkpt lat="45.95733" lon="4.76047">
        <ele>184</ele>
        <time>2018-08-28T10:02:48Z</time>
      </trkpt>
      <trkpt lat="45.95729" lon="4.76039">
        <ele>184</ele>
        <time>2018-08-28T10:02:49Z</time>
      </trkpt>
      <trkpt lat="45.95726" lon="4.76031">
        <ele>184</ele>
        <time>2018-08-28T10:02:50Z</time>
      </trkpt>
      <trkpt lat="45.95721" lon="4.76023">
        <ele>184</ele>
        <time>2018-08-28T10:02:51Z</time>
      </trkpt>
      <trkpt lat="45.95718" lon="4.76015">
        <ele>184</ele>
        <time>2018-08-28T10:02:52Z</time>
      </trkpt>
      <trkpt lat="45.95714" lon="4.76006">
        <ele>184</ele>
        <time>2018-08-28T10:02:53Z</time>
      </trkpt>
      <trkpt lat="45.95709" lon="4.75997">
        <ele>185</ele>
        <time>2018-08-28T10:02:54Z</time>
      </trkpt>
      <trkpt lat="45.95702" lon="4.7599">
        <ele>185</ele>
        <time>2018-08-28T10:02:55Z</time>
      </trkpt>
      <trkpt lat="45.95701" lon="4.75981">
        <ele>185</ele>
        <time>2018-08-28T10:02:56Z</time>
      </trkpt>
      <trkpt lat="45.95698" lon="4.75973">
        <ele>185</ele>
        <time>2018-08-28T10:02:57Z</time>
      </trkpt>
      <trkpt lat="45.95694" lon="4.75964">
        <ele>185</ele>
        <time>2018-08-28T10:02:58Z</time>
      </trkpt>
      <trkpt lat="45.95691" lon="4.75956">
        <ele>185</ele>
        <time>2018-08-28T10:02:59Z</time>
      </trkpt>
      <trkpt lat="45.95688" lon="4.75949">
        <ele>185</ele>
        <time>2018-08-28T10:03:00Z</time>
      </trkpt>
      <trkpt lat="45.95685" lon="4.7594">
        <ele>185</ele>
        <time>2018-08-28T10:03:01Z</time>
      </trkpt>
      <trkpt lat="45.95681" lon="4.75931">
        <ele>185</ele>
        <time>2018-08-28T10:03:02Z</time>
      </trkpt>
      <trkpt lat="45.95677" lon="4.75923">
        <ele>185</ele>
        <time>2018-08-28T10:03:03Z</time>
      </trkpt>
      <trkpt lat="45.95674" lon="4.75915">
        <ele>185</ele>
        <time>2018-08-28T10:03:04Z</time>
      </trkpt>
      <trkpt lat="45.95673" lon="4.75907">
        <ele>185</ele>
        <time>2018-08-28T10:03:05Z</time>
      </trkpt>
      <trkpt lat="45.95668" lon="4.75898">
        <ele>185</ele>
        <time>2018-08-28T10:03:06Z</time>
      </trkpt>
      <trkpt lat="45.95665" lon="4.7589">
        <ele>184</ele>
        <time>2018-08-28T10:03:07Z</time>
      </trkpt>
      <trkpt lat="45.95662" lon="4.75882">
        <ele>184</ele>
        <time>2018-08-28T10:03:08Z</time>
      </trkpt>
      <trkpt lat="45.95658" lon="4.75873">
        <ele>184</ele>
        <time>2018-08-28T10:03:09Z</time>
      </trkpt>
      <trkpt lat="45.95655" lon="4.75864">
        <ele>184</ele>
        <time>2018-08-28T10:03:10Z</time>
      </trkpt>
      <trkpt lat="45.95652" lon="4.75855">
        <ele>184</ele>
        <time>2018-08-28T10:03:11Z</time>
      </trkpt>
      <trkpt lat="45.95647" lon="4.75848">
        <ele>184</ele>
        <time>2018-08-28T10:03:12Z</time>
      </trkpt>
      <trkpt lat="45.95646" lon="4.7584">
        <ele>184</ele>
        <time>2018-08-28T10:03:13Z</time>
      </trkpt>
      <trkpt lat="45.95643" lon="4.75833">
        <ele>185</ele>
        <time>2018-08-28T10:03:14Z</time>
      </trkpt>
      <trkpt lat="45.95641" lon="4.75824">
        <ele>185</ele>
        <time>2018-08-28T10:03:15Z</time>
      </trkpt>
      <trkpt lat="45.95639" lon="4.75816">
        <ele>185</ele>
        <time>2018-08-28T10:03:16Z</time>
      </trkpt>
      <trkpt lat="45.95637" lon="4.75808">
        <ele>185</ele>
        <time>2018-08-28T10:03:17Z</time>
      </trkpt>
      <trkpt lat="45.95637" lon="4.758">
        <ele>185</ele>
        <time>2018-08-28T10:03:18Z</time>
      </trkpt>
      <trkpt lat="45.95634" lon="4.75791">
        <ele>185</ele>
        <time>2018-08-28T10:03:19Z</time>
      </trkpt>
      <trkpt lat="45.95633" lon="4.75782">
        <ele>185</ele>
        <time>2018-08-28T10:03:20Z</time>
      </trkpt>
      <trkpt lat="45.95632" lon="4.75776">
        <ele>185</ele>
        <time>2018-08-28T10:03:21Z</time>
      </trkpt>
      <trkpt lat="45.95633" lon="4.75768">
        <ele>186</ele>
        <time>2018-08-28T10:03:22Z</time>
      </trkpt>
      <trkpt lat="45.95633" lon="4.75759">
        <ele>186</ele>
        <time>2018-08-28T10:03:23Z</time>
      </trkpt>
      <trkpt lat="45.95634" lon="4.75751">
        <ele>186</ele>
        <time>2018-08-28T10:03:24Z</time>
      </trkpt>
      <trkpt lat="45.95633" lon="4.75742">
        <ele>187</ele>
        <time>2018-08-28T10:03:25Z</time>
      </trkpt>
      <trkpt lat="45.95632" lon="4.75733">
        <ele>187</ele>
        <time>2018-08-28T10:03:26Z</time>
      </trkpt>
      <trkpt lat="45.95631" lon="4.75725">
        <ele>187</ele>
        <time>2018-08-28T10:03:27Z</time>
      </trkpt>
      <trkpt lat="45.95629" lon="4.75716">
        <ele>187</ele>
        <time>2018-08-28T10:03:28Z</time>
      </trkpt>
      <trkpt lat="45.95627" lon="4.75709">
        <ele>187</ele>
        <time>2018-08-28T10:03:29Z</time>
      </trkpt>
      <trkpt lat="45.95626" lon="4.75701">
        <ele>187</ele>
        <time>2018-08-28T10:03:30Z</time>
      </trkpt>
      <trkpt lat="45.95624" lon="4.75693">
        <ele>187</ele>
        <time>2018-08-28T10:03:31Z</time>
      </trkpt>
      <trkpt lat="45.95622" lon="4.75685">
        <ele>187</ele>
        <time>2018-08-28T10:03:32Z</time>
      </trkpt>
      <trkpt lat="45.95621" lon="4.75677">
        <ele>187</ele>
        <time>2018-08-28T10:03:33Z</time>
      </trkpt>
      <trkpt lat="45.95619" lon="4.75668">
        <ele>187</ele>
        <time>2018-08-28T10:03:34Z</time>
      </trkpt>
      <trkpt lat="45.95618" lon="4.75659">
        <ele>188</ele>
        <time>2018-08-28T10:03:35Z</time>
      </trkpt>
      <trkpt lat="45.95616" lon="4.7565">
        <ele>188</ele>
        <time>2018-08-28T10:03:36Z</time>
      </trkpt>
      <trkpt lat="45.95615" lon="4.75642">
        <ele>188</ele>
        <time>2018-08-28T10:03:37Z</time>
      </trkpt>
      <trkpt lat="45.95612" lon="4.75634">
        <ele>188</ele>
        <time>2018-08-28T10:03:38Z</time>
      </trkpt>
      <trkpt lat="45.9561" lon="4.75627">
        <ele>188</ele>
        <time>2018-08-28T10:03:39Z</time>
      </trkpt>
      <trkpt lat="45.95607" lon="4.7562">
        <ele>188</ele>
        <time>2018-08-28T10:03:40Z</time>
      </trkpt>
      <trkpt lat="45.95605" lon="4.75613">
        <ele>188</ele>
        <time>2018-08-28T10:03:41Z</time>
      </trkpt>
      <trkpt lat="45.95603" lon="4.75606">
        <ele>187</ele>
        <time>2018-08-28T10:03:42Z</time>
      </trkpt>
      <trkpt lat="45.95601" lon="4.756">
        <ele>187</ele>
        <time>2018-08-28T10:03:43Z</time>
      </trkpt>
      <trkpt lat="45.95599" lon="4.75594">
        <ele>187</ele>
        <time>2018-08-28T10:03:44Z</time>
      </trkpt>
      <trkpt lat="45.95595" lon="4.75583">
        <ele>187</ele>
        <time>2018-08-28T10:03:46Z</time>
      </trkpt>
      <trkpt lat="45.95592" lon="4.75576">
        <ele>187</ele>
        <time>2018-08-28T10:03:47Z</time>
      </trkpt>
      <trkpt lat="45.95589" lon="4.75569">
        <ele>188</ele>
        <time>2018-08-28T10:03:48Z</time>
      </trkpt>
      <trkpt lat="45.95585" lon="4.75564">
        <ele>188</ele>
        <time>2018-08-28T10:03:49Z</time>
      </trkpt>
      <trkpt lat="45.95582" lon="4.75558">
        <ele>186</ele>
        <time>2018-08-28T10:03:50Z</time>
      </trkpt>
      <trkpt lat="45.9558" lon="4.75551">
        <ele>186</ele>
        <time>2018-08-28T10:03:51Z</time>
      </trkpt>
      <trkpt lat="45.95576" lon="4.75545">
        <ele>186</ele>
        <time>2018-08-28T10:03:52Z</time>
      </trkpt>
      <trkpt lat="45.95573" lon="4.75541">
        <ele>186</ele>
        <time>2018-08-28T10:03:53Z</time>
      </trkpt>
      <trkpt lat="45.95568" lon="4.75534">
        <ele>186</ele>
        <time>2018-08-28T10:03:54Z</time>
      </trkpt>
      <trkpt lat="45.95566" lon="4.7553">
        <ele>186</ele>
        <time>2018-08-28T10:03:55Z</time>
      </trkpt>
      <trkpt lat="45.95561" lon="4.75523">
        <ele>186</ele>
        <time>2018-08-28T10:03:56Z</time>
      </trkpt>
      <trkpt lat="45.95559" lon="4.75518">
        <ele>186</ele>
        <time>2018-08-28T10:03:57Z</time>
      </trkpt>
      <trkpt lat="45.95548" lon="4.75511">
        <ele>186</ele>
        <time>2018-08-28T10:03:58Z</time>
      </trkpt>
      <trkpt lat="45.95544" lon="4.75503">
        <ele>186</ele>
        <time>2018-08-28T10:03:59Z</time>
      </trkpt>
      <trkpt lat="45.95545" lon="4.75495">
        <ele>187</ele>
        <time>2018-08-28T10:04:00Z</time>
      </trkpt>
      <trkpt lat="45.95543" lon="4.75487">
        <ele>187</ele>
        <time>2018-08-28T10:04:01Z</time>
      </trkpt>
      <trkpt lat="45.95543" lon="4.75479">
        <ele>187</ele>
        <time>2018-08-28T10:04:02Z</time>
      </trkpt>
      <trkpt lat="45.95541" lon="4.75471">
        <ele>187</ele>
        <time>2018-08-28T10:04:03Z</time>
      </trkpt>
      <trkpt lat="45.95539" lon="4.75463">
        <ele>187</ele>
        <time>2018-08-28T10:04:04Z</time>
      </trkpt>
      <trkpt lat="45.95535" lon="4.75457">
        <ele>187</ele>
        <time>2018-08-28T10:04:05Z</time>
      </trkpt>
      <trkpt lat="45.95531" lon="4.7545">
        <ele>187</ele>
        <time>2018-08-28T10:04:06Z</time>
      </trkpt>
      <trkpt lat="45.95527" lon="4.75444">
        <ele>187</ele>
        <time>2018-08-28T10:04:07Z</time>
      </trkpt>
      <trkpt lat="45.95522" lon="4.75438">
        <ele>187</ele>
        <time>2018-08-28T10:04:08Z</time>
      </trkpt>
      <trkpt lat="45.95519" lon="4.7543">
        <ele>187</ele>
        <time>2018-08-28T10:04:09Z</time>
      </trkpt>
      <trkpt lat="45.95516" lon="4.75424">
        <ele>186</ele>
        <time>2018-08-28T10:04:10Z</time>
      </trkpt>
      <trkpt lat="45.95513" lon="4.75417">
        <ele>186</ele>
        <time>2018-08-28T10:04:11Z</time>
      </trkpt>
      <trkpt lat="45.95511" lon="4.7541">
        <ele>187</ele>
        <time>2018-08-28T10:04:12Z</time>
      </trkpt>
      <trkpt lat="45.95507" lon="4.754">
        <ele>187</ele>
        <time>2018-08-28T10:04:14Z</time>
      </trkpt>
      <trkpt lat="45.95506" lon="4.75393">
        <ele>188</ele>
        <time>2018-08-28T10:04:15Z</time>
      </trkpt>
      <trkpt lat="45.95502" lon="4.75388">
        <ele>188</ele>
        <time>2018-08-28T10:04:16Z</time>
      </trkpt>
      <trkpt lat="45.955" lon="4.75381">
        <ele>185</ele>
        <time>2018-08-28T10:04:17Z</time>
      </trkpt>
      <trkpt lat="45.95498" lon="4.75375">
        <ele>185</ele>
        <time>2018-08-28T10:04:18Z</time>
      </trkpt>
      <trkpt lat="45.95495" lon="4.75369">
        <ele>186</ele>
        <time>2018-08-28T10:04:19Z</time>
      </trkpt>
      <trkpt lat="45.95491" lon="4.75363">
        <ele>186</ele>
        <time>2018-08-28T10:04:20Z</time>
      </trkpt>
      <trkpt lat="45.95486" lon="4.75356">
        <ele>186</ele>
        <time>2018-08-28T10:04:21Z</time>
      </trkpt>
      <trkpt lat="45.95483" lon="4.7535">
        <ele>186</ele>
        <time>2018-08-28T10:04:22Z</time>
      </trkpt>
      <trkpt lat="45.9548" lon="4.75343">
        <ele>186</ele>
        <time>2018-08-28T10:04:23Z</time>
      </trkpt>
      <trkpt lat="45.95476" lon="4.75337">
        <ele>186</ele>
        <time>2018-08-28T10:04:24Z</time>
      </trkpt>
      <trkpt lat="45.95473" lon="4.75331">
        <ele>188</ele>
        <time>2018-08-28T10:04:25Z</time>
      </trkpt>
      <trkpt lat="45.9547" lon="4.75325">
        <ele>188</ele>
        <time>2018-08-28T10:04:26Z</time>
      </trkpt>
      <trkpt lat="45.95467" lon="4.7532">
        <ele>188</ele>
        <time>2018-08-28T10:04:27Z</time>
      </trkpt>
      <trkpt lat="45.9546" lon="4.75313">
        <ele>188</ele>
        <time>2018-08-28T10:04:28Z</time>
      </trkpt>
      <trkpt lat="45.95457" lon="4.75307">
        <ele>188</ele>
        <time>2018-08-28T10:04:29Z</time>
      </trkpt>
      <trkpt lat="45.95454" lon="4.753">
        <ele>188</ele>
        <time>2018-08-28T10:04:30Z</time>
      </trkpt>
      <trkpt lat="45.95451" lon="4.75294">
        <ele>188</ele>
        <time>2018-08-28T10:04:31Z</time>
      </trkpt>
      <trkpt lat="45.95447" lon="4.75288">
        <ele>188</ele>
        <time>2018-08-28T10:04:32Z</time>
      </trkpt>
      <trkpt lat="45.95444" lon="4.75282">
        <ele>188</ele>
        <time>2018-08-28T10:04:33Z</time>
      </trkpt>
      <trkpt lat="45.95441" lon="4.75276">
        <ele>189</ele>
        <time>2018-08-28T10:04:34Z</time>
      </trkpt>
      <trkpt lat="45.95439" lon="4.75269">
        <ele>189</ele>
        <time>2018-08-28T10:04:35Z</time>
      </trkpt>
      <trkpt lat="45.95438" lon="4.75262">
        <ele>189</ele>
        <time>2018-08-28T10:04:36Z</time>
      </trkpt>
      <trkpt lat="45.95432" lon="4.75255">
        <ele>189</ele>
        <time>2018-08-28T10:04:37Z</time>
      </trkpt>
      <trkpt lat="45.95429" lon="4.75249">
        <ele>190</ele>
        <time>2018-08-28T10:04:38Z</time>
      </trkpt>
      <trkpt lat="45.95426" lon="4.75243">
        <ele>190</ele>
        <time>2018-08-28T10:04:39Z</time>
      </trkpt>
      <trkpt lat="45.95423" lon="4.75237">
        <ele>190</ele>
        <time>2018-08-28T10:04:40Z</time>
      </trkpt>
      <trkpt lat="45.9542" lon="4.75231">
        <ele>190</ele>
        <time>2018-08-28T10:04:41Z</time>
      </trkpt>
      <trkpt lat="45.95416" lon="4.75222">
        <ele>189</ele>
        <time>2018-08-28T10:04:43Z</time>
      </trkpt>
      <trkpt lat="45.95411" lon="4.75216">
        <ele>189</ele>
        <time>2018-08-28T10:04:44Z</time>
      </trkpt>
      <trkpt lat="45.95408" lon="4.7521">
        <ele>189</ele>
        <time>2018-08-28T10:04:45Z</time>
      </trkpt>
      <trkpt lat="45.95405" lon="4.75204">
        <ele>189</ele>
        <time>2018-08-28T10:04:46Z</time>
      </trkpt>
      <trkpt lat="45.95398" lon="4.75199">
        <ele>189</ele>
        <time>2018-08-28T10:04:47Z</time>
      </trkpt>
      <trkpt lat="45.95395" lon="4.75193">
        <ele>189</ele>
        <time>2018-08-28T10:04:48Z</time>
      </trkpt>
      <trkpt lat="45.95392" lon="4.75187">
        <ele>189</ele>
        <time>2018-08-28T10:04:49Z</time>
      </trkpt>
      <trkpt lat="45.9539" lon="4.75182">
        <ele>189</ele>
        <time>2018-08-28T10:04:50Z</time>
      </trkpt>
      <trkpt lat="45.95387" lon="4.75177">
        <ele>189</ele>
        <time>2018-08-28T10:04:51Z</time>
      </trkpt>
      <trkpt lat="45.95382" lon="4.7517">
        <ele>189</ele>
        <time>2018-08-28T10:04:52Z</time>
      </trkpt>
      <trkpt lat="45.95379" lon="4.75164">
        <ele>191</ele>
        <time>2018-08-28T10:04:53Z</time>
      </trkpt>
      <trkpt lat="45.95375" lon="4.75156">
        <ele>191</ele>
        <time>2018-08-28T10:04:54Z</time>
      </trkpt>
      <trkpt lat="45.95371" lon="4.7515">
        <ele>191</ele>
        <time>2018-08-28T10:04:55Z</time>
      </trkpt>
      <trkpt lat="45.95368" lon="4.75144">
        <ele>191</ele>
        <time>2018-08-28T10:04:56Z</time>
      </trkpt>
      <trkpt lat="45.95365" lon="4.75139">
        <ele>191</ele>
        <time>2018-08-28T10:04:57Z</time>
      </trkpt>
      <trkpt lat="45.95362" lon="4.75134">
        <ele>191</ele>
        <time>2018-08-28T10:04:58Z</time>
      </trkpt>
      <trkpt lat="45.95359" lon="4.75128">
        <ele>191</ele>
        <time>2018-08-28T10:04:59Z</time>
      </trkpt>
      <trkpt lat="45.95356" lon="4.75123">
        <ele>191</ele>
        <time>2018-08-28T10:05:00Z</time>
      </trkpt>
      <trkpt lat="45.95352" lon="4.75117">
        <ele>192</ele>
        <time>2018-08-28T10:05:01Z</time>
      </trkpt>
      <trkpt lat="45.95349" lon="4.75112">
        <ele>192</ele>
        <time>2018-08-28T10:05:02Z</time>
      </trkpt>
      <trkpt lat="45.95344" lon="4.75108">
        <ele>192</ele>
        <time>2018-08-28T10:05:03Z</time>
      </trkpt>
      <trkpt lat="45.9534" lon="4.75103">
        <ele>192</ele>
        <time>2018-08-28T10:05:04Z</time>
      </trkpt>
      <trkpt lat="45.95338" lon="4.7509">
        <ele>193</ele>
        <time>2018-08-28T10:05:06Z</time>
      </trkpt>
      <trkpt lat="45.95334" lon="4.75085">
        <ele>193</ele>
        <time>2018-08-28T10:05:07Z</time>
      </trkpt>
      <trkpt lat="45.95331" lon="4.7508">
        <ele>193</ele>
        <time>2018-08-28T10:05:08Z</time>
      </trkpt>
      <trkpt lat="45.95329" lon="4.75073">
        <ele>192</ele>
        <time>2018-08-28T10:05:09Z</time>
      </trkpt>
      <trkpt lat="45.95325" lon="4.75067">
        <ele>192</ele>
        <time>2018-08-28T10:05:10Z</time>
      </trkpt>
      <trkpt lat="45.95321" lon="4.75062">
        <ele>192</ele>
        <time>2018-08-28T10:05:11Z</time>
      </trkpt>
      <trkpt lat="45.95317" lon="4.75055">
        <ele>192</ele>
        <time>2018-08-28T10:05:12Z</time>
      </trkpt>
      <trkpt lat="45.95313" lon="4.75048">
        <ele>192</ele>
        <time>2018-08-28T10:05:13Z</time>
      </trkpt>
      <trkpt lat="45.95308" lon="4.75038">
        <ele>192</ele>
        <time>2018-08-28T10:05:15Z</time>
      </trkpt>
      <trkpt lat="45.95304" lon="4.75032">
        <ele>192</ele>
        <time>2018-08-28T10:05:16Z</time>
      </trkpt>
      <trkpt lat="45.95301" lon="4.75027">
        <ele>192</ele>
        <time>2018-08-28T10:05:17Z</time>
      </trkpt>
      <trkpt lat="45.95297" lon="4.75022">
        <ele>192</ele>
        <time>2018-08-28T10:05:18Z</time>
      </trkpt>
      <trkpt lat="45.9529" lon="4.75017">
        <ele>191</ele>
        <time>2018-08-28T10:05:19Z</time>
      </trkpt>
      <trkpt lat="45.95285" lon="4.75011">
        <ele>191</ele>
        <time>2018-08-28T10:05:20Z</time>
      </trkpt>
      <trkpt lat="45.95281" lon="4.75002">
        <ele>191</ele>
        <time>2018-08-28T10:05:22Z</time>
      </trkpt>
      <trkpt lat="45.95277" lon="4.74999">
        <ele>192</ele>
        <time>2018-08-28T10:05:23Z</time>
      </trkpt>
      <trkpt lat="45.95273" lon="4.74994">
        <ele>192</ele>
        <time>2018-08-28T10:05:24Z</time>
      </trkpt>
      <trkpt lat="45.95269" lon="4.74988">
        <ele>192</ele>
        <time>2018-08-28T10:05:25Z</time>
      </trkpt>
      <trkpt lat="45.95263" lon="4.74978">
        <ele>192</ele>
        <time>2018-08-28T10:05:27Z</time>
      </trkpt>
      <trkpt lat="45.95263" lon="4.74974">
        <ele>192</ele>
        <time>2018-08-28T10:05:28Z</time>
      </trkpt>
      <trkpt lat="45.9526" lon="4.74969">
        <ele>192</ele>
        <time>2018-08-28T10:05:29Z</time>
      </trkpt>
      <trkpt lat="45.95257" lon="4.74963">
        <ele>192</ele>
        <time>2018-08-28T10:05:30Z</time>
      </trkpt>
      <trkpt lat="45.95253" lon="4.74958">
        <ele>192</ele>
        <time>2018-08-28T10:05:31Z</time>
      </trkpt>
      <trkpt lat="45.95249" lon="4.74952">
        <ele>192</ele>
        <time>2018-08-28T10:05:32Z</time>
      </trkpt>
      <trkpt lat="45.95246" lon="4.74946">
        <ele>192</ele>
        <time>2018-08-28T10:05:33Z</time>
      </trkpt>
      <trkpt lat="45.95243" lon="4.74941">
        <ele>192</ele>
        <time>2018-08-28T10:05:34Z</time>
      </trkpt>
      <trkpt lat="45.95239" lon="4.74935">
        <ele>192</ele>
        <time>2018-08-28T10:05:35Z</time>
      </trkpt>
      <trkpt lat="45.95233" lon="4.74931">
        <ele>192</ele>
        <time>2018-08-28T10:05:36Z</time>
      </trkpt>
      <trkpt lat="45.95231" lon="4.74922">
        <ele>192</ele>
        <time>2018-08-28T10:05:38Z</time>
      </trkpt>
      <trkpt lat="45.95227" lon="4.74917">
        <ele>193</ele>
        <time>2018-08-28T10:05:39Z</time>
      </trkpt>
      <trkpt lat="45.95225" lon="4.74911">
        <ele>193</ele>
        <time>2018-08-28T10:05:40Z</time>
      </trkpt>
      <trkpt lat="45.95222" lon="4.74906">
        <ele>193</ele>
        <time>2018-08-28T10:05:41Z</time>
      </trkpt>
      <trkpt lat="45.95218" lon="4.74899">
        <ele>193</ele>
        <time>2018-08-28T10:05:42Z</time>
      </trkpt>
      <trkpt lat="45.95214" lon="4.74893">
        <ele>193</ele>
        <time>2018-08-28T10:05:43Z</time>
      </trkpt>
      <trkpt lat="45.95209" lon="4.74888">
        <ele>193</ele>
        <time>2018-08-28T10:05:44Z</time>
      </trkpt>
      <trkpt lat="45.95205" lon="4.74882">
        <ele>194</ele>
        <time>2018-08-28T10:05:45Z</time>
      </trkpt>
      <trkpt lat="45.95202" lon="4.74876">
        <ele>194</ele>
        <time>2018-08-28T10:05:46Z</time>
      </trkpt>
      <trkpt lat="45.95199" lon="4.7487">
        <ele>194</ele>
        <time>2018-08-28T10:05:47Z</time>
      </trkpt>
      <trkpt lat="45.95195" lon="4.74864">
        <ele>194</ele>
        <time>2018-08-28T10:05:48Z</time>
      </trkpt>
      <trkpt lat="45.9519" lon="4.74859">
        <ele>194</ele>
        <time>2018-08-28T10:05:49Z</time>
      </trkpt>
      <trkpt lat="45.95187" lon="4.74854">
        <ele>194</ele>
        <time>2018-08-28T10:05:50Z</time>
      </trkpt>
      <trkpt lat="45.95182" lon="4.74849">
        <ele>194</ele>
        <time>2018-08-28T10:05:51Z</time>
      </trkpt>
      <trkpt lat="45.95176" lon="4.74842">
        <ele>194</ele>
        <time>2018-08-28T10:05:52Z</time>
      </trkpt>
      <trkpt lat="45.95173" lon="4.74837">
        <ele>194</ele>
        <time>2018-08-28T10:05:53Z</time>
      </trkpt>
      <trkpt lat="45.95169" lon="4.7483">
        <ele>194</ele>
        <time>2018-08-28T10:05:54Z</time>
      </trkpt>
      <trkpt lat="45.95166" lon="4.74824">
        <ele>194</ele>
        <time>2018-08-28T10:05:55Z</time>
      </trkpt>
      <trkpt lat="45.95162" lon="4.74817">
        <ele>194</ele>
        <time>2018-08-28T10:05:56Z</time>
      </trkpt>
      <trkpt lat="45.95158" lon="4.74811">
        <ele>194</ele>
        <time>2018-08-28T10:05:57Z</time>
      </trkpt>
      <trkpt lat="45.95153" lon="4.74805">
        <ele>194</ele>
        <time>2018-08-28T10:05:58Z</time>
      </trkpt>
      <trkpt lat="45.95151" lon="4.748">
        <ele>194</ele>
        <time>2018-08-28T10:05:59Z</time>
      </trkpt>
      <trkpt lat="45.95144" lon="4.74793">
        <ele>194</ele>
        <time>2018-08-28T10:06:00Z</time>
      </trkpt>
      <trkpt lat="45.95141" lon="4.7479">
        <ele>194</ele>
        <time>2018-08-28T10:06:01Z</time>
      </trkpt>
      <trkpt lat="45.95134" lon="4.74781">
        <ele>194</ele>
        <time>2018-08-28T10:06:03Z</time>
      </trkpt>
      <trkpt lat="45.95131" lon="4.74776">
        <ele>194</ele>
        <time>2018-08-28T10:06:04Z</time>
      </trkpt>
      <trkpt lat="45.95128" lon="4.74769">
        <ele>194</ele>
        <time>2018-08-28T10:06:05Z</time>
      </trkpt>
      <trkpt lat="45.95125" lon="4.74762">
        <ele>194</ele>
        <time>2018-08-28T10:06:06Z</time>
      </trkpt>
      <trkpt lat="45.95121" lon="4.74754">
        <ele>194</ele>
        <time>2018-08-28T10:06:07Z</time>
      </trkpt>
      <trkpt lat="45.95116" lon="4.74747">
        <ele>194</ele>
        <time>2018-08-28T10:06:08Z</time>
      </trkpt>
      <trkpt lat="45.95112" lon="4.74739">
        <ele>194</ele>
        <time>2018-08-28T10:06:09Z</time>
      </trkpt>
      <trkpt lat="45.95109" lon="4.74732">
        <ele>194</ele>
        <time>2018-08-28T10:06:10Z</time>
      </trkpt>
      <trkpt lat="45.951" lon="4.74724">
        <ele>194</ele>
        <time>2018-08-28T10:06:11Z</time>
      </trkpt>
      <trkpt lat="45.95098" lon="4.74713">
        <ele>194</ele>
        <time>2018-08-28T10:06:13Z</time>
      </trkpt>
      <trkpt lat="45.95095" lon="4.74709">
        <ele>194</ele>
        <time>2018-08-28T10:06:14Z</time>
      </trkpt>
      <trkpt lat="45.95091" lon="4.74704">
        <ele>194</ele>
        <time>2018-08-28T10:06:15Z</time>
      </trkpt>
      <trkpt lat="45.95085" lon="4.74697">
        <ele>194</ele>
        <time>2018-08-28T10:06:16Z</time>
      </trkpt>
      <trkpt lat="45.95083" lon="4.74693">
        <ele>194</ele>
        <time>2018-08-28T10:06:17Z</time>
      </trkpt>
      <trkpt lat="45.95078" lon="4.74687">
        <ele>194</ele>
        <time>2018-08-28T10:06:18Z</time>
      </trkpt>
      <trkpt lat="45.95075" lon="4.74681">
        <ele>194</ele>
        <time>2018-08-28T10:06:19Z</time>
      </trkpt>
      <trkpt lat="45.95071" lon="4.74673">
        <ele>194</ele>
        <time>2018-08-28T10:06:20Z</time>
      </trkpt>
      <trkpt lat="45.95066" lon="4.74666">
        <ele>195</ele>
        <time>2018-08-28T10:06:21Z</time>
      </trkpt>
      <trkpt lat="45.95062" lon="4.74659">
        <ele>195</ele>
        <time>2018-08-28T10:06:22Z</time>
      </trkpt>
      <trkpt lat="45.9506" lon="4.7465">
        <ele>194</ele>
        <time>2018-08-28T10:06:23Z</time>
      </trkpt>
      <trkpt lat="45.95056" lon="4.74643">
        <ele>194</ele>
        <time>2018-08-28T10:06:24Z</time>
      </trkpt>
      <trkpt lat="45.95052" lon="4.74636">
        <ele>194</ele>
        <time>2018-08-28T10:06:25Z</time>
      </trkpt>
      <trkpt lat="45.95048" lon="4.74628">
        <ele>194</ele>
        <time>2018-08-28T10:06:26Z</time>
      </trkpt>
      <trkpt lat="45.95044" lon="4.74623">
        <ele>194</ele>
        <time>2018-08-28T10:06:27Z</time>
      </trkpt>
      <trkpt lat="45.95041" lon="4.74618">
        <ele>194</ele>
        <time>2018-08-28T10:06:28Z</time>
      </trkpt>
      <trkpt lat="45.95034" lon="4.7461">
        <ele>194</ele>
        <time>2018-08-28T10:06:29Z</time>
      </trkpt>
      <trkpt lat="45.95031" lon="4.74604">
        <ele>194</ele>
        <time>2018-08-28T10:06:30Z</time>
      </trkpt>
      <trkpt lat="45.95027" lon="4.74598">
        <ele>194</ele>
        <time>2018-08-28T10:06:31Z</time>
      </trkpt>
      <trkpt lat="45.95025" lon="4.74591">
        <ele>194</ele>
        <time>2018-08-28T10:06:32Z</time>
      </trkpt>
      <trkpt lat="45.95016" lon="4.74585">
        <ele>194</ele>
        <time>2018-08-28T10:06:33Z</time>
      </trkpt>
      <trkpt lat="45.95012" lon="4.74577">
        <ele>194</ele>
        <time>2018-08-28T10:06:34Z</time>
      </trkpt>
      <trkpt lat="45.95011" lon="4.7457">
        <ele>194</ele>
        <time>2018-08-28T10:06:35Z</time>
      </trkpt>
      <trkpt lat="45.95007" lon="4.74563">
        <ele>194</ele>
        <time>2018-08-28T10:06:36Z</time>
      </trkpt>
      <trkpt lat="45.95004" lon="4.74554">
        <ele>194</ele>
        <time>2018-08-28T10:06:37Z</time>
      </trkpt>
      <trkpt lat="45.95001" lon="4.74548">
        <ele>194</ele>
        <time>2018-08-28T10:06:38Z</time>
      </trkpt>
      <trkpt lat="45.94999" lon="4.74544">
        <ele>193</ele>
        <time>2018-08-28T10:06:39Z</time>
      </trkpt>
      <trkpt lat="45.94997" lon="4.74538">
        <ele>193</ele>
        <time>2018-08-28T10:06:40Z</time>
      </trkpt>
      <trkpt lat="45.94993" lon="4.7453">
        <ele>193</ele>
        <time>2018-08-28T10:06:41Z</time>
      </trkpt>
      <trkpt lat="45.9499" lon="4.74522">
        <ele>193</ele>
        <time>2018-08-28T10:06:42Z</time>
      </trkpt>
      <trkpt lat="45.94987" lon="4.74514">
        <ele>193</ele>
        <time>2018-08-28T10:06:43Z</time>
      </trkpt>
      <trkpt lat="45.94983" lon="4.74508">
        <ele>193</ele>
        <time>2018-08-28T10:06:44Z</time>
      </trkpt>
      <trkpt lat="45.94981" lon="4.745">
        <ele>193</ele>
        <time>2018-08-28T10:06:45Z</time>
      </trkpt>
      <trkpt lat="45.94977" lon="4.74493">
        <ele>193</ele>
        <time>2018-08-28T10:06:46Z</time>
      </trkpt>
      <trkpt lat="45.94973" lon="4.74484">
        <ele>193</ele>
        <time>2018-08-28T10:06:47Z</time>
      </trkpt>
      <trkpt lat="45.94968" lon="4.74476">
        <ele>193</ele>
        <time>2018-08-28T10:06:48Z</time>
      </trkpt>
      <trkpt lat="45.94963" lon="4.74467">
        <ele>193</ele>
        <time>2018-08-28T10:06:49Z</time>
      </trkpt>
      <trkpt lat="45.94958" lon="4.74458">
        <ele>192</ele>
        <time>2018-08-28T10:06:50Z</time>
      </trkpt>
      <trkpt lat="45.94954" lon="4.74448">
        <ele>192</ele>
        <time>2018-08-28T10:06:51Z</time>
      </trkpt>
      <trkpt lat="45.9495" lon="4.74438">
        <ele>192</ele>
        <time>2018-08-28T10:06:52Z</time>
      </trkpt>
      <trkpt lat="45.94946" lon="4.74431">
        <ele>192</ele>
        <time>2018-08-28T10:06:53Z</time>
      </trkpt>
      <trkpt lat="45.94941" lon="4.74423">
        <ele>192</ele>
        <time>2018-08-28T10:06:54Z</time>
      </trkpt>
      <trkpt lat="45.94937" lon="4.74414">
        <ele>192</ele>
        <time>2018-08-28T10:06:55Z</time>
      </trkpt>
      <trkpt lat="45.94933" lon="4.74405">
        <ele>192</ele>
        <time>2018-08-28T10:06:56Z</time>
      </trkpt>
      <trkpt lat="45.94928" lon="4.74396">
        <ele>192</ele>
        <time>2018-08-28T10:06:57Z</time>
      </trkpt>
      <trkpt lat="45.94924" lon="4.74388">
        <ele>192</ele>
        <time>2018-08-28T10:06:58Z</time>
      </trkpt>
      <trkpt lat="45.9492" lon="4.74378">
        <ele>192</ele>
        <time>2018-08-28T10:06:59Z</time>
      </trkpt>
      <trkpt lat="45.94916" lon="4.7437">
        <ele>191</ele>
        <time>2018-08-28T10:07:00Z</time>
      </trkpt>
      <trkpt lat="45.94911" lon="4.7436">
        <ele>191</ele>
        <time>2018-08-28T10:07:01Z</time>
      </trkpt>
      <trkpt lat="45.94906" lon="4.74351">
        <ele>191</ele>
        <time>2018-08-28T10:07:02Z</time>
      </trkpt>
      <trkpt lat="45.94901" lon="4.74342">
        <ele>191</ele>
        <time>2018-08-28T10:07:03Z</time>
      </trkpt>
      <trkpt lat="45.94897" lon="4.74333">
        <ele>191</ele>
        <time>2018-08-28T10:07:04Z</time>
      </trkpt>
      <trkpt lat="45.94892" lon="4.74326">
        <ele>191</ele>
        <time>2018-08-28T10:07:05Z</time>
      </trkpt>
      <trkpt lat="45.94888" lon="4.74318">
        <ele>191</ele>
        <time>2018-08-28T10:07:06Z</time>
      </trkpt>
      <trkpt lat="45.94883" lon="4.7431">
        <ele>191</ele>
        <time>2018-08-28T10:07:07Z</time>
      </trkpt>
      <trkpt lat="45.9488" lon="4.74302">
        <ele>191</ele>
        <time>2018-08-28T10:07:08Z</time>
      </trkpt>
      <trkpt lat="45.94876" lon="4.74293">
        <ele>191</ele>
        <time>2018-08-28T10:07:09Z</time>
      </trkpt>
      <trkpt lat="45.94871" lon="4.74286">
        <ele>191</ele>
        <time>2018-08-28T10:07:10Z</time>
      </trkpt>
      <trkpt lat="45.94867" lon="4.74277">
        <ele>191</ele>
        <time>2018-08-28T10:07:11Z</time>
      </trkpt>
      <trkpt lat="45.94863" lon="4.7427">
        <ele>190</ele>
        <time>2018-08-28T10:07:12Z</time>
      </trkpt>
      <trkpt lat="45.9486" lon="4.74262">
        <ele>190</ele>
        <time>2018-08-28T10:07:13Z</time>
      </trkpt>
      <trkpt lat="45.94856" lon="4.74254">
        <ele>190</ele>
        <time>2018-08-28T10:07:14Z</time>
      </trkpt>
      <trkpt lat="45.94852" lon="4.74246">
        <ele>190</ele>
        <time>2018-08-28T10:07:15Z</time>
      </trkpt>
      <trkpt lat="45.94848" lon="4.7424">
        <ele>190</ele>
        <time>2018-08-28T10:07:16Z</time>
      </trkpt>
      <trkpt lat="45.94844" lon="4.74231">
        <ele>190</ele>
        <time>2018-08-28T10:07:17Z</time>
      </trkpt>
      <trkpt lat="45.9484" lon="4.74224">
        <ele>190</ele>
        <time>2018-08-28T10:07:18Z</time>
      </trkpt>
      <trkpt lat="45.94836" lon="4.74217">
        <ele>190</ele>
        <time>2018-08-28T10:07:19Z</time>
      </trkpt>
      <trkpt lat="45.94831" lon="4.74211">
        <ele>189</ele>
        <time>2018-08-28T10:07:20Z</time>
      </trkpt>
      <trkpt lat="45.94827" lon="4.74205">
        <ele>189</ele>
        <time>2018-08-28T10:07:21Z</time>
      </trkpt>
      <trkpt lat="45.94823" lon="4.74199">
        <ele>189</ele>
        <time>2018-08-28T10:07:22Z</time>
      </trkpt>
      <trkpt lat="45.94819" lon="4.74193">
        <ele>189</ele>
        <time>2018-08-28T10:07:23Z</time>
      </trkpt>
      <trkpt lat="45.94816" lon="4.74186">
        <ele>189</ele>
        <time>2018-08-28T10:07:24Z</time>
      </trkpt>
      <trkpt lat="45.94812" lon="4.74179">
        <ele>189</ele>
        <time>2018-08-28T10:07:25Z</time>
      </trkpt>
      <trkpt lat="45.94808" lon="4.74172">
        <ele>189</ele>
        <time>2018-08-28T10:07:26Z</time>
      </trkpt>
      <trkpt lat="45.94804" lon="4.74165">
        <ele>189</ele>
        <time>2018-08-28T10:07:27Z</time>
      </trkpt>
      <trkpt lat="45.948" lon="4.74157">
        <ele>189</ele>
        <time>2018-08-28T10:07:28Z</time>
      </trkpt>
      <trkpt lat="45.94796" lon="4.74151">
        <ele>189</ele>
        <time>2018-08-28T10:07:29Z</time>
      </trkpt>
      <trkpt lat="45.94793" lon="4.74143">
        <ele>189</ele>
        <time>2018-08-28T10:07:30Z</time>
      </trkpt>
      <trkpt lat="45.94787" lon="4.74135">
        <ele>189</ele>
        <time>2018-08-28T10:07:31Z</time>
      </trkpt>
      <trkpt lat="45.94783" lon="4.74129">
        <ele>189</ele>
        <time>2018-08-28T10:07:32Z</time>
      </trkpt>
      <trkpt lat="45.94779" lon="4.74121">
        <ele>189</ele>
        <time>2018-08-28T10:07:33Z</time>
      </trkpt>
      <trkpt lat="45.94771" lon="4.74117">
        <ele>189</ele>
        <time>2018-08-28T10:07:34Z</time>
      </trkpt>
      <trkpt lat="45.94767" lon="4.74111">
        <ele>189</ele>
        <time>2018-08-28T10:07:35Z</time>
      </trkpt>
      <trkpt lat="45.94763" lon="4.741">
        <ele>189</ele>
        <time>2018-08-28T10:07:37Z</time>
      </trkpt>
      <trkpt lat="45.94758" lon="4.74092">
        <ele>189</ele>
        <time>2018-08-28T10:07:38Z</time>
      </trkpt>
      <trkpt lat="45.94754" lon="4.74084">
        <ele>189</ele>
        <time>2018-08-28T10:07:39Z</time>
      </trkpt>
      <trkpt lat="45.9475" lon="4.74078">
        <ele>189</ele>
        <time>2018-08-28T10:07:40Z</time>
      </trkpt>
      <trkpt lat="45.94746" lon="4.74073">
        <ele>188</ele>
        <time>2018-08-28T10:07:41Z</time>
      </trkpt>
      <trkpt lat="45.94743" lon="4.74067">
        <ele>188</ele>
        <time>2018-08-28T10:07:42Z</time>
      </trkpt>
      <trkpt lat="45.94738" lon="4.7406">
        <ele>188</ele>
        <time>2018-08-28T10:07:43Z</time>
      </trkpt>
      <trkpt lat="45.94731" lon="4.74056">
        <ele>188</ele>
        <time>2018-08-28T10:07:44Z</time>
      </trkpt>
      <trkpt lat="45.94726" lon="4.74048">
        <ele>188</ele>
        <time>2018-08-28T10:07:46Z</time>
      </trkpt>
      <trkpt lat="45.94722" lon="4.74043">
        <ele>187</ele>
        <time>2018-08-28T10:07:47Z</time>
      </trkpt>
      <trkpt lat="45.94718" lon="4.7404">
        <ele>187</ele>
        <time>2018-08-28T10:07:48Z</time>
      </trkpt>
      <trkpt lat="45.94711" lon="4.74035">
        <ele>187</ele>
        <time>2018-08-28T10:07:49Z</time>
      </trkpt>
      <trkpt lat="45.94706" lon="4.7403">
        <ele>187</ele>
        <time>2018-08-28T10:07:50Z</time>
      </trkpt>
      <trkpt lat="45.94702" lon="4.74024">
        <ele>187</ele>
        <time>2018-08-28T10:07:51Z</time>
      </trkpt>
      <trkpt lat="45.94698" lon="4.74018">
        <ele>187</ele>
        <time>2018-08-28T10:07:52Z</time>
      </trkpt>
      <trkpt lat="45.94694" lon="4.7401">
        <ele>187</ele>
        <time>2018-08-28T10:07:53Z</time>
      </trkpt>
      <trkpt lat="45.94689" lon="4.74003">
        <ele>187</ele>
        <time>2018-08-28T10:07:54Z</time>
      </trkpt>
      <trkpt lat="45.94687" lon="4.73997">
        <ele>187</ele>
        <time>2018-08-28T10:07:55Z</time>
      </trkpt>
      <trkpt lat="45.94683" lon="4.73987">
        <ele>187</ele>
        <time>2018-08-28T10:07:56Z</time>
      </trkpt>
      <trkpt lat="45.94679" lon="4.7398">
        <ele>187</ele>
        <time>2018-08-28T10:07:57Z</time>
      </trkpt>
      <trkpt lat="45.94671" lon="4.73976">
        <ele>187</ele>
        <time>2018-08-28T10:07:58Z</time>
      </trkpt>
      <trkpt lat="45.94668" lon="4.73969">
        <ele>187</ele>
        <time>2018-08-28T10:07:59Z</time>
      </trkpt>
      <trkpt lat="45.94664" lon="4.73963">
        <ele>187</ele>
        <time>2018-08-28T10:08:00Z</time>
      </trkpt>
      <trkpt lat="45.94661" lon="4.73957">
        <ele>187</ele>
        <time>2018-08-28T10:08:01Z</time>
      </trkpt>
      <trkpt lat="45.94656" lon="4.7395">
        <ele>187</ele>
        <time>2018-08-28T10:08:02Z</time>
      </trkpt>
      <trkpt lat="45.94651" lon="4.73943">
        <ele>187</ele>
        <time>2018-08-28T10:08:03Z</time>
      </trkpt>
      <trkpt lat="45.94647" lon="4.73937">
        <ele>187</ele>
        <time>2018-08-28T10:08:04Z</time>
      </trkpt>
      <trkpt lat="45.94641" lon="4.73931">
        <ele>187</ele>
        <time>2018-08-28T10:08:05Z</time>
      </trkpt>
      <trkpt lat="45.94636" lon="4.73924">
        <ele>187</ele>
        <time>2018-08-28T10:08:06Z</time>
      </trkpt>
      <trkpt lat="45.9463" lon="4.73918">
        <ele>187</ele>
        <time>2018-08-28T10:08:07Z</time>
      </trkpt>
      <trkpt lat="45.94624" lon="4.73911">
        <ele>187</ele>
        <time>2018-08-28T10:08:08Z</time>
      </trkpt>
      <trkpt lat="45.94619" lon="4.73907">
        <ele>187</ele>
        <time>2018-08-28T10:08:09Z</time>
      </trkpt>
      <trkpt lat="45.94614" lon="4.73902">
        <ele>187</ele>
        <time>2018-08-28T10:08:10Z</time>
      </trkpt>
      <trkpt lat="45.94608" lon="4.73896">
        <ele>187</ele>
        <time>2018-08-28T10:08:11Z</time>
      </trkpt>
      <trkpt lat="45.94603" lon="4.73891">
        <ele>187</ele>
        <time>2018-08-28T10:08:12Z</time>
      </trkpt>
      <trkpt lat="45.94598" lon="4.73886">
        <ele>187</ele>
        <time>2018-08-28T10:08:13Z</time>
      </trkpt>
      <trkpt lat="45.94592" lon="4.73879">
        <ele>187</ele>
        <time>2018-08-28T10:08:14Z</time>
      </trkpt>
      <trkpt lat="45.94587" lon="4.73873">
        <ele>187</ele>
        <time>2018-08-28T10:08:15Z</time>
      </trkpt>
      <trkpt lat="45.94582" lon="4.73868">
        <ele>186</ele>
        <time>2018-08-28T10:08:16Z</time>
      </trkpt>
      <trkpt lat="45.94577" lon="4.73864">
        <ele>186</ele>
        <time>2018-08-28T10:08:17Z</time>
      </trkpt>
      <trkpt lat="45.94572" lon="4.73859">
        <ele>186</ele>
        <time>2018-08-28T10:08:18Z</time>
      </trkpt>
      <trkpt lat="45.94567" lon="4.73854">
        <ele>186</ele>
        <time>2018-08-28T10:08:19Z</time>
      </trkpt>
      <trkpt lat="45.94561" lon="4.7385">
        <ele>186</ele>
        <time>2018-08-28T10:08:20Z</time>
      </trkpt>
      <trkpt lat="45.94555" lon="4.73843">
        <ele>186</ele>
        <time>2018-08-28T10:08:21Z</time>
      </trkpt>
      <trkpt lat="45.94548" lon="4.73836">
        <ele>186</ele>
        <time>2018-08-28T10:08:23Z</time>
      </trkpt>
      <trkpt lat="45.94543" lon="4.73831">
        <ele>186</ele>
        <time>2018-08-28T10:08:24Z</time>
      </trkpt>
      <trkpt lat="45.9454" lon="4.73824">
        <ele>186</ele>
        <time>2018-08-28T10:08:25Z</time>
      </trkpt>
      <trkpt lat="45.94538" lon="4.73817">
        <ele>186</ele>
        <time>2018-08-28T10:08:26Z</time>
      </trkpt>
      <trkpt lat="45.94528" lon="4.73815">
        <ele>186</ele>
        <time>2018-08-28T10:08:27Z</time>
      </trkpt>
      <trkpt lat="45.94523" lon="4.73812">
        <ele>186</ele>
        <time>2018-08-28T10:08:28Z</time>
      </trkpt>
      <trkpt lat="45.94515" lon="4.73807">
        <ele>186</ele>
        <time>2018-08-28T10:08:29Z</time>
      </trkpt>
      <trkpt lat="45.9451" lon="4.73799">
        <ele>186</ele>
        <time>2018-08-28T10:08:31Z</time>
      </trkpt>
      <trkpt lat="45.94507" lon="4.73794">
        <ele>186</ele>
        <time>2018-08-28T10:08:32Z</time>
      </trkpt>
      <trkpt lat="45.94504" lon="4.73782">
        <ele>186</ele>
        <time>2018-08-28T10:08:37Z</time>
      </trkpt>
      <trkpt lat="45.94503" lon="4.73779">
        <ele>186</ele>
        <time>2018-08-28T10:08:38Z</time>
      </trkpt>
      <trkpt lat="45.94499" lon="4.7377">
        <ele>186</ele>
        <time>2018-08-28T10:08:41Z</time>
      </trkpt>
      <trkpt lat="45.94497" lon="4.73768">
        <ele>186</ele>
        <time>2018-08-28T10:08:42Z</time>
      </trkpt>
      <trkpt lat="45.94493" lon="4.7376">
        <ele>186</ele>
        <time>2018-08-28T10:08:45Z</time>
      </trkpt>
      <trkpt lat="45.94491" lon="4.73758">
        <ele>186</ele>
        <time>2018-08-28T10:08:46Z</time>
      </trkpt>
      <trkpt lat="45.94486" lon="4.73748">
        <ele>186</ele>
        <time>2018-08-28T10:08:51Z</time>
      </trkpt>
      <trkpt lat="45.94486" lon="4.73746">
        <ele>186</ele>
        <time>2018-08-28T10:08:52Z</time>
      </trkpt>
      <trkpt lat="45.94486" lon="4.73735">
        <ele>186</ele>
        <time>2018-08-28T10:08:57Z</time>
      </trkpt>
      <trkpt lat="45.94487" lon="4.73731">
        <ele>186</ele>
        <time>2018-08-28T10:08:58Z</time>
      </trkpt>
      <trkpt lat="45.94488" lon="4.7372">
        <ele>186</ele>
        <time>2018-08-28T10:08:59Z</time>
      </trkpt>
      <trkpt lat="45.94489" lon="4.73717">
        <ele>186</ele>
        <time>2018-08-28T10:09:00Z</time>
      </trkpt>
      <trkpt lat="45.94491" lon="4.73709">
        <ele>186</ele>
        <time>2018-08-28T10:09:01Z</time>
      </trkpt>
      <trkpt lat="45.94492" lon="4.73704">
        <ele>186</ele>
        <time>2018-08-28T10:09:02Z</time>
      </trkpt>
      <trkpt lat="45.94493" lon="4.73698">
        <ele>186</ele>
        <time>2018-08-28T10:09:03Z</time>
      </trkpt>
      <trkpt lat="45.94493" lon="4.73691">
        <ele>186</ele>
        <time>2018-08-28T10:09:04Z</time>
      </trkpt>
      <trkpt lat="45.94495" lon="4.73685">
        <ele>186</ele>
        <time>2018-08-28T10:09:05Z</time>
      </trkpt>
      <trkpt lat="45.94496" lon="4.73678">
        <ele>185</ele>
        <time>2018-08-28T10:09:06Z</time>
      </trkpt>
      <trkpt lat="45.94497" lon="4.73671">
        <ele>185</ele>
        <time>2018-08-28T10:09:07Z</time>
      </trkpt>
      <trkpt lat="45.94498" lon="4.73661">
        <ele>185</ele>
        <time>2018-08-28T10:09:08Z</time>
      </trkpt>
      <trkpt lat="45.94499" lon="4.73654">
        <ele>185</ele>
        <time>2018-08-28T10:09:09Z</time>
      </trkpt>
      <trkpt lat="45.945" lon="4.73646">
        <ele>184</ele>
        <time>2018-08-28T10:09:10Z</time>
      </trkpt>
      <trkpt lat="45.94501" lon="4.73638">
        <ele>184</ele>
        <time>2018-08-28T10:09:11Z</time>
      </trkpt>
      <trkpt lat="45.94502" lon="4.7363">
        <ele>184</ele>
        <time>2018-08-28T10:09:12Z</time>
      </trkpt>
      <trkpt lat="45.94503" lon="4.73622">
        <ele>184</ele>
        <time>2018-08-28T10:09:13Z</time>
      </trkpt>
      <trkpt lat="45.94505" lon="4.73613">
        <ele>184</ele>
        <time>2018-08-28T10:09:14Z</time>
      </trkpt>
      <trkpt lat="45.94508" lon="4.73607">
        <ele>184</ele>
        <time>2018-08-28T10:09:15Z</time>
      </trkpt>
      <trkpt lat="45.94508" lon="4.73597">
        <ele>184</ele>
        <time>2018-08-28T10:09:16Z</time>
      </trkpt>
      <trkpt lat="45.9451" lon="4.73588">
        <ele>184</ele>
        <time>2018-08-28T10:09:17Z</time>
      </trkpt>
      <trkpt lat="45.94511" lon="4.7358">
        <ele>184</ele>
        <time>2018-08-28T10:09:18Z</time>
      </trkpt>
      <trkpt lat="45.94513" lon="4.73572">
        <ele>184</ele>
        <time>2018-08-28T10:09:19Z</time>
      </trkpt>
      <trkpt lat="45.94513" lon="4.73561">
        <ele>183</ele>
        <time>2018-08-28T10:09:20Z</time>
      </trkpt>
      <trkpt lat="45.94513" lon="4.73551">
        <ele>183</ele>
        <time>2018-08-28T10:09:21Z</time>
      </trkpt>
      <trkpt lat="45.94513" lon="4.73541">
        <ele>183</ele>
        <time>2018-08-28T10:09:22Z</time>
      </trkpt>
      <trkpt lat="45.94513" lon="4.73528">
        <ele>183</ele>
        <time>2018-08-28T10:09:23Z</time>
      </trkpt>
      <trkpt lat="45.94512" lon="4.73517">
        <ele>183</ele>
        <time>2018-08-28T10:09:24Z</time>
      </trkpt>
      <trkpt lat="45.9451" lon="4.73507">
        <ele>183</ele>
        <time>2018-08-28T10:09:25Z</time>
      </trkpt>
      <trkpt lat="45.9451" lon="4.73495">
        <ele>182</ele>
        <time>2018-08-28T10:09:26Z</time>
      </trkpt>
      <trkpt lat="45.94511" lon="4.73483">
        <ele>182</ele>
        <time>2018-08-28T10:09:27Z</time>
      </trkpt>
      <trkpt lat="45.94511" lon="4.73472">
        <ele>182</ele>
        <time>2018-08-28T10:09:28Z</time>
      </trkpt>
      <trkpt lat="45.94511" lon="4.73462">
        <ele>181</ele>
        <time>2018-08-28T10:09:29Z</time>
      </trkpt>
      <trkpt lat="45.94511" lon="4.73451">
        <ele>181</ele>
        <time>2018-08-28T10:09:30Z</time>
      </trkpt>
      <trkpt lat="45.9451" lon="4.73441">
        <ele>181</ele>
        <time>2018-08-28T10:09:31Z</time>
      </trkpt>
      <trkpt lat="45.9451" lon="4.73431">
        <ele>181</ele>
        <time>2018-08-28T10:09:32Z</time>
      </trkpt>
      <trkpt lat="45.94509" lon="4.73421">
        <ele>180</ele>
        <time>2018-08-28T10:09:33Z</time>
      </trkpt>
      <trkpt lat="45.94508" lon="4.73409">
        <ele>179</ele>
        <time>2018-08-28T10:09:34Z</time>
      </trkpt>
      <trkpt lat="45.94505" lon="4.73396">
        <ele>179</ele>
        <time>2018-08-28T10:09:35Z</time>
      </trkpt>
      <trkpt lat="45.94503" lon="4.73385">
        <ele>179</ele>
        <time>2018-08-28T10:09:36Z</time>
      </trkpt>
      <trkpt lat="45.94501" lon="4.73374">
        <ele>178</ele>
        <time>2018-08-28T10:09:37Z</time>
      </trkpt>
      <trkpt lat="45.94497" lon="4.73357">
        <ele>178</ele>
        <time>2018-08-28T10:09:38Z</time>
      </trkpt>
      <trkpt lat="45.94496" lon="4.73344">
        <ele>178</ele>
        <time>2018-08-28T10:09:39Z</time>
      </trkpt>
      <trkpt lat="45.94495" lon="4.73333">
        <ele>177</ele>
        <time>2018-08-28T10:09:40Z</time>
      </trkpt>
      <trkpt lat="45.94495" lon="4.73323">
        <ele>177</ele>
        <time>2018-08-28T10:09:41Z</time>
      </trkpt>
      <trkpt lat="45.94494" lon="4.73312">
        <ele>177</ele>
        <time>2018-08-28T10:09:42Z</time>
      </trkpt>
      <trkpt lat="45.94492" lon="4.73303">
        <ele>177</ele>
        <time>2018-08-28T10:09:43Z</time>
      </trkpt>
      <trkpt lat="45.9449" lon="4.73292">
        <ele>177</ele>
        <time>2018-08-28T10:09:44Z</time>
      </trkpt>
      <trkpt lat="45.94489" lon="4.7328">
        <ele>177</ele>
        <time>2018-08-28T10:09:45Z</time>
      </trkpt>
      <trkpt lat="45.94487" lon="4.73269">
        <ele>177</ele>
        <time>2018-08-28T10:09:46Z</time>
      </trkpt>
      <trkpt lat="45.94485" lon="4.73259">
        <ele>176</ele>
        <time>2018-08-28T10:09:47Z</time>
      </trkpt>
      <trkpt lat="45.94483" lon="4.73248">
        <ele>175</ele>
        <time>2018-08-28T10:09:48Z</time>
      </trkpt>
      <trkpt lat="45.94481" lon="4.73236">
        <ele>175</ele>
        <time>2018-08-28T10:09:49Z</time>
      </trkpt>
      <trkpt lat="45.94478" lon="4.73225">
        <ele>175</ele>
        <time>2018-08-28T10:09:50Z</time>
      </trkpt>
      <trkpt lat="45.94478" lon="4.73214">
        <ele>175</ele>
        <time>2018-08-28T10:09:51Z</time>
      </trkpt>
      <trkpt lat="45.94477" lon="4.73203">
        <ele>175</ele>
        <time>2018-08-28T10:09:52Z</time>
      </trkpt>
      <trkpt lat="45.94476" lon="4.73193">
        <ele>174</ele>
        <time>2018-08-28T10:09:53Z</time>
      </trkpt>
      <trkpt lat="45.94474" lon="4.73183">
        <ele>174</ele>
        <time>2018-08-28T10:09:54Z</time>
      </trkpt>
      <trkpt lat="45.94473" lon="4.73172">
        <ele>174</ele>
        <time>2018-08-28T10:09:55Z</time>
      </trkpt>
      <trkpt lat="45.94472" lon="4.73163">
        <ele>173</ele>
        <time>2018-08-28T10:09:56Z</time>
      </trkpt>
      <trkpt lat="45.9447" lon="4.73151">
        <ele>172</ele>
        <time>2018-08-28T10:09:57Z</time>
      </trkpt>
      <trkpt lat="45.94468" lon="4.73141">
        <ele>172</ele>
        <time>2018-08-28T10:09:58Z</time>
      </trkpt>
      <trkpt lat="45.94467" lon="4.73131">
        <ele>172</ele>
        <time>2018-08-28T10:09:59Z</time>
      </trkpt>
      <trkpt lat="45.94467" lon="4.7312">
        <ele>172</ele>
        <time>2018-08-28T10:10:00Z</time>
      </trkpt>
      <trkpt lat="45.94467" lon="4.73111">
        <ele>172</ele>
        <time>2018-08-28T10:10:01Z</time>
      </trkpt>
      <trkpt lat="45.94466" lon="4.73103">
        <ele>172</ele>
        <time>2018-08-28T10:10:02Z</time>
      </trkpt>
      <trkpt lat="45.94464" lon="4.73095">
        <ele>171</ele>
        <time>2018-08-28T10:10:03Z</time>
      </trkpt>
      <trkpt lat="45.94463" lon="4.73085">
        <ele>171</ele>
        <time>2018-08-28T10:10:04Z</time>
      </trkpt>
      <trkpt lat="45.94462" lon="4.73077">
        <ele>170</ele>
        <time>2018-08-28T10:10:05Z</time>
      </trkpt>
      <trkpt lat="45.9446" lon="4.73068">
        <ele>170</ele>
        <time>2018-08-28T10:10:06Z</time>
      </trkpt>
      <trkpt lat="45.9446" lon="4.73059">
        <ele>170</ele>
        <time>2018-08-28T10:10:07Z</time>
      </trkpt>
      <trkpt lat="45.94459" lon="4.7305">
        <ele>170</ele>
        <time>2018-08-28T10:10:08Z</time>
      </trkpt>
      <trkpt lat="45.94458" lon="4.73043">
        <ele>169</ele>
        <time>2018-08-28T10:10:09Z</time>
      </trkpt>
      <trkpt lat="45.94457" lon="4.73034">
        <ele>169</ele>
        <time>2018-08-28T10:10:10Z</time>
      </trkpt>
      <trkpt lat="45.94456" lon="4.73026">
        <ele>169</ele>
        <time>2018-08-28T10:10:11Z</time>
      </trkpt>
      <trkpt lat="45.94455" lon="4.73017">
        <ele>169</ele>
        <time>2018-08-28T10:10:12Z</time>
      </trkpt>
      <trkpt lat="45.94454" lon="4.7301">
        <ele>169</ele>
        <time>2018-08-28T10:10:13Z</time>
      </trkpt>
      <trkpt lat="45.94453" lon="4.73002">
        <ele>169</ele>
        <time>2018-08-28T10:10:14Z</time>
      </trkpt>
      <trkpt lat="45.9445" lon="4.72995">
        <ele>167</ele>
        <time>2018-08-28T10:10:15Z</time>
      </trkpt>
      <trkpt lat="45.94446" lon="4.7299">
        <ele>167</ele>
        <time>2018-08-28T10:10:16Z</time>
      </trkpt>
      <trkpt lat="45.94447" lon="4.72982">
        <ele>167</ele>
        <time>2018-08-28T10:10:17Z</time>
      </trkpt>
      <trkpt lat="45.94446" lon="4.72974">
        <ele>167</ele>
        <time>2018-08-28T10:10:18Z</time>
      </trkpt>
      <trkpt lat="45.94446" lon="4.72967">
        <ele>167</ele>
        <time>2018-08-28T10:10:19Z</time>
      </trkpt>
      <trkpt lat="45.94443" lon="4.72958">
        <ele>167</ele>
        <time>2018-08-28T10:10:20Z</time>
      </trkpt>
      <trkpt lat="45.94442" lon="4.7295">
        <ele>167</ele>
        <time>2018-08-28T10:10:21Z</time>
      </trkpt>
      <trkpt lat="45.94441" lon="4.72942">
        <ele>167</ele>
        <time>2018-08-28T10:10:22Z</time>
      </trkpt>
      <trkpt lat="45.94441" lon="4.72936">
        <ele>167</ele>
        <time>2018-08-28T10:10:23Z</time>
      </trkpt>
      <trkpt lat="45.94441" lon="4.72929">
        <ele>167</ele>
        <time>2018-08-28T10:10:24Z</time>
      </trkpt>
      <trkpt lat="45.9444" lon="4.72921">
        <ele>167</ele>
        <time>2018-08-28T10:10:25Z</time>
      </trkpt>
      <trkpt lat="45.94439" lon="4.72915">
        <ele>166</ele>
        <time>2018-08-28T10:10:26Z</time>
      </trkpt>
      <trkpt lat="45.94438" lon="4.72908">
        <ele>166</ele>
        <time>2018-08-28T10:10:27Z</time>
      </trkpt>
      <trkpt lat="45.94435" lon="4.729">
        <ele>166</ele>
        <time>2018-08-28T10:10:28Z</time>
      </trkpt>
      <trkpt lat="45.94432" lon="4.72894">
        <ele>166</ele>
        <time>2018-08-28T10:10:29Z</time>
      </trkpt>
      <trkpt lat="45.94432" lon="4.72888">
        <ele>166</ele>
        <time>2018-08-28T10:10:30Z</time>
      </trkpt>
      <trkpt lat="45.94433" lon="4.72881">
        <ele>166</ele>
        <time>2018-08-28T10:10:31Z</time>
      </trkpt>
      <trkpt lat="45.94432" lon="4.72873">
        <ele>166</ele>
        <time>2018-08-28T10:10:32Z</time>
      </trkpt>
      <trkpt lat="45.94432" lon="4.72866">
        <ele>166</ele>
        <time>2018-08-28T10:10:33Z</time>
      </trkpt>
      <trkpt lat="45.94432" lon="4.72859">
        <ele>166</ele>
        <time>2018-08-28T10:10:34Z</time>
      </trkpt>
      <trkpt lat="45.94431" lon="4.72851">
        <ele>166</ele>
        <time>2018-08-28T10:10:35Z</time>
      </trkpt>
      <trkpt lat="45.94431" lon="4.72845">
        <ele>166</ele>
        <time>2018-08-28T10:10:36Z</time>
      </trkpt>
      <trkpt lat="45.9443" lon="4.72836">
        <ele>166</ele>
        <time>2018-08-28T10:10:37Z</time>
      </trkpt>
      <trkpt lat="45.94429" lon="4.72827">
        <ele>167</ele>
        <time>2018-08-28T10:10:38Z</time>
      </trkpt>
      <trkpt lat="45.94428" lon="4.72819">
        <ele>167</ele>
        <time>2018-08-28T10:10:39Z</time>
      </trkpt>
      <trkpt lat="45.94427" lon="4.7281">
        <ele>167</ele>
        <time>2018-08-28T10:10:40Z</time>
      </trkpt>
      <trkpt lat="45.94426" lon="4.72802">
        <ele>167</ele>
        <time>2018-08-28T10:10:41Z</time>
      </trkpt>
      <trkpt lat="45.94424" lon="4.72795">
        <ele>168</ele>
        <time>2018-08-28T10:10:42Z</time>
      </trkpt>
      <trkpt lat="45.94423" lon="4.72785">
        <ele>168</ele>
        <time>2018-08-28T10:10:43Z</time>
      </trkpt>
      <trkpt lat="45.94422" lon="4.72775">
        <ele>168</ele>
        <time>2018-08-28T10:10:44Z</time>
      </trkpt>
      <trkpt lat="45.9442" lon="4.72764">
        <ele>169</ele>
        <time>2018-08-28T10:10:45Z</time>
      </trkpt>
      <trkpt lat="45.94419" lon="4.72752">
        <ele>171</ele>
        <time>2018-08-28T10:10:46Z</time>
      </trkpt>
      <trkpt lat="45.94417" lon="4.72743">
        <ele>171</ele>
        <time>2018-08-28T10:10:47Z</time>
      </trkpt>
      <trkpt lat="45.94416" lon="4.72733">
        <ele>172</ele>
        <time>2018-08-28T10:10:48Z</time>
      </trkpt>
      <trkpt lat="45.94415" lon="4.72724">
        <ele>172</ele>
        <time>2018-08-28T10:10:49Z</time>
      </trkpt>
      <trkpt lat="45.94413" lon="4.72714">
        <ele>172</ele>
        <time>2018-08-28T10:10:50Z</time>
      </trkpt>
      <trkpt lat="45.94412" lon="4.72705">
        <ele>172</ele>
        <time>2018-08-28T10:10:51Z</time>
      </trkpt>
      <trkpt lat="45.94412" lon="4.72695">
        <ele>173</ele>
        <time>2018-08-28T10:10:52Z</time>
      </trkpt>
      <trkpt lat="45.94411" lon="4.72686">
        <ele>173</ele>
        <time>2018-08-28T10:10:53Z</time>
      </trkpt>
      <trkpt lat="45.94409" lon="4.72676">
        <ele>173</ele>
        <time>2018-08-28T10:10:54Z</time>
      </trkpt>
      <trkpt lat="45.94408" lon="4.72666">
        <ele>174</ele>
        <time>2018-08-28T10:10:55Z</time>
      </trkpt>
      <trkpt lat="45.94407" lon="4.72657">
        <ele>174</ele>
        <time>2018-08-28T10:10:56Z</time>
      </trkpt>
      <trkpt lat="45.94407" lon="4.72649">
        <ele>174</ele>
        <time>2018-08-28T10:10:57Z</time>
      </trkpt>
      <trkpt lat="45.94406" lon="4.72641">
        <ele>174</ele>
        <time>2018-08-28T10:10:58Z</time>
      </trkpt>
      <trkpt lat="45.94405" lon="4.7263">
        <ele>174</ele>
        <time>2018-08-28T10:10:59Z</time>
      </trkpt>
      <trkpt lat="45.94404" lon="4.72619">
        <ele>173</ele>
        <time>2018-08-28T10:11:00Z</time>
      </trkpt>
      <trkpt lat="45.94401" lon="4.7261">
        <ele>173</ele>
        <time>2018-08-28T10:11:01Z</time>
      </trkpt>
      <trkpt lat="45.944" lon="4.72602">
        <ele>173</ele>
        <time>2018-08-28T10:11:02Z</time>
      </trkpt>
      <trkpt lat="45.94398" lon="4.72593">
        <ele>173</ele>
        <time>2018-08-28T10:11:03Z</time>
      </trkpt>
      <trkpt lat="45.94397" lon="4.72584">
        <ele>173</ele>
        <time>2018-08-28T10:11:04Z</time>
      </trkpt>
      <trkpt lat="45.94396" lon="4.72575">
        <ele>173</ele>
        <time>2018-08-28T10:11:05Z</time>
      </trkpt>
      <trkpt lat="45.94394" lon="4.72567">
        <ele>173</ele>
        <time>2018-08-28T10:11:06Z</time>
      </trkpt>
      <trkpt lat="45.9439" lon="4.7256">
        <ele>173</ele>
        <time>2018-08-28T10:11:07Z</time>
      </trkpt>
      <trkpt lat="45.94388" lon="4.72551">
        <ele>173</ele>
        <time>2018-08-28T10:11:08Z</time>
      </trkpt>
      <trkpt lat="45.94386" lon="4.72542">
        <ele>173</ele>
        <time>2018-08-28T10:11:09Z</time>
      </trkpt>
      <trkpt lat="45.94386" lon="4.72534">
        <ele>174</ele>
        <time>2018-08-28T10:11:10Z</time>
      </trkpt>
      <trkpt lat="45.94384" lon="4.72526">
        <ele>174</ele>
        <time>2018-08-28T10:11:11Z</time>
      </trkpt>
      <trkpt lat="45.94381" lon="4.72518">
        <ele>174</ele>
        <time>2018-08-28T10:11:12Z</time>
      </trkpt>
      <trkpt lat="45.94378" lon="4.72511">
        <ele>174</ele>
        <time>2018-08-28T10:11:13Z</time>
      </trkpt>
      <trkpt lat="45.94375" lon="4.72504">
        <ele>174</ele>
        <time>2018-08-28T10:11:14Z</time>
      </trkpt>
      <trkpt lat="45.94374" lon="4.72498">
        <ele>173</ele>
        <time>2018-08-28T10:11:15Z</time>
      </trkpt>
      <trkpt lat="45.94372" lon="4.72491">
        <ele>173</ele>
        <time>2018-08-28T10:11:16Z</time>
      </trkpt>
      <trkpt lat="45.94369" lon="4.72483">
        <ele>173</ele>
        <time>2018-08-28T10:11:17Z</time>
      </trkpt>
      <trkpt lat="45.94367" lon="4.72476">
        <ele>173</ele>
        <time>2018-08-28T10:11:18Z</time>
      </trkpt>
      <trkpt lat="45.94365" lon="4.72469">
        <ele>173</ele>
        <time>2018-08-28T10:11:19Z</time>
      </trkpt>
      <trkpt lat="45.9436" lon="4.72462">
        <ele>173</ele>
        <time>2018-08-28T10:11:20Z</time>
      </trkpt>
      <trkpt lat="45.94358" lon="4.72453">
        <ele>173</ele>
        <time>2018-08-28T10:11:21Z</time>
      </trkpt>
      <trkpt lat="45.94354" lon="4.72447">
        <ele>173</ele>
        <time>2018-08-28T10:11:22Z</time>
      </trkpt>
      <trkpt lat="45.94351" lon="4.7244">
        <ele>173</ele>
        <time>2018-08-28T10:11:23Z</time>
      </trkpt>
      <trkpt lat="45.94349" lon="4.72433">
        <ele>173</ele>
        <time>2018-08-28T10:11:24Z</time>
      </trkpt>
      <trkpt lat="45.94345" lon="4.72425">
        <ele>173</ele>
        <time>2018-08-28T10:11:25Z</time>
      </trkpt>
      <trkpt lat="45.9434" lon="4.72415">
        <ele>173</ele>
        <time>2018-08-28T10:11:27Z</time>
      </trkpt>
      <trkpt lat="45.94337" lon="4.72409">
        <ele>173</ele>
        <time>2018-08-28T10:11:28Z</time>
      </trkpt>
      <trkpt lat="45.94334" lon="4.72399">
        <ele>173</ele>
        <time>2018-08-28T10:11:30Z</time>
      </trkpt>
      <trkpt lat="45.94332" lon="4.72393">
        <ele>172</ele>
        <time>2018-08-28T10:11:31Z</time>
      </trkpt>
      <trkpt lat="45.94332" lon="4.72387">
        <ele>172</ele>
        <time>2018-08-28T10:11:32Z</time>
      </trkpt>
      <trkpt lat="45.9433" lon="4.7238">
        <ele>172</ele>
        <time>2018-08-28T10:11:33Z</time>
      </trkpt>
      <trkpt lat="45.94328" lon="4.72374">
        <ele>172</ele>
        <time>2018-08-28T10:11:34Z</time>
      </trkpt>
      <trkpt lat="45.94324" lon="4.72367">
        <ele>172</ele>
        <time>2018-08-28T10:11:35Z</time>
      </trkpt>
      <trkpt lat="45.94323" lon="4.72359">
        <ele>172</ele>
        <time>2018-08-28T10:11:36Z</time>
      </trkpt>
      <trkpt lat="45.9432" lon="4.72351">
        <ele>172</ele>
        <time>2018-08-28T10:11:37Z</time>
      </trkpt>
      <trkpt lat="45.94317" lon="4.72342">
        <ele>172</ele>
        <time>2018-08-28T10:11:38Z</time>
      </trkpt>
      <trkpt lat="45.94312" lon="4.72334">
        <ele>172</ele>
        <time>2018-08-28T10:11:39Z</time>
      </trkpt>
      <trkpt lat="45.94308" lon="4.72326">
        <ele>171</ele>
        <time>2018-08-28T10:11:40Z</time>
      </trkpt>
      <trkpt lat="45.94305" lon="4.72319">
        <ele>171</ele>
        <time>2018-08-28T10:11:41Z</time>
      </trkpt>
      <trkpt lat="45.943" lon="4.7231">
        <ele>171</ele>
        <time>2018-08-28T10:11:42Z</time>
      </trkpt>
      <trkpt lat="45.94297" lon="4.72303">
        <ele>171</ele>
        <time>2018-08-28T10:11:43Z</time>
      </trkpt>
      <trkpt lat="45.94293" lon="4.72295">
        <ele>171</ele>
        <time>2018-08-28T10:11:44Z</time>
      </trkpt>
      <trkpt lat="45.9429" lon="4.72289">
        <ele>171</ele>
        <time>2018-08-28T10:11:45Z</time>
      </trkpt>
      <trkpt lat="45.94287" lon="4.72282">
        <ele>171</ele>
        <time>2018-08-28T10:11:46Z</time>
      </trkpt>
      <trkpt lat="45.94285" lon="4.72274">
        <ele>171</ele>
        <time>2018-08-28T10:11:47Z</time>
      </trkpt>
      <trkpt lat="45.94282" lon="4.72269">
        <ele>171</ele>
        <time>2018-08-28T10:11:48Z</time>
      </trkpt>
      <trkpt lat="45.94277" lon="4.72264">
        <ele>171</ele>
        <time>2018-08-28T10:11:49Z</time>
      </trkpt>
      <trkpt lat="45.94269" lon="4.72261">
        <ele>171</ele>
        <time>2018-08-28T10:11:51Z</time>
      </trkpt>
      <trkpt lat="45.94264" lon="4.72265">
        <ele>171</ele>
        <time>2018-08-28T10:11:52Z</time>
      </trkpt>
      <trkpt lat="45.94256" lon="4.72269">
        <ele>171</ele>
        <time>2018-08-28T10:11:54Z</time>
      </trkpt>
      <trkpt lat="45.9425" lon="4.72271">
        <ele>171</ele>
        <time>2018-08-28T10:11:55Z</time>
      </trkpt>
      <trkpt lat="45.94244" lon="4.72274">
        <ele>171</ele>
        <time>2018-08-28T10:11:56Z</time>
      </trkpt>
      <trkpt lat="45.94241" lon="4.72277">
        <ele>171</ele>
        <time>2018-08-28T10:11:57Z</time>
      </trkpt>
      <trkpt lat="45.94235" lon="4.72278">
        <ele>171</ele>
        <time>2018-08-28T10:11:58Z</time>
      </trkpt>
      <trkpt lat="45.94228" lon="4.72281">
        <ele>171</ele>
        <time>2018-08-28T10:11:59Z</time>
      </trkpt>
      <trkpt lat="45.94222" lon="4.72283">
        <ele>171</ele>
        <time>2018-08-28T10:12:00Z</time>
      </trkpt>
      <trkpt lat="45.94217" lon="4.72284">
        <ele>171</ele>
        <time>2018-08-28T10:12:01Z</time>
      </trkpt>
      <trkpt lat="45.94212" lon="4.72287">
        <ele>171</ele>
        <time>2018-08-28T10:12:02Z</time>
      </trkpt>
      <trkpt lat="45.94205" lon="4.72285">
        <ele>171</ele>
        <time>2018-08-28T10:12:03Z</time>
      </trkpt>
      <trkpt lat="45.94198" lon="4.72286">
        <ele>171</ele>
        <time>2018-08-28T10:12:04Z</time>
      </trkpt>
      <trkpt lat="45.94192" lon="4.72284">
        <ele>171</ele>
        <time>2018-08-28T10:12:05Z</time>
      </trkpt>
      <trkpt lat="45.94186" lon="4.72285">
        <ele>171</ele>
        <time>2018-08-28T10:12:06Z</time>
      </trkpt>
      <trkpt lat="45.94181" lon="4.72285">
        <ele>171</ele>
        <time>2018-08-28T10:12:07Z</time>
      </trkpt>
      <trkpt lat="45.94175" lon="4.72286">
        <ele>171</ele>
        <time>2018-08-28T10:12:08Z</time>
      </trkpt>
      <trkpt lat="45.94168" lon="4.72285">
        <ele>171</ele>
        <time>2018-08-28T10:12:09Z</time>
      </trkpt>
      <trkpt lat="45.94163" lon="4.72284">
        <ele>171</ele>
        <time>2018-08-28T10:12:10Z</time>
      </trkpt>
      <trkpt lat="45.94157" lon="4.72284">
        <ele>171</ele>
        <time>2018-08-28T10:12:11Z</time>
      </trkpt>
      <trkpt lat="45.94151" lon="4.72283">
        <ele>171</ele>
        <time>2018-08-28T10:12:12Z</time>
      </trkpt>
      <trkpt lat="45.94145" lon="4.7228">
        <ele>171</ele>
        <time>2018-08-28T10:12:13Z</time>
      </trkpt>
      <trkpt lat="45.94139" lon="4.72277">
        <ele>171</ele>
        <time>2018-08-28T10:12:14Z</time>
      </trkpt>
      <trkpt lat="45.94134" lon="4.72276">
        <ele>171</ele>
        <time>2018-08-28T10:12:15Z</time>
      </trkpt>
      <trkpt lat="45.94128" lon="4.72273">
        <ele>171</ele>
        <time>2018-08-28T10:12:16Z</time>
      </trkpt>
      <trkpt lat="45.94123" lon="4.72272">
        <ele>171</ele>
        <time>2018-08-28T10:12:17Z</time>
      </trkpt>
      <trkpt lat="45.94117" lon="4.72269">
        <ele>171</ele>
        <time>2018-08-28T10:12:18Z</time>
      </trkpt>
      <trkpt lat="45.9411" lon="4.72267">
        <ele>171</ele>
        <time>2018-08-28T10:12:19Z</time>
      </trkpt>
      <trkpt lat="45.94104" lon="4.72265">
        <ele>171</ele>
        <time>2018-08-28T10:12:20Z</time>
      </trkpt>
      <trkpt lat="45.94099" lon="4.72265">
        <ele>171</ele>
        <time>2018-08-28T10:12:21Z</time>
      </trkpt>
      <trkpt lat="45.94093" lon="4.72264">
        <ele>171</ele>
        <time>2018-08-28T10:12:22Z</time>
      </trkpt>
      <trkpt lat="45.94088" lon="4.72264">
        <ele>171</ele>
        <time>2018-08-28T10:12:23Z</time>
      </trkpt>
      <trkpt lat="45.94082" lon="4.72266">
        <ele>171</ele>
        <time>2018-08-28T10:12:24Z</time>
      </trkpt>
      <trkpt lat="45.94078" lon="4.72269">
        <ele>171</ele>
        <time>2018-08-28T10:12:25Z</time>
      </trkpt>
      <trkpt lat="45.94073" lon="4.72273">
        <ele>171</ele>
        <time>2018-08-28T10:12:26Z</time>
      </trkpt>
      <trkpt lat="45.9407" lon="4.72279">
        <ele>171</ele>
        <time>2018-08-28T10:12:27Z</time>
      </trkpt>
      <trkpt lat="45.94065" lon="4.72283">
        <ele>171</ele>
        <time>2018-08-28T10:12:28Z</time>
      </trkpt>
      <trkpt lat="45.9406" lon="4.72289">
        <ele>171</ele>
        <time>2018-08-28T10:12:29Z</time>
      </trkpt>
      <trkpt lat="45.94057" lon="4.72295">
        <ele>171</ele>
        <time>2018-08-28T10:12:30Z</time>
      </trkpt>
      <trkpt lat="45.94053" lon="4.723">
        <ele>171</ele>
        <time>2018-08-28T10:12:31Z</time>
      </trkpt>
      <trkpt lat="45.94049" lon="4.72305">
        <ele>171</ele>
        <time>2018-08-28T10:12:32Z</time>
      </trkpt>
      <trkpt lat="45.94044" lon="4.7231">
        <ele>171</ele>
        <time>2018-08-28T10:12:33Z</time>
      </trkpt>
      <trkpt lat="45.94041" lon="4.72315">
        <ele>171</ele>
        <time>2018-08-28T10:12:34Z</time>
      </trkpt>
      <trkpt lat="45.94036" lon="4.72321">
        <ele>171</ele>
        <time>2018-08-28T10:12:35Z</time>
      </trkpt>
      <trkpt lat="45.94031" lon="4.72327">
        <ele>171</ele>
        <time>2018-08-28T10:12:36Z</time>
      </trkpt>
      <trkpt lat="45.94025" lon="4.72332">
        <ele>171</ele>
        <time>2018-08-28T10:12:37Z</time>
      </trkpt>
      <trkpt lat="45.9402" lon="4.72341">
        <ele>171</ele>
        <time>2018-08-28T10:12:38Z</time>
      </trkpt>
      <trkpt lat="45.94017" lon="4.72348">
        <ele>171</ele>
        <time>2018-08-28T10:12:39Z</time>
      </trkpt>
      <trkpt lat="45.94011" lon="4.72354">
        <ele>171</ele>
        <time>2018-08-28T10:12:40Z</time>
      </trkpt>
      <trkpt lat="45.94007" lon="4.7236">
        <ele>171</ele>
        <time>2018-08-28T10:12:41Z</time>
      </trkpt>
      <trkpt lat="45.94002" lon="4.72368">
        <ele>171</ele>
        <time>2018-08-28T10:12:42Z</time>
      </trkpt>
      <trkpt lat="45.93997" lon="4.72374">
        <ele>171</ele>
        <time>2018-08-28T10:12:43Z</time>
      </trkpt>
      <trkpt lat="45.93992" lon="4.72377">
        <ele>171</ele>
        <time>2018-08-28T10:12:44Z</time>
      </trkpt>
      <trkpt lat="45.93987" lon="4.72383">
        <ele>171</ele>
        <time>2018-08-28T10:12:45Z</time>
      </trkpt>
      <trkpt lat="45.93981" lon="4.72388">
        <ele>171</ele>
        <time>2018-08-28T10:12:46Z</time>
      </trkpt>
      <trkpt lat="45.93976" lon="4.72395">
        <ele>171</ele>
        <time>2018-08-28T10:12:47Z</time>
      </trkpt>
      <trkpt lat="45.9397" lon="4.72399">
        <ele>171</ele>
        <time>2018-08-28T10:12:48Z</time>
      </trkpt>
      <trkpt lat="45.93965" lon="4.72405">
        <ele>171</ele>
        <time>2018-08-28T10:12:49Z</time>
      </trkpt>
      <trkpt lat="45.93961" lon="4.72409">
        <ele>171</ele>
        <time>2018-08-28T10:12:50Z</time>
      </trkpt>
      <trkpt lat="45.93955" lon="4.72414">
        <ele>171</ele>
        <time>2018-08-28T10:12:51Z</time>
      </trkpt>
      <trkpt lat="45.93951" lon="4.72418">
        <ele>171</ele>
        <time>2018-08-28T10:12:52Z</time>
      </trkpt>
      <trkpt lat="45.93947" lon="4.72423">
        <ele>171</ele>
        <time>2018-08-28T10:12:53Z</time>
      </trkpt>
      <trkpt lat="45.93944" lon="4.72427">
        <ele>171</ele>
        <time>2018-08-28T10:12:54Z</time>
      </trkpt>
      <trkpt lat="45.9394" lon="4.72432">
        <ele>171</ele>
        <time>2018-08-28T10:12:55Z</time>
      </trkpt>
      <trkpt lat="45.93935" lon="4.72438">
        <ele>171</ele>
        <time>2018-08-28T10:12:56Z</time>
      </trkpt>
      <trkpt lat="45.9393" lon="4.72442">
        <ele>171</ele>
        <time>2018-08-28T10:12:57Z</time>
      </trkpt>
      <trkpt lat="45.93924" lon="4.72444">
        <ele>171</ele>
        <time>2018-08-28T10:12:58Z</time>
      </trkpt>
      <trkpt lat="45.9392" lon="4.72448">
        <ele>171</ele>
        <time>2018-08-28T10:12:59Z</time>
      </trkpt>
      <trkpt lat="45.93915" lon="4.72452">
        <ele>172</ele>
        <time>2018-08-28T10:13:00Z</time>
      </trkpt>
      <trkpt lat="45.93911" lon="4.72456">
        <ele>172</ele>
        <time>2018-08-28T10:13:01Z</time>
      </trkpt>
      <trkpt lat="45.93906" lon="4.7246">
        <ele>172</ele>
        <time>2018-08-28T10:13:02Z</time>
      </trkpt>
      <trkpt lat="45.93903" lon="4.72467">
        <ele>172</ele>
        <time>2018-08-28T10:13:03Z</time>
      </trkpt>
      <trkpt lat="45.939" lon="4.72471">
        <ele>172</ele>
        <time>2018-08-28T10:13:04Z</time>
      </trkpt>
      <trkpt lat="45.939" lon="4.72482">
        <ele>172</ele>
        <time>2018-08-28T10:13:05Z</time>
      </trkpt>
      <trkpt lat="45.93897" lon="4.72487">
        <ele>172</ele>
        <time>2018-08-28T10:13:06Z</time>
      </trkpt>
      <trkpt lat="45.93893" lon="4.72492">
        <ele>172</ele>
        <time>2018-08-28T10:13:07Z</time>
      </trkpt>
      <trkpt lat="45.93889" lon="4.72496">
        <ele>172</ele>
        <time>2018-08-28T10:13:08Z</time>
      </trkpt>
      <trkpt lat="45.93886" lon="4.725">
        <ele>173</ele>
        <time>2018-08-28T10:13:09Z</time>
      </trkpt>
      <trkpt lat="45.9388" lon="4.72508">
        <ele>173</ele>
        <time>2018-08-28T10:13:11Z</time>
      </trkpt>
      <trkpt lat="45.93875" lon="4.72511">
        <ele>173</ele>
        <time>2018-08-28T10:13:12Z</time>
      </trkpt>
      <trkpt lat="45.93871" lon="4.72512">
        <ele>173</ele>
        <time>2018-08-28T10:13:13Z</time>
      </trkpt>
      <trkpt lat="45.93865" lon="4.72511">
        <ele>173</ele>
        <time>2018-08-28T10:13:14Z</time>
      </trkpt>
      <trkpt lat="45.93859" lon="4.72505">
        <ele>173</ele>
        <time>2018-08-28T10:13:16Z</time>
      </trkpt>
      <trkpt lat="45.93853" lon="4.72504">
        <ele>173</ele>
        <time>2018-08-28T10:13:17Z</time>
      </trkpt>
      <trkpt lat="45.93852" lon="4.72503">
        <ele>173</ele>
        <time>2018-08-28T10:13:18Z</time>
      </trkpt>
      <trkpt lat="45.93825" lon="4.72463">
        <ele>172</ele>
        <time>2018-08-28T10:13:24Z</time>
      </trkpt>
      <trkpt lat="45.93818" lon="4.72457">
        <ele>172</ele>
        <time>2018-08-28T10:13:25Z</time>
      </trkpt>
      <trkpt lat="45.93814" lon="4.72456">
        <ele>172</ele>
        <time>2018-08-28T10:13:26Z</time>
      </trkpt>
      <trkpt lat="45.93809" lon="4.72453">
        <ele>172</ele>
        <time>2018-08-28T10:13:27Z</time>
      </trkpt>
      <trkpt lat="45.93806" lon="4.7245">
        <ele>172</ele>
        <time>2018-08-28T10:13:28Z</time>
      </trkpt>
      <trkpt lat="45.93802" lon="4.72448">
        <ele>172</ele>
        <time>2018-08-28T10:13:29Z</time>
      </trkpt>
      <trkpt lat="45.93794" lon="4.72445">
        <ele>172</ele>
        <time>2018-08-28T10:13:30Z</time>
      </trkpt>
      <trkpt lat="45.93789" lon="4.72441">
        <ele>172</ele>
        <time>2018-08-28T10:13:31Z</time>
      </trkpt>
      <trkpt lat="45.93784" lon="4.72436">
        <ele>172</ele>
        <time>2018-08-28T10:13:32Z</time>
      </trkpt>
      <trkpt lat="45.93778" lon="4.72429">
        <ele>172</ele>
        <time>2018-08-28T10:13:34Z</time>
      </trkpt>
      <trkpt lat="45.93774" lon="4.72422">
        <ele>171</ele>
        <time>2018-08-28T10:13:35Z</time>
      </trkpt>
      <trkpt lat="45.9377" lon="4.72417">
        <ele>171</ele>
        <time>2018-08-28T10:13:36Z</time>
      </trkpt>
      <trkpt lat="45.93765" lon="4.72413">
        <ele>171</ele>
        <time>2018-08-28T10:13:37Z</time>
      </trkpt>
      <trkpt lat="45.9376" lon="4.72408">
        <ele>171</ele>
        <time>2018-08-28T10:13:38Z</time>
      </trkpt>
      <trkpt lat="45.93757" lon="4.72404">
        <ele>171</ele>
        <time>2018-08-28T10:13:39Z</time>
      </trkpt>
      <trkpt lat="45.93753" lon="4.724">
        <ele>171</ele>
        <time>2018-08-28T10:13:40Z</time>
      </trkpt>
      <trkpt lat="45.93749" lon="4.72396">
        <ele>171</ele>
        <time>2018-08-28T10:13:41Z</time>
      </trkpt>
      <trkpt lat="45.93745" lon="4.72393">
        <ele>171</ele>
        <time>2018-08-28T10:13:42Z</time>
      </trkpt>
      <trkpt lat="45.9374" lon="4.72392">
        <ele>171</ele>
        <time>2018-08-28T10:13:43Z</time>
      </trkpt>
      <trkpt lat="45.93735" lon="4.72388">
        <ele>171</ele>
        <time>2018-08-28T10:13:44Z</time>
      </trkpt>
      <trkpt lat="45.9373" lon="4.72383">
        <ele>171</ele>
        <time>2018-08-28T10:13:45Z</time>
      </trkpt>
      <trkpt lat="45.93724" lon="4.72378">
        <ele>171</ele>
        <time>2018-08-28T10:13:46Z</time>
      </trkpt>
      <trkpt lat="45.9372" lon="4.72373">
        <ele>172</ele>
        <time>2018-08-28T10:13:47Z</time>
      </trkpt>
      <trkpt lat="45.93715" lon="4.72368">
        <ele>172</ele>
        <time>2018-08-28T10:13:48Z</time>
      </trkpt>
      <trkpt lat="45.93711" lon="4.72363">
        <ele>172</ele>
        <time>2018-08-28T10:13:49Z</time>
      </trkpt>
      <trkpt lat="45.93706" lon="4.72359">
        <ele>171</ele>
        <time>2018-08-28T10:13:50Z</time>
      </trkpt>
      <trkpt lat="45.93703" lon="4.72356">
        <ele>171</ele>
        <time>2018-08-28T10:13:51Z</time>
      </trkpt>
      <trkpt lat="45.93698" lon="4.72352">
        <ele>171</ele>
        <time>2018-08-28T10:13:52Z</time>
      </trkpt>
      <trkpt lat="45.93693" lon="4.72348">
        <ele>171</ele>
        <time>2018-08-28T10:13:53Z</time>
      </trkpt>
      <trkpt lat="45.93674" lon="4.72333">
        <ele>171</ele>
        <time>2018-08-28T10:13:57Z</time>
      </trkpt>
      <trkpt lat="45.93674" lon="4.72329">
        <ele>171</ele>
        <time>2018-08-28T10:13:58Z</time>
      </trkpt>
      <trkpt lat="45.93667" lon="4.72324">
        <ele>171</ele>
        <time>2018-08-28T10:13:59Z</time>
      </trkpt>
      <trkpt lat="45.93664" lon="4.72321">
        <ele>172</ele>
        <time>2018-08-28T10:14:00Z</time>
      </trkpt>
      <trkpt lat="45.93658" lon="4.72316">
        <ele>172</ele>
        <time>2018-08-28T10:14:01Z</time>
      </trkpt>
      <trkpt lat="45.93655" lon="4.72314">
        <ele>172</ele>
        <time>2018-08-28T10:14:02Z</time>
      </trkpt>
      <trkpt lat="45.93649" lon="4.72308">
        <ele>172</ele>
        <time>2018-08-28T10:14:03Z</time>
      </trkpt>
      <trkpt lat="45.93644" lon="4.72303">
        <ele>172</ele>
        <time>2018-08-28T10:14:04Z</time>
      </trkpt>
      <trkpt lat="45.93641" lon="4.72299">
        <ele>172</ele>
        <time>2018-08-28T10:14:05Z</time>
      </trkpt>
      <trkpt lat="45.93638" lon="4.72295">
        <ele>172</ele>
        <time>2018-08-28T10:14:06Z</time>
      </trkpt>
      <trkpt lat="45.93632" lon="4.72289">
        <ele>172</ele>
        <time>2018-08-28T10:14:07Z</time>
      </trkpt>
      <trkpt lat="45.93628" lon="4.72284">
        <ele>172</ele>
        <time>2018-08-28T10:14:08Z</time>
      </trkpt>
      <trkpt lat="45.93623" lon="4.7228">
        <ele>172</ele>
        <time>2018-08-28T10:14:09Z</time>
      </trkpt>
      <trkpt lat="45.93618" lon="4.72276">
        <ele>172</ele>
        <time>2018-08-28T10:14:11Z</time>
      </trkpt>
      <trkpt lat="45.93614" lon="4.72272">
        <ele>172</ele>
        <time>2018-08-28T10:14:12Z</time>
      </trkpt>
      <trkpt lat="45.93609" lon="4.72266">
        <ele>172</ele>
        <time>2018-08-28T10:14:13Z</time>
      </trkpt>
      <trkpt lat="45.93605" lon="4.72266">
        <ele>173</ele>
        <time>2018-08-28T10:14:14Z</time>
      </trkpt>
      <trkpt lat="45.93603" lon="4.72259">
        <ele>173</ele>
        <time>2018-08-28T10:14:16Z</time>
      </trkpt>
      <trkpt lat="45.93599" lon="4.72255">
        <ele>173</ele>
        <time>2018-08-28T10:14:17Z</time>
      </trkpt>
      <trkpt lat="45.93594" lon="4.72251">
        <ele>173</ele>
        <time>2018-08-28T10:14:18Z</time>
      </trkpt>
      <trkpt lat="45.93591" lon="4.72247">
        <ele>173</ele>
        <time>2018-08-28T10:14:19Z</time>
      </trkpt>
      <trkpt lat="45.93583" lon="4.72242">
        <ele>173</ele>
        <time>2018-08-28T10:14:21Z</time>
      </trkpt>
      <trkpt lat="45.9358" lon="4.72238">
        <ele>173</ele>
        <time>2018-08-28T10:14:22Z</time>
      </trkpt>
      <trkpt lat="45.93573" lon="4.72233">
        <ele>173</ele>
        <time>2018-08-28T10:14:24Z</time>
      </trkpt>
      <trkpt lat="45.9357" lon="4.7223">
        <ele>173</ele>
        <time>2018-08-28T10:14:25Z</time>
      </trkpt>
      <trkpt lat="45.93563" lon="4.72224">
        <ele>173</ele>
        <time>2018-08-28T10:14:29Z</time>
      </trkpt>
      <trkpt lat="45.93562" lon="4.72223">
        <ele>173</ele>
        <time>2018-08-28T10:14:30Z</time>
      </trkpt>
      <trkpt lat="45.93554" lon="4.72218">
        <ele>173</ele>
        <time>2018-08-28T10:14:45Z</time>
      </trkpt>
      <trkpt lat="45.93552" lon="4.72221">
        <ele>173</ele>
        <time>2018-08-28T10:14:46Z</time>
      </trkpt>
      <trkpt lat="45.93548" lon="4.72228">
        <ele>172</ele>
        <time>2018-08-28T10:14:48Z</time>
      </trkpt>
      <trkpt lat="45.93542" lon="4.7224">
        <ele>172</ele>
        <time>2018-08-28T10:14:49Z</time>
      </trkpt>
      <trkpt lat="45.93537" lon="4.7225">
        <ele>172</ele>
        <time>2018-08-28T10:14:51Z</time>
      </trkpt>
      <trkpt lat="45.93534" lon="4.72255">
        <ele>172</ele>
        <time>2018-08-28T10:14:52Z</time>
      </trkpt>
      <trkpt lat="45.9353" lon="4.72261">
        <ele>172</ele>
        <time>2018-08-28T10:14:53Z</time>
      </trkpt>
      <trkpt lat="45.93528" lon="4.72268">
        <ele>172</ele>
        <time>2018-08-28T10:14:54Z</time>
      </trkpt>
      <trkpt lat="45.93525" lon="4.72273">
        <ele>172</ele>
        <time>2018-08-28T10:14:55Z</time>
      </trkpt>
      <trkpt lat="45.93523" lon="4.72279">
        <ele>172</ele>
        <time>2018-08-28T10:14:56Z</time>
      </trkpt>
      <trkpt lat="45.9352" lon="4.72285">
        <ele>172</ele>
        <time>2018-08-28T10:14:57Z</time>
      </trkpt>
      <trkpt lat="45.93517" lon="4.72292">
        <ele>172</ele>
        <time>2018-08-28T10:14:58Z</time>
      </trkpt>
      <trkpt lat="45.93513" lon="4.72295">
        <ele>172</ele>
        <time>2018-08-28T10:14:59Z</time>
      </trkpt>
      <trkpt lat="45.93509" lon="4.72299">
        <ele>172</ele>
        <time>2018-08-28T10:15:00Z</time>
      </trkpt>
      <trkpt lat="45.93505" lon="4.72307">
        <ele>173</ele>
        <time>2018-08-28T10:15:01Z</time>
      </trkpt>
      <trkpt lat="45.93502" lon="4.72312">
        <ele>173</ele>
        <time>2018-08-28T10:15:02Z</time>
      </trkpt>
      <trkpt lat="45.93497" lon="4.72317">
        <ele>173</ele>
        <time>2018-08-28T10:15:03Z</time>
      </trkpt>
      <trkpt lat="45.93493" lon="4.72323">
        <ele>173</ele>
        <time>2018-08-28T10:15:04Z</time>
      </trkpt>
      <trkpt lat="45.93489" lon="4.72329">
        <ele>173</ele>
        <time>2018-08-28T10:15:05Z</time>
      </trkpt>
      <trkpt lat="45.93486" lon="4.72335">
        <ele>173</ele>
        <time>2018-08-28T10:15:06Z</time>
      </trkpt>
      <trkpt lat="45.93481" lon="4.7234">
        <ele>173</ele>
        <time>2018-08-28T10:15:07Z</time>
      </trkpt>
      <trkpt lat="45.93478" lon="4.72347">
        <ele>173</ele>
        <time>2018-08-28T10:15:08Z</time>
      </trkpt>
      <trkpt lat="45.93474" lon="4.72352">
        <ele>173</ele>
        <time>2018-08-28T10:15:09Z</time>
      </trkpt>
      <trkpt lat="45.93471" lon="4.72357">
        <ele>173</ele>
        <time>2018-08-28T10:15:10Z</time>
      </trkpt>
      <trkpt lat="45.93467" lon="4.72363">
        <ele>173</ele>
        <time>2018-08-28T10:15:11Z</time>
      </trkpt>
      <trkpt lat="45.93463" lon="4.72368">
        <ele>173</ele>
        <time>2018-08-28T10:15:12Z</time>
      </trkpt>
      <trkpt lat="45.9346" lon="4.72376">
        <ele>173</ele>
        <time>2018-08-28T10:15:13Z</time>
      </trkpt>
      <trkpt lat="45.93457" lon="4.72382">
        <ele>173</ele>
        <time>2018-08-28T10:15:14Z</time>
      </trkpt>
      <trkpt lat="45.93452" lon="4.72386">
        <ele>173</ele>
        <time>2018-08-28T10:15:15Z</time>
      </trkpt>
      <trkpt lat="45.93448" lon="4.72391">
        <ele>173</ele>
        <time>2018-08-28T10:15:16Z</time>
      </trkpt>
      <trkpt lat="45.93444" lon="4.72398">
        <ele>173</ele>
        <time>2018-08-28T10:15:17Z</time>
      </trkpt>
      <trkpt lat="45.93439" lon="4.72402">
        <ele>173</ele>
        <time>2018-08-28T10:15:18Z</time>
      </trkpt>
      <trkpt lat="45.93433" lon="4.72402">
        <ele>174</ele>
        <time>2018-08-28T10:15:19Z</time>
      </trkpt>
      <trkpt lat="45.93427" lon="4.72403">
        <ele>174</ele>
        <time>2018-08-28T10:15:20Z</time>
      </trkpt>
      <trkpt lat="45.93422" lon="4.72406">
        <ele>174</ele>
        <time>2018-08-28T10:15:21Z</time>
      </trkpt>
      <trkpt lat="45.93415" lon="4.72406">
        <ele>174</ele>
        <time>2018-08-28T10:15:22Z</time>
      </trkpt>
      <trkpt lat="45.93411" lon="4.72408">
        <ele>174</ele>
        <time>2018-08-28T10:15:23Z</time>
      </trkpt>
      <trkpt lat="45.93404" lon="4.72407">
        <ele>174</ele>
        <time>2018-08-28T10:15:24Z</time>
      </trkpt>
      <trkpt lat="45.93398" lon="4.72408">
        <ele>174</ele>
        <time>2018-08-28T10:15:25Z</time>
      </trkpt>
      <trkpt lat="45.93392" lon="4.72408">
        <ele>174</ele>
        <time>2018-08-28T10:15:26Z</time>
      </trkpt>
      <trkpt lat="45.93387" lon="4.72412">
        <ele>174</ele>
        <time>2018-08-28T10:15:27Z</time>
      </trkpt>
      <trkpt lat="45.93383" lon="4.72418">
        <ele>173</ele>
        <time>2018-08-28T10:15:28Z</time>
      </trkpt>
      <trkpt lat="45.93382" lon="4.72426">
        <ele>173</ele>
        <time>2018-08-28T10:15:29Z</time>
      </trkpt>
      <trkpt lat="45.93384" lon="4.72433">
        <ele>173</ele>
        <time>2018-08-28T10:15:30Z</time>
      </trkpt>
      <trkpt lat="45.93387" lon="4.72437">
        <ele>173</ele>
        <time>2018-08-28T10:15:31Z</time>
      </trkpt>
      <trkpt lat="45.93389" lon="4.72445">
        <ele>173</ele>
        <time>2018-08-28T10:15:32Z</time>
      </trkpt>
      <trkpt lat="45.93389" lon="4.72453">
        <ele>173</ele>
        <time>2018-08-28T10:15:33Z</time>
      </trkpt>
      <trkpt lat="45.93387" lon="4.7246">
        <ele>173</ele>
        <time>2018-08-28T10:15:34Z</time>
      </trkpt>
      <trkpt lat="45.93384" lon="4.72467">
        <ele>173</ele>
        <time>2018-08-28T10:15:35Z</time>
      </trkpt>
      <trkpt lat="45.9338" lon="4.72473">
        <ele>173</ele>
        <time>2018-08-28T10:15:36Z</time>
      </trkpt>
      <trkpt lat="45.93377" lon="4.72478">
        <ele>173</ele>
        <time>2018-08-28T10:15:37Z</time>
      </trkpt>
      <trkpt lat="45.93373" lon="4.72484">
        <ele>173</ele>
        <time>2018-08-28T10:15:38Z</time>
      </trkpt>
      <trkpt lat="45.93369" lon="4.7249">
        <ele>173</ele>
        <time>2018-08-28T10:15:39Z</time>
      </trkpt>
      <trkpt lat="45.93364" lon="4.72495">
        <ele>173</ele>
        <time>2018-08-28T10:15:40Z</time>
      </trkpt>
      <trkpt lat="45.93359" lon="4.72502">
        <ele>172</ele>
        <time>2018-08-28T10:15:41Z</time>
      </trkpt>
      <trkpt lat="45.93355" lon="4.72507">
        <ele>172</ele>
        <time>2018-08-28T10:15:42Z</time>
      </trkpt>
      <trkpt lat="45.93351" lon="4.72512">
        <ele>172</ele>
        <time>2018-08-28T10:15:43Z</time>
      </trkpt>
      <trkpt lat="45.93347" lon="4.72518">
        <ele>172</ele>
        <time>2018-08-28T10:15:44Z</time>
      </trkpt>
      <trkpt lat="45.93342" lon="4.72522">
        <ele>172</ele>
        <time>2018-08-28T10:15:45Z</time>
      </trkpt>
      <trkpt lat="45.93338" lon="4.72525">
        <ele>172</ele>
        <time>2018-08-28T10:15:46Z</time>
      </trkpt>
      <trkpt lat="45.93334" lon="4.7253">
        <ele>172</ele>
        <time>2018-08-28T10:15:47Z</time>
      </trkpt>
      <trkpt lat="45.9333" lon="4.72535">
        <ele>172</ele>
        <time>2018-08-28T10:15:48Z</time>
      </trkpt>
      <trkpt lat="45.93325" lon="4.7254">
        <ele>172</ele>
        <time>2018-08-28T10:15:49Z</time>
      </trkpt>
      <trkpt lat="45.93321" lon="4.72545">
        <ele>172</ele>
        <time>2018-08-28T10:15:50Z</time>
      </trkpt>
      <trkpt lat="45.93317" lon="4.7255">
        <ele>172</ele>
        <time>2018-08-28T10:15:51Z</time>
      </trkpt>
      <trkpt lat="45.93313" lon="4.72554">
        <ele>172</ele>
        <time>2018-08-28T10:15:52Z</time>
      </trkpt>
      <trkpt lat="45.93308" lon="4.72558">
        <ele>172</ele>
        <time>2018-08-28T10:15:53Z</time>
      </trkpt>
      <trkpt lat="45.93305" lon="4.72563">
        <ele>172</ele>
        <time>2018-08-28T10:15:54Z</time>
      </trkpt>
      <trkpt lat="45.93301" lon="4.72567">
        <ele>171</ele>
        <time>2018-08-28T10:15:55Z</time>
      </trkpt>
      <trkpt lat="45.93297" lon="4.72572">
        <ele>171</ele>
        <time>2018-08-28T10:15:56Z</time>
      </trkpt>
      <trkpt lat="45.93292" lon="4.72582">
        <ele>171</ele>
        <time>2018-08-28T10:15:58Z</time>
      </trkpt>
      <trkpt lat="45.9329" lon="4.72586">
        <ele>170</ele>
        <time>2018-08-28T10:15:59Z</time>
      </trkpt>
      <trkpt lat="45.93286" lon="4.72591">
        <ele>170</ele>
        <time>2018-08-28T10:16:00Z</time>
      </trkpt>
      <trkpt lat="45.93282" lon="4.72598">
        <ele>170</ele>
        <time>2018-08-28T10:16:01Z</time>
      </trkpt>
      <trkpt lat="45.93278" lon="4.72602">
        <ele>170</ele>
        <time>2018-08-28T10:16:02Z</time>
      </trkpt>
      <trkpt lat="45.93274" lon="4.72606">
        <ele>170</ele>
        <time>2018-08-28T10:16:03Z</time>
      </trkpt>
      <trkpt lat="45.9327" lon="4.72611">
        <ele>170</ele>
        <time>2018-08-28T10:16:04Z</time>
      </trkpt>
      <trkpt lat="45.93267" lon="4.72616">
        <ele>170</ele>
        <time>2018-08-28T10:16:05Z</time>
      </trkpt>
      <trkpt lat="45.93263" lon="4.7262">
        <ele>170</ele>
        <time>2018-08-28T10:16:06Z</time>
      </trkpt>
      <trkpt lat="45.93258" lon="4.72625">
        <ele>170</ele>
        <time>2018-08-28T10:16:07Z</time>
      </trkpt>
      <trkpt lat="45.93254" lon="4.7263">
        <ele>170</ele>
        <time>2018-08-28T10:16:08Z</time>
      </trkpt>
      <trkpt lat="45.93249" lon="4.72632">
        <ele>170</ele>
        <time>2018-08-28T10:16:09Z</time>
      </trkpt>
      <trkpt lat="45.93244" lon="4.72634">
        <ele>170</ele>
        <time>2018-08-28T10:16:10Z</time>
      </trkpt>
      <trkpt lat="45.93239" lon="4.72638">
        <ele>170</ele>
        <time>2018-08-28T10:16:11Z</time>
      </trkpt>
      <trkpt lat="45.93236" lon="4.72641">
        <ele>170</ele>
        <time>2018-08-28T10:16:12Z</time>
      </trkpt>
      <trkpt lat="45.93233" lon="4.72647">
        <ele>170</ele>
        <time>2018-08-28T10:16:13Z</time>
      </trkpt>
      <trkpt lat="45.93229" lon="4.72651">
        <ele>170</ele>
        <time>2018-08-28T10:16:14Z</time>
      </trkpt>
      <trkpt lat="45.93225" lon="4.72654">
        <ele>170</ele>
        <time>2018-08-28T10:16:15Z</time>
      </trkpt>
      <trkpt lat="45.93221" lon="4.72658">
        <ele>170</ele>
        <time>2018-08-28T10:16:16Z</time>
      </trkpt>
      <trkpt lat="45.93216" lon="4.72663">
        <ele>170</ele>
        <time>2018-08-28T10:16:17Z</time>
      </trkpt>
      <trkpt lat="45.93214" lon="4.72673">
        <ele>169</ele>
        <time>2018-08-28T10:16:18Z</time>
      </trkpt>
      <trkpt lat="45.93209" lon="4.72677">
        <ele>169</ele>
        <time>2018-08-28T10:16:19Z</time>
      </trkpt>
      <trkpt lat="45.93206" lon="4.72682">
        <ele>169</ele>
        <time>2018-08-28T10:16:20Z</time>
      </trkpt>
      <trkpt lat="45.93202" lon="4.72687">
        <ele>169</ele>
        <time>2018-08-28T10:16:21Z</time>
      </trkpt>
      <trkpt lat="45.93198" lon="4.72692">
        <ele>169</ele>
        <time>2018-08-28T10:16:22Z</time>
      </trkpt>
      <trkpt lat="45.93195" lon="4.727">
        <ele>169</ele>
        <time>2018-08-28T10:16:23Z</time>
      </trkpt>
      <trkpt lat="45.93191" lon="4.72705">
        <ele>169</ele>
        <time>2018-08-28T10:16:24Z</time>
      </trkpt>
      <trkpt lat="45.93186" lon="4.72709">
        <ele>169</ele>
        <time>2018-08-28T10:16:25Z</time>
      </trkpt>
      <trkpt lat="45.93181" lon="4.72713">
        <ele>169</ele>
        <time>2018-08-28T10:16:26Z</time>
      </trkpt>
      <trkpt lat="45.93176" lon="4.72718">
        <ele>170</ele>
        <time>2018-08-28T10:16:27Z</time>
      </trkpt>
      <trkpt lat="45.93174" lon="4.72725">
        <ele>170</ele>
        <time>2018-08-28T10:16:28Z</time>
      </trkpt>
      <trkpt lat="45.93169" lon="4.72729">
        <ele>170</ele>
        <time>2018-08-28T10:16:29Z</time>
      </trkpt>
      <trkpt lat="45.93164" lon="4.72733">
        <ele>170</ele>
        <time>2018-08-28T10:16:30Z</time>
      </trkpt>
      <trkpt lat="45.93159" lon="4.72738">
        <ele>170</ele>
        <time>2018-08-28T10:16:31Z</time>
      </trkpt>
      <trkpt lat="45.93153" lon="4.72742">
        <ele>170</ele>
        <time>2018-08-28T10:16:32Z</time>
      </trkpt>
      <trkpt lat="45.93148" lon="4.72747">
        <ele>170</ele>
        <time>2018-08-28T10:16:33Z</time>
      </trkpt>
      <trkpt lat="45.93144" lon="4.72754">
        <ele>171</ele>
        <time>2018-08-28T10:16:34Z</time>
      </trkpt>
      <trkpt lat="45.93139" lon="4.72758">
        <ele>171</ele>
        <time>2018-08-28T10:16:35Z</time>
      </trkpt>
      <trkpt lat="45.93134" lon="4.72763">
        <ele>171</ele>
        <time>2018-08-28T10:16:36Z</time>
      </trkpt>
      <trkpt lat="45.9313" lon="4.72769">
        <ele>171</ele>
        <time>2018-08-28T10:16:37Z</time>
      </trkpt>
      <trkpt lat="45.93126" lon="4.72773">
        <ele>171</ele>
        <time>2018-08-28T10:16:38Z</time>
      </trkpt>
      <trkpt lat="45.9312" lon="4.72779">
        <ele>171</ele>
        <time>2018-08-28T10:16:39Z</time>
      </trkpt>
      <trkpt lat="45.93115" lon="4.72785">
        <ele>171</ele>
        <time>2018-08-28T10:16:40Z</time>
      </trkpt>
      <trkpt lat="45.93111" lon="4.72791">
        <ele>171</ele>
        <time>2018-08-28T10:16:41Z</time>
      </trkpt>
      <trkpt lat="45.93107" lon="4.72797">
        <ele>171</ele>
        <time>2018-08-28T10:16:42Z</time>
      </trkpt>
      <trkpt lat="45.93103" lon="4.72803">
        <ele>171</ele>
        <time>2018-08-28T10:16:43Z</time>
      </trkpt>
      <trkpt lat="45.93098" lon="4.72806">
        <ele>171</ele>
        <time>2018-08-28T10:16:44Z</time>
      </trkpt>
      <trkpt lat="45.93093" lon="4.72812">
        <ele>172</ele>
        <time>2018-08-28T10:16:45Z</time>
      </trkpt>
      <trkpt lat="45.93088" lon="4.72817">
        <ele>172</ele>
        <time>2018-08-28T10:16:46Z</time>
      </trkpt>
      <trkpt lat="45.93083" lon="4.72821">
        <ele>173</ele>
        <time>2018-08-28T10:16:47Z</time>
      </trkpt>
      <trkpt lat="45.93082" lon="4.72822">
        <ele>173</ele>
        <time>2018-08-28T10:16:49Z</time>
      </trkpt>
      <trkpt lat="45.93048" lon="4.72868">
        <ele>172</ele>
        <time>2018-08-28T10:16:57Z</time>
      </trkpt>
      <trkpt lat="45.93041" lon="4.72872">
        <ele>172</ele>
        <time>2018-08-28T10:16:58Z</time>
      </trkpt>
      <trkpt lat="45.93036" lon="4.72878">
        <ele>172</ele>
        <time>2018-08-28T10:16:59Z</time>
      </trkpt>
      <trkpt lat="45.93032" lon="4.72886">
        <ele>172</ele>
        <time>2018-08-28T10:17:00Z</time>
      </trkpt>
      <trkpt lat="45.93027" lon="4.72895">
        <ele>172</ele>
        <time>2018-08-28T10:17:01Z</time>
      </trkpt>
      <trkpt lat="45.93022" lon="4.72902">
        <ele>172</ele>
        <time>2018-08-28T10:17:02Z</time>
      </trkpt>
      <trkpt lat="45.93017" lon="4.72906">
        <ele>172</ele>
        <time>2018-08-28T10:17:03Z</time>
      </trkpt>
      <trkpt lat="45.93013" lon="4.72912">
        <ele>171</ele>
        <time>2018-08-28T10:17:04Z</time>
      </trkpt>
      <trkpt lat="45.93008" lon="4.72917">
        <ele>170</ele>
        <time>2018-08-28T10:17:05Z</time>
      </trkpt>
      <trkpt lat="45.93004" lon="4.7292">
        <ele>171</ele>
        <time>2018-08-28T10:17:07.648Z</time>
      </trkpt>
      <trkpt lat="45.92999" lon="4.72925">
        <ele>171</ele>
        <time>2018-08-28T10:17:07Z</time>
      </trkpt>
      <trkpt lat="45.92995" lon="4.72929">
        <ele>171</ele>
        <time>2018-08-28T10:17:08Z</time>
      </trkpt>
      <trkpt lat="45.9299" lon="4.72935">
        <ele>171</ele>
        <time>2018-08-28T10:17:09Z</time>
      </trkpt>
      <trkpt lat="45.92986" lon="4.72941">
        <ele>171</ele>
        <time>2018-08-28T10:17:10Z</time>
      </trkpt>
      <trkpt lat="45.92981" lon="4.72946">
        <ele>171</ele>
        <time>2018-08-28T10:17:11Z</time>
      </trkpt>
      <trkpt lat="45.92976" lon="4.72952">
        <ele>171</ele>
        <time>2018-08-28T10:17:12Z</time>
      </trkpt>
      <trkpt lat="45.92972" lon="4.72957">
        <ele>171</ele>
        <time>2018-08-28T10:17:13Z</time>
      </trkpt>
      <trkpt lat="45.92968" lon="4.72961">
        <ele>171</ele>
        <time>2018-08-28T10:17:14Z</time>
      </trkpt>
      <trkpt lat="45.92963" lon="4.72967">
        <ele>171</ele>
        <time>2018-08-28T10:17:15Z</time>
      </trkpt>
      <trkpt lat="45.92959" lon="4.72972">
        <ele>171</ele>
        <time>2018-08-28T10:17:16Z</time>
      </trkpt>
      <trkpt lat="45.92954" lon="4.72977">
        <ele>171</ele>
        <time>2018-08-28T10:17:17Z</time>
      </trkpt>
      <trkpt lat="45.9295" lon="4.72982">
        <ele>171</ele>
        <time>2018-08-28T10:17:18Z</time>
      </trkpt>
      <trkpt lat="45.92947" lon="4.72987">
        <ele>171</ele>
        <time>2018-08-28T10:17:19Z</time>
      </trkpt>
      <trkpt lat="45.92943" lon="4.72992">
        <ele>171</ele>
        <time>2018-08-28T10:17:20Z</time>
      </trkpt>
      <trkpt lat="45.92938" lon="4.72998">
        <ele>171</ele>
        <time>2018-08-28T10:17:21Z</time>
      </trkpt>
      <trkpt lat="45.92934" lon="4.73002">
        <ele>171</ele>
        <time>2018-08-28T10:17:22Z</time>
      </trkpt>
      <trkpt lat="45.92931" lon="4.73009">
        <ele>171</ele>
        <time>2018-08-28T10:17:23Z</time>
      </trkpt>
      <trkpt lat="45.92926" lon="4.73014">
        <ele>172</ele>
        <time>2018-08-28T10:17:24Z</time>
      </trkpt>
      <trkpt lat="45.92921" lon="4.7302">
        <ele>172</ele>
        <time>2018-08-28T10:17:25Z</time>
      </trkpt>
      <trkpt lat="45.92916" lon="4.73026">
        <ele>172</ele>
        <time>2018-08-28T10:17:26Z</time>
      </trkpt>
      <trkpt lat="45.92911" lon="4.73033">
        <ele>172</ele>
        <time>2018-08-28T10:17:27Z</time>
      </trkpt>
      <trkpt lat="45.92906" lon="4.7304">
        <ele>172</ele>
        <time>2018-08-28T10:17:28Z</time>
      </trkpt>
      <trkpt lat="45.92901" lon="4.73047">
        <ele>172</ele>
        <time>2018-08-28T10:17:29Z</time>
      </trkpt>
      <trkpt lat="45.92898" lon="4.73053">
        <ele>172</ele>
        <time>2018-08-28T10:17:30Z</time>
      </trkpt>
      <trkpt lat="45.92894" lon="4.73059">
        <ele>172</ele>
        <time>2018-08-28T10:17:31Z</time>
      </trkpt>
      <trkpt lat="45.92891" lon="4.73067">
        <ele>172</ele>
        <time>2018-08-28T10:17:32Z</time>
      </trkpt>
      <trkpt lat="45.92887" lon="4.73073">
        <ele>172</ele>
        <time>2018-08-28T10:17:33Z</time>
      </trkpt>
      <trkpt lat="45.92883" lon="4.73079">
        <ele>172</ele>
        <time>2018-08-28T10:17:34Z</time>
      </trkpt>
      <trkpt lat="45.92878" lon="4.73084">
        <ele>172</ele>
        <time>2018-08-28T10:17:35Z</time>
      </trkpt>
      <trkpt lat="45.92874" lon="4.73089">
        <ele>172</ele>
        <time>2018-08-28T10:17:36Z</time>
      </trkpt>
      <trkpt lat="45.92869" lon="4.73093">
        <ele>172</ele>
        <time>2018-08-28T10:17:37Z</time>
      </trkpt>
      <trkpt lat="45.92865" lon="4.73098">
        <ele>171</ele>
        <time>2018-08-28T10:17:38Z</time>
      </trkpt>
      <trkpt lat="45.92861" lon="4.73103">
        <ele>171</ele>
        <time>2018-08-28T10:17:39Z</time>
      </trkpt>
      <trkpt lat="45.92853" lon="4.73108">
        <ele>171</ele>
        <time>2018-08-28T10:17:41Z</time>
      </trkpt>
      <trkpt lat="45.92849" lon="4.73106">
        <ele>171</ele>
        <time>2018-08-28T10:17:42Z</time>
      </trkpt>
      <trkpt lat="45.92846" lon="4.731">
        <ele>171</ele>
        <time>2018-08-28T10:17:43Z</time>
      </trkpt>
      <trkpt lat="45.92845" lon="4.73093">
        <ele>171</ele>
        <time>2018-08-28T10:17:44Z</time>
      </trkpt>
      <trkpt lat="45.92843" lon="4.73088">
        <ele>171</ele>
        <time>2018-08-28T10:17:45Z</time>
      </trkpt>
      <trkpt lat="45.92842" lon="4.7308">
        <ele>171</ele>
        <time>2018-08-28T10:17:46Z</time>
      </trkpt>
      <trkpt lat="45.92842" lon="4.73073">
        <ele>171</ele>
        <time>2018-08-28T10:17:47Z</time>
      </trkpt>
      <trkpt lat="45.92841" lon="4.73066">
        <ele>171</ele>
        <time>2018-08-28T10:17:48Z</time>
      </trkpt>
      <trkpt lat="45.9284" lon="4.73059">
        <ele>171</ele>
        <time>2018-08-28T10:17:49Z</time>
      </trkpt>
      <trkpt lat="45.92839" lon="4.73052">
        <ele>171</ele>
        <time>2018-08-28T10:17:50Z</time>
      </trkpt>
      <trkpt lat="45.92838" lon="4.73044">
        <ele>171</ele>
        <time>2018-08-28T10:17:51Z</time>
      </trkpt>
      <trkpt lat="45.92837" lon="4.73038">
        <ele>171</ele>
        <time>2018-08-28T10:17:52Z</time>
      </trkpt>
      <trkpt lat="45.92834" lon="4.73026">
        <ele>171</ele>
        <time>2018-08-28T10:17:54Z</time>
      </trkpt>
      <trkpt lat="45.92832" lon="4.73021">
        <ele>170</ele>
        <time>2018-08-28T10:17:55Z</time>
      </trkpt>
      <trkpt lat="45.92831" lon="4.73014">
        <ele>170</ele>
        <time>2018-08-28T10:17:56Z</time>
      </trkpt>
      <trkpt lat="45.92831" lon="4.73008">
        <ele>170</ele>
        <time>2018-08-28T10:17:57Z</time>
      </trkpt>
      <trkpt lat="45.9283" lon="4.73001">
        <ele>170</ele>
        <time>2018-08-28T10:17:58Z</time>
      </trkpt>
      <trkpt lat="45.9283" lon="4.72993">
        <ele>170</ele>
        <time>2018-08-28T10:17:59Z</time>
      </trkpt>
      <trkpt lat="45.9283" lon="4.72985">
        <ele>170</ele>
        <time>2018-08-28T10:18:00Z</time>
      </trkpt>
      <trkpt lat="45.92829" lon="4.72977">
        <ele>170</ele>
        <time>2018-08-28T10:18:01Z</time>
      </trkpt>
      <trkpt lat="45.92829" lon="4.7297">
        <ele>170</ele>
        <time>2018-08-28T10:18:02Z</time>
      </trkpt>
      <trkpt lat="45.92828" lon="4.72962">
        <ele>170</ele>
        <time>2018-08-28T10:18:03Z</time>
      </trkpt>
      <trkpt lat="45.92828" lon="4.72954">
        <ele>170</ele>
        <time>2018-08-28T10:18:04Z</time>
      </trkpt>
      <trkpt lat="45.92827" lon="4.72948">
        <ele>170</ele>
        <time>2018-08-28T10:18:05Z</time>
      </trkpt>
      <trkpt lat="45.92826" lon="4.72939">
        <ele>170</ele>
        <time>2018-08-28T10:18:06Z</time>
      </trkpt>
      <trkpt lat="45.92825" lon="4.72932">
        <ele>170</ele>
        <time>2018-08-28T10:18:07Z</time>
      </trkpt>
      <trkpt lat="45.92824" lon="4.72924">
        <ele>170</ele>
        <time>2018-08-28T10:18:08Z</time>
      </trkpt>
      <trkpt lat="45.92823" lon="4.72916">
        <ele>170</ele>
        <time>2018-08-28T10:18:09Z</time>
      </trkpt>
      <trkpt lat="45.92822" lon="4.72908">
        <ele>170</ele>
        <time>2018-08-28T10:18:10Z</time>
      </trkpt>
      <trkpt lat="45.92821" lon="4.72901">
        <ele>170</ele>
        <time>2018-08-28T10:18:11Z</time>
      </trkpt>
      <trkpt lat="45.9282" lon="4.72893">
        <ele>170</ele>
        <time>2018-08-28T10:18:12Z</time>
      </trkpt>
      <trkpt lat="45.92819" lon="4.72886">
        <ele>170</ele>
        <time>2018-08-28T10:18:13Z</time>
      </trkpt>
      <trkpt lat="45.92817" lon="4.72879">
        <ele>170</ele>
        <time>2018-08-28T10:18:14Z</time>
      </trkpt>
      <trkpt lat="45.92816" lon="4.72872">
        <ele>170</ele>
        <time>2018-08-28T10:18:15Z</time>
      </trkpt>
      <trkpt lat="45.92814" lon="4.72866">
        <ele>170</ele>
        <time>2018-08-28T10:18:16Z</time>
      </trkpt>
      <trkpt lat="45.92812" lon="4.72859">
        <ele>170</ele>
        <time>2018-08-28T10:18:17Z</time>
      </trkpt>
      <trkpt lat="45.9281" lon="4.72852">
        <ele>170</ele>
        <time>2018-08-28T10:18:18Z</time>
      </trkpt>
      <trkpt lat="45.92809" lon="4.72845">
        <ele>170</ele>
        <time>2018-08-28T10:18:19Z</time>
      </trkpt>
      <trkpt lat="45.92809" lon="4.72839">
        <ele>170</ele>
        <time>2018-08-28T10:18:20Z</time>
      </trkpt>
      <trkpt lat="45.92808" lon="4.72832">
        <ele>171</ele>
        <time>2018-08-28T10:18:21Z</time>
      </trkpt>
      <trkpt lat="45.92805" lon="4.72826">
        <ele>171</ele>
        <time>2018-08-28T10:18:22Z</time>
      </trkpt>
      <trkpt lat="45.92804" lon="4.72819">
        <ele>171</ele>
        <time>2018-08-28T10:18:23Z</time>
      </trkpt>
      <trkpt lat="45.92803" lon="4.72813">
        <ele>171</ele>
        <time>2018-08-28T10:18:24Z</time>
      </trkpt>
      <trkpt lat="45.92801" lon="4.72806">
        <ele>171</ele>
        <time>2018-08-28T10:18:25Z</time>
      </trkpt>
      <trkpt lat="45.92799" lon="4.72794">
        <ele>171</ele>
        <time>2018-08-28T10:18:28Z</time>
      </trkpt>
      <trkpt lat="45.92798" lon="4.72792">
        <ele>171</ele>
        <time>2018-08-28T10:18:29Z</time>
      </trkpt>
      <trkpt lat="45.92794" lon="4.72788">
        <ele>171</ele>
        <time>2018-08-28T10:18:30Z</time>
      </trkpt>
      <trkpt lat="45.92788" lon="4.7279">
        <ele>170</ele>
        <time>2018-08-28T10:18:31Z</time>
      </trkpt>
      <trkpt lat="45.92781" lon="4.72796">
        <ele>170</ele>
        <time>2018-08-28T10:18:33Z</time>
      </trkpt>
      <trkpt lat="45.92778" lon="4.72799">
        <ele>170</ele>
        <time>2018-08-28T10:18:34Z</time>
      </trkpt>
      <trkpt lat="45.92773" lon="4.72802">
        <ele>170</ele>
        <time>2018-08-28T10:18:35Z</time>
      </trkpt>
      <trkpt lat="45.92767" lon="4.72805">
        <ele>170</ele>
        <time>2018-08-28T10:18:36Z</time>
      </trkpt>
      <trkpt lat="45.92762" lon="4.72808">
        <ele>170</ele>
        <time>2018-08-28T10:18:37Z</time>
      </trkpt>
      <trkpt lat="45.92758" lon="4.72813">
        <ele>170</ele>
        <time>2018-08-28T10:18:38Z</time>
      </trkpt>
      <trkpt lat="45.92753" lon="4.72817">
        <ele>170</ele>
        <time>2018-08-28T10:18:39Z</time>
      </trkpt>
      <trkpt lat="45.92748" lon="4.72822">
        <ele>169</ele>
        <time>2018-08-28T10:18:40Z</time>
      </trkpt>
      <trkpt lat="45.92743" lon="4.72826">
        <ele>169</ele>
        <time>2018-08-28T10:18:41Z</time>
      </trkpt>
      <trkpt lat="45.92738" lon="4.72829">
        <ele>169</ele>
        <time>2018-08-28T10:18:42Z</time>
      </trkpt>
      <trkpt lat="45.92734" lon="4.72831">
        <ele>169</ele>
        <time>2018-08-28T10:18:43Z</time>
      </trkpt>
      <trkpt lat="45.92728" lon="4.72834">
        <ele>169</ele>
        <time>2018-08-28T10:18:44Z</time>
      </trkpt>
      <trkpt lat="45.92723" lon="4.72838">
        <ele>169</ele>
        <time>2018-08-28T10:18:45Z</time>
      </trkpt>
      <trkpt lat="45.92719" lon="4.72845">
        <ele>169</ele>
        <time>2018-08-28T10:18:46Z</time>
      </trkpt>
      <trkpt lat="45.92714" lon="4.72849">
        <ele>169</ele>
        <time>2018-08-28T10:18:47Z</time>
      </trkpt>
      <trkpt lat="45.92709" lon="4.72854">
        <ele>169</ele>
        <time>2018-08-28T10:18:48Z</time>
      </trkpt>
      <trkpt lat="45.92704" lon="4.72858">
        <ele>169</ele>
        <time>2018-08-28T10:18:49Z</time>
      </trkpt>
      <trkpt lat="45.92699" lon="4.72862">
        <ele>169</ele>
        <time>2018-08-28T10:18:50Z</time>
      </trkpt>
      <trkpt lat="45.92694" lon="4.72865">
        <ele>169</ele>
        <time>2018-08-28T10:18:51Z</time>
      </trkpt>
      <trkpt lat="45.92688" lon="4.72869">
        <ele>169</ele>
        <time>2018-08-28T10:18:52Z</time>
      </trkpt>
      <trkpt lat="45.92683" lon="4.72874">
        <ele>169</ele>
        <time>2018-08-28T10:18:53Z</time>
      </trkpt>
      <trkpt lat="45.92678" lon="4.72877">
        <ele>170</ele>
        <time>2018-08-28T10:18:54Z</time>
      </trkpt>
      <trkpt lat="45.92674" lon="4.72881">
        <ele>170</ele>
        <time>2018-08-28T10:18:55Z</time>
      </trkpt>
      <trkpt lat="45.92669" lon="4.72885">
        <ele>170</ele>
        <time>2018-08-28T10:18:56Z</time>
      </trkpt>
      <trkpt lat="45.92664" lon="4.7289">
        <ele>169</ele>
        <time>2018-08-28T10:18:57Z</time>
      </trkpt>
      <trkpt lat="45.92658" lon="4.72893">
        <ele>170</ele>
        <time>2018-08-28T10:18:58Z</time>
      </trkpt>
      <trkpt lat="45.92654" lon="4.72897">
        <ele>170</ele>
        <time>2018-08-28T10:18:59Z</time>
      </trkpt>
      <trkpt lat="45.92649" lon="4.72901">
        <ele>170</ele>
        <time>2018-08-28T10:19:00Z</time>
      </trkpt>
      <trkpt lat="45.92644" lon="4.72904">
        <ele>169</ele>
        <time>2018-08-28T10:19:01Z</time>
      </trkpt>
      <trkpt lat="45.9264" lon="4.72909">
        <ele>169</ele>
        <time>2018-08-28T10:19:02Z</time>
      </trkpt>
      <trkpt lat="45.92635" lon="4.72913">
        <ele>169</ele>
        <time>2018-08-28T10:19:03Z</time>
      </trkpt>
      <trkpt lat="45.92631" lon="4.72915">
        <ele>169</ele>
        <time>2018-08-28T10:19:04Z</time>
      </trkpt>
      <trkpt lat="45.92628" lon="4.72922">
        <ele>170</ele>
        <time>2018-08-28T10:19:05Z</time>
      </trkpt>
      <trkpt lat="45.92624" lon="4.72925">
        <ele>169</ele>
        <time>2018-08-28T10:19:06Z</time>
      </trkpt>
      <trkpt lat="45.9262" lon="4.72927">
        <ele>169</ele>
        <time>2018-08-28T10:19:07Z</time>
      </trkpt>
      <trkpt lat="45.92615" lon="4.72931">
        <ele>169</ele>
        <time>2018-08-28T10:19:08Z</time>
      </trkpt>
      <trkpt lat="45.9261" lon="4.72936">
        <ele>169</ele>
        <time>2018-08-28T10:19:09Z</time>
      </trkpt>
      <trkpt lat="45.92606" lon="4.7294">
        <ele>169</ele>
        <time>2018-08-28T10:19:10Z</time>
      </trkpt>
      <trkpt lat="45.926" lon="4.72945">
        <ele>169</ele>
        <time>2018-08-28T10:19:11Z</time>
      </trkpt>
      <trkpt lat="45.92596" lon="4.7295">
        <ele>169</ele>
        <time>2018-08-28T10:19:12Z</time>
      </trkpt>
      <trkpt lat="45.92593" lon="4.72957">
        <ele>169</ele>
        <time>2018-08-28T10:19:13Z</time>
      </trkpt>
      <trkpt lat="45.92589" lon="4.72962">
        <ele>169</ele>
        <time>2018-08-28T10:19:14Z</time>
      </trkpt>
      <trkpt lat="45.92584" lon="4.72967">
        <ele>169</ele>
        <time>2018-08-28T10:19:15Z</time>
      </trkpt>
      <trkpt lat="45.92579" lon="4.72971">
        <ele>169</ele>
        <time>2018-08-28T10:19:16Z</time>
      </trkpt>
      <trkpt lat="45.92575" lon="4.72977">
        <ele>169</ele>
        <time>2018-08-28T10:19:17Z</time>
      </trkpt>
      <trkpt lat="45.92568" lon="4.72981">
        <ele>169</ele>
        <time>2018-08-28T10:19:18Z</time>
      </trkpt>
      <trkpt lat="45.92564" lon="4.72986">
        <ele>169</ele>
        <time>2018-08-28T10:19:19Z</time>
      </trkpt>
      <trkpt lat="45.92559" lon="4.72992">
        <ele>169</ele>
        <time>2018-08-28T10:19:20Z</time>
      </trkpt>
      <trkpt lat="45.92554" lon="4.72997">
        <ele>169</ele>
        <time>2018-08-28T10:19:21Z</time>
      </trkpt>
      <trkpt lat="45.92551" lon="4.73002">
        <ele>169</ele>
        <time>2018-08-28T10:19:22Z</time>
      </trkpt>
      <trkpt lat="45.92546" lon="4.73005">
        <ele>169</ele>
        <time>2018-08-28T10:19:23Z</time>
      </trkpt>
      <trkpt lat="45.92541" lon="4.7301">
        <ele>169</ele>
        <time>2018-08-28T10:19:24Z</time>
      </trkpt>
      <trkpt lat="45.92537" lon="4.73015">
        <ele>169</ele>
        <time>2018-08-28T10:19:25Z</time>
      </trkpt>
      <trkpt lat="45.92533" lon="4.73019">
        <ele>169</ele>
        <time>2018-08-28T10:19:26Z</time>
      </trkpt>
      <trkpt lat="45.92529" lon="4.73027">
        <ele>169</ele>
        <time>2018-08-28T10:19:27Z</time>
      </trkpt>
      <trkpt lat="45.92525" lon="4.7303">
        <ele>169</ele>
        <time>2018-08-28T10:19:28Z</time>
      </trkpt>
      <trkpt lat="45.92521" lon="4.73033">
        <ele>169</ele>
        <time>2018-08-28T10:19:29Z</time>
      </trkpt>
      <trkpt lat="45.92516" lon="4.73036">
        <ele>169</ele>
        <time>2018-08-28T10:19:30Z</time>
      </trkpt>
      <trkpt lat="45.92513" lon="4.73039">
        <ele>169</ele>
        <time>2018-08-28T10:19:31Z</time>
      </trkpt>
      <trkpt lat="45.92508" lon="4.73045">
        <ele>170</ele>
        <time>2018-08-28T10:19:32Z</time>
      </trkpt>
      <trkpt lat="45.92502" lon="4.73049">
        <ele>170</ele>
        <time>2018-08-28T10:19:33Z</time>
      </trkpt>
      <trkpt lat="45.92498" lon="4.73053">
        <ele>170</ele>
        <time>2018-08-28T10:19:34Z</time>
      </trkpt>
      <trkpt lat="45.92492" lon="4.73056">
        <ele>170</ele>
        <time>2018-08-28T10:19:35Z</time>
      </trkpt>
      <trkpt lat="45.92487" lon="4.73062">
        <ele>170</ele>
        <time>2018-08-28T10:19:36Z</time>
      </trkpt>
      <trkpt lat="45.92482" lon="4.73068">
        <ele>170</ele>
        <time>2018-08-28T10:19:37Z</time>
      </trkpt>
      <trkpt lat="45.92477" lon="4.73072">
        <ele>170</ele>
        <time>2018-08-28T10:19:38Z</time>
      </trkpt>
      <trkpt lat="45.92472" lon="4.73075">
        <ele>170</ele>
        <time>2018-08-28T10:19:39Z</time>
      </trkpt>
      <trkpt lat="45.92468" lon="4.73079">
        <ele>170</ele>
        <time>2018-08-28T10:19:40Z</time>
      </trkpt>
      <trkpt lat="45.92461" lon="4.73087">
        <ele>170</ele>
        <time>2018-08-28T10:19:42Z</time>
      </trkpt>
      <trkpt lat="45.92456" lon="4.7309">
        <ele>170</ele>
        <time>2018-08-28T10:19:43Z</time>
      </trkpt>
      <trkpt lat="45.92451" lon="4.73092">
        <ele>170</ele>
        <time>2018-08-28T10:19:44Z</time>
      </trkpt>
      <trkpt lat="45.92447" lon="4.73097">
        <ele>170</ele>
        <time>2018-08-28T10:19:45Z</time>
      </trkpt>
      <trkpt lat="45.92443" lon="4.73102">
        <ele>170</ele>
        <time>2018-08-28T10:19:46Z</time>
      </trkpt>
      <trkpt lat="45.92438" lon="4.73106">
        <ele>170</ele>
        <time>2018-08-28T10:19:47Z</time>
      </trkpt>
      <trkpt lat="45.92434" lon="4.7311">
        <ele>170</ele>
        <time>2018-08-28T10:19:48Z</time>
      </trkpt>
      <trkpt lat="45.9243" lon="4.73114">
        <ele>170</ele>
        <time>2018-08-28T10:19:49Z</time>
      </trkpt>
      <trkpt lat="45.92425" lon="4.73117">
        <ele>170</ele>
        <time>2018-08-28T10:19:50Z</time>
      </trkpt>
      <trkpt lat="45.92421" lon="4.73121">
        <ele>170</ele>
        <time>2018-08-28T10:19:51Z</time>
      </trkpt>
      <trkpt lat="45.92416" lon="4.73128">
        <ele>171</ele>
        <time>2018-08-28T10:19:53Z</time>
      </trkpt>
      <trkpt lat="45.92414" lon="4.73133">
        <ele>171</ele>
        <time>2018-08-28T10:19:54Z</time>
      </trkpt>
      <trkpt lat="45.92412" lon="4.73145">
        <ele>171</ele>
        <time>2018-08-28T10:19:56Z</time>
      </trkpt>
      <trkpt lat="45.92412" lon="4.73152">
        <ele>170</ele>
        <time>2018-08-28T10:19:57Z</time>
      </trkpt>
      <trkpt lat="45.92412" lon="4.73159">
        <ele>170</ele>
        <time>2018-08-28T10:19:58Z</time>
      </trkpt>
      <trkpt lat="45.92413" lon="4.73168">
        <ele>170</ele>
        <time>2018-08-28T10:19:59Z</time>
      </trkpt>
      <trkpt lat="45.92412" lon="4.73174">
        <ele>170</ele>
        <time>2018-08-28T10:20:00Z</time>
      </trkpt>
      <trkpt lat="45.92412" lon="4.73181">
        <ele>171</ele>
        <time>2018-08-28T10:20:01Z</time>
      </trkpt>
      <trkpt lat="45.92411" lon="4.73187">
        <ele>171</ele>
        <time>2018-08-28T10:20:02Z</time>
      </trkpt>
      <trkpt lat="45.9241" lon="4.73194">
        <ele>171</ele>
        <time>2018-08-28T10:20:03Z</time>
      </trkpt>
      <trkpt lat="45.9241" lon="4.732">
        <ele>171</ele>
        <time>2018-08-28T10:20:04Z</time>
      </trkpt>
      <trkpt lat="45.9241" lon="4.73207">
        <ele>171</ele>
        <time>2018-08-28T10:20:05Z</time>
      </trkpt>
      <trkpt lat="45.9241" lon="4.73214">
        <ele>171</ele>
        <time>2018-08-28T10:20:06Z</time>
      </trkpt>
      <trkpt lat="45.92411" lon="4.73222">
        <ele>171</ele>
        <time>2018-08-28T10:20:07Z</time>
      </trkpt>
      <trkpt lat="45.92411" lon="4.73229">
        <ele>171</ele>
        <time>2018-08-28T10:20:08Z</time>
      </trkpt>
      <trkpt lat="45.92411" lon="4.73237">
        <ele>171</ele>
        <time>2018-08-28T10:20:09Z</time>
      </trkpt>
      <trkpt lat="45.92412" lon="4.73244">
        <ele>171</ele>
        <time>2018-08-28T10:20:10Z</time>
      </trkpt>
      <trkpt lat="45.92412" lon="4.7325">
        <ele>171</ele>
        <time>2018-08-28T10:20:11Z</time>
      </trkpt>
      <trkpt lat="45.92412" lon="4.73256">
        <ele>171</ele>
        <time>2018-08-28T10:20:12Z</time>
      </trkpt>
      <trkpt lat="45.92411" lon="4.73262">
        <ele>171</ele>
        <time>2018-08-28T10:20:13Z</time>
      </trkpt>
      <trkpt lat="45.92411" lon="4.7327">
        <ele>171</ele>
        <time>2018-08-28T10:20:14Z</time>
      </trkpt>
      <trkpt lat="45.92413" lon="4.73278">
        <ele>171</ele>
        <time>2018-08-28T10:20:15Z</time>
      </trkpt>
      <trkpt lat="45.92413" lon="4.73285">
        <ele>171</ele>
        <time>2018-08-28T10:20:16Z</time>
      </trkpt>
      <trkpt lat="45.92413" lon="4.73292">
        <ele>171</ele>
        <time>2018-08-28T10:20:17Z</time>
      </trkpt>
      <trkpt lat="45.92414" lon="4.733">
        <ele>171</ele>
        <time>2018-08-28T10:20:18Z</time>
      </trkpt>
      <trkpt lat="45.92415" lon="4.73308">
        <ele>171</ele>
        <time>2018-08-28T10:20:19Z</time>
      </trkpt>
      <trkpt lat="45.92415" lon="4.73316">
        <ele>171</ele>
        <time>2018-08-28T10:20:20Z</time>
      </trkpt>
      <trkpt lat="45.92416" lon="4.73322">
        <ele>171</ele>
        <time>2018-08-28T10:20:21Z</time>
      </trkpt>
      <trkpt lat="45.92417" lon="4.7333">
        <ele>171</ele>
        <time>2018-08-28T10:20:22Z</time>
      </trkpt>
      <trkpt lat="45.92417" lon="4.73337">
        <ele>171</ele>
        <time>2018-08-28T10:20:23Z</time>
      </trkpt>
      <trkpt lat="45.92418" lon="4.73345">
        <ele>171</ele>
        <time>2018-08-28T10:20:24Z</time>
      </trkpt>
      <trkpt lat="45.9242" lon="4.73353">
        <ele>171</ele>
        <time>2018-08-28T10:20:25Z</time>
      </trkpt>
      <trkpt lat="45.92423" lon="4.73363">
        <ele>172</ele>
        <time>2018-08-28T10:20:26Z</time>
      </trkpt>
      <trkpt lat="45.92424" lon="4.7337">
        <ele>172</ele>
        <time>2018-08-28T10:20:27Z</time>
      </trkpt>
      <trkpt lat="45.92425" lon="4.73378">
        <ele>172</ele>
        <time>2018-08-28T10:20:28Z</time>
      </trkpt>
      <trkpt lat="45.92426" lon="4.73386">
        <ele>172</ele>
        <time>2018-08-28T10:20:29Z</time>
      </trkpt>
      <trkpt lat="45.92427" lon="4.73394">
        <ele>172</ele>
        <time>2018-08-28T10:20:30Z</time>
      </trkpt>
      <trkpt lat="45.92429" lon="4.73401">
        <ele>172</ele>
        <time>2018-08-28T10:20:31Z</time>
      </trkpt>
      <trkpt lat="45.92431" lon="4.73407">
        <ele>172</ele>
        <time>2018-08-28T10:20:32Z</time>
      </trkpt>
      <trkpt lat="45.92434" lon="4.73412">
        <ele>172</ele>
        <time>2018-08-28T10:20:33Z</time>
      </trkpt>
      <trkpt lat="45.92438" lon="4.73416">
        <ele>172</ele>
        <time>2018-08-28T10:20:34Z</time>
      </trkpt>
      <trkpt lat="45.92442" lon="4.73419">
        <ele>173</ele>
        <time>2018-08-28T10:20:35Z</time>
      </trkpt>
      <trkpt lat="45.92447" lon="4.73422">
        <ele>173</ele>
        <time>2018-08-28T10:20:36Z</time>
      </trkpt>
      <trkpt lat="45.9245" lon="4.73425">
        <ele>173</ele>
        <time>2018-08-28T10:20:37Z</time>
      </trkpt>
      <trkpt lat="45.92455" lon="4.73429">
        <ele>173</ele>
        <time>2018-08-28T10:20:38Z</time>
      </trkpt>
      <trkpt lat="45.92459" lon="4.73432">
        <ele>173</ele>
        <time>2018-08-28T10:20:39Z</time>
      </trkpt>
      <trkpt lat="45.92462" lon="4.73437">
        <ele>173</ele>
        <time>2018-08-28T10:20:40Z</time>
      </trkpt>
      <trkpt lat="45.92464" lon="4.73444">
        <ele>173</ele>
        <time>2018-08-28T10:20:41Z</time>
      </trkpt>
      <trkpt lat="45.92466" lon="4.7345">
        <ele>173</ele>
        <time>2018-08-28T10:20:42Z</time>
      </trkpt>
      <trkpt lat="45.92467" lon="4.73457">
        <ele>173</ele>
        <time>2018-08-28T10:20:43Z</time>
      </trkpt>
      <trkpt lat="45.92467" lon="4.73465">
        <ele>173</ele>
        <time>2018-08-28T10:20:44Z</time>
      </trkpt>
      <trkpt lat="45.92468" lon="4.73473">
        <ele>173</ele>
        <time>2018-08-28T10:20:45Z</time>
      </trkpt>
      <trkpt lat="45.92468" lon="4.73482">
        <ele>173</ele>
        <time>2018-08-28T10:20:46Z</time>
      </trkpt>
      <trkpt lat="45.92469" lon="4.73489">
        <ele>173</ele>
        <time>2018-08-28T10:20:47Z</time>
      </trkpt>
      <trkpt lat="45.92468" lon="4.73497">
        <ele>173</ele>
        <time>2018-08-28T10:20:48Z</time>
      </trkpt>
      <trkpt lat="45.92469" lon="4.73503">
        <ele>174</ele>
        <time>2018-08-28T10:20:49Z</time>
      </trkpt>
      <trkpt lat="45.92468" lon="4.73509">
        <ele>174</ele>
        <time>2018-08-28T10:20:50Z</time>
      </trkpt>
      <trkpt lat="45.92468" lon="4.73516">
        <ele>174</ele>
        <time>2018-08-28T10:20:51Z</time>
      </trkpt>
      <trkpt lat="45.92468" lon="4.73521">
        <ele>174</ele>
        <time>2018-08-28T10:20:52Z</time>
      </trkpt>
      <trkpt lat="45.92469" lon="4.73531">
        <ele>174</ele>
        <time>2018-08-28T10:20:53Z</time>
      </trkpt>
      <trkpt lat="45.92468" lon="4.73544">
        <ele>173</ele>
        <time>2018-08-28T10:20:55Z</time>
      </trkpt>
      <trkpt lat="45.92468" lon="4.73549">
        <ele>173</ele>
        <time>2018-08-28T10:20:56Z</time>
      </trkpt>
      <trkpt lat="45.92467" lon="4.73555">
        <ele>173</ele>
        <time>2018-08-28T10:20:57Z</time>
      </trkpt>
      <trkpt lat="45.92467" lon="4.73565">
        <ele>173</ele>
        <time>2018-08-28T10:20:58Z</time>
      </trkpt>
      <trkpt lat="45.92467" lon="4.73572">
        <ele>173</ele>
        <time>2018-08-28T10:20:59Z</time>
      </trkpt>
      <trkpt lat="45.92468" lon="4.73578">
        <ele>173</ele>
        <time>2018-08-28T10:21:00Z</time>
      </trkpt>
      <trkpt lat="45.92468" lon="4.73585">
        <ele>174</ele>
        <time>2018-08-28T10:21:01Z</time>
      </trkpt>
      <trkpt lat="45.92468" lon="4.73594">
        <ele>174</ele>
        <time>2018-08-28T10:21:02Z</time>
      </trkpt>
      <trkpt lat="45.92467" lon="4.73601">
        <ele>174</ele>
        <time>2018-08-28T10:21:03Z</time>
      </trkpt>
      <trkpt lat="45.92468" lon="4.73609">
        <ele>174</ele>
        <time>2018-08-28T10:21:04Z</time>
      </trkpt>
      <trkpt lat="45.92468" lon="4.73617">
        <ele>174</ele>
        <time>2018-08-28T10:21:05Z</time>
      </trkpt>
      <trkpt lat="45.92468" lon="4.73625">
        <ele>174</ele>
        <time>2018-08-28T10:21:06Z</time>
      </trkpt>
      <trkpt lat="45.92469" lon="4.73633">
        <ele>174</ele>
        <time>2018-08-28T10:21:07Z</time>
      </trkpt>
      <trkpt lat="45.9247" lon="4.7364">
        <ele>174</ele>
        <time>2018-08-28T10:21:08Z</time>
      </trkpt>
      <trkpt lat="45.9247" lon="4.73648">
        <ele>174</ele>
        <time>2018-08-28T10:21:09Z</time>
      </trkpt>
      <trkpt lat="45.9247" lon="4.73654">
        <ele>174</ele>
        <time>2018-08-28T10:21:10Z</time>
      </trkpt>
      <trkpt lat="45.9247" lon="4.73663">
        <ele>174</ele>
        <time>2018-08-28T10:21:11Z</time>
      </trkpt>
      <trkpt lat="45.9247" lon="4.73669">
        <ele>174</ele>
        <time>2018-08-28T10:21:12Z</time>
      </trkpt>
      <trkpt lat="45.92471" lon="4.73681">
        <ele>174</ele>
        <time>2018-08-28T10:21:14Z</time>
      </trkpt>
      <trkpt lat="45.92471" lon="4.73688">
        <ele>174</ele>
        <time>2018-08-28T10:21:15Z</time>
      </trkpt>
      <trkpt lat="45.92469" lon="4.737">
        <ele>174</ele>
        <time>2018-08-28T10:21:17Z</time>
      </trkpt>
      <trkpt lat="45.92471" lon="4.73704">
        <ele>174</ele>
        <time>2018-08-28T10:21:18Z</time>
      </trkpt>
      <trkpt lat="45.92464" lon="4.73712">
        <ele>174</ele>
        <time>2018-08-28T10:21:33Z</time>
      </trkpt>
      <trkpt lat="45.92464" lon="4.73712">
        <ele>174</ele>
        <time>2018-08-28T10:21:34Z</time>
      </trkpt>
      <trkpt lat="45.92461" lon="4.73711">
        <ele>174</ele>
        <time>2018-08-28T10:21:56.586Z</time>
      </trkpt>
    </trkseg>
  </trk>
</gpx>